<?xml version="1.0" encoding="UTF-8" standalone="no" ?>
<gpx xmlns="http://www.topografix.com/GPX/1/1" xmlns:xsi="http://www.w3.org/2001/XMLSchema-instance" xsi:schemaLocation="http://www.topografix.com/GPX/1/1 http://www.topografix.com/GPX/1/1/gpx.xsd" version="1.1" creator="VisuGPX - https://www.visugpx.com">
  <metadata>
    <name>2015-10-04 Balade Joz34 : Route des Chateaux Cathares</name>
    <desc><![CDATA[2015-10-04 07:27 Balade Joz34 : Route des Chateaux Cathares]]></desc>
  </metadata>
  <trk>
    <name><![CDATA[2015-10-04 07:27 Balade Joz34 : Route des Chateaux Cathares]]></name>
    <trkseg>
      <trkpt lat="43.61818" lon="3.83913">
        <ele>80.89</ele>
        <time>2015-10-04T05:27:30Z</time>
      </trkpt>
      <trkpt lat="43.61804" lon="3.83922">
        <ele>75.6</ele>
        <time>2015-10-04T05:27:36Z</time>
      </trkpt>
      <trkpt lat="43.61796" lon="3.83926">
        <ele>75.12</ele>
        <time>2015-10-04T05:27:52Z</time>
      </trkpt>
      <trkpt lat="43.61792" lon="3.83933">
        <ele>75.12</ele>
        <time>2015-10-04T05:27:53Z</time>
      </trkpt>
      <trkpt lat="43.61782" lon="3.8395">
        <ele>75.12</ele>
        <time>2015-10-04T05:27:55Z</time>
      </trkpt>
      <trkpt lat="43.61775" lon="3.83955">
        <ele>75.12</ele>
        <time>2015-10-04T05:27:56Z</time>
      </trkpt>
      <trkpt lat="43.61767" lon="3.83959">
        <ele>73.68</ele>
        <time>2015-10-04T05:27:57Z</time>
      </trkpt>
      <trkpt lat="43.61673" lon="3.84042">
        <ele>89.06</ele>
        <time>2015-10-04T05:28:06Z</time>
      </trkpt>
      <trkpt lat="43.61631" lon="3.84085">
        <ele>89.54</ele>
        <time>2015-10-04T05:28:13Z</time>
      </trkpt>
      <trkpt lat="43.61629" lon="3.84087">
        <ele>89.54</ele>
        <time>2015-10-04T05:28:21Z</time>
      </trkpt>
      <trkpt lat="43.61624" lon="3.84089">
        <ele>87.62</ele>
        <time>2015-10-04T05:28:30Z</time>
      </trkpt>
      <trkpt lat="43.61619" lon="3.84085">
        <ele>86.66</ele>
        <time>2015-10-04T05:28:31Z</time>
      </trkpt>
      <trkpt lat="43.61612" lon="3.84078">
        <ele>86.18</ele>
        <time>2015-10-04T05:28:32Z</time>
      </trkpt>
      <trkpt lat="43.61605" lon="3.84067">
        <ele>85.69</ele>
        <time>2015-10-04T05:28:33Z</time>
      </trkpt>
      <trkpt lat="43.61599" lon="3.84055">
        <ele>85.21</ele>
        <time>2015-10-04T05:28:34Z</time>
      </trkpt>
      <trkpt lat="43.61532" lon="3.83987">
        <ele>80.41</ele>
        <time>2015-10-04T05:28:40Z</time>
      </trkpt>
      <trkpt lat="43.61397" lon="3.8392">
        <ele>72.72</ele>
        <time>2015-10-04T05:28:48Z</time>
      </trkpt>
      <trkpt lat="43.61325" lon="3.83893">
        <ele>69.83</ele>
        <time>2015-10-04T05:28:52Z</time>
      </trkpt>
      <trkpt lat="43.61306" lon="3.8389">
        <ele>69.83</ele>
        <time>2015-10-04T05:28:53Z</time>
      </trkpt>
      <trkpt lat="43.61287" lon="3.83888">
        <ele>69.83</ele>
        <time>2015-10-04T05:28:54Z</time>
      </trkpt>
      <trkpt lat="43.61074" lon="3.83893">
        <ele>70.31</ele>
        <time>2015-10-04T05:29:05Z</time>
      </trkpt>
      <trkpt lat="43.6094" lon="3.83854">
        <ele>72.72</ele>
        <time>2015-10-04T05:29:12Z</time>
      </trkpt>
      <trkpt lat="43.60708" lon="3.83791">
        <ele>69.83</ele>
        <time>2015-10-04T05:29:24Z</time>
      </trkpt>
      <trkpt lat="43.60565" lon="3.83836">
        <ele>67.91</ele>
        <time>2015-10-04T05:29:31Z</time>
      </trkpt>
      <trkpt lat="43.60319" lon="3.83925">
        <ele>61.66</ele>
        <time>2015-10-04T05:29:43Z</time>
      </trkpt>
      <trkpt lat="43.60089" lon="3.83982">
        <ele>53.97</ele>
        <time>2015-10-04T05:29:54Z</time>
      </trkpt>
      <trkpt lat="43.59944" lon="3.84098">
        <ele>48.2</ele>
        <time>2015-10-04T05:30:02Z</time>
      </trkpt>
      <trkpt lat="43.59734" lon="3.84331">
        <ele>48.2</ele>
        <time>2015-10-04T05:30:15Z</time>
      </trkpt>
      <trkpt lat="43.59668" lon="3.84468">
        <ele>51.09</ele>
        <time>2015-10-04T05:30:22Z</time>
      </trkpt>
      <trkpt lat="43.59601" lon="3.84628">
        <ele>54.45</ele>
        <time>2015-10-04T05:30:31Z</time>
      </trkpt>
      <trkpt lat="43.59512" lon="3.84852">
        <ele>58.3</ele>
        <time>2015-10-04T05:30:40Z</time>
      </trkpt>
      <trkpt lat="43.59397" lon="3.85074">
        <ele>59.74</ele>
        <time>2015-10-04T05:30:49Z</time>
      </trkpt>
      <trkpt lat="43.59274" lon="3.85217">
        <ele>58.78</ele>
        <time>2015-10-04T05:30:57Z</time>
      </trkpt>
      <trkpt lat="43.59266" lon="3.85227">
        <ele>58.78</ele>
        <time>2015-10-04T05:31:01Z</time>
      </trkpt>
      <trkpt lat="43.59271" lon="3.85224">
        <ele>58.3</ele>
        <time>2015-10-04T05:31:29Z</time>
      </trkpt>
      <trkpt lat="43.59246" lon="3.85269">
        <ele>58.3</ele>
        <time>2015-10-04T05:31:34Z</time>
      </trkpt>
      <trkpt lat="43.59174" lon="3.85374">
        <ele>56.86</ele>
        <time>2015-10-04T05:31:41Z</time>
      </trkpt>
      <trkpt lat="43.59073" lon="3.85485">
        <ele>56.86</ele>
        <time>2015-10-04T05:31:50Z</time>
      </trkpt>
      <trkpt lat="43.59047" lon="3.855">
        <ele>55.89</ele>
        <time>2015-10-04T05:31:53Z</time>
      </trkpt>
      <trkpt lat="43.59036" lon="3.85504">
        <ele>56.37</ele>
        <time>2015-10-04T05:31:55Z</time>
      </trkpt>
      <trkpt lat="43.59032" lon="3.85508">
        <ele>57.82</ele>
        <time>2015-10-04T05:31:56Z</time>
      </trkpt>
      <trkpt lat="43.59026" lon="3.85512">
        <ele>59.26</ele>
        <time>2015-10-04T05:31:57Z</time>
      </trkpt>
      <trkpt lat="43.59014" lon="3.85513">
        <ele>58.3</ele>
        <time>2015-10-04T05:31:59Z</time>
      </trkpt>
      <trkpt lat="43.5901" lon="3.85517">
        <ele>58.3</ele>
        <time>2015-10-04T05:32:00Z</time>
      </trkpt>
      <trkpt lat="43.59006" lon="3.85523">
        <ele>57.82</ele>
        <time>2015-10-04T05:32:01Z</time>
      </trkpt>
      <trkpt lat="43.59003" lon="3.85529">
        <ele>57.82</ele>
        <time>2015-10-04T05:32:02Z</time>
      </trkpt>
      <trkpt lat="43.59001" lon="3.85535">
        <ele>57.34</ele>
        <time>2015-10-04T05:32:03Z</time>
      </trkpt>
      <trkpt lat="43.58994" lon="3.85546">
        <ele>56.37</ele>
        <time>2015-10-04T05:32:05Z</time>
      </trkpt>
      <trkpt lat="43.5899" lon="3.85547">
        <ele>55.89</ele>
        <time>2015-10-04T05:32:06Z</time>
      </trkpt>
      <trkpt lat="43.58984" lon="3.85543">
        <ele>55.41</ele>
        <time>2015-10-04T05:32:07Z</time>
      </trkpt>
      <trkpt lat="43.5898" lon="3.85538">
        <ele>55.41</ele>
        <time>2015-10-04T05:32:08Z</time>
      </trkpt>
      <trkpt lat="43.58976" lon="3.85533">
        <ele>54.93</ele>
        <time>2015-10-04T05:32:09Z</time>
      </trkpt>
      <trkpt lat="43.58974" lon="3.85529">
        <ele>54.93</ele>
        <time>2015-10-04T05:32:10Z</time>
      </trkpt>
      <trkpt lat="43.5897" lon="3.85513">
        <ele>53.49</ele>
        <time>2015-10-04T05:32:20Z</time>
      </trkpt>
      <trkpt lat="43.58971" lon="3.85512">
        <ele>53.49</ele>
        <time>2015-10-04T05:32:30Z</time>
      </trkpt>
      <trkpt lat="43.58997" lon="3.85439">
        <ele>58.3</ele>
        <time>2015-10-04T05:44:56Z</time>
      </trkpt>
      <trkpt lat="43.58975" lon="3.85417">
        <ele>59.74</ele>
        <time>2015-10-04T05:45:06Z</time>
      </trkpt>
      <trkpt lat="43.58967" lon="3.85408">
        <ele>60.22</ele>
        <time>2015-10-04T05:45:09Z</time>
      </trkpt>
      <trkpt lat="43.5896" lon="3.85405">
        <ele>59.74</ele>
        <time>2015-10-04T05:45:10Z</time>
      </trkpt>
      <trkpt lat="43.58954" lon="3.85401">
        <ele>60.22</ele>
        <time>2015-10-04T05:45:11Z</time>
      </trkpt>
      <trkpt lat="43.58947" lon="3.85398">
        <ele>60.22</ele>
        <time>2015-10-04T05:45:12Z</time>
      </trkpt>
      <trkpt lat="43.5894" lon="3.85397">
        <ele>59.74</ele>
        <time>2015-10-04T05:45:13Z</time>
      </trkpt>
      <trkpt lat="43.58933" lon="3.85396">
        <ele>58.78</ele>
        <time>2015-10-04T05:45:14Z</time>
      </trkpt>
      <trkpt lat="43.58927" lon="3.85396">
        <ele>58.3</ele>
        <time>2015-10-04T05:45:15Z</time>
      </trkpt>
      <trkpt lat="43.58922" lon="3.85395">
        <ele>57.82</ele>
        <time>2015-10-04T05:45:16Z</time>
      </trkpt>
      <trkpt lat="43.58917" lon="3.85394">
        <ele>57.34</ele>
        <time>2015-10-04T05:45:17Z</time>
      </trkpt>
      <trkpt lat="43.58913" lon="3.85395">
        <ele>56.86</ele>
        <time>2015-10-04T05:45:18Z</time>
      </trkpt>
      <trkpt lat="43.5891" lon="3.85398">
        <ele>56.37</ele>
        <time>2015-10-04T05:45:19Z</time>
      </trkpt>
      <trkpt lat="43.5891" lon="3.85403">
        <ele>55.89</ele>
        <time>2015-10-04T05:45:20Z</time>
      </trkpt>
      <trkpt lat="43.58912" lon="3.85407">
        <ele>55.41</ele>
        <time>2015-10-04T05:45:21Z</time>
      </trkpt>
      <trkpt lat="43.58915" lon="3.85408">
        <ele>54.93</ele>
        <time>2015-10-04T05:45:22Z</time>
      </trkpt>
      <trkpt lat="43.58919" lon="3.85407">
        <ele>54.93</ele>
        <time>2015-10-04T05:45:23Z</time>
      </trkpt>
      <trkpt lat="43.58924" lon="3.85404">
        <ele>54.45</ele>
        <time>2015-10-04T05:45:24Z</time>
      </trkpt>
      <trkpt lat="43.58931" lon="3.85402">
        <ele>54.45</ele>
        <time>2015-10-04T05:45:25Z</time>
      </trkpt>
      <trkpt lat="43.58939" lon="3.854">
        <ele>54.93</ele>
        <time>2015-10-04T05:45:26Z</time>
      </trkpt>
      <trkpt lat="43.5895" lon="3.85399">
        <ele>55.89</ele>
        <time>2015-10-04T05:45:27Z</time>
      </trkpt>
      <trkpt lat="43.5896" lon="3.854">
        <ele>56.86</ele>
        <time>2015-10-04T05:45:28Z</time>
      </trkpt>
      <trkpt lat="43.58969" lon="3.85404">
        <ele>56.86</ele>
        <time>2015-10-04T05:45:29Z</time>
      </trkpt>
      <trkpt lat="43.58981" lon="3.8541">
        <ele>56.86</ele>
        <time>2015-10-04T05:45:31Z</time>
      </trkpt>
      <trkpt lat="43.58989" lon="3.85417">
        <ele>56.86</ele>
        <time>2015-10-04T05:45:33Z</time>
      </trkpt>
      <trkpt lat="43.58992" lon="3.85422">
        <ele>56.86</ele>
        <time>2015-10-04T05:45:34Z</time>
      </trkpt>
      <trkpt lat="43.58995" lon="3.85427">
        <ele>57.34</ele>
        <time>2015-10-04T05:45:35Z</time>
      </trkpt>
      <trkpt lat="43.58998" lon="3.85435">
        <ele>56.86</ele>
        <time>2015-10-04T05:45:43Z</time>
      </trkpt>
      <trkpt lat="43.59012" lon="3.85417">
        <ele>55.89</ele>
        <time>2015-10-04T05:46:12Z</time>
      </trkpt>
      <trkpt lat="43.59015" lon="3.85417">
        <ele>55.89</ele>
        <time>2015-10-04T05:46:34Z</time>
      </trkpt>
      <trkpt lat="43.59009" lon="3.8543">
        <ele>65.03</ele>
        <time>2015-10-04T05:46:53Z</time>
      </trkpt>
      <trkpt lat="43.59001" lon="3.85446">
        <ele>53.97</ele>
        <time>2015-10-04T05:48:19Z</time>
      </trkpt>
      <trkpt lat="43.59044" lon="3.85496">
        <ele>56.37</ele>
        <time>2015-10-04T05:48:28Z</time>
      </trkpt>
      <trkpt lat="43.59047" lon="3.85501">
        <ele>56.37</ele>
        <time>2015-10-04T05:48:29Z</time>
      </trkpt>
      <trkpt lat="43.59049" lon="3.85505">
        <ele>55.89</ele>
        <time>2015-10-04T05:48:30Z</time>
      </trkpt>
      <trkpt lat="43.5905" lon="3.85508">
        <ele>55.89</ele>
        <time>2015-10-04T05:48:31Z</time>
      </trkpt>
      <trkpt lat="43.59049" lon="3.85513">
        <ele>55.41</ele>
        <time>2015-10-04T05:48:32Z</time>
      </trkpt>
      <trkpt lat="43.59048" lon="3.85519">
        <ele>54.93</ele>
        <time>2015-10-04T05:48:33Z</time>
      </trkpt>
      <trkpt lat="43.59044" lon="3.85526">
        <ele>54.45</ele>
        <time>2015-10-04T05:48:34Z</time>
      </trkpt>
      <trkpt lat="43.59039" lon="3.85534">
        <ele>53.97</ele>
        <time>2015-10-04T05:48:35Z</time>
      </trkpt>
      <trkpt lat="43.59025" lon="3.8556">
        <ele>53.01</ele>
        <time>2015-10-04T05:48:38Z</time>
      </trkpt>
      <trkpt lat="43.59022" lon="3.85565">
        <ele>53.01</ele>
        <time>2015-10-04T05:48:39Z</time>
      </trkpt>
      <trkpt lat="43.59019" lon="3.85567">
        <ele>52.53</ele>
        <time>2015-10-04T05:48:40Z</time>
      </trkpt>
      <trkpt lat="43.5901" lon="3.85573">
        <ele>52.05</ele>
        <time>2015-10-04T05:48:45Z</time>
      </trkpt>
      <trkpt lat="43.58994" lon="3.8558">
        <ele>51.57</ele>
        <time>2015-10-04T05:48:47Z</time>
      </trkpt>
      <trkpt lat="43.58984" lon="3.85586">
        <ele>51.57</ele>
        <time>2015-10-04T05:48:48Z</time>
      </trkpt>
      <trkpt lat="43.58976" lon="3.85595">
        <ele>51.57</ele>
        <time>2015-10-04T05:48:49Z</time>
      </trkpt>
      <trkpt lat="43.58968" lon="3.85606">
        <ele>51.09</ele>
        <time>2015-10-04T05:48:50Z</time>
      </trkpt>
      <trkpt lat="43.58963" lon="3.8562">
        <ele>51.09</ele>
        <time>2015-10-04T05:48:51Z</time>
      </trkpt>
      <trkpt lat="43.58959" lon="3.85635">
        <ele>51.09</ele>
        <time>2015-10-04T05:48:52Z</time>
      </trkpt>
      <trkpt lat="43.58955" lon="3.85651">
        <ele>50.61</ele>
        <time>2015-10-04T05:48:53Z</time>
      </trkpt>
      <trkpt lat="43.58951" lon="3.85666">
        <ele>50.61</ele>
        <time>2015-10-04T05:48:54Z</time>
      </trkpt>
      <trkpt lat="43.58945" lon="3.8568">
        <ele>50.13</ele>
        <time>2015-10-04T05:48:55Z</time>
      </trkpt>
      <trkpt lat="43.58936" lon="3.85691">
        <ele>49.65</ele>
        <time>2015-10-04T05:48:56Z</time>
      </trkpt>
      <trkpt lat="43.58924" lon="3.85699">
        <ele>49.65</ele>
        <time>2015-10-04T05:48:57Z</time>
      </trkpt>
      <trkpt lat="43.58911" lon="3.85706">
        <ele>49.16</ele>
        <time>2015-10-04T05:48:58Z</time>
      </trkpt>
      <trkpt lat="43.58897" lon="3.85712">
        <ele>48.68</ele>
        <time>2015-10-04T05:48:59Z</time>
      </trkpt>
      <trkpt lat="43.58855" lon="3.85736">
        <ele>47.24</ele>
        <time>2015-10-04T05:49:02Z</time>
      </trkpt>
      <trkpt lat="43.58841" lon="3.85747">
        <ele>46.76</ele>
        <time>2015-10-04T05:49:03Z</time>
      </trkpt>
      <trkpt lat="43.58829" lon="3.8576">
        <ele>46.76</ele>
        <time>2015-10-04T05:49:04Z</time>
      </trkpt>
      <trkpt lat="43.58769" lon="3.85822">
        <ele>45.8</ele>
        <time>2015-10-04T05:49:09Z</time>
      </trkpt>
      <trkpt lat="43.58756" lon="3.8583">
        <ele>45.8</ele>
        <time>2015-10-04T05:49:10Z</time>
      </trkpt>
      <trkpt lat="43.5859" lon="3.8594">
        <ele>46.28</ele>
        <time>2015-10-04T05:49:23Z</time>
      </trkpt>
      <trkpt lat="43.58507" lon="3.86013">
        <ele>43.88</ele>
        <time>2015-10-04T05:49:32Z</time>
      </trkpt>
      <trkpt lat="43.58377" lon="3.86128">
        <ele>37.15</ele>
        <time>2015-10-04T05:49:42Z</time>
      </trkpt>
      <trkpt lat="43.58275" lon="3.86254">
        <ele>33.3</ele>
        <time>2015-10-04T05:49:51Z</time>
      </trkpt>
      <trkpt lat="43.58243" lon="3.86306">
        <ele>31.86</ele>
        <time>2015-10-04T05:49:57Z</time>
      </trkpt>
      <trkpt lat="43.58235" lon="3.86317">
        <ele>31.86</ele>
        <time>2015-10-04T05:50:05Z</time>
      </trkpt>
      <trkpt lat="43.58192" lon="3.86386">
        <ele>29.94</ele>
        <time>2015-10-04T05:50:11Z</time>
      </trkpt>
      <trkpt lat="43.58108" lon="3.86576">
        <ele>25.61</ele>
        <time>2015-10-04T05:50:21Z</time>
      </trkpt>
      <trkpt lat="43.57993" lon="3.86838">
        <ele>24.17</ele>
        <time>2015-10-04T05:50:34Z</time>
      </trkpt>
      <trkpt lat="43.57977" lon="3.86874">
        <ele>24.17</ele>
        <time>2015-10-04T05:50:39Z</time>
      </trkpt>
      <trkpt lat="43.57978" lon="3.86872">
        <ele>24.17</ele>
        <time>2015-10-04T05:50:53Z</time>
      </trkpt>
      <trkpt lat="43.57963" lon="3.86908">
        <ele>23.69</ele>
        <time>2015-10-04T05:51:06Z</time>
      </trkpt>
      <trkpt lat="43.57895" lon="3.87052">
        <ele>25.13</ele>
        <time>2015-10-04T05:51:14Z</time>
      </trkpt>
      <trkpt lat="43.57772" lon="3.87244">
        <ele>29.46</ele>
        <time>2015-10-04T05:51:24Z</time>
      </trkpt>
      <trkpt lat="43.57683" lon="3.87327">
        <ele>24.65</ele>
        <time>2015-10-04T05:51:31Z</time>
      </trkpt>
      <trkpt lat="43.57673" lon="3.8733">
        <ele>24.17</ele>
        <time>2015-10-04T05:51:32Z</time>
      </trkpt>
      <trkpt lat="43.57663" lon="3.87327">
        <ele>23.69</ele>
        <time>2015-10-04T05:51:33Z</time>
      </trkpt>
      <trkpt lat="43.57655" lon="3.87321">
        <ele>23.21</ele>
        <time>2015-10-04T05:51:34Z</time>
      </trkpt>
      <trkpt lat="43.57649" lon="3.87315">
        <ele>22.73</ele>
        <time>2015-10-04T05:51:35Z</time>
      </trkpt>
      <trkpt lat="43.57646" lon="3.87305">
        <ele>21.77</ele>
        <time>2015-10-04T05:51:36Z</time>
      </trkpt>
      <trkpt lat="43.57644" lon="3.87294">
        <ele>21.29</ele>
        <time>2015-10-04T05:51:37Z</time>
      </trkpt>
      <trkpt lat="43.57642" lon="3.8728">
        <ele>21.77</ele>
        <time>2015-10-04T05:51:38Z</time>
      </trkpt>
      <trkpt lat="43.57639" lon="3.87266">
        <ele>22.25</ele>
        <time>2015-10-04T05:51:39Z</time>
      </trkpt>
      <trkpt lat="43.57633" lon="3.8724">
        <ele>23.21</ele>
        <time>2015-10-04T05:51:41Z</time>
      </trkpt>
      <trkpt lat="43.57604" lon="3.87143">
        <ele>27.05</ele>
        <time>2015-10-04T05:51:47Z</time>
      </trkpt>
      <trkpt lat="43.57543" lon="3.86962">
        <ele>27.53</ele>
        <time>2015-10-04T05:51:56Z</time>
      </trkpt>
      <trkpt lat="43.57505" lon="3.86844">
        <ele>27.53</ele>
        <time>2015-10-04T05:52:02Z</time>
      </trkpt>
      <trkpt lat="43.57504" lon="3.86827">
        <ele>27.53</ele>
        <time>2015-10-04T05:52:03Z</time>
      </trkpt>
      <trkpt lat="43.57506" lon="3.86813">
        <ele>27.05</ele>
        <time>2015-10-04T05:52:04Z</time>
      </trkpt>
      <trkpt lat="43.57511" lon="3.86799">
        <ele>27.05</ele>
        <time>2015-10-04T05:52:05Z</time>
      </trkpt>
      <trkpt lat="43.57517" lon="3.86787">
        <ele>27.05</ele>
        <time>2015-10-04T05:52:06Z</time>
      </trkpt>
      <trkpt lat="43.57524" lon="3.86775">
        <ele>27.53</ele>
        <time>2015-10-04T05:52:07Z</time>
      </trkpt>
      <trkpt lat="43.57528" lon="3.86761">
        <ele>27.53</ele>
        <time>2015-10-04T05:52:08Z</time>
      </trkpt>
      <trkpt lat="43.57527" lon="3.86747">
        <ele>27.53</ele>
        <time>2015-10-04T05:52:09Z</time>
      </trkpt>
      <trkpt lat="43.57523" lon="3.86734">
        <ele>27.53</ele>
        <time>2015-10-04T05:52:10Z</time>
      </trkpt>
      <trkpt lat="43.57515" lon="3.86727">
        <ele>27.05</ele>
        <time>2015-10-04T05:52:11Z</time>
      </trkpt>
      <trkpt lat="43.57506" lon="3.86723">
        <ele>26.57</ele>
        <time>2015-10-04T05:52:12Z</time>
      </trkpt>
      <trkpt lat="43.57496" lon="3.86727">
        <ele>26.09</ele>
        <time>2015-10-04T05:52:13Z</time>
      </trkpt>
      <trkpt lat="43.57486" lon="3.86736">
        <ele>26.09</ele>
        <time>2015-10-04T05:52:14Z</time>
      </trkpt>
      <trkpt lat="43.5748" lon="3.86749">
        <ele>25.13</ele>
        <time>2015-10-04T05:52:15Z</time>
      </trkpt>
      <trkpt lat="43.5748" lon="3.86768">
        <ele>25.13</ele>
        <time>2015-10-04T05:52:16Z</time>
      </trkpt>
      <trkpt lat="43.57483" lon="3.86783">
        <ele>25.13</ele>
        <time>2015-10-04T05:52:17Z</time>
      </trkpt>
      <trkpt lat="43.57489" lon="3.86798">
        <ele>25.13</ele>
        <time>2015-10-04T05:52:18Z</time>
      </trkpt>
      <trkpt lat="43.57495" lon="3.86815">
        <ele>25.13</ele>
        <time>2015-10-04T05:52:19Z</time>
      </trkpt>
      <trkpt lat="43.57501" lon="3.86837">
        <ele>25.13</ele>
        <time>2015-10-04T05:52:20Z</time>
      </trkpt>
      <trkpt lat="43.57557" lon="3.86993">
        <ele>26.09</ele>
        <time>2015-10-04T05:52:26Z</time>
      </trkpt>
      <trkpt lat="43.57606" lon="3.87142">
        <ele>26.09</ele>
        <time>2015-10-04T05:52:32Z</time>
      </trkpt>
      <trkpt lat="43.57639" lon="3.87287">
        <ele>24.17</ele>
        <time>2015-10-04T05:52:40Z</time>
      </trkpt>
      <trkpt lat="43.57643" lon="3.87308">
        <ele>23.69</ele>
        <time>2015-10-04T05:52:43Z</time>
      </trkpt>
      <trkpt lat="43.57641" lon="3.8731">
        <ele>22.73</ele>
        <time>2015-10-04T05:52:44Z</time>
      </trkpt>
      <trkpt lat="43.57639" lon="3.8731">
        <ele>21.29</ele>
        <time>2015-10-04T05:52:45Z</time>
      </trkpt>
      <trkpt lat="43.57637" lon="3.87308">
        <ele>20.32</ele>
        <time>2015-10-04T05:52:46Z</time>
      </trkpt>
      <trkpt lat="43.57635" lon="3.87304">
        <ele>19.36</ele>
        <time>2015-10-04T05:52:47Z</time>
      </trkpt>
      <trkpt lat="43.57634" lon="3.87301">
        <ele>18.88</ele>
        <time>2015-10-04T05:52:48Z</time>
      </trkpt>
      <trkpt lat="43.57631" lon="3.87294">
        <ele>16.96</ele>
        <time>2015-10-04T05:53:01Z</time>
      </trkpt>
      <trkpt lat="43.57625" lon="3.87281">
        <ele>19.84</ele>
        <time>2015-10-04T05:53:30Z</time>
      </trkpt>
      <trkpt lat="43.57615" lon="3.87242">
        <ele>19.84</ele>
        <time>2015-10-04T05:53:36Z</time>
      </trkpt>
      <trkpt lat="43.57612" lon="3.87241">
        <ele>19.84</ele>
        <time>2015-10-04T05:53:37Z</time>
      </trkpt>
      <trkpt lat="43.5761" lon="3.87241">
        <ele>19.84</ele>
        <time>2015-10-04T05:53:38Z</time>
      </trkpt>
      <trkpt lat="43.57607" lon="3.87242">
        <ele>19.84</ele>
        <time>2015-10-04T05:53:39Z</time>
      </trkpt>
      <trkpt lat="43.57606" lon="3.87243">
        <ele>19.84</ele>
        <time>2015-10-04T05:53:40Z</time>
      </trkpt>
      <trkpt lat="43.57606" lon="3.87246">
        <ele>19.36</ele>
        <time>2015-10-04T05:53:41Z</time>
      </trkpt>
      <trkpt lat="43.57607" lon="3.87249">
        <ele>18.88</ele>
        <time>2015-10-04T05:53:42Z</time>
      </trkpt>
      <trkpt lat="43.5761" lon="3.87251">
        <ele>18.88</ele>
        <time>2015-10-04T05:53:43Z</time>
      </trkpt>
      <trkpt lat="43.57614" lon="3.87254">
        <ele>18.4</ele>
        <time>2015-10-04T05:53:44Z</time>
      </trkpt>
      <trkpt lat="43.57618" lon="3.87261">
        <ele>18.4</ele>
        <time>2015-10-04T05:53:45Z</time>
      </trkpt>
      <trkpt lat="43.57621" lon="3.87269">
        <ele>18.4</ele>
        <time>2015-10-04T05:53:46Z</time>
      </trkpt>
      <trkpt lat="43.57623" lon="3.87277">
        <ele>17.92</ele>
        <time>2015-10-04T05:53:47Z</time>
      </trkpt>
      <trkpt lat="43.57636" lon="3.87304">
        <ele>18.88</ele>
        <time>2015-10-04T05:53:55Z</time>
      </trkpt>
      <trkpt lat="43.5764" lon="3.8731">
        <ele>20.32</ele>
        <time>2015-10-04T05:54:07Z</time>
      </trkpt>
      <trkpt lat="43.57641" lon="3.87313">
        <ele>20.32</ele>
        <time>2015-10-04T05:54:08Z</time>
      </trkpt>
      <trkpt lat="43.5764" lon="3.87318">
        <ele>20.32</ele>
        <time>2015-10-04T05:54:09Z</time>
      </trkpt>
      <trkpt lat="43.57639" lon="3.87324">
        <ele>20.32</ele>
        <time>2015-10-04T05:54:10Z</time>
      </trkpt>
      <trkpt lat="43.57636" lon="3.8733">
        <ele>20.32</ele>
        <time>2015-10-04T05:54:11Z</time>
      </trkpt>
      <trkpt lat="43.57632" lon="3.87338">
        <ele>20.32</ele>
        <time>2015-10-04T05:54:12Z</time>
      </trkpt>
      <trkpt lat="43.57625" lon="3.87346">
        <ele>19.84</ele>
        <time>2015-10-04T05:54:13Z</time>
      </trkpt>
      <trkpt lat="43.57616" lon="3.87354">
        <ele>19.36</ele>
        <time>2015-10-04T05:54:14Z</time>
      </trkpt>
      <trkpt lat="43.57606" lon="3.87361">
        <ele>19.36</ele>
        <time>2015-10-04T05:54:15Z</time>
      </trkpt>
      <trkpt lat="43.57594" lon="3.87366">
        <ele>18.88</ele>
        <time>2015-10-04T05:54:16Z</time>
      </trkpt>
      <trkpt lat="43.5758" lon="3.87371">
        <ele>18.88</ele>
        <time>2015-10-04T05:54:17Z</time>
      </trkpt>
      <trkpt lat="43.57565" lon="3.87374">
        <ele>18.88</ele>
        <time>2015-10-04T05:54:18Z</time>
      </trkpt>
      <trkpt lat="43.57436" lon="3.87413">
        <ele>21.29</ele>
        <time>2015-10-04T05:54:27Z</time>
      </trkpt>
      <trkpt lat="43.5742" lon="3.87413">
        <ele>21.77</ele>
        <time>2015-10-04T05:54:28Z</time>
      </trkpt>
      <trkpt lat="43.57405" lon="3.87411">
        <ele>21.29</ele>
        <time>2015-10-04T05:54:29Z</time>
      </trkpt>
      <trkpt lat="43.57391" lon="3.87405">
        <ele>21.29</ele>
        <time>2015-10-04T05:54:30Z</time>
      </trkpt>
      <trkpt lat="43.57377" lon="3.87395">
        <ele>20.81</ele>
        <time>2015-10-04T05:54:31Z</time>
      </trkpt>
      <trkpt lat="43.57364" lon="3.87382">
        <ele>20.32</ele>
        <time>2015-10-04T05:54:32Z</time>
      </trkpt>
      <trkpt lat="43.57353" lon="3.87365">
        <ele>20.32</ele>
        <time>2015-10-04T05:54:33Z</time>
      </trkpt>
      <trkpt lat="43.57343" lon="3.87346">
        <ele>20.32</ele>
        <time>2015-10-04T05:54:34Z</time>
      </trkpt>
      <trkpt lat="43.57333" lon="3.87325">
        <ele>20.32</ele>
        <time>2015-10-04T05:54:35Z</time>
      </trkpt>
      <trkpt lat="43.57324" lon="3.87302">
        <ele>20.81</ele>
        <time>2015-10-04T05:54:36Z</time>
      </trkpt>
      <trkpt lat="43.57316" lon="3.87278">
        <ele>20.81</ele>
        <time>2015-10-04T05:54:37Z</time>
      </trkpt>
      <trkpt lat="43.57263" lon="3.87106">
        <ele>22.73</ele>
        <time>2015-10-04T05:54:45Z</time>
      </trkpt>
      <trkpt lat="43.5721" lon="3.86889">
        <ele>25.13</ele>
        <time>2015-10-04T05:54:53Z</time>
      </trkpt>
      <trkpt lat="43.57156" lon="3.865">
        <ele>23.21</ele>
        <time>2015-10-04T05:55:05Z</time>
      </trkpt>
      <trkpt lat="43.57098" lon="3.86013">
        <ele>19.36</ele>
        <time>2015-10-04T05:55:19Z</time>
      </trkpt>
      <trkpt lat="43.57008" lon="3.85466">
        <ele>18.88</ele>
        <time>2015-10-04T05:55:34Z</time>
      </trkpt>
      <trkpt lat="43.56827" lon="3.84644">
        <ele>26.57</ele>
        <time>2015-10-04T05:55:56Z</time>
      </trkpt>
      <trkpt lat="43.56704" lon="3.84123">
        <ele>32.82</ele>
        <time>2015-10-04T05:56:10Z</time>
      </trkpt>
      <trkpt lat="43.56536" lon="3.83602">
        <ele>36.67</ele>
        <time>2015-10-04T05:56:25Z</time>
      </trkpt>
      <trkpt lat="43.56387" lon="3.83241">
        <ele>37.15</ele>
        <time>2015-10-04T05:56:37Z</time>
      </trkpt>
      <trkpt lat="43.56316" lon="3.83094">
        <ele>38.11</ele>
        <time>2015-10-04T05:56:44Z</time>
      </trkpt>
      <trkpt lat="43.56276" lon="3.83022">
        <ele>38.11</ele>
        <time>2015-10-04T05:56:50Z</time>
      </trkpt>
      <trkpt lat="43.56272" lon="3.83011">
        <ele>32.34</ele>
        <time>2015-10-04T05:56:57Z</time>
      </trkpt>
      <trkpt lat="43.56268" lon="3.83007">
        <ele>25.13</ele>
        <time>2015-10-04T05:57:08Z</time>
      </trkpt>
      <trkpt lat="43.56246" lon="3.82972">
        <ele>29.46</ele>
        <time>2015-10-04T05:57:14Z</time>
      </trkpt>
      <trkpt lat="43.56244" lon="3.82966">
        <ele>29.94</ele>
        <time>2015-10-04T05:57:15Z</time>
      </trkpt>
      <trkpt lat="43.56241" lon="3.8296">
        <ele>30.42</ele>
        <time>2015-10-04T05:57:16Z</time>
      </trkpt>
      <trkpt lat="43.56239" lon="3.82955">
        <ele>30.42</ele>
        <time>2015-10-04T05:57:17Z</time>
      </trkpt>
      <trkpt lat="43.56237" lon="3.82952">
        <ele>30.9</ele>
        <time>2015-10-04T05:57:18Z</time>
      </trkpt>
      <trkpt lat="43.56235" lon="3.8295">
        <ele>30.9</ele>
        <time>2015-10-04T05:57:19Z</time>
      </trkpt>
      <trkpt lat="43.56234" lon="3.82949">
        <ele>31.38</ele>
        <time>2015-10-04T05:57:20Z</time>
      </trkpt>
      <trkpt lat="43.56228" lon="3.82944">
        <ele>32.82</ele>
        <time>2015-10-04T05:57:35Z</time>
      </trkpt>
      <trkpt lat="43.56181" lon="3.829">
        <ele>32.82</ele>
        <time>2015-10-04T05:57:41Z</time>
      </trkpt>
      <trkpt lat="43.56071" lon="3.82819">
        <ele>32.34</ele>
        <time>2015-10-04T05:57:49Z</time>
      </trkpt>
      <trkpt lat="43.55975" lon="3.82716">
        <ele>31.38</ele>
        <time>2015-10-04T05:57:55Z</time>
      </trkpt>
      <trkpt lat="43.55833" lon="3.82538">
        <ele>28.5</ele>
        <time>2015-10-04T05:58:03Z</time>
      </trkpt>
      <trkpt lat="43.55582" lon="3.82295">
        <ele>25.13</ele>
        <time>2015-10-04T05:58:14Z</time>
      </trkpt>
      <trkpt lat="43.55395" lon="3.8204">
        <ele>22.25</ele>
        <time>2015-10-04T05:58:23Z</time>
      </trkpt>
      <trkpt lat="43.55256" lon="3.8176">
        <ele>24.17</ele>
        <time>2015-10-04T05:58:31Z</time>
      </trkpt>
      <trkpt lat="43.55156" lon="3.81453">
        <ele>29.94</ele>
        <time>2015-10-04T05:58:39Z</time>
      </trkpt>
      <trkpt lat="43.55097" lon="3.81085">
        <ele>36.67</ele>
        <time>2015-10-04T05:58:48Z</time>
      </trkpt>
      <trkpt lat="43.55074" lon="3.80615">
        <ele>45.8</ele>
        <time>2015-10-04T05:58:59Z</time>
      </trkpt>
      <trkpt lat="43.55025" lon="3.80295">
        <ele>48.68</ele>
        <time>2015-10-04T05:59:07Z</time>
      </trkpt>
      <trkpt lat="43.54911" lon="3.79928">
        <ele>50.13</ele>
        <time>2015-10-04T05:59:17Z</time>
      </trkpt>
      <trkpt lat="43.5479" lon="3.79689">
        <ele>51.57</ele>
        <time>2015-10-04T05:59:24Z</time>
      </trkpt>
      <trkpt lat="43.54552" lon="3.79342">
        <ele>52.53</ele>
        <time>2015-10-04T05:59:35Z</time>
      </trkpt>
      <trkpt lat="43.54267" lon="3.78931">
        <ele>53.97</ele>
        <time>2015-10-04T05:59:48Z</time>
      </trkpt>
      <trkpt lat="43.53911" lon="3.78446">
        <ele>55.89</ele>
        <time>2015-10-04T06:00:04Z</time>
      </trkpt>
      <trkpt lat="43.53604" lon="3.78132">
        <ele>57.34</ele>
        <time>2015-10-04T06:00:16Z</time>
      </trkpt>
      <trkpt lat="43.5334" lon="3.7784">
        <ele>58.3</ele>
        <time>2015-10-04T06:00:26Z</time>
      </trkpt>
      <trkpt lat="43.53137" lon="3.77524">
        <ele>60.22</ele>
        <time>2015-10-04T06:00:35Z</time>
      </trkpt>
      <trkpt lat="43.52826" lon="3.77011">
        <ele>61.66</ele>
        <time>2015-10-04T06:00:50Z</time>
      </trkpt>
      <trkpt lat="43.52625" lon="3.76663">
        <ele>62.62</ele>
        <time>2015-10-04T06:01:01Z</time>
      </trkpt>
      <trkpt lat="43.52369" lon="3.76166">
        <ele>64.55</ele>
        <time>2015-10-04T06:01:17Z</time>
      </trkpt>
      <trkpt lat="43.52083" lon="3.75577">
        <ele>67.43</ele>
        <time>2015-10-04T06:01:35Z</time>
      </trkpt>
      <trkpt lat="43.51862" lon="3.75184">
        <ele>74.16</ele>
        <time>2015-10-04T06:01:47Z</time>
      </trkpt>
      <trkpt lat="43.51644" lon="3.74911">
        <ele>79.93</ele>
        <time>2015-10-04T06:01:57Z</time>
      </trkpt>
      <trkpt lat="43.51314" lon="3.74596">
        <ele>85.21</ele>
        <time>2015-10-04T06:02:11Z</time>
      </trkpt>
      <trkpt lat="43.51016" lon="3.74273">
        <ele>88.58</ele>
        <time>2015-10-04T06:02:24Z</time>
      </trkpt>
      <trkpt lat="43.50793" lon="3.73943">
        <ele>88.1</ele>
        <time>2015-10-04T06:02:35Z</time>
      </trkpt>
      <trkpt lat="43.50465" lon="3.73375">
        <ele>86.66</ele>
        <time>2015-10-04T06:02:52Z</time>
      </trkpt>
      <trkpt lat="43.50082" lon="3.72757">
        <ele>85.69</ele>
        <time>2015-10-04T06:03:11Z</time>
      </trkpt>
      <trkpt lat="43.49783" lon="3.72381">
        <ele>82.33</ele>
        <time>2015-10-04T06:03:24Z</time>
      </trkpt>
      <trkpt lat="43.49334" lon="3.71907">
        <ele>70.31</ele>
        <time>2015-10-04T06:03:42Z</time>
      </trkpt>
      <trkpt lat="43.49074" lon="3.71589">
        <ele>62.14</ele>
        <time>2015-10-04T06:03:53Z</time>
      </trkpt>
      <trkpt lat="43.48894" lon="3.71277">
        <ele>55.89</ele>
        <time>2015-10-04T06:04:02Z</time>
      </trkpt>
      <trkpt lat="43.4874" lon="3.70888">
        <ele>48.68</ele>
        <time>2015-10-04T06:04:12Z</time>
      </trkpt>
      <trkpt lat="43.4865" lon="3.70518">
        <ele>42.44</ele>
        <time>2015-10-04T06:04:21Z</time>
      </trkpt>
      <trkpt lat="43.48511" lon="3.6972">
        <ele>28.98</ele>
        <time>2015-10-04T06:04:40Z</time>
      </trkpt>
      <trkpt lat="43.48405" lon="3.69275">
        <ele>25.13</ele>
        <time>2015-10-04T06:04:51Z</time>
      </trkpt>
      <trkpt lat="43.48231" lon="3.68723">
        <ele>26.09</ele>
        <time>2015-10-04T06:05:05Z</time>
      </trkpt>
      <trkpt lat="43.48088" lon="3.68204">
        <ele>25.13</ele>
        <time>2015-10-04T06:05:18Z</time>
      </trkpt>
      <trkpt lat="43.48027" lon="3.6783">
        <ele>23.69</ele>
        <time>2015-10-04T06:05:27Z</time>
      </trkpt>
      <trkpt lat="43.48001" lon="3.6737">
        <ele>27.05</ele>
        <time>2015-10-04T06:05:38Z</time>
      </trkpt>
      <trkpt lat="43.47973" lon="3.66611">
        <ele>40.51</ele>
        <time>2015-10-04T06:05:56Z</time>
      </trkpt>
      <trkpt lat="43.47929" lon="3.66149">
        <ele>50.13</ele>
        <time>2015-10-04T06:06:07Z</time>
      </trkpt>
      <trkpt lat="43.47835" lon="3.65742">
        <ele>57.82</ele>
        <time>2015-10-04T06:06:17Z</time>
      </trkpt>
      <trkpt lat="43.47706" lon="3.65399">
        <ele>65.03</ele>
        <time>2015-10-04T06:06:26Z</time>
      </trkpt>
      <trkpt lat="43.47455" lon="3.6489">
        <ele>71.27</ele>
        <time>2015-10-04T06:06:40Z</time>
      </trkpt>
      <trkpt lat="43.47113" lon="3.64254">
        <ele>73.2</ele>
        <time>2015-10-04T06:06:58Z</time>
      </trkpt>
      <trkpt lat="43.46723" lon="3.6362">
        <ele>75.6</ele>
        <time>2015-10-04T06:07:17Z</time>
      </trkpt>
      <trkpt lat="43.46429" lon="3.63117">
        <ele>77.52</ele>
        <time>2015-10-04T06:07:32Z</time>
      </trkpt>
      <trkpt lat="43.46275" lon="3.62726">
        <ele>75.12</ele>
        <time>2015-10-04T06:07:42Z</time>
      </trkpt>
      <trkpt lat="43.46172" lon="3.62309">
        <ele>69.35</ele>
        <time>2015-10-04T06:07:52Z</time>
      </trkpt>
      <trkpt lat="43.46029" lon="3.61735">
        <ele>60.22</ele>
        <time>2015-10-04T06:08:06Z</time>
      </trkpt>
      <trkpt lat="43.45845" lon="3.61241">
        <ele>50.13</ele>
        <time>2015-10-04T06:08:19Z</time>
      </trkpt>
      <trkpt lat="43.45703" lon="3.60969">
        <ele>43.88</ele>
        <time>2015-10-04T06:08:27Z</time>
      </trkpt>
      <trkpt lat="43.45423" lon="3.60505">
        <ele>31.38</ele>
        <time>2015-10-04T06:08:41Z</time>
      </trkpt>
      <trkpt lat="43.45269" lon="3.60131">
        <ele>23.69</ele>
        <time>2015-10-04T06:08:51Z</time>
      </trkpt>
      <trkpt lat="43.45174" lon="3.59768">
        <ele>21.29</ele>
        <time>2015-10-04T06:09:00Z</time>
      </trkpt>
      <trkpt lat="43.45114" lon="3.59338">
        <ele>24.17</ele>
        <time>2015-10-04T06:09:10Z</time>
      </trkpt>
      <trkpt lat="43.45026" lon="3.58592">
        <ele>31.86</ele>
        <time>2015-10-04T06:09:28Z</time>
      </trkpt>
      <trkpt lat="43.44943" lon="3.58228">
        <ele>35.23</ele>
        <time>2015-10-04T06:09:37Z</time>
      </trkpt>
      <trkpt lat="43.4482" lon="3.57934">
        <ele>37.63</ele>
        <time>2015-10-04T06:09:45Z</time>
      </trkpt>
      <trkpt lat="43.44658" lon="3.57678">
        <ele>37.15</ele>
        <time>2015-10-04T06:09:53Z</time>
      </trkpt>
      <trkpt lat="43.44418" lon="3.57406">
        <ele>34.74</ele>
        <time>2015-10-04T06:10:03Z</time>
      </trkpt>
      <trkpt lat="43.43876" lon="3.56842">
        <ele>33.3</ele>
        <time>2015-10-04T06:10:25Z</time>
      </trkpt>
      <trkpt lat="43.43535" lon="3.56528">
        <ele>34.74</ele>
        <time>2015-10-04T06:10:38Z</time>
      </trkpt>
      <trkpt lat="43.43123" lon="3.56241">
        <ele>30.42</ele>
        <time>2015-10-04T06:10:53Z</time>
      </trkpt>
      <trkpt lat="43.42917" lon="3.56045">
        <ele>25.61</ele>
        <time>2015-10-04T06:11:01Z</time>
      </trkpt>
      <trkpt lat="43.42717" lon="3.55762">
        <ele>20.81</ele>
        <time>2015-10-04T06:11:10Z</time>
      </trkpt>
      <trkpt lat="43.42546" lon="3.5541">
        <ele>18.4</ele>
        <time>2015-10-04T06:11:20Z</time>
      </trkpt>
      <trkpt lat="43.42406" lon="3.55035">
        <ele>19.36</ele>
        <time>2015-10-04T06:11:30Z</time>
      </trkpt>
      <trkpt lat="43.4233" lon="3.54665">
        <ele>23.21</ele>
        <time>2015-10-04T06:11:39Z</time>
      </trkpt>
      <trkpt lat="43.42198" lon="3.53855">
        <ele>36.19</ele>
        <time>2015-10-04T06:11:59Z</time>
      </trkpt>
      <trkpt lat="43.42101" lon="3.53453">
        <ele>41.95</ele>
        <time>2015-10-04T06:12:09Z</time>
      </trkpt>
      <trkpt lat="43.41983" lon="3.52981">
        <ele>48.2</ele>
        <time>2015-10-04T06:12:21Z</time>
      </trkpt>
      <trkpt lat="43.41828" lon="3.52529">
        <ele>49.16</ele>
        <time>2015-10-04T06:12:33Z</time>
      </trkpt>
      <trkpt lat="43.41597" lon="3.5202">
        <ele>45.8</ele>
        <time>2015-10-04T06:12:47Z</time>
      </trkpt>
      <trkpt lat="43.41319" lon="3.51407">
        <ele>40.99</ele>
        <time>2015-10-04T06:13:04Z</time>
      </trkpt>
      <trkpt lat="43.41114" lon="3.50871">
        <ele>38.59</ele>
        <time>2015-10-04T06:13:18Z</time>
      </trkpt>
      <trkpt lat="43.40965" lon="3.50376">
        <ele>43.4</ele>
        <time>2015-10-04T06:13:31Z</time>
      </trkpt>
      <trkpt lat="43.4084" lon="3.4981">
        <ele>48.68</ele>
        <time>2015-10-04T06:13:45Z</time>
      </trkpt>
      <trkpt lat="43.40729" lon="3.4916">
        <ele>53.01</ele>
        <time>2015-10-04T06:14:01Z</time>
      </trkpt>
      <trkpt lat="43.40616" lon="3.48668">
        <ele>53.49</ele>
        <time>2015-10-04T06:14:13Z</time>
      </trkpt>
      <trkpt lat="43.40458" lon="3.48238">
        <ele>53.01</ele>
        <time>2015-10-04T06:14:24Z</time>
      </trkpt>
      <trkpt lat="43.40256" lon="3.47851">
        <ele>50.13</ele>
        <time>2015-10-04T06:14:35Z</time>
      </trkpt>
      <trkpt lat="43.39847" lon="3.47193">
        <ele>40.51</ele>
        <time>2015-10-04T06:14:55Z</time>
      </trkpt>
      <trkpt lat="43.39394" lon="3.46467">
        <ele>26.09</ele>
        <time>2015-10-04T06:15:17Z</time>
      </trkpt>
      <trkpt lat="43.39103" lon="3.46068">
        <ele>18.88</ele>
        <time>2015-10-04T06:15:30Z</time>
      </trkpt>
      <trkpt lat="43.38861" lon="3.45771">
        <ele>16.96</ele>
        <time>2015-10-04T06:15:40Z</time>
      </trkpt>
      <trkpt lat="43.38532" lon="3.45355">
        <ele>16.96</ele>
        <time>2015-10-04T06:15:55Z</time>
      </trkpt>
      <trkpt lat="43.38144" lon="3.44838">
        <ele>16.96</ele>
        <time>2015-10-04T06:16:13Z</time>
      </trkpt>
      <trkpt lat="43.37952" lon="3.44476">
        <ele>17.44</ele>
        <time>2015-10-04T06:16:24Z</time>
      </trkpt>
      <trkpt lat="43.37817" lon="3.44107">
        <ele>18.4</ele>
        <time>2015-10-04T06:16:34Z</time>
      </trkpt>
      <trkpt lat="43.37723" lon="3.43714">
        <ele>21.77</ele>
        <time>2015-10-04T06:16:44Z</time>
      </trkpt>
      <trkpt lat="43.37673" lon="3.43297">
        <ele>24.65</ele>
        <time>2015-10-04T06:16:54Z</time>
      </trkpt>
      <trkpt lat="43.37663" lon="3.42841">
        <ele>28.02</ele>
        <time>2015-10-04T06:17:05Z</time>
      </trkpt>
      <trkpt lat="43.37687" lon="3.42016">
        <ele>34.74</ele>
        <time>2015-10-04T06:17:25Z</time>
      </trkpt>
      <trkpt lat="43.37681" lon="3.41463">
        <ele>39.55</ele>
        <time>2015-10-04T06:17:38Z</time>
      </trkpt>
      <trkpt lat="43.37621" lon="3.41001">
        <ele>39.55</ele>
        <time>2015-10-04T06:17:49Z</time>
      </trkpt>
      <trkpt lat="43.37519" lon="3.40588">
        <ele>37.15</ele>
        <time>2015-10-04T06:17:59Z</time>
      </trkpt>
      <trkpt lat="43.37397" lon="3.40247">
        <ele>34.74</ele>
        <time>2015-10-04T06:18:08Z</time>
      </trkpt>
      <trkpt lat="43.37181" lon="3.3979">
        <ele>30.9</ele>
        <time>2015-10-04T06:18:21Z</time>
      </trkpt>
      <trkpt lat="43.36773" lon="3.38969">
        <ele>26.57</ele>
        <time>2015-10-04T06:18:45Z</time>
      </trkpt>
      <trkpt lat="43.36534" lon="3.38432">
        <ele>32.34</ele>
        <time>2015-10-04T06:19:00Z</time>
      </trkpt>
      <trkpt lat="43.36414" lon="3.38045">
        <ele>37.63</ele>
        <time>2015-10-04T06:19:10Z</time>
      </trkpt>
      <trkpt lat="43.36307" lon="3.37527">
        <ele>44.36</ele>
        <time>2015-10-04T06:19:23Z</time>
      </trkpt>
      <trkpt lat="43.3626" lon="3.37065">
        <ele>47.24</ele>
        <time>2015-10-04T06:19:34Z</time>
      </trkpt>
      <trkpt lat="43.36244" lon="3.36481">
        <ele>47.24</ele>
        <time>2015-10-04T06:19:48Z</time>
      </trkpt>
      <trkpt lat="43.36229" lon="3.35635">
        <ele>43.88</ele>
        <time>2015-10-04T06:20:08Z</time>
      </trkpt>
      <trkpt lat="43.36183" lon="3.3515">
        <ele>40.99</ele>
        <time>2015-10-04T06:20:20Z</time>
      </trkpt>
      <trkpt lat="43.36086" lon="3.34723">
        <ele>38.59</ele>
        <time>2015-10-04T06:20:31Z</time>
      </trkpt>
      <trkpt lat="43.35958" lon="3.34387">
        <ele>36.67</ele>
        <time>2015-10-04T06:20:40Z</time>
      </trkpt>
      <trkpt lat="43.3577" lon="3.34045">
        <ele>34.74</ele>
        <time>2015-10-04T06:20:50Z</time>
      </trkpt>
      <trkpt lat="43.3554" lon="3.33751">
        <ele>32.34</ele>
        <time>2015-10-04T06:21:00Z</time>
      </trkpt>
      <trkpt lat="43.35175" lon="3.33379">
        <ele>31.86</ele>
        <time>2015-10-04T06:21:15Z</time>
      </trkpt>
      <trkpt lat="43.34911" lon="3.33062">
        <ele>34.74</ele>
        <time>2015-10-04T06:21:27Z</time>
      </trkpt>
      <trkpt lat="43.3471" lon="3.32714">
        <ele>37.63</ele>
        <time>2015-10-04T06:21:38Z</time>
      </trkpt>
      <trkpt lat="43.34571" lon="3.32362">
        <ele>40.03</ele>
        <time>2015-10-04T06:21:48Z</time>
      </trkpt>
      <trkpt lat="43.34459" lon="3.3193">
        <ele>42.44</ele>
        <time>2015-10-04T06:21:59Z</time>
      </trkpt>
      <trkpt lat="43.34298" lon="3.31219">
        <ele>46.28</ele>
        <time>2015-10-04T06:22:17Z</time>
      </trkpt>
      <trkpt lat="43.34071" lon="3.3023">
        <ele>46.28</ele>
        <time>2015-10-04T06:22:42Z</time>
      </trkpt>
      <trkpt lat="43.33908" lon="3.29548">
        <ele>42.92</ele>
        <time>2015-10-04T06:22:59Z</time>
      </trkpt>
      <trkpt lat="43.33768" lon="3.29125">
        <ele>40.99</ele>
        <time>2015-10-04T06:23:10Z</time>
      </trkpt>
      <trkpt lat="43.33601" lon="3.28764">
        <ele>38.11</ele>
        <time>2015-10-04T06:23:20Z</time>
      </trkpt>
      <trkpt lat="43.3338" lon="3.28399">
        <ele>34.74</ele>
        <time>2015-10-04T06:23:31Z</time>
      </trkpt>
      <trkpt lat="43.33071" lon="3.27974">
        <ele>30.42</ele>
        <time>2015-10-04T06:23:45Z</time>
      </trkpt>
      <trkpt lat="43.32812" lon="3.27612">
        <ele>26.57</ele>
        <time>2015-10-04T06:23:57Z</time>
      </trkpt>
      <trkpt lat="43.32407" lon="3.27046">
        <ele>21.29</ele>
        <time>2015-10-04T06:24:16Z</time>
      </trkpt>
      <trkpt lat="43.31969" lon="3.26433">
        <ele>15.52</ele>
        <time>2015-10-04T06:24:37Z</time>
      </trkpt>
      <trkpt lat="43.31554" lon="3.25849">
        <ele>14.56</ele>
        <time>2015-10-04T06:24:57Z</time>
      </trkpt>
      <trkpt lat="43.31204" lon="3.25311">
        <ele>14.56</ele>
        <time>2015-10-04T06:25:14Z</time>
      </trkpt>
      <trkpt lat="43.3097" lon="3.24863">
        <ele>14.56</ele>
        <time>2015-10-04T06:25:27Z</time>
      </trkpt>
      <trkpt lat="43.30775" lon="3.24389">
        <ele>15.52</ele>
        <time>2015-10-04T06:25:40Z</time>
      </trkpt>
      <trkpt lat="43.30623" lon="3.23895">
        <ele>16.48</ele>
        <time>2015-10-04T06:25:53Z</time>
      </trkpt>
      <trkpt lat="43.3051" lon="3.23375">
        <ele>23.69</ele>
        <time>2015-10-04T06:26:06Z</time>
      </trkpt>
      <trkpt lat="43.30425" lon="3.22763">
        <ele>33.3</ele>
        <time>2015-10-04T06:26:21Z</time>
      </trkpt>
      <trkpt lat="43.30344" lon="3.22109">
        <ele>42.92</ele>
        <time>2015-10-04T06:26:37Z</time>
      </trkpt>
      <trkpt lat="43.30232" lon="3.21508">
        <ele>47.24</ele>
        <time>2015-10-04T06:26:52Z</time>
      </trkpt>
      <trkpt lat="43.30103" lon="3.21041">
        <ele>50.13</ele>
        <time>2015-10-04T06:27:04Z</time>
      </trkpt>
      <trkpt lat="43.29921" lon="3.20568">
        <ele>50.13</ele>
        <time>2015-10-04T06:27:17Z</time>
      </trkpt>
      <trkpt lat="43.29699" lon="3.20127">
        <ele>45.8</ele>
        <time>2015-10-04T06:27:30Z</time>
      </trkpt>
      <trkpt lat="43.29444" lon="3.19729">
        <ele>41.95</ele>
        <time>2015-10-04T06:27:43Z</time>
      </trkpt>
      <trkpt lat="43.29177" lon="3.19397">
        <ele>38.59</ele>
        <time>2015-10-04T06:27:55Z</time>
      </trkpt>
      <trkpt lat="43.28848" lon="3.19073">
        <ele>33.3</ele>
        <time>2015-10-04T06:28:08Z</time>
      </trkpt>
      <trkpt lat="43.28489" lon="3.18802">
        <ele>27.53</ele>
        <time>2015-10-04T06:28:21Z</time>
      </trkpt>
      <trkpt lat="43.28099" lon="3.18577">
        <ele>27.53</ele>
        <time>2015-10-04T06:28:35Z</time>
      </trkpt>
      <trkpt lat="43.27547" lon="3.18284">
        <ele>38.11</ele>
        <time>2015-10-04T06:28:55Z</time>
      </trkpt>
      <trkpt lat="43.27089" lon="3.18">
        <ele>47.24</ele>
        <time>2015-10-04T06:29:11Z</time>
      </trkpt>
      <trkpt lat="43.26747" lon="3.1772">
        <ele>51.57</ele>
        <time>2015-10-04T06:29:24Z</time>
      </trkpt>
      <trkpt lat="43.2641" lon="3.17364">
        <ele>43.88</ele>
        <time>2015-10-04T06:29:38Z</time>
      </trkpt>
      <trkpt lat="43.26096" lon="3.16958">
        <ele>34.26</ele>
        <time>2015-10-04T06:29:52Z</time>
      </trkpt>
      <trkpt lat="43.25822" lon="3.16556">
        <ele>25.61</ele>
        <time>2015-10-04T06:30:05Z</time>
      </trkpt>
      <trkpt lat="43.25494" lon="3.16116">
        <ele>16.96</ele>
        <time>2015-10-04T06:30:20Z</time>
      </trkpt>
      <trkpt lat="43.25089" lon="3.15667">
        <ele>10.71</ele>
        <time>2015-10-04T06:30:37Z</time>
      </trkpt>
      <trkpt lat="43.24729" lon="3.15288">
        <ele>10.71</ele>
        <time>2015-10-04T06:30:52Z</time>
      </trkpt>
      <trkpt lat="43.24422" lon="3.14955">
        <ele>11.67</ele>
        <time>2015-10-04T06:31:05Z</time>
      </trkpt>
      <trkpt lat="43.23963" lon="3.14449">
        <ele>20.81</ele>
        <time>2015-10-04T06:31:24Z</time>
      </trkpt>
      <trkpt lat="43.23715" lon="3.14102">
        <ele>28.02</ele>
        <time>2015-10-04T06:31:36Z</time>
      </trkpt>
      <trkpt lat="43.23504" lon="3.13714">
        <ele>30.42</ele>
        <time>2015-10-04T06:31:48Z</time>
      </trkpt>
      <trkpt lat="43.23333" lon="3.13295">
        <ele>32.34</ele>
        <time>2015-10-04T06:32:00Z</time>
      </trkpt>
      <trkpt lat="43.23205" lon="3.12854">
        <ele>34.74</ele>
        <time>2015-10-04T06:32:12Z</time>
      </trkpt>
      <trkpt lat="43.23123" lon="3.1242">
        <ele>39.55</ele>
        <time>2015-10-04T06:32:23Z</time>
      </trkpt>
      <trkpt lat="43.23036" lon="3.11656">
        <ele>51.57</ele>
        <time>2015-10-04T06:32:42Z</time>
      </trkpt>
      <trkpt lat="43.22933" lon="3.10892">
        <ele>53.49</ele>
        <time>2015-10-04T06:33:01Z</time>
      </trkpt>
      <trkpt lat="43.22811" lon="3.10466">
        <ele>53.01</ele>
        <time>2015-10-04T06:33:12Z</time>
      </trkpt>
      <trkpt lat="43.22656" lon="3.1011">
        <ele>53.01</ele>
        <time>2015-10-04T06:33:22Z</time>
      </trkpt>
      <trkpt lat="43.22461" lon="3.09803">
        <ele>47.72</ele>
        <time>2015-10-04T06:33:32Z</time>
      </trkpt>
      <trkpt lat="43.22234" lon="3.09546">
        <ele>39.55</ele>
        <time>2015-10-04T06:33:42Z</time>
      </trkpt>
      <trkpt lat="43.21979" lon="3.09342">
        <ele>33.78</ele>
        <time>2015-10-04T06:33:52Z</time>
      </trkpt>
      <trkpt lat="43.21667" lon="3.09173">
        <ele>31.86</ele>
        <time>2015-10-04T06:34:03Z</time>
      </trkpt>
      <trkpt lat="43.21164" lon="3.08933">
        <ele>31.38</ele>
        <time>2015-10-04T06:34:21Z</time>
      </trkpt>
      <trkpt lat="43.20873" lon="3.08718">
        <ele>40.03</ele>
        <time>2015-10-04T06:34:32Z</time>
      </trkpt>
      <trkpt lat="43.20582" lon="3.08415">
        <ele>48.68</ele>
        <time>2015-10-04T06:34:44Z</time>
      </trkpt>
      <trkpt lat="43.20154" lon="3.0801">
        <ele>42.92</ele>
        <time>2015-10-04T06:35:01Z</time>
      </trkpt>
      <trkpt lat="43.19736" lon="3.07607">
        <ele>26.09</ele>
        <time>2015-10-04T06:35:18Z</time>
      </trkpt>
      <trkpt lat="43.19399" lon="3.07206">
        <ele>14.56</ele>
        <time>2015-10-04T06:35:33Z</time>
      </trkpt>
      <trkpt lat="43.19084" lon="3.06746">
        <ele>12.15</ele>
        <time>2015-10-04T06:35:48Z</time>
      </trkpt>
      <trkpt lat="43.18821" lon="3.06275">
        <ele>10.23</ele>
        <time>2015-10-04T06:36:02Z</time>
      </trkpt>
      <trkpt lat="43.18589" lon="3.05766">
        <ele>9.75</ele>
        <time>2015-10-04T06:36:16Z</time>
      </trkpt>
      <trkpt lat="43.18399" lon="3.05244">
        <ele>10.71</ele>
        <time>2015-10-04T06:36:30Z</time>
      </trkpt>
      <trkpt lat="43.18193" lon="3.04664">
        <ele>11.19</ele>
        <time>2015-10-04T06:36:45Z</time>
      </trkpt>
      <trkpt lat="43.17968" lon="3.04148">
        <ele>12.15</ele>
        <time>2015-10-04T06:36:59Z</time>
      </trkpt>
      <trkpt lat="43.17689" lon="3.03527">
        <ele>12.63</ele>
        <time>2015-10-04T06:37:16Z</time>
      </trkpt>
      <trkpt lat="43.17498" lon="3.02985">
        <ele>12.63</ele>
        <time>2015-10-04T06:37:30Z</time>
      </trkpt>
      <trkpt lat="43.17278" lon="3.02245">
        <ele>11.67</ele>
        <time>2015-10-04T06:37:48Z</time>
      </trkpt>
      <trkpt lat="43.17034" lon="3.01426">
        <ele>11.19</ele>
        <time>2015-10-04T06:38:08Z</time>
      </trkpt>
      <trkpt lat="43.16805" lon="3.00652">
        <ele>15.52</ele>
        <time>2015-10-04T06:38:27Z</time>
      </trkpt>
      <trkpt lat="43.16572" lon="2.99881">
        <ele>19.84</ele>
        <time>2015-10-04T06:38:46Z</time>
      </trkpt>
      <trkpt lat="43.16435" lon="2.99584">
        <ele>18.4</ele>
        <time>2015-10-04T06:38:54Z</time>
      </trkpt>
      <trkpt lat="43.16223" lon="2.99263">
        <ele>19.84</ele>
        <time>2015-10-04T06:39:04Z</time>
      </trkpt>
      <trkpt lat="43.15956" lon="2.98961">
        <ele>18.88</ele>
        <time>2015-10-04T06:39:15Z</time>
      </trkpt>
      <trkpt lat="43.15661" lon="2.98706">
        <ele>16.48</ele>
        <time>2015-10-04T06:39:26Z</time>
      </trkpt>
      <trkpt lat="43.15272" lon="2.98446">
        <ele>14.08</ele>
        <time>2015-10-04T06:39:40Z</time>
      </trkpt>
      <trkpt lat="43.14895" lon="2.9825">
        <ele>15.04</ele>
        <time>2015-10-04T06:39:53Z</time>
      </trkpt>
      <trkpt lat="43.14338" lon="2.97982">
        <ele>18.88</ele>
        <time>2015-10-04T06:40:12Z</time>
      </trkpt>
      <trkpt lat="43.14062" lon="2.9779">
        <ele>22.25</ele>
        <time>2015-10-04T06:40:22Z</time>
      </trkpt>
      <trkpt lat="43.13806" lon="2.97541">
        <ele>24.17</ele>
        <time>2015-10-04T06:40:32Z</time>
      </trkpt>
      <trkpt lat="43.13532" lon="2.97194">
        <ele>24.65</ele>
        <time>2015-10-04T06:40:44Z</time>
      </trkpt>
      <trkpt lat="43.13085" lon="2.96596">
        <ele>32.82</ele>
        <time>2015-10-04T06:41:04Z</time>
      </trkpt>
      <trkpt lat="43.12791" lon="2.9624">
        <ele>41.47</ele>
        <time>2015-10-04T06:41:17Z</time>
      </trkpt>
      <trkpt lat="43.12561" lon="2.96053">
        <ele>44.84</ele>
        <time>2015-10-04T06:41:26Z</time>
      </trkpt>
      <trkpt lat="43.12359" lon="2.95962">
        <ele>44.84</ele>
        <time>2015-10-04T06:41:33Z</time>
      </trkpt>
      <trkpt lat="43.11973" lon="2.9582">
        <ele>42.92</ele>
        <time>2015-10-04T06:41:46Z</time>
      </trkpt>
      <trkpt lat="43.11723" lon="2.95649">
        <ele>37.63</ele>
        <time>2015-10-04T06:41:55Z</time>
      </trkpt>
      <trkpt lat="43.11326" lon="2.95305">
        <ele>27.53</ele>
        <time>2015-10-04T06:42:10Z</time>
      </trkpt>
      <trkpt lat="43.10921" lon="2.95011">
        <ele>21.77</ele>
        <time>2015-10-04T06:42:25Z</time>
      </trkpt>
      <trkpt lat="43.10521" lon="2.94714">
        <ele>16.96</ele>
        <time>2015-10-04T06:42:40Z</time>
      </trkpt>
      <trkpt lat="43.10202" lon="2.94397">
        <ele>13.6</ele>
        <time>2015-10-04T06:42:53Z</time>
      </trkpt>
      <trkpt lat="43.09936" lon="2.94193">
        <ele>13.12</ele>
        <time>2015-10-04T06:43:03Z</time>
      </trkpt>
      <trkpt lat="43.09595" lon="2.94018">
        <ele>18.4</ele>
        <time>2015-10-04T06:43:15Z</time>
      </trkpt>
      <trkpt lat="43.09299" lon="2.93931">
        <ele>23.69</ele>
        <time>2015-10-04T06:43:25Z</time>
      </trkpt>
      <trkpt lat="43.08878" lon="2.93872">
        <ele>28.02</ele>
        <time>2015-10-04T06:43:39Z</time>
      </trkpt>
      <trkpt lat="43.08579" lon="2.93784">
        <ele>32.34</ele>
        <time>2015-10-04T06:43:49Z</time>
      </trkpt>
      <trkpt lat="43.08197" lon="2.93618">
        <ele>40.51</ele>
        <time>2015-10-04T06:44:03Z</time>
      </trkpt>
      <trkpt lat="43.07983" lon="2.93579">
        <ele>41.47</ele>
        <time>2015-10-04T06:44:11Z</time>
      </trkpt>
      <trkpt lat="43.07753" lon="2.93603">
        <ele>39.55</ele>
        <time>2015-10-04T06:44:19Z</time>
      </trkpt>
      <trkpt lat="43.07339" lon="2.93728">
        <ele>29.46</ele>
        <time>2015-10-04T06:44:33Z</time>
      </trkpt>
      <trkpt lat="43.07037" lon="2.93782">
        <ele>22.73</ele>
        <time>2015-10-04T06:44:43Z</time>
      </trkpt>
      <trkpt lat="43.068" lon="2.9375">
        <ele>18.88</ele>
        <time>2015-10-04T06:44:51Z</time>
      </trkpt>
      <trkpt lat="43.06615" lon="2.93698">
        <ele>16.48</ele>
        <time>2015-10-04T06:44:58Z</time>
      </trkpt>
      <trkpt lat="43.06375" lon="2.93668">
        <ele>15.52</ele>
        <time>2015-10-04T06:45:06Z</time>
      </trkpt>
      <trkpt lat="43.06107" lon="2.93709">
        <ele>17.92</ele>
        <time>2015-10-04T06:45:15Z</time>
      </trkpt>
      <trkpt lat="43.05512" lon="2.93859">
        <ele>26.09</ele>
        <time>2015-10-04T06:45:35Z</time>
      </trkpt>
      <trkpt lat="43.05142" lon="2.93971">
        <ele>29.46</ele>
        <time>2015-10-04T06:45:48Z</time>
      </trkpt>
      <trkpt lat="43.04912" lon="2.9409">
        <ele>30.9</ele>
        <time>2015-10-04T06:45:56Z</time>
      </trkpt>
      <trkpt lat="43.04662" lon="2.94284">
        <ele>26.57</ele>
        <time>2015-10-04T06:46:05Z</time>
      </trkpt>
      <trkpt lat="43.04418" lon="2.94549">
        <ele>22.73</ele>
        <time>2015-10-04T06:46:15Z</time>
      </trkpt>
      <trkpt lat="43.04125" lon="2.94935">
        <ele>18.88</ele>
        <time>2015-10-04T06:46:28Z</time>
      </trkpt>
      <trkpt lat="43.03917" lon="2.95117">
        <ele>18.4</ele>
        <time>2015-10-04T06:46:36Z</time>
      </trkpt>
      <trkpt lat="43.0372" lon="2.95215">
        <ele>17.92</ele>
        <time>2015-10-04T06:46:43Z</time>
      </trkpt>
      <trkpt lat="43.03576" lon="2.95244">
        <ele>17.92</ele>
        <time>2015-10-04T06:46:49Z</time>
      </trkpt>
      <trkpt lat="43.03556" lon="2.95243">
        <ele>17.44</ele>
        <time>2015-10-04T06:46:50Z</time>
      </trkpt>
      <trkpt lat="43.03537" lon="2.95239">
        <ele>16.96</ele>
        <time>2015-10-04T06:46:51Z</time>
      </trkpt>
      <trkpt lat="43.03519" lon="2.95232">
        <ele>16.96</ele>
        <time>2015-10-04T06:46:52Z</time>
      </trkpt>
      <trkpt lat="43.03501" lon="2.95222">
        <ele>16.48</ele>
        <time>2015-10-04T06:46:53Z</time>
      </trkpt>
      <trkpt lat="43.03484" lon="2.9521">
        <ele>16.48</ele>
        <time>2015-10-04T06:46:54Z</time>
      </trkpt>
      <trkpt lat="43.03467" lon="2.95197">
        <ele>16.48</ele>
        <time>2015-10-04T06:46:55Z</time>
      </trkpt>
      <trkpt lat="43.03386" lon="2.95134">
        <ele>19.84</ele>
        <time>2015-10-04T06:47:00Z</time>
      </trkpt>
      <trkpt lat="43.03371" lon="2.95127">
        <ele>20.81</ele>
        <time>2015-10-04T06:47:01Z</time>
      </trkpt>
      <trkpt lat="43.03357" lon="2.95126">
        <ele>21.77</ele>
        <time>2015-10-04T06:47:02Z</time>
      </trkpt>
      <trkpt lat="43.03344" lon="2.95131">
        <ele>22.73</ele>
        <time>2015-10-04T06:47:03Z</time>
      </trkpt>
      <trkpt lat="43.03331" lon="2.95144">
        <ele>23.21</ele>
        <time>2015-10-04T06:47:04Z</time>
      </trkpt>
      <trkpt lat="43.03324" lon="2.95162">
        <ele>24.17</ele>
        <time>2015-10-04T06:47:05Z</time>
      </trkpt>
      <trkpt lat="43.03316" lon="2.95183">
        <ele>25.13</ele>
        <time>2015-10-04T06:47:06Z</time>
      </trkpt>
      <trkpt lat="43.03315" lon="2.95204">
        <ele>25.61</ele>
        <time>2015-10-04T06:47:07Z</time>
      </trkpt>
      <trkpt lat="43.03311" lon="2.95228">
        <ele>25.61</ele>
        <time>2015-10-04T06:47:08Z</time>
      </trkpt>
      <trkpt lat="43.03311" lon="2.95252">
        <ele>25.61</ele>
        <time>2015-10-04T06:47:09Z</time>
      </trkpt>
      <trkpt lat="43.03312" lon="2.95277">
        <ele>25.13</ele>
        <time>2015-10-04T06:47:10Z</time>
      </trkpt>
      <trkpt lat="43.03313" lon="2.95302">
        <ele>25.13</ele>
        <time>2015-10-04T06:47:11Z</time>
      </trkpt>
      <trkpt lat="43.03316" lon="2.95578">
        <ele>25.13</ele>
        <time>2015-10-04T06:47:23Z</time>
      </trkpt>
      <trkpt lat="43.03317" lon="2.95628">
        <ele>24.17</ele>
        <time>2015-10-04T06:47:29Z</time>
      </trkpt>
      <trkpt lat="43.03316" lon="2.95632">
        <ele>22.73</ele>
        <time>2015-10-04T06:47:39Z</time>
      </trkpt>
      <trkpt lat="43.03314" lon="2.95634">
        <ele>17.92</ele>
        <time>2015-10-04T06:48:23Z</time>
      </trkpt>
      <trkpt lat="43.03313" lon="2.95638">
        <ele>18.4</ele>
        <time>2015-10-04T06:48:24Z</time>
      </trkpt>
      <trkpt lat="43.03313" lon="2.95644">
        <ele>18.4</ele>
        <time>2015-10-04T06:48:25Z</time>
      </trkpt>
      <trkpt lat="43.03312" lon="2.95653">
        <ele>18.88</ele>
        <time>2015-10-04T06:48:26Z</time>
      </trkpt>
      <trkpt lat="43.03312" lon="2.95663">
        <ele>19.36</ele>
        <time>2015-10-04T06:48:27Z</time>
      </trkpt>
      <trkpt lat="43.03306" lon="2.95702">
        <ele>19.84</ele>
        <time>2015-10-04T06:48:31Z</time>
      </trkpt>
      <trkpt lat="43.03301" lon="2.95717">
        <ele>20.32</ele>
        <time>2015-10-04T06:48:33Z</time>
      </trkpt>
      <trkpt lat="43.033" lon="2.95722">
        <ele>20.32</ele>
        <time>2015-10-04T06:48:34Z</time>
      </trkpt>
      <trkpt lat="43.03301" lon="2.95728">
        <ele>20.81</ele>
        <time>2015-10-04T06:48:42Z</time>
      </trkpt>
      <trkpt lat="43.03298" lon="2.95724">
        <ele>26.57</ele>
        <time>2015-10-04T06:49:30Z</time>
      </trkpt>
      <trkpt lat="43.03298" lon="2.95737">
        <ele>27.53</ele>
        <time>2015-10-04T06:50:43Z</time>
      </trkpt>
      <trkpt lat="43.03298" lon="2.95743">
        <ele>27.53</ele>
        <time>2015-10-04T06:50:44Z</time>
      </trkpt>
      <trkpt lat="43.033" lon="2.95749">
        <ele>27.53</ele>
        <time>2015-10-04T06:50:45Z</time>
      </trkpt>
      <trkpt lat="43.03302" lon="2.95755">
        <ele>28.02</ele>
        <time>2015-10-04T06:50:46Z</time>
      </trkpt>
      <trkpt lat="43.03306" lon="2.95768">
        <ele>28.02</ele>
        <time>2015-10-04T06:50:49Z</time>
      </trkpt>
      <trkpt lat="43.03306" lon="2.95775">
        <ele>28.02</ele>
        <time>2015-10-04T06:50:50Z</time>
      </trkpt>
      <trkpt lat="43.03305" lon="2.95786">
        <ele>28.02</ele>
        <time>2015-10-04T06:50:51Z</time>
      </trkpt>
      <trkpt lat="43.03293" lon="2.95911">
        <ele>28.02</ele>
        <time>2015-10-04T06:51:00Z</time>
      </trkpt>
      <trkpt lat="43.03296" lon="2.95941">
        <ele>27.53</ele>
        <time>2015-10-04T06:51:06Z</time>
      </trkpt>
      <trkpt lat="43.03295" lon="2.9595">
        <ele>27.05</ele>
        <time>2015-10-04T06:51:08Z</time>
      </trkpt>
      <trkpt lat="43.03293" lon="2.9596">
        <ele>27.05</ele>
        <time>2015-10-04T06:51:09Z</time>
      </trkpt>
      <trkpt lat="43.03276" lon="2.9606">
        <ele>26.57</ele>
        <time>2015-10-04T06:51:15Z</time>
      </trkpt>
      <trkpt lat="43.03233" lon="2.9627">
        <ele>26.57</ele>
        <time>2015-10-04T06:51:24Z</time>
      </trkpt>
      <trkpt lat="43.03176" lon="2.96481">
        <ele>25.61</ele>
        <time>2015-10-04T06:51:34Z</time>
      </trkpt>
      <trkpt lat="43.03161" lon="2.96522">
        <ele>25.13</ele>
        <time>2015-10-04T06:51:37Z</time>
      </trkpt>
      <trkpt lat="43.03154" lon="2.96528">
        <ele>25.13</ele>
        <time>2015-10-04T06:51:38Z</time>
      </trkpt>
      <trkpt lat="43.03146" lon="2.9653">
        <ele>25.13</ele>
        <time>2015-10-04T06:51:39Z</time>
      </trkpt>
      <trkpt lat="43.03138" lon="2.96531">
        <ele>24.65</ele>
        <time>2015-10-04T06:51:40Z</time>
      </trkpt>
      <trkpt lat="43.03129" lon="2.96529">
        <ele>24.17</ele>
        <time>2015-10-04T06:51:41Z</time>
      </trkpt>
      <trkpt lat="43.03121" lon="2.96527">
        <ele>23.69</ele>
        <time>2015-10-04T06:51:42Z</time>
      </trkpt>
      <trkpt lat="43.03112" lon="2.96524">
        <ele>23.69</ele>
        <time>2015-10-04T06:51:43Z</time>
      </trkpt>
      <trkpt lat="43.03105" lon="2.9652">
        <ele>23.21</ele>
        <time>2015-10-04T06:51:44Z</time>
      </trkpt>
      <trkpt lat="43.03044" lon="2.96484">
        <ele>22.25</ele>
        <time>2015-10-04T06:51:53Z</time>
      </trkpt>
      <trkpt lat="43.03039" lon="2.96484">
        <ele>22.25</ele>
        <time>2015-10-04T06:51:54Z</time>
      </trkpt>
      <trkpt lat="43.03036" lon="2.96486">
        <ele>21.77</ele>
        <time>2015-10-04T06:51:55Z</time>
      </trkpt>
      <trkpt lat="43.03034" lon="2.9649">
        <ele>21.77</ele>
        <time>2015-10-04T06:51:56Z</time>
      </trkpt>
      <trkpt lat="43.03032" lon="2.96496">
        <ele>21.29</ele>
        <time>2015-10-04T06:51:57Z</time>
      </trkpt>
      <trkpt lat="43.03032" lon="2.96503">
        <ele>21.29</ele>
        <time>2015-10-04T06:51:58Z</time>
      </trkpt>
      <trkpt lat="43.03034" lon="2.96509">
        <ele>21.29</ele>
        <time>2015-10-04T06:51:59Z</time>
      </trkpt>
      <trkpt lat="43.03039" lon="2.96513">
        <ele>21.29</ele>
        <time>2015-10-04T06:52:00Z</time>
      </trkpt>
      <trkpt lat="43.03043" lon="2.96516">
        <ele>21.77</ele>
        <time>2015-10-04T06:52:01Z</time>
      </trkpt>
      <trkpt lat="43.03046" lon="2.96519">
        <ele>21.77</ele>
        <time>2015-10-04T06:52:02Z</time>
      </trkpt>
      <trkpt lat="43.03048" lon="2.9652">
        <ele>21.77</ele>
        <time>2015-10-04T06:52:03Z</time>
      </trkpt>
      <trkpt lat="43.03048" lon="2.96517">
        <ele>16.96</ele>
        <time>2015-10-04T06:52:16Z</time>
      </trkpt>
      <trkpt lat="43.03046" lon="2.96518">
        <ele>14.56</ele>
        <time>2015-10-04T06:52:30Z</time>
      </trkpt>
      <trkpt lat="43.03047" lon="2.9652">
        <ele>3.5</ele>
        <time>2015-10-04T06:54:43Z</time>
      </trkpt>
      <trkpt lat="43.03047" lon="2.96519">
        <ele>7.83</ele>
        <time>2015-10-04T06:55:24Z</time>
      </trkpt>
      <trkpt lat="43.03045" lon="2.96521">
        <ele>12.15</ele>
        <time>2015-10-04T06:55:54Z</time>
      </trkpt>
      <trkpt lat="43.03044" lon="2.96522">
        <ele>13.12</ele>
        <time>2015-10-04T06:56:31Z</time>
      </trkpt>
      <trkpt lat="43.03046" lon="2.96523">
        <ele>15.52</ele>
        <time>2015-10-04T06:56:50Z</time>
      </trkpt>
      <trkpt lat="43.03067" lon="2.96547">
        <ele>12.63</ele>
        <time>2015-10-04T06:57:02Z</time>
      </trkpt>
      <trkpt lat="43.03069" lon="2.96548">
        <ele>12.63</ele>
        <time>2015-10-04T06:57:03Z</time>
      </trkpt>
      <trkpt lat="43.03091" lon="2.96523">
        <ele>15.04</ele>
        <time>2015-10-04T06:57:13Z</time>
      </trkpt>
      <trkpt lat="43.03103" lon="2.96536">
        <ele>16</ele>
        <time>2015-10-04T06:57:18Z</time>
      </trkpt>
      <trkpt lat="43.03108" lon="2.9655">
        <ele>16.96</ele>
        <time>2015-10-04T06:57:21Z</time>
      </trkpt>
      <trkpt lat="43.03107" lon="2.96556">
        <ele>16.96</ele>
        <time>2015-10-04T06:57:22Z</time>
      </trkpt>
      <trkpt lat="43.03106" lon="2.96562">
        <ele>16.48</ele>
        <time>2015-10-04T06:57:23Z</time>
      </trkpt>
      <trkpt lat="43.03102" lon="2.96569">
        <ele>16.48</ele>
        <time>2015-10-04T06:57:24Z</time>
      </trkpt>
      <trkpt lat="43.03098" lon="2.96576">
        <ele>16.48</ele>
        <time>2015-10-04T06:57:25Z</time>
      </trkpt>
      <trkpt lat="43.03092" lon="2.96582">
        <ele>16.48</ele>
        <time>2015-10-04T06:57:26Z</time>
      </trkpt>
      <trkpt lat="43.03085" lon="2.96589">
        <ele>16</ele>
        <time>2015-10-04T06:57:27Z</time>
      </trkpt>
      <trkpt lat="43.03079" lon="2.96597">
        <ele>16</ele>
        <time>2015-10-04T06:57:28Z</time>
      </trkpt>
      <trkpt lat="43.03073" lon="2.96607">
        <ele>16</ele>
        <time>2015-10-04T06:57:29Z</time>
      </trkpt>
      <trkpt lat="43.03027" lon="2.96689">
        <ele>14.08</ele>
        <time>2015-10-04T06:57:36Z</time>
      </trkpt>
      <trkpt lat="43.03017" lon="2.96701">
        <ele>14.08</ele>
        <time>2015-10-04T06:57:37Z</time>
      </trkpt>
      <trkpt lat="43.03006" lon="2.96709">
        <ele>14.08</ele>
        <time>2015-10-04T06:57:38Z</time>
      </trkpt>
      <trkpt lat="43.02994" lon="2.96715">
        <ele>14.08</ele>
        <time>2015-10-04T06:57:39Z</time>
      </trkpt>
      <trkpt lat="43.02982" lon="2.96717">
        <ele>14.08</ele>
        <time>2015-10-04T06:57:40Z</time>
      </trkpt>
      <trkpt lat="43.02969" lon="2.96717">
        <ele>14.08</ele>
        <time>2015-10-04T06:57:41Z</time>
      </trkpt>
      <trkpt lat="43.02956" lon="2.96716">
        <ele>14.56</ele>
        <time>2015-10-04T06:57:42Z</time>
      </trkpt>
      <trkpt lat="43.0293" lon="2.96711">
        <ele>15.52</ele>
        <time>2015-10-04T06:57:44Z</time>
      </trkpt>
      <trkpt lat="43.02917" lon="2.96707">
        <ele>16</ele>
        <time>2015-10-04T06:57:45Z</time>
      </trkpt>
      <trkpt lat="43.02904" lon="2.967">
        <ele>16.48</ele>
        <time>2015-10-04T06:57:46Z</time>
      </trkpt>
      <trkpt lat="43.02766" lon="2.9661">
        <ele>20.32</ele>
        <time>2015-10-04T06:57:55Z</time>
      </trkpt>
      <trkpt lat="43.02545" lon="2.96467">
        <ele>24.65</ele>
        <time>2015-10-04T06:58:07Z</time>
      </trkpt>
      <trkpt lat="43.02401" lon="2.96439">
        <ele>26.09</ele>
        <time>2015-10-04T06:58:14Z</time>
      </trkpt>
      <trkpt lat="43.0224" lon="2.96483">
        <ele>25.61</ele>
        <time>2015-10-04T06:58:22Z</time>
      </trkpt>
      <trkpt lat="43.02123" lon="2.96578">
        <ele>25.61</ele>
        <time>2015-10-04T06:58:29Z</time>
      </trkpt>
      <trkpt lat="43.02109" lon="2.96594">
        <ele>25.61</ele>
        <time>2015-10-04T06:58:30Z</time>
      </trkpt>
      <trkpt lat="43.02025" lon="2.96732">
        <ele>26.57</ele>
        <time>2015-10-04T06:58:37Z</time>
      </trkpt>
      <trkpt lat="43.01937" lon="2.96948">
        <ele>28.5</ele>
        <time>2015-10-04T06:58:45Z</time>
      </trkpt>
      <trkpt lat="43.01834" lon="2.97132">
        <ele>29.94</ele>
        <time>2015-10-04T06:58:52Z</time>
      </trkpt>
      <trkpt lat="43.01704" lon="2.97239">
        <ele>33.3</ele>
        <time>2015-10-04T06:58:58Z</time>
      </trkpt>
      <trkpt lat="43.01579" lon="2.97267">
        <ele>36.19</ele>
        <time>2015-10-04T06:59:03Z</time>
      </trkpt>
      <trkpt lat="43.01427" lon="2.9723">
        <ele>43.4</ele>
        <time>2015-10-04T06:59:09Z</time>
      </trkpt>
      <trkpt lat="43.0123" lon="2.97095">
        <ele>56.37</ele>
        <time>2015-10-04T06:59:17Z</time>
      </trkpt>
      <trkpt lat="43.01024" lon="2.96998">
        <ele>67.91</ele>
        <time>2015-10-04T06:59:25Z</time>
      </trkpt>
      <trkpt lat="43.00695" lon="2.96926">
        <ele>65.03</ele>
        <time>2015-10-04T06:59:37Z</time>
      </trkpt>
      <trkpt lat="43.00353" lon="2.96936">
        <ele>44.84</ele>
        <time>2015-10-04T06:59:49Z</time>
      </trkpt>
      <trkpt lat="43.00128" lon="2.96945">
        <ele>40.03</ele>
        <time>2015-10-04T06:59:58Z</time>
      </trkpt>
      <trkpt lat="43.00096" lon="2.96946">
        <ele>40.03</ele>
        <time>2015-10-04T07:00:02Z</time>
      </trkpt>
      <trkpt lat="43.00093" lon="2.96945">
        <ele>40.03</ele>
        <time>2015-10-04T07:00:03Z</time>
      </trkpt>
      <trkpt lat="43.00091" lon="2.96944">
        <ele>40.51</ele>
        <time>2015-10-04T07:00:04Z</time>
      </trkpt>
      <trkpt lat="43.00091" lon="2.96943">
        <ele>40.51</ele>
        <time>2015-10-04T07:00:15Z</time>
      </trkpt>
      <trkpt lat="43.00094" lon="2.96944">
        <ele>40.51</ele>
        <time>2015-10-04T07:01:07Z</time>
      </trkpt>
      <trkpt lat="43.00092" lon="2.96941">
        <ele>40.03</ele>
        <time>2015-10-04T07:01:22Z</time>
      </trkpt>
      <trkpt lat="43.00092" lon="2.96939">
        <ele>39.55</ele>
        <time>2015-10-04T07:01:23Z</time>
      </trkpt>
      <trkpt lat="43.00092" lon="2.96935">
        <ele>39.07</ele>
        <time>2015-10-04T07:01:24Z</time>
      </trkpt>
      <trkpt lat="43.00094" lon="2.96932">
        <ele>39.07</ele>
        <time>2015-10-04T07:01:25Z</time>
      </trkpt>
      <trkpt lat="43.00097" lon="2.96931">
        <ele>39.07</ele>
        <time>2015-10-04T07:01:26Z</time>
      </trkpt>
      <trkpt lat="43.00099" lon="2.96929">
        <ele>39.07</ele>
        <time>2015-10-04T07:01:27Z</time>
      </trkpt>
      <trkpt lat="43.00102" lon="2.96927">
        <ele>39.07</ele>
        <time>2015-10-04T07:01:28Z</time>
      </trkpt>
      <trkpt lat="43.00104" lon="2.96924">
        <ele>39.07</ele>
        <time>2015-10-04T07:01:29Z</time>
      </trkpt>
      <trkpt lat="43.0011" lon="2.96912">
        <ele>38.11</ele>
        <time>2015-10-04T07:01:32Z</time>
      </trkpt>
      <trkpt lat="43.0011" lon="2.96904">
        <ele>37.63</ele>
        <time>2015-10-04T07:01:33Z</time>
      </trkpt>
      <trkpt lat="43.0011" lon="2.968">
        <ele>36.67</ele>
        <time>2015-10-04T07:01:42Z</time>
      </trkpt>
      <trkpt lat="43.00109" lon="2.96703">
        <ele>36.19</ele>
        <time>2015-10-04T07:01:48Z</time>
      </trkpt>
      <trkpt lat="43.00104" lon="2.96656">
        <ele>37.15</ele>
        <time>2015-10-04T07:01:51Z</time>
      </trkpt>
      <trkpt lat="43.00103" lon="2.96639">
        <ele>37.15</ele>
        <time>2015-10-04T07:01:52Z</time>
      </trkpt>
      <trkpt lat="43.00108" lon="2.96455">
        <ele>39.55</ele>
        <time>2015-10-04T07:02:03Z</time>
      </trkpt>
      <trkpt lat="43.00107" lon="2.96426">
        <ele>39.55</ele>
        <time>2015-10-04T07:02:05Z</time>
      </trkpt>
      <trkpt lat="43.00105" lon="2.96412">
        <ele>39.07</ele>
        <time>2015-10-04T07:02:06Z</time>
      </trkpt>
      <trkpt lat="43.00103" lon="2.96398">
        <ele>39.07</ele>
        <time>2015-10-04T07:02:07Z</time>
      </trkpt>
      <trkpt lat="43.00099" lon="2.96384">
        <ele>39.07</ele>
        <time>2015-10-04T07:02:08Z</time>
      </trkpt>
      <trkpt lat="43.00095" lon="2.96371">
        <ele>39.07</ele>
        <time>2015-10-04T07:02:09Z</time>
      </trkpt>
      <trkpt lat="43.00089" lon="2.96359">
        <ele>39.55</ele>
        <time>2015-10-04T07:02:10Z</time>
      </trkpt>
      <trkpt lat="43.00082" lon="2.96349">
        <ele>39.55</ele>
        <time>2015-10-04T07:02:11Z</time>
      </trkpt>
      <trkpt lat="43.00075" lon="2.96339">
        <ele>40.03</ele>
        <time>2015-10-04T07:02:12Z</time>
      </trkpt>
      <trkpt lat="43.00007" lon="2.96205">
        <ele>40.51</ele>
        <time>2015-10-04T07:02:23Z</time>
      </trkpt>
      <trkpt lat="42.99996" lon="2.96177">
        <ele>40.51</ele>
        <time>2015-10-04T07:02:25Z</time>
      </trkpt>
      <trkpt lat="42.99989" lon="2.96165">
        <ele>40.99</ele>
        <time>2015-10-04T07:02:26Z</time>
      </trkpt>
      <trkpt lat="42.9998" lon="2.96153">
        <ele>40.99</ele>
        <time>2015-10-04T07:02:27Z</time>
      </trkpt>
      <trkpt lat="42.99971" lon="2.96143">
        <ele>40.99</ele>
        <time>2015-10-04T07:02:28Z</time>
      </trkpt>
      <trkpt lat="42.99962" lon="2.96133">
        <ele>40.99</ele>
        <time>2015-10-04T07:02:29Z</time>
      </trkpt>
      <trkpt lat="42.99917" lon="2.96081">
        <ele>41.47</ele>
        <time>2015-10-04T07:02:34Z</time>
      </trkpt>
      <trkpt lat="42.99911" lon="2.96067">
        <ele>41.47</ele>
        <time>2015-10-04T07:02:35Z</time>
      </trkpt>
      <trkpt lat="42.99907" lon="2.96052">
        <ele>41.95</ele>
        <time>2015-10-04T07:02:36Z</time>
      </trkpt>
      <trkpt lat="42.99904" lon="2.96036">
        <ele>41.95</ele>
        <time>2015-10-04T07:02:37Z</time>
      </trkpt>
      <trkpt lat="42.99902" lon="2.9602">
        <ele>42.44</ele>
        <time>2015-10-04T07:02:38Z</time>
      </trkpt>
      <trkpt lat="42.99884" lon="2.95856">
        <ele>44.36</ele>
        <time>2015-10-04T07:02:48Z</time>
      </trkpt>
      <trkpt lat="42.99879" lon="2.95842">
        <ele>44.84</ele>
        <time>2015-10-04T07:02:49Z</time>
      </trkpt>
      <trkpt lat="42.99872" lon="2.95828">
        <ele>44.84</ele>
        <time>2015-10-04T07:02:50Z</time>
      </trkpt>
      <trkpt lat="42.99865" lon="2.95814">
        <ele>44.84</ele>
        <time>2015-10-04T07:02:51Z</time>
      </trkpt>
      <trkpt lat="42.99856" lon="2.958">
        <ele>44.84</ele>
        <time>2015-10-04T07:02:52Z</time>
      </trkpt>
      <trkpt lat="42.99846" lon="2.95786">
        <ele>44.84</ele>
        <time>2015-10-04T07:02:53Z</time>
      </trkpt>
      <trkpt lat="42.99745" lon="2.95663">
        <ele>46.76</ele>
        <time>2015-10-04T07:03:02Z</time>
      </trkpt>
      <trkpt lat="42.99739" lon="2.9565">
        <ele>46.76</ele>
        <time>2015-10-04T07:03:03Z</time>
      </trkpt>
      <trkpt lat="42.99734" lon="2.95639">
        <ele>47.24</ele>
        <time>2015-10-04T07:03:04Z</time>
      </trkpt>
      <trkpt lat="42.99732" lon="2.95629">
        <ele>47.24</ele>
        <time>2015-10-04T07:03:05Z</time>
      </trkpt>
      <trkpt lat="42.99731" lon="2.95622">
        <ele>47.24</ele>
        <time>2015-10-04T07:03:06Z</time>
      </trkpt>
      <trkpt lat="42.9973" lon="2.95619">
        <ele>47.72</ele>
        <time>2015-10-04T07:03:07Z</time>
      </trkpt>
      <trkpt lat="42.9973" lon="2.95617">
        <ele>47.72</ele>
        <time>2015-10-04T07:03:08Z</time>
      </trkpt>
      <trkpt lat="42.99731" lon="2.95604">
        <ele>48.2</ele>
        <time>2015-10-04T07:03:11Z</time>
      </trkpt>
      <trkpt lat="42.99733" lon="2.95593">
        <ele>48.2</ele>
        <time>2015-10-04T07:03:12Z</time>
      </trkpt>
      <trkpt lat="42.99736" lon="2.95583">
        <ele>47.72</ele>
        <time>2015-10-04T07:03:13Z</time>
      </trkpt>
      <trkpt lat="42.9974" lon="2.95572">
        <ele>47.24</ele>
        <time>2015-10-04T07:03:14Z</time>
      </trkpt>
      <trkpt lat="42.99746" lon="2.9556">
        <ele>47.24</ele>
        <time>2015-10-04T07:03:15Z</time>
      </trkpt>
      <trkpt lat="42.99753" lon="2.9555">
        <ele>47.24</ele>
        <time>2015-10-04T07:03:16Z</time>
      </trkpt>
      <trkpt lat="42.99762" lon="2.95542">
        <ele>47.24</ele>
        <time>2015-10-04T07:03:17Z</time>
      </trkpt>
      <trkpt lat="42.99772" lon="2.95536">
        <ele>47.24</ele>
        <time>2015-10-04T07:03:18Z</time>
      </trkpt>
      <trkpt lat="42.99784" lon="2.95532">
        <ele>47.24</ele>
        <time>2015-10-04T07:03:19Z</time>
      </trkpt>
      <trkpt lat="42.99797" lon="2.95529">
        <ele>47.72</ele>
        <time>2015-10-04T07:03:20Z</time>
      </trkpt>
      <trkpt lat="42.9993" lon="2.95519">
        <ele>46.28</ele>
        <time>2015-10-04T07:03:29Z</time>
      </trkpt>
      <trkpt lat="43.00078" lon="2.95522">
        <ele>48.2</ele>
        <time>2015-10-04T07:03:38Z</time>
      </trkpt>
      <trkpt lat="43.00092" lon="2.95531">
        <ele>48.2</ele>
        <time>2015-10-04T07:03:39Z</time>
      </trkpt>
      <trkpt lat="43.00106" lon="2.95542">
        <ele>48.2</ele>
        <time>2015-10-04T07:03:40Z</time>
      </trkpt>
      <trkpt lat="43.00207" lon="2.956">
        <ele>48.68</ele>
        <time>2015-10-04T07:03:46Z</time>
      </trkpt>
      <trkpt lat="43.00292" lon="2.95633">
        <ele>49.16</ele>
        <time>2015-10-04T07:03:51Z</time>
      </trkpt>
      <trkpt lat="43.0031" lon="2.95635">
        <ele>49.16</ele>
        <time>2015-10-04T07:03:52Z</time>
      </trkpt>
      <trkpt lat="43.00375" lon="2.95639">
        <ele>49.16</ele>
        <time>2015-10-04T07:03:57Z</time>
      </trkpt>
      <trkpt lat="43.00383" lon="2.95636">
        <ele>49.16</ele>
        <time>2015-10-04T07:03:58Z</time>
      </trkpt>
      <trkpt lat="43.00389" lon="2.95626">
        <ele>49.16</ele>
        <time>2015-10-04T07:03:59Z</time>
      </trkpt>
      <trkpt lat="43.00393" lon="2.95613">
        <ele>49.16</ele>
        <time>2015-10-04T07:04:00Z</time>
      </trkpt>
      <trkpt lat="43.00397" lon="2.95599">
        <ele>49.16</ele>
        <time>2015-10-04T07:04:01Z</time>
      </trkpt>
      <trkpt lat="43.004" lon="2.95581">
        <ele>49.65</ele>
        <time>2015-10-04T07:04:02Z</time>
      </trkpt>
      <trkpt lat="43.00403" lon="2.95563">
        <ele>49.65</ele>
        <time>2015-10-04T07:04:03Z</time>
      </trkpt>
      <trkpt lat="43.00412" lon="2.95507">
        <ele>50.13</ele>
        <time>2015-10-04T07:04:06Z</time>
      </trkpt>
      <trkpt lat="43.00417" lon="2.95493">
        <ele>50.13</ele>
        <time>2015-10-04T07:04:07Z</time>
      </trkpt>
      <trkpt lat="43.00423" lon="2.95485">
        <ele>50.61</ele>
        <time>2015-10-04T07:04:08Z</time>
      </trkpt>
      <trkpt lat="43.00431" lon="2.9548">
        <ele>50.61</ele>
        <time>2015-10-04T07:04:09Z</time>
      </trkpt>
      <trkpt lat="43.00438" lon="2.95477">
        <ele>51.09</ele>
        <time>2015-10-04T07:04:10Z</time>
      </trkpt>
      <trkpt lat="43.00446" lon="2.95471">
        <ele>51.09</ele>
        <time>2015-10-04T07:04:11Z</time>
      </trkpt>
      <trkpt lat="43.00452" lon="2.95463">
        <ele>51.09</ele>
        <time>2015-10-04T07:04:12Z</time>
      </trkpt>
      <trkpt lat="43.00456" lon="2.95452">
        <ele>51.09</ele>
        <time>2015-10-04T07:04:13Z</time>
      </trkpt>
      <trkpt lat="43.0046" lon="2.95438">
        <ele>51.09</ele>
        <time>2015-10-04T07:04:14Z</time>
      </trkpt>
      <trkpt lat="43.00463" lon="2.95422">
        <ele>51.09</ele>
        <time>2015-10-04T07:04:15Z</time>
      </trkpt>
      <trkpt lat="43.00466" lon="2.95403">
        <ele>51.09</ele>
        <time>2015-10-04T07:04:16Z</time>
      </trkpt>
      <trkpt lat="43.00499" lon="2.95214">
        <ele>52.53</ele>
        <time>2015-10-04T07:04:24Z</time>
      </trkpt>
      <trkpt lat="43.00523" lon="2.95005">
        <ele>54.45</ele>
        <time>2015-10-04T07:04:33Z</time>
      </trkpt>
      <trkpt lat="43.00519" lon="2.94993">
        <ele>54.45</ele>
        <time>2015-10-04T07:04:34Z</time>
      </trkpt>
      <trkpt lat="43.00514" lon="2.94986">
        <ele>54.93</ele>
        <time>2015-10-04T07:04:35Z</time>
      </trkpt>
      <trkpt lat="43.00505" lon="2.94977">
        <ele>54.93</ele>
        <time>2015-10-04T07:04:36Z</time>
      </trkpt>
      <trkpt lat="43.00496" lon="2.94968">
        <ele>54.93</ele>
        <time>2015-10-04T07:04:37Z</time>
      </trkpt>
      <trkpt lat="43.0049" lon="2.94958">
        <ele>54.93</ele>
        <time>2015-10-04T07:04:38Z</time>
      </trkpt>
      <trkpt lat="43.00488" lon="2.94946">
        <ele>55.41</ele>
        <time>2015-10-04T07:04:39Z</time>
      </trkpt>
      <trkpt lat="43.00489" lon="2.94931">
        <ele>55.41</ele>
        <time>2015-10-04T07:04:40Z</time>
      </trkpt>
      <trkpt lat="43.0049" lon="2.94914">
        <ele>55.41</ele>
        <time>2015-10-04T07:04:41Z</time>
      </trkpt>
      <trkpt lat="43.00493" lon="2.94895">
        <ele>55.41</ele>
        <time>2015-10-04T07:04:42Z</time>
      </trkpt>
      <trkpt lat="43.00523" lon="2.94703">
        <ele>57.82</ele>
        <time>2015-10-04T07:04:50Z</time>
      </trkpt>
      <trkpt lat="43.00574" lon="2.94457">
        <ele>60.7</ele>
        <time>2015-10-04T07:05:01Z</time>
      </trkpt>
      <trkpt lat="43.00581" lon="2.94444">
        <ele>60.7</ele>
        <time>2015-10-04T07:05:02Z</time>
      </trkpt>
      <trkpt lat="43.00591" lon="2.94436">
        <ele>60.7</ele>
        <time>2015-10-04T07:05:03Z</time>
      </trkpt>
      <trkpt lat="43.006" lon="2.94432">
        <ele>60.7</ele>
        <time>2015-10-04T07:05:04Z</time>
      </trkpt>
      <trkpt lat="43.0061" lon="2.94429">
        <ele>61.18</ele>
        <time>2015-10-04T07:05:05Z</time>
      </trkpt>
      <trkpt lat="43.00619" lon="2.94425">
        <ele>60.7</ele>
        <time>2015-10-04T07:05:06Z</time>
      </trkpt>
      <trkpt lat="43.00625" lon="2.94415">
        <ele>60.7</ele>
        <time>2015-10-04T07:05:07Z</time>
      </trkpt>
      <trkpt lat="43.0063" lon="2.94401">
        <ele>60.7</ele>
        <time>2015-10-04T07:05:08Z</time>
      </trkpt>
      <trkpt lat="43.00633" lon="2.94384">
        <ele>61.18</ele>
        <time>2015-10-04T07:05:09Z</time>
      </trkpt>
      <trkpt lat="43.00637" lon="2.94366">
        <ele>61.18</ele>
        <time>2015-10-04T07:05:10Z</time>
      </trkpt>
      <trkpt lat="43.00691" lon="2.9418">
        <ele>63.58</ele>
        <time>2015-10-04T07:05:20Z</time>
      </trkpt>
      <trkpt lat="43.00708" lon="2.94122">
        <ele>64.07</ele>
        <time>2015-10-04T07:05:24Z</time>
      </trkpt>
      <trkpt lat="43.00709" lon="2.94109">
        <ele>64.07</ele>
        <time>2015-10-04T07:05:25Z</time>
      </trkpt>
      <trkpt lat="43.00709" lon="2.94096">
        <ele>64.55</ele>
        <time>2015-10-04T07:05:26Z</time>
      </trkpt>
      <trkpt lat="43.00706" lon="2.94056">
        <ele>64.55</ele>
        <time>2015-10-04T07:05:29Z</time>
      </trkpt>
      <trkpt lat="43.00708" lon="2.94042">
        <ele>64.55</ele>
        <time>2015-10-04T07:05:30Z</time>
      </trkpt>
      <trkpt lat="43.00713" lon="2.9403">
        <ele>64.55</ele>
        <time>2015-10-04T07:05:31Z</time>
      </trkpt>
      <trkpt lat="43.0072" lon="2.94018">
        <ele>65.03</ele>
        <time>2015-10-04T07:05:32Z</time>
      </trkpt>
      <trkpt lat="43.00728" lon="2.94005">
        <ele>65.03</ele>
        <time>2015-10-04T07:05:33Z</time>
      </trkpt>
      <trkpt lat="43.00793" lon="2.93888">
        <ele>66.95</ele>
        <time>2015-10-04T07:05:41Z</time>
      </trkpt>
      <trkpt lat="43.00798" lon="2.93874">
        <ele>66.95</ele>
        <time>2015-10-04T07:05:42Z</time>
      </trkpt>
      <trkpt lat="43.008" lon="2.93857">
        <ele>66.95</ele>
        <time>2015-10-04T07:05:43Z</time>
      </trkpt>
      <trkpt lat="43.00799" lon="2.93839">
        <ele>66.95</ele>
        <time>2015-10-04T07:05:44Z</time>
      </trkpt>
      <trkpt lat="43.00798" lon="2.9382">
        <ele>67.43</ele>
        <time>2015-10-04T07:05:45Z</time>
      </trkpt>
      <trkpt lat="43.00798" lon="2.93801">
        <ele>67.43</ele>
        <time>2015-10-04T07:05:46Z</time>
      </trkpt>
      <trkpt lat="43.00801" lon="2.93783">
        <ele>67.91</ele>
        <time>2015-10-04T07:05:47Z</time>
      </trkpt>
      <trkpt lat="43.00806" lon="2.93766">
        <ele>67.91</ele>
        <time>2015-10-04T07:05:48Z</time>
      </trkpt>
      <trkpt lat="43.00814" lon="2.93751">
        <ele>68.39</ele>
        <time>2015-10-04T07:05:49Z</time>
      </trkpt>
      <trkpt lat="43.00822" lon="2.93736">
        <ele>68.39</ele>
        <time>2015-10-04T07:05:50Z</time>
      </trkpt>
      <trkpt lat="43.00829" lon="2.93719">
        <ele>68.87</ele>
        <time>2015-10-04T07:05:51Z</time>
      </trkpt>
      <trkpt lat="43.00835" lon="2.93699">
        <ele>68.87</ele>
        <time>2015-10-04T07:05:52Z</time>
      </trkpt>
      <trkpt lat="43.00861" lon="2.93584">
        <ele>70.31</ele>
        <time>2015-10-04T07:05:58Z</time>
      </trkpt>
      <trkpt lat="43.00869" lon="2.93571">
        <ele>70.79</ele>
        <time>2015-10-04T07:05:59Z</time>
      </trkpt>
      <trkpt lat="43.00879" lon="2.93562">
        <ele>70.79</ele>
        <time>2015-10-04T07:06:00Z</time>
      </trkpt>
      <trkpt lat="43.009" lon="2.93541">
        <ele>71.27</ele>
        <time>2015-10-04T07:06:02Z</time>
      </trkpt>
      <trkpt lat="43.00909" lon="2.93526">
        <ele>71.76</ele>
        <time>2015-10-04T07:06:03Z</time>
      </trkpt>
      <trkpt lat="43.00916" lon="2.93508">
        <ele>71.76</ele>
        <time>2015-10-04T07:06:04Z</time>
      </trkpt>
      <trkpt lat="43.00923" lon="2.93489">
        <ele>72.24</ele>
        <time>2015-10-04T07:06:05Z</time>
      </trkpt>
      <trkpt lat="43.00928" lon="2.9347">
        <ele>72.24</ele>
        <time>2015-10-04T07:06:06Z</time>
      </trkpt>
      <trkpt lat="43.00932" lon="2.9345">
        <ele>72.24</ele>
        <time>2015-10-04T07:06:07Z</time>
      </trkpt>
      <trkpt lat="43.00935" lon="2.93429">
        <ele>72.24</ele>
        <time>2015-10-04T07:06:08Z</time>
      </trkpt>
      <trkpt lat="43.00936" lon="2.93407">
        <ele>72.72</ele>
        <time>2015-10-04T07:06:09Z</time>
      </trkpt>
      <trkpt lat="43.00937" lon="2.93385">
        <ele>72.72</ele>
        <time>2015-10-04T07:06:10Z</time>
      </trkpt>
      <trkpt lat="43.0094" lon="2.93325">
        <ele>73.68</ele>
        <time>2015-10-04T07:06:13Z</time>
      </trkpt>
      <trkpt lat="43.00942" lon="2.93311">
        <ele>74.16</ele>
        <time>2015-10-04T07:06:14Z</time>
      </trkpt>
      <trkpt lat="43.00945" lon="2.93294">
        <ele>75.12</ele>
        <time>2015-10-04T07:06:18Z</time>
      </trkpt>
      <trkpt lat="43.00943" lon="2.93294">
        <ele>75.6</ele>
        <time>2015-10-04T07:06:23Z</time>
      </trkpt>
      <trkpt lat="43.00941" lon="2.93291">
        <ele>75.6</ele>
        <time>2015-10-04T07:06:24Z</time>
      </trkpt>
      <trkpt lat="43.00937" lon="2.93288">
        <ele>75.6</ele>
        <time>2015-10-04T07:06:25Z</time>
      </trkpt>
      <trkpt lat="43.0093" lon="2.93283">
        <ele>75.6</ele>
        <time>2015-10-04T07:06:26Z</time>
      </trkpt>
      <trkpt lat="43.0092" lon="2.93277">
        <ele>76.08</ele>
        <time>2015-10-04T07:06:27Z</time>
      </trkpt>
      <trkpt lat="43.0091" lon="2.93268">
        <ele>76.08</ele>
        <time>2015-10-04T07:06:28Z</time>
      </trkpt>
      <trkpt lat="43.00901" lon="2.93255">
        <ele>75.6</ele>
        <time>2015-10-04T07:06:29Z</time>
      </trkpt>
      <trkpt lat="43.00893" lon="2.93237">
        <ele>76.08</ele>
        <time>2015-10-04T07:06:30Z</time>
      </trkpt>
      <trkpt lat="43.00889" lon="2.93216">
        <ele>76.56</ele>
        <time>2015-10-04T07:06:31Z</time>
      </trkpt>
      <trkpt lat="43.00888" lon="2.93192">
        <ele>76.56</ele>
        <time>2015-10-04T07:06:32Z</time>
      </trkpt>
      <trkpt lat="43.00888" lon="2.93168">
        <ele>77.52</ele>
        <time>2015-10-04T07:06:33Z</time>
      </trkpt>
      <trkpt lat="43.00889" lon="2.93145">
        <ele>78.48</ele>
        <time>2015-10-04T07:06:34Z</time>
      </trkpt>
      <trkpt lat="43.00887" lon="2.9301">
        <ele>83.29</ele>
        <time>2015-10-04T07:06:40Z</time>
      </trkpt>
      <trkpt lat="43.00883" lon="2.92988">
        <ele>83.77</ele>
        <time>2015-10-04T07:06:41Z</time>
      </trkpt>
      <trkpt lat="43.00878" lon="2.92968">
        <ele>84.25</ele>
        <time>2015-10-04T07:06:42Z</time>
      </trkpt>
      <trkpt lat="43.00871" lon="2.9295">
        <ele>84.73</ele>
        <time>2015-10-04T07:06:43Z</time>
      </trkpt>
      <trkpt lat="43.00862" lon="2.92933">
        <ele>85.21</ele>
        <time>2015-10-04T07:06:44Z</time>
      </trkpt>
      <trkpt lat="43.00851" lon="2.92919">
        <ele>85.69</ele>
        <time>2015-10-04T07:06:45Z</time>
      </trkpt>
      <trkpt lat="43.00839" lon="2.92907">
        <ele>86.18</ele>
        <time>2015-10-04T07:06:46Z</time>
      </trkpt>
      <trkpt lat="43.00826" lon="2.92898">
        <ele>85.69</ele>
        <time>2015-10-04T07:06:47Z</time>
      </trkpt>
      <trkpt lat="43.00808" lon="2.92892">
        <ele>86.66</ele>
        <time>2015-10-04T07:06:48Z</time>
      </trkpt>
      <trkpt lat="43.00789" lon="2.92889">
        <ele>87.62</ele>
        <time>2015-10-04T07:06:49Z</time>
      </trkpt>
      <trkpt lat="43.00771" lon="2.92886">
        <ele>88.58</ele>
        <time>2015-10-04T07:06:50Z</time>
      </trkpt>
      <trkpt lat="43.00662" lon="2.92865">
        <ele>93.39</ele>
        <time>2015-10-04T07:06:56Z</time>
      </trkpt>
      <trkpt lat="43.00645" lon="2.92872">
        <ele>93.87</ele>
        <time>2015-10-04T07:06:57Z</time>
      </trkpt>
      <trkpt lat="43.00629" lon="2.92878">
        <ele>94.83</ele>
        <time>2015-10-04T07:06:58Z</time>
      </trkpt>
      <trkpt lat="43.00613" lon="2.92892">
        <ele>95.31</ele>
        <time>2015-10-04T07:06:59Z</time>
      </trkpt>
      <trkpt lat="43.00599" lon="2.92909">
        <ele>95.79</ele>
        <time>2015-10-04T07:07:00Z</time>
      </trkpt>
      <trkpt lat="43.00586" lon="2.92929">
        <ele>96.27</ele>
        <time>2015-10-04T07:07:01Z</time>
      </trkpt>
      <trkpt lat="43.00574" lon="2.92948">
        <ele>97.23</ele>
        <time>2015-10-04T07:07:02Z</time>
      </trkpt>
      <trkpt lat="43.00563" lon="2.92965">
        <ele>97.23</ele>
        <time>2015-10-04T07:07:03Z</time>
      </trkpt>
      <trkpt lat="43.00544" lon="2.9299">
        <ele>97.71</ele>
        <time>2015-10-04T07:07:05Z</time>
      </trkpt>
      <trkpt lat="43.00534" lon="2.92995">
        <ele>97.71</ele>
        <time>2015-10-04T07:07:06Z</time>
      </trkpt>
      <trkpt lat="43.00526" lon="2.92992">
        <ele>97.71</ele>
        <time>2015-10-04T07:07:07Z</time>
      </trkpt>
      <trkpt lat="43.00518" lon="2.92985">
        <ele>97.71</ele>
        <time>2015-10-04T07:07:08Z</time>
      </trkpt>
      <trkpt lat="43.00513" lon="2.92971">
        <ele>98.19</ele>
        <time>2015-10-04T07:07:09Z</time>
      </trkpt>
      <trkpt lat="43.0051" lon="2.92952">
        <ele>99.15</ele>
        <time>2015-10-04T07:07:10Z</time>
      </trkpt>
      <trkpt lat="43.00511" lon="2.92932">
        <ele>99.63</ele>
        <time>2015-10-04T07:07:11Z</time>
      </trkpt>
      <trkpt lat="43.00515" lon="2.92914">
        <ele>99.63</ele>
        <time>2015-10-04T07:07:12Z</time>
      </trkpt>
      <trkpt lat="43.00523" lon="2.92894">
        <ele>100.6</ele>
        <time>2015-10-04T07:07:13Z</time>
      </trkpt>
      <trkpt lat="43.00532" lon="2.92875">
        <ele>101.56</ele>
        <time>2015-10-04T07:07:14Z</time>
      </trkpt>
      <trkpt lat="43.0054" lon="2.92855">
        <ele>103</ele>
        <time>2015-10-04T07:07:15Z</time>
      </trkpt>
      <trkpt lat="43.00547" lon="2.92834">
        <ele>103.96</ele>
        <time>2015-10-04T07:07:16Z</time>
      </trkpt>
      <trkpt lat="43.00552" lon="2.92812">
        <ele>104.92</ele>
        <time>2015-10-04T07:07:17Z</time>
      </trkpt>
      <trkpt lat="43.00555" lon="2.92789">
        <ele>105.88</ele>
        <time>2015-10-04T07:07:18Z</time>
      </trkpt>
      <trkpt lat="43.00556" lon="2.92765">
        <ele>106.84</ele>
        <time>2015-10-04T07:07:19Z</time>
      </trkpt>
      <trkpt lat="43.00555" lon="2.92741">
        <ele>107.81</ele>
        <time>2015-10-04T07:07:20Z</time>
      </trkpt>
      <trkpt lat="43.00552" lon="2.92718">
        <ele>108.77</ele>
        <time>2015-10-04T07:07:21Z</time>
      </trkpt>
      <trkpt lat="43.00549" lon="2.92694">
        <ele>109.73</ele>
        <time>2015-10-04T07:07:22Z</time>
      </trkpt>
      <trkpt lat="43.00547" lon="2.9267">
        <ele>110.69</ele>
        <time>2015-10-04T07:07:23Z</time>
      </trkpt>
      <trkpt lat="43.00548" lon="2.92645">
        <ele>111.65</ele>
        <time>2015-10-04T07:07:24Z</time>
      </trkpt>
      <trkpt lat="43.00551" lon="2.9262">
        <ele>112.61</ele>
        <time>2015-10-04T07:07:25Z</time>
      </trkpt>
      <trkpt lat="43.0058" lon="2.92463">
        <ele>119.82</ele>
        <time>2015-10-04T07:07:32Z</time>
      </trkpt>
      <trkpt lat="43.00587" lon="2.92446">
        <ele>120.3</ele>
        <time>2015-10-04T07:07:33Z</time>
      </trkpt>
      <trkpt lat="43.00597" lon="2.92429">
        <ele>121.26</ele>
        <time>2015-10-04T07:07:34Z</time>
      </trkpt>
      <trkpt lat="43.00608" lon="2.92413">
        <ele>121.74</ele>
        <time>2015-10-04T07:07:35Z</time>
      </trkpt>
      <trkpt lat="43.00621" lon="2.92399">
        <ele>122.71</ele>
        <time>2015-10-04T07:07:36Z</time>
      </trkpt>
      <trkpt lat="43.00634" lon="2.92385">
        <ele>123.67</ele>
        <time>2015-10-04T07:07:37Z</time>
      </trkpt>
      <trkpt lat="43.00667" lon="2.9235">
        <ele>126.55</ele>
        <time>2015-10-04T07:07:40Z</time>
      </trkpt>
      <trkpt lat="43.00674" lon="2.92336">
        <ele>127.03</ele>
        <time>2015-10-04T07:07:41Z</time>
      </trkpt>
      <trkpt lat="43.00678" lon="2.9232">
        <ele>127.99</ele>
        <time>2015-10-04T07:07:42Z</time>
      </trkpt>
      <trkpt lat="43.00678" lon="2.92303">
        <ele>128.47</ele>
        <time>2015-10-04T07:07:43Z</time>
      </trkpt>
      <trkpt lat="43.00679" lon="2.92284">
        <ele>128.95</ele>
        <time>2015-10-04T07:07:44Z</time>
      </trkpt>
      <trkpt lat="43.00682" lon="2.92265">
        <ele>129.92</ele>
        <time>2015-10-04T07:07:45Z</time>
      </trkpt>
      <trkpt lat="43.00686" lon="2.92247">
        <ele>130.4</ele>
        <time>2015-10-04T07:07:46Z</time>
      </trkpt>
      <trkpt lat="43.00693" lon="2.92231">
        <ele>131.36</ele>
        <time>2015-10-04T07:07:47Z</time>
      </trkpt>
      <trkpt lat="43.00702" lon="2.92216">
        <ele>131.84</ele>
        <time>2015-10-04T07:07:48Z</time>
      </trkpt>
      <trkpt lat="43.00714" lon="2.92202">
        <ele>132.8</ele>
        <time>2015-10-04T07:07:49Z</time>
      </trkpt>
      <trkpt lat="43.00726" lon="2.92188">
        <ele>133.76</ele>
        <time>2015-10-04T07:07:50Z</time>
      </trkpt>
      <trkpt lat="43.00748" lon="2.92157">
        <ele>135.2</ele>
        <time>2015-10-04T07:07:52Z</time>
      </trkpt>
      <trkpt lat="43.00757" lon="2.92139">
        <ele>136.16</ele>
        <time>2015-10-04T07:07:53Z</time>
      </trkpt>
      <trkpt lat="43.00764" lon="2.9212">
        <ele>136.64</ele>
        <time>2015-10-04T07:07:54Z</time>
      </trkpt>
      <trkpt lat="43.00768" lon="2.92099">
        <ele>137.61</ele>
        <time>2015-10-04T07:07:55Z</time>
      </trkpt>
      <trkpt lat="43.00771" lon="2.9208">
        <ele>138.09</ele>
        <time>2015-10-04T07:07:56Z</time>
      </trkpt>
      <trkpt lat="43.00777" lon="2.92063">
        <ele>138.57</ele>
        <time>2015-10-04T07:07:57Z</time>
      </trkpt>
      <trkpt lat="43.00784" lon="2.9205">
        <ele>139.53</ele>
        <time>2015-10-04T07:07:58Z</time>
      </trkpt>
      <trkpt lat="43.00795" lon="2.92044">
        <ele>140.01</ele>
        <time>2015-10-04T07:07:59Z</time>
      </trkpt>
      <trkpt lat="43.00805" lon="2.92042">
        <ele>140.49</ele>
        <time>2015-10-04T07:08:00Z</time>
      </trkpt>
      <trkpt lat="43.0082" lon="2.92043">
        <ele>141.45</ele>
        <time>2015-10-04T07:08:01Z</time>
      </trkpt>
      <trkpt lat="43.00839" lon="2.92045">
        <ele>142.89</ele>
        <time>2015-10-04T07:08:02Z</time>
      </trkpt>
      <trkpt lat="43.00855" lon="2.92043">
        <ele>143.37</ele>
        <time>2015-10-04T07:08:03Z</time>
      </trkpt>
      <trkpt lat="43.00871" lon="2.92039">
        <ele>144.34</ele>
        <time>2015-10-04T07:08:04Z</time>
      </trkpt>
      <trkpt lat="43.00886" lon="2.92031">
        <ele>144.82</ele>
        <time>2015-10-04T07:08:05Z</time>
      </trkpt>
      <trkpt lat="43.00899" lon="2.92019">
        <ele>145.3</ele>
        <time>2015-10-04T07:08:06Z</time>
      </trkpt>
      <trkpt lat="43.00909" lon="2.92005">
        <ele>145.78</ele>
        <time>2015-10-04T07:08:07Z</time>
      </trkpt>
      <trkpt lat="43.00917" lon="2.91987">
        <ele>145.78</ele>
        <time>2015-10-04T07:08:08Z</time>
      </trkpt>
      <trkpt lat="43.00921" lon="2.91969">
        <ele>146.26</ele>
        <time>2015-10-04T07:08:09Z</time>
      </trkpt>
      <trkpt lat="43.00922" lon="2.91948">
        <ele>147.22</ele>
        <time>2015-10-04T07:08:10Z</time>
      </trkpt>
      <trkpt lat="43.00919" lon="2.91925">
        <ele>147.7</ele>
        <time>2015-10-04T07:08:11Z</time>
      </trkpt>
      <trkpt lat="43.00915" lon="2.91899">
        <ele>149.14</ele>
        <time>2015-10-04T07:08:12Z</time>
      </trkpt>
      <trkpt lat="43.00912" lon="2.91873">
        <ele>150.1</ele>
        <time>2015-10-04T07:08:13Z</time>
      </trkpt>
      <trkpt lat="43.00892" lon="2.91753">
        <ele>154.43</ele>
        <time>2015-10-04T07:08:18Z</time>
      </trkpt>
      <trkpt lat="43.00885" lon="2.91736">
        <ele>154.91</ele>
        <time>2015-10-04T07:08:19Z</time>
      </trkpt>
      <trkpt lat="43.00876" lon="2.91722">
        <ele>155.39</ele>
        <time>2015-10-04T07:08:20Z</time>
      </trkpt>
      <trkpt lat="43.0086" lon="2.91708">
        <ele>155.87</ele>
        <time>2015-10-04T07:08:21Z</time>
      </trkpt>
      <trkpt lat="43.00844" lon="2.91698">
        <ele>156.35</ele>
        <time>2015-10-04T07:08:22Z</time>
      </trkpt>
      <trkpt lat="43.00826" lon="2.91691">
        <ele>156.83</ele>
        <time>2015-10-04T07:08:23Z</time>
      </trkpt>
      <trkpt lat="43.00807" lon="2.91684">
        <ele>157.31</ele>
        <time>2015-10-04T07:08:24Z</time>
      </trkpt>
      <trkpt lat="43.00788" lon="2.91679">
        <ele>157.79</ele>
        <time>2015-10-04T07:08:25Z</time>
      </trkpt>
      <trkpt lat="43.00768" lon="2.91675">
        <ele>158.27</ele>
        <time>2015-10-04T07:08:26Z</time>
      </trkpt>
      <trkpt lat="43.00573" lon="2.91617">
        <ele>160.68</ele>
        <time>2015-10-04T07:08:36Z</time>
      </trkpt>
      <trkpt lat="43.00559" lon="2.91606">
        <ele>161.16</ele>
        <time>2015-10-04T07:08:37Z</time>
      </trkpt>
      <trkpt lat="43.00546" lon="2.91591">
        <ele>161.16</ele>
        <time>2015-10-04T07:08:38Z</time>
      </trkpt>
      <trkpt lat="43.00537" lon="2.91575">
        <ele>162.12</ele>
        <time>2015-10-04T07:08:39Z</time>
      </trkpt>
      <trkpt lat="43.00526" lon="2.9156">
        <ele>163.08</ele>
        <time>2015-10-04T07:08:40Z</time>
      </trkpt>
      <trkpt lat="43.00514" lon="2.91547">
        <ele>164.04</ele>
        <time>2015-10-04T07:08:41Z</time>
      </trkpt>
      <trkpt lat="43.005" lon="2.91536">
        <ele>164.52</ele>
        <time>2015-10-04T07:08:42Z</time>
      </trkpt>
      <trkpt lat="43.00486" lon="2.91525">
        <ele>165.48</ele>
        <time>2015-10-04T07:08:43Z</time>
      </trkpt>
      <trkpt lat="43.00475" lon="2.91511">
        <ele>166.93</ele>
        <time>2015-10-04T07:08:44Z</time>
      </trkpt>
      <trkpt lat="43.00466" lon="2.91493">
        <ele>167.89</ele>
        <time>2015-10-04T07:08:45Z</time>
      </trkpt>
      <trkpt lat="43.00459" lon="2.91473">
        <ele>168.85</ele>
        <time>2015-10-04T07:08:46Z</time>
      </trkpt>
      <trkpt lat="43.00453" lon="2.91451">
        <ele>169.33</ele>
        <time>2015-10-04T07:08:47Z</time>
      </trkpt>
      <trkpt lat="43.00445" lon="2.91428">
        <ele>170.29</ele>
        <time>2015-10-04T07:08:48Z</time>
      </trkpt>
      <trkpt lat="43.00407" lon="2.91318">
        <ele>175.1</ele>
        <time>2015-10-04T07:08:53Z</time>
      </trkpt>
      <trkpt lat="43.00395" lon="2.913">
        <ele>175.58</ele>
        <time>2015-10-04T07:08:54Z</time>
      </trkpt>
      <trkpt lat="43.00382" lon="2.91285">
        <ele>177.02</ele>
        <time>2015-10-04T07:08:55Z</time>
      </trkpt>
      <trkpt lat="43.00283" lon="2.91157">
        <ele>184.23</ele>
        <time>2015-10-04T07:09:02Z</time>
      </trkpt>
      <trkpt lat="43.00262" lon="2.91117">
        <ele>186.63</ele>
        <time>2015-10-04T07:09:04Z</time>
      </trkpt>
      <trkpt lat="43.00256" lon="2.91096">
        <ele>187.59</ele>
        <time>2015-10-04T07:09:05Z</time>
      </trkpt>
      <trkpt lat="43.00246" lon="2.91056">
        <ele>189.04</ele>
        <time>2015-10-04T07:09:07Z</time>
      </trkpt>
      <trkpt lat="43.00237" lon="2.91044">
        <ele>189.52</ele>
        <time>2015-10-04T07:09:08Z</time>
      </trkpt>
      <trkpt lat="43.00225" lon="2.91036">
        <ele>190</ele>
        <time>2015-10-04T07:09:09Z</time>
      </trkpt>
      <trkpt lat="43.0021" lon="2.91034">
        <ele>191.44</ele>
        <time>2015-10-04T07:09:10Z</time>
      </trkpt>
      <trkpt lat="43.00193" lon="2.91031">
        <ele>192.4</ele>
        <time>2015-10-04T07:09:11Z</time>
      </trkpt>
      <trkpt lat="43.00082" lon="2.90985">
        <ele>199.61</ele>
        <time>2015-10-04T07:09:17Z</time>
      </trkpt>
      <trkpt lat="42.99937" lon="2.90884">
        <ele>211.63</ele>
        <time>2015-10-04T07:09:25Z</time>
      </trkpt>
      <trkpt lat="42.99823" lon="2.90812">
        <ele>226.05</ele>
        <time>2015-10-04T07:09:32Z</time>
      </trkpt>
      <trkpt lat="42.99806" lon="2.9081">
        <ele>227.97</ele>
        <time>2015-10-04T07:09:33Z</time>
      </trkpt>
      <trkpt lat="42.99787" lon="2.9081">
        <ele>229.89</ele>
        <time>2015-10-04T07:09:34Z</time>
      </trkpt>
      <trkpt lat="42.9972" lon="2.9081">
        <ele>232.3</ele>
        <time>2015-10-04T07:09:38Z</time>
      </trkpt>
      <trkpt lat="42.99708" lon="2.90805">
        <ele>232.78</ele>
        <time>2015-10-04T07:09:39Z</time>
      </trkpt>
      <trkpt lat="42.99697" lon="2.90794">
        <ele>232.78</ele>
        <time>2015-10-04T07:09:40Z</time>
      </trkpt>
      <trkpt lat="42.99689" lon="2.90778">
        <ele>232.78</ele>
        <time>2015-10-04T07:09:41Z</time>
      </trkpt>
      <trkpt lat="42.99685" lon="2.90758">
        <ele>232.78</ele>
        <time>2015-10-04T07:09:42Z</time>
      </trkpt>
      <trkpt lat="42.99684" lon="2.90734">
        <ele>232.78</ele>
        <time>2015-10-04T07:09:43Z</time>
      </trkpt>
      <trkpt lat="42.99685" lon="2.90708">
        <ele>233.26</ele>
        <time>2015-10-04T07:09:44Z</time>
      </trkpt>
      <trkpt lat="42.99688" lon="2.90681">
        <ele>233.26</ele>
        <time>2015-10-04T07:09:45Z</time>
      </trkpt>
      <trkpt lat="42.99693" lon="2.90654">
        <ele>233.74</ele>
        <time>2015-10-04T07:09:46Z</time>
      </trkpt>
      <trkpt lat="42.99699" lon="2.90627">
        <ele>234.22</ele>
        <time>2015-10-04T07:09:47Z</time>
      </trkpt>
      <trkpt lat="42.99706" lon="2.90601">
        <ele>234.7</ele>
        <time>2015-10-04T07:09:48Z</time>
      </trkpt>
      <trkpt lat="42.99724" lon="2.90531">
        <ele>236.14</ele>
        <time>2015-10-04T07:09:51Z</time>
      </trkpt>
      <trkpt lat="42.99727" lon="2.90507">
        <ele>236.62</ele>
        <time>2015-10-04T07:09:52Z</time>
      </trkpt>
      <trkpt lat="42.99728" lon="2.90482">
        <ele>236.62</ele>
        <time>2015-10-04T07:09:53Z</time>
      </trkpt>
      <trkpt lat="42.99725" lon="2.90458">
        <ele>237.1</ele>
        <time>2015-10-04T07:09:54Z</time>
      </trkpt>
      <trkpt lat="42.9972" lon="2.90433">
        <ele>237.1</ele>
        <time>2015-10-04T07:09:55Z</time>
      </trkpt>
      <trkpt lat="42.99711" lon="2.90408">
        <ele>238.06</ele>
        <time>2015-10-04T07:09:56Z</time>
      </trkpt>
      <trkpt lat="42.99701" lon="2.90384">
        <ele>239.02</ele>
        <time>2015-10-04T07:09:57Z</time>
      </trkpt>
      <trkpt lat="42.99678" lon="2.90337">
        <ele>239.99</ele>
        <time>2015-10-04T07:09:59Z</time>
      </trkpt>
      <trkpt lat="42.99665" lon="2.90318">
        <ele>240.95</ele>
        <time>2015-10-04T07:10:00Z</time>
      </trkpt>
      <trkpt lat="42.99536" lon="2.90186">
        <ele>245.75</ele>
        <time>2015-10-04T07:10:08Z</time>
      </trkpt>
      <trkpt lat="42.99439" lon="2.90102">
        <ele>250.08</ele>
        <time>2015-10-04T07:10:14Z</time>
      </trkpt>
      <trkpt lat="42.99425" lon="2.90082">
        <ele>250.56</ele>
        <time>2015-10-04T07:10:15Z</time>
      </trkpt>
      <trkpt lat="42.99261" lon="2.89854">
        <ele>256.33</ele>
        <time>2015-10-04T07:10:26Z</time>
      </trkpt>
      <trkpt lat="42.99226" lon="2.898">
        <ele>257.29</ele>
        <time>2015-10-04T07:10:29Z</time>
      </trkpt>
      <trkpt lat="42.99221" lon="2.8978">
        <ele>257.29</ele>
        <time>2015-10-04T07:10:30Z</time>
      </trkpt>
      <trkpt lat="42.99216" lon="2.89758">
        <ele>257.29</ele>
        <time>2015-10-04T07:10:31Z</time>
      </trkpt>
      <trkpt lat="42.99208" lon="2.89735">
        <ele>257.29</ele>
        <time>2015-10-04T07:10:32Z</time>
      </trkpt>
      <trkpt lat="42.99197" lon="2.89714">
        <ele>257.29</ele>
        <time>2015-10-04T07:10:33Z</time>
      </trkpt>
      <trkpt lat="42.99183" lon="2.89693">
        <ele>257.29</ele>
        <time>2015-10-04T07:10:34Z</time>
      </trkpt>
      <trkpt lat="42.99169" lon="2.89672">
        <ele>257.77</ele>
        <time>2015-10-04T07:10:35Z</time>
      </trkpt>
      <trkpt lat="42.99141" lon="2.89634">
        <ele>257.77</ele>
        <time>2015-10-04T07:10:37Z</time>
      </trkpt>
      <trkpt lat="42.99126" lon="2.89621">
        <ele>257.29</ele>
        <time>2015-10-04T07:10:38Z</time>
      </trkpt>
      <trkpt lat="42.99108" lon="2.89612">
        <ele>256.81</ele>
        <time>2015-10-04T07:10:39Z</time>
      </trkpt>
      <trkpt lat="42.99091" lon="2.89607">
        <ele>257.29</ele>
        <time>2015-10-04T07:10:40Z</time>
      </trkpt>
      <trkpt lat="42.99075" lon="2.89599">
        <ele>257.29</ele>
        <time>2015-10-04T07:10:41Z</time>
      </trkpt>
      <trkpt lat="42.99061" lon="2.89585">
        <ele>257.29</ele>
        <time>2015-10-04T07:10:42Z</time>
      </trkpt>
      <trkpt lat="42.99049" lon="2.89568">
        <ele>257.29</ele>
        <time>2015-10-04T07:10:43Z</time>
      </trkpt>
      <trkpt lat="42.99039" lon="2.89548">
        <ele>257.29</ele>
        <time>2015-10-04T07:10:44Z</time>
      </trkpt>
      <trkpt lat="42.9903" lon="2.89525">
        <ele>257.29</ele>
        <time>2015-10-04T07:10:45Z</time>
      </trkpt>
      <trkpt lat="42.99021" lon="2.89503">
        <ele>257.77</ele>
        <time>2015-10-04T07:10:46Z</time>
      </trkpt>
      <trkpt lat="42.99014" lon="2.89481">
        <ele>258.25</ele>
        <time>2015-10-04T07:10:47Z</time>
      </trkpt>
      <trkpt lat="42.99013" lon="2.89455">
        <ele>258.25</ele>
        <time>2015-10-04T07:10:48Z</time>
      </trkpt>
      <trkpt lat="42.99013" lon="2.89431">
        <ele>258.73</ele>
        <time>2015-10-04T07:10:49Z</time>
      </trkpt>
      <trkpt lat="42.99016" lon="2.89409">
        <ele>258.73</ele>
        <time>2015-10-04T07:10:50Z</time>
      </trkpt>
      <trkpt lat="42.99016" lon="2.89386">
        <ele>258.73</ele>
        <time>2015-10-04T07:10:51Z</time>
      </trkpt>
      <trkpt lat="42.99014" lon="2.89365">
        <ele>258.73</ele>
        <time>2015-10-04T07:10:52Z</time>
      </trkpt>
      <trkpt lat="42.99006" lon="2.89344">
        <ele>259.21</ele>
        <time>2015-10-04T07:10:53Z</time>
      </trkpt>
      <trkpt lat="42.98995" lon="2.89324">
        <ele>259.21</ele>
        <time>2015-10-04T07:10:54Z</time>
      </trkpt>
      <trkpt lat="42.98983" lon="2.89307">
        <ele>259.21</ele>
        <time>2015-10-04T07:10:55Z</time>
      </trkpt>
      <trkpt lat="42.98969" lon="2.89292">
        <ele>259.21</ele>
        <time>2015-10-04T07:10:56Z</time>
      </trkpt>
      <trkpt lat="42.98953" lon="2.89281">
        <ele>259.21</ele>
        <time>2015-10-04T07:10:57Z</time>
      </trkpt>
      <trkpt lat="42.98938" lon="2.89269">
        <ele>259.21</ele>
        <time>2015-10-04T07:10:58Z</time>
      </trkpt>
      <trkpt lat="42.98923" lon="2.89252">
        <ele>259.21</ele>
        <time>2015-10-04T07:10:59Z</time>
      </trkpt>
      <trkpt lat="42.98909" lon="2.89232">
        <ele>259.69</ele>
        <time>2015-10-04T07:11:00Z</time>
      </trkpt>
      <trkpt lat="42.98896" lon="2.89209">
        <ele>259.69</ele>
        <time>2015-10-04T07:11:01Z</time>
      </trkpt>
      <trkpt lat="42.98884" lon="2.89186">
        <ele>260.17</ele>
        <time>2015-10-04T07:11:02Z</time>
      </trkpt>
      <trkpt lat="42.9886" lon="2.89149">
        <ele>260.65</ele>
        <time>2015-10-04T07:11:04Z</time>
      </trkpt>
      <trkpt lat="42.98844" lon="2.89134">
        <ele>260.65</ele>
        <time>2015-10-04T07:11:05Z</time>
      </trkpt>
      <trkpt lat="42.98826" lon="2.89125">
        <ele>261.14</ele>
        <time>2015-10-04T07:11:06Z</time>
      </trkpt>
      <trkpt lat="42.98648" lon="2.89033">
        <ele>264.5</ele>
        <time>2015-10-04T07:11:15Z</time>
      </trkpt>
      <trkpt lat="42.98609" lon="2.89019">
        <ele>264.98</ele>
        <time>2015-10-04T07:11:17Z</time>
      </trkpt>
      <trkpt lat="42.98574" lon="2.89012">
        <ele>265.94</ele>
        <time>2015-10-04T07:11:19Z</time>
      </trkpt>
      <trkpt lat="42.98559" lon="2.89004">
        <ele>266.42</ele>
        <time>2015-10-04T07:11:20Z</time>
      </trkpt>
      <trkpt lat="42.98546" lon="2.8899">
        <ele>266.42</ele>
        <time>2015-10-04T07:11:21Z</time>
      </trkpt>
      <trkpt lat="42.98534" lon="2.88972">
        <ele>266.9</ele>
        <time>2015-10-04T07:11:22Z</time>
      </trkpt>
      <trkpt lat="42.98525" lon="2.88949">
        <ele>267.86</ele>
        <time>2015-10-04T07:11:23Z</time>
      </trkpt>
      <trkpt lat="42.98516" lon="2.88925">
        <ele>267.86</ele>
        <time>2015-10-04T07:11:24Z</time>
      </trkpt>
      <trkpt lat="42.98509" lon="2.88899">
        <ele>268.35</ele>
        <time>2015-10-04T07:11:25Z</time>
      </trkpt>
      <trkpt lat="42.98502" lon="2.88872">
        <ele>268.35</ele>
        <time>2015-10-04T07:11:26Z</time>
      </trkpt>
      <trkpt lat="42.98471" lon="2.88776">
        <ele>270.75</ele>
        <time>2015-10-04T07:11:30Z</time>
      </trkpt>
      <trkpt lat="42.9846" lon="2.88756">
        <ele>270.75</ele>
        <time>2015-10-04T07:11:31Z</time>
      </trkpt>
      <trkpt lat="42.9836" lon="2.88605">
        <ele>268.35</ele>
        <time>2015-10-04T07:11:38Z</time>
      </trkpt>
      <trkpt lat="42.9824" lon="2.88428">
        <ele>264.02</ele>
        <time>2015-10-04T07:11:46Z</time>
      </trkpt>
      <trkpt lat="42.98223" lon="2.8841">
        <ele>263.54</ele>
        <time>2015-10-04T07:11:47Z</time>
      </trkpt>
      <trkpt lat="42.98134" lon="2.88341">
        <ele>259.69</ele>
        <time>2015-10-04T07:11:52Z</time>
      </trkpt>
      <trkpt lat="42.98064" lon="2.88302">
        <ele>257.29</ele>
        <time>2015-10-04T07:11:56Z</time>
      </trkpt>
      <trkpt lat="42.98049" lon="2.88286">
        <ele>256.81</ele>
        <time>2015-10-04T07:11:57Z</time>
      </trkpt>
      <trkpt lat="42.97892" lon="2.88084">
        <ele>256.33</ele>
        <time>2015-10-04T07:12:08Z</time>
      </trkpt>
      <trkpt lat="42.97879" lon="2.88063">
        <ele>256.33</ele>
        <time>2015-10-04T07:12:09Z</time>
      </trkpt>
      <trkpt lat="42.97868" lon="2.88038">
        <ele>255.85</ele>
        <time>2015-10-04T07:12:10Z</time>
      </trkpt>
      <trkpt lat="42.97858" lon="2.88012">
        <ele>255.85</ele>
        <time>2015-10-04T07:12:11Z</time>
      </trkpt>
      <trkpt lat="42.97788" lon="2.87807">
        <ele>253.44</ele>
        <time>2015-10-04T07:12:19Z</time>
      </trkpt>
      <trkpt lat="42.97786" lon="2.87781">
        <ele>252.96</ele>
        <time>2015-10-04T07:12:20Z</time>
      </trkpt>
      <trkpt lat="42.97787" lon="2.87753">
        <ele>252.48</ele>
        <time>2015-10-04T07:12:21Z</time>
      </trkpt>
      <trkpt lat="42.9779" lon="2.87725">
        <ele>252</ele>
        <time>2015-10-04T07:12:22Z</time>
      </trkpt>
      <trkpt lat="42.97794" lon="2.87696">
        <ele>251.52</ele>
        <time>2015-10-04T07:12:23Z</time>
      </trkpt>
      <trkpt lat="42.97799" lon="2.87669">
        <ele>250.56</ele>
        <time>2015-10-04T07:12:24Z</time>
      </trkpt>
      <trkpt lat="42.97807" lon="2.87642">
        <ele>250.08</ele>
        <time>2015-10-04T07:12:25Z</time>
      </trkpt>
      <trkpt lat="42.97816" lon="2.87617">
        <ele>249.6</ele>
        <time>2015-10-04T07:12:26Z</time>
      </trkpt>
      <trkpt lat="42.97827" lon="2.87593">
        <ele>249.12</ele>
        <time>2015-10-04T07:12:27Z</time>
      </trkpt>
      <trkpt lat="42.97838" lon="2.87569">
        <ele>248.64</ele>
        <time>2015-10-04T07:12:28Z</time>
      </trkpt>
      <trkpt lat="42.97893" lon="2.87413">
        <ele>243.35</ele>
        <time>2015-10-04T07:12:35Z</time>
      </trkpt>
      <trkpt lat="42.97898" lon="2.87395">
        <ele>242.39</ele>
        <time>2015-10-04T07:12:36Z</time>
      </trkpt>
      <trkpt lat="42.97899" lon="2.87376">
        <ele>241.43</ele>
        <time>2015-10-04T07:12:37Z</time>
      </trkpt>
      <trkpt lat="42.97897" lon="2.87355">
        <ele>240.95</ele>
        <time>2015-10-04T07:12:38Z</time>
      </trkpt>
      <trkpt lat="42.97885" lon="2.87206">
        <ele>234.7</ele>
        <time>2015-10-04T07:12:44Z</time>
      </trkpt>
      <trkpt lat="42.97889" lon="2.87096">
        <ele>229.89</ele>
        <time>2015-10-04T07:12:49Z</time>
      </trkpt>
      <trkpt lat="42.97884" lon="2.87078">
        <ele>228.93</ele>
        <time>2015-10-04T07:12:50Z</time>
      </trkpt>
      <trkpt lat="42.97876" lon="2.8706">
        <ele>227.97</ele>
        <time>2015-10-04T07:12:51Z</time>
      </trkpt>
      <trkpt lat="42.97865" lon="2.8704">
        <ele>227.01</ele>
        <time>2015-10-04T07:12:52Z</time>
      </trkpt>
      <trkpt lat="42.97856" lon="2.87017">
        <ele>226.05</ele>
        <time>2015-10-04T07:12:53Z</time>
      </trkpt>
      <trkpt lat="42.97848" lon="2.86993">
        <ele>225.09</ele>
        <time>2015-10-04T07:12:54Z</time>
      </trkpt>
      <trkpt lat="42.97844" lon="2.86967">
        <ele>224.61</ele>
        <time>2015-10-04T07:12:55Z</time>
      </trkpt>
      <trkpt lat="42.97841" lon="2.86943">
        <ele>223.64</ele>
        <time>2015-10-04T07:12:56Z</time>
      </trkpt>
      <trkpt lat="42.97839" lon="2.8692">
        <ele>222.68</ele>
        <time>2015-10-04T07:12:57Z</time>
      </trkpt>
      <trkpt lat="42.97836" lon="2.869">
        <ele>221.72</ele>
        <time>2015-10-04T07:12:58Z</time>
      </trkpt>
      <trkpt lat="42.97829" lon="2.86885">
        <ele>220.76</ele>
        <time>2015-10-04T07:12:59Z</time>
      </trkpt>
      <trkpt lat="42.97821" lon="2.86874">
        <ele>219.8</ele>
        <time>2015-10-04T07:13:00Z</time>
      </trkpt>
      <trkpt lat="42.97809" lon="2.86868">
        <ele>218.36</ele>
        <time>2015-10-04T07:13:01Z</time>
      </trkpt>
      <trkpt lat="42.97797" lon="2.86867">
        <ele>217.88</ele>
        <time>2015-10-04T07:13:02Z</time>
      </trkpt>
      <trkpt lat="42.97784" lon="2.86873">
        <ele>216.91</ele>
        <time>2015-10-04T07:13:03Z</time>
      </trkpt>
      <trkpt lat="42.97771" lon="2.86881">
        <ele>215.95</ele>
        <time>2015-10-04T07:13:04Z</time>
      </trkpt>
      <trkpt lat="42.97758" lon="2.86893">
        <ele>215.47</ele>
        <time>2015-10-04T07:13:05Z</time>
      </trkpt>
      <trkpt lat="42.97745" lon="2.86905">
        <ele>214.51</ele>
        <time>2015-10-04T07:13:06Z</time>
      </trkpt>
      <trkpt lat="42.97722" lon="2.86929">
        <ele>212.59</ele>
        <time>2015-10-04T07:13:08Z</time>
      </trkpt>
      <trkpt lat="42.97712" lon="2.86945">
        <ele>212.11</ele>
        <time>2015-10-04T07:13:09Z</time>
      </trkpt>
      <trkpt lat="42.97701" lon="2.86963">
        <ele>210.67</ele>
        <time>2015-10-04T07:13:10Z</time>
      </trkpt>
      <trkpt lat="42.97593" lon="2.87163">
        <ele>202.01</ele>
        <time>2015-10-04T07:13:20Z</time>
      </trkpt>
      <trkpt lat="42.97567" lon="2.87219">
        <ele>200.09</ele>
        <time>2015-10-04T07:13:23Z</time>
      </trkpt>
      <trkpt lat="42.97557" lon="2.87234">
        <ele>199.61</ele>
        <time>2015-10-04T07:13:24Z</time>
      </trkpt>
      <trkpt lat="42.97546" lon="2.87245">
        <ele>199.13</ele>
        <time>2015-10-04T07:13:25Z</time>
      </trkpt>
      <trkpt lat="42.97532" lon="2.87252">
        <ele>198.65</ele>
        <time>2015-10-04T07:13:26Z</time>
      </trkpt>
      <trkpt lat="42.97515" lon="2.87255">
        <ele>198.65</ele>
        <time>2015-10-04T07:13:27Z</time>
      </trkpt>
      <trkpt lat="42.97498" lon="2.87256">
        <ele>199.13</ele>
        <time>2015-10-04T07:13:28Z</time>
      </trkpt>
      <trkpt lat="42.97383" lon="2.87287">
        <ele>207.3</ele>
        <time>2015-10-04T07:13:35Z</time>
      </trkpt>
      <trkpt lat="42.9737" lon="2.8729">
        <ele>208.26</ele>
        <time>2015-10-04T07:13:36Z</time>
      </trkpt>
      <trkpt lat="42.97357" lon="2.87286">
        <ele>209.22</ele>
        <time>2015-10-04T07:13:37Z</time>
      </trkpt>
      <trkpt lat="42.97345" lon="2.87275">
        <ele>210.67</ele>
        <time>2015-10-04T07:13:38Z</time>
      </trkpt>
      <trkpt lat="42.97334" lon="2.87264">
        <ele>211.63</ele>
        <time>2015-10-04T07:13:39Z</time>
      </trkpt>
      <trkpt lat="42.97322" lon="2.87252">
        <ele>212.59</ele>
        <time>2015-10-04T07:13:40Z</time>
      </trkpt>
      <trkpt lat="42.97292" lon="2.87238">
        <ele>214.03</ele>
        <time>2015-10-04T07:13:42Z</time>
      </trkpt>
      <trkpt lat="42.97275" lon="2.87239">
        <ele>214.51</ele>
        <time>2015-10-04T07:13:43Z</time>
      </trkpt>
      <trkpt lat="42.97258" lon="2.87241">
        <ele>215.95</ele>
        <time>2015-10-04T07:13:44Z</time>
      </trkpt>
      <trkpt lat="42.97242" lon="2.87242">
        <ele>216.43</ele>
        <time>2015-10-04T07:13:45Z</time>
      </trkpt>
      <trkpt lat="42.97227" lon="2.87238">
        <ele>217.88</ele>
        <time>2015-10-04T07:13:46Z</time>
      </trkpt>
      <trkpt lat="42.97212" lon="2.87229">
        <ele>218.84</ele>
        <time>2015-10-04T07:13:47Z</time>
      </trkpt>
      <trkpt lat="42.97198" lon="2.87217">
        <ele>219.8</ele>
        <time>2015-10-04T07:13:48Z</time>
      </trkpt>
      <trkpt lat="42.97183" lon="2.87207">
        <ele>220.76</ele>
        <time>2015-10-04T07:13:49Z</time>
      </trkpt>
      <trkpt lat="42.97166" lon="2.87198">
        <ele>221.72</ele>
        <time>2015-10-04T07:13:50Z</time>
      </trkpt>
      <trkpt lat="42.97149" lon="2.8719">
        <ele>221.72</ele>
        <time>2015-10-04T07:13:51Z</time>
      </trkpt>
      <trkpt lat="42.9706" lon="2.8716">
        <ele>226.53</ele>
        <time>2015-10-04T07:13:57Z</time>
      </trkpt>
      <trkpt lat="42.97052" lon="2.8715">
        <ele>227.97</ele>
        <time>2015-10-04T07:13:58Z</time>
      </trkpt>
      <trkpt lat="42.97049" lon="2.87135">
        <ele>228.45</ele>
        <time>2015-10-04T07:13:59Z</time>
      </trkpt>
      <trkpt lat="42.9705" lon="2.8712">
        <ele>229.41</ele>
        <time>2015-10-04T07:14:00Z</time>
      </trkpt>
      <trkpt lat="42.97053" lon="2.87105">
        <ele>230.37</ele>
        <time>2015-10-04T07:14:01Z</time>
      </trkpt>
      <trkpt lat="42.97056" lon="2.87091">
        <ele>230.37</ele>
        <time>2015-10-04T07:14:02Z</time>
      </trkpt>
      <trkpt lat="42.97057" lon="2.87076">
        <ele>230.85</ele>
        <time>2015-10-04T07:14:03Z</time>
      </trkpt>
      <trkpt lat="42.97052" lon="2.87063">
        <ele>231.33</ele>
        <time>2015-10-04T07:14:04Z</time>
      </trkpt>
      <trkpt lat="42.97044" lon="2.87049">
        <ele>231.81</ele>
        <time>2015-10-04T07:14:05Z</time>
      </trkpt>
      <trkpt lat="42.97031" lon="2.87037">
        <ele>232.78</ele>
        <time>2015-10-04T07:14:06Z</time>
      </trkpt>
      <trkpt lat="42.97016" lon="2.87026">
        <ele>233.26</ele>
        <time>2015-10-04T07:14:07Z</time>
      </trkpt>
      <trkpt lat="42.97" lon="2.87017">
        <ele>233.74</ele>
        <time>2015-10-04T07:14:08Z</time>
      </trkpt>
      <trkpt lat="42.96983" lon="2.87014">
        <ele>234.7</ele>
        <time>2015-10-04T07:14:09Z</time>
      </trkpt>
      <trkpt lat="42.96966" lon="2.87013">
        <ele>235.66</ele>
        <time>2015-10-04T07:14:10Z</time>
      </trkpt>
      <trkpt lat="42.96949" lon="2.87012">
        <ele>237.1</ele>
        <time>2015-10-04T07:14:11Z</time>
      </trkpt>
      <trkpt lat="42.96932" lon="2.87008">
        <ele>238.06</ele>
        <time>2015-10-04T07:14:12Z</time>
      </trkpt>
      <trkpt lat="42.96916" lon="2.87001">
        <ele>239.51</ele>
        <time>2015-10-04T07:14:13Z</time>
      </trkpt>
      <trkpt lat="42.96899" lon="2.86991">
        <ele>240.47</ele>
        <time>2015-10-04T07:14:14Z</time>
      </trkpt>
      <trkpt lat="42.96882" lon="2.86979">
        <ele>241.91</ele>
        <time>2015-10-04T07:14:15Z</time>
      </trkpt>
      <trkpt lat="42.96751" lon="2.86894">
        <ele>252</ele>
        <time>2015-10-04T07:14:24Z</time>
      </trkpt>
      <trkpt lat="42.9674" lon="2.86897">
        <ele>252.96</ele>
        <time>2015-10-04T07:14:25Z</time>
      </trkpt>
      <trkpt lat="42.96728" lon="2.86904">
        <ele>253.44</ele>
        <time>2015-10-04T07:14:26Z</time>
      </trkpt>
      <trkpt lat="42.96715" lon="2.86908">
        <ele>253.93</ele>
        <time>2015-10-04T07:14:27Z</time>
      </trkpt>
      <trkpt lat="42.96701" lon="2.86907">
        <ele>253.93</ele>
        <time>2015-10-04T07:14:28Z</time>
      </trkpt>
      <trkpt lat="42.96686" lon="2.86901">
        <ele>253.44</ele>
        <time>2015-10-04T07:14:29Z</time>
      </trkpt>
      <trkpt lat="42.96671" lon="2.86892">
        <ele>252.96</ele>
        <time>2015-10-04T07:14:30Z</time>
      </trkpt>
      <trkpt lat="42.96656" lon="2.86882">
        <ele>252.48</ele>
        <time>2015-10-04T07:14:31Z</time>
      </trkpt>
      <trkpt lat="42.96607" lon="2.86849">
        <ele>249.12</ele>
        <time>2015-10-04T07:14:34Z</time>
      </trkpt>
      <trkpt lat="42.96592" lon="2.86835">
        <ele>248.16</ele>
        <time>2015-10-04T07:14:35Z</time>
      </trkpt>
      <trkpt lat="42.96577" lon="2.86818">
        <ele>246.72</ele>
        <time>2015-10-04T07:14:36Z</time>
      </trkpt>
      <trkpt lat="42.96478" lon="2.8672">
        <ele>239.99</ele>
        <time>2015-10-04T07:14:43Z</time>
      </trkpt>
      <trkpt lat="42.96461" lon="2.86715">
        <ele>239.51</ele>
        <time>2015-10-04T07:14:44Z</time>
      </trkpt>
      <trkpt lat="42.96445" lon="2.86712">
        <ele>238.54</ele>
        <time>2015-10-04T07:14:45Z</time>
      </trkpt>
      <trkpt lat="42.96414" lon="2.86705">
        <ele>235.18</ele>
        <time>2015-10-04T07:14:47Z</time>
      </trkpt>
      <trkpt lat="42.964" lon="2.86699">
        <ele>234.22</ele>
        <time>2015-10-04T07:14:48Z</time>
      </trkpt>
      <trkpt lat="42.96363" lon="2.86676">
        <ele>231.33</ele>
        <time>2015-10-04T07:14:51Z</time>
      </trkpt>
      <trkpt lat="42.96359" lon="2.86666">
        <ele>230.37</ele>
        <time>2015-10-04T07:14:52Z</time>
      </trkpt>
      <trkpt lat="42.96358" lon="2.86654">
        <ele>229.41</ele>
        <time>2015-10-04T07:14:53Z</time>
      </trkpt>
      <trkpt lat="42.96362" lon="2.86644">
        <ele>228.45</ele>
        <time>2015-10-04T07:14:54Z</time>
      </trkpt>
      <trkpt lat="42.9637" lon="2.86636">
        <ele>227.49</ele>
        <time>2015-10-04T07:14:55Z</time>
      </trkpt>
      <trkpt lat="42.96376" lon="2.86629">
        <ele>226.05</ele>
        <time>2015-10-04T07:14:56Z</time>
      </trkpt>
      <trkpt lat="42.96386" lon="2.86622">
        <ele>225.09</ele>
        <time>2015-10-04T07:14:57Z</time>
      </trkpt>
      <trkpt lat="42.96401" lon="2.86615">
        <ele>223.64</ele>
        <time>2015-10-04T07:14:58Z</time>
      </trkpt>
      <trkpt lat="42.96416" lon="2.86605">
        <ele>222.68</ele>
        <time>2015-10-04T07:14:59Z</time>
      </trkpt>
      <trkpt lat="42.96448" lon="2.86586">
        <ele>221.72</ele>
        <time>2015-10-04T07:15:01Z</time>
      </trkpt>
      <trkpt lat="42.96461" lon="2.86578">
        <ele>220.76</ele>
        <time>2015-10-04T07:15:02Z</time>
      </trkpt>
      <trkpt lat="42.96474" lon="2.86568">
        <ele>219.32</ele>
        <time>2015-10-04T07:15:03Z</time>
      </trkpt>
      <trkpt lat="42.96484" lon="2.86556">
        <ele>217.4</ele>
        <time>2015-10-04T07:15:04Z</time>
      </trkpt>
      <trkpt lat="42.96493" lon="2.8654">
        <ele>215.95</ele>
        <time>2015-10-04T07:15:05Z</time>
      </trkpt>
      <trkpt lat="42.96497" lon="2.86518">
        <ele>215.47</ele>
        <time>2015-10-04T07:15:06Z</time>
      </trkpt>
      <trkpt lat="42.96499" lon="2.86496">
        <ele>214.51</ele>
        <time>2015-10-04T07:15:07Z</time>
      </trkpt>
      <trkpt lat="42.96498" lon="2.86474">
        <ele>213.55</ele>
        <time>2015-10-04T07:15:08Z</time>
      </trkpt>
      <trkpt lat="42.96495" lon="2.86451">
        <ele>212.59</ele>
        <time>2015-10-04T07:15:09Z</time>
      </trkpt>
      <trkpt lat="42.96491" lon="2.86428">
        <ele>212.11</ele>
        <time>2015-10-04T07:15:10Z</time>
      </trkpt>
      <trkpt lat="42.96485" lon="2.86405">
        <ele>211.63</ele>
        <time>2015-10-04T07:15:11Z</time>
      </trkpt>
      <trkpt lat="42.96478" lon="2.86383">
        <ele>210.67</ele>
        <time>2015-10-04T07:15:12Z</time>
      </trkpt>
      <trkpt lat="42.9647" lon="2.86362">
        <ele>210.19</ele>
        <time>2015-10-04T07:15:13Z</time>
      </trkpt>
      <trkpt lat="42.96462" lon="2.86342">
        <ele>209.7</ele>
        <time>2015-10-04T07:15:14Z</time>
      </trkpt>
      <trkpt lat="42.96436" lon="2.86288">
        <ele>207.3</ele>
        <time>2015-10-04T07:15:17Z</time>
      </trkpt>
      <trkpt lat="42.96423" lon="2.86277">
        <ele>206.34</ele>
        <time>2015-10-04T07:15:18Z</time>
      </trkpt>
      <trkpt lat="42.9641" lon="2.86267">
        <ele>205.38</ele>
        <time>2015-10-04T07:15:19Z</time>
      </trkpt>
      <trkpt lat="42.96397" lon="2.8626">
        <ele>204.9</ele>
        <time>2015-10-04T07:15:20Z</time>
      </trkpt>
      <trkpt lat="42.96384" lon="2.86254">
        <ele>203.94</ele>
        <time>2015-10-04T07:15:21Z</time>
      </trkpt>
      <trkpt lat="42.96371" lon="2.86248">
        <ele>203.46</ele>
        <time>2015-10-04T07:15:22Z</time>
      </trkpt>
      <trkpt lat="42.96359" lon="2.86245">
        <ele>202.49</ele>
        <time>2015-10-04T07:15:23Z</time>
      </trkpt>
      <trkpt lat="42.96347" lon="2.86242">
        <ele>202.01</ele>
        <time>2015-10-04T07:15:24Z</time>
      </trkpt>
      <trkpt lat="42.96336" lon="2.8624">
        <ele>201.53</ele>
        <time>2015-10-04T07:15:25Z</time>
      </trkpt>
      <trkpt lat="42.96315" lon="2.86233">
        <ele>200.57</ele>
        <time>2015-10-04T07:15:27Z</time>
      </trkpt>
      <trkpt lat="42.96305" lon="2.86226">
        <ele>200.09</ele>
        <time>2015-10-04T07:15:28Z</time>
      </trkpt>
      <trkpt lat="42.96295" lon="2.86216">
        <ele>200.09</ele>
        <time>2015-10-04T07:15:29Z</time>
      </trkpt>
      <trkpt lat="42.96285" lon="2.86204">
        <ele>200.09</ele>
        <time>2015-10-04T07:15:30Z</time>
      </trkpt>
      <trkpt lat="42.96275" lon="2.86192">
        <ele>199.61</ele>
        <time>2015-10-04T07:15:31Z</time>
      </trkpt>
      <trkpt lat="42.96202" lon="2.86114">
        <ele>195.77</ele>
        <time>2015-10-04T07:15:38Z</time>
      </trkpt>
      <trkpt lat="42.9619" lon="2.86107">
        <ele>195.28</ele>
        <time>2015-10-04T07:15:39Z</time>
      </trkpt>
      <trkpt lat="42.9608" lon="2.86031">
        <ele>188.08</ele>
        <time>2015-10-04T07:15:50Z</time>
      </trkpt>
      <trkpt lat="42.96065" lon="2.86016">
        <ele>184.71</ele>
        <time>2015-10-04T07:15:56Z</time>
      </trkpt>
      <trkpt lat="42.96068" lon="2.86015">
        <ele>185.19</ele>
        <time>2015-10-04T07:15:57Z</time>
      </trkpt>
      <trkpt lat="42.96071" lon="2.86015">
        <ele>185.19</ele>
        <time>2015-10-04T07:15:58Z</time>
      </trkpt>
      <trkpt lat="42.96074" lon="2.86017">
        <ele>184.71</ele>
        <time>2015-10-04T07:15:59Z</time>
      </trkpt>
      <trkpt lat="42.96078" lon="2.86019">
        <ele>184.71</ele>
        <time>2015-10-04T07:16:00Z</time>
      </trkpt>
      <trkpt lat="42.96089" lon="2.86024">
        <ele>183.75</ele>
        <time>2015-10-04T07:16:03Z</time>
      </trkpt>
      <trkpt lat="42.96094" lon="2.86025">
        <ele>183.75</ele>
        <time>2015-10-04T07:16:04Z</time>
      </trkpt>
      <trkpt lat="42.96108" lon="2.86025">
        <ele>181.83</ele>
        <time>2015-10-04T07:16:07Z</time>
      </trkpt>
      <trkpt lat="42.96153" lon="2.86016">
        <ele>177.02</ele>
        <time>2015-10-04T07:16:17Z</time>
      </trkpt>
      <trkpt lat="42.96157" lon="2.86016">
        <ele>176.06</ele>
        <time>2015-10-04T07:16:19Z</time>
      </trkpt>
      <trkpt lat="42.96157" lon="2.8601">
        <ele>172.69</ele>
        <time>2015-10-04T07:16:37Z</time>
      </trkpt>
      <trkpt lat="42.96157" lon="2.86009">
        <ele>169.81</ele>
        <time>2015-10-04T07:16:38Z</time>
      </trkpt>
      <trkpt lat="42.96157" lon="2.86007">
        <ele>163.08</ele>
        <time>2015-10-04T07:16:39Z</time>
      </trkpt>
      <trkpt lat="42.9616" lon="2.86007">
        <ele>163.56</ele>
        <time>2015-10-04T07:16:40Z</time>
      </trkpt>
      <trkpt lat="42.96164" lon="2.86007">
        <ele>165.48</ele>
        <time>2015-10-04T07:16:41Z</time>
      </trkpt>
      <trkpt lat="42.96169" lon="2.86005">
        <ele>166.45</ele>
        <time>2015-10-04T07:16:42Z</time>
      </trkpt>
      <trkpt lat="42.96186" lon="2.85999">
        <ele>171.25</ele>
        <time>2015-10-04T07:16:47Z</time>
      </trkpt>
      <trkpt lat="42.96188" lon="2.85999">
        <ele>173.66</ele>
        <time>2015-10-04T07:16:48Z</time>
      </trkpt>
      <trkpt lat="42.9619" lon="2.85998">
        <ele>176.06</ele>
        <time>2015-10-04T07:16:49Z</time>
      </trkpt>
      <trkpt lat="42.96191" lon="2.85997">
        <ele>177.02</ele>
        <time>2015-10-04T07:16:50Z</time>
      </trkpt>
      <trkpt lat="42.96192" lon="2.85995">
        <ele>177.5</ele>
        <time>2015-10-04T07:16:51Z</time>
      </trkpt>
      <trkpt lat="42.96193" lon="2.85996">
        <ele>179.42</ele>
        <time>2015-10-04T07:17:12Z</time>
      </trkpt>
      <trkpt lat="42.96187" lon="2.86001">
        <ele>188.08</ele>
        <time>2015-10-04T07:48:56Z</time>
      </trkpt>
      <trkpt lat="42.96189" lon="2.86005">
        <ele>199.61</ele>
        <time>2015-10-04T07:49:57Z</time>
      </trkpt>
      <trkpt lat="42.96188" lon="2.85996">
        <ele>191.44</ele>
        <time>2015-10-04T07:50:08Z</time>
      </trkpt>
      <trkpt lat="42.96185" lon="2.85993">
        <ele>186.15</ele>
        <time>2015-10-04T07:52:17Z</time>
      </trkpt>
      <trkpt lat="42.96172" lon="2.8597">
        <ele>178.94</ele>
        <time>2015-10-04T07:52:25Z</time>
      </trkpt>
      <trkpt lat="42.96173" lon="2.85962">
        <ele>172.21</ele>
        <time>2015-10-04T07:52:26Z</time>
      </trkpt>
      <trkpt lat="42.96175" lon="2.85958">
        <ele>170.29</ele>
        <time>2015-10-04T07:52:27Z</time>
      </trkpt>
      <trkpt lat="42.96173" lon="2.8595">
        <ele>167.89</ele>
        <time>2015-10-04T07:52:28Z</time>
      </trkpt>
      <trkpt lat="42.96171" lon="2.85943">
        <ele>165</ele>
        <time>2015-10-04T07:52:29Z</time>
      </trkpt>
      <trkpt lat="42.96168" lon="2.85934">
        <ele>164.52</ele>
        <time>2015-10-04T07:52:30Z</time>
      </trkpt>
      <trkpt lat="42.9616" lon="2.859">
        <ele>162.6</ele>
        <time>2015-10-04T07:52:33Z</time>
      </trkpt>
      <trkpt lat="42.9616" lon="2.85887">
        <ele>161.64</ele>
        <time>2015-10-04T07:52:34Z</time>
      </trkpt>
      <trkpt lat="42.9616" lon="2.85831">
        <ele>161.64</ele>
        <time>2015-10-04T07:52:39Z</time>
      </trkpt>
      <trkpt lat="42.96159" lon="2.85812">
        <ele>161.16</ele>
        <time>2015-10-04T07:52:41Z</time>
      </trkpt>
      <trkpt lat="42.96161" lon="2.85725">
        <ele>160.68</ele>
        <time>2015-10-04T07:52:52Z</time>
      </trkpt>
      <trkpt lat="42.9616" lon="2.85624">
        <ele>157.31</ele>
        <time>2015-10-04T07:53:03Z</time>
      </trkpt>
      <trkpt lat="42.9616" lon="2.85546">
        <ele>154.91</ele>
        <time>2015-10-04T07:53:12Z</time>
      </trkpt>
      <trkpt lat="42.96158" lon="2.85404">
        <ele>148.66</ele>
        <time>2015-10-04T07:53:25Z</time>
      </trkpt>
      <trkpt lat="42.96157" lon="2.85228">
        <ele>143.85</ele>
        <time>2015-10-04T07:53:40Z</time>
      </trkpt>
      <trkpt lat="42.96156" lon="2.85067">
        <ele>138.57</ele>
        <time>2015-10-04T07:53:51Z</time>
      </trkpt>
      <trkpt lat="42.96158" lon="2.85052">
        <ele>138.09</ele>
        <time>2015-10-04T07:53:52Z</time>
      </trkpt>
      <trkpt lat="42.96161" lon="2.85037">
        <ele>137.61</ele>
        <time>2015-10-04T07:53:53Z</time>
      </trkpt>
      <trkpt lat="42.96203" lon="2.84867">
        <ele>135.2</ele>
        <time>2015-10-04T07:54:03Z</time>
      </trkpt>
      <trkpt lat="42.96208" lon="2.8482">
        <ele>135.2</ele>
        <time>2015-10-04T07:54:06Z</time>
      </trkpt>
      <trkpt lat="42.96208" lon="2.84805">
        <ele>135.2</ele>
        <time>2015-10-04T07:54:07Z</time>
      </trkpt>
      <trkpt lat="42.96205" lon="2.84791">
        <ele>134.72</ele>
        <time>2015-10-04T07:54:08Z</time>
      </trkpt>
      <trkpt lat="42.962" lon="2.84778">
        <ele>134.72</ele>
        <time>2015-10-04T07:54:09Z</time>
      </trkpt>
      <trkpt lat="42.96196" lon="2.84765">
        <ele>134.72</ele>
        <time>2015-10-04T07:54:10Z</time>
      </trkpt>
      <trkpt lat="42.96194" lon="2.84752">
        <ele>134.72</ele>
        <time>2015-10-04T07:54:11Z</time>
      </trkpt>
      <trkpt lat="42.96195" lon="2.84739">
        <ele>134.72</ele>
        <time>2015-10-04T07:54:12Z</time>
      </trkpt>
      <trkpt lat="42.96199" lon="2.84727">
        <ele>135.2</ele>
        <time>2015-10-04T07:54:13Z</time>
      </trkpt>
      <trkpt lat="42.96205" lon="2.84716">
        <ele>134.72</ele>
        <time>2015-10-04T07:54:14Z</time>
      </trkpt>
      <trkpt lat="42.96215" lon="2.84691">
        <ele>134.24</ele>
        <time>2015-10-04T07:54:16Z</time>
      </trkpt>
      <trkpt lat="42.96218" lon="2.84678">
        <ele>134.24</ele>
        <time>2015-10-04T07:54:17Z</time>
      </trkpt>
      <trkpt lat="42.9622" lon="2.84663">
        <ele>133.76</ele>
        <time>2015-10-04T07:54:18Z</time>
      </trkpt>
      <trkpt lat="42.96218" lon="2.84648">
        <ele>133.76</ele>
        <time>2015-10-04T07:54:19Z</time>
      </trkpt>
      <trkpt lat="42.96213" lon="2.8463">
        <ele>133.28</ele>
        <time>2015-10-04T07:54:20Z</time>
      </trkpt>
      <trkpt lat="42.96206" lon="2.84613">
        <ele>133.76</ele>
        <time>2015-10-04T07:54:21Z</time>
      </trkpt>
      <trkpt lat="42.96199" lon="2.84596">
        <ele>133.28</ele>
        <time>2015-10-04T07:54:22Z</time>
      </trkpt>
      <trkpt lat="42.96156" lon="2.84486">
        <ele>131.84</ele>
        <time>2015-10-04T07:54:29Z</time>
      </trkpt>
      <trkpt lat="42.96153" lon="2.84474">
        <ele>131.84</ele>
        <time>2015-10-04T07:54:30Z</time>
      </trkpt>
      <trkpt lat="42.96152" lon="2.84462">
        <ele>131.36</ele>
        <time>2015-10-04T07:54:31Z</time>
      </trkpt>
      <trkpt lat="42.96153" lon="2.84449">
        <ele>131.84</ele>
        <time>2015-10-04T07:54:32Z</time>
      </trkpt>
      <trkpt lat="42.96157" lon="2.84436">
        <ele>131.84</ele>
        <time>2015-10-04T07:54:33Z</time>
      </trkpt>
      <trkpt lat="42.96162" lon="2.84421">
        <ele>131.36</ele>
        <time>2015-10-04T07:54:34Z</time>
      </trkpt>
      <trkpt lat="42.96167" lon="2.84406">
        <ele>130.88</ele>
        <time>2015-10-04T07:54:35Z</time>
      </trkpt>
      <trkpt lat="42.96206" lon="2.84285">
        <ele>130.88</ele>
        <time>2015-10-04T07:54:44Z</time>
      </trkpt>
      <trkpt lat="42.96219" lon="2.8425">
        <ele>131.36</ele>
        <time>2015-10-04T07:54:47Z</time>
      </trkpt>
      <trkpt lat="42.96225" lon="2.84241">
        <ele>131.36</ele>
        <time>2015-10-04T07:54:48Z</time>
      </trkpt>
      <trkpt lat="42.96231" lon="2.84233">
        <ele>131.36</ele>
        <time>2015-10-04T07:54:49Z</time>
      </trkpt>
      <trkpt lat="42.96238" lon="2.84227">
        <ele>130.88</ele>
        <time>2015-10-04T07:54:50Z</time>
      </trkpt>
      <trkpt lat="42.96244" lon="2.84221">
        <ele>130.88</ele>
        <time>2015-10-04T07:54:51Z</time>
      </trkpt>
      <trkpt lat="42.96262" lon="2.842">
        <ele>129.43</ele>
        <time>2015-10-04T07:54:59Z</time>
      </trkpt>
      <trkpt lat="42.9627" lon="2.84195">
        <ele>129.43</ele>
        <time>2015-10-04T07:55:04Z</time>
      </trkpt>
      <trkpt lat="42.96275" lon="2.84196">
        <ele>129.43</ele>
        <time>2015-10-04T07:55:05Z</time>
      </trkpt>
      <trkpt lat="42.96282" lon="2.84198">
        <ele>129.43</ele>
        <time>2015-10-04T07:55:06Z</time>
      </trkpt>
      <trkpt lat="42.96354" lon="2.84237">
        <ele>128.47</ele>
        <time>2015-10-04T07:55:12Z</time>
      </trkpt>
      <trkpt lat="42.96426" lon="2.84275">
        <ele>127.03</ele>
        <time>2015-10-04T07:55:19Z</time>
      </trkpt>
      <trkpt lat="42.96469" lon="2.84291">
        <ele>126.55</ele>
        <time>2015-10-04T07:55:23Z</time>
      </trkpt>
      <trkpt lat="42.96483" lon="2.84291">
        <ele>126.55</ele>
        <time>2015-10-04T07:55:24Z</time>
      </trkpt>
      <trkpt lat="42.96499" lon="2.8429">
        <ele>126.07</ele>
        <time>2015-10-04T07:55:25Z</time>
      </trkpt>
      <trkpt lat="42.96646" lon="2.84283">
        <ele>124.15</ele>
        <time>2015-10-04T07:55:34Z</time>
      </trkpt>
      <trkpt lat="42.96742" lon="2.84286">
        <ele>122.71</ele>
        <time>2015-10-04T07:55:40Z</time>
      </trkpt>
      <trkpt lat="42.96757" lon="2.84282">
        <ele>122.22</ele>
        <time>2015-10-04T07:55:41Z</time>
      </trkpt>
      <trkpt lat="42.96773" lon="2.84276">
        <ele>122.22</ele>
        <time>2015-10-04T07:55:42Z</time>
      </trkpt>
      <trkpt lat="42.96933" lon="2.84191">
        <ele>122.22</ele>
        <time>2015-10-04T07:55:52Z</time>
      </trkpt>
      <trkpt lat="42.97048" lon="2.84115">
        <ele>121.74</ele>
        <time>2015-10-04T07:56:00Z</time>
      </trkpt>
      <trkpt lat="42.97211" lon="2.84056">
        <ele>118.86</ele>
        <time>2015-10-04T07:56:10Z</time>
      </trkpt>
      <trkpt lat="42.97375" lon="2.83952">
        <ele>119.34</ele>
        <time>2015-10-04T07:56:20Z</time>
      </trkpt>
      <trkpt lat="42.97388" lon="2.83941">
        <ele>118.86</ele>
        <time>2015-10-04T07:56:21Z</time>
      </trkpt>
      <trkpt lat="42.974" lon="2.83927">
        <ele>118.38</ele>
        <time>2015-10-04T07:56:22Z</time>
      </trkpt>
      <trkpt lat="42.97411" lon="2.83911">
        <ele>118.38</ele>
        <time>2015-10-04T07:56:23Z</time>
      </trkpt>
      <trkpt lat="42.97422" lon="2.83894">
        <ele>117.9</ele>
        <time>2015-10-04T07:56:24Z</time>
      </trkpt>
      <trkpt lat="42.97432" lon="2.83876">
        <ele>117.42</ele>
        <time>2015-10-04T07:56:25Z</time>
      </trkpt>
      <trkpt lat="42.97444" lon="2.83859">
        <ele>116.94</ele>
        <time>2015-10-04T07:56:26Z</time>
      </trkpt>
      <trkpt lat="42.97458" lon="2.83843">
        <ele>116.94</ele>
        <time>2015-10-04T07:56:27Z</time>
      </trkpt>
      <trkpt lat="42.9762" lon="2.83676">
        <ele>115.5</ele>
        <time>2015-10-04T07:56:38Z</time>
      </trkpt>
      <trkpt lat="42.9773" lon="2.83527">
        <ele>114.05</ele>
        <time>2015-10-04T07:56:47Z</time>
      </trkpt>
      <trkpt lat="42.97792" lon="2.83463">
        <ele>113.09</ele>
        <time>2015-10-04T07:56:52Z</time>
      </trkpt>
      <trkpt lat="42.97804" lon="2.83446">
        <ele>112.61</ele>
        <time>2015-10-04T07:56:53Z</time>
      </trkpt>
      <trkpt lat="42.97837" lon="2.83396">
        <ele>111.65</ele>
        <time>2015-10-04T07:56:56Z</time>
      </trkpt>
      <trkpt lat="42.97849" lon="2.83384">
        <ele>111.65</ele>
        <time>2015-10-04T07:56:57Z</time>
      </trkpt>
      <trkpt lat="42.97863" lon="2.83376">
        <ele>111.17</ele>
        <time>2015-10-04T07:56:58Z</time>
      </trkpt>
      <trkpt lat="42.97876" lon="2.83372">
        <ele>110.69</ele>
        <time>2015-10-04T07:56:59Z</time>
      </trkpt>
      <trkpt lat="42.97891" lon="2.83373">
        <ele>110.21</ele>
        <time>2015-10-04T07:57:00Z</time>
      </trkpt>
      <trkpt lat="42.97906" lon="2.83378">
        <ele>109.73</ele>
        <time>2015-10-04T07:57:01Z</time>
      </trkpt>
      <trkpt lat="42.97924" lon="2.83384">
        <ele>109.73</ele>
        <time>2015-10-04T07:57:02Z</time>
      </trkpt>
      <trkpt lat="42.97942" lon="2.83392">
        <ele>109.73</ele>
        <time>2015-10-04T07:57:03Z</time>
      </trkpt>
      <trkpt lat="42.98111" lon="2.83458">
        <ele>107.32</ele>
        <time>2015-10-04T07:57:12Z</time>
      </trkpt>
      <trkpt lat="42.98215" lon="2.83497">
        <ele>106.36</ele>
        <time>2015-10-04T07:57:19Z</time>
      </trkpt>
      <trkpt lat="42.98231" lon="2.83497">
        <ele>106.36</ele>
        <time>2015-10-04T07:57:20Z</time>
      </trkpt>
      <trkpt lat="42.98247" lon="2.83495">
        <ele>105.88</ele>
        <time>2015-10-04T07:57:21Z</time>
      </trkpt>
      <trkpt lat="42.98262" lon="2.83489">
        <ele>105.88</ele>
        <time>2015-10-04T07:57:22Z</time>
      </trkpt>
      <trkpt lat="42.98278" lon="2.83481">
        <ele>105.4</ele>
        <time>2015-10-04T07:57:23Z</time>
      </trkpt>
      <trkpt lat="42.98292" lon="2.8347">
        <ele>104.92</ele>
        <time>2015-10-04T07:57:24Z</time>
      </trkpt>
      <trkpt lat="42.98306" lon="2.83459">
        <ele>104.92</ele>
        <time>2015-10-04T07:57:25Z</time>
      </trkpt>
      <trkpt lat="42.98362" lon="2.83432">
        <ele>104.92</ele>
        <time>2015-10-04T07:57:29Z</time>
      </trkpt>
      <trkpt lat="42.98374" lon="2.83432">
        <ele>104.92</ele>
        <time>2015-10-04T07:57:30Z</time>
      </trkpt>
      <trkpt lat="42.98397" lon="2.8343">
        <ele>104.92</ele>
        <time>2015-10-04T07:57:32Z</time>
      </trkpt>
      <trkpt lat="42.98407" lon="2.83425">
        <ele>104.92</ele>
        <time>2015-10-04T07:57:33Z</time>
      </trkpt>
      <trkpt lat="42.98416" lon="2.83414">
        <ele>104.92</ele>
        <time>2015-10-04T07:57:34Z</time>
      </trkpt>
      <trkpt lat="42.98423" lon="2.83398">
        <ele>104.92</ele>
        <time>2015-10-04T07:57:35Z</time>
      </trkpt>
      <trkpt lat="42.98431" lon="2.83382">
        <ele>104.92</ele>
        <time>2015-10-04T07:57:36Z</time>
      </trkpt>
      <trkpt lat="42.98441" lon="2.83367">
        <ele>105.4</ele>
        <time>2015-10-04T07:57:37Z</time>
      </trkpt>
      <trkpt lat="42.98453" lon="2.83353">
        <ele>105.88</ele>
        <time>2015-10-04T07:57:38Z</time>
      </trkpt>
      <trkpt lat="42.98466" lon="2.83342">
        <ele>105.88</ele>
        <time>2015-10-04T07:57:39Z</time>
      </trkpt>
      <trkpt lat="42.98482" lon="2.83334">
        <ele>105.88</ele>
        <time>2015-10-04T07:57:40Z</time>
      </trkpt>
      <trkpt lat="42.98499" lon="2.83328">
        <ele>105.88</ele>
        <time>2015-10-04T07:57:41Z</time>
      </trkpt>
      <trkpt lat="42.98515" lon="2.83322">
        <ele>106.36</ele>
        <time>2015-10-04T07:57:42Z</time>
      </trkpt>
      <trkpt lat="42.98652" lon="2.8329">
        <ele>104.92</ele>
        <time>2015-10-04T07:57:51Z</time>
      </trkpt>
      <trkpt lat="42.98666" lon="2.83286">
        <ele>104.44</ele>
        <time>2015-10-04T07:57:52Z</time>
      </trkpt>
      <trkpt lat="42.98678" lon="2.83278">
        <ele>103.96</ele>
        <time>2015-10-04T07:57:53Z</time>
      </trkpt>
      <trkpt lat="42.98689" lon="2.83266">
        <ele>103.48</ele>
        <time>2015-10-04T07:57:54Z</time>
      </trkpt>
      <trkpt lat="42.98699" lon="2.8325">
        <ele>103.48</ele>
        <time>2015-10-04T07:57:55Z</time>
      </trkpt>
      <trkpt lat="42.98709" lon="2.83233">
        <ele>103</ele>
        <time>2015-10-04T07:57:56Z</time>
      </trkpt>
      <trkpt lat="42.98719" lon="2.83215">
        <ele>102.52</ele>
        <time>2015-10-04T07:57:57Z</time>
      </trkpt>
      <trkpt lat="42.98737" lon="2.83176">
        <ele>102.04</ele>
        <time>2015-10-04T07:57:59Z</time>
      </trkpt>
      <trkpt lat="42.98744" lon="2.83155">
        <ele>102.04</ele>
        <time>2015-10-04T07:58:00Z</time>
      </trkpt>
      <trkpt lat="42.98785" lon="2.82956">
        <ele>100.6</ele>
        <time>2015-10-04T07:58:09Z</time>
      </trkpt>
      <trkpt lat="42.98785" lon="2.82936">
        <ele>100.6</ele>
        <time>2015-10-04T07:58:10Z</time>
      </trkpt>
      <trkpt lat="42.98783" lon="2.82854">
        <ele>100.6</ele>
        <time>2015-10-04T07:58:14Z</time>
      </trkpt>
      <trkpt lat="42.98785" lon="2.82834">
        <ele>100.6</ele>
        <time>2015-10-04T07:58:15Z</time>
      </trkpt>
      <trkpt lat="42.98789" lon="2.82815">
        <ele>100.6</ele>
        <time>2015-10-04T07:58:16Z</time>
      </trkpt>
      <trkpt lat="42.98794" lon="2.82799">
        <ele>100.6</ele>
        <time>2015-10-04T07:58:17Z</time>
      </trkpt>
      <trkpt lat="42.988" lon="2.82786">
        <ele>100.6</ele>
        <time>2015-10-04T07:58:18Z</time>
      </trkpt>
      <trkpt lat="42.98808" lon="2.82776">
        <ele>100.11</ele>
        <time>2015-10-04T07:58:19Z</time>
      </trkpt>
      <trkpt lat="42.98818" lon="2.82767">
        <ele>99.63</ele>
        <time>2015-10-04T07:58:20Z</time>
      </trkpt>
      <trkpt lat="42.98831" lon="2.82765">
        <ele>99.63</ele>
        <time>2015-10-04T07:58:21Z</time>
      </trkpt>
      <trkpt lat="42.98845" lon="2.82762">
        <ele>99.63</ele>
        <time>2015-10-04T07:58:22Z</time>
      </trkpt>
      <trkpt lat="42.98861" lon="2.8276">
        <ele>99.15</ele>
        <time>2015-10-04T07:58:23Z</time>
      </trkpt>
      <trkpt lat="42.9894" lon="2.82748">
        <ele>99.63</ele>
        <time>2015-10-04T07:58:28Z</time>
      </trkpt>
      <trkpt lat="42.98954" lon="2.82748">
        <ele>100.11</ele>
        <time>2015-10-04T07:58:29Z</time>
      </trkpt>
      <trkpt lat="42.98967" lon="2.82752">
        <ele>100.6</ele>
        <time>2015-10-04T07:58:30Z</time>
      </trkpt>
      <trkpt lat="42.9898" lon="2.82757">
        <ele>101.08</ele>
        <time>2015-10-04T07:58:31Z</time>
      </trkpt>
      <trkpt lat="42.98992" lon="2.82763">
        <ele>101.08</ele>
        <time>2015-10-04T07:58:32Z</time>
      </trkpt>
      <trkpt lat="42.99018" lon="2.82771">
        <ele>101.08</ele>
        <time>2015-10-04T07:58:34Z</time>
      </trkpt>
      <trkpt lat="42.99032" lon="2.82771">
        <ele>100.6</ele>
        <time>2015-10-04T07:58:35Z</time>
      </trkpt>
      <trkpt lat="42.99048" lon="2.82765">
        <ele>100.11</ele>
        <time>2015-10-04T07:58:36Z</time>
      </trkpt>
      <trkpt lat="42.99064" lon="2.82756">
        <ele>100.11</ele>
        <time>2015-10-04T07:58:37Z</time>
      </trkpt>
      <trkpt lat="42.99081" lon="2.82747">
        <ele>100.11</ele>
        <time>2015-10-04T07:58:38Z</time>
      </trkpt>
      <trkpt lat="42.99272" lon="2.82653">
        <ele>98.67</ele>
        <time>2015-10-04T07:58:49Z</time>
      </trkpt>
      <trkpt lat="42.99381" lon="2.82669">
        <ele>100.11</ele>
        <time>2015-10-04T07:58:55Z</time>
      </trkpt>
      <trkpt lat="42.99536" lon="2.82723">
        <ele>100.11</ele>
        <time>2015-10-04T07:59:04Z</time>
      </trkpt>
      <trkpt lat="42.99553" lon="2.82722">
        <ele>99.63</ele>
        <time>2015-10-04T07:59:05Z</time>
      </trkpt>
      <trkpt lat="42.99568" lon="2.82715">
        <ele>99.63</ele>
        <time>2015-10-04T07:59:06Z</time>
      </trkpt>
      <trkpt lat="42.99584" lon="2.82705">
        <ele>99.15</ele>
        <time>2015-10-04T07:59:07Z</time>
      </trkpt>
      <trkpt lat="42.99598" lon="2.82693">
        <ele>99.63</ele>
        <time>2015-10-04T07:59:08Z</time>
      </trkpt>
      <trkpt lat="42.99613" lon="2.82682">
        <ele>99.15</ele>
        <time>2015-10-04T07:59:09Z</time>
      </trkpt>
      <trkpt lat="42.99749" lon="2.82612">
        <ele>96.75</ele>
        <time>2015-10-04T07:59:18Z</time>
      </trkpt>
      <trkpt lat="42.99857" lon="2.82567">
        <ele>93.87</ele>
        <time>2015-10-04T07:59:27Z</time>
      </trkpt>
      <trkpt lat="42.99901" lon="2.82547">
        <ele>92.9</ele>
        <time>2015-10-04T07:59:36Z</time>
      </trkpt>
      <trkpt lat="42.99903" lon="2.82542">
        <ele>92.42</ele>
        <time>2015-10-04T07:59:37Z</time>
      </trkpt>
      <trkpt lat="42.99903" lon="2.82533">
        <ele>92.42</ele>
        <time>2015-10-04T07:59:38Z</time>
      </trkpt>
      <trkpt lat="42.99901" lon="2.82519">
        <ele>92.42</ele>
        <time>2015-10-04T07:59:39Z</time>
      </trkpt>
      <trkpt lat="42.99899" lon="2.82504">
        <ele>92.42</ele>
        <time>2015-10-04T07:59:40Z</time>
      </trkpt>
      <trkpt lat="42.99899" lon="2.82489">
        <ele>92.9</ele>
        <time>2015-10-04T07:59:41Z</time>
      </trkpt>
      <trkpt lat="42.999" lon="2.82476">
        <ele>92.9</ele>
        <time>2015-10-04T07:59:42Z</time>
      </trkpt>
      <trkpt lat="42.99901" lon="2.82462">
        <ele>92.9</ele>
        <time>2015-10-04T07:59:43Z</time>
      </trkpt>
      <trkpt lat="42.99907" lon="2.82411">
        <ele>92.9</ele>
        <time>2015-10-04T07:59:47Z</time>
      </trkpt>
      <trkpt lat="42.99906" lon="2.82399">
        <ele>92.9</ele>
        <time>2015-10-04T07:59:48Z</time>
      </trkpt>
      <trkpt lat="42.99904" lon="2.82386">
        <ele>92.9</ele>
        <time>2015-10-04T07:59:49Z</time>
      </trkpt>
      <trkpt lat="42.999" lon="2.82372">
        <ele>93.39</ele>
        <time>2015-10-04T07:59:50Z</time>
      </trkpt>
      <trkpt lat="42.99894" lon="2.82358">
        <ele>93.39</ele>
        <time>2015-10-04T07:59:51Z</time>
      </trkpt>
      <trkpt lat="42.99826" lon="2.82175">
        <ele>94.35</ele>
        <time>2015-10-04T08:00:03Z</time>
      </trkpt>
      <trkpt lat="42.99774" lon="2.82034">
        <ele>94.35</ele>
        <time>2015-10-04T08:00:15Z</time>
      </trkpt>
      <trkpt lat="42.99748" lon="2.81964">
        <ele>91.46</ele>
        <time>2015-10-04T08:00:24Z</time>
      </trkpt>
      <trkpt lat="42.99734" lon="2.81921">
        <ele>91.94</ele>
        <time>2015-10-04T08:00:32Z</time>
      </trkpt>
      <trkpt lat="42.99731" lon="2.81918">
        <ele>91.94</ele>
        <time>2015-10-04T08:00:33Z</time>
      </trkpt>
      <trkpt lat="42.99727" lon="2.81918">
        <ele>92.9</ele>
        <time>2015-10-04T08:00:34Z</time>
      </trkpt>
      <trkpt lat="42.99724" lon="2.81921">
        <ele>93.87</ele>
        <time>2015-10-04T08:00:35Z</time>
      </trkpt>
      <trkpt lat="42.99721" lon="2.81923">
        <ele>93.87</ele>
        <time>2015-10-04T08:00:36Z</time>
      </trkpt>
      <trkpt lat="42.99709" lon="2.81934">
        <ele>93.39</ele>
        <time>2015-10-04T08:00:40Z</time>
      </trkpt>
      <trkpt lat="42.99713" lon="2.81951">
        <ele>93.39</ele>
        <time>2015-10-04T08:00:48Z</time>
      </trkpt>
      <trkpt lat="42.99714" lon="2.81951">
        <ele>89.54</ele>
        <time>2015-10-04T08:01:10Z</time>
      </trkpt>
      <trkpt lat="42.9971" lon="2.81947">
        <ele>92.9</ele>
        <time>2015-10-04T08:14:00Z</time>
      </trkpt>
      <trkpt lat="42.99726" lon="2.81949">
        <ele>97.23</ele>
        <time>2015-10-04T08:14:50Z</time>
      </trkpt>
      <trkpt lat="42.99735" lon="2.81944">
        <ele>94.83</ele>
        <time>2015-10-04T08:15:02Z</time>
      </trkpt>
      <trkpt lat="42.99737" lon="2.81941">
        <ele>94.83</ele>
        <time>2015-10-04T08:15:17Z</time>
      </trkpt>
      <trkpt lat="42.99737" lon="2.81924">
        <ele>95.31</ele>
        <time>2015-10-04T08:15:21Z</time>
      </trkpt>
      <trkpt lat="42.99734" lon="2.81916">
        <ele>95.31</ele>
        <time>2015-10-04T08:15:22Z</time>
      </trkpt>
      <trkpt lat="42.9973" lon="2.81907">
        <ele>95.31</ele>
        <time>2015-10-04T08:15:23Z</time>
      </trkpt>
      <trkpt lat="42.99685" lon="2.81794">
        <ele>96.27</ele>
        <time>2015-10-04T08:15:36Z</time>
      </trkpt>
      <trkpt lat="42.99668" lon="2.81749">
        <ele>95.31</ele>
        <time>2015-10-04T08:15:41Z</time>
      </trkpt>
      <trkpt lat="42.99665" lon="2.8174">
        <ele>95.79</ele>
        <time>2015-10-04T08:15:42Z</time>
      </trkpt>
      <trkpt lat="42.99653" lon="2.81713">
        <ele>95.31</ele>
        <time>2015-10-04T08:15:45Z</time>
      </trkpt>
      <trkpt lat="42.99649" lon="2.81706">
        <ele>95.31</ele>
        <time>2015-10-04T08:15:46Z</time>
      </trkpt>
      <trkpt lat="42.99645" lon="2.817">
        <ele>94.83</ele>
        <time>2015-10-04T08:15:47Z</time>
      </trkpt>
      <trkpt lat="42.99575" lon="2.81605">
        <ele>90.5</ele>
        <time>2015-10-04T08:16:00Z</time>
      </trkpt>
      <trkpt lat="42.99493" lon="2.81502">
        <ele>89.06</ele>
        <time>2015-10-04T08:16:12Z</time>
      </trkpt>
      <trkpt lat="42.99485" lon="2.81486">
        <ele>89.06</ele>
        <time>2015-10-04T08:16:14Z</time>
      </trkpt>
      <trkpt lat="42.99482" lon="2.81485">
        <ele>89.06</ele>
        <time>2015-10-04T08:16:15Z</time>
      </trkpt>
      <trkpt lat="42.99481" lon="2.81483">
        <ele>89.06</ele>
        <time>2015-10-04T08:16:16Z</time>
      </trkpt>
      <trkpt lat="42.99479" lon="2.81481">
        <ele>88.58</ele>
        <time>2015-10-04T08:16:17Z</time>
      </trkpt>
      <trkpt lat="42.99478" lon="2.8148">
        <ele>88.58</ele>
        <time>2015-10-04T08:16:18Z</time>
      </trkpt>
      <trkpt lat="42.99452" lon="2.81436">
        <ele>89.54</ele>
        <time>2015-10-04T08:16:27Z</time>
      </trkpt>
      <trkpt lat="42.99397" lon="2.81351">
        <ele>91.46</ele>
        <time>2015-10-04T08:16:34Z</time>
      </trkpt>
      <trkpt lat="42.99315" lon="2.81191">
        <ele>93.39</ele>
        <time>2015-10-04T08:16:46Z</time>
      </trkpt>
      <trkpt lat="42.99284" lon="2.81099">
        <ele>98.67</ele>
        <time>2015-10-04T08:16:52Z</time>
      </trkpt>
      <trkpt lat="42.9928" lon="2.8108">
        <ele>99.15</ele>
        <time>2015-10-04T08:16:53Z</time>
      </trkpt>
      <trkpt lat="42.99261" lon="2.80977">
        <ele>100.11</ele>
        <time>2015-10-04T08:16:58Z</time>
      </trkpt>
      <trkpt lat="42.99248" lon="2.80934">
        <ele>100.6</ele>
        <time>2015-10-04T08:17:00Z</time>
      </trkpt>
      <trkpt lat="42.99243" lon="2.8091">
        <ele>100.6</ele>
        <time>2015-10-04T08:17:01Z</time>
      </trkpt>
      <trkpt lat="42.99211" lon="2.80695">
        <ele>102.52</ele>
        <time>2015-10-04T08:17:09Z</time>
      </trkpt>
      <trkpt lat="42.9921" lon="2.80665">
        <ele>102.04</ele>
        <time>2015-10-04T08:17:10Z</time>
      </trkpt>
      <trkpt lat="42.99204" lon="2.80341">
        <ele>103.48</ele>
        <time>2015-10-04T08:17:20Z</time>
      </trkpt>
      <trkpt lat="42.99202" lon="2.80202">
        <ele>103.96</ele>
        <time>2015-10-04T08:17:24Z</time>
      </trkpt>
      <trkpt lat="42.99206" lon="2.80168">
        <ele>103.96</ele>
        <time>2015-10-04T08:17:25Z</time>
      </trkpt>
      <trkpt lat="42.99214" lon="2.80134">
        <ele>103.96</ele>
        <time>2015-10-04T08:17:26Z</time>
      </trkpt>
      <trkpt lat="42.99247" lon="2.79946">
        <ele>106.36</ele>
        <time>2015-10-04T08:17:32Z</time>
      </trkpt>
      <trkpt lat="42.99258" lon="2.7987">
        <ele>107.81</ele>
        <time>2015-10-04T08:17:35Z</time>
      </trkpt>
      <trkpt lat="42.99257" lon="2.79846">
        <ele>107.81</ele>
        <time>2015-10-04T08:17:36Z</time>
      </trkpt>
      <trkpt lat="42.99252" lon="2.79823">
        <ele>108.29</ele>
        <time>2015-10-04T08:17:37Z</time>
      </trkpt>
      <trkpt lat="42.99244" lon="2.798">
        <ele>108.29</ele>
        <time>2015-10-04T08:17:38Z</time>
      </trkpt>
      <trkpt lat="42.99236" lon="2.79777">
        <ele>107.81</ele>
        <time>2015-10-04T08:17:39Z</time>
      </trkpt>
      <trkpt lat="42.99222" lon="2.79732">
        <ele>108.29</ele>
        <time>2015-10-04T08:17:41Z</time>
      </trkpt>
      <trkpt lat="42.99218" lon="2.79707">
        <ele>108.77</ele>
        <time>2015-10-04T08:17:42Z</time>
      </trkpt>
      <trkpt lat="42.99216" lon="2.79682">
        <ele>108.77</ele>
        <time>2015-10-04T08:17:43Z</time>
      </trkpt>
      <trkpt lat="42.9921" lon="2.79608">
        <ele>108.77</ele>
        <time>2015-10-04T08:17:46Z</time>
      </trkpt>
      <trkpt lat="42.9921" lon="2.79583">
        <ele>108.77</ele>
        <time>2015-10-04T08:17:47Z</time>
      </trkpt>
      <trkpt lat="42.99213" lon="2.79558">
        <ele>108.77</ele>
        <time>2015-10-04T08:17:48Z</time>
      </trkpt>
      <trkpt lat="42.99223" lon="2.79484">
        <ele>108.77</ele>
        <time>2015-10-04T08:17:51Z</time>
      </trkpt>
      <trkpt lat="42.99223" lon="2.79459">
        <ele>108.77</ele>
        <time>2015-10-04T08:17:52Z</time>
      </trkpt>
      <trkpt lat="42.99225" lon="2.79284">
        <ele>109.25</ele>
        <time>2015-10-04T08:17:59Z</time>
      </trkpt>
      <trkpt lat="42.99219" lon="2.79208">
        <ele>110.21</ele>
        <time>2015-10-04T08:18:02Z</time>
      </trkpt>
      <trkpt lat="42.99219" lon="2.79183">
        <ele>110.69</ele>
        <time>2015-10-04T08:18:03Z</time>
      </trkpt>
      <trkpt lat="42.99222" lon="2.79159">
        <ele>111.17</ele>
        <time>2015-10-04T08:18:04Z</time>
      </trkpt>
      <trkpt lat="42.99225" lon="2.79137">
        <ele>111.17</ele>
        <time>2015-10-04T08:18:05Z</time>
      </trkpt>
      <trkpt lat="42.99231" lon="2.79116">
        <ele>111.17</ele>
        <time>2015-10-04T08:18:06Z</time>
      </trkpt>
      <trkpt lat="42.99236" lon="2.79097">
        <ele>111.65</ele>
        <time>2015-10-04T08:18:07Z</time>
      </trkpt>
      <trkpt lat="42.99248" lon="2.7904">
        <ele>112.61</ele>
        <time>2015-10-04T08:18:10Z</time>
      </trkpt>
      <trkpt lat="42.99248" lon="2.79019">
        <ele>113.09</ele>
        <time>2015-10-04T08:18:11Z</time>
      </trkpt>
      <trkpt lat="42.99244" lon="2.78999">
        <ele>113.57</ele>
        <time>2015-10-04T08:18:12Z</time>
      </trkpt>
      <trkpt lat="42.99238" lon="2.7898">
        <ele>114.05</ele>
        <time>2015-10-04T08:18:13Z</time>
      </trkpt>
      <trkpt lat="42.99229" lon="2.78963">
        <ele>114.53</ele>
        <time>2015-10-04T08:18:14Z</time>
      </trkpt>
      <trkpt lat="42.99215" lon="2.78949">
        <ele>114.53</ele>
        <time>2015-10-04T08:18:15Z</time>
      </trkpt>
      <trkpt lat="42.99198" lon="2.78941">
        <ele>115.01</ele>
        <time>2015-10-04T08:18:16Z</time>
      </trkpt>
      <trkpt lat="42.99182" lon="2.78936">
        <ele>115.01</ele>
        <time>2015-10-04T08:18:17Z</time>
      </trkpt>
      <trkpt lat="42.99165" lon="2.78933">
        <ele>115.01</ele>
        <time>2015-10-04T08:18:18Z</time>
      </trkpt>
      <trkpt lat="42.99148" lon="2.78931">
        <ele>115.01</ele>
        <time>2015-10-04T08:18:19Z</time>
      </trkpt>
      <trkpt lat="42.99087" lon="2.78928">
        <ele>116.46</ele>
        <time>2015-10-04T08:18:23Z</time>
      </trkpt>
      <trkpt lat="42.99074" lon="2.78931">
        <ele>116.94</ele>
        <time>2015-10-04T08:18:24Z</time>
      </trkpt>
      <trkpt lat="42.99062" lon="2.78939">
        <ele>116.94</ele>
        <time>2015-10-04T08:18:25Z</time>
      </trkpt>
      <trkpt lat="42.9905" lon="2.7895">
        <ele>117.42</ele>
        <time>2015-10-04T08:18:26Z</time>
      </trkpt>
      <trkpt lat="42.99039" lon="2.78962">
        <ele>117.42</ele>
        <time>2015-10-04T08:18:27Z</time>
      </trkpt>
      <trkpt lat="42.99028" lon="2.78976">
        <ele>118.38</ele>
        <time>2015-10-04T08:18:28Z</time>
      </trkpt>
      <trkpt lat="42.99018" lon="2.78991">
        <ele>118.38</ele>
        <time>2015-10-04T08:18:29Z</time>
      </trkpt>
      <trkpt lat="42.99008" lon="2.79004">
        <ele>118.38</ele>
        <time>2015-10-04T08:18:30Z</time>
      </trkpt>
      <trkpt lat="42.98997" lon="2.79014">
        <ele>118.38</ele>
        <time>2015-10-04T08:18:31Z</time>
      </trkpt>
      <trkpt lat="42.98985" lon="2.79016">
        <ele>118.86</ele>
        <time>2015-10-04T08:18:32Z</time>
      </trkpt>
      <trkpt lat="42.98972" lon="2.79016">
        <ele>119.82</ele>
        <time>2015-10-04T08:18:33Z</time>
      </trkpt>
      <trkpt lat="42.98957" lon="2.79012">
        <ele>119.82</ele>
        <time>2015-10-04T08:18:34Z</time>
      </trkpt>
      <trkpt lat="42.98944" lon="2.78999">
        <ele>120.3</ele>
        <time>2015-10-04T08:18:35Z</time>
      </trkpt>
      <trkpt lat="42.98933" lon="2.78986">
        <ele>120.78</ele>
        <time>2015-10-04T08:18:36Z</time>
      </trkpt>
      <trkpt lat="42.98921" lon="2.78973">
        <ele>120.78</ele>
        <time>2015-10-04T08:18:37Z</time>
      </trkpt>
      <trkpt lat="42.98847" lon="2.78886">
        <ele>122.22</ele>
        <time>2015-10-04T08:18:43Z</time>
      </trkpt>
      <trkpt lat="42.98839" lon="2.78867">
        <ele>122.71</ele>
        <time>2015-10-04T08:18:44Z</time>
      </trkpt>
      <trkpt lat="42.98823" lon="2.78832">
        <ele>122.71</ele>
        <time>2015-10-04T08:18:46Z</time>
      </trkpt>
      <trkpt lat="42.98812" lon="2.78819">
        <ele>122.71</ele>
        <time>2015-10-04T08:18:47Z</time>
      </trkpt>
      <trkpt lat="42.98798" lon="2.78811">
        <ele>122.71</ele>
        <time>2015-10-04T08:18:48Z</time>
      </trkpt>
      <trkpt lat="42.98783" lon="2.78805">
        <ele>122.71</ele>
        <time>2015-10-04T08:18:49Z</time>
      </trkpt>
      <trkpt lat="42.98769" lon="2.788">
        <ele>122.71</ele>
        <time>2015-10-04T08:18:50Z</time>
      </trkpt>
      <trkpt lat="42.9874" lon="2.78796">
        <ele>122.71</ele>
        <time>2015-10-04T08:18:52Z</time>
      </trkpt>
      <trkpt lat="42.98726" lon="2.78799">
        <ele>123.19</ele>
        <time>2015-10-04T08:18:53Z</time>
      </trkpt>
      <trkpt lat="42.98712" lon="2.78805">
        <ele>123.67</ele>
        <time>2015-10-04T08:18:54Z</time>
      </trkpt>
      <trkpt lat="42.98697" lon="2.78816">
        <ele>123.67</ele>
        <time>2015-10-04T08:18:55Z</time>
      </trkpt>
      <trkpt lat="42.98683" lon="2.78827">
        <ele>124.15</ele>
        <time>2015-10-04T08:18:56Z</time>
      </trkpt>
      <trkpt lat="42.98671" lon="2.78842">
        <ele>123.67</ele>
        <time>2015-10-04T08:18:57Z</time>
      </trkpt>
      <trkpt lat="42.9866" lon="2.78858">
        <ele>123.67</ele>
        <time>2015-10-04T08:18:58Z</time>
      </trkpt>
      <trkpt lat="42.98648" lon="2.78874">
        <ele>123.19</ele>
        <time>2015-10-04T08:18:59Z</time>
      </trkpt>
      <trkpt lat="42.98631" lon="2.78883">
        <ele>123.19</ele>
        <time>2015-10-04T08:19:00Z</time>
      </trkpt>
      <trkpt lat="42.98613" lon="2.78888">
        <ele>122.71</ele>
        <time>2015-10-04T08:19:01Z</time>
      </trkpt>
      <trkpt lat="42.98594" lon="2.7889">
        <ele>122.71</ele>
        <time>2015-10-04T08:19:02Z</time>
      </trkpt>
      <trkpt lat="42.98575" lon="2.7889">
        <ele>123.19</ele>
        <time>2015-10-04T08:19:03Z</time>
      </trkpt>
      <trkpt lat="42.98557" lon="2.7889">
        <ele>123.19</ele>
        <time>2015-10-04T08:19:04Z</time>
      </trkpt>
      <trkpt lat="42.98487" lon="2.78883">
        <ele>123.19</ele>
        <time>2015-10-04T08:19:08Z</time>
      </trkpt>
      <trkpt lat="42.98471" lon="2.78875">
        <ele>123.19</ele>
        <time>2015-10-04T08:19:09Z</time>
      </trkpt>
      <trkpt lat="42.98458" lon="2.78861">
        <ele>123.19</ele>
        <time>2015-10-04T08:19:10Z</time>
      </trkpt>
      <trkpt lat="42.98444" lon="2.78847">
        <ele>123.19</ele>
        <time>2015-10-04T08:19:11Z</time>
      </trkpt>
      <trkpt lat="42.98433" lon="2.78826">
        <ele>123.19</ele>
        <time>2015-10-04T08:19:12Z</time>
      </trkpt>
      <trkpt lat="42.9842" lon="2.78809">
        <ele>123.67</ele>
        <time>2015-10-04T08:19:13Z</time>
      </trkpt>
      <trkpt lat="42.98406" lon="2.78792">
        <ele>123.67</ele>
        <time>2015-10-04T08:19:14Z</time>
      </trkpt>
      <trkpt lat="42.98336" lon="2.78713">
        <ele>123.67</ele>
        <time>2015-10-04T08:19:19Z</time>
      </trkpt>
      <trkpt lat="42.98325" lon="2.78694">
        <ele>123.67</ele>
        <time>2015-10-04T08:19:20Z</time>
      </trkpt>
      <trkpt lat="42.98318" lon="2.78672">
        <ele>123.67</ele>
        <time>2015-10-04T08:19:21Z</time>
      </trkpt>
      <trkpt lat="42.98314" lon="2.78649">
        <ele>123.67</ele>
        <time>2015-10-04T08:19:22Z</time>
      </trkpt>
      <trkpt lat="42.98314" lon="2.78625">
        <ele>123.19</ele>
        <time>2015-10-04T08:19:23Z</time>
      </trkpt>
      <trkpt lat="42.98317" lon="2.786">
        <ele>122.22</ele>
        <time>2015-10-04T08:19:24Z</time>
      </trkpt>
      <trkpt lat="42.98319" lon="2.78575">
        <ele>121.74</ele>
        <time>2015-10-04T08:19:25Z</time>
      </trkpt>
      <trkpt lat="42.98321" lon="2.78527">
        <ele>121.26</ele>
        <time>2015-10-04T08:19:27Z</time>
      </trkpt>
      <trkpt lat="42.98318" lon="2.78503">
        <ele>121.74</ele>
        <time>2015-10-04T08:19:28Z</time>
      </trkpt>
      <trkpt lat="42.98314" lon="2.78479">
        <ele>122.22</ele>
        <time>2015-10-04T08:19:29Z</time>
      </trkpt>
      <trkpt lat="42.98308" lon="2.78455">
        <ele>122.71</ele>
        <time>2015-10-04T08:19:30Z</time>
      </trkpt>
      <trkpt lat="42.983" lon="2.78432">
        <ele>123.19</ele>
        <time>2015-10-04T08:19:31Z</time>
      </trkpt>
      <trkpt lat="42.98291" lon="2.7841">
        <ele>123.67</ele>
        <time>2015-10-04T08:19:32Z</time>
      </trkpt>
      <trkpt lat="42.98282" lon="2.78387">
        <ele>124.15</ele>
        <time>2015-10-04T08:19:33Z</time>
      </trkpt>
      <trkpt lat="42.98276" lon="2.78363">
        <ele>124.63</ele>
        <time>2015-10-04T08:19:34Z</time>
      </trkpt>
      <trkpt lat="42.98273" lon="2.78339">
        <ele>124.63</ele>
        <time>2015-10-04T08:19:35Z</time>
      </trkpt>
      <trkpt lat="42.98267" lon="2.78293">
        <ele>125.11</ele>
        <time>2015-10-04T08:19:37Z</time>
      </trkpt>
      <trkpt lat="42.98261" lon="2.78273">
        <ele>125.59</ele>
        <time>2015-10-04T08:19:38Z</time>
      </trkpt>
      <trkpt lat="42.98252" lon="2.78255">
        <ele>125.59</ele>
        <time>2015-10-04T08:19:39Z</time>
      </trkpt>
      <trkpt lat="42.98241" lon="2.7824">
        <ele>126.07</ele>
        <time>2015-10-04T08:19:40Z</time>
      </trkpt>
      <trkpt lat="42.98227" lon="2.78231">
        <ele>126.07</ele>
        <time>2015-10-04T08:19:41Z</time>
      </trkpt>
      <trkpt lat="42.9821" lon="2.78226">
        <ele>126.07</ele>
        <time>2015-10-04T08:19:42Z</time>
      </trkpt>
      <trkpt lat="42.98193" lon="2.78224">
        <ele>126.07</ele>
        <time>2015-10-04T08:19:43Z</time>
      </trkpt>
      <trkpt lat="42.98176" lon="2.7822">
        <ele>126.07</ele>
        <time>2015-10-04T08:19:44Z</time>
      </trkpt>
      <trkpt lat="42.9816" lon="2.78214">
        <ele>126.07</ele>
        <time>2015-10-04T08:19:45Z</time>
      </trkpt>
      <trkpt lat="42.98144" lon="2.78206">
        <ele>127.03</ele>
        <time>2015-10-04T08:19:46Z</time>
      </trkpt>
      <trkpt lat="42.98129" lon="2.78196">
        <ele>127.03</ele>
        <time>2015-10-04T08:19:47Z</time>
      </trkpt>
      <trkpt lat="42.98058" lon="2.78137">
        <ele>128.47</ele>
        <time>2015-10-04T08:19:52Z</time>
      </trkpt>
      <trkpt lat="42.98042" lon="2.78129">
        <ele>128.47</ele>
        <time>2015-10-04T08:19:53Z</time>
      </trkpt>
      <trkpt lat="42.98025" lon="2.78124">
        <ele>128.95</ele>
        <time>2015-10-04T08:19:54Z</time>
      </trkpt>
      <trkpt lat="42.98007" lon="2.78117">
        <ele>128.95</ele>
        <time>2015-10-04T08:19:55Z</time>
      </trkpt>
      <trkpt lat="42.9799" lon="2.78109">
        <ele>128.95</ele>
        <time>2015-10-04T08:19:56Z</time>
      </trkpt>
      <trkpt lat="42.97973" lon="2.78098">
        <ele>128.95</ele>
        <time>2015-10-04T08:19:57Z</time>
      </trkpt>
      <trkpt lat="42.97801" lon="2.77983">
        <ele>129.92</ele>
        <time>2015-10-04T08:20:08Z</time>
      </trkpt>
      <trkpt lat="42.97761" lon="2.77948">
        <ele>129.92</ele>
        <time>2015-10-04T08:20:12Z</time>
      </trkpt>
      <trkpt lat="42.97754" lon="2.77937">
        <ele>129.92</ele>
        <time>2015-10-04T08:20:13Z</time>
      </trkpt>
      <trkpt lat="42.97748" lon="2.77926">
        <ele>130.4</ele>
        <time>2015-10-04T08:20:14Z</time>
      </trkpt>
      <trkpt lat="42.97702" lon="2.77797">
        <ele>129.92</ele>
        <time>2015-10-04T08:20:23Z</time>
      </trkpt>
      <trkpt lat="42.97699" lon="2.77748">
        <ele>128.95</ele>
        <time>2015-10-04T08:20:27Z</time>
      </trkpt>
      <trkpt lat="42.97699" lon="2.7774">
        <ele>128.47</ele>
        <time>2015-10-04T08:20:28Z</time>
      </trkpt>
      <trkpt lat="42.97696" lon="2.77719">
        <ele>128.95</ele>
        <time>2015-10-04T08:20:31Z</time>
      </trkpt>
      <trkpt lat="42.97691" lon="2.77637">
        <ele>126.55</ele>
        <time>2015-10-04T08:20:41Z</time>
      </trkpt>
      <trkpt lat="42.97683" lon="2.77597">
        <ele>128.47</ele>
        <time>2015-10-04T08:20:47Z</time>
      </trkpt>
      <trkpt lat="42.97681" lon="2.77591">
        <ele>128.47</ele>
        <time>2015-10-04T08:20:48Z</time>
      </trkpt>
      <trkpt lat="42.97679" lon="2.77586">
        <ele>128.95</ele>
        <time>2015-10-04T08:20:49Z</time>
      </trkpt>
      <trkpt lat="42.97677" lon="2.77581">
        <ele>128.95</ele>
        <time>2015-10-04T08:20:50Z</time>
      </trkpt>
      <trkpt lat="42.97674" lon="2.77577">
        <ele>129.43</ele>
        <time>2015-10-04T08:20:51Z</time>
      </trkpt>
      <trkpt lat="42.97671" lon="2.77574">
        <ele>129.92</ele>
        <time>2015-10-04T08:20:52Z</time>
      </trkpt>
      <trkpt lat="42.97667" lon="2.77571">
        <ele>129.92</ele>
        <time>2015-10-04T08:20:53Z</time>
      </trkpt>
      <trkpt lat="42.97663" lon="2.77568">
        <ele>130.4</ele>
        <time>2015-10-04T08:20:54Z</time>
      </trkpt>
      <trkpt lat="42.97659" lon="2.77566">
        <ele>130.88</ele>
        <time>2015-10-04T08:20:55Z</time>
      </trkpt>
      <trkpt lat="42.97654" lon="2.77565">
        <ele>131.36</ele>
        <time>2015-10-04T08:20:56Z</time>
      </trkpt>
      <trkpt lat="42.97649" lon="2.77563">
        <ele>131.36</ele>
        <time>2015-10-04T08:20:57Z</time>
      </trkpt>
      <trkpt lat="42.97645" lon="2.77562">
        <ele>132.32</ele>
        <time>2015-10-04T08:20:58Z</time>
      </trkpt>
      <trkpt lat="42.97642" lon="2.77562">
        <ele>132.32</ele>
        <time>2015-10-04T08:20:59Z</time>
      </trkpt>
      <trkpt lat="42.97598" lon="2.77551">
        <ele>132.32</ele>
        <time>2015-10-04T08:21:05Z</time>
      </trkpt>
      <trkpt lat="42.97569" lon="2.77549">
        <ele>131.84</ele>
        <time>2015-10-04T08:21:08Z</time>
      </trkpt>
      <trkpt lat="42.9756" lon="2.77551">
        <ele>132.8</ele>
        <time>2015-10-04T08:21:09Z</time>
      </trkpt>
      <trkpt lat="42.97551" lon="2.77555">
        <ele>132.32</ele>
        <time>2015-10-04T08:21:10Z</time>
      </trkpt>
      <trkpt lat="42.97541" lon="2.7756">
        <ele>132.32</ele>
        <time>2015-10-04T08:21:11Z</time>
      </trkpt>
      <trkpt lat="42.97531" lon="2.77567">
        <ele>132.32</ele>
        <time>2015-10-04T08:21:12Z</time>
      </trkpt>
      <trkpt lat="42.97522" lon="2.77573">
        <ele>132.8</ele>
        <time>2015-10-04T08:21:13Z</time>
      </trkpt>
      <trkpt lat="42.97514" lon="2.77581">
        <ele>132.8</ele>
        <time>2015-10-04T08:21:14Z</time>
      </trkpt>
      <trkpt lat="42.97506" lon="2.7759">
        <ele>132.32</ele>
        <time>2015-10-04T08:21:15Z</time>
      </trkpt>
      <trkpt lat="42.97498" lon="2.77601">
        <ele>132.32</ele>
        <time>2015-10-04T08:21:16Z</time>
      </trkpt>
      <trkpt lat="42.97491" lon="2.77612">
        <ele>132.32</ele>
        <time>2015-10-04T08:21:17Z</time>
      </trkpt>
      <trkpt lat="42.97485" lon="2.77625">
        <ele>131.84</ele>
        <time>2015-10-04T08:21:18Z</time>
      </trkpt>
      <trkpt lat="42.97469" lon="2.77652">
        <ele>132.32</ele>
        <time>2015-10-04T08:21:20Z</time>
      </trkpt>
      <trkpt lat="42.97458" lon="2.77664">
        <ele>132.8</ele>
        <time>2015-10-04T08:21:21Z</time>
      </trkpt>
      <trkpt lat="42.97445" lon="2.77674">
        <ele>133.28</ele>
        <time>2015-10-04T08:21:22Z</time>
      </trkpt>
      <trkpt lat="42.9743" lon="2.77679">
        <ele>133.28</ele>
        <time>2015-10-04T08:21:23Z</time>
      </trkpt>
      <trkpt lat="42.97413" lon="2.77681">
        <ele>133.76</ele>
        <time>2015-10-04T08:21:24Z</time>
      </trkpt>
      <trkpt lat="42.97399" lon="2.77684">
        <ele>134.24</ele>
        <time>2015-10-04T08:21:25Z</time>
      </trkpt>
      <trkpt lat="42.97385" lon="2.77685">
        <ele>134.24</ele>
        <time>2015-10-04T08:21:26Z</time>
      </trkpt>
      <trkpt lat="42.9732" lon="2.77678">
        <ele>135.2</ele>
        <time>2015-10-04T08:21:30Z</time>
      </trkpt>
      <trkpt lat="42.97301" lon="2.77665">
        <ele>135.2</ele>
        <time>2015-10-04T08:21:31Z</time>
      </trkpt>
      <trkpt lat="42.97239" lon="2.77634">
        <ele>136.64</ele>
        <time>2015-10-04T08:21:35Z</time>
      </trkpt>
      <trkpt lat="42.97224" lon="2.77636">
        <ele>136.64</ele>
        <time>2015-10-04T08:21:36Z</time>
      </trkpt>
      <trkpt lat="42.97209" lon="2.77642">
        <ele>137.13</ele>
        <time>2015-10-04T08:21:37Z</time>
      </trkpt>
      <trkpt lat="42.97166" lon="2.7766">
        <ele>137.61</ele>
        <time>2015-10-04T08:21:40Z</time>
      </trkpt>
      <trkpt lat="42.97151" lon="2.77659">
        <ele>138.09</ele>
        <time>2015-10-04T08:21:41Z</time>
      </trkpt>
      <trkpt lat="42.97137" lon="2.77655">
        <ele>138.09</ele>
        <time>2015-10-04T08:21:42Z</time>
      </trkpt>
      <trkpt lat="42.97124" lon="2.77647">
        <ele>138.09</ele>
        <time>2015-10-04T08:21:43Z</time>
      </trkpt>
      <trkpt lat="42.97112" lon="2.77636">
        <ele>138.09</ele>
        <time>2015-10-04T08:21:44Z</time>
      </trkpt>
      <trkpt lat="42.97102" lon="2.77623">
        <ele>138.57</ele>
        <time>2015-10-04T08:21:45Z</time>
      </trkpt>
      <trkpt lat="42.97095" lon="2.77608">
        <ele>139.05</ele>
        <time>2015-10-04T08:21:46Z</time>
      </trkpt>
      <trkpt lat="42.9709" lon="2.77593">
        <ele>139.53</ele>
        <time>2015-10-04T08:21:47Z</time>
      </trkpt>
      <trkpt lat="42.97085" lon="2.77578">
        <ele>139.53</ele>
        <time>2015-10-04T08:21:48Z</time>
      </trkpt>
      <trkpt lat="42.97077" lon="2.77564">
        <ele>139.53</ele>
        <time>2015-10-04T08:21:49Z</time>
      </trkpt>
      <trkpt lat="42.97066" lon="2.77553">
        <ele>139.53</ele>
        <time>2015-10-04T08:21:50Z</time>
      </trkpt>
      <trkpt lat="42.97054" lon="2.77545">
        <ele>140.01</ele>
        <time>2015-10-04T08:21:51Z</time>
      </trkpt>
      <trkpt lat="42.97041" lon="2.77538">
        <ele>140.01</ele>
        <time>2015-10-04T08:21:52Z</time>
      </trkpt>
      <trkpt lat="42.97028" lon="2.77532">
        <ele>140.49</ele>
        <time>2015-10-04T08:21:53Z</time>
      </trkpt>
      <trkpt lat="42.97015" lon="2.77529">
        <ele>140.49</ele>
        <time>2015-10-04T08:21:54Z</time>
      </trkpt>
      <trkpt lat="42.97" lon="2.77531">
        <ele>140.97</ele>
        <time>2015-10-04T08:21:55Z</time>
      </trkpt>
      <trkpt lat="42.96986" lon="2.77537">
        <ele>141.45</ele>
        <time>2015-10-04T08:21:56Z</time>
      </trkpt>
      <trkpt lat="42.96973" lon="2.77546">
        <ele>141.45</ele>
        <time>2015-10-04T08:21:57Z</time>
      </trkpt>
      <trkpt lat="42.96959" lon="2.77557">
        <ele>141.93</ele>
        <time>2015-10-04T08:21:58Z</time>
      </trkpt>
      <trkpt lat="42.96946" lon="2.77569">
        <ele>141.93</ele>
        <time>2015-10-04T08:21:59Z</time>
      </trkpt>
      <trkpt lat="42.96842" lon="2.77656">
        <ele>143.85</ele>
        <time>2015-10-04T08:22:05Z</time>
      </trkpt>
      <trkpt lat="42.96795" lon="2.77691">
        <ele>144.82</ele>
        <time>2015-10-04T08:22:08Z</time>
      </trkpt>
      <trkpt lat="42.96779" lon="2.77697">
        <ele>144.82</ele>
        <time>2015-10-04T08:22:09Z</time>
      </trkpt>
      <trkpt lat="42.96763" lon="2.777">
        <ele>144.82</ele>
        <time>2015-10-04T08:22:10Z</time>
      </trkpt>
      <trkpt lat="42.96747" lon="2.77698">
        <ele>145.3</ele>
        <time>2015-10-04T08:22:11Z</time>
      </trkpt>
      <trkpt lat="42.96731" lon="2.7769">
        <ele>145.3</ele>
        <time>2015-10-04T08:22:12Z</time>
      </trkpt>
      <trkpt lat="42.96717" lon="2.77676">
        <ele>145.3</ele>
        <time>2015-10-04T08:22:13Z</time>
      </trkpt>
      <trkpt lat="42.96705" lon="2.77657">
        <ele>145.3</ele>
        <time>2015-10-04T08:22:14Z</time>
      </trkpt>
      <trkpt lat="42.96695" lon="2.77636">
        <ele>145.78</ele>
        <time>2015-10-04T08:22:15Z</time>
      </trkpt>
      <trkpt lat="42.96685" lon="2.77615">
        <ele>145.78</ele>
        <time>2015-10-04T08:22:16Z</time>
      </trkpt>
      <trkpt lat="42.96675" lon="2.77594">
        <ele>145.78</ele>
        <time>2015-10-04T08:22:17Z</time>
      </trkpt>
      <trkpt lat="42.96567" lon="2.77386">
        <ele>148.66</ele>
        <time>2015-10-04T08:22:26Z</time>
      </trkpt>
      <trkpt lat="42.96444" lon="2.77132">
        <ele>150.58</ele>
        <time>2015-10-04T08:22:36Z</time>
      </trkpt>
      <trkpt lat="42.96373" lon="2.76955">
        <ele>152.51</ele>
        <time>2015-10-04T08:22:43Z</time>
      </trkpt>
      <trkpt lat="42.96359" lon="2.7694">
        <ele>152.51</ele>
        <time>2015-10-04T08:22:44Z</time>
      </trkpt>
      <trkpt lat="42.96344" lon="2.76931">
        <ele>152.51</ele>
        <time>2015-10-04T08:22:45Z</time>
      </trkpt>
      <trkpt lat="42.96323" lon="2.76929">
        <ele>152.99</ele>
        <time>2015-10-04T08:22:46Z</time>
      </trkpt>
      <trkpt lat="42.96302" lon="2.76927">
        <ele>153.95</ele>
        <time>2015-10-04T08:22:47Z</time>
      </trkpt>
      <trkpt lat="42.96283" lon="2.76922">
        <ele>154.43</ele>
        <time>2015-10-04T08:22:48Z</time>
      </trkpt>
      <trkpt lat="42.96265" lon="2.76913">
        <ele>154.43</ele>
        <time>2015-10-04T08:22:49Z</time>
      </trkpt>
      <trkpt lat="42.9625" lon="2.76898">
        <ele>154.43</ele>
        <time>2015-10-04T08:22:50Z</time>
      </trkpt>
      <trkpt lat="42.96235" lon="2.7688">
        <ele>153.95</ele>
        <time>2015-10-04T08:22:51Z</time>
      </trkpt>
      <trkpt lat="42.96222" lon="2.76859">
        <ele>153.95</ele>
        <time>2015-10-04T08:22:52Z</time>
      </trkpt>
      <trkpt lat="42.96208" lon="2.76837">
        <ele>153.95</ele>
        <time>2015-10-04T08:22:53Z</time>
      </trkpt>
      <trkpt lat="42.96196" lon="2.76813">
        <ele>153.95</ele>
        <time>2015-10-04T08:22:54Z</time>
      </trkpt>
      <trkpt lat="42.96185" lon="2.76788">
        <ele>154.43</ele>
        <time>2015-10-04T08:22:55Z</time>
      </trkpt>
      <trkpt lat="42.96176" lon="2.76761">
        <ele>156.35</ele>
        <time>2015-10-04T08:22:56Z</time>
      </trkpt>
      <trkpt lat="42.96135" lon="2.76677">
        <ele>157.79</ele>
        <time>2015-10-04T08:23:00Z</time>
      </trkpt>
      <trkpt lat="42.96121" lon="2.76661">
        <ele>158.27</ele>
        <time>2015-10-04T08:23:01Z</time>
      </trkpt>
      <trkpt lat="42.96088" lon="2.76629">
        <ele>158.27</ele>
        <time>2015-10-04T08:23:03Z</time>
      </trkpt>
      <trkpt lat="42.96073" lon="2.76608">
        <ele>158.27</ele>
        <time>2015-10-04T08:23:04Z</time>
      </trkpt>
      <trkpt lat="42.96008" lon="2.7652">
        <ele>160.2</ele>
        <time>2015-10-04T08:23:09Z</time>
      </trkpt>
      <trkpt lat="42.95995" lon="2.7651">
        <ele>160.68</ele>
        <time>2015-10-04T08:23:10Z</time>
      </trkpt>
      <trkpt lat="42.95981" lon="2.76506">
        <ele>160.68</ele>
        <time>2015-10-04T08:23:11Z</time>
      </trkpt>
      <trkpt lat="42.95965" lon="2.76504">
        <ele>161.16</ele>
        <time>2015-10-04T08:23:12Z</time>
      </trkpt>
      <trkpt lat="42.95948" lon="2.76503">
        <ele>161.16</ele>
        <time>2015-10-04T08:23:13Z</time>
      </trkpt>
      <trkpt lat="42.95931" lon="2.76503">
        <ele>161.16</ele>
        <time>2015-10-04T08:23:14Z</time>
      </trkpt>
      <trkpt lat="42.95876" lon="2.76511">
        <ele>162.12</ele>
        <time>2015-10-04T08:23:17Z</time>
      </trkpt>
      <trkpt lat="42.95858" lon="2.76517">
        <ele>162.6</ele>
        <time>2015-10-04T08:23:18Z</time>
      </trkpt>
      <trkpt lat="42.95691" lon="2.76589">
        <ele>166.45</ele>
        <time>2015-10-04T08:23:27Z</time>
      </trkpt>
      <trkpt lat="42.95652" lon="2.76608">
        <ele>167.41</ele>
        <time>2015-10-04T08:23:29Z</time>
      </trkpt>
      <trkpt lat="42.95631" lon="2.76611">
        <ele>167.41</ele>
        <time>2015-10-04T08:23:30Z</time>
      </trkpt>
      <trkpt lat="42.9561" lon="2.76607">
        <ele>167.41</ele>
        <time>2015-10-04T08:23:31Z</time>
      </trkpt>
      <trkpt lat="42.95591" lon="2.766">
        <ele>167.89</ele>
        <time>2015-10-04T08:23:32Z</time>
      </trkpt>
      <trkpt lat="42.95572" lon="2.7659">
        <ele>168.37</ele>
        <time>2015-10-04T08:23:33Z</time>
      </trkpt>
      <trkpt lat="42.95554" lon="2.76575">
        <ele>168.85</ele>
        <time>2015-10-04T08:23:34Z</time>
      </trkpt>
      <trkpt lat="42.95535" lon="2.7656">
        <ele>169.33</ele>
        <time>2015-10-04T08:23:35Z</time>
      </trkpt>
      <trkpt lat="42.95389" lon="2.76428">
        <ele>170.77</ele>
        <time>2015-10-04T08:23:43Z</time>
      </trkpt>
      <trkpt lat="42.95337" lon="2.76361">
        <ele>172.21</ele>
        <time>2015-10-04T08:23:47Z</time>
      </trkpt>
      <trkpt lat="42.95322" lon="2.76351">
        <ele>172.21</ele>
        <time>2015-10-04T08:23:48Z</time>
      </trkpt>
      <trkpt lat="42.95305" lon="2.76343">
        <ele>172.69</ele>
        <time>2015-10-04T08:23:49Z</time>
      </trkpt>
      <trkpt lat="42.95286" lon="2.76339">
        <ele>172.69</ele>
        <time>2015-10-04T08:23:50Z</time>
      </trkpt>
      <trkpt lat="42.95267" lon="2.76335">
        <ele>173.17</ele>
        <time>2015-10-04T08:23:51Z</time>
      </trkpt>
      <trkpt lat="42.95249" lon="2.76332">
        <ele>173.17</ele>
        <time>2015-10-04T08:23:52Z</time>
      </trkpt>
      <trkpt lat="42.95216" lon="2.76322">
        <ele>173.66</ele>
        <time>2015-10-04T08:23:54Z</time>
      </trkpt>
      <trkpt lat="42.95201" lon="2.76314">
        <ele>174.14</ele>
        <time>2015-10-04T08:23:55Z</time>
      </trkpt>
      <trkpt lat="42.95187" lon="2.76303">
        <ele>174.14</ele>
        <time>2015-10-04T08:23:56Z</time>
      </trkpt>
      <trkpt lat="42.95174" lon="2.76287">
        <ele>174.62</ele>
        <time>2015-10-04T08:23:57Z</time>
      </trkpt>
      <trkpt lat="42.95163" lon="2.76269">
        <ele>174.62</ele>
        <time>2015-10-04T08:23:58Z</time>
      </trkpt>
      <trkpt lat="42.95153" lon="2.76249">
        <ele>175.1</ele>
        <time>2015-10-04T08:23:59Z</time>
      </trkpt>
      <trkpt lat="42.95142" lon="2.76228">
        <ele>175.58</ele>
        <time>2015-10-04T08:24:00Z</time>
      </trkpt>
      <trkpt lat="42.95133" lon="2.76206">
        <ele>176.06</ele>
        <time>2015-10-04T08:24:01Z</time>
      </trkpt>
      <trkpt lat="42.95125" lon="2.76181">
        <ele>176.54</ele>
        <time>2015-10-04T08:24:02Z</time>
      </trkpt>
      <trkpt lat="42.95118" lon="2.76154">
        <ele>177.02</ele>
        <time>2015-10-04T08:24:03Z</time>
      </trkpt>
      <trkpt lat="42.95113" lon="2.76127">
        <ele>177.02</ele>
        <time>2015-10-04T08:24:04Z</time>
      </trkpt>
      <trkpt lat="42.95109" lon="2.76101">
        <ele>177.5</ele>
        <time>2015-10-04T08:24:05Z</time>
      </trkpt>
      <trkpt lat="42.951" lon="2.7603">
        <ele>178.46</ele>
        <time>2015-10-04T08:24:08Z</time>
      </trkpt>
      <trkpt lat="42.95094" lon="2.76008">
        <ele>178.94</ele>
        <time>2015-10-04T08:24:09Z</time>
      </trkpt>
      <trkpt lat="42.95085" lon="2.75988">
        <ele>178.94</ele>
        <time>2015-10-04T08:24:10Z</time>
      </trkpt>
      <trkpt lat="42.95071" lon="2.75971">
        <ele>179.42</ele>
        <time>2015-10-04T08:24:11Z</time>
      </trkpt>
      <trkpt lat="42.95056" lon="2.75958">
        <ele>179.9</ele>
        <time>2015-10-04T08:24:12Z</time>
      </trkpt>
      <trkpt lat="42.95037" lon="2.75951">
        <ele>180.38</ele>
        <time>2015-10-04T08:24:13Z</time>
      </trkpt>
      <trkpt lat="42.95019" lon="2.75949">
        <ele>180.87</ele>
        <time>2015-10-04T08:24:14Z</time>
      </trkpt>
      <trkpt lat="42.95001" lon="2.75947">
        <ele>181.35</ele>
        <time>2015-10-04T08:24:15Z</time>
      </trkpt>
      <trkpt lat="42.94983" lon="2.75944">
        <ele>181.83</ele>
        <time>2015-10-04T08:24:16Z</time>
      </trkpt>
      <trkpt lat="42.94966" lon="2.75938">
        <ele>181.83</ele>
        <time>2015-10-04T08:24:17Z</time>
      </trkpt>
      <trkpt lat="42.9495" lon="2.75925">
        <ele>182.31</ele>
        <time>2015-10-04T08:24:18Z</time>
      </trkpt>
      <trkpt lat="42.94937" lon="2.75909">
        <ele>183.27</ele>
        <time>2015-10-04T08:24:19Z</time>
      </trkpt>
      <trkpt lat="42.94925" lon="2.75889">
        <ele>183.75</ele>
        <time>2015-10-04T08:24:20Z</time>
      </trkpt>
      <trkpt lat="42.94913" lon="2.75869">
        <ele>184.23</ele>
        <time>2015-10-04T08:24:21Z</time>
      </trkpt>
      <trkpt lat="42.9489" lon="2.7583">
        <ele>185.67</ele>
        <time>2015-10-04T08:24:23Z</time>
      </trkpt>
      <trkpt lat="42.94875" lon="2.75815">
        <ele>186.15</ele>
        <time>2015-10-04T08:24:24Z</time>
      </trkpt>
      <trkpt lat="42.94856" lon="2.75808">
        <ele>186.63</ele>
        <time>2015-10-04T08:24:25Z</time>
      </trkpt>
      <trkpt lat="42.94837" lon="2.75805">
        <ele>186.63</ele>
        <time>2015-10-04T08:24:26Z</time>
      </trkpt>
      <trkpt lat="42.94818" lon="2.75807">
        <ele>187.11</ele>
        <time>2015-10-04T08:24:27Z</time>
      </trkpt>
      <trkpt lat="42.94799" lon="2.7581">
        <ele>188.08</ele>
        <time>2015-10-04T08:24:28Z</time>
      </trkpt>
      <trkpt lat="42.9478" lon="2.75816">
        <ele>188.56</ele>
        <time>2015-10-04T08:24:29Z</time>
      </trkpt>
      <trkpt lat="42.94761" lon="2.75823">
        <ele>188.56</ele>
        <time>2015-10-04T08:24:30Z</time>
      </trkpt>
      <trkpt lat="42.94742" lon="2.75831">
        <ele>189.04</ele>
        <time>2015-10-04T08:24:31Z</time>
      </trkpt>
      <trkpt lat="42.9467" lon="2.75865">
        <ele>191.92</ele>
        <time>2015-10-04T08:24:35Z</time>
      </trkpt>
      <trkpt lat="42.94653" lon="2.75868">
        <ele>191.92</ele>
        <time>2015-10-04T08:24:36Z</time>
      </trkpt>
      <trkpt lat="42.94635" lon="2.75863">
        <ele>192.4</ele>
        <time>2015-10-04T08:24:37Z</time>
      </trkpt>
      <trkpt lat="42.94617" lon="2.75852">
        <ele>192.4</ele>
        <time>2015-10-04T08:24:38Z</time>
      </trkpt>
      <trkpt lat="42.94599" lon="2.75836">
        <ele>193.84</ele>
        <time>2015-10-04T08:24:39Z</time>
      </trkpt>
      <trkpt lat="42.94581" lon="2.75825">
        <ele>194.32</ele>
        <time>2015-10-04T08:24:40Z</time>
      </trkpt>
      <trkpt lat="42.94562" lon="2.75815">
        <ele>194.32</ele>
        <time>2015-10-04T08:24:41Z</time>
      </trkpt>
      <trkpt lat="42.94543" lon="2.75805">
        <ele>194.32</ele>
        <time>2015-10-04T08:24:42Z</time>
      </trkpt>
      <trkpt lat="42.94526" lon="2.75792">
        <ele>194.8</ele>
        <time>2015-10-04T08:24:43Z</time>
      </trkpt>
      <trkpt lat="42.9451" lon="2.75778">
        <ele>194.32</ele>
        <time>2015-10-04T08:24:44Z</time>
      </trkpt>
      <trkpt lat="42.94494" lon="2.75765">
        <ele>194.8</ele>
        <time>2015-10-04T08:24:45Z</time>
      </trkpt>
      <trkpt lat="42.94476" lon="2.75758">
        <ele>194.8</ele>
        <time>2015-10-04T08:24:46Z</time>
      </trkpt>
      <trkpt lat="42.94456" lon="2.75753">
        <ele>194.8</ele>
        <time>2015-10-04T08:24:47Z</time>
      </trkpt>
      <trkpt lat="42.94347" lon="2.75709">
        <ele>195.77</ele>
        <time>2015-10-04T08:24:53Z</time>
      </trkpt>
      <trkpt lat="42.94329" lon="2.75708">
        <ele>196.25</ele>
        <time>2015-10-04T08:24:54Z</time>
      </trkpt>
      <trkpt lat="42.9431" lon="2.75713">
        <ele>196.73</ele>
        <time>2015-10-04T08:24:55Z</time>
      </trkpt>
      <trkpt lat="42.9429" lon="2.75718">
        <ele>196.73</ele>
        <time>2015-10-04T08:24:56Z</time>
      </trkpt>
      <trkpt lat="42.94269" lon="2.75724">
        <ele>197.21</ele>
        <time>2015-10-04T08:24:57Z</time>
      </trkpt>
      <trkpt lat="42.94029" lon="2.75796">
        <ele>202.49</ele>
        <time>2015-10-04T08:25:08Z</time>
      </trkpt>
      <trkpt lat="42.93886" lon="2.75875">
        <ele>208.26</ele>
        <time>2015-10-04T08:25:15Z</time>
      </trkpt>
      <trkpt lat="42.93869" lon="2.75884">
        <ele>208.74</ele>
        <time>2015-10-04T08:25:16Z</time>
      </trkpt>
      <trkpt lat="42.93851" lon="2.75887">
        <ele>209.7</ele>
        <time>2015-10-04T08:25:17Z</time>
      </trkpt>
      <trkpt lat="42.93833" lon="2.75882">
        <ele>210.19</ele>
        <time>2015-10-04T08:25:18Z</time>
      </trkpt>
      <trkpt lat="42.93814" lon="2.75873">
        <ele>211.63</ele>
        <time>2015-10-04T08:25:19Z</time>
      </trkpt>
      <trkpt lat="42.93794" lon="2.75866">
        <ele>212.59</ele>
        <time>2015-10-04T08:25:20Z</time>
      </trkpt>
      <trkpt lat="42.93772" lon="2.75861">
        <ele>213.55</ele>
        <time>2015-10-04T08:25:21Z</time>
      </trkpt>
      <trkpt lat="42.93728" lon="2.75844">
        <ele>215.47</ele>
        <time>2015-10-04T08:25:23Z</time>
      </trkpt>
      <trkpt lat="42.93707" lon="2.75831">
        <ele>216.43</ele>
        <time>2015-10-04T08:25:24Z</time>
      </trkpt>
      <trkpt lat="42.93632" lon="2.75771">
        <ele>221.72</ele>
        <time>2015-10-04T08:25:28Z</time>
      </trkpt>
      <trkpt lat="42.93615" lon="2.75753">
        <ele>223.64</ele>
        <time>2015-10-04T08:25:29Z</time>
      </trkpt>
      <trkpt lat="42.936" lon="2.75732">
        <ele>226.05</ele>
        <time>2015-10-04T08:25:30Z</time>
      </trkpt>
      <trkpt lat="42.93519" lon="2.75633">
        <ele>233.74</ele>
        <time>2015-10-04T08:25:35Z</time>
      </trkpt>
      <trkpt lat="42.93505" lon="2.75611">
        <ele>235.18</ele>
        <time>2015-10-04T08:25:36Z</time>
      </trkpt>
      <trkpt lat="42.93478" lon="2.75572">
        <ele>237.58</ele>
        <time>2015-10-04T08:25:38Z</time>
      </trkpt>
      <trkpt lat="42.93463" lon="2.75556">
        <ele>239.02</ele>
        <time>2015-10-04T08:25:39Z</time>
      </trkpt>
      <trkpt lat="42.93445" lon="2.75544">
        <ele>239.99</ele>
        <time>2015-10-04T08:25:40Z</time>
      </trkpt>
      <trkpt lat="42.93426" lon="2.75535">
        <ele>240.95</ele>
        <time>2015-10-04T08:25:41Z</time>
      </trkpt>
      <trkpt lat="42.93406" lon="2.75528">
        <ele>241.91</ele>
        <time>2015-10-04T08:25:42Z</time>
      </trkpt>
      <trkpt lat="42.93366" lon="2.75517">
        <ele>243.35</ele>
        <time>2015-10-04T08:25:44Z</time>
      </trkpt>
      <trkpt lat="42.93346" lon="2.75519">
        <ele>244.31</ele>
        <time>2015-10-04T08:25:45Z</time>
      </trkpt>
      <trkpt lat="42.93311" lon="2.75516">
        <ele>245.75</ele>
        <time>2015-10-04T08:25:47Z</time>
      </trkpt>
      <trkpt lat="42.93296" lon="2.75505">
        <ele>246.23</ele>
        <time>2015-10-04T08:25:48Z</time>
      </trkpt>
      <trkpt lat="42.93282" lon="2.7549">
        <ele>247.2</ele>
        <time>2015-10-04T08:25:49Z</time>
      </trkpt>
      <trkpt lat="42.93271" lon="2.75472">
        <ele>248.16</ele>
        <time>2015-10-04T08:25:50Z</time>
      </trkpt>
      <trkpt lat="42.9326" lon="2.75453">
        <ele>249.12</ele>
        <time>2015-10-04T08:25:51Z</time>
      </trkpt>
      <trkpt lat="42.93248" lon="2.75437">
        <ele>250.08</ele>
        <time>2015-10-04T08:25:52Z</time>
      </trkpt>
      <trkpt lat="42.93234" lon="2.75424">
        <ele>251.04</ele>
        <time>2015-10-04T08:25:53Z</time>
      </trkpt>
      <trkpt lat="42.93219" lon="2.75415">
        <ele>252</ele>
        <time>2015-10-04T08:25:54Z</time>
      </trkpt>
      <trkpt lat="42.93202" lon="2.75409">
        <ele>252.48</ele>
        <time>2015-10-04T08:25:55Z</time>
      </trkpt>
      <trkpt lat="42.93184" lon="2.75406">
        <ele>252.96</ele>
        <time>2015-10-04T08:25:56Z</time>
      </trkpt>
      <trkpt lat="42.93167" lon="2.75405">
        <ele>252.96</ele>
        <time>2015-10-04T08:25:57Z</time>
      </trkpt>
      <trkpt lat="42.9315" lon="2.75409">
        <ele>253.44</ele>
        <time>2015-10-04T08:25:58Z</time>
      </trkpt>
      <trkpt lat="42.93133" lon="2.75416">
        <ele>253.93</ele>
        <time>2015-10-04T08:25:59Z</time>
      </trkpt>
      <trkpt lat="42.93116" lon="2.75426">
        <ele>253.44</ele>
        <time>2015-10-04T08:26:00Z</time>
      </trkpt>
      <trkpt lat="42.93099" lon="2.75439">
        <ele>253.44</ele>
        <time>2015-10-04T08:26:01Z</time>
      </trkpt>
      <trkpt lat="42.93083" lon="2.75452">
        <ele>252.96</ele>
        <time>2015-10-04T08:26:02Z</time>
      </trkpt>
      <trkpt lat="42.9305" lon="2.75473">
        <ele>251.52</ele>
        <time>2015-10-04T08:26:04Z</time>
      </trkpt>
      <trkpt lat="42.93033" lon="2.75478">
        <ele>250.56</ele>
        <time>2015-10-04T08:26:05Z</time>
      </trkpt>
      <trkpt lat="42.93015" lon="2.75477">
        <ele>250.08</ele>
        <time>2015-10-04T08:26:06Z</time>
      </trkpt>
      <trkpt lat="42.92997" lon="2.75474">
        <ele>249.12</ele>
        <time>2015-10-04T08:26:07Z</time>
      </trkpt>
      <trkpt lat="42.92977" lon="2.75467">
        <ele>248.64</ele>
        <time>2015-10-04T08:26:08Z</time>
      </trkpt>
      <trkpt lat="42.92956" lon="2.75458">
        <ele>247.2</ele>
        <time>2015-10-04T08:26:09Z</time>
      </trkpt>
      <trkpt lat="42.92937" lon="2.75449">
        <ele>246.23</ele>
        <time>2015-10-04T08:26:10Z</time>
      </trkpt>
      <trkpt lat="42.92918" lon="2.75439">
        <ele>244.79</ele>
        <time>2015-10-04T08:26:11Z</time>
      </trkpt>
      <trkpt lat="42.92901" lon="2.75427">
        <ele>243.83</ele>
        <time>2015-10-04T08:26:12Z</time>
      </trkpt>
      <trkpt lat="42.92886" lon="2.75414">
        <ele>242.39</ele>
        <time>2015-10-04T08:26:13Z</time>
      </trkpt>
      <trkpt lat="42.92874" lon="2.75396">
        <ele>240.95</ele>
        <time>2015-10-04T08:26:14Z</time>
      </trkpt>
      <trkpt lat="42.92864" lon="2.75375">
        <ele>239.99</ele>
        <time>2015-10-04T08:26:15Z</time>
      </trkpt>
      <trkpt lat="42.92854" lon="2.75354">
        <ele>239.02</ele>
        <time>2015-10-04T08:26:16Z</time>
      </trkpt>
      <trkpt lat="42.92843" lon="2.75332">
        <ele>238.54</ele>
        <time>2015-10-04T08:26:17Z</time>
      </trkpt>
      <trkpt lat="42.92819" lon="2.75287">
        <ele>237.1</ele>
        <time>2015-10-04T08:26:19Z</time>
      </trkpt>
      <trkpt lat="42.92805" lon="2.75266">
        <ele>235.66</ele>
        <time>2015-10-04T08:26:20Z</time>
      </trkpt>
      <trkpt lat="42.92788" lon="2.75247">
        <ele>235.18</ele>
        <time>2015-10-04T08:26:21Z</time>
      </trkpt>
      <trkpt lat="42.92715" lon="2.75185">
        <ele>231.81</ele>
        <time>2015-10-04T08:26:25Z</time>
      </trkpt>
      <trkpt lat="42.92695" lon="2.75175">
        <ele>231.33</ele>
        <time>2015-10-04T08:26:26Z</time>
      </trkpt>
      <trkpt lat="42.92673" lon="2.75168">
        <ele>230.37</ele>
        <time>2015-10-04T08:26:27Z</time>
      </trkpt>
      <trkpt lat="42.92509" lon="2.75144">
        <ele>226.05</ele>
        <time>2015-10-04T08:26:34Z</time>
      </trkpt>
      <trkpt lat="42.92486" lon="2.75137">
        <ele>225.09</ele>
        <time>2015-10-04T08:26:35Z</time>
      </trkpt>
      <trkpt lat="42.92464" lon="2.75128">
        <ele>224.61</ele>
        <time>2015-10-04T08:26:36Z</time>
      </trkpt>
      <trkpt lat="42.92315" lon="2.75046">
        <ele>221.24</ele>
        <time>2015-10-04T08:26:42Z</time>
      </trkpt>
      <trkpt lat="42.92265" lon="2.75025">
        <ele>219.8</ele>
        <time>2015-10-04T08:26:44Z</time>
      </trkpt>
      <trkpt lat="42.9224" lon="2.75023">
        <ele>219.32</ele>
        <time>2015-10-04T08:26:45Z</time>
      </trkpt>
      <trkpt lat="42.92217" lon="2.75025">
        <ele>218.84</ele>
        <time>2015-10-04T08:26:46Z</time>
      </trkpt>
      <trkpt lat="42.92153" lon="2.75029">
        <ele>216.91</ele>
        <time>2015-10-04T08:26:49Z</time>
      </trkpt>
      <trkpt lat="42.92134" lon="2.75025">
        <ele>216.43</ele>
        <time>2015-10-04T08:26:50Z</time>
      </trkpt>
      <trkpt lat="42.92117" lon="2.75018">
        <ele>215.47</ele>
        <time>2015-10-04T08:26:51Z</time>
      </trkpt>
      <trkpt lat="42.921" lon="2.75006">
        <ele>214.99</ele>
        <time>2015-10-04T08:26:52Z</time>
      </trkpt>
      <trkpt lat="42.92084" lon="2.74992">
        <ele>214.99</ele>
        <time>2015-10-04T08:26:53Z</time>
      </trkpt>
      <trkpt lat="42.92067" lon="2.74975">
        <ele>214.99</ele>
        <time>2015-10-04T08:26:54Z</time>
      </trkpt>
      <trkpt lat="42.91956" lon="2.74889">
        <ele>212.11</ele>
        <time>2015-10-04T08:27:00Z</time>
      </trkpt>
      <trkpt lat="42.91905" lon="2.74837">
        <ele>210.67</ele>
        <time>2015-10-04T08:27:03Z</time>
      </trkpt>
      <trkpt lat="42.91886" lon="2.74823">
        <ele>210.19</ele>
        <time>2015-10-04T08:27:04Z</time>
      </trkpt>
      <trkpt lat="42.91866" lon="2.74813">
        <ele>209.7</ele>
        <time>2015-10-04T08:27:05Z</time>
      </trkpt>
      <trkpt lat="42.91844" lon="2.74804">
        <ele>209.22</ele>
        <time>2015-10-04T08:27:06Z</time>
      </trkpt>
      <trkpt lat="42.91822" lon="2.74796">
        <ele>208.74</ele>
        <time>2015-10-04T08:27:07Z</time>
      </trkpt>
      <trkpt lat="42.91733" lon="2.7476">
        <ele>206.82</ele>
        <time>2015-10-04T08:27:11Z</time>
      </trkpt>
      <trkpt lat="42.91712" lon="2.74746">
        <ele>206.34</ele>
        <time>2015-10-04T08:27:12Z</time>
      </trkpt>
      <trkpt lat="42.91611" lon="2.74667">
        <ele>203.94</ele>
        <time>2015-10-04T08:27:17Z</time>
      </trkpt>
      <trkpt lat="42.91591" lon="2.74658">
        <ele>203.94</ele>
        <time>2015-10-04T08:27:18Z</time>
      </trkpt>
      <trkpt lat="42.91569" lon="2.74655">
        <ele>203.46</ele>
        <time>2015-10-04T08:27:19Z</time>
      </trkpt>
      <trkpt lat="42.91546" lon="2.74655">
        <ele>202.98</ele>
        <time>2015-10-04T08:27:20Z</time>
      </trkpt>
      <trkpt lat="42.91522" lon="2.74657">
        <ele>202.49</ele>
        <time>2015-10-04T08:27:21Z</time>
      </trkpt>
      <trkpt lat="42.91497" lon="2.7466">
        <ele>202.01</ele>
        <time>2015-10-04T08:27:22Z</time>
      </trkpt>
      <trkpt lat="42.91278" lon="2.74683">
        <ele>198.65</ele>
        <time>2015-10-04T08:27:30Z</time>
      </trkpt>
      <trkpt lat="42.9115" lon="2.74663">
        <ele>195.77</ele>
        <time>2015-10-04T08:27:35Z</time>
      </trkpt>
      <trkpt lat="42.9113" lon="2.74651">
        <ele>195.28</ele>
        <time>2015-10-04T08:27:36Z</time>
      </trkpt>
      <trkpt lat="42.91109" lon="2.74636">
        <ele>194.8</ele>
        <time>2015-10-04T08:27:37Z</time>
      </trkpt>
      <trkpt lat="42.90931" lon="2.74547">
        <ele>191.92</ele>
        <time>2015-10-04T08:27:45Z</time>
      </trkpt>
      <trkpt lat="42.90908" lon="2.74548">
        <ele>191.44</ele>
        <time>2015-10-04T08:27:46Z</time>
      </trkpt>
      <trkpt lat="42.90884" lon="2.74551">
        <ele>190.96</ele>
        <time>2015-10-04T08:27:47Z</time>
      </trkpt>
      <trkpt lat="42.90673" lon="2.74554">
        <ele>187.59</ele>
        <time>2015-10-04T08:27:56Z</time>
      </trkpt>
      <trkpt lat="42.90653" lon="2.74548">
        <ele>187.11</ele>
        <time>2015-10-04T08:27:57Z</time>
      </trkpt>
      <trkpt lat="42.90633" lon="2.74539">
        <ele>186.63</ele>
        <time>2015-10-04T08:27:58Z</time>
      </trkpt>
      <trkpt lat="42.90613" lon="2.74525">
        <ele>186.15</ele>
        <time>2015-10-04T08:27:59Z</time>
      </trkpt>
      <trkpt lat="42.90594" lon="2.74508">
        <ele>185.67</ele>
        <time>2015-10-04T08:28:00Z</time>
      </trkpt>
      <trkpt lat="42.90575" lon="2.74488">
        <ele>185.19</ele>
        <time>2015-10-04T08:28:01Z</time>
      </trkpt>
      <trkpt lat="42.90556" lon="2.74467">
        <ele>184.71</ele>
        <time>2015-10-04T08:28:02Z</time>
      </trkpt>
      <trkpt lat="42.90521" lon="2.74421">
        <ele>183.27</ele>
        <time>2015-10-04T08:28:04Z</time>
      </trkpt>
      <trkpt lat="42.90506" lon="2.74397">
        <ele>182.79</ele>
        <time>2015-10-04T08:28:05Z</time>
      </trkpt>
      <trkpt lat="42.90444" lon="2.74313">
        <ele>181.35</ele>
        <time>2015-10-04T08:28:09Z</time>
      </trkpt>
      <trkpt lat="42.90425" lon="2.74297">
        <ele>180.87</ele>
        <time>2015-10-04T08:28:10Z</time>
      </trkpt>
      <trkpt lat="42.90405" lon="2.74284">
        <ele>180.38</ele>
        <time>2015-10-04T08:28:11Z</time>
      </trkpt>
      <trkpt lat="42.90383" lon="2.74273">
        <ele>179.9</ele>
        <time>2015-10-04T08:28:12Z</time>
      </trkpt>
      <trkpt lat="42.9036" lon="2.74266">
        <ele>179.42</ele>
        <time>2015-10-04T08:28:13Z</time>
      </trkpt>
      <trkpt lat="42.90336" lon="2.7426">
        <ele>178.94</ele>
        <time>2015-10-04T08:28:14Z</time>
      </trkpt>
      <trkpt lat="42.90312" lon="2.74256">
        <ele>178.46</ele>
        <time>2015-10-04T08:28:15Z</time>
      </trkpt>
      <trkpt lat="42.90065" lon="2.7423">
        <ele>175.1</ele>
        <time>2015-10-04T08:28:24Z</time>
      </trkpt>
      <trkpt lat="42.89962" lon="2.74224">
        <ele>173.17</ele>
        <time>2015-10-04T08:28:28Z</time>
      </trkpt>
      <trkpt lat="42.8994" lon="2.74213">
        <ele>172.69</ele>
        <time>2015-10-04T08:28:29Z</time>
      </trkpt>
      <trkpt lat="42.89921" lon="2.74196">
        <ele>172.21</ele>
        <time>2015-10-04T08:28:30Z</time>
      </trkpt>
      <trkpt lat="42.89902" lon="2.74176">
        <ele>172.21</ele>
        <time>2015-10-04T08:28:31Z</time>
      </trkpt>
      <trkpt lat="42.89884" lon="2.74155">
        <ele>172.21</ele>
        <time>2015-10-04T08:28:32Z</time>
      </trkpt>
      <trkpt lat="42.89867" lon="2.74134">
        <ele>172.21</ele>
        <time>2015-10-04T08:28:33Z</time>
      </trkpt>
      <trkpt lat="42.89834" lon="2.74091">
        <ele>171.73</ele>
        <time>2015-10-04T08:28:35Z</time>
      </trkpt>
      <trkpt lat="42.89819" lon="2.74067">
        <ele>171.25</ele>
        <time>2015-10-04T08:28:36Z</time>
      </trkpt>
      <trkpt lat="42.89661" lon="2.73814">
        <ele>169.81</ele>
        <time>2015-10-04T08:28:46Z</time>
      </trkpt>
      <trkpt lat="42.89558" lon="2.73685">
        <ele>168.37</ele>
        <time>2015-10-04T08:28:53Z</time>
      </trkpt>
      <trkpt lat="42.89548" lon="2.73662">
        <ele>168.37</ele>
        <time>2015-10-04T08:28:54Z</time>
      </trkpt>
      <trkpt lat="42.89527" lon="2.73616">
        <ele>167.89</ele>
        <time>2015-10-04T08:28:56Z</time>
      </trkpt>
      <trkpt lat="42.89514" lon="2.73596">
        <ele>167.89</ele>
        <time>2015-10-04T08:28:57Z</time>
      </trkpt>
      <trkpt lat="42.89497" lon="2.7358">
        <ele>167.41</ele>
        <time>2015-10-04T08:28:58Z</time>
      </trkpt>
      <trkpt lat="42.89481" lon="2.73565">
        <ele>167.41</ele>
        <time>2015-10-04T08:28:59Z</time>
      </trkpt>
      <trkpt lat="42.89464" lon="2.73552">
        <ele>167.41</ele>
        <time>2015-10-04T08:29:00Z</time>
      </trkpt>
      <trkpt lat="42.89419" lon="2.73515">
        <ele>166.93</ele>
        <time>2015-10-04T08:29:03Z</time>
      </trkpt>
      <trkpt lat="42.89406" lon="2.73496">
        <ele>166.93</ele>
        <time>2015-10-04T08:29:04Z</time>
      </trkpt>
      <trkpt lat="42.89394" lon="2.73476">
        <ele>166.45</ele>
        <time>2015-10-04T08:29:05Z</time>
      </trkpt>
      <trkpt lat="42.89352" lon="2.73416">
        <ele>165</ele>
        <time>2015-10-04T08:29:08Z</time>
      </trkpt>
      <trkpt lat="42.89334" lon="2.73401">
        <ele>165</ele>
        <time>2015-10-04T08:29:09Z</time>
      </trkpt>
      <trkpt lat="42.89314" lon="2.73387">
        <ele>164.52</ele>
        <time>2015-10-04T08:29:10Z</time>
      </trkpt>
      <trkpt lat="42.89159" lon="2.73264">
        <ele>160.68</ele>
        <time>2015-10-04T08:29:18Z</time>
      </trkpt>
      <trkpt lat="42.89026" lon="2.73166">
        <ele>158.27</ele>
        <time>2015-10-04T08:29:25Z</time>
      </trkpt>
      <trkpt lat="42.88896" lon="2.73081">
        <ele>155.39</ele>
        <time>2015-10-04T08:29:32Z</time>
      </trkpt>
      <trkpt lat="42.88866" lon="2.73055">
        <ele>154.91</ele>
        <time>2015-10-04T08:29:34Z</time>
      </trkpt>
      <trkpt lat="42.88855" lon="2.73037">
        <ele>154.43</ele>
        <time>2015-10-04T08:29:35Z</time>
      </trkpt>
      <trkpt lat="42.88844" lon="2.73017">
        <ele>154.43</ele>
        <time>2015-10-04T08:29:36Z</time>
      </trkpt>
      <trkpt lat="42.88835" lon="2.72996">
        <ele>154.43</ele>
        <time>2015-10-04T08:29:37Z</time>
      </trkpt>
      <trkpt lat="42.88827" lon="2.72974">
        <ele>154.43</ele>
        <time>2015-10-04T08:29:38Z</time>
      </trkpt>
      <trkpt lat="42.8876" lon="2.72809">
        <ele>153.95</ele>
        <time>2015-10-04T08:29:47Z</time>
      </trkpt>
      <trkpt lat="42.88689" lon="2.72633">
        <ele>152.99</ele>
        <time>2015-10-04T08:29:58Z</time>
      </trkpt>
      <trkpt lat="42.88679" lon="2.72595">
        <ele>153.47</ele>
        <time>2015-10-04T08:30:03Z</time>
      </trkpt>
      <trkpt lat="42.8868" lon="2.72544">
        <ele>153.47</ele>
        <time>2015-10-04T08:30:13Z</time>
      </trkpt>
      <trkpt lat="42.88681" lon="2.72418">
        <ele>154.43</ele>
        <time>2015-10-04T08:30:22Z</time>
      </trkpt>
      <trkpt lat="42.88684" lon="2.72328">
        <ele>156.35</ele>
        <time>2015-10-04T08:30:30Z</time>
      </trkpt>
      <trkpt lat="42.88717" lon="2.72202">
        <ele>160.68</ele>
        <time>2015-10-04T08:30:40Z</time>
      </trkpt>
      <trkpt lat="42.88779" lon="2.72087">
        <ele>164.04</ele>
        <time>2015-10-04T08:30:50Z</time>
      </trkpt>
      <trkpt lat="42.88816" lon="2.72014">
        <ele>165.96</ele>
        <time>2015-10-04T08:30:59Z</time>
      </trkpt>
      <trkpt lat="42.88821" lon="2.71999">
        <ele>166.45</ele>
        <time>2015-10-04T08:31:01Z</time>
      </trkpt>
      <trkpt lat="42.88822" lon="2.71991">
        <ele>166.93</ele>
        <time>2015-10-04T08:31:02Z</time>
      </trkpt>
      <trkpt lat="42.8882" lon="2.71985">
        <ele>166.45</ele>
        <time>2015-10-04T08:31:03Z</time>
      </trkpt>
      <trkpt lat="42.88817" lon="2.71976">
        <ele>165.96</ele>
        <time>2015-10-04T08:31:04Z</time>
      </trkpt>
      <trkpt lat="42.88814" lon="2.71969">
        <ele>165.48</ele>
        <time>2015-10-04T08:31:05Z</time>
      </trkpt>
      <trkpt lat="42.88809" lon="2.71962">
        <ele>165.48</ele>
        <time>2015-10-04T08:31:06Z</time>
      </trkpt>
      <trkpt lat="42.88806" lon="2.71954">
        <ele>165</ele>
        <time>2015-10-04T08:31:07Z</time>
      </trkpt>
      <trkpt lat="42.88805" lon="2.71945">
        <ele>164.04</ele>
        <time>2015-10-04T08:31:08Z</time>
      </trkpt>
      <trkpt lat="42.88806" lon="2.71935">
        <ele>164.52</ele>
        <time>2015-10-04T08:31:09Z</time>
      </trkpt>
      <trkpt lat="42.88807" lon="2.71924">
        <ele>165</ele>
        <time>2015-10-04T08:31:10Z</time>
      </trkpt>
      <trkpt lat="42.8881" lon="2.71916">
        <ele>165</ele>
        <time>2015-10-04T08:31:11Z</time>
      </trkpt>
      <trkpt lat="42.88814" lon="2.71909">
        <ele>165</ele>
        <time>2015-10-04T08:31:12Z</time>
      </trkpt>
      <trkpt lat="42.88817" lon="2.71901">
        <ele>165</ele>
        <time>2015-10-04T08:31:13Z</time>
      </trkpt>
      <trkpt lat="42.88819" lon="2.71894">
        <ele>165</ele>
        <time>2015-10-04T08:31:14Z</time>
      </trkpt>
      <trkpt lat="42.88822" lon="2.71887">
        <ele>165.48</ele>
        <time>2015-10-04T08:31:15Z</time>
      </trkpt>
      <trkpt lat="42.8883" lon="2.71865">
        <ele>165</ele>
        <time>2015-10-04T08:31:19Z</time>
      </trkpt>
      <trkpt lat="42.88827" lon="2.71841">
        <ele>165</ele>
        <time>2015-10-04T08:31:25Z</time>
      </trkpt>
      <trkpt lat="42.88829" lon="2.71836">
        <ele>166.45</ele>
        <time>2015-10-04T08:31:26Z</time>
      </trkpt>
      <trkpt lat="42.88836" lon="2.71824">
        <ele>168.37</ele>
        <time>2015-10-04T08:31:29Z</time>
      </trkpt>
      <trkpt lat="42.88838" lon="2.71822">
        <ele>169.33</ele>
        <time>2015-10-04T08:31:30Z</time>
      </trkpt>
      <trkpt lat="42.8884" lon="2.71821">
        <ele>170.29</ele>
        <time>2015-10-04T08:31:31Z</time>
      </trkpt>
      <trkpt lat="42.88854" lon="2.71812">
        <ele>177.98</ele>
        <time>2015-10-04T08:31:41Z</time>
      </trkpt>
      <trkpt lat="42.88857" lon="2.71809">
        <ele>177.02</ele>
        <time>2015-10-04T08:31:42Z</time>
      </trkpt>
      <trkpt lat="42.8886" lon="2.71805">
        <ele>176.06</ele>
        <time>2015-10-04T08:31:43Z</time>
      </trkpt>
      <trkpt lat="42.88862" lon="2.71802">
        <ele>175.1</ele>
        <time>2015-10-04T08:31:44Z</time>
      </trkpt>
      <trkpt lat="42.88863" lon="2.71797">
        <ele>174.62</ele>
        <time>2015-10-04T08:31:45Z</time>
      </trkpt>
      <trkpt lat="42.88866" lon="2.71793">
        <ele>174.14</ele>
        <time>2015-10-04T08:31:46Z</time>
      </trkpt>
      <trkpt lat="42.8887" lon="2.71766">
        <ele>173.17</ele>
        <time>2015-10-04T08:31:52Z</time>
      </trkpt>
      <trkpt lat="42.88866" lon="2.71762">
        <ele>172.21</ele>
        <time>2015-10-04T08:31:53Z</time>
      </trkpt>
      <trkpt lat="42.8886" lon="2.71759">
        <ele>172.21</ele>
        <time>2015-10-04T08:31:54Z</time>
      </trkpt>
      <trkpt lat="42.88855" lon="2.71756">
        <ele>172.69</ele>
        <time>2015-10-04T08:31:55Z</time>
      </trkpt>
      <trkpt lat="42.8885" lon="2.71753">
        <ele>171.73</ele>
        <time>2015-10-04T08:31:56Z</time>
      </trkpt>
      <trkpt lat="42.88845" lon="2.71752">
        <ele>172.21</ele>
        <time>2015-10-04T08:31:57Z</time>
      </trkpt>
      <trkpt lat="42.88839" lon="2.7175">
        <ele>172.69</ele>
        <time>2015-10-04T08:31:58Z</time>
      </trkpt>
      <trkpt lat="42.88834" lon="2.7175">
        <ele>173.17</ele>
        <time>2015-10-04T08:31:59Z</time>
      </trkpt>
      <trkpt lat="42.88825" lon="2.7175">
        <ele>172.21</ele>
        <time>2015-10-04T08:32:01Z</time>
      </trkpt>
      <trkpt lat="42.8882" lon="2.7175">
        <ele>171.73</ele>
        <time>2015-10-04T08:32:02Z</time>
      </trkpt>
      <trkpt lat="42.88815" lon="2.7175">
        <ele>171.25</ele>
        <time>2015-10-04T08:32:03Z</time>
      </trkpt>
      <trkpt lat="42.88809" lon="2.71747">
        <ele>170.29</ele>
        <time>2015-10-04T08:32:04Z</time>
      </trkpt>
      <trkpt lat="42.88801" lon="2.71741">
        <ele>170.29</ele>
        <time>2015-10-04T08:32:05Z</time>
      </trkpt>
      <trkpt lat="42.88793" lon="2.71736">
        <ele>170.29</ele>
        <time>2015-10-04T08:32:06Z</time>
      </trkpt>
      <trkpt lat="42.88784" lon="2.71732">
        <ele>169.81</ele>
        <time>2015-10-04T08:32:07Z</time>
      </trkpt>
      <trkpt lat="42.88775" lon="2.71728">
        <ele>169.81</ele>
        <time>2015-10-04T08:32:08Z</time>
      </trkpt>
      <trkpt lat="42.88767" lon="2.71725">
        <ele>169.81</ele>
        <time>2015-10-04T08:32:09Z</time>
      </trkpt>
      <trkpt lat="42.88758" lon="2.71723">
        <ele>169.81</ele>
        <time>2015-10-04T08:32:10Z</time>
      </trkpt>
      <trkpt lat="42.88722" lon="2.71715">
        <ele>169.33</ele>
        <time>2015-10-04T08:32:14Z</time>
      </trkpt>
      <trkpt lat="42.88692" lon="2.71716">
        <ele>167.41</ele>
        <time>2015-10-04T08:32:17Z</time>
      </trkpt>
      <trkpt lat="42.88681" lon="2.71714">
        <ele>166.93</ele>
        <time>2015-10-04T08:32:18Z</time>
      </trkpt>
      <trkpt lat="42.88668" lon="2.7171">
        <ele>166.45</ele>
        <time>2015-10-04T08:32:19Z</time>
      </trkpt>
      <trkpt lat="42.88655" lon="2.71704">
        <ele>166.45</ele>
        <time>2015-10-04T08:32:20Z</time>
      </trkpt>
      <trkpt lat="42.88642" lon="2.71697">
        <ele>166.45</ele>
        <time>2015-10-04T08:32:21Z</time>
      </trkpt>
      <trkpt lat="42.88628" lon="2.71688">
        <ele>166.45</ele>
        <time>2015-10-04T08:32:22Z</time>
      </trkpt>
      <trkpt lat="42.88566" lon="2.71645">
        <ele>166.45</ele>
        <time>2015-10-04T08:32:26Z</time>
      </trkpt>
      <trkpt lat="42.88548" lon="2.71637">
        <ele>166.45</ele>
        <time>2015-10-04T08:32:27Z</time>
      </trkpt>
      <trkpt lat="42.8846" lon="2.71609">
        <ele>163.56</ele>
        <time>2015-10-04T08:32:33Z</time>
      </trkpt>
      <trkpt lat="42.88322" lon="2.71591">
        <ele>154.91</ele>
        <time>2015-10-04T08:32:42Z</time>
      </trkpt>
      <trkpt lat="42.88185" lon="2.71602">
        <ele>151.54</ele>
        <time>2015-10-04T08:32:48Z</time>
      </trkpt>
      <trkpt lat="42.8813" lon="2.71599">
        <ele>150.58</ele>
        <time>2015-10-04T08:32:51Z</time>
      </trkpt>
      <trkpt lat="42.88117" lon="2.71591">
        <ele>150.1</ele>
        <time>2015-10-04T08:32:52Z</time>
      </trkpt>
      <trkpt lat="42.88105" lon="2.71579">
        <ele>150.1</ele>
        <time>2015-10-04T08:32:53Z</time>
      </trkpt>
      <trkpt lat="42.88094" lon="2.71565">
        <ele>150.1</ele>
        <time>2015-10-04T08:32:54Z</time>
      </trkpt>
      <trkpt lat="42.88082" lon="2.71551">
        <ele>150.1</ele>
        <time>2015-10-04T08:32:55Z</time>
      </trkpt>
      <trkpt lat="42.87998" lon="2.71494">
        <ele>151.06</ele>
        <time>2015-10-04T08:33:01Z</time>
      </trkpt>
      <trkpt lat="42.87868" lon="2.71471">
        <ele>153.95</ele>
        <time>2015-10-04T08:33:09Z</time>
      </trkpt>
      <trkpt lat="42.87709" lon="2.71435">
        <ele>154.43</ele>
        <time>2015-10-04T08:33:21Z</time>
      </trkpt>
      <trkpt lat="42.877" lon="2.71429">
        <ele>154.43</ele>
        <time>2015-10-04T08:33:22Z</time>
      </trkpt>
      <trkpt lat="42.87693" lon="2.71421">
        <ele>154.43</ele>
        <time>2015-10-04T08:33:23Z</time>
      </trkpt>
      <trkpt lat="42.87688" lon="2.71408">
        <ele>154.43</ele>
        <time>2015-10-04T08:33:24Z</time>
      </trkpt>
      <trkpt lat="42.87686" lon="2.71392">
        <ele>154.91</ele>
        <time>2015-10-04T08:33:25Z</time>
      </trkpt>
      <trkpt lat="42.87684" lon="2.71375">
        <ele>155.39</ele>
        <time>2015-10-04T08:33:26Z</time>
      </trkpt>
      <trkpt lat="42.87684" lon="2.71357">
        <ele>155.87</ele>
        <time>2015-10-04T08:33:27Z</time>
      </trkpt>
      <trkpt lat="42.87684" lon="2.71338">
        <ele>156.35</ele>
        <time>2015-10-04T08:33:28Z</time>
      </trkpt>
      <trkpt lat="42.87687" lon="2.71238">
        <ele>158.27</ele>
        <time>2015-10-04T08:33:33Z</time>
      </trkpt>
      <trkpt lat="42.87684" lon="2.71222">
        <ele>158.75</ele>
        <time>2015-10-04T08:33:34Z</time>
      </trkpt>
      <trkpt lat="42.87677" lon="2.71207">
        <ele>159.24</ele>
        <time>2015-10-04T08:33:35Z</time>
      </trkpt>
      <trkpt lat="42.87668" lon="2.71192">
        <ele>159.72</ele>
        <time>2015-10-04T08:33:36Z</time>
      </trkpt>
      <trkpt lat="42.87657" lon="2.71178">
        <ele>160.2</ele>
        <time>2015-10-04T08:33:37Z</time>
      </trkpt>
      <trkpt lat="42.87647" lon="2.71164">
        <ele>160.68</ele>
        <time>2015-10-04T08:33:38Z</time>
      </trkpt>
      <trkpt lat="42.87638" lon="2.71148">
        <ele>161.64</ele>
        <time>2015-10-04T08:33:39Z</time>
      </trkpt>
      <trkpt lat="42.87631" lon="2.71128">
        <ele>162.12</ele>
        <time>2015-10-04T08:33:40Z</time>
      </trkpt>
      <trkpt lat="42.87626" lon="2.71107">
        <ele>162.6</ele>
        <time>2015-10-04T08:33:41Z</time>
      </trkpt>
      <trkpt lat="42.87603" lon="2.70951">
        <ele>167.41</ele>
        <time>2015-10-04T08:33:48Z</time>
      </trkpt>
      <trkpt lat="42.87604" lon="2.70931">
        <ele>167.89</ele>
        <time>2015-10-04T08:33:49Z</time>
      </trkpt>
      <trkpt lat="42.87612" lon="2.7086">
        <ele>169.33</ele>
        <time>2015-10-04T08:33:53Z</time>
      </trkpt>
      <trkpt lat="42.8761" lon="2.70845">
        <ele>169.81</ele>
        <time>2015-10-04T08:33:54Z</time>
      </trkpt>
      <trkpt lat="42.87605" lon="2.70832">
        <ele>170.29</ele>
        <time>2015-10-04T08:33:55Z</time>
      </trkpt>
      <trkpt lat="42.87596" lon="2.70821">
        <ele>170.29</ele>
        <time>2015-10-04T08:33:56Z</time>
      </trkpt>
      <trkpt lat="42.87585" lon="2.70812">
        <ele>171.25</ele>
        <time>2015-10-04T08:33:57Z</time>
      </trkpt>
      <trkpt lat="42.87573" lon="2.70803">
        <ele>171.73</ele>
        <time>2015-10-04T08:33:58Z</time>
      </trkpt>
      <trkpt lat="42.87548" lon="2.70781">
        <ele>172.69</ele>
        <time>2015-10-04T08:34:00Z</time>
      </trkpt>
      <trkpt lat="42.87538" lon="2.70764">
        <ele>173.17</ele>
        <time>2015-10-04T08:34:01Z</time>
      </trkpt>
      <trkpt lat="42.87529" lon="2.70746">
        <ele>174.14</ele>
        <time>2015-10-04T08:34:02Z</time>
      </trkpt>
      <trkpt lat="42.87522" lon="2.70725">
        <ele>174.62</ele>
        <time>2015-10-04T08:34:03Z</time>
      </trkpt>
      <trkpt lat="42.87515" lon="2.70704">
        <ele>175.1</ele>
        <time>2015-10-04T08:34:04Z</time>
      </trkpt>
      <trkpt lat="42.87506" lon="2.7066">
        <ele>176.54</ele>
        <time>2015-10-04T08:34:06Z</time>
      </trkpt>
      <trkpt lat="42.87504" lon="2.70636">
        <ele>177.02</ele>
        <time>2015-10-04T08:34:07Z</time>
      </trkpt>
      <trkpt lat="42.87503" lon="2.7061">
        <ele>177.5</ele>
        <time>2015-10-04T08:34:08Z</time>
      </trkpt>
      <trkpt lat="42.87505" lon="2.7031">
        <ele>186.15</ele>
        <time>2015-10-04T08:34:19Z</time>
      </trkpt>
      <trkpt lat="42.87506" lon="2.70133">
        <ele>191.92</ele>
        <time>2015-10-04T08:34:27Z</time>
      </trkpt>
      <trkpt lat="42.87503" lon="2.70117">
        <ele>192.4</ele>
        <time>2015-10-04T08:34:28Z</time>
      </trkpt>
      <trkpt lat="42.87497" lon="2.70102">
        <ele>192.88</ele>
        <time>2015-10-04T08:34:29Z</time>
      </trkpt>
      <trkpt lat="42.87488" lon="2.70089">
        <ele>193.36</ele>
        <time>2015-10-04T08:34:30Z</time>
      </trkpt>
      <trkpt lat="42.87478" lon="2.70075">
        <ele>193.84</ele>
        <time>2015-10-04T08:34:31Z</time>
      </trkpt>
      <trkpt lat="42.8746" lon="2.70049">
        <ele>194.8</ele>
        <time>2015-10-04T08:34:33Z</time>
      </trkpt>
      <trkpt lat="42.87454" lon="2.70034">
        <ele>195.28</ele>
        <time>2015-10-04T08:34:34Z</time>
      </trkpt>
      <trkpt lat="42.8745" lon="2.70018">
        <ele>196.25</ele>
        <time>2015-10-04T08:34:35Z</time>
      </trkpt>
      <trkpt lat="42.87443" lon="2.69986">
        <ele>197.21</ele>
        <time>2015-10-04T08:34:37Z</time>
      </trkpt>
      <trkpt lat="42.87437" lon="2.6997">
        <ele>197.69</ele>
        <time>2015-10-04T08:34:38Z</time>
      </trkpt>
      <trkpt lat="42.87427" lon="2.69956">
        <ele>198.17</ele>
        <time>2015-10-04T08:34:39Z</time>
      </trkpt>
      <trkpt lat="42.87416" lon="2.69943">
        <ele>198.17</ele>
        <time>2015-10-04T08:34:40Z</time>
      </trkpt>
      <trkpt lat="42.87402" lon="2.69928">
        <ele>198.65</ele>
        <time>2015-10-04T08:34:41Z</time>
      </trkpt>
      <trkpt lat="42.87267" lon="2.69782">
        <ele>199.61</ele>
        <time>2015-10-04T08:34:49Z</time>
      </trkpt>
      <trkpt lat="42.87063" lon="2.69558">
        <ele>198.17</ele>
        <time>2015-10-04T08:35:00Z</time>
      </trkpt>
      <trkpt lat="42.87035" lon="2.69523">
        <ele>197.69</ele>
        <time>2015-10-04T08:35:02Z</time>
      </trkpt>
      <trkpt lat="42.87025" lon="2.69503">
        <ele>197.69</ele>
        <time>2015-10-04T08:35:03Z</time>
      </trkpt>
      <trkpt lat="42.87016" lon="2.69483">
        <ele>197.21</ele>
        <time>2015-10-04T08:35:04Z</time>
      </trkpt>
      <trkpt lat="42.8701" lon="2.69461">
        <ele>196.73</ele>
        <time>2015-10-04T08:35:05Z</time>
      </trkpt>
      <trkpt lat="42.87004" lon="2.69439">
        <ele>196.73</ele>
        <time>2015-10-04T08:35:06Z</time>
      </trkpt>
      <trkpt lat="42.86963" lon="2.69282">
        <ele>193.84</ele>
        <time>2015-10-04T08:35:14Z</time>
      </trkpt>
      <trkpt lat="42.86956" lon="2.69267">
        <ele>193.36</ele>
        <time>2015-10-04T08:35:15Z</time>
      </trkpt>
      <trkpt lat="42.86947" lon="2.69255">
        <ele>192.88</ele>
        <time>2015-10-04T08:35:16Z</time>
      </trkpt>
      <trkpt lat="42.86937" lon="2.69247">
        <ele>192.4</ele>
        <time>2015-10-04T08:35:17Z</time>
      </trkpt>
      <trkpt lat="42.86926" lon="2.6924">
        <ele>191.92</ele>
        <time>2015-10-04T08:35:18Z</time>
      </trkpt>
      <trkpt lat="42.86914" lon="2.69237">
        <ele>191.44</ele>
        <time>2015-10-04T08:35:19Z</time>
      </trkpt>
      <trkpt lat="42.86902" lon="2.69241">
        <ele>190.96</ele>
        <time>2015-10-04T08:35:20Z</time>
      </trkpt>
      <trkpt lat="42.86889" lon="2.69246">
        <ele>190.48</ele>
        <time>2015-10-04T08:35:21Z</time>
      </trkpt>
      <trkpt lat="42.86877" lon="2.69253">
        <ele>190.48</ele>
        <time>2015-10-04T08:35:22Z</time>
      </trkpt>
      <trkpt lat="42.86865" lon="2.69259">
        <ele>190</ele>
        <time>2015-10-04T08:35:23Z</time>
      </trkpt>
      <trkpt lat="42.86842" lon="2.69269">
        <ele>189.52</ele>
        <time>2015-10-04T08:35:25Z</time>
      </trkpt>
      <trkpt lat="42.8683" lon="2.6927">
        <ele>189.04</ele>
        <time>2015-10-04T08:35:26Z</time>
      </trkpt>
      <trkpt lat="42.86818" lon="2.69267">
        <ele>189.04</ele>
        <time>2015-10-04T08:35:27Z</time>
      </trkpt>
      <trkpt lat="42.86807" lon="2.69261">
        <ele>188.56</ele>
        <time>2015-10-04T08:35:28Z</time>
      </trkpt>
      <trkpt lat="42.86796" lon="2.69252">
        <ele>188.56</ele>
        <time>2015-10-04T08:35:29Z</time>
      </trkpt>
      <trkpt lat="42.86785" lon="2.69241">
        <ele>188.08</ele>
        <time>2015-10-04T08:35:30Z</time>
      </trkpt>
      <trkpt lat="42.86775" lon="2.69228">
        <ele>187.59</ele>
        <time>2015-10-04T08:35:31Z</time>
      </trkpt>
      <trkpt lat="42.86765" lon="2.69214">
        <ele>187.11</ele>
        <time>2015-10-04T08:35:32Z</time>
      </trkpt>
      <trkpt lat="42.86676" lon="2.69065">
        <ele>183.75</ele>
        <time>2015-10-04T08:35:41Z</time>
      </trkpt>
      <trkpt lat="42.86669" lon="2.69048">
        <ele>183.75</ele>
        <time>2015-10-04T08:35:42Z</time>
      </trkpt>
      <trkpt lat="42.86664" lon="2.69031">
        <ele>182.79</ele>
        <time>2015-10-04T08:35:43Z</time>
      </trkpt>
      <trkpt lat="42.86663" lon="2.69014">
        <ele>182.79</ele>
        <time>2015-10-04T08:35:44Z</time>
      </trkpt>
      <trkpt lat="42.86665" lon="2.68997">
        <ele>181.83</ele>
        <time>2015-10-04T08:35:45Z</time>
      </trkpt>
      <trkpt lat="42.86669" lon="2.68982">
        <ele>181.35</ele>
        <time>2015-10-04T08:35:46Z</time>
      </trkpt>
      <trkpt lat="42.86673" lon="2.68966">
        <ele>180.87</ele>
        <time>2015-10-04T08:35:47Z</time>
      </trkpt>
      <trkpt lat="42.8671" lon="2.68828">
        <ele>177.5</ele>
        <time>2015-10-04T08:35:54Z</time>
      </trkpt>
      <trkpt lat="42.86723" lon="2.68786">
        <ele>177.5</ele>
        <time>2015-10-04T08:35:56Z</time>
      </trkpt>
      <trkpt lat="42.86726" lon="2.68764">
        <ele>177.5</ele>
        <time>2015-10-04T08:35:57Z</time>
      </trkpt>
      <trkpt lat="42.86727" lon="2.68743">
        <ele>177.02</ele>
        <time>2015-10-04T08:35:58Z</time>
      </trkpt>
      <trkpt lat="42.86726" lon="2.68722">
        <ele>177.02</ele>
        <time>2015-10-04T08:35:59Z</time>
      </trkpt>
      <trkpt lat="42.86722" lon="2.68702">
        <ele>177.02</ele>
        <time>2015-10-04T08:36:00Z</time>
      </trkpt>
      <trkpt lat="42.86714" lon="2.68682">
        <ele>177.02</ele>
        <time>2015-10-04T08:36:01Z</time>
      </trkpt>
      <trkpt lat="42.86704" lon="2.68665">
        <ele>177.5</ele>
        <time>2015-10-04T08:36:02Z</time>
      </trkpt>
      <trkpt lat="42.86693" lon="2.68648">
        <ele>177.98</ele>
        <time>2015-10-04T08:36:03Z</time>
      </trkpt>
      <trkpt lat="42.86675" lon="2.68617">
        <ele>178.46</ele>
        <time>2015-10-04T08:36:05Z</time>
      </trkpt>
      <trkpt lat="42.86667" lon="2.686">
        <ele>178.94</ele>
        <time>2015-10-04T08:36:06Z</time>
      </trkpt>
      <trkpt lat="42.86661" lon="2.68582">
        <ele>179.9</ele>
        <time>2015-10-04T08:36:07Z</time>
      </trkpt>
      <trkpt lat="42.86608" lon="2.68408">
        <ele>185.19</ele>
        <time>2015-10-04T08:36:16Z</time>
      </trkpt>
      <trkpt lat="42.86599" lon="2.68392">
        <ele>185.67</ele>
        <time>2015-10-04T08:36:17Z</time>
      </trkpt>
      <trkpt lat="42.86588" lon="2.68379">
        <ele>186.15</ele>
        <time>2015-10-04T08:36:18Z</time>
      </trkpt>
      <trkpt lat="42.86575" lon="2.68367">
        <ele>186.15</ele>
        <time>2015-10-04T08:36:19Z</time>
      </trkpt>
      <trkpt lat="42.86561" lon="2.68355">
        <ele>187.11</ele>
        <time>2015-10-04T08:36:20Z</time>
      </trkpt>
      <trkpt lat="42.86502" lon="2.68312">
        <ele>189.04</ele>
        <time>2015-10-04T08:36:24Z</time>
      </trkpt>
      <trkpt lat="42.86486" lon="2.68305">
        <ele>189.52</ele>
        <time>2015-10-04T08:36:25Z</time>
      </trkpt>
      <trkpt lat="42.86456" lon="2.68292">
        <ele>190</ele>
        <time>2015-10-04T08:36:27Z</time>
      </trkpt>
      <trkpt lat="42.86443" lon="2.68284">
        <ele>190.48</ele>
        <time>2015-10-04T08:36:28Z</time>
      </trkpt>
      <trkpt lat="42.86432" lon="2.68273">
        <ele>190.96</ele>
        <time>2015-10-04T08:36:29Z</time>
      </trkpt>
      <trkpt lat="42.86423" lon="2.68261">
        <ele>190.96</ele>
        <time>2015-10-04T08:36:30Z</time>
      </trkpt>
      <trkpt lat="42.86414" lon="2.68252">
        <ele>191.44</ele>
        <time>2015-10-04T08:36:31Z</time>
      </trkpt>
      <trkpt lat="42.86404" lon="2.68247">
        <ele>191.92</ele>
        <time>2015-10-04T08:36:32Z</time>
      </trkpt>
      <trkpt lat="42.86395" lon="2.68246">
        <ele>191.92</ele>
        <time>2015-10-04T08:36:33Z</time>
      </trkpt>
      <trkpt lat="42.86385" lon="2.6825">
        <ele>192.4</ele>
        <time>2015-10-04T08:36:34Z</time>
      </trkpt>
      <trkpt lat="42.86375" lon="2.68257">
        <ele>192.88</ele>
        <time>2015-10-04T08:36:35Z</time>
      </trkpt>
      <trkpt lat="42.86365" lon="2.68263">
        <ele>193.36</ele>
        <time>2015-10-04T08:36:36Z</time>
      </trkpt>
      <trkpt lat="42.86355" lon="2.68266">
        <ele>193.36</ele>
        <time>2015-10-04T08:36:37Z</time>
      </trkpt>
      <trkpt lat="42.86345" lon="2.68267">
        <ele>193.84</ele>
        <time>2015-10-04T08:36:38Z</time>
      </trkpt>
      <trkpt lat="42.86335" lon="2.68265">
        <ele>193.84</ele>
        <time>2015-10-04T08:36:39Z</time>
      </trkpt>
      <trkpt lat="42.86326" lon="2.68259">
        <ele>194.32</ele>
        <time>2015-10-04T08:36:40Z</time>
      </trkpt>
      <trkpt lat="42.86317" lon="2.6825">
        <ele>194.32</ele>
        <time>2015-10-04T08:36:41Z</time>
      </trkpt>
      <trkpt lat="42.86307" lon="2.68238">
        <ele>194.32</ele>
        <time>2015-10-04T08:36:42Z</time>
      </trkpt>
      <trkpt lat="42.86298" lon="2.68227">
        <ele>194.8</ele>
        <time>2015-10-04T08:36:43Z</time>
      </trkpt>
      <trkpt lat="42.86288" lon="2.68217">
        <ele>195.28</ele>
        <time>2015-10-04T08:36:44Z</time>
      </trkpt>
      <trkpt lat="42.86277" lon="2.6821">
        <ele>195.77</ele>
        <time>2015-10-04T08:36:45Z</time>
      </trkpt>
      <trkpt lat="42.86264" lon="2.68208">
        <ele>195.77</ele>
        <time>2015-10-04T08:36:46Z</time>
      </trkpt>
      <trkpt lat="42.86251" lon="2.68209">
        <ele>196.25</ele>
        <time>2015-10-04T08:36:47Z</time>
      </trkpt>
      <trkpt lat="42.86238" lon="2.68211">
        <ele>196.73</ele>
        <time>2015-10-04T08:36:48Z</time>
      </trkpt>
      <trkpt lat="42.86225" lon="2.68215">
        <ele>197.21</ele>
        <time>2015-10-04T08:36:49Z</time>
      </trkpt>
      <trkpt lat="42.86211" lon="2.68217">
        <ele>197.21</ele>
        <time>2015-10-04T08:36:50Z</time>
      </trkpt>
      <trkpt lat="42.86198" lon="2.68217">
        <ele>197.69</ele>
        <time>2015-10-04T08:36:51Z</time>
      </trkpt>
      <trkpt lat="42.86186" lon="2.68214">
        <ele>197.69</ele>
        <time>2015-10-04T08:36:52Z</time>
      </trkpt>
      <trkpt lat="42.86174" lon="2.68209">
        <ele>198.17</ele>
        <time>2015-10-04T08:36:53Z</time>
      </trkpt>
      <trkpt lat="42.86165" lon="2.682">
        <ele>198.65</ele>
        <time>2015-10-04T08:36:54Z</time>
      </trkpt>
      <trkpt lat="42.86157" lon="2.68189">
        <ele>198.17</ele>
        <time>2015-10-04T08:36:55Z</time>
      </trkpt>
      <trkpt lat="42.86152" lon="2.68177">
        <ele>198.17</ele>
        <time>2015-10-04T08:36:56Z</time>
      </trkpt>
      <trkpt lat="42.86151" lon="2.68163">
        <ele>198.17</ele>
        <time>2015-10-04T08:36:57Z</time>
      </trkpt>
      <trkpt lat="42.86151" lon="2.68148">
        <ele>198.65</ele>
        <time>2015-10-04T08:36:58Z</time>
      </trkpt>
      <trkpt lat="42.86152" lon="2.68133">
        <ele>198.65</ele>
        <time>2015-10-04T08:36:59Z</time>
      </trkpt>
      <trkpt lat="42.86154" lon="2.68103">
        <ele>199.13</ele>
        <time>2015-10-04T08:37:01Z</time>
      </trkpt>
      <trkpt lat="42.86158" lon="2.68089">
        <ele>199.13</ele>
        <time>2015-10-04T08:37:02Z</time>
      </trkpt>
      <trkpt lat="42.86164" lon="2.68075">
        <ele>199.61</ele>
        <time>2015-10-04T08:37:03Z</time>
      </trkpt>
      <trkpt lat="42.86172" lon="2.68061">
        <ele>200.09</ele>
        <time>2015-10-04T08:37:04Z</time>
      </trkpt>
      <trkpt lat="42.86182" lon="2.68047">
        <ele>200.09</ele>
        <time>2015-10-04T08:37:05Z</time>
      </trkpt>
      <trkpt lat="42.86202" lon="2.68018">
        <ele>201.05</ele>
        <time>2015-10-04T08:37:07Z</time>
      </trkpt>
      <trkpt lat="42.8621" lon="2.68002">
        <ele>201.53</ele>
        <time>2015-10-04T08:37:08Z</time>
      </trkpt>
      <trkpt lat="42.86216" lon="2.67985">
        <ele>202.01</ele>
        <time>2015-10-04T08:37:09Z</time>
      </trkpt>
      <trkpt lat="42.86221" lon="2.67967">
        <ele>202.98</ele>
        <time>2015-10-04T08:37:10Z</time>
      </trkpt>
      <trkpt lat="42.86226" lon="2.67948">
        <ele>203.46</ele>
        <time>2015-10-04T08:37:11Z</time>
      </trkpt>
      <trkpt lat="42.86238" lon="2.67912">
        <ele>203.94</ele>
        <time>2015-10-04T08:37:13Z</time>
      </trkpt>
      <trkpt lat="42.86247" lon="2.67896">
        <ele>204.42</ele>
        <time>2015-10-04T08:37:14Z</time>
      </trkpt>
      <trkpt lat="42.86258" lon="2.67882">
        <ele>204.9</ele>
        <time>2015-10-04T08:37:15Z</time>
      </trkpt>
      <trkpt lat="42.86269" lon="2.6787">
        <ele>205.38</ele>
        <time>2015-10-04T08:37:16Z</time>
      </trkpt>
      <trkpt lat="42.8628" lon="2.6786">
        <ele>205.86</ele>
        <time>2015-10-04T08:37:17Z</time>
      </trkpt>
      <trkpt lat="42.86316" lon="2.67832">
        <ele>207.3</ele>
        <time>2015-10-04T08:37:20Z</time>
      </trkpt>
      <trkpt lat="42.86329" lon="2.67826">
        <ele>207.78</ele>
        <time>2015-10-04T08:37:21Z</time>
      </trkpt>
      <trkpt lat="42.86436" lon="2.67775">
        <ele>210.67</ele>
        <time>2015-10-04T08:37:29Z</time>
      </trkpt>
      <trkpt lat="42.86446" lon="2.67766">
        <ele>210.19</ele>
        <time>2015-10-04T08:37:30Z</time>
      </trkpt>
      <trkpt lat="42.86454" lon="2.67756">
        <ele>209.7</ele>
        <time>2015-10-04T08:37:31Z</time>
      </trkpt>
      <trkpt lat="42.86463" lon="2.67747">
        <ele>209.22</ele>
        <time>2015-10-04T08:37:32Z</time>
      </trkpt>
      <trkpt lat="42.86471" lon="2.67739">
        <ele>209.22</ele>
        <time>2015-10-04T08:37:33Z</time>
      </trkpt>
      <trkpt lat="42.8648" lon="2.67737">
        <ele>209.22</ele>
        <time>2015-10-04T08:37:34Z</time>
      </trkpt>
      <trkpt lat="42.86492" lon="2.67742">
        <ele>208.74</ele>
        <time>2015-10-04T08:37:35Z</time>
      </trkpt>
      <trkpt lat="42.86503" lon="2.67748">
        <ele>208.26</ele>
        <time>2015-10-04T08:37:36Z</time>
      </trkpt>
      <trkpt lat="42.86514" lon="2.67756">
        <ele>207.3</ele>
        <time>2015-10-04T08:37:37Z</time>
      </trkpt>
      <trkpt lat="42.86524" lon="2.67763">
        <ele>206.82</ele>
        <time>2015-10-04T08:37:38Z</time>
      </trkpt>
      <trkpt lat="42.86555" lon="2.67779">
        <ele>205.86</ele>
        <time>2015-10-04T08:37:41Z</time>
      </trkpt>
      <trkpt lat="42.86566" lon="2.6778">
        <ele>205.86</ele>
        <time>2015-10-04T08:37:42Z</time>
      </trkpt>
      <trkpt lat="42.86576" lon="2.67776">
        <ele>205.38</ele>
        <time>2015-10-04T08:37:43Z</time>
      </trkpt>
      <trkpt lat="42.86585" lon="2.67767">
        <ele>204.9</ele>
        <time>2015-10-04T08:37:44Z</time>
      </trkpt>
      <trkpt lat="42.86593" lon="2.67757">
        <ele>204.42</ele>
        <time>2015-10-04T08:37:45Z</time>
      </trkpt>
      <trkpt lat="42.86599" lon="2.67746">
        <ele>204.42</ele>
        <time>2015-10-04T08:37:46Z</time>
      </trkpt>
      <trkpt lat="42.86607" lon="2.67734">
        <ele>203.94</ele>
        <time>2015-10-04T08:37:47Z</time>
      </trkpt>
      <trkpt lat="42.86614" lon="2.67724">
        <ele>203.94</ele>
        <time>2015-10-04T08:37:48Z</time>
      </trkpt>
      <trkpt lat="42.86629" lon="2.677">
        <ele>203.46</ele>
        <time>2015-10-04T08:37:50Z</time>
      </trkpt>
      <trkpt lat="42.86633" lon="2.67685">
        <ele>202.98</ele>
        <time>2015-10-04T08:37:51Z</time>
      </trkpt>
      <trkpt lat="42.86634" lon="2.67669">
        <ele>202.49</ele>
        <time>2015-10-04T08:37:52Z</time>
      </trkpt>
      <trkpt lat="42.86633" lon="2.67653">
        <ele>202.01</ele>
        <time>2015-10-04T08:37:53Z</time>
      </trkpt>
      <trkpt lat="42.86631" lon="2.67635">
        <ele>201.53</ele>
        <time>2015-10-04T08:37:54Z</time>
      </trkpt>
      <trkpt lat="42.86631" lon="2.67617">
        <ele>201.05</ele>
        <time>2015-10-04T08:37:55Z</time>
      </trkpt>
      <trkpt lat="42.86634" lon="2.67598">
        <ele>200.57</ele>
        <time>2015-10-04T08:37:56Z</time>
      </trkpt>
      <trkpt lat="42.86639" lon="2.67578">
        <ele>200.57</ele>
        <time>2015-10-04T08:37:57Z</time>
      </trkpt>
      <trkpt lat="42.86645" lon="2.67557">
        <ele>200.09</ele>
        <time>2015-10-04T08:37:58Z</time>
      </trkpt>
      <trkpt lat="42.86652" lon="2.67536">
        <ele>199.61</ele>
        <time>2015-10-04T08:37:59Z</time>
      </trkpt>
      <trkpt lat="42.86664" lon="2.67491">
        <ele>198.65</ele>
        <time>2015-10-04T08:38:01Z</time>
      </trkpt>
      <trkpt lat="42.86667" lon="2.67467">
        <ele>198.17</ele>
        <time>2015-10-04T08:38:02Z</time>
      </trkpt>
      <trkpt lat="42.86695" lon="2.67288">
        <ele>195.77</ele>
        <time>2015-10-04T08:38:10Z</time>
      </trkpt>
      <trkpt lat="42.86721" lon="2.67226">
        <ele>195.28</ele>
        <time>2015-10-04T08:38:14Z</time>
      </trkpt>
      <trkpt lat="42.86728" lon="2.67216">
        <ele>195.28</ele>
        <time>2015-10-04T08:38:15Z</time>
      </trkpt>
      <trkpt lat="42.86735" lon="2.6721">
        <ele>195.28</ele>
        <time>2015-10-04T08:38:16Z</time>
      </trkpt>
      <trkpt lat="42.86757" lon="2.67193">
        <ele>195.77</ele>
        <time>2015-10-04T08:38:19Z</time>
      </trkpt>
      <trkpt lat="42.86764" lon="2.67183">
        <ele>195.28</ele>
        <time>2015-10-04T08:38:20Z</time>
      </trkpt>
      <trkpt lat="42.86791" lon="2.67138">
        <ele>194.32</ele>
        <time>2015-10-04T08:38:24Z</time>
      </trkpt>
      <trkpt lat="42.86799" lon="2.67129">
        <ele>194.8</ele>
        <time>2015-10-04T08:38:25Z</time>
      </trkpt>
      <trkpt lat="42.86807" lon="2.67122">
        <ele>194.8</ele>
        <time>2015-10-04T08:38:26Z</time>
      </trkpt>
      <trkpt lat="42.86848" lon="2.67084">
        <ele>196.25</ele>
        <time>2015-10-04T08:38:32Z</time>
      </trkpt>
      <trkpt lat="42.86852" lon="2.67078">
        <ele>195.77</ele>
        <time>2015-10-04T08:38:33Z</time>
      </trkpt>
      <trkpt lat="42.86868" lon="2.67048">
        <ele>196.25</ele>
        <time>2015-10-04T08:38:38Z</time>
      </trkpt>
      <trkpt lat="42.86868" lon="2.67039">
        <ele>196.25</ele>
        <time>2015-10-04T08:38:39Z</time>
      </trkpt>
      <trkpt lat="42.86866" lon="2.6703">
        <ele>196.25</ele>
        <time>2015-10-04T08:38:40Z</time>
      </trkpt>
      <trkpt lat="42.86862" lon="2.67022">
        <ele>195.77</ele>
        <time>2015-10-04T08:38:41Z</time>
      </trkpt>
      <trkpt lat="42.86857" lon="2.67016">
        <ele>195.77</ele>
        <time>2015-10-04T08:38:42Z</time>
      </trkpt>
      <trkpt lat="42.86852" lon="2.67009">
        <ele>195.77</ele>
        <time>2015-10-04T08:38:43Z</time>
      </trkpt>
      <trkpt lat="42.86815" lon="2.66963">
        <ele>195.77</ele>
        <time>2015-10-04T08:38:50Z</time>
      </trkpt>
      <trkpt lat="42.86807" lon="2.66956">
        <ele>195.77</ele>
        <time>2015-10-04T08:38:51Z</time>
      </trkpt>
      <trkpt lat="42.86798" lon="2.66953">
        <ele>196.25</ele>
        <time>2015-10-04T08:38:52Z</time>
      </trkpt>
      <trkpt lat="42.86786" lon="2.66951">
        <ele>196.25</ele>
        <time>2015-10-04T08:38:53Z</time>
      </trkpt>
      <trkpt lat="42.86771" lon="2.66949">
        <ele>197.21</ele>
        <time>2015-10-04T08:38:54Z</time>
      </trkpt>
      <trkpt lat="42.86754" lon="2.66943">
        <ele>197.21</ele>
        <time>2015-10-04T08:38:55Z</time>
      </trkpt>
      <trkpt lat="42.86739" lon="2.66935">
        <ele>197.21</ele>
        <time>2015-10-04T08:38:56Z</time>
      </trkpt>
      <trkpt lat="42.86723" lon="2.66926">
        <ele>197.69</ele>
        <time>2015-10-04T08:38:57Z</time>
      </trkpt>
      <trkpt lat="42.86674" lon="2.66904">
        <ele>197.69</ele>
        <time>2015-10-04T08:39:01Z</time>
      </trkpt>
      <trkpt lat="42.86666" lon="2.66897">
        <ele>197.21</ele>
        <time>2015-10-04T08:39:02Z</time>
      </trkpt>
      <trkpt lat="42.86658" lon="2.66884">
        <ele>197.21</ele>
        <time>2015-10-04T08:39:03Z</time>
      </trkpt>
      <trkpt lat="42.86652" lon="2.66868">
        <ele>197.21</ele>
        <time>2015-10-04T08:39:04Z</time>
      </trkpt>
      <trkpt lat="42.86649" lon="2.66846">
        <ele>197.21</ele>
        <time>2015-10-04T08:39:05Z</time>
      </trkpt>
      <trkpt lat="42.86646" lon="2.66822">
        <ele>197.21</ele>
        <time>2015-10-04T08:39:06Z</time>
      </trkpt>
      <trkpt lat="42.86644" lon="2.66798">
        <ele>196.73</ele>
        <time>2015-10-04T08:39:07Z</time>
      </trkpt>
      <trkpt lat="42.86643" lon="2.66752">
        <ele>196.73</ele>
        <time>2015-10-04T08:39:09Z</time>
      </trkpt>
      <trkpt lat="42.86645" lon="2.6673">
        <ele>196.73</ele>
        <time>2015-10-04T08:39:10Z</time>
      </trkpt>
      <trkpt lat="42.8665" lon="2.66709">
        <ele>196.25</ele>
        <time>2015-10-04T08:39:11Z</time>
      </trkpt>
      <trkpt lat="42.86657" lon="2.66687">
        <ele>195.77</ele>
        <time>2015-10-04T08:39:12Z</time>
      </trkpt>
      <trkpt lat="42.86664" lon="2.66663">
        <ele>195.28</ele>
        <time>2015-10-04T08:39:13Z</time>
      </trkpt>
      <trkpt lat="42.86727" lon="2.66457">
        <ele>194.32</ele>
        <time>2015-10-04T08:39:21Z</time>
      </trkpt>
      <trkpt lat="42.8674" lon="2.66415">
        <ele>194.8</ele>
        <time>2015-10-04T08:39:23Z</time>
      </trkpt>
      <trkpt lat="42.86748" lon="2.66396">
        <ele>194.8</ele>
        <time>2015-10-04T08:39:24Z</time>
      </trkpt>
      <trkpt lat="42.86758" lon="2.66379">
        <ele>194.8</ele>
        <time>2015-10-04T08:39:25Z</time>
      </trkpt>
      <trkpt lat="42.86796" lon="2.66308">
        <ele>195.28</ele>
        <time>2015-10-04T08:39:29Z</time>
      </trkpt>
      <trkpt lat="42.86802" lon="2.66289">
        <ele>195.28</ele>
        <time>2015-10-04T08:39:30Z</time>
      </trkpt>
      <trkpt lat="42.86807" lon="2.66268">
        <ele>195.28</ele>
        <time>2015-10-04T08:39:31Z</time>
      </trkpt>
      <trkpt lat="42.86822" lon="2.6619">
        <ele>195.77</ele>
        <time>2015-10-04T08:39:35Z</time>
      </trkpt>
      <trkpt lat="42.86821" lon="2.66172">
        <ele>195.77</ele>
        <time>2015-10-04T08:39:36Z</time>
      </trkpt>
      <trkpt lat="42.86818" lon="2.66155">
        <ele>195.77</ele>
        <time>2015-10-04T08:39:37Z</time>
      </trkpt>
      <trkpt lat="42.86814" lon="2.66139">
        <ele>195.77</ele>
        <time>2015-10-04T08:39:38Z</time>
      </trkpt>
      <trkpt lat="42.86809" lon="2.66124">
        <ele>195.77</ele>
        <time>2015-10-04T08:39:39Z</time>
      </trkpt>
      <trkpt lat="42.86776" lon="2.65999">
        <ele>196.73</ele>
        <time>2015-10-04T08:39:49Z</time>
      </trkpt>
      <trkpt lat="42.86774" lon="2.65992">
        <ele>196.73</ele>
        <time>2015-10-04T08:39:50Z</time>
      </trkpt>
      <trkpt lat="42.86773" lon="2.65986">
        <ele>197.21</ele>
        <time>2015-10-04T08:39:51Z</time>
      </trkpt>
      <trkpt lat="42.86771" lon="2.65978">
        <ele>197.21</ele>
        <time>2015-10-04T08:39:52Z</time>
      </trkpt>
      <trkpt lat="42.8677" lon="2.65971">
        <ele>197.21</ele>
        <time>2015-10-04T08:39:53Z</time>
      </trkpt>
      <trkpt lat="42.86768" lon="2.65962">
        <ele>197.21</ele>
        <time>2015-10-04T08:39:54Z</time>
      </trkpt>
      <trkpt lat="42.86763" lon="2.65934">
        <ele>196.73</ele>
        <time>2015-10-04T08:39:57Z</time>
      </trkpt>
      <trkpt lat="42.86763" lon="2.65923">
        <ele>196.73</ele>
        <time>2015-10-04T08:39:58Z</time>
      </trkpt>
      <trkpt lat="42.86762" lon="2.65874">
        <ele>196.25</ele>
        <time>2015-10-04T08:40:02Z</time>
      </trkpt>
      <trkpt lat="42.8676" lon="2.6586">
        <ele>196.25</ele>
        <time>2015-10-04T08:40:03Z</time>
      </trkpt>
      <trkpt lat="42.86758" lon="2.65817">
        <ele>195.77</ele>
        <time>2015-10-04T08:40:06Z</time>
      </trkpt>
      <trkpt lat="42.86762" lon="2.65804">
        <ele>196.25</ele>
        <time>2015-10-04T08:40:07Z</time>
      </trkpt>
      <trkpt lat="42.86766" lon="2.65793">
        <ele>195.77</ele>
        <time>2015-10-04T08:40:08Z</time>
      </trkpt>
      <trkpt lat="42.8679" lon="2.65736">
        <ele>195.77</ele>
        <time>2015-10-04T08:40:14Z</time>
      </trkpt>
      <trkpt lat="42.86794" lon="2.6573">
        <ele>196.25</ele>
        <time>2015-10-04T08:40:15Z</time>
      </trkpt>
      <trkpt lat="42.86798" lon="2.65718">
        <ele>197.21</ele>
        <time>2015-10-04T08:40:17Z</time>
      </trkpt>
      <trkpt lat="42.86804" lon="2.65706">
        <ele>196.25</ele>
        <time>2015-10-04T08:40:19Z</time>
      </trkpt>
      <trkpt lat="42.86806" lon="2.65698">
        <ele>196.25</ele>
        <time>2015-10-04T08:40:20Z</time>
      </trkpt>
      <trkpt lat="42.86807" lon="2.65691">
        <ele>196.25</ele>
        <time>2015-10-04T08:40:21Z</time>
      </trkpt>
      <trkpt lat="42.86808" lon="2.65683">
        <ele>195.77</ele>
        <time>2015-10-04T08:40:22Z</time>
      </trkpt>
      <trkpt lat="42.86808" lon="2.65675">
        <ele>196.25</ele>
        <time>2015-10-04T08:40:23Z</time>
      </trkpt>
      <trkpt lat="42.86809" lon="2.65657">
        <ele>198.65</ele>
        <time>2015-10-04T08:40:25Z</time>
      </trkpt>
      <trkpt lat="42.86813" lon="2.6565">
        <ele>198.65</ele>
        <time>2015-10-04T08:40:26Z</time>
      </trkpt>
      <trkpt lat="42.86818" lon="2.65634">
        <ele>200.09</ele>
        <time>2015-10-04T08:40:28Z</time>
      </trkpt>
      <trkpt lat="42.86824" lon="2.65628">
        <ele>200.57</ele>
        <time>2015-10-04T08:40:29Z</time>
      </trkpt>
      <trkpt lat="42.86833" lon="2.65618">
        <ele>200.57</ele>
        <time>2015-10-04T08:40:31Z</time>
      </trkpt>
      <trkpt lat="42.86836" lon="2.65613">
        <ele>199.61</ele>
        <time>2015-10-04T08:40:32Z</time>
      </trkpt>
      <trkpt lat="42.86835" lon="2.65604">
        <ele>199.61</ele>
        <time>2015-10-04T08:40:33Z</time>
      </trkpt>
      <trkpt lat="42.86838" lon="2.65596">
        <ele>199.61</ele>
        <time>2015-10-04T08:40:34Z</time>
      </trkpt>
      <trkpt lat="42.86841" lon="2.65588">
        <ele>199.61</ele>
        <time>2015-10-04T08:40:35Z</time>
      </trkpt>
      <trkpt lat="42.86844" lon="2.65578">
        <ele>200.09</ele>
        <time>2015-10-04T08:40:36Z</time>
      </trkpt>
      <trkpt lat="42.8685" lon="2.65558">
        <ele>199.13</ele>
        <time>2015-10-04T08:40:38Z</time>
      </trkpt>
      <trkpt lat="42.86851" lon="2.65548">
        <ele>198.65</ele>
        <time>2015-10-04T08:40:39Z</time>
      </trkpt>
      <trkpt lat="42.86852" lon="2.65537">
        <ele>198.65</ele>
        <time>2015-10-04T08:40:40Z</time>
      </trkpt>
      <trkpt lat="42.86852" lon="2.65527">
        <ele>198.17</ele>
        <time>2015-10-04T08:40:41Z</time>
      </trkpt>
      <trkpt lat="42.86851" lon="2.65518">
        <ele>197.69</ele>
        <time>2015-10-04T08:40:42Z</time>
      </trkpt>
      <trkpt lat="42.8685" lon="2.65509">
        <ele>197.21</ele>
        <time>2015-10-04T08:40:43Z</time>
      </trkpt>
      <trkpt lat="42.86829" lon="2.65401">
        <ele>200.09</ele>
        <time>2015-10-04T08:40:53Z</time>
      </trkpt>
      <trkpt lat="42.8683" lon="2.65367">
        <ele>196.73</ele>
        <time>2015-10-04T08:40:57Z</time>
      </trkpt>
      <trkpt lat="42.86825" lon="2.65351">
        <ele>192.88</ele>
        <time>2015-10-04T08:40:59Z</time>
      </trkpt>
      <trkpt lat="42.86819" lon="2.65332">
        <ele>192.4</ele>
        <time>2015-10-04T08:41:01Z</time>
      </trkpt>
      <trkpt lat="42.86818" lon="2.65323">
        <ele>192.88</ele>
        <time>2015-10-04T08:41:02Z</time>
      </trkpt>
      <trkpt lat="42.86817" lon="2.65313">
        <ele>194.32</ele>
        <time>2015-10-04T08:41:03Z</time>
      </trkpt>
      <trkpt lat="42.86816" lon="2.65303">
        <ele>195.28</ele>
        <time>2015-10-04T08:41:04Z</time>
      </trkpt>
      <trkpt lat="42.86814" lon="2.65294">
        <ele>195.28</ele>
        <time>2015-10-04T08:41:05Z</time>
      </trkpt>
      <trkpt lat="42.86812" lon="2.65285">
        <ele>196.25</ele>
        <time>2015-10-04T08:41:06Z</time>
      </trkpt>
      <trkpt lat="42.86807" lon="2.65259">
        <ele>197.69</ele>
        <time>2015-10-04T08:41:09Z</time>
      </trkpt>
      <trkpt lat="42.86788" lon="2.65149">
        <ele>200.57</ele>
        <time>2015-10-04T08:41:17Z</time>
      </trkpt>
      <trkpt lat="42.86759" lon="2.64983">
        <ele>202.01</ele>
        <time>2015-10-04T08:41:28Z</time>
      </trkpt>
      <trkpt lat="42.86718" lon="2.64822">
        <ele>205.38</ele>
        <time>2015-10-04T08:41:35Z</time>
      </trkpt>
      <trkpt lat="42.86668" lon="2.64661">
        <ele>207.3</ele>
        <time>2015-10-04T08:41:42Z</time>
      </trkpt>
      <trkpt lat="42.86635" lon="2.64475">
        <ele>208.74</ele>
        <time>2015-10-04T08:41:50Z</time>
      </trkpt>
      <trkpt lat="42.8663" lon="2.64454">
        <ele>208.74</ele>
        <time>2015-10-04T08:41:51Z</time>
      </trkpt>
      <trkpt lat="42.86624" lon="2.64433">
        <ele>209.22</ele>
        <time>2015-10-04T08:41:52Z</time>
      </trkpt>
      <trkpt lat="42.86611" lon="2.64394">
        <ele>210.19</ele>
        <time>2015-10-04T08:41:54Z</time>
      </trkpt>
      <trkpt lat="42.86607" lon="2.64374">
        <ele>210.19</ele>
        <time>2015-10-04T08:41:55Z</time>
      </trkpt>
      <trkpt lat="42.8659" lon="2.64325">
        <ele>210.19</ele>
        <time>2015-10-04T08:41:58Z</time>
      </trkpt>
      <trkpt lat="42.86581" lon="2.64313">
        <ele>210.19</ele>
        <time>2015-10-04T08:41:59Z</time>
      </trkpt>
      <trkpt lat="42.86571" lon="2.64301">
        <ele>210.19</ele>
        <time>2015-10-04T08:42:00Z</time>
      </trkpt>
      <trkpt lat="42.86544" lon="2.64268">
        <ele>211.15</ele>
        <time>2015-10-04T08:42:03Z</time>
      </trkpt>
      <trkpt lat="42.86538" lon="2.64255">
        <ele>211.15</ele>
        <time>2015-10-04T08:42:04Z</time>
      </trkpt>
      <trkpt lat="42.86534" lon="2.6424">
        <ele>211.15</ele>
        <time>2015-10-04T08:42:05Z</time>
      </trkpt>
      <trkpt lat="42.86532" lon="2.64223">
        <ele>211.15</ele>
        <time>2015-10-04T08:42:06Z</time>
      </trkpt>
      <trkpt lat="42.86532" lon="2.64206">
        <ele>211.15</ele>
        <time>2015-10-04T08:42:07Z</time>
      </trkpt>
      <trkpt lat="42.86537" lon="2.6419">
        <ele>211.15</ele>
        <time>2015-10-04T08:42:08Z</time>
      </trkpt>
      <trkpt lat="42.86548" lon="2.64176">
        <ele>211.63</ele>
        <time>2015-10-04T08:42:09Z</time>
      </trkpt>
      <trkpt lat="42.8656" lon="2.64166">
        <ele>212.11</ele>
        <time>2015-10-04T08:42:10Z</time>
      </trkpt>
      <trkpt lat="42.86569" lon="2.64155">
        <ele>212.59</ele>
        <time>2015-10-04T08:42:11Z</time>
      </trkpt>
      <trkpt lat="42.86576" lon="2.64144">
        <ele>212.59</ele>
        <time>2015-10-04T08:42:12Z</time>
      </trkpt>
      <trkpt lat="42.8658" lon="2.64131">
        <ele>213.07</ele>
        <time>2015-10-04T08:42:13Z</time>
      </trkpt>
      <trkpt lat="42.86579" lon="2.64119">
        <ele>213.07</ele>
        <time>2015-10-04T08:42:14Z</time>
      </trkpt>
      <trkpt lat="42.86575" lon="2.64107">
        <ele>212.59</ele>
        <time>2015-10-04T08:42:15Z</time>
      </trkpt>
      <trkpt lat="42.86568" lon="2.64092">
        <ele>213.55</ele>
        <time>2015-10-04T08:42:16Z</time>
      </trkpt>
      <trkpt lat="42.8656" lon="2.64077">
        <ele>213.55</ele>
        <time>2015-10-04T08:42:17Z</time>
      </trkpt>
      <trkpt lat="42.86552" lon="2.64061">
        <ele>214.03</ele>
        <time>2015-10-04T08:42:18Z</time>
      </trkpt>
      <trkpt lat="42.86527" lon="2.64018">
        <ele>214.51</ele>
        <time>2015-10-04T08:42:21Z</time>
      </trkpt>
      <trkpt lat="42.86515" lon="2.64011">
        <ele>214.03</ele>
        <time>2015-10-04T08:42:22Z</time>
      </trkpt>
      <trkpt lat="42.86504" lon="2.64005">
        <ele>214.51</ele>
        <time>2015-10-04T08:42:23Z</time>
      </trkpt>
      <trkpt lat="42.86494" lon="2.63997">
        <ele>214.51</ele>
        <time>2015-10-04T08:42:24Z</time>
      </trkpt>
      <trkpt lat="42.86486" lon="2.63989">
        <ele>214.51</ele>
        <time>2015-10-04T08:42:25Z</time>
      </trkpt>
      <trkpt lat="42.86479" lon="2.63978">
        <ele>214.51</ele>
        <time>2015-10-04T08:42:26Z</time>
      </trkpt>
      <trkpt lat="42.86474" lon="2.63967">
        <ele>214.51</ele>
        <time>2015-10-04T08:42:27Z</time>
      </trkpt>
      <trkpt lat="42.8647" lon="2.63953">
        <ele>214.51</ele>
        <time>2015-10-04T08:42:28Z</time>
      </trkpt>
      <trkpt lat="42.8647" lon="2.63937">
        <ele>214.51</ele>
        <time>2015-10-04T08:42:29Z</time>
      </trkpt>
      <trkpt lat="42.86472" lon="2.6392">
        <ele>214.99</ele>
        <time>2015-10-04T08:42:30Z</time>
      </trkpt>
      <trkpt lat="42.86474" lon="2.639">
        <ele>214.99</ele>
        <time>2015-10-04T08:42:31Z</time>
      </trkpt>
      <trkpt lat="42.86487" lon="2.63737">
        <ele>214.99</ele>
        <time>2015-10-04T08:42:38Z</time>
      </trkpt>
      <trkpt lat="42.86472" lon="2.63553">
        <ele>216.43</ele>
        <time>2015-10-04T08:42:46Z</time>
      </trkpt>
      <trkpt lat="42.86466" lon="2.63535">
        <ele>216.91</ele>
        <time>2015-10-04T08:42:47Z</time>
      </trkpt>
      <trkpt lat="42.86456" lon="2.63518">
        <ele>216.43</ele>
        <time>2015-10-04T08:42:48Z</time>
      </trkpt>
      <trkpt lat="42.86445" lon="2.63504">
        <ele>216.91</ele>
        <time>2015-10-04T08:42:49Z</time>
      </trkpt>
      <trkpt lat="42.86433" lon="2.63492">
        <ele>216.91</ele>
        <time>2015-10-04T08:42:50Z</time>
      </trkpt>
      <trkpt lat="42.8642" lon="2.63479">
        <ele>216.91</ele>
        <time>2015-10-04T08:42:51Z</time>
      </trkpt>
      <trkpt lat="42.86408" lon="2.63466">
        <ele>216.91</ele>
        <time>2015-10-04T08:42:52Z</time>
      </trkpt>
      <trkpt lat="42.86397" lon="2.6345">
        <ele>216.91</ele>
        <time>2015-10-04T08:42:53Z</time>
      </trkpt>
      <trkpt lat="42.86387" lon="2.63431">
        <ele>216.91</ele>
        <time>2015-10-04T08:42:54Z</time>
      </trkpt>
      <trkpt lat="42.86328" lon="2.63324">
        <ele>216.43</ele>
        <time>2015-10-04T08:43:00Z</time>
      </trkpt>
      <trkpt lat="42.86315" lon="2.63312">
        <ele>216.43</ele>
        <time>2015-10-04T08:43:01Z</time>
      </trkpt>
      <trkpt lat="42.863" lon="2.63301">
        <ele>216.43</ele>
        <time>2015-10-04T08:43:02Z</time>
      </trkpt>
      <trkpt lat="42.86285" lon="2.63293">
        <ele>216.91</ele>
        <time>2015-10-04T08:43:03Z</time>
      </trkpt>
      <trkpt lat="42.86268" lon="2.63285">
        <ele>216.91</ele>
        <time>2015-10-04T08:43:04Z</time>
      </trkpt>
      <trkpt lat="42.86211" lon="2.63257">
        <ele>217.4</ele>
        <time>2015-10-04T08:43:09Z</time>
      </trkpt>
      <trkpt lat="42.86205" lon="2.6325">
        <ele>217.4</ele>
        <time>2015-10-04T08:43:10Z</time>
      </trkpt>
      <trkpt lat="42.86202" lon="2.63242">
        <ele>217.4</ele>
        <time>2015-10-04T08:43:11Z</time>
      </trkpt>
      <trkpt lat="42.86201" lon="2.63233">
        <ele>217.4</ele>
        <time>2015-10-04T08:43:12Z</time>
      </trkpt>
      <trkpt lat="42.86203" lon="2.63224">
        <ele>217.4</ele>
        <time>2015-10-04T08:43:13Z</time>
      </trkpt>
      <trkpt lat="42.86207" lon="2.63213">
        <ele>217.4</ele>
        <time>2015-10-04T08:43:14Z</time>
      </trkpt>
      <trkpt lat="42.86212" lon="2.63202">
        <ele>217.4</ele>
        <time>2015-10-04T08:43:15Z</time>
      </trkpt>
      <trkpt lat="42.86217" lon="2.6319">
        <ele>217.4</ele>
        <time>2015-10-04T08:43:16Z</time>
      </trkpt>
      <trkpt lat="42.86219" lon="2.63177">
        <ele>217.4</ele>
        <time>2015-10-04T08:43:17Z</time>
      </trkpt>
      <trkpt lat="42.86219" lon="2.63164">
        <ele>217.4</ele>
        <time>2015-10-04T08:43:18Z</time>
      </trkpt>
      <trkpt lat="42.86213" lon="2.63152">
        <ele>217.4</ele>
        <time>2015-10-04T08:43:19Z</time>
      </trkpt>
      <trkpt lat="42.86205" lon="2.63143">
        <ele>217.4</ele>
        <time>2015-10-04T08:43:20Z</time>
      </trkpt>
      <trkpt lat="42.86194" lon="2.63134">
        <ele>217.88</ele>
        <time>2015-10-04T08:43:21Z</time>
      </trkpt>
      <trkpt lat="42.86182" lon="2.63125">
        <ele>218.36</ele>
        <time>2015-10-04T08:43:22Z</time>
      </trkpt>
      <trkpt lat="42.86081" lon="2.63033">
        <ele>221.24</ele>
        <time>2015-10-04T08:43:29Z</time>
      </trkpt>
      <trkpt lat="42.85966" lon="2.62869">
        <ele>227.01</ele>
        <time>2015-10-04T08:43:38Z</time>
      </trkpt>
      <trkpt lat="42.85911" lon="2.62781">
        <ele>228.93</ele>
        <time>2015-10-04T08:43:43Z</time>
      </trkpt>
      <trkpt lat="42.85903" lon="2.62763">
        <ele>229.41</ele>
        <time>2015-10-04T08:43:44Z</time>
      </trkpt>
      <trkpt lat="42.85896" lon="2.62744">
        <ele>229.41</ele>
        <time>2015-10-04T08:43:45Z</time>
      </trkpt>
      <trkpt lat="42.85891" lon="2.62726">
        <ele>229.41</ele>
        <time>2015-10-04T08:43:46Z</time>
      </trkpt>
      <trkpt lat="42.85888" lon="2.62707">
        <ele>229.89</ele>
        <time>2015-10-04T08:43:47Z</time>
      </trkpt>
      <trkpt lat="42.85889" lon="2.62688">
        <ele>229.89</ele>
        <time>2015-10-04T08:43:48Z</time>
      </trkpt>
      <trkpt lat="42.85893" lon="2.62667">
        <ele>230.37</ele>
        <time>2015-10-04T08:43:49Z</time>
      </trkpt>
      <trkpt lat="42.85896" lon="2.62646">
        <ele>230.85</ele>
        <time>2015-10-04T08:43:50Z</time>
      </trkpt>
      <trkpt lat="42.85898" lon="2.62624">
        <ele>230.85</ele>
        <time>2015-10-04T08:43:51Z</time>
      </trkpt>
      <trkpt lat="42.85899" lon="2.62602">
        <ele>231.33</ele>
        <time>2015-10-04T08:43:52Z</time>
      </trkpt>
      <trkpt lat="42.85895" lon="2.62536">
        <ele>232.3</ele>
        <time>2015-10-04T08:43:55Z</time>
      </trkpt>
      <trkpt lat="42.8589" lon="2.62515">
        <ele>232.78</ele>
        <time>2015-10-04T08:43:56Z</time>
      </trkpt>
      <trkpt lat="42.85883" lon="2.62496">
        <ele>232.78</ele>
        <time>2015-10-04T08:43:57Z</time>
      </trkpt>
      <trkpt lat="42.85875" lon="2.62476">
        <ele>233.26</ele>
        <time>2015-10-04T08:43:58Z</time>
      </trkpt>
      <trkpt lat="42.85865" lon="2.62457">
        <ele>233.74</ele>
        <time>2015-10-04T08:43:59Z</time>
      </trkpt>
      <trkpt lat="42.85798" lon="2.62334">
        <ele>235.66</ele>
        <time>2015-10-04T08:44:06Z</time>
      </trkpt>
      <trkpt lat="42.85791" lon="2.62314">
        <ele>236.14</ele>
        <time>2015-10-04T08:44:07Z</time>
      </trkpt>
      <trkpt lat="42.85786" lon="2.62293">
        <ele>236.62</ele>
        <time>2015-10-04T08:44:08Z</time>
      </trkpt>
      <trkpt lat="42.85783" lon="2.6227">
        <ele>237.58</ele>
        <time>2015-10-04T08:44:09Z</time>
      </trkpt>
      <trkpt lat="42.85782" lon="2.62248">
        <ele>238.06</ele>
        <time>2015-10-04T08:44:10Z</time>
      </trkpt>
      <trkpt lat="42.85775" lon="2.62157">
        <ele>240.47</ele>
        <time>2015-10-04T08:44:14Z</time>
      </trkpt>
      <trkpt lat="42.8577" lon="2.62134">
        <ele>240.95</ele>
        <time>2015-10-04T08:44:15Z</time>
      </trkpt>
      <trkpt lat="42.85756" lon="2.62059">
        <ele>242.39</ele>
        <time>2015-10-04T08:44:18Z</time>
      </trkpt>
      <trkpt lat="42.85712" lon="2.6186">
        <ele>247.2</ele>
        <time>2015-10-04T08:44:26Z</time>
      </trkpt>
      <trkpt lat="42.85685" lon="2.61783">
        <ele>248.64</ele>
        <time>2015-10-04T08:44:30Z</time>
      </trkpt>
      <trkpt lat="42.85676" lon="2.61769">
        <ele>248.64</ele>
        <time>2015-10-04T08:44:31Z</time>
      </trkpt>
      <trkpt lat="42.85667" lon="2.61753">
        <ele>249.12</ele>
        <time>2015-10-04T08:44:32Z</time>
      </trkpt>
      <trkpt lat="42.8566" lon="2.61735">
        <ele>249.6</ele>
        <time>2015-10-04T08:44:33Z</time>
      </trkpt>
      <trkpt lat="42.85655" lon="2.61715">
        <ele>250.08</ele>
        <time>2015-10-04T08:44:34Z</time>
      </trkpt>
      <trkpt lat="42.8565" lon="2.61694">
        <ele>250.56</ele>
        <time>2015-10-04T08:44:35Z</time>
      </trkpt>
      <trkpt lat="42.85583" lon="2.61518">
        <ele>253.44</ele>
        <time>2015-10-04T08:44:43Z</time>
      </trkpt>
      <trkpt lat="42.85469" lon="2.61291">
        <ele>255.85</ele>
        <time>2015-10-04T08:44:53Z</time>
      </trkpt>
      <trkpt lat="42.85375" lon="2.61089">
        <ele>259.21</ele>
        <time>2015-10-04T08:45:01Z</time>
      </trkpt>
      <trkpt lat="42.85294" lon="2.60947">
        <ele>261.14</ele>
        <time>2015-10-04T08:45:08Z</time>
      </trkpt>
      <trkpt lat="42.85272" lon="2.609">
        <ele>261.62</ele>
        <time>2015-10-04T08:45:11Z</time>
      </trkpt>
      <trkpt lat="42.85268" lon="2.60886">
        <ele>261.62</ele>
        <time>2015-10-04T08:45:12Z</time>
      </trkpt>
      <trkpt lat="42.85265" lon="2.60871">
        <ele>262.1</ele>
        <time>2015-10-04T08:45:13Z</time>
      </trkpt>
      <trkpt lat="42.8525" lon="2.60778">
        <ele>264.02</ele>
        <time>2015-10-04T08:45:19Z</time>
      </trkpt>
      <trkpt lat="42.8525" lon="2.60764">
        <ele>264.5</ele>
        <time>2015-10-04T08:45:20Z</time>
      </trkpt>
      <trkpt lat="42.85251" lon="2.6075">
        <ele>264.98</ele>
        <time>2015-10-04T08:45:21Z</time>
      </trkpt>
      <trkpt lat="42.85254" lon="2.60738">
        <ele>264.98</ele>
        <time>2015-10-04T08:45:22Z</time>
      </trkpt>
      <trkpt lat="42.85256" lon="2.60726">
        <ele>265.46</ele>
        <time>2015-10-04T08:45:23Z</time>
      </trkpt>
      <trkpt lat="42.85257" lon="2.60715">
        <ele>265.46</ele>
        <time>2015-10-04T08:45:24Z</time>
      </trkpt>
      <trkpt lat="42.85257" lon="2.60704">
        <ele>265.46</ele>
        <time>2015-10-04T08:45:25Z</time>
      </trkpt>
      <trkpt lat="42.85254" lon="2.60695">
        <ele>265.94</ele>
        <time>2015-10-04T08:45:26Z</time>
      </trkpt>
      <trkpt lat="42.8525" lon="2.60687">
        <ele>264.98</ele>
        <time>2015-10-04T08:45:27Z</time>
      </trkpt>
      <trkpt lat="42.85245" lon="2.60681">
        <ele>264.98</ele>
        <time>2015-10-04T08:45:28Z</time>
      </trkpt>
      <trkpt lat="42.8524" lon="2.60674">
        <ele>264.5</ele>
        <time>2015-10-04T08:45:29Z</time>
      </trkpt>
      <trkpt lat="42.85233" lon="2.60669">
        <ele>264.5</ele>
        <time>2015-10-04T08:45:30Z</time>
      </trkpt>
      <trkpt lat="42.85225" lon="2.60667">
        <ele>264.5</ele>
        <time>2015-10-04T08:45:31Z</time>
      </trkpt>
      <trkpt lat="42.85216" lon="2.60668">
        <ele>264.02</ele>
        <time>2015-10-04T08:45:32Z</time>
      </trkpt>
      <trkpt lat="42.85208" lon="2.60673">
        <ele>264.02</ele>
        <time>2015-10-04T08:45:33Z</time>
      </trkpt>
      <trkpt lat="42.85202" lon="2.6068">
        <ele>263.54</ele>
        <time>2015-10-04T08:45:34Z</time>
      </trkpt>
      <trkpt lat="42.85197" lon="2.60688">
        <ele>264.02</ele>
        <time>2015-10-04T08:45:35Z</time>
      </trkpt>
      <trkpt lat="42.85193" lon="2.60698">
        <ele>264.02</ele>
        <time>2015-10-04T08:45:36Z</time>
      </trkpt>
      <trkpt lat="42.85189" lon="2.60707">
        <ele>264.5</ele>
        <time>2015-10-04T08:45:37Z</time>
      </trkpt>
      <trkpt lat="42.85183" lon="2.60715">
        <ele>264.98</ele>
        <time>2015-10-04T08:45:38Z</time>
      </trkpt>
      <trkpt lat="42.85177" lon="2.60722">
        <ele>264.98</ele>
        <time>2015-10-04T08:45:39Z</time>
      </trkpt>
      <trkpt lat="42.85168" lon="2.60726">
        <ele>265.94</ele>
        <time>2015-10-04T08:45:40Z</time>
      </trkpt>
      <trkpt lat="42.85159" lon="2.60726">
        <ele>266.42</ele>
        <time>2015-10-04T08:45:41Z</time>
      </trkpt>
      <trkpt lat="42.8515" lon="2.60724">
        <ele>266.9</ele>
        <time>2015-10-04T08:45:42Z</time>
      </trkpt>
      <trkpt lat="42.85141" lon="2.60721">
        <ele>267.86</ele>
        <time>2015-10-04T08:45:43Z</time>
      </trkpt>
      <trkpt lat="42.85132" lon="2.60717">
        <ele>268.35</ele>
        <time>2015-10-04T08:45:44Z</time>
      </trkpt>
      <trkpt lat="42.85104" lon="2.60701">
        <ele>269.79</ele>
        <time>2015-10-04T08:45:47Z</time>
      </trkpt>
      <trkpt lat="42.85094" lon="2.60693">
        <ele>270.27</ele>
        <time>2015-10-04T08:45:48Z</time>
      </trkpt>
      <trkpt lat="42.85085" lon="2.60683">
        <ele>271.23</ele>
        <time>2015-10-04T08:45:49Z</time>
      </trkpt>
      <trkpt lat="42.85077" lon="2.60671">
        <ele>271.71</ele>
        <time>2015-10-04T08:45:50Z</time>
      </trkpt>
      <trkpt lat="42.8507" lon="2.60657">
        <ele>272.19</ele>
        <time>2015-10-04T08:45:51Z</time>
      </trkpt>
      <trkpt lat="42.85063" lon="2.60643">
        <ele>273.15</ele>
        <time>2015-10-04T08:45:52Z</time>
      </trkpt>
      <trkpt lat="42.85056" lon="2.60626">
        <ele>273.63</ele>
        <time>2015-10-04T08:45:53Z</time>
      </trkpt>
      <trkpt lat="42.8505" lon="2.60607">
        <ele>274.59</ele>
        <time>2015-10-04T08:45:54Z</time>
      </trkpt>
      <trkpt lat="42.85045" lon="2.60586">
        <ele>275.07</ele>
        <time>2015-10-04T08:45:55Z</time>
      </trkpt>
      <trkpt lat="42.84991" lon="2.60357">
        <ele>283.25</ele>
        <time>2015-10-04T08:46:05Z</time>
      </trkpt>
      <trkpt lat="42.84989" lon="2.60335">
        <ele>284.21</ele>
        <time>2015-10-04T08:46:06Z</time>
      </trkpt>
      <trkpt lat="42.84989" lon="2.60315">
        <ele>284.69</ele>
        <time>2015-10-04T08:46:07Z</time>
      </trkpt>
      <trkpt lat="42.8499" lon="2.60294">
        <ele>285.65</ele>
        <time>2015-10-04T08:46:08Z</time>
      </trkpt>
      <trkpt lat="42.84994" lon="2.60174">
        <ele>289.97</ele>
        <time>2015-10-04T08:46:14Z</time>
      </trkpt>
      <trkpt lat="42.84992" lon="2.60155">
        <ele>290.94</ele>
        <time>2015-10-04T08:46:15Z</time>
      </trkpt>
      <trkpt lat="42.84988" lon="2.60136">
        <ele>291.9</ele>
        <time>2015-10-04T08:46:16Z</time>
      </trkpt>
      <trkpt lat="42.84962" lon="2.60023">
        <ele>296.7</ele>
        <time>2015-10-04T08:46:24Z</time>
      </trkpt>
      <trkpt lat="42.84959" lon="2.59995">
        <ele>297.67</ele>
        <time>2015-10-04T08:46:26Z</time>
      </trkpt>
      <trkpt lat="42.84959" lon="2.5998">
        <ele>298.15</ele>
        <time>2015-10-04T08:46:27Z</time>
      </trkpt>
      <trkpt lat="42.84963" lon="2.59964">
        <ele>298.63</ele>
        <time>2015-10-04T08:46:28Z</time>
      </trkpt>
      <trkpt lat="42.84976" lon="2.59915">
        <ele>299.59</ele>
        <time>2015-10-04T08:46:31Z</time>
      </trkpt>
      <trkpt lat="42.84978" lon="2.59899">
        <ele>299.59</ele>
        <time>2015-10-04T08:46:32Z</time>
      </trkpt>
      <trkpt lat="42.84978" lon="2.59884">
        <ele>300.07</ele>
        <time>2015-10-04T08:46:33Z</time>
      </trkpt>
      <trkpt lat="42.84976" lon="2.5987">
        <ele>300.55</ele>
        <time>2015-10-04T08:46:34Z</time>
      </trkpt>
      <trkpt lat="42.84975" lon="2.59859">
        <ele>300.55</ele>
        <time>2015-10-04T08:46:35Z</time>
      </trkpt>
      <trkpt lat="42.84972" lon="2.59849">
        <ele>301.03</ele>
        <time>2015-10-04T08:46:36Z</time>
      </trkpt>
      <trkpt lat="42.8497" lon="2.59842">
        <ele>301.03</ele>
        <time>2015-10-04T08:46:37Z</time>
      </trkpt>
      <trkpt lat="42.84968" lon="2.59838">
        <ele>301.03</ele>
        <time>2015-10-04T08:46:38Z</time>
      </trkpt>
      <trkpt lat="42.84965" lon="2.59835">
        <ele>301.03</ele>
        <time>2015-10-04T08:46:39Z</time>
      </trkpt>
      <trkpt lat="42.84961" lon="2.59834">
        <ele>301.03</ele>
        <time>2015-10-04T08:46:40Z</time>
      </trkpt>
      <trkpt lat="42.84956" lon="2.59846">
        <ele>300.55</ele>
        <time>2015-10-04T08:46:43Z</time>
      </trkpt>
      <trkpt lat="42.84957" lon="2.59854">
        <ele>300.55</ele>
        <time>2015-10-04T08:46:44Z</time>
      </trkpt>
      <trkpt lat="42.84959" lon="2.59865">
        <ele>300.55</ele>
        <time>2015-10-04T08:46:45Z</time>
      </trkpt>
      <trkpt lat="42.84961" lon="2.59877">
        <ele>301.03</ele>
        <time>2015-10-04T08:46:46Z</time>
      </trkpt>
      <trkpt lat="42.8496" lon="2.5989">
        <ele>301.03</ele>
        <time>2015-10-04T08:46:47Z</time>
      </trkpt>
      <trkpt lat="42.84957" lon="2.59903">
        <ele>301.51</ele>
        <time>2015-10-04T08:46:48Z</time>
      </trkpt>
      <trkpt lat="42.84953" lon="2.59915">
        <ele>301.99</ele>
        <time>2015-10-04T08:46:49Z</time>
      </trkpt>
      <trkpt lat="42.84948" lon="2.59927">
        <ele>302.47</ele>
        <time>2015-10-04T08:46:50Z</time>
      </trkpt>
      <trkpt lat="42.84942" lon="2.59937">
        <ele>302.95</ele>
        <time>2015-10-04T08:46:51Z</time>
      </trkpt>
      <trkpt lat="42.84936" lon="2.59946">
        <ele>303.43</ele>
        <time>2015-10-04T08:46:52Z</time>
      </trkpt>
      <trkpt lat="42.84931" lon="2.59954">
        <ele>303.91</ele>
        <time>2015-10-04T08:46:53Z</time>
      </trkpt>
      <trkpt lat="42.84893" lon="2.59997">
        <ele>308.24</ele>
        <time>2015-10-04T08:46:59Z</time>
      </trkpt>
      <trkpt lat="42.84883" lon="2.60004">
        <ele>308.72</ele>
        <time>2015-10-04T08:47:00Z</time>
      </trkpt>
      <trkpt lat="42.84872" lon="2.60009">
        <ele>309.68</ele>
        <time>2015-10-04T08:47:01Z</time>
      </trkpt>
      <trkpt lat="42.8485" lon="2.60016">
        <ele>311.6</ele>
        <time>2015-10-04T08:47:03Z</time>
      </trkpt>
      <trkpt lat="42.84837" lon="2.60024">
        <ele>312.57</ele>
        <time>2015-10-04T08:47:04Z</time>
      </trkpt>
      <trkpt lat="42.84825" lon="2.60036">
        <ele>313.53</ele>
        <time>2015-10-04T08:47:05Z</time>
      </trkpt>
      <trkpt lat="42.84814" lon="2.60048">
        <ele>314.49</ele>
        <time>2015-10-04T08:47:06Z</time>
      </trkpt>
      <trkpt lat="42.84804" lon="2.60062">
        <ele>315.45</ele>
        <time>2015-10-04T08:47:07Z</time>
      </trkpt>
      <trkpt lat="42.84794" lon="2.60076">
        <ele>315.93</ele>
        <time>2015-10-04T08:47:08Z</time>
      </trkpt>
      <trkpt lat="42.84785" lon="2.60091">
        <ele>316.89</ele>
        <time>2015-10-04T08:47:09Z</time>
      </trkpt>
      <trkpt lat="42.84774" lon="2.60104">
        <ele>317.85</ele>
        <time>2015-10-04T08:47:10Z</time>
      </trkpt>
      <trkpt lat="42.84762" lon="2.60116">
        <ele>319.3</ele>
        <time>2015-10-04T08:47:11Z</time>
      </trkpt>
      <trkpt lat="42.84738" lon="2.60139">
        <ele>321.7</ele>
        <time>2015-10-04T08:47:13Z</time>
      </trkpt>
      <trkpt lat="42.84727" lon="2.60153">
        <ele>322.66</ele>
        <time>2015-10-04T08:47:14Z</time>
      </trkpt>
      <trkpt lat="42.84705" lon="2.60181">
        <ele>324.58</ele>
        <time>2015-10-04T08:47:16Z</time>
      </trkpt>
      <trkpt lat="42.84692" lon="2.60192">
        <ele>326.02</ele>
        <time>2015-10-04T08:47:17Z</time>
      </trkpt>
      <trkpt lat="42.84679" lon="2.60201">
        <ele>326.99</ele>
        <time>2015-10-04T08:47:18Z</time>
      </trkpt>
      <trkpt lat="42.84665" lon="2.60207">
        <ele>328.43</ele>
        <time>2015-10-04T08:47:19Z</time>
      </trkpt>
      <trkpt lat="42.84652" lon="2.6021">
        <ele>329.39</ele>
        <time>2015-10-04T08:47:20Z</time>
      </trkpt>
      <trkpt lat="42.84611" lon="2.60221">
        <ele>331.79</ele>
        <time>2015-10-04T08:47:24Z</time>
      </trkpt>
      <trkpt lat="42.84603" lon="2.60218">
        <ele>332.75</ele>
        <time>2015-10-04T08:47:25Z</time>
      </trkpt>
      <trkpt lat="42.84598" lon="2.6021">
        <ele>333.71</ele>
        <time>2015-10-04T08:47:26Z</time>
      </trkpt>
      <trkpt lat="42.84594" lon="2.60202">
        <ele>334.2</ele>
        <time>2015-10-04T08:47:27Z</time>
      </trkpt>
      <trkpt lat="42.84593" lon="2.60192">
        <ele>335.16</ele>
        <time>2015-10-04T08:47:28Z</time>
      </trkpt>
      <trkpt lat="42.84591" lon="2.60181">
        <ele>335.64</ele>
        <time>2015-10-04T08:47:29Z</time>
      </trkpt>
      <trkpt lat="42.84588" lon="2.60171">
        <ele>336.6</ele>
        <time>2015-10-04T08:47:30Z</time>
      </trkpt>
      <trkpt lat="42.84582" lon="2.60163">
        <ele>337.08</ele>
        <time>2015-10-04T08:47:31Z</time>
      </trkpt>
      <trkpt lat="42.84575" lon="2.60159">
        <ele>338.04</ele>
        <time>2015-10-04T08:47:32Z</time>
      </trkpt>
      <trkpt lat="42.84567" lon="2.60157">
        <ele>338.52</ele>
        <time>2015-10-04T08:47:33Z</time>
      </trkpt>
      <trkpt lat="42.84559" lon="2.60158">
        <ele>339</ele>
        <time>2015-10-04T08:47:34Z</time>
      </trkpt>
      <trkpt lat="42.84551" lon="2.60162">
        <ele>339.48</ele>
        <time>2015-10-04T08:47:35Z</time>
      </trkpt>
      <trkpt lat="42.84544" lon="2.60168">
        <ele>339.96</ele>
        <time>2015-10-04T08:47:36Z</time>
      </trkpt>
      <trkpt lat="42.84536" lon="2.60178">
        <ele>340.92</ele>
        <time>2015-10-04T08:47:37Z</time>
      </trkpt>
      <trkpt lat="42.84528" lon="2.60189">
        <ele>341.41</ele>
        <time>2015-10-04T08:47:38Z</time>
      </trkpt>
      <trkpt lat="42.8452" lon="2.60199">
        <ele>342.37</ele>
        <time>2015-10-04T08:47:39Z</time>
      </trkpt>
      <trkpt lat="42.84513" lon="2.60205">
        <ele>343.33</ele>
        <time>2015-10-04T08:47:40Z</time>
      </trkpt>
      <trkpt lat="42.84504" lon="2.60209">
        <ele>343.81</ele>
        <time>2015-10-04T08:47:41Z</time>
      </trkpt>
      <trkpt lat="42.84496" lon="2.60209">
        <ele>344.77</ele>
        <time>2015-10-04T08:47:42Z</time>
      </trkpt>
      <trkpt lat="42.84487" lon="2.60206">
        <ele>345.73</ele>
        <time>2015-10-04T08:47:43Z</time>
      </trkpt>
      <trkpt lat="42.84477" lon="2.60201">
        <ele>346.21</ele>
        <time>2015-10-04T08:47:44Z</time>
      </trkpt>
      <trkpt lat="42.84468" lon="2.60196">
        <ele>347.17</ele>
        <time>2015-10-04T08:47:45Z</time>
      </trkpt>
      <trkpt lat="42.84459" lon="2.60193">
        <ele>347.65</ele>
        <time>2015-10-04T08:47:46Z</time>
      </trkpt>
      <trkpt lat="42.84448" lon="2.60191">
        <ele>348.62</ele>
        <time>2015-10-04T08:47:47Z</time>
      </trkpt>
      <trkpt lat="42.84438" lon="2.60193">
        <ele>349.1</ele>
        <time>2015-10-04T08:47:48Z</time>
      </trkpt>
      <trkpt lat="42.84427" lon="2.60197">
        <ele>350.06</ele>
        <time>2015-10-04T08:47:49Z</time>
      </trkpt>
      <trkpt lat="42.84417" lon="2.60203">
        <ele>351.02</ele>
        <time>2015-10-04T08:47:50Z</time>
      </trkpt>
      <trkpt lat="42.84407" lon="2.60211">
        <ele>351.98</ele>
        <time>2015-10-04T08:47:51Z</time>
      </trkpt>
      <trkpt lat="42.84376" lon="2.60239">
        <ele>354.86</ele>
        <time>2015-10-04T08:47:55Z</time>
      </trkpt>
      <trkpt lat="42.84372" lon="2.60247">
        <ele>355.83</ele>
        <time>2015-10-04T08:47:56Z</time>
      </trkpt>
      <trkpt lat="42.8437" lon="2.60255">
        <ele>355.83</ele>
        <time>2015-10-04T08:47:57Z</time>
      </trkpt>
      <trkpt lat="42.8437" lon="2.60264">
        <ele>356.79</ele>
        <time>2015-10-04T08:47:58Z</time>
      </trkpt>
      <trkpt lat="42.84372" lon="2.60271">
        <ele>357.27</ele>
        <time>2015-10-04T08:47:59Z</time>
      </trkpt>
      <trkpt lat="42.84375" lon="2.60278">
        <ele>357.27</ele>
        <time>2015-10-04T08:48:00Z</time>
      </trkpt>
      <trkpt lat="42.84381" lon="2.60285">
        <ele>357.75</ele>
        <time>2015-10-04T08:48:01Z</time>
      </trkpt>
      <trkpt lat="42.84386" lon="2.60292">
        <ele>358.23</ele>
        <time>2015-10-04T08:48:02Z</time>
      </trkpt>
      <trkpt lat="42.84392" lon="2.603">
        <ele>358.71</ele>
        <time>2015-10-04T08:48:03Z</time>
      </trkpt>
      <trkpt lat="42.84395" lon="2.60311">
        <ele>359.67</ele>
        <time>2015-10-04T08:48:04Z</time>
      </trkpt>
      <trkpt lat="42.84398" lon="2.60323">
        <ele>360.15</ele>
        <time>2015-10-04T08:48:05Z</time>
      </trkpt>
      <trkpt lat="42.84399" lon="2.60336">
        <ele>360.63</ele>
        <time>2015-10-04T08:48:06Z</time>
      </trkpt>
      <trkpt lat="42.84398" lon="2.6035">
        <ele>361.59</ele>
        <time>2015-10-04T08:48:07Z</time>
      </trkpt>
      <trkpt lat="42.84395" lon="2.60362">
        <ele>362.07</ele>
        <time>2015-10-04T08:48:08Z</time>
      </trkpt>
      <trkpt lat="42.84388" lon="2.60373">
        <ele>362.55</ele>
        <time>2015-10-04T08:48:09Z</time>
      </trkpt>
      <trkpt lat="42.8438" lon="2.60383">
        <ele>363.52</ele>
        <time>2015-10-04T08:48:10Z</time>
      </trkpt>
      <trkpt lat="42.84371" lon="2.60394">
        <ele>364.48</ele>
        <time>2015-10-04T08:48:11Z</time>
      </trkpt>
      <trkpt lat="42.84362" lon="2.60408">
        <ele>364.96</ele>
        <time>2015-10-04T08:48:12Z</time>
      </trkpt>
      <trkpt lat="42.84353" lon="2.60423">
        <ele>365.92</ele>
        <time>2015-10-04T08:48:13Z</time>
      </trkpt>
      <trkpt lat="42.84344" lon="2.6044">
        <ele>366.4</ele>
        <time>2015-10-04T08:48:14Z</time>
      </trkpt>
      <trkpt lat="42.84334" lon="2.60455">
        <ele>367.36</ele>
        <time>2015-10-04T08:48:15Z</time>
      </trkpt>
      <trkpt lat="42.84314" lon="2.60484">
        <ele>369.28</ele>
        <time>2015-10-04T08:48:17Z</time>
      </trkpt>
      <trkpt lat="42.84307" lon="2.605">
        <ele>370.24</ele>
        <time>2015-10-04T08:48:18Z</time>
      </trkpt>
      <trkpt lat="42.84303" lon="2.60515">
        <ele>371.21</ele>
        <time>2015-10-04T08:48:19Z</time>
      </trkpt>
      <trkpt lat="42.84293" lon="2.60552">
        <ele>373.61</ele>
        <time>2015-10-04T08:48:22Z</time>
      </trkpt>
      <trkpt lat="42.8429" lon="2.60559">
        <ele>374.57</ele>
        <time>2015-10-04T08:48:23Z</time>
      </trkpt>
      <trkpt lat="42.84286" lon="2.60564">
        <ele>375.05</ele>
        <time>2015-10-04T08:48:24Z</time>
      </trkpt>
      <trkpt lat="42.84282" lon="2.60566">
        <ele>375.05</ele>
        <time>2015-10-04T08:48:25Z</time>
      </trkpt>
      <trkpt lat="42.84278" lon="2.60566">
        <ele>375.53</ele>
        <time>2015-10-04T08:48:26Z</time>
      </trkpt>
      <trkpt lat="42.84273" lon="2.6056">
        <ele>376.01</ele>
        <time>2015-10-04T08:48:27Z</time>
      </trkpt>
      <trkpt lat="42.8427" lon="2.60553">
        <ele>376.49</ele>
        <time>2015-10-04T08:48:28Z</time>
      </trkpt>
      <trkpt lat="42.8427" lon="2.60542">
        <ele>376.97</ele>
        <time>2015-10-04T08:48:29Z</time>
      </trkpt>
      <trkpt lat="42.8427" lon="2.6053">
        <ele>377.45</ele>
        <time>2015-10-04T08:48:30Z</time>
      </trkpt>
      <trkpt lat="42.84268" lon="2.60517">
        <ele>377.45</ele>
        <time>2015-10-04T08:48:31Z</time>
      </trkpt>
      <trkpt lat="42.84263" lon="2.60505">
        <ele>378.42</ele>
        <time>2015-10-04T08:48:32Z</time>
      </trkpt>
      <trkpt lat="42.84255" lon="2.60492">
        <ele>379.86</ele>
        <time>2015-10-04T08:48:33Z</time>
      </trkpt>
      <trkpt lat="42.84232" lon="2.60458">
        <ele>382.74</ele>
        <time>2015-10-04T08:48:36Z</time>
      </trkpt>
      <trkpt lat="42.84222" lon="2.60451">
        <ele>383.22</ele>
        <time>2015-10-04T08:48:37Z</time>
      </trkpt>
      <trkpt lat="42.84212" lon="2.60447">
        <ele>384.18</ele>
        <time>2015-10-04T08:48:38Z</time>
      </trkpt>
      <trkpt lat="42.84201" lon="2.60446">
        <ele>384.66</ele>
        <time>2015-10-04T08:48:39Z</time>
      </trkpt>
      <trkpt lat="42.8419" lon="2.60446">
        <ele>385.15</ele>
        <time>2015-10-04T08:48:40Z</time>
      </trkpt>
      <trkpt lat="42.84179" lon="2.60449">
        <ele>386.11</ele>
        <time>2015-10-04T08:48:41Z</time>
      </trkpt>
      <trkpt lat="42.84168" lon="2.60454">
        <ele>387.07</ele>
        <time>2015-10-04T08:48:42Z</time>
      </trkpt>
      <trkpt lat="42.84156" lon="2.60462">
        <ele>388.03</ele>
        <time>2015-10-04T08:48:43Z</time>
      </trkpt>
      <trkpt lat="42.84145" lon="2.60472">
        <ele>388.99</ele>
        <time>2015-10-04T08:48:44Z</time>
      </trkpt>
      <trkpt lat="42.84135" lon="2.60482">
        <ele>389.95</ele>
        <time>2015-10-04T08:48:45Z</time>
      </trkpt>
      <trkpt lat="42.84114" lon="2.60501">
        <ele>391.87</ele>
        <time>2015-10-04T08:48:47Z</time>
      </trkpt>
      <trkpt lat="42.84104" lon="2.60514">
        <ele>392.36</ele>
        <time>2015-10-04T08:48:48Z</time>
      </trkpt>
      <trkpt lat="42.84095" lon="2.60529">
        <ele>392.84</ele>
        <time>2015-10-04T08:48:49Z</time>
      </trkpt>
      <trkpt lat="42.84086" lon="2.60544">
        <ele>393.8</ele>
        <time>2015-10-04T08:48:50Z</time>
      </trkpt>
      <trkpt lat="42.84076" lon="2.60558">
        <ele>394.76</ele>
        <time>2015-10-04T08:48:51Z</time>
      </trkpt>
      <trkpt lat="42.84066" lon="2.60571">
        <ele>395.72</ele>
        <time>2015-10-04T08:48:52Z</time>
      </trkpt>
      <trkpt lat="42.84055" lon="2.60581">
        <ele>396.68</ele>
        <time>2015-10-04T08:48:53Z</time>
      </trkpt>
      <trkpt lat="42.84045" lon="2.6059">
        <ele>397.64</ele>
        <time>2015-10-04T08:48:54Z</time>
      </trkpt>
      <trkpt lat="42.84034" lon="2.60598">
        <ele>398.12</ele>
        <time>2015-10-04T08:48:55Z</time>
      </trkpt>
      <trkpt lat="42.84024" lon="2.60603">
        <ele>399.08</ele>
        <time>2015-10-04T08:48:56Z</time>
      </trkpt>
      <trkpt lat="42.84014" lon="2.60608">
        <ele>400.05</ele>
        <time>2015-10-04T08:48:57Z</time>
      </trkpt>
      <trkpt lat="42.84004" lon="2.60614">
        <ele>400.53</ele>
        <time>2015-10-04T08:48:58Z</time>
      </trkpt>
      <trkpt lat="42.83996" lon="2.60624">
        <ele>401.49</ele>
        <time>2015-10-04T08:48:59Z</time>
      </trkpt>
      <trkpt lat="42.83989" lon="2.60639">
        <ele>401.97</ele>
        <time>2015-10-04T08:49:00Z</time>
      </trkpt>
      <trkpt lat="42.83984" lon="2.60655">
        <ele>402.45</ele>
        <time>2015-10-04T08:49:01Z</time>
      </trkpt>
      <trkpt lat="42.83981" lon="2.6067">
        <ele>403.41</ele>
        <time>2015-10-04T08:49:02Z</time>
      </trkpt>
      <trkpt lat="42.83975" lon="2.60684">
        <ele>404.37</ele>
        <time>2015-10-04T08:49:03Z</time>
      </trkpt>
      <trkpt lat="42.83967" lon="2.60696">
        <ele>405.81</ele>
        <time>2015-10-04T08:49:04Z</time>
      </trkpt>
      <trkpt lat="42.83956" lon="2.60707">
        <ele>406.77</ele>
        <time>2015-10-04T08:49:05Z</time>
      </trkpt>
      <trkpt lat="42.83945" lon="2.60718">
        <ele>408.22</ele>
        <time>2015-10-04T08:49:06Z</time>
      </trkpt>
      <trkpt lat="42.83932" lon="2.60729">
        <ele>409.18</ele>
        <time>2015-10-04T08:49:07Z</time>
      </trkpt>
      <trkpt lat="42.83881" lon="2.60772">
        <ele>414.47</ele>
        <time>2015-10-04T08:49:11Z</time>
      </trkpt>
      <trkpt lat="42.83871" lon="2.60785">
        <ele>415.43</ele>
        <time>2015-10-04T08:49:12Z</time>
      </trkpt>
      <trkpt lat="42.83864" lon="2.60798">
        <ele>416.87</ele>
        <time>2015-10-04T08:49:13Z</time>
      </trkpt>
      <trkpt lat="42.83847" lon="2.60828">
        <ele>419.75</ele>
        <time>2015-10-04T08:49:16Z</time>
      </trkpt>
      <trkpt lat="42.8384" lon="2.60831">
        <ele>421.19</ele>
        <time>2015-10-04T08:49:17Z</time>
      </trkpt>
      <trkpt lat="42.83831" lon="2.60833">
        <ele>422.64</ele>
        <time>2015-10-04T08:49:18Z</time>
      </trkpt>
      <trkpt lat="42.83819" lon="2.60836">
        <ele>424.08</ele>
        <time>2015-10-04T08:49:19Z</time>
      </trkpt>
      <trkpt lat="42.83805" lon="2.60841">
        <ele>425.04</ele>
        <time>2015-10-04T08:49:20Z</time>
      </trkpt>
      <trkpt lat="42.83746" lon="2.60866">
        <ele>430.81</ele>
        <time>2015-10-04T08:49:25Z</time>
      </trkpt>
      <trkpt lat="42.83737" lon="2.60867">
        <ele>432.25</ele>
        <time>2015-10-04T08:49:26Z</time>
      </trkpt>
      <trkpt lat="42.83729" lon="2.60865">
        <ele>433.21</ele>
        <time>2015-10-04T08:49:27Z</time>
      </trkpt>
      <trkpt lat="42.83723" lon="2.60861">
        <ele>434.65</ele>
        <time>2015-10-04T08:49:32Z</time>
      </trkpt>
      <trkpt lat="42.83723" lon="2.6086">
        <ele>434.65</ele>
        <time>2015-10-04T08:49:38Z</time>
      </trkpt>
      <trkpt lat="42.83721" lon="2.60858">
        <ele>434.65</ele>
        <time>2015-10-04T08:49:39Z</time>
      </trkpt>
      <trkpt lat="42.83707" lon="2.60854">
        <ele>435.61</ele>
        <time>2015-10-04T08:49:49Z</time>
      </trkpt>
      <trkpt lat="42.83707" lon="2.60858">
        <ele>435.61</ele>
        <time>2015-10-04T08:49:52Z</time>
      </trkpt>
      <trkpt lat="42.83713" lon="2.60904">
        <ele>437.54</ele>
        <time>2015-10-04T08:49:58Z</time>
      </trkpt>
      <trkpt lat="42.83732" lon="2.60998">
        <ele>448.59</ele>
        <time>2015-10-04T08:50:05Z</time>
      </trkpt>
      <trkpt lat="42.8373" lon="2.61003">
        <ele>450.03</ele>
        <time>2015-10-04T08:50:06Z</time>
      </trkpt>
      <trkpt lat="42.83726" lon="2.61004">
        <ele>451</ele>
        <time>2015-10-04T08:50:07Z</time>
      </trkpt>
      <trkpt lat="42.83721" lon="2.61003">
        <ele>451.96</ele>
        <time>2015-10-04T08:50:08Z</time>
      </trkpt>
      <trkpt lat="42.83715" lon="2.61001">
        <ele>452.92</ele>
        <time>2015-10-04T08:50:09Z</time>
      </trkpt>
      <trkpt lat="42.83707" lon="2.60998">
        <ele>453.88</ele>
        <time>2015-10-04T08:50:10Z</time>
      </trkpt>
      <trkpt lat="42.83672" lon="2.60984">
        <ele>458.69</ele>
        <time>2015-10-04T08:50:15Z</time>
      </trkpt>
      <trkpt lat="42.83668" lon="2.60986">
        <ele>459.65</ele>
        <time>2015-10-04T08:50:16Z</time>
      </trkpt>
      <trkpt lat="42.83666" lon="2.60993">
        <ele>460.61</ele>
        <time>2015-10-04T08:50:17Z</time>
      </trkpt>
      <trkpt lat="42.83666" lon="2.61">
        <ele>461.09</ele>
        <time>2015-10-04T08:50:18Z</time>
      </trkpt>
      <trkpt lat="42.8367" lon="2.61009">
        <ele>461.57</ele>
        <time>2015-10-04T08:50:19Z</time>
      </trkpt>
      <trkpt lat="42.83676" lon="2.61019">
        <ele>463.01</ele>
        <time>2015-10-04T08:50:20Z</time>
      </trkpt>
      <trkpt lat="42.83681" lon="2.6103">
        <ele>464.45</ele>
        <time>2015-10-04T08:50:21Z</time>
      </trkpt>
      <trkpt lat="42.83685" lon="2.61042">
        <ele>465.9</ele>
        <time>2015-10-04T08:50:22Z</time>
      </trkpt>
      <trkpt lat="42.83688" lon="2.61054">
        <ele>467.82</ele>
        <time>2015-10-04T08:50:23Z</time>
      </trkpt>
      <trkpt lat="42.83689" lon="2.61065">
        <ele>469.26</ele>
        <time>2015-10-04T08:50:24Z</time>
      </trkpt>
      <trkpt lat="42.83694" lon="2.61088">
        <ele>472.14</ele>
        <time>2015-10-04T08:50:26Z</time>
      </trkpt>
      <trkpt lat="42.83698" lon="2.61099">
        <ele>474.07</ele>
        <time>2015-10-04T08:50:27Z</time>
      </trkpt>
      <trkpt lat="42.83702" lon="2.61111">
        <ele>475.99</ele>
        <time>2015-10-04T08:50:28Z</time>
      </trkpt>
      <trkpt lat="42.83704" lon="2.61124">
        <ele>477.43</ele>
        <time>2015-10-04T08:50:29Z</time>
      </trkpt>
      <trkpt lat="42.83705" lon="2.61136">
        <ele>478.87</ele>
        <time>2015-10-04T08:50:30Z</time>
      </trkpt>
      <trkpt lat="42.83705" lon="2.61149">
        <ele>480.32</ele>
        <time>2015-10-04T08:50:31Z</time>
      </trkpt>
      <trkpt lat="42.83706" lon="2.61161">
        <ele>481.76</ele>
        <time>2015-10-04T08:50:32Z</time>
      </trkpt>
      <trkpt lat="42.83708" lon="2.61175">
        <ele>483.2</ele>
        <time>2015-10-04T08:50:33Z</time>
      </trkpt>
      <trkpt lat="42.83709" lon="2.61253">
        <ele>492.81</ele>
        <time>2015-10-04T08:50:39Z</time>
      </trkpt>
      <trkpt lat="42.83706" lon="2.61268">
        <ele>493.77</ele>
        <time>2015-10-04T08:50:40Z</time>
      </trkpt>
      <trkpt lat="42.83693" lon="2.61326">
        <ele>499.06</ele>
        <time>2015-10-04T08:50:44Z</time>
      </trkpt>
      <trkpt lat="42.83691" lon="2.6134">
        <ele>500.02</ele>
        <time>2015-10-04T08:50:45Z</time>
      </trkpt>
      <trkpt lat="42.83697" lon="2.61426">
        <ele>507.71</ele>
        <time>2015-10-04T08:50:51Z</time>
      </trkpt>
      <trkpt lat="42.83697" lon="2.61439">
        <ele>509.64</ele>
        <time>2015-10-04T08:50:52Z</time>
      </trkpt>
      <trkpt lat="42.83696" lon="2.61454">
        <ele>511.56</ele>
        <time>2015-10-04T08:50:53Z</time>
      </trkpt>
      <trkpt lat="42.83693" lon="2.61469">
        <ele>513.48</ele>
        <time>2015-10-04T08:50:54Z</time>
      </trkpt>
      <trkpt lat="42.8369" lon="2.61484">
        <ele>514.92</ele>
        <time>2015-10-04T08:50:55Z</time>
      </trkpt>
      <trkpt lat="42.83686" lon="2.6151">
        <ele>518.29</ele>
        <time>2015-10-04T08:50:57Z</time>
      </trkpt>
      <trkpt lat="42.83686" lon="2.61521">
        <ele>519.73</ele>
        <time>2015-10-04T08:50:58Z</time>
      </trkpt>
      <trkpt lat="42.83687" lon="2.61531">
        <ele>521.17</ele>
        <time>2015-10-04T08:50:59Z</time>
      </trkpt>
      <trkpt lat="42.8369" lon="2.61539">
        <ele>522.13</ele>
        <time>2015-10-04T08:51:00Z</time>
      </trkpt>
      <trkpt lat="42.83696" lon="2.61545">
        <ele>523.58</ele>
        <time>2015-10-04T08:51:01Z</time>
      </trkpt>
      <trkpt lat="42.83705" lon="2.61548">
        <ele>525.5</ele>
        <time>2015-10-04T08:51:02Z</time>
      </trkpt>
      <trkpt lat="42.83717" lon="2.61554">
        <ele>527.9</ele>
        <time>2015-10-04T08:51:03Z</time>
      </trkpt>
      <trkpt lat="42.83725" lon="2.61561">
        <ele>529.34</ele>
        <time>2015-10-04T08:51:04Z</time>
      </trkpt>
      <trkpt lat="42.83732" lon="2.61571">
        <ele>531.75</ele>
        <time>2015-10-04T08:51:05Z</time>
      </trkpt>
      <trkpt lat="42.83737" lon="2.61583">
        <ele>533.67</ele>
        <time>2015-10-04T08:51:06Z</time>
      </trkpt>
      <trkpt lat="42.83739" lon="2.61596">
        <ele>535.11</ele>
        <time>2015-10-04T08:51:07Z</time>
      </trkpt>
      <trkpt lat="42.8374" lon="2.61611">
        <ele>537.03</ele>
        <time>2015-10-04T08:51:08Z</time>
      </trkpt>
      <trkpt lat="42.83739" lon="2.61626">
        <ele>538.96</ele>
        <time>2015-10-04T08:51:09Z</time>
      </trkpt>
      <trkpt lat="42.83739" lon="2.61643">
        <ele>540.88</ele>
        <time>2015-10-04T08:51:10Z</time>
      </trkpt>
      <trkpt lat="42.83737" lon="2.61707">
        <ele>548.57</ele>
        <time>2015-10-04T08:51:15Z</time>
      </trkpt>
      <trkpt lat="42.83733" lon="2.61715">
        <ele>550.01</ele>
        <time>2015-10-04T08:51:16Z</time>
      </trkpt>
      <trkpt lat="42.83728" lon="2.61723">
        <ele>551.45</ele>
        <time>2015-10-04T08:51:17Z</time>
      </trkpt>
      <trkpt lat="42.83722" lon="2.61731">
        <ele>551.93</ele>
        <time>2015-10-04T08:51:18Z</time>
      </trkpt>
      <trkpt lat="42.83718" lon="2.61741">
        <ele>552.9</ele>
        <time>2015-10-04T08:51:19Z</time>
      </trkpt>
      <trkpt lat="42.83714" lon="2.61752">
        <ele>553.86</ele>
        <time>2015-10-04T08:51:20Z</time>
      </trkpt>
      <trkpt lat="42.83712" lon="2.61765">
        <ele>554.34</ele>
        <time>2015-10-04T08:51:21Z</time>
      </trkpt>
      <trkpt lat="42.83712" lon="2.61777">
        <ele>555.3</ele>
        <time>2015-10-04T08:51:22Z</time>
      </trkpt>
      <trkpt lat="42.83716" lon="2.61789">
        <ele>555.78</ele>
        <time>2015-10-04T08:51:23Z</time>
      </trkpt>
      <trkpt lat="42.83723" lon="2.618">
        <ele>557.22</ele>
        <time>2015-10-04T08:51:24Z</time>
      </trkpt>
      <trkpt lat="42.83729" lon="2.61812">
        <ele>559.14</ele>
        <time>2015-10-04T08:51:25Z</time>
      </trkpt>
      <trkpt lat="42.83735" lon="2.61825">
        <ele>561.07</ele>
        <time>2015-10-04T08:51:26Z</time>
      </trkpt>
      <trkpt lat="42.83738" lon="2.61839">
        <ele>562.51</ele>
        <time>2015-10-04T08:51:27Z</time>
      </trkpt>
      <trkpt lat="42.83739" lon="2.61855">
        <ele>564.43</ele>
        <time>2015-10-04T08:51:28Z</time>
      </trkpt>
      <trkpt lat="42.83738" lon="2.61872">
        <ele>565.87</ele>
        <time>2015-10-04T08:51:29Z</time>
      </trkpt>
      <trkpt lat="42.83736" lon="2.61889">
        <ele>567.8</ele>
        <time>2015-10-04T08:51:30Z</time>
      </trkpt>
      <trkpt lat="42.83734" lon="2.61906">
        <ele>569.72</ele>
        <time>2015-10-04T08:51:31Z</time>
      </trkpt>
      <trkpt lat="42.83734" lon="2.61923">
        <ele>571.16</ele>
        <time>2015-10-04T08:51:32Z</time>
      </trkpt>
      <trkpt lat="42.83735" lon="2.6194">
        <ele>573.08</ele>
        <time>2015-10-04T08:51:33Z</time>
      </trkpt>
      <trkpt lat="42.83739" lon="2.61957">
        <ele>575.01</ele>
        <time>2015-10-04T08:51:34Z</time>
      </trkpt>
      <trkpt lat="42.83745" lon="2.61976">
        <ele>577.89</ele>
        <time>2015-10-04T08:51:35Z</time>
      </trkpt>
      <trkpt lat="42.83769" lon="2.62049">
        <ele>588.95</ele>
        <time>2015-10-04T08:51:40Z</time>
      </trkpt>
      <trkpt lat="42.83776" lon="2.62058">
        <ele>590.39</ele>
        <time>2015-10-04T08:51:41Z</time>
      </trkpt>
      <trkpt lat="42.8379" lon="2.62077">
        <ele>593.75</ele>
        <time>2015-10-04T08:51:43Z</time>
      </trkpt>
      <trkpt lat="42.8381" lon="2.62109">
        <ele>599.04</ele>
        <time>2015-10-04T08:51:46Z</time>
      </trkpt>
      <trkpt lat="42.83818" lon="2.62117">
        <ele>600</ele>
        <time>2015-10-04T08:51:47Z</time>
      </trkpt>
      <trkpt lat="42.83826" lon="2.62125">
        <ele>601.44</ele>
        <time>2015-10-04T08:51:48Z</time>
      </trkpt>
      <trkpt lat="42.83835" lon="2.62131">
        <ele>602.88</ele>
        <time>2015-10-04T08:51:49Z</time>
      </trkpt>
      <trkpt lat="42.83844" lon="2.62136">
        <ele>603.85</ele>
        <time>2015-10-04T08:51:50Z</time>
      </trkpt>
      <trkpt lat="42.83853" lon="2.6214">
        <ele>604.81</ele>
        <time>2015-10-04T08:51:51Z</time>
      </trkpt>
      <trkpt lat="42.83861" lon="2.62142">
        <ele>606.25</ele>
        <time>2015-10-04T08:51:52Z</time>
      </trkpt>
      <trkpt lat="42.83869" lon="2.62142">
        <ele>607.21</ele>
        <time>2015-10-04T08:51:53Z</time>
      </trkpt>
      <trkpt lat="42.83876" lon="2.6214">
        <ele>607.69</ele>
        <time>2015-10-04T08:51:54Z</time>
      </trkpt>
      <trkpt lat="42.83882" lon="2.62138">
        <ele>608.17</ele>
        <time>2015-10-04T08:51:55Z</time>
      </trkpt>
      <trkpt lat="42.839" lon="2.6213">
        <ele>608.65</ele>
        <time>2015-10-04T08:52:01Z</time>
      </trkpt>
      <trkpt lat="42.839" lon="2.62128">
        <ele>608.65</ele>
        <time>2015-10-04T08:52:02Z</time>
      </trkpt>
      <trkpt lat="42.83901" lon="2.62125">
        <ele>608.65</ele>
        <time>2015-10-04T08:52:03Z</time>
      </trkpt>
      <trkpt lat="42.83901" lon="2.62122">
        <ele>608.65</ele>
        <time>2015-10-04T08:52:04Z</time>
      </trkpt>
      <trkpt lat="42.83902" lon="2.6212">
        <ele>609.13</ele>
        <time>2015-10-04T08:52:05Z</time>
      </trkpt>
      <trkpt lat="42.83903" lon="2.62119">
        <ele>609.13</ele>
        <time>2015-10-04T08:52:06Z</time>
      </trkpt>
      <trkpt lat="42.83905" lon="2.62118">
        <ele>609.13</ele>
        <time>2015-10-04T08:52:07Z</time>
      </trkpt>
      <trkpt lat="42.83907" lon="2.62115">
        <ele>608.17</ele>
        <time>2015-10-04T08:52:23Z</time>
      </trkpt>
      <trkpt lat="42.83907" lon="2.62114">
        <ele>607.21</ele>
        <time>2015-10-04T08:52:34Z</time>
      </trkpt>
      <trkpt lat="42.83905" lon="2.62115">
        <ele>604.33</ele>
        <time>2015-10-04T09:17:49Z</time>
      </trkpt>
      <trkpt lat="42.83908" lon="2.62115">
        <ele>605.77</ele>
        <time>2015-10-04T09:18:47Z</time>
      </trkpt>
      <trkpt lat="42.83902" lon="2.62127">
        <ele>605.29</ele>
        <time>2015-10-04T09:18:54Z</time>
      </trkpt>
      <trkpt lat="42.83896" lon="2.62127">
        <ele>604.81</ele>
        <time>2015-10-04T09:18:55Z</time>
      </trkpt>
      <trkpt lat="42.83889" lon="2.62128">
        <ele>604.33</ele>
        <time>2015-10-04T09:18:56Z</time>
      </trkpt>
      <trkpt lat="42.83864" lon="2.62134">
        <ele>602.88</ele>
        <time>2015-10-04T09:18:59Z</time>
      </trkpt>
      <trkpt lat="42.83855" lon="2.62133">
        <ele>601.92</ele>
        <time>2015-10-04T09:19:00Z</time>
      </trkpt>
      <trkpt lat="42.83845" lon="2.6213">
        <ele>601.44</ele>
        <time>2015-10-04T09:19:01Z</time>
      </trkpt>
      <trkpt lat="42.83835" lon="2.62124">
        <ele>600</ele>
        <time>2015-10-04T09:19:02Z</time>
      </trkpt>
      <trkpt lat="42.83824" lon="2.62116">
        <ele>599.04</ele>
        <time>2015-10-04T09:19:03Z</time>
      </trkpt>
      <trkpt lat="42.83815" lon="2.62106">
        <ele>597.12</ele>
        <time>2015-10-04T09:19:04Z</time>
      </trkpt>
      <trkpt lat="42.83806" lon="2.62095">
        <ele>596.15</ele>
        <time>2015-10-04T09:19:05Z</time>
      </trkpt>
      <trkpt lat="42.83797" lon="2.62082">
        <ele>594.71</ele>
        <time>2015-10-04T09:19:06Z</time>
      </trkpt>
      <trkpt lat="42.8379" lon="2.62067">
        <ele>592.79</ele>
        <time>2015-10-04T09:19:07Z</time>
      </trkpt>
      <trkpt lat="42.83765" lon="2.62024">
        <ele>587.5</ele>
        <time>2015-10-04T09:19:10Z</time>
      </trkpt>
      <trkpt lat="42.83759" lon="2.62007">
        <ele>585.58</ele>
        <time>2015-10-04T09:19:11Z</time>
      </trkpt>
      <trkpt lat="42.83734" lon="2.61908">
        <ele>574.04</ele>
        <time>2015-10-04T09:19:16Z</time>
      </trkpt>
      <trkpt lat="42.83733" lon="2.61888">
        <ele>571.64</ele>
        <time>2015-10-04T09:19:17Z</time>
      </trkpt>
      <trkpt lat="42.83736" lon="2.61869">
        <ele>569.72</ele>
        <time>2015-10-04T09:19:18Z</time>
      </trkpt>
      <trkpt lat="42.83737" lon="2.61852">
        <ele>567.32</ele>
        <time>2015-10-04T09:19:19Z</time>
      </trkpt>
      <trkpt lat="42.83738" lon="2.61835">
        <ele>564.91</ele>
        <time>2015-10-04T09:19:20Z</time>
      </trkpt>
      <trkpt lat="42.83736" lon="2.61819">
        <ele>562.99</ele>
        <time>2015-10-04T09:19:21Z</time>
      </trkpt>
      <trkpt lat="42.83732" lon="2.61804">
        <ele>560.59</ele>
        <time>2015-10-04T09:19:22Z</time>
      </trkpt>
      <trkpt lat="42.83726" lon="2.61792">
        <ele>558.66</ele>
        <time>2015-10-04T09:19:23Z</time>
      </trkpt>
      <trkpt lat="42.83719" lon="2.61779">
        <ele>556.74</ele>
        <time>2015-10-04T09:19:24Z</time>
      </trkpt>
      <trkpt lat="42.83713" lon="2.61766">
        <ele>554.82</ele>
        <time>2015-10-04T09:19:25Z</time>
      </trkpt>
      <trkpt lat="42.83709" lon="2.61751">
        <ele>552.9</ele>
        <time>2015-10-04T09:19:26Z</time>
      </trkpt>
      <trkpt lat="42.83711" lon="2.61736">
        <ele>550.97</ele>
        <time>2015-10-04T09:19:27Z</time>
      </trkpt>
      <trkpt lat="42.83715" lon="2.61722">
        <ele>550.01</ele>
        <time>2015-10-04T09:19:28Z</time>
      </trkpt>
      <trkpt lat="42.83721" lon="2.61712">
        <ele>547.61</ele>
        <time>2015-10-04T09:19:29Z</time>
      </trkpt>
      <trkpt lat="42.83728" lon="2.61704">
        <ele>546.17</ele>
        <time>2015-10-04T09:19:30Z</time>
      </trkpt>
      <trkpt lat="42.83733" lon="2.61695">
        <ele>544.72</ele>
        <time>2015-10-04T09:19:31Z</time>
      </trkpt>
      <trkpt lat="42.83736" lon="2.61684">
        <ele>543.28</ele>
        <time>2015-10-04T09:19:32Z</time>
      </trkpt>
      <trkpt lat="42.83737" lon="2.61671">
        <ele>542.32</ele>
        <time>2015-10-04T09:19:33Z</time>
      </trkpt>
      <trkpt lat="42.83738" lon="2.61657">
        <ele>541.36</ele>
        <time>2015-10-04T09:19:34Z</time>
      </trkpt>
      <trkpt lat="42.83737" lon="2.61573">
        <ele>531.27</ele>
        <time>2015-10-04T09:19:40Z</time>
      </trkpt>
      <trkpt lat="42.83734" lon="2.61561">
        <ele>529.34</ele>
        <time>2015-10-04T09:19:41Z</time>
      </trkpt>
      <trkpt lat="42.83729" lon="2.61551">
        <ele>527.9</ele>
        <time>2015-10-04T09:19:42Z</time>
      </trkpt>
      <trkpt lat="42.83723" lon="2.61543">
        <ele>526.46</ele>
        <time>2015-10-04T09:19:43Z</time>
      </trkpt>
      <trkpt lat="42.83714" lon="2.6154">
        <ele>525.5</ele>
        <time>2015-10-04T09:19:44Z</time>
      </trkpt>
      <trkpt lat="42.83705" lon="2.61536">
        <ele>523.58</ele>
        <time>2015-10-04T09:19:45Z</time>
      </trkpt>
      <trkpt lat="42.83697" lon="2.61533">
        <ele>522.13</ele>
        <time>2015-10-04T09:19:46Z</time>
      </trkpt>
      <trkpt lat="42.83691" lon="2.61525">
        <ele>519.73</ele>
        <time>2015-10-04T09:19:47Z</time>
      </trkpt>
      <trkpt lat="42.83684" lon="2.61513">
        <ele>517.81</ele>
        <time>2015-10-04T09:19:48Z</time>
      </trkpt>
      <trkpt lat="42.83682" lon="2.61497">
        <ele>516.37</ele>
        <time>2015-10-04T09:19:49Z</time>
      </trkpt>
      <trkpt lat="42.8368" lon="2.61483">
        <ele>514.44</ele>
        <time>2015-10-04T09:19:50Z</time>
      </trkpt>
      <trkpt lat="42.83683" lon="2.61468">
        <ele>513</ele>
        <time>2015-10-04T09:19:51Z</time>
      </trkpt>
      <trkpt lat="42.83688" lon="2.61455">
        <ele>510.6</ele>
        <time>2015-10-04T09:19:52Z</time>
      </trkpt>
      <trkpt lat="42.83691" lon="2.61442">
        <ele>509.16</ele>
        <time>2015-10-04T09:19:53Z</time>
      </trkpt>
      <trkpt lat="42.837" lon="2.61416">
        <ele>505.31</ele>
        <time>2015-10-04T09:19:59Z</time>
      </trkpt>
      <trkpt lat="42.83697" lon="2.61414">
        <ele>507.23</ele>
        <time>2015-10-04T09:20:15Z</time>
      </trkpt>
      <trkpt lat="42.837" lon="2.61417">
        <ele>510.12</ele>
        <time>2015-10-04T09:20:40Z</time>
      </trkpt>
      <trkpt lat="42.83701" lon="2.6142">
        <ele>494.26</ele>
        <time>2015-10-04T09:23:47Z</time>
      </trkpt>
      <trkpt lat="42.837" lon="2.61418">
        <ele>500.02</ele>
        <time>2015-10-04T09:24:11Z</time>
      </trkpt>
      <trkpt lat="42.83697" lon="2.61409">
        <ele>500.5</ele>
        <time>2015-10-04T09:24:14Z</time>
      </trkpt>
      <trkpt lat="42.83695" lon="2.61402">
        <ele>500.02</ele>
        <time>2015-10-04T09:24:15Z</time>
      </trkpt>
      <trkpt lat="42.83694" lon="2.61394">
        <ele>499.54</ele>
        <time>2015-10-04T09:24:16Z</time>
      </trkpt>
      <trkpt lat="42.83693" lon="2.6138">
        <ele>499.06</ele>
        <time>2015-10-04T09:24:17Z</time>
      </trkpt>
      <trkpt lat="42.83693" lon="2.61363">
        <ele>498.58</ele>
        <time>2015-10-04T09:24:18Z</time>
      </trkpt>
      <trkpt lat="42.83693" lon="2.61328">
        <ele>495.7</ele>
        <time>2015-10-04T09:24:20Z</time>
      </trkpt>
      <trkpt lat="42.83695" lon="2.6131">
        <ele>494.74</ele>
        <time>2015-10-04T09:24:21Z</time>
      </trkpt>
      <trkpt lat="42.83699" lon="2.61292">
        <ele>493.77</ele>
        <time>2015-10-04T09:24:22Z</time>
      </trkpt>
      <trkpt lat="42.83716" lon="2.6123">
        <ele>490.89</ele>
        <time>2015-10-04T09:24:26Z</time>
      </trkpt>
      <trkpt lat="42.83717" lon="2.61217">
        <ele>489.93</ele>
        <time>2015-10-04T09:24:27Z</time>
      </trkpt>
      <trkpt lat="42.83717" lon="2.61203">
        <ele>488.49</ele>
        <time>2015-10-04T09:24:28Z</time>
      </trkpt>
      <trkpt lat="42.83716" lon="2.61189">
        <ele>487.05</ele>
        <time>2015-10-04T09:24:29Z</time>
      </trkpt>
      <trkpt lat="42.83713" lon="2.61175">
        <ele>485.12</ele>
        <time>2015-10-04T09:24:30Z</time>
      </trkpt>
      <trkpt lat="42.83711" lon="2.61159">
        <ele>483.2</ele>
        <time>2015-10-04T09:24:31Z</time>
      </trkpt>
      <trkpt lat="42.83709" lon="2.61143">
        <ele>481.76</ele>
        <time>2015-10-04T09:24:32Z</time>
      </trkpt>
      <trkpt lat="42.83707" lon="2.6111">
        <ele>477.91</ele>
        <time>2015-10-04T09:24:34Z</time>
      </trkpt>
      <trkpt lat="42.83703" lon="2.61093">
        <ele>475.99</ele>
        <time>2015-10-04T09:24:35Z</time>
      </trkpt>
      <trkpt lat="42.83688" lon="2.61024">
        <ele>466.38</ele>
        <time>2015-10-04T09:24:39Z</time>
      </trkpt>
      <trkpt lat="42.83682" lon="2.61012">
        <ele>464.45</ele>
        <time>2015-10-04T09:24:40Z</time>
      </trkpt>
      <trkpt lat="42.83677" lon="2.61003">
        <ele>462.53</ele>
        <time>2015-10-04T09:24:41Z</time>
      </trkpt>
      <trkpt lat="42.83673" lon="2.60996">
        <ele>460.61</ele>
        <time>2015-10-04T09:24:42Z</time>
      </trkpt>
      <trkpt lat="42.83671" lon="2.6099">
        <ele>459.17</ele>
        <time>2015-10-04T09:24:43Z</time>
      </trkpt>
      <trkpt lat="42.83672" lon="2.60986">
        <ele>457.72</ele>
        <time>2015-10-04T09:24:44Z</time>
      </trkpt>
      <trkpt lat="42.83676" lon="2.60984">
        <ele>455.8</ele>
        <time>2015-10-04T09:24:45Z</time>
      </trkpt>
      <trkpt lat="42.83684" lon="2.60989">
        <ele>454.36</ele>
        <time>2015-10-04T09:24:46Z</time>
      </trkpt>
      <trkpt lat="42.83694" lon="2.60994">
        <ele>452.92</ele>
        <time>2015-10-04T09:24:47Z</time>
      </trkpt>
      <trkpt lat="42.83705" lon="2.60999">
        <ele>452.44</ele>
        <time>2015-10-04T09:24:48Z</time>
      </trkpt>
      <trkpt lat="42.8373" lon="2.61007">
        <ele>449.07</ele>
        <time>2015-10-04T09:24:51Z</time>
      </trkpt>
      <trkpt lat="42.83734" lon="2.61002">
        <ele>447.63</ele>
        <time>2015-10-04T09:24:52Z</time>
      </trkpt>
      <trkpt lat="42.83736" lon="2.60994">
        <ele>446.19</ele>
        <time>2015-10-04T09:24:53Z</time>
      </trkpt>
      <trkpt lat="42.83734" lon="2.60982">
        <ele>444.75</ele>
        <time>2015-10-04T09:24:54Z</time>
      </trkpt>
      <trkpt lat="42.83731" lon="2.60965">
        <ele>443.31</ele>
        <time>2015-10-04T09:24:55Z</time>
      </trkpt>
      <trkpt lat="42.83726" lon="2.60946">
        <ele>441.86</ele>
        <time>2015-10-04T09:24:56Z</time>
      </trkpt>
      <trkpt lat="42.83721" lon="2.60923">
        <ele>440.42</ele>
        <time>2015-10-04T09:24:57Z</time>
      </trkpt>
      <trkpt lat="42.83716" lon="2.60902">
        <ele>437.54</ele>
        <time>2015-10-04T09:24:58Z</time>
      </trkpt>
      <trkpt lat="42.8371" lon="2.60851">
        <ele>432.73</ele>
        <time>2015-10-04T09:25:02Z</time>
      </trkpt>
      <trkpt lat="42.8371" lon="2.60846">
        <ele>432.73</ele>
        <time>2015-10-04T09:25:03Z</time>
      </trkpt>
      <trkpt lat="42.8371" lon="2.60842">
        <ele>432.73</ele>
        <time>2015-10-04T09:25:04Z</time>
      </trkpt>
      <trkpt lat="42.83709" lon="2.60836">
        <ele>432.73</ele>
        <time>2015-10-04T09:25:05Z</time>
      </trkpt>
      <trkpt lat="42.83707" lon="2.60829">
        <ele>432.73</ele>
        <time>2015-10-04T09:25:06Z</time>
      </trkpt>
      <trkpt lat="42.83703" lon="2.60822">
        <ele>432.73</ele>
        <time>2015-10-04T09:25:07Z</time>
      </trkpt>
      <trkpt lat="42.83697" lon="2.60814">
        <ele>432.73</ele>
        <time>2015-10-04T09:25:08Z</time>
      </trkpt>
      <trkpt lat="42.83689" lon="2.60807">
        <ele>432.73</ele>
        <time>2015-10-04T09:25:09Z</time>
      </trkpt>
      <trkpt lat="42.83678" lon="2.60801">
        <ele>432.73</ele>
        <time>2015-10-04T09:25:10Z</time>
      </trkpt>
      <trkpt lat="42.83666" lon="2.60794">
        <ele>432.25</ele>
        <time>2015-10-04T09:25:11Z</time>
      </trkpt>
      <trkpt lat="42.83619" lon="2.60769">
        <ele>430.33</ele>
        <time>2015-10-04T09:25:14Z</time>
      </trkpt>
      <trkpt lat="42.83601" lon="2.60763">
        <ele>429.37</ele>
        <time>2015-10-04T09:25:15Z</time>
      </trkpt>
      <trkpt lat="42.83539" lon="2.60743">
        <ele>427.92</ele>
        <time>2015-10-04T09:25:19Z</time>
      </trkpt>
      <trkpt lat="42.83524" lon="2.60743">
        <ele>427.92</ele>
        <time>2015-10-04T09:25:20Z</time>
      </trkpt>
      <trkpt lat="42.83509" lon="2.60747">
        <ele>427.44</ele>
        <time>2015-10-04T09:25:21Z</time>
      </trkpt>
      <trkpt lat="42.83467" lon="2.60759">
        <ele>427.92</ele>
        <time>2015-10-04T09:25:24Z</time>
      </trkpt>
      <trkpt lat="42.83455" lon="2.60759">
        <ele>427.92</ele>
        <time>2015-10-04T09:25:25Z</time>
      </trkpt>
      <trkpt lat="42.83443" lon="2.60757">
        <ele>427.92</ele>
        <time>2015-10-04T09:25:26Z</time>
      </trkpt>
      <trkpt lat="42.83433" lon="2.60752">
        <ele>427.92</ele>
        <time>2015-10-04T09:25:27Z</time>
      </trkpt>
      <trkpt lat="42.83423" lon="2.60746">
        <ele>427.44</ele>
        <time>2015-10-04T09:25:28Z</time>
      </trkpt>
      <trkpt lat="42.83414" lon="2.60737">
        <ele>426.96</ele>
        <time>2015-10-04T09:25:29Z</time>
      </trkpt>
      <trkpt lat="42.83385" lon="2.60707">
        <ele>426</ele>
        <time>2015-10-04T09:25:33Z</time>
      </trkpt>
      <trkpt lat="42.83381" lon="2.60699">
        <ele>425.52</ele>
        <time>2015-10-04T09:25:34Z</time>
      </trkpt>
      <trkpt lat="42.83378" lon="2.60691">
        <ele>425.04</ele>
        <time>2015-10-04T09:25:35Z</time>
      </trkpt>
      <trkpt lat="42.83376" lon="2.60681">
        <ele>424.56</ele>
        <time>2015-10-04T09:25:36Z</time>
      </trkpt>
      <trkpt lat="42.83376" lon="2.60669">
        <ele>424.08</ele>
        <time>2015-10-04T09:25:37Z</time>
      </trkpt>
      <trkpt lat="42.83377" lon="2.60655">
        <ele>423.12</ele>
        <time>2015-10-04T09:25:38Z</time>
      </trkpt>
      <trkpt lat="42.83369" lon="2.6052">
        <ele>416.87</ele>
        <time>2015-10-04T09:25:46Z</time>
      </trkpt>
      <trkpt lat="42.8336" lon="2.60382">
        <ele>410.62</ele>
        <time>2015-10-04T09:25:55Z</time>
      </trkpt>
      <trkpt lat="42.83347" lon="2.60216">
        <ele>402.45</ele>
        <time>2015-10-04T09:26:05Z</time>
      </trkpt>
      <trkpt lat="42.83336" lon="2.6015">
        <ele>399.08</ele>
        <time>2015-10-04T09:26:09Z</time>
      </trkpt>
      <trkpt lat="42.83331" lon="2.60135">
        <ele>398.12</ele>
        <time>2015-10-04T09:26:10Z</time>
      </trkpt>
      <trkpt lat="42.83325" lon="2.6012">
        <ele>397.16</ele>
        <time>2015-10-04T09:26:11Z</time>
      </trkpt>
      <trkpt lat="42.83317" lon="2.60106">
        <ele>396.2</ele>
        <time>2015-10-04T09:26:12Z</time>
      </trkpt>
      <trkpt lat="42.83309" lon="2.60092">
        <ele>395.72</ele>
        <time>2015-10-04T09:26:13Z</time>
      </trkpt>
      <trkpt lat="42.83243" lon="2.59966">
        <ele>388.03</ele>
        <time>2015-10-04T09:26:22Z</time>
      </trkpt>
      <trkpt lat="42.83196" lon="2.59864">
        <ele>382.26</ele>
        <time>2015-10-04T09:26:29Z</time>
      </trkpt>
      <trkpt lat="42.83188" lon="2.59853">
        <ele>381.3</ele>
        <time>2015-10-04T09:26:30Z</time>
      </trkpt>
      <trkpt lat="42.83172" lon="2.59832">
        <ele>379.38</ele>
        <time>2015-10-04T09:26:32Z</time>
      </trkpt>
      <trkpt lat="42.83165" lon="2.5982">
        <ele>378.42</ele>
        <time>2015-10-04T09:26:33Z</time>
      </trkpt>
      <trkpt lat="42.8316" lon="2.59807">
        <ele>377.94</ele>
        <time>2015-10-04T09:26:34Z</time>
      </trkpt>
      <trkpt lat="42.83156" lon="2.59794">
        <ele>376.97</ele>
        <time>2015-10-04T09:26:35Z</time>
      </trkpt>
      <trkpt lat="42.83154" lon="2.5978">
        <ele>376.01</ele>
        <time>2015-10-04T09:26:36Z</time>
      </trkpt>
      <trkpt lat="42.83153" lon="2.59766">
        <ele>375.53</ele>
        <time>2015-10-04T09:26:37Z</time>
      </trkpt>
      <trkpt lat="42.83154" lon="2.59753">
        <ele>374.57</ele>
        <time>2015-10-04T09:26:38Z</time>
      </trkpt>
      <trkpt lat="42.83155" lon="2.59739">
        <ele>374.09</ele>
        <time>2015-10-04T09:26:39Z</time>
      </trkpt>
      <trkpt lat="42.83158" lon="2.59727">
        <ele>373.13</ele>
        <time>2015-10-04T09:26:40Z</time>
      </trkpt>
      <trkpt lat="42.83161" lon="2.59716">
        <ele>372.65</ele>
        <time>2015-10-04T09:26:41Z</time>
      </trkpt>
      <trkpt lat="42.83166" lon="2.59706">
        <ele>372.17</ele>
        <time>2015-10-04T09:26:42Z</time>
      </trkpt>
      <trkpt lat="42.83171" lon="2.59698">
        <ele>371.69</ele>
        <time>2015-10-04T09:26:43Z</time>
      </trkpt>
      <trkpt lat="42.83176" lon="2.59689">
        <ele>371.21</ele>
        <time>2015-10-04T09:26:44Z</time>
      </trkpt>
      <trkpt lat="42.83178" lon="2.5968">
        <ele>370.73</ele>
        <time>2015-10-04T09:26:45Z</time>
      </trkpt>
      <trkpt lat="42.83179" lon="2.59671">
        <ele>370.24</ele>
        <time>2015-10-04T09:26:46Z</time>
      </trkpt>
      <trkpt lat="42.83179" lon="2.59661">
        <ele>369.76</ele>
        <time>2015-10-04T09:26:47Z</time>
      </trkpt>
      <trkpt lat="42.83178" lon="2.59651">
        <ele>369.28</ele>
        <time>2015-10-04T09:26:48Z</time>
      </trkpt>
      <trkpt lat="42.83176" lon="2.5964">
        <ele>368.8</ele>
        <time>2015-10-04T09:26:49Z</time>
      </trkpt>
      <trkpt lat="42.83174" lon="2.59629">
        <ele>367.84</ele>
        <time>2015-10-04T09:26:50Z</time>
      </trkpt>
      <trkpt lat="42.83173" lon="2.59618">
        <ele>367.36</ele>
        <time>2015-10-04T09:26:51Z</time>
      </trkpt>
      <trkpt lat="42.83173" lon="2.59605">
        <ele>366.4</ele>
        <time>2015-10-04T09:26:52Z</time>
      </trkpt>
      <trkpt lat="42.83175" lon="2.59592">
        <ele>365.92</ele>
        <time>2015-10-04T09:26:53Z</time>
      </trkpt>
      <trkpt lat="42.83179" lon="2.59578">
        <ele>364.96</ele>
        <time>2015-10-04T09:26:54Z</time>
      </trkpt>
      <trkpt lat="42.83183" lon="2.59564">
        <ele>364.48</ele>
        <time>2015-10-04T09:26:55Z</time>
      </trkpt>
      <trkpt lat="42.83194" lon="2.59518">
        <ele>362.07</ele>
        <time>2015-10-04T09:26:58Z</time>
      </trkpt>
      <trkpt lat="42.83196" lon="2.59502">
        <ele>361.59</ele>
        <time>2015-10-04T09:26:59Z</time>
      </trkpt>
      <trkpt lat="42.83197" lon="2.59486">
        <ele>360.63</ele>
        <time>2015-10-04T09:27:00Z</time>
      </trkpt>
      <trkpt lat="42.83197" lon="2.5947">
        <ele>359.67</ele>
        <time>2015-10-04T09:27:01Z</time>
      </trkpt>
      <trkpt lat="42.83195" lon="2.59456">
        <ele>359.19</ele>
        <time>2015-10-04T09:27:02Z</time>
      </trkpt>
      <trkpt lat="42.83192" lon="2.59442">
        <ele>358.23</ele>
        <time>2015-10-04T09:27:03Z</time>
      </trkpt>
      <trkpt lat="42.83189" lon="2.59428">
        <ele>357.27</ele>
        <time>2015-10-04T09:27:04Z</time>
      </trkpt>
      <trkpt lat="42.83188" lon="2.59415">
        <ele>356.79</ele>
        <time>2015-10-04T09:27:05Z</time>
      </trkpt>
      <trkpt lat="42.83187" lon="2.59401">
        <ele>355.83</ele>
        <time>2015-10-04T09:27:06Z</time>
      </trkpt>
      <trkpt lat="42.83188" lon="2.59388">
        <ele>355.34</ele>
        <time>2015-10-04T09:27:07Z</time>
      </trkpt>
      <trkpt lat="42.83197" lon="2.59337">
        <ele>352.46</ele>
        <time>2015-10-04T09:27:11Z</time>
      </trkpt>
      <trkpt lat="42.832" lon="2.59326">
        <ele>351.5</ele>
        <time>2015-10-04T09:27:12Z</time>
      </trkpt>
      <trkpt lat="42.83206" lon="2.59318">
        <ele>351.02</ele>
        <time>2015-10-04T09:27:13Z</time>
      </trkpt>
      <trkpt lat="42.83215" lon="2.59301">
        <ele>350.06</ele>
        <time>2015-10-04T09:27:15Z</time>
      </trkpt>
      <trkpt lat="42.83217" lon="2.59291">
        <ele>349.58</ele>
        <time>2015-10-04T09:27:16Z</time>
      </trkpt>
      <trkpt lat="42.83217" lon="2.5928">
        <ele>349.1</ele>
        <time>2015-10-04T09:27:17Z</time>
      </trkpt>
      <trkpt lat="42.83218" lon="2.59156">
        <ele>342.37</ele>
        <time>2015-10-04T09:27:27Z</time>
      </trkpt>
      <trkpt lat="42.83221" lon="2.59144">
        <ele>341.41</ele>
        <time>2015-10-04T09:27:28Z</time>
      </trkpt>
      <trkpt lat="42.83225" lon="2.59134">
        <ele>340.92</ele>
        <time>2015-10-04T09:27:29Z</time>
      </trkpt>
      <trkpt lat="42.8323" lon="2.59123">
        <ele>340.44</ele>
        <time>2015-10-04T09:27:30Z</time>
      </trkpt>
      <trkpt lat="42.83235" lon="2.59112">
        <ele>339.48</ele>
        <time>2015-10-04T09:27:31Z</time>
      </trkpt>
      <trkpt lat="42.83256" lon="2.59066">
        <ele>337.08</ele>
        <time>2015-10-04T09:27:35Z</time>
      </trkpt>
      <trkpt lat="42.83259" lon="2.59054">
        <ele>336.6</ele>
        <time>2015-10-04T09:27:36Z</time>
      </trkpt>
      <trkpt lat="42.83261" lon="2.59042">
        <ele>335.64</ele>
        <time>2015-10-04T09:27:37Z</time>
      </trkpt>
      <trkpt lat="42.83262" lon="2.59029">
        <ele>335.16</ele>
        <time>2015-10-04T09:27:38Z</time>
      </trkpt>
      <trkpt lat="42.83262" lon="2.59017">
        <ele>334.68</ele>
        <time>2015-10-04T09:27:39Z</time>
      </trkpt>
      <trkpt lat="42.83262" lon="2.59004">
        <ele>333.71</ele>
        <time>2015-10-04T09:27:40Z</time>
      </trkpt>
      <trkpt lat="42.83262" lon="2.58968">
        <ele>332.27</ele>
        <time>2015-10-04T09:27:43Z</time>
      </trkpt>
      <trkpt lat="42.83265" lon="2.58957">
        <ele>331.31</ele>
        <time>2015-10-04T09:27:44Z</time>
      </trkpt>
      <trkpt lat="42.83268" lon="2.58948">
        <ele>330.83</ele>
        <time>2015-10-04T09:27:45Z</time>
      </trkpt>
      <trkpt lat="42.83272" lon="2.58942">
        <ele>330.35</ele>
        <time>2015-10-04T09:27:46Z</time>
      </trkpt>
      <trkpt lat="42.83276" lon="2.58935">
        <ele>329.87</ele>
        <time>2015-10-04T09:27:47Z</time>
      </trkpt>
      <trkpt lat="42.83279" lon="2.58929">
        <ele>329.39</ele>
        <time>2015-10-04T09:27:48Z</time>
      </trkpt>
      <trkpt lat="42.8328" lon="2.58922">
        <ele>328.91</ele>
        <time>2015-10-04T09:27:49Z</time>
      </trkpt>
      <trkpt lat="42.8328" lon="2.58914">
        <ele>328.43</ele>
        <time>2015-10-04T09:27:50Z</time>
      </trkpt>
      <trkpt lat="42.83276" lon="2.58906">
        <ele>328.43</ele>
        <time>2015-10-04T09:27:51Z</time>
      </trkpt>
      <trkpt lat="42.83271" lon="2.589">
        <ele>327.47</ele>
        <time>2015-10-04T09:27:52Z</time>
      </trkpt>
      <trkpt lat="42.83263" lon="2.58897">
        <ele>326.5</ele>
        <time>2015-10-04T09:27:53Z</time>
      </trkpt>
      <trkpt lat="42.83255" lon="2.58896">
        <ele>326.02</ele>
        <time>2015-10-04T09:27:54Z</time>
      </trkpt>
      <trkpt lat="42.83246" lon="2.58896">
        <ele>324.58</ele>
        <time>2015-10-04T09:27:55Z</time>
      </trkpt>
      <trkpt lat="42.83238" lon="2.58896">
        <ele>323.14</ele>
        <time>2015-10-04T09:27:56Z</time>
      </trkpt>
      <trkpt lat="42.83231" lon="2.58893">
        <ele>322.18</ele>
        <time>2015-10-04T09:27:57Z</time>
      </trkpt>
      <trkpt lat="42.83225" lon="2.58886">
        <ele>321.7</ele>
        <time>2015-10-04T09:27:58Z</time>
      </trkpt>
      <trkpt lat="42.83221" lon="2.58876">
        <ele>320.74</ele>
        <time>2015-10-04T09:27:59Z</time>
      </trkpt>
      <trkpt lat="42.83219" lon="2.58864">
        <ele>320.26</ele>
        <time>2015-10-04T09:28:00Z</time>
      </trkpt>
      <trkpt lat="42.83216" lon="2.5885">
        <ele>319.3</ele>
        <time>2015-10-04T09:28:01Z</time>
      </trkpt>
      <trkpt lat="42.83201" lon="2.58776">
        <ele>315.45</ele>
        <time>2015-10-04T09:28:06Z</time>
      </trkpt>
      <trkpt lat="42.832" lon="2.58762">
        <ele>314.97</ele>
        <time>2015-10-04T09:28:07Z</time>
      </trkpt>
      <trkpt lat="42.832" lon="2.58748">
        <ele>314.01</ele>
        <time>2015-10-04T09:28:08Z</time>
      </trkpt>
      <trkpt lat="42.83205" lon="2.5869">
        <ele>311.12</ele>
        <time>2015-10-04T09:28:12Z</time>
      </trkpt>
      <trkpt lat="42.83209" lon="2.58677">
        <ele>310.16</ele>
        <time>2015-10-04T09:28:13Z</time>
      </trkpt>
      <trkpt lat="42.83213" lon="2.58664">
        <ele>309.68</ele>
        <time>2015-10-04T09:28:14Z</time>
      </trkpt>
      <trkpt lat="42.83219" lon="2.58652">
        <ele>308.72</ele>
        <time>2015-10-04T09:28:15Z</time>
      </trkpt>
      <trkpt lat="42.83224" lon="2.58641">
        <ele>308.24</ele>
        <time>2015-10-04T09:28:16Z</time>
      </trkpt>
      <trkpt lat="42.8327" lon="2.58524">
        <ele>301.03</ele>
        <time>2015-10-04T09:28:26Z</time>
      </trkpt>
      <trkpt lat="42.83271" lon="2.58513">
        <ele>300.55</ele>
        <time>2015-10-04T09:28:27Z</time>
      </trkpt>
      <trkpt lat="42.83269" lon="2.58502">
        <ele>300.07</ele>
        <time>2015-10-04T09:28:28Z</time>
      </trkpt>
      <trkpt lat="42.83265" lon="2.58493">
        <ele>299.11</ele>
        <time>2015-10-04T09:28:29Z</time>
      </trkpt>
      <trkpt lat="42.8326" lon="2.58484">
        <ele>298.15</ele>
        <time>2015-10-04T09:28:30Z</time>
      </trkpt>
      <trkpt lat="42.83253" lon="2.58476">
        <ele>297.18</ele>
        <time>2015-10-04T09:28:31Z</time>
      </trkpt>
      <trkpt lat="42.83246" lon="2.5847">
        <ele>296.22</ele>
        <time>2015-10-04T09:28:32Z</time>
      </trkpt>
      <trkpt lat="42.83239" lon="2.58465">
        <ele>295.26</ele>
        <time>2015-10-04T09:28:33Z</time>
      </trkpt>
      <trkpt lat="42.8323" lon="2.58461">
        <ele>293.82</ele>
        <time>2015-10-04T09:28:34Z</time>
      </trkpt>
      <trkpt lat="42.83221" lon="2.58461">
        <ele>292.86</ele>
        <time>2015-10-04T09:28:35Z</time>
      </trkpt>
      <trkpt lat="42.83213" lon="2.58463">
        <ele>291.42</ele>
        <time>2015-10-04T09:28:36Z</time>
      </trkpt>
      <trkpt lat="42.83204" lon="2.58468">
        <ele>290.46</ele>
        <time>2015-10-04T09:28:37Z</time>
      </trkpt>
      <trkpt lat="42.83197" lon="2.58475">
        <ele>289.49</ele>
        <time>2015-10-04T09:28:38Z</time>
      </trkpt>
      <trkpt lat="42.83189" lon="2.58484">
        <ele>287.57</ele>
        <time>2015-10-04T09:28:39Z</time>
      </trkpt>
      <trkpt lat="42.83102" lon="2.58575">
        <ele>274.11</ele>
        <time>2015-10-04T09:28:47Z</time>
      </trkpt>
      <trkpt lat="42.82945" lon="2.58726">
        <ele>255.85</ele>
        <time>2015-10-04T09:29:00Z</time>
      </trkpt>
      <trkpt lat="42.82853" lon="2.5878">
        <ele>252</ele>
        <time>2015-10-04T09:29:06Z</time>
      </trkpt>
      <trkpt lat="42.82838" lon="2.58784">
        <ele>251.52</ele>
        <time>2015-10-04T09:29:07Z</time>
      </trkpt>
      <trkpt lat="42.82736" lon="2.58801">
        <ele>247.68</ele>
        <time>2015-10-04T09:29:14Z</time>
      </trkpt>
      <trkpt lat="42.82724" lon="2.58799">
        <ele>246.72</ele>
        <time>2015-10-04T09:29:15Z</time>
      </trkpt>
      <trkpt lat="42.82712" lon="2.58795">
        <ele>245.75</ele>
        <time>2015-10-04T09:29:16Z</time>
      </trkpt>
      <trkpt lat="42.827" lon="2.5879">
        <ele>244.79</ele>
        <time>2015-10-04T09:29:17Z</time>
      </trkpt>
      <trkpt lat="42.8269" lon="2.58782">
        <ele>244.31</ele>
        <time>2015-10-04T09:29:18Z</time>
      </trkpt>
      <trkpt lat="42.82681" lon="2.58773">
        <ele>243.83</ele>
        <time>2015-10-04T09:29:19Z</time>
      </trkpt>
      <trkpt lat="42.82673" lon="2.58761">
        <ele>242.87</ele>
        <time>2015-10-04T09:29:20Z</time>
      </trkpt>
      <trkpt lat="42.82664" lon="2.58749">
        <ele>241.91</ele>
        <time>2015-10-04T09:29:21Z</time>
      </trkpt>
      <trkpt lat="42.82568" lon="2.58661">
        <ele>234.22</ele>
        <time>2015-10-04T09:29:30Z</time>
      </trkpt>
      <trkpt lat="42.82484" lon="2.58615">
        <ele>227.49</ele>
        <time>2015-10-04T09:29:37Z</time>
      </trkpt>
      <trkpt lat="42.82471" lon="2.58613">
        <ele>226.53</ele>
        <time>2015-10-04T09:29:38Z</time>
      </trkpt>
      <trkpt lat="42.82364" lon="2.58616">
        <ele>219.8</ele>
        <time>2015-10-04T09:29:46Z</time>
      </trkpt>
      <trkpt lat="42.82352" lon="2.58619">
        <ele>218.84</ele>
        <time>2015-10-04T09:29:47Z</time>
      </trkpt>
      <trkpt lat="42.82339" lon="2.58624">
        <ele>217.88</ele>
        <time>2015-10-04T09:29:48Z</time>
      </trkpt>
      <trkpt lat="42.82199" lon="2.587">
        <ele>205.86</ele>
        <time>2015-10-04T09:29:58Z</time>
      </trkpt>
      <trkpt lat="42.82049" lon="2.58824">
        <ele>191.44</ele>
        <time>2015-10-04T09:30:09Z</time>
      </trkpt>
      <trkpt lat="42.81892" lon="2.58949">
        <ele>183.75</ele>
        <time>2015-10-04T09:30:21Z</time>
      </trkpt>
      <trkpt lat="42.81794" lon="2.59034">
        <ele>180.87</ele>
        <time>2015-10-04T09:30:30Z</time>
      </trkpt>
      <trkpt lat="42.81781" lon="2.59043">
        <ele>180.87</ele>
        <time>2015-10-04T09:30:31Z</time>
      </trkpt>
      <trkpt lat="42.81759" lon="2.5906">
        <ele>180.38</ele>
        <time>2015-10-04T09:30:33Z</time>
      </trkpt>
      <trkpt lat="42.81749" lon="2.59072">
        <ele>180.38</ele>
        <time>2015-10-04T09:30:34Z</time>
      </trkpt>
      <trkpt lat="42.81672" lon="2.59155">
        <ele>184.23</ele>
        <time>2015-10-04T09:30:40Z</time>
      </trkpt>
      <trkpt lat="42.8165" lon="2.5918">
        <ele>184.71</ele>
        <time>2015-10-04T09:30:42Z</time>
      </trkpt>
      <trkpt lat="42.81643" lon="2.59197">
        <ele>185.19</ele>
        <time>2015-10-04T09:30:43Z</time>
      </trkpt>
      <trkpt lat="42.81636" lon="2.59216">
        <ele>185.67</ele>
        <time>2015-10-04T09:30:44Z</time>
      </trkpt>
      <trkpt lat="42.81631" lon="2.59238">
        <ele>185.67</ele>
        <time>2015-10-04T09:30:45Z</time>
      </trkpt>
      <trkpt lat="42.81626" lon="2.59262">
        <ele>185.67</ele>
        <time>2015-10-04T09:30:46Z</time>
      </trkpt>
      <trkpt lat="42.81576" lon="2.59499">
        <ele>183.27</ele>
        <time>2015-10-04T09:30:57Z</time>
      </trkpt>
      <trkpt lat="42.81505" lon="2.5969">
        <ele>177.5</ele>
        <time>2015-10-04T09:31:08Z</time>
      </trkpt>
      <trkpt lat="42.81476" lon="2.59761">
        <ele>175.1</ele>
        <time>2015-10-04T09:31:14Z</time>
      </trkpt>
      <trkpt lat="42.8147" lon="2.59769">
        <ele>175.1</ele>
        <time>2015-10-04T09:31:15Z</time>
      </trkpt>
      <trkpt lat="42.81464" lon="2.59775">
        <ele>174.62</ele>
        <time>2015-10-04T09:31:16Z</time>
      </trkpt>
      <trkpt lat="42.81448" lon="2.59788">
        <ele>173.66</ele>
        <time>2015-10-04T09:31:19Z</time>
      </trkpt>
      <trkpt lat="42.81443" lon="2.59791">
        <ele>173.17</ele>
        <time>2015-10-04T09:31:20Z</time>
      </trkpt>
      <trkpt lat="42.81437" lon="2.59792">
        <ele>172.69</ele>
        <time>2015-10-04T09:31:21Z</time>
      </trkpt>
      <trkpt lat="42.81432" lon="2.59792">
        <ele>172.21</ele>
        <time>2015-10-04T09:31:22Z</time>
      </trkpt>
      <trkpt lat="42.81427" lon="2.5979">
        <ele>171.25</ele>
        <time>2015-10-04T09:31:23Z</time>
      </trkpt>
      <trkpt lat="42.81421" lon="2.59786">
        <ele>170.77</ele>
        <time>2015-10-04T09:31:24Z</time>
      </trkpt>
      <trkpt lat="42.81416" lon="2.59778">
        <ele>170.29</ele>
        <time>2015-10-04T09:31:25Z</time>
      </trkpt>
      <trkpt lat="42.81412" lon="2.59767">
        <ele>169.81</ele>
        <time>2015-10-04T09:31:26Z</time>
      </trkpt>
      <trkpt lat="42.81409" lon="2.59756">
        <ele>169.81</ele>
        <time>2015-10-04T09:31:27Z</time>
      </trkpt>
      <trkpt lat="42.81406" lon="2.59744">
        <ele>169.33</ele>
        <time>2015-10-04T09:31:28Z</time>
      </trkpt>
      <trkpt lat="42.81395" lon="2.59632">
        <ele>167.41</ele>
        <time>2015-10-04T09:31:38Z</time>
      </trkpt>
      <trkpt lat="42.81385" lon="2.59579">
        <ele>166.45</ele>
        <time>2015-10-04T09:31:43Z</time>
      </trkpt>
      <trkpt lat="42.81381" lon="2.59571">
        <ele>165.96</ele>
        <time>2015-10-04T09:31:44Z</time>
      </trkpt>
      <trkpt lat="42.81376" lon="2.59564">
        <ele>165.48</ele>
        <time>2015-10-04T09:31:45Z</time>
      </trkpt>
      <trkpt lat="42.8137" lon="2.59557">
        <ele>165.96</ele>
        <time>2015-10-04T09:31:46Z</time>
      </trkpt>
      <trkpt lat="42.81363" lon="2.59551">
        <ele>165.48</ele>
        <time>2015-10-04T09:31:47Z</time>
      </trkpt>
      <trkpt lat="42.81289" lon="2.59489">
        <ele>165.48</ele>
        <time>2015-10-04T09:32:00Z</time>
      </trkpt>
      <trkpt lat="42.81273" lon="2.59482">
        <ele>168.85</ele>
        <time>2015-10-04T09:32:10Z</time>
      </trkpt>
      <trkpt lat="42.81255" lon="2.59475">
        <ele>170.29</ele>
        <time>2015-10-04T09:32:20Z</time>
      </trkpt>
      <trkpt lat="42.8125" lon="2.59478">
        <ele>168.85</ele>
        <time>2015-10-04T09:32:21Z</time>
      </trkpt>
      <trkpt lat="42.81245" lon="2.5948">
        <ele>168.37</ele>
        <time>2015-10-04T09:32:22Z</time>
      </trkpt>
      <trkpt lat="42.81167" lon="2.59506">
        <ele>163.56</ele>
        <time>2015-10-04T09:32:32Z</time>
      </trkpt>
      <trkpt lat="42.81139" lon="2.59513">
        <ele>162.12</ele>
        <time>2015-10-04T09:32:35Z</time>
      </trkpt>
      <trkpt lat="42.8113" lon="2.59518">
        <ele>161.16</ele>
        <time>2015-10-04T09:32:36Z</time>
      </trkpt>
      <trkpt lat="42.81123" lon="2.59526">
        <ele>160.2</ele>
        <time>2015-10-04T09:32:37Z</time>
      </trkpt>
      <trkpt lat="42.81108" lon="2.59542">
        <ele>157.79</ele>
        <time>2015-10-04T09:32:39Z</time>
      </trkpt>
      <trkpt lat="42.81099" lon="2.59547">
        <ele>157.31</ele>
        <time>2015-10-04T09:32:40Z</time>
      </trkpt>
      <trkpt lat="42.8109" lon="2.59549">
        <ele>156.83</ele>
        <time>2015-10-04T09:32:41Z</time>
      </trkpt>
      <trkpt lat="42.81082" lon="2.5955">
        <ele>156.35</ele>
        <time>2015-10-04T09:32:42Z</time>
      </trkpt>
      <trkpt lat="42.81074" lon="2.59551">
        <ele>155.87</ele>
        <time>2015-10-04T09:32:43Z</time>
      </trkpt>
      <trkpt lat="42.81028" lon="2.59555">
        <ele>152.03</ele>
        <time>2015-10-04T09:32:51Z</time>
      </trkpt>
      <trkpt lat="42.80989" lon="2.59556">
        <ele>154.43</ele>
        <time>2015-10-04T09:33:02Z</time>
      </trkpt>
      <trkpt lat="42.80989" lon="2.59551">
        <ele>153.95</ele>
        <time>2015-10-04T09:33:18Z</time>
      </trkpt>
      <trkpt lat="42.80988" lon="2.59548">
        <ele>153.95</ele>
        <time>2015-10-04T09:33:19Z</time>
      </trkpt>
      <trkpt lat="42.80988" lon="2.59542">
        <ele>154.43</ele>
        <time>2015-10-04T09:33:20Z</time>
      </trkpt>
      <trkpt lat="42.80989" lon="2.5953">
        <ele>154.43</ele>
        <time>2015-10-04T09:33:21Z</time>
      </trkpt>
      <trkpt lat="42.80994" lon="2.59517">
        <ele>155.87</ele>
        <time>2015-10-04T09:33:22Z</time>
      </trkpt>
      <trkpt lat="42.80995" lon="2.59452">
        <ele>155.39</ele>
        <time>2015-10-04T09:33:30Z</time>
      </trkpt>
      <trkpt lat="42.80993" lon="2.59447">
        <ele>154.91</ele>
        <time>2015-10-04T09:33:41Z</time>
      </trkpt>
      <trkpt lat="42.80994" lon="2.59429">
        <ele>146.74</ele>
        <time>2015-10-04T09:34:05Z</time>
      </trkpt>
      <trkpt lat="42.80996" lon="2.5942">
        <ele>146.74</ele>
        <time>2015-10-04T09:34:06Z</time>
      </trkpt>
      <trkpt lat="42.81" lon="2.59305">
        <ele>152.03</ele>
        <time>2015-10-04T09:34:19Z</time>
      </trkpt>
      <trkpt lat="42.81006" lon="2.59223">
        <ele>153.47</ele>
        <time>2015-10-04T09:34:31Z</time>
      </trkpt>
      <trkpt lat="42.81008" lon="2.59151">
        <ele>155.87</ele>
        <time>2015-10-04T09:34:37Z</time>
      </trkpt>
      <trkpt lat="42.81006" lon="2.59136">
        <ele>156.35</ele>
        <time>2015-10-04T09:34:38Z</time>
      </trkpt>
      <trkpt lat="42.80973" lon="2.58919">
        <ele>161.64</ele>
        <time>2015-10-04T09:34:52Z</time>
      </trkpt>
      <trkpt lat="42.80972" lon="2.58778">
        <ele>162.12</ele>
        <time>2015-10-04T09:35:01Z</time>
      </trkpt>
      <trkpt lat="42.80975" lon="2.58763">
        <ele>162.12</ele>
        <time>2015-10-04T09:35:02Z</time>
      </trkpt>
      <trkpt lat="42.81009" lon="2.58597">
        <ele>165</ele>
        <time>2015-10-04T09:35:11Z</time>
      </trkpt>
      <trkpt lat="42.81031" lon="2.58479">
        <ele>166.45</ele>
        <time>2015-10-04T09:35:19Z</time>
      </trkpt>
      <trkpt lat="42.81043" lon="2.58434">
        <ele>165.48</ele>
        <time>2015-10-04T09:35:24Z</time>
      </trkpt>
      <trkpt lat="42.81047" lon="2.58429">
        <ele>165</ele>
        <time>2015-10-04T09:35:25Z</time>
      </trkpt>
      <trkpt lat="42.81052" lon="2.58423">
        <ele>165.48</ele>
        <time>2015-10-04T09:35:26Z</time>
      </trkpt>
      <trkpt lat="42.81056" lon="2.58415">
        <ele>165</ele>
        <time>2015-10-04T09:35:27Z</time>
      </trkpt>
      <trkpt lat="42.81056" lon="2.58406">
        <ele>165</ele>
        <time>2015-10-04T09:35:28Z</time>
      </trkpt>
      <trkpt lat="42.81054" lon="2.58397">
        <ele>164.52</ele>
        <time>2015-10-04T09:35:29Z</time>
      </trkpt>
      <trkpt lat="42.81051" lon="2.58385">
        <ele>164.52</ele>
        <time>2015-10-04T09:35:30Z</time>
      </trkpt>
      <trkpt lat="42.81051" lon="2.58369">
        <ele>164.04</ele>
        <time>2015-10-04T09:35:31Z</time>
      </trkpt>
      <trkpt lat="42.81054" lon="2.58352">
        <ele>164.04</ele>
        <time>2015-10-04T09:35:32Z</time>
      </trkpt>
      <trkpt lat="42.81058" lon="2.58334">
        <ele>164.52</ele>
        <time>2015-10-04T09:35:33Z</time>
      </trkpt>
      <trkpt lat="42.81086" lon="2.58156">
        <ele>163.56</ele>
        <time>2015-10-04T09:35:43Z</time>
      </trkpt>
      <trkpt lat="42.81086" lon="2.58139">
        <ele>163.56</ele>
        <time>2015-10-04T09:35:44Z</time>
      </trkpt>
      <trkpt lat="42.81061" lon="2.57965">
        <ele>165</ele>
        <time>2015-10-04T09:35:53Z</time>
      </trkpt>
      <trkpt lat="42.81016" lon="2.57797">
        <ele>166.45</ele>
        <time>2015-10-04T09:36:01Z</time>
      </trkpt>
      <trkpt lat="42.81013" lon="2.57773">
        <ele>166.93</ele>
        <time>2015-10-04T09:36:02Z</time>
      </trkpt>
      <trkpt lat="42.81012" lon="2.57747">
        <ele>166.93</ele>
        <time>2015-10-04T09:36:03Z</time>
      </trkpt>
      <trkpt lat="42.81013" lon="2.57721">
        <ele>167.41</ele>
        <time>2015-10-04T09:36:04Z</time>
      </trkpt>
      <trkpt lat="42.81015" lon="2.57693">
        <ele>167.89</ele>
        <time>2015-10-04T09:36:05Z</time>
      </trkpt>
      <trkpt lat="42.81019" lon="2.57664">
        <ele>168.37</ele>
        <time>2015-10-04T09:36:06Z</time>
      </trkpt>
      <trkpt lat="42.81025" lon="2.57634">
        <ele>168.85</ele>
        <time>2015-10-04T09:36:07Z</time>
      </trkpt>
      <trkpt lat="42.81032" lon="2.57604">
        <ele>169.33</ele>
        <time>2015-10-04T09:36:08Z</time>
      </trkpt>
      <trkpt lat="42.81082" lon="2.57393">
        <ele>170.77</ele>
        <time>2015-10-04T09:36:16Z</time>
      </trkpt>
      <trkpt lat="42.81149" lon="2.57114">
        <ele>175.58</ele>
        <time>2015-10-04T09:36:26Z</time>
      </trkpt>
      <trkpt lat="42.81222" lon="2.56809">
        <ele>180.87</ele>
        <time>2015-10-04T09:36:37Z</time>
      </trkpt>
      <trkpt lat="42.81274" lon="2.56526">
        <ele>192.88</ele>
        <time>2015-10-04T09:36:47Z</time>
      </trkpt>
      <trkpt lat="42.81313" lon="2.5617">
        <ele>208.74</ele>
        <time>2015-10-04T09:37:00Z</time>
      </trkpt>
      <trkpt lat="42.81336" lon="2.56055">
        <ele>212.59</ele>
        <time>2015-10-04T09:37:05Z</time>
      </trkpt>
      <trkpt lat="42.81346" lon="2.56033">
        <ele>213.55</ele>
        <time>2015-10-04T09:37:06Z</time>
      </trkpt>
      <trkpt lat="42.81358" lon="2.56012">
        <ele>213.55</ele>
        <time>2015-10-04T09:37:07Z</time>
      </trkpt>
      <trkpt lat="42.81371" lon="2.55993">
        <ele>214.03</ele>
        <time>2015-10-04T09:37:08Z</time>
      </trkpt>
      <trkpt lat="42.81385" lon="2.55974">
        <ele>214.03</ele>
        <time>2015-10-04T09:37:09Z</time>
      </trkpt>
      <trkpt lat="42.81445" lon="2.5588">
        <ele>214.03</ele>
        <time>2015-10-04T09:37:14Z</time>
      </trkpt>
      <trkpt lat="42.81452" lon="2.55861">
        <ele>214.03</ele>
        <time>2015-10-04T09:37:15Z</time>
      </trkpt>
      <trkpt lat="42.81458" lon="2.55841">
        <ele>214.03</ele>
        <time>2015-10-04T09:37:16Z</time>
      </trkpt>
      <trkpt lat="42.81462" lon="2.55817">
        <ele>214.03</ele>
        <time>2015-10-04T09:37:17Z</time>
      </trkpt>
      <trkpt lat="42.81465" lon="2.5579">
        <ele>214.03</ele>
        <time>2015-10-04T09:37:18Z</time>
      </trkpt>
      <trkpt lat="42.81466" lon="2.55761">
        <ele>214.03</ele>
        <time>2015-10-04T09:37:19Z</time>
      </trkpt>
      <trkpt lat="42.81473" lon="2.55532">
        <ele>215.47</ele>
        <time>2015-10-04T09:37:27Z</time>
      </trkpt>
      <trkpt lat="42.8148" lon="2.55231">
        <ele>219.8</ele>
        <time>2015-10-04T09:37:39Z</time>
      </trkpt>
      <trkpt lat="42.81475" lon="2.54969">
        <ele>214.99</ele>
        <time>2015-10-04T09:37:50Z</time>
      </trkpt>
      <trkpt lat="42.81421" lon="2.54787">
        <ele>206.82</ele>
        <time>2015-10-04T09:37:58Z</time>
      </trkpt>
      <trkpt lat="42.81403" lon="2.54626">
        <ele>201.05</ele>
        <time>2015-10-04T09:38:04Z</time>
      </trkpt>
      <trkpt lat="42.81369" lon="2.54353">
        <ele>202.98</ele>
        <time>2015-10-04T09:38:14Z</time>
      </trkpt>
      <trkpt lat="42.81352" lon="2.54207">
        <ele>203.94</ele>
        <time>2015-10-04T09:38:20Z</time>
      </trkpt>
      <trkpt lat="42.81354" lon="2.54182">
        <ele>203.94</ele>
        <time>2015-10-04T09:38:21Z</time>
      </trkpt>
      <trkpt lat="42.81358" lon="2.54157">
        <ele>204.42</ele>
        <time>2015-10-04T09:38:22Z</time>
      </trkpt>
      <trkpt lat="42.81363" lon="2.54132">
        <ele>204.42</ele>
        <time>2015-10-04T09:38:23Z</time>
      </trkpt>
      <trkpt lat="42.81371" lon="2.54109">
        <ele>204.9</ele>
        <time>2015-10-04T09:38:24Z</time>
      </trkpt>
      <trkpt lat="42.81381" lon="2.54089">
        <ele>205.38</ele>
        <time>2015-10-04T09:38:25Z</time>
      </trkpt>
      <trkpt lat="42.81393" lon="2.54069">
        <ele>205.86</ele>
        <time>2015-10-04T09:38:26Z</time>
      </trkpt>
      <trkpt lat="42.81405" lon="2.5405">
        <ele>206.34</ele>
        <time>2015-10-04T09:38:27Z</time>
      </trkpt>
      <trkpt lat="42.81483" lon="2.53892">
        <ele>209.22</ele>
        <time>2015-10-04T09:38:35Z</time>
      </trkpt>
      <trkpt lat="42.81506" lon="2.53814">
        <ele>210.67</ele>
        <time>2015-10-04T09:38:39Z</time>
      </trkpt>
      <trkpt lat="42.81508" lon="2.53792">
        <ele>211.63</ele>
        <time>2015-10-04T09:38:40Z</time>
      </trkpt>
      <trkpt lat="42.81508" lon="2.53768">
        <ele>212.11</ele>
        <time>2015-10-04T09:38:41Z</time>
      </trkpt>
      <trkpt lat="42.81507" lon="2.53745">
        <ele>213.07</ele>
        <time>2015-10-04T09:38:42Z</time>
      </trkpt>
      <trkpt lat="42.81505" lon="2.5372">
        <ele>213.55</ele>
        <time>2015-10-04T09:38:43Z</time>
      </trkpt>
      <trkpt lat="42.81509" lon="2.53551">
        <ele>213.07</ele>
        <time>2015-10-04T09:38:49Z</time>
      </trkpt>
      <trkpt lat="42.81532" lon="2.53374">
        <ele>214.03</ele>
        <time>2015-10-04T09:38:56Z</time>
      </trkpt>
      <trkpt lat="42.81573" lon="2.53169">
        <ele>215.95</ele>
        <time>2015-10-04T09:39:05Z</time>
      </trkpt>
      <trkpt lat="42.81575" lon="2.53145">
        <ele>216.91</ele>
        <time>2015-10-04T09:39:06Z</time>
      </trkpt>
      <trkpt lat="42.81575" lon="2.53119">
        <ele>216.91</ele>
        <time>2015-10-04T09:39:07Z</time>
      </trkpt>
      <trkpt lat="42.81559" lon="2.52891">
        <ele>222.2</ele>
        <time>2015-10-04T09:39:15Z</time>
      </trkpt>
      <trkpt lat="42.81555" lon="2.52866">
        <ele>222.68</ele>
        <time>2015-10-04T09:39:16Z</time>
      </trkpt>
      <trkpt lat="42.8155" lon="2.52842">
        <ele>222.68</ele>
        <time>2015-10-04T09:39:17Z</time>
      </trkpt>
      <trkpt lat="42.81535" lon="2.527">
        <ele>222.2</ele>
        <time>2015-10-04T09:39:23Z</time>
      </trkpt>
      <trkpt lat="42.81526" lon="2.52363">
        <ele>225.57</ele>
        <time>2015-10-04T09:39:36Z</time>
      </trkpt>
      <trkpt lat="42.81493" lon="2.52218">
        <ele>227.97</ele>
        <time>2015-10-04T09:39:43Z</time>
      </trkpt>
      <trkpt lat="42.81491" lon="2.52198">
        <ele>227.97</ele>
        <time>2015-10-04T09:39:44Z</time>
      </trkpt>
      <trkpt lat="42.81491" lon="2.52177">
        <ele>228.45</ele>
        <time>2015-10-04T09:39:45Z</time>
      </trkpt>
      <trkpt lat="42.81495" lon="2.51986">
        <ele>235.18</ele>
        <time>2015-10-04T09:39:53Z</time>
      </trkpt>
      <trkpt lat="42.81486" lon="2.51916">
        <ele>238.54</ele>
        <time>2015-10-04T09:39:56Z</time>
      </trkpt>
      <trkpt lat="42.81479" lon="2.51894">
        <ele>239.51</ele>
        <time>2015-10-04T09:39:57Z</time>
      </trkpt>
      <trkpt lat="42.81436" lon="2.51769">
        <ele>244.31</ele>
        <time>2015-10-04T09:40:04Z</time>
      </trkpt>
      <trkpt lat="42.81407" lon="2.51666">
        <ele>249.12</ele>
        <time>2015-10-04T09:40:13Z</time>
      </trkpt>
      <trkpt lat="42.81382" lon="2.51579">
        <ele>252.96</ele>
        <time>2015-10-04T09:40:20Z</time>
      </trkpt>
      <trkpt lat="42.81338" lon="2.51451">
        <ele>257.29</ele>
        <time>2015-10-04T09:40:29Z</time>
      </trkpt>
      <trkpt lat="42.81288" lon="2.51325">
        <ele>261.62</ele>
        <time>2015-10-04T09:40:39Z</time>
      </trkpt>
      <trkpt lat="42.8126" lon="2.51244">
        <ele>264.5</ele>
        <time>2015-10-04T09:40:45Z</time>
      </trkpt>
      <trkpt lat="42.81251" lon="2.51214">
        <ele>265.46</ele>
        <time>2015-10-04T09:40:47Z</time>
      </trkpt>
      <trkpt lat="42.81244" lon="2.51201">
        <ele>266.42</ele>
        <time>2015-10-04T09:40:48Z</time>
      </trkpt>
      <trkpt lat="42.81235" lon="2.51188">
        <ele>266.9</ele>
        <time>2015-10-04T09:40:49Z</time>
      </trkpt>
      <trkpt lat="42.81216" lon="2.51164">
        <ele>267.38</ele>
        <time>2015-10-04T09:40:51Z</time>
      </trkpt>
      <trkpt lat="42.81209" lon="2.51148">
        <ele>267.86</ele>
        <time>2015-10-04T09:40:52Z</time>
      </trkpt>
      <trkpt lat="42.81204" lon="2.5113">
        <ele>268.35</ele>
        <time>2015-10-04T09:40:53Z</time>
      </trkpt>
      <trkpt lat="42.812" lon="2.51112">
        <ele>269.31</ele>
        <time>2015-10-04T09:40:54Z</time>
      </trkpt>
      <trkpt lat="42.81197" lon="2.51096">
        <ele>269.79</ele>
        <time>2015-10-04T09:40:55Z</time>
      </trkpt>
      <trkpt lat="42.81174" lon="2.51023">
        <ele>272.67</ele>
        <time>2015-10-04T09:41:02Z</time>
      </trkpt>
      <trkpt lat="42.81162" lon="2.50994">
        <ele>273.63</ele>
        <time>2015-10-04T09:41:06Z</time>
      </trkpt>
      <trkpt lat="42.8116" lon="2.50985">
        <ele>273.63</ele>
        <time>2015-10-04T09:41:07Z</time>
      </trkpt>
      <trkpt lat="42.8116" lon="2.50977">
        <ele>273.15</ele>
        <time>2015-10-04T09:41:08Z</time>
      </trkpt>
      <trkpt lat="42.81163" lon="2.50969">
        <ele>273.15</ele>
        <time>2015-10-04T09:41:09Z</time>
      </trkpt>
      <trkpt lat="42.81173" lon="2.50956">
        <ele>273.15</ele>
        <time>2015-10-04T09:41:11Z</time>
      </trkpt>
      <trkpt lat="42.81177" lon="2.50946">
        <ele>273.15</ele>
        <time>2015-10-04T09:41:12Z</time>
      </trkpt>
      <trkpt lat="42.81177" lon="2.50935">
        <ele>273.15</ele>
        <time>2015-10-04T09:41:13Z</time>
      </trkpt>
      <trkpt lat="42.81174" lon="2.50923">
        <ele>272.67</ele>
        <time>2015-10-04T09:41:14Z</time>
      </trkpt>
      <trkpt lat="42.81168" lon="2.5091">
        <ele>272.67</ele>
        <time>2015-10-04T09:41:15Z</time>
      </trkpt>
      <trkpt lat="42.81162" lon="2.50896">
        <ele>272.67</ele>
        <time>2015-10-04T09:41:16Z</time>
      </trkpt>
      <trkpt lat="42.81152" lon="2.50867">
        <ele>272.19</ele>
        <time>2015-10-04T09:41:18Z</time>
      </trkpt>
      <trkpt lat="42.81148" lon="2.50852">
        <ele>272.19</ele>
        <time>2015-10-04T09:41:19Z</time>
      </trkpt>
      <trkpt lat="42.81146" lon="2.50836">
        <ele>271.71</ele>
        <time>2015-10-04T09:41:20Z</time>
      </trkpt>
      <trkpt lat="42.81151" lon="2.50694">
        <ele>268.35</ele>
        <time>2015-10-04T09:41:30Z</time>
      </trkpt>
      <trkpt lat="42.81163" lon="2.50626">
        <ele>265.46</ele>
        <time>2015-10-04T09:41:36Z</time>
      </trkpt>
      <trkpt lat="42.81164" lon="2.50614">
        <ele>265.46</ele>
        <time>2015-10-04T09:41:37Z</time>
      </trkpt>
      <trkpt lat="42.81164" lon="2.50603">
        <ele>265.46</ele>
        <time>2015-10-04T09:41:38Z</time>
      </trkpt>
      <trkpt lat="42.81162" lon="2.50591">
        <ele>265.46</ele>
        <time>2015-10-04T09:41:39Z</time>
      </trkpt>
      <trkpt lat="42.81161" lon="2.5058">
        <ele>265.46</ele>
        <time>2015-10-04T09:41:40Z</time>
      </trkpt>
      <trkpt lat="42.81146" lon="2.50486">
        <ele>263.54</ele>
        <time>2015-10-04T09:41:49Z</time>
      </trkpt>
      <trkpt lat="42.81145" lon="2.50478">
        <ele>263.54</ele>
        <time>2015-10-04T09:41:50Z</time>
      </trkpt>
      <trkpt lat="42.81133" lon="2.50398">
        <ele>261.62</ele>
        <time>2015-10-04T09:42:01Z</time>
      </trkpt>
      <trkpt lat="42.81129" lon="2.50378">
        <ele>262.1</ele>
        <time>2015-10-04T09:42:04Z</time>
      </trkpt>
      <trkpt lat="42.81127" lon="2.50372">
        <ele>261.62</ele>
        <time>2015-10-04T09:42:05Z</time>
      </trkpt>
      <trkpt lat="42.81127" lon="2.50366">
        <ele>263.06</ele>
        <time>2015-10-04T09:42:06Z</time>
      </trkpt>
      <trkpt lat="42.81126" lon="2.50361">
        <ele>262.1</ele>
        <time>2015-10-04T09:42:07Z</time>
      </trkpt>
      <trkpt lat="42.81128" lon="2.50357">
        <ele>262.58</ele>
        <time>2015-10-04T09:42:08Z</time>
      </trkpt>
      <trkpt lat="42.81129" lon="2.50353">
        <ele>262.58</ele>
        <time>2015-10-04T09:42:09Z</time>
      </trkpt>
      <trkpt lat="42.81131" lon="2.50349">
        <ele>263.06</ele>
        <time>2015-10-04T09:42:10Z</time>
      </trkpt>
      <trkpt lat="42.81147" lon="2.50319">
        <ele>262.1</ele>
        <time>2015-10-04T09:42:16Z</time>
      </trkpt>
      <trkpt lat="42.81151" lon="2.50314">
        <ele>261.62</ele>
        <time>2015-10-04T09:42:17Z</time>
      </trkpt>
      <trkpt lat="42.81156" lon="2.50312">
        <ele>262.58</ele>
        <time>2015-10-04T09:42:18Z</time>
      </trkpt>
      <trkpt lat="42.8116" lon="2.50313">
        <ele>263.06</ele>
        <time>2015-10-04T09:42:19Z</time>
      </trkpt>
      <trkpt lat="42.81168" lon="2.50313">
        <ele>264.02</ele>
        <time>2015-10-04T09:42:20Z</time>
      </trkpt>
      <trkpt lat="42.81173" lon="2.50313">
        <ele>264.98</ele>
        <time>2015-10-04T09:42:21Z</time>
      </trkpt>
      <trkpt lat="42.81224" lon="2.50315">
        <ele>270.27</ele>
        <time>2015-10-04T09:42:29Z</time>
      </trkpt>
      <trkpt lat="42.81229" lon="2.50311">
        <ele>269.79</ele>
        <time>2015-10-04T09:42:30Z</time>
      </trkpt>
      <trkpt lat="42.81233" lon="2.50303">
        <ele>268.83</ele>
        <time>2015-10-04T09:42:31Z</time>
      </trkpt>
      <trkpt lat="42.81234" lon="2.50291">
        <ele>267.86</ele>
        <time>2015-10-04T09:42:32Z</time>
      </trkpt>
      <trkpt lat="42.81236" lon="2.50281">
        <ele>267.38</ele>
        <time>2015-10-04T09:42:33Z</time>
      </trkpt>
      <trkpt lat="42.81239" lon="2.50271">
        <ele>267.38</ele>
        <time>2015-10-04T09:42:34Z</time>
      </trkpt>
      <trkpt lat="42.81251" lon="2.50234">
        <ele>267.38</ele>
        <time>2015-10-04T09:42:38Z</time>
      </trkpt>
      <trkpt lat="42.81255" lon="2.50228">
        <ele>267.38</ele>
        <time>2015-10-04T09:42:39Z</time>
      </trkpt>
      <trkpt lat="42.81259" lon="2.50223">
        <ele>266.9</ele>
        <time>2015-10-04T09:42:40Z</time>
      </trkpt>
      <trkpt lat="42.81263" lon="2.50219">
        <ele>266.9</ele>
        <time>2015-10-04T09:42:41Z</time>
      </trkpt>
      <trkpt lat="42.81269" lon="2.50219">
        <ele>266.9</ele>
        <time>2015-10-04T09:42:42Z</time>
      </trkpt>
      <trkpt lat="42.81275" lon="2.50221">
        <ele>267.38</ele>
        <time>2015-10-04T09:42:43Z</time>
      </trkpt>
      <trkpt lat="42.81282" lon="2.50223">
        <ele>267.38</ele>
        <time>2015-10-04T09:42:44Z</time>
      </trkpt>
      <trkpt lat="42.81289" lon="2.50227">
        <ele>267.86</ele>
        <time>2015-10-04T09:42:45Z</time>
      </trkpt>
      <trkpt lat="42.81297" lon="2.50233">
        <ele>267.38</ele>
        <time>2015-10-04T09:42:46Z</time>
      </trkpt>
      <trkpt lat="42.81312" lon="2.50239">
        <ele>265.94</ele>
        <time>2015-10-04T09:42:48Z</time>
      </trkpt>
      <trkpt lat="42.81319" lon="2.50239">
        <ele>265.94</ele>
        <time>2015-10-04T09:42:49Z</time>
      </trkpt>
      <trkpt lat="42.81325" lon="2.50237">
        <ele>265.94</ele>
        <time>2015-10-04T09:42:50Z</time>
      </trkpt>
      <trkpt lat="42.81332" lon="2.50231">
        <ele>265.94</ele>
        <time>2015-10-04T09:42:51Z</time>
      </trkpt>
      <trkpt lat="42.81337" lon="2.50223">
        <ele>265.46</ele>
        <time>2015-10-04T09:42:52Z</time>
      </trkpt>
      <trkpt lat="42.81342" lon="2.50215">
        <ele>265.94</ele>
        <time>2015-10-04T09:42:53Z</time>
      </trkpt>
      <trkpt lat="42.81356" lon="2.50196">
        <ele>265.46</ele>
        <time>2015-10-04T09:42:56Z</time>
      </trkpt>
      <trkpt lat="42.81362" lon="2.50193">
        <ele>265.46</ele>
        <time>2015-10-04T09:42:57Z</time>
      </trkpt>
      <trkpt lat="42.81368" lon="2.50192">
        <ele>264.98</ele>
        <time>2015-10-04T09:42:58Z</time>
      </trkpt>
      <trkpt lat="42.81373" lon="2.50193">
        <ele>264.5</ele>
        <time>2015-10-04T09:42:59Z</time>
      </trkpt>
      <trkpt lat="42.81378" lon="2.50193">
        <ele>264.5</ele>
        <time>2015-10-04T09:43:00Z</time>
      </trkpt>
      <trkpt lat="42.81385" lon="2.50193">
        <ele>264.02</ele>
        <time>2015-10-04T09:43:01Z</time>
      </trkpt>
      <trkpt lat="42.81391" lon="2.50189">
        <ele>264.02</ele>
        <time>2015-10-04T09:43:02Z</time>
      </trkpt>
      <trkpt lat="42.81397" lon="2.50179">
        <ele>264.02</ele>
        <time>2015-10-04T09:43:03Z</time>
      </trkpt>
      <trkpt lat="42.81404" lon="2.50168">
        <ele>264.02</ele>
        <time>2015-10-04T09:43:04Z</time>
      </trkpt>
      <trkpt lat="42.81411" lon="2.50157">
        <ele>264.02</ele>
        <time>2015-10-04T09:43:05Z</time>
      </trkpt>
      <trkpt lat="42.81422" lon="2.50146">
        <ele>264.02</ele>
        <time>2015-10-04T09:43:06Z</time>
      </trkpt>
      <trkpt lat="42.81434" lon="2.50135">
        <ele>263.54</ele>
        <time>2015-10-04T09:43:07Z</time>
      </trkpt>
      <trkpt lat="42.81449" lon="2.50124">
        <ele>263.54</ele>
        <time>2015-10-04T09:43:08Z</time>
      </trkpt>
      <trkpt lat="42.81465" lon="2.50114">
        <ele>264.02</ele>
        <time>2015-10-04T09:43:09Z</time>
      </trkpt>
      <trkpt lat="42.81605" lon="2.50021">
        <ele>263.06</ele>
        <time>2015-10-04T09:43:18Z</time>
      </trkpt>
      <trkpt lat="42.81724" lon="2.49931">
        <ele>263.06</ele>
        <time>2015-10-04T09:43:24Z</time>
      </trkpt>
      <trkpt lat="42.8184" lon="2.49822">
        <ele>266.42</ele>
        <time>2015-10-04T09:43:31Z</time>
      </trkpt>
      <trkpt lat="42.81975" lon="2.49762">
        <ele>274.11</ele>
        <time>2015-10-04T09:43:39Z</time>
      </trkpt>
      <trkpt lat="42.81991" lon="2.49757">
        <ele>275.07</ele>
        <time>2015-10-04T09:43:40Z</time>
      </trkpt>
      <trkpt lat="42.82007" lon="2.49754">
        <ele>275.56</ele>
        <time>2015-10-04T09:43:41Z</time>
      </trkpt>
      <trkpt lat="42.82022" lon="2.49754">
        <ele>276.04</ele>
        <time>2015-10-04T09:43:42Z</time>
      </trkpt>
      <trkpt lat="42.8205" lon="2.49755">
        <ele>277</ele>
        <time>2015-10-04T09:43:44Z</time>
      </trkpt>
      <trkpt lat="42.82064" lon="2.49759">
        <ele>277.48</ele>
        <time>2015-10-04T09:43:45Z</time>
      </trkpt>
      <trkpt lat="42.82109" lon="2.49783">
        <ele>279.4</ele>
        <time>2015-10-04T09:43:48Z</time>
      </trkpt>
      <trkpt lat="42.8214" lon="2.49799">
        <ele>280.84</ele>
        <time>2015-10-04T09:43:50Z</time>
      </trkpt>
      <trkpt lat="42.82156" lon="2.49804">
        <ele>281.32</ele>
        <time>2015-10-04T09:43:51Z</time>
      </trkpt>
      <trkpt lat="42.82173" lon="2.49806">
        <ele>281.8</ele>
        <time>2015-10-04T09:43:52Z</time>
      </trkpt>
      <trkpt lat="42.8231" lon="2.49805">
        <ele>284.69</ele>
        <time>2015-10-04T09:44:00Z</time>
      </trkpt>
      <trkpt lat="42.82327" lon="2.49799">
        <ele>285.17</ele>
        <time>2015-10-04T09:44:01Z</time>
      </trkpt>
      <trkpt lat="42.82344" lon="2.4979">
        <ele>285.65</ele>
        <time>2015-10-04T09:44:02Z</time>
      </trkpt>
      <trkpt lat="42.82428" lon="2.49747">
        <ele>287.57</ele>
        <time>2015-10-04T09:44:07Z</time>
      </trkpt>
      <trkpt lat="42.82442" lon="2.49744">
        <ele>287.57</ele>
        <time>2015-10-04T09:44:08Z</time>
      </trkpt>
      <trkpt lat="42.82455" lon="2.49743">
        <ele>287.57</ele>
        <time>2015-10-04T09:44:09Z</time>
      </trkpt>
      <trkpt lat="42.82468" lon="2.49746">
        <ele>288.05</ele>
        <time>2015-10-04T09:44:10Z</time>
      </trkpt>
      <trkpt lat="42.8248" lon="2.49748">
        <ele>288.05</ele>
        <time>2015-10-04T09:44:11Z</time>
      </trkpt>
      <trkpt lat="42.82492" lon="2.49748">
        <ele>288.53</ele>
        <time>2015-10-04T09:44:12Z</time>
      </trkpt>
      <trkpt lat="42.82504" lon="2.49741">
        <ele>288.53</ele>
        <time>2015-10-04T09:44:13Z</time>
      </trkpt>
      <trkpt lat="42.82515" lon="2.49731">
        <ele>289.01</ele>
        <time>2015-10-04T09:44:14Z</time>
      </trkpt>
      <trkpt lat="42.82526" lon="2.49719">
        <ele>289.01</ele>
        <time>2015-10-04T09:44:15Z</time>
      </trkpt>
      <trkpt lat="42.82537" lon="2.49709">
        <ele>289.49</ele>
        <time>2015-10-04T09:44:16Z</time>
      </trkpt>
      <trkpt lat="42.8255" lon="2.49702">
        <ele>289.97</ele>
        <time>2015-10-04T09:44:17Z</time>
      </trkpt>
      <trkpt lat="42.82655" lon="2.4965">
        <ele>294.78</ele>
        <time>2015-10-04T09:44:24Z</time>
      </trkpt>
      <trkpt lat="42.82666" lon="2.49644">
        <ele>295.26</ele>
        <time>2015-10-04T09:44:25Z</time>
      </trkpt>
      <trkpt lat="42.82677" lon="2.49634">
        <ele>295.74</ele>
        <time>2015-10-04T09:44:26Z</time>
      </trkpt>
      <trkpt lat="42.82688" lon="2.49622">
        <ele>296.7</ele>
        <time>2015-10-04T09:44:27Z</time>
      </trkpt>
      <trkpt lat="42.827" lon="2.4961">
        <ele>297.67</ele>
        <time>2015-10-04T09:44:28Z</time>
      </trkpt>
      <trkpt lat="42.82714" lon="2.49599">
        <ele>298.63</ele>
        <time>2015-10-04T09:44:29Z</time>
      </trkpt>
      <trkpt lat="42.82726" lon="2.4959">
        <ele>299.59</ele>
        <time>2015-10-04T09:44:30Z</time>
      </trkpt>
      <trkpt lat="42.82737" lon="2.49583">
        <ele>300.55</ele>
        <time>2015-10-04T09:44:31Z</time>
      </trkpt>
      <trkpt lat="42.82748" lon="2.4958">
        <ele>301.03</ele>
        <time>2015-10-04T09:44:32Z</time>
      </trkpt>
      <trkpt lat="42.82759" lon="2.49579">
        <ele>301.99</ele>
        <time>2015-10-04T09:44:33Z</time>
      </trkpt>
      <trkpt lat="42.82771" lon="2.4958">
        <ele>302.95</ele>
        <time>2015-10-04T09:44:34Z</time>
      </trkpt>
      <trkpt lat="42.82783" lon="2.49585">
        <ele>303.91</ele>
        <time>2015-10-04T09:44:35Z</time>
      </trkpt>
      <trkpt lat="42.82796" lon="2.49592">
        <ele>304.39</ele>
        <time>2015-10-04T09:44:36Z</time>
      </trkpt>
      <trkpt lat="42.82807" lon="2.49601">
        <ele>304.39</ele>
        <time>2015-10-04T09:44:37Z</time>
      </trkpt>
      <trkpt lat="42.82818" lon="2.49612">
        <ele>304.88</ele>
        <time>2015-10-04T09:44:38Z</time>
      </trkpt>
      <trkpt lat="42.82828" lon="2.49625">
        <ele>305.36</ele>
        <time>2015-10-04T09:44:39Z</time>
      </trkpt>
      <trkpt lat="42.82837" lon="2.4964">
        <ele>306.32</ele>
        <time>2015-10-04T09:44:40Z</time>
      </trkpt>
      <trkpt lat="42.82866" lon="2.49681">
        <ele>308.24</ele>
        <time>2015-10-04T09:44:43Z</time>
      </trkpt>
      <trkpt lat="42.82878" lon="2.49691">
        <ele>308.72</ele>
        <time>2015-10-04T09:44:44Z</time>
      </trkpt>
      <trkpt lat="42.82892" lon="2.497">
        <ele>309.2</ele>
        <time>2015-10-04T09:44:45Z</time>
      </trkpt>
      <trkpt lat="42.82907" lon="2.49706">
        <ele>310.16</ele>
        <time>2015-10-04T09:44:46Z</time>
      </trkpt>
      <trkpt lat="42.82922" lon="2.49712">
        <ele>310.64</ele>
        <time>2015-10-04T09:44:47Z</time>
      </trkpt>
      <trkpt lat="42.82988" lon="2.49732">
        <ele>314.01</ele>
        <time>2015-10-04T09:44:52Z</time>
      </trkpt>
      <trkpt lat="42.82997" lon="2.49741">
        <ele>314.97</ele>
        <time>2015-10-04T09:44:53Z</time>
      </trkpt>
      <trkpt lat="42.83006" lon="2.4975">
        <ele>315.93</ele>
        <time>2015-10-04T09:44:54Z</time>
      </trkpt>
      <trkpt lat="42.83016" lon="2.49758">
        <ele>316.41</ele>
        <time>2015-10-04T09:44:55Z</time>
      </trkpt>
      <trkpt lat="42.83027" lon="2.49762">
        <ele>317.37</ele>
        <time>2015-10-04T09:44:56Z</time>
      </trkpt>
      <trkpt lat="42.83041" lon="2.49762">
        <ele>318.33</ele>
        <time>2015-10-04T09:44:57Z</time>
      </trkpt>
      <trkpt lat="42.83054" lon="2.4976">
        <ele>318.81</ele>
        <time>2015-10-04T09:44:58Z</time>
      </trkpt>
      <trkpt lat="42.83068" lon="2.49756">
        <ele>319.78</ele>
        <time>2015-10-04T09:44:59Z</time>
      </trkpt>
      <trkpt lat="42.8308" lon="2.49752">
        <ele>320.26</ele>
        <time>2015-10-04T09:45:00Z</time>
      </trkpt>
      <trkpt lat="42.83091" lon="2.49746">
        <ele>321.22</ele>
        <time>2015-10-04T09:45:01Z</time>
      </trkpt>
      <trkpt lat="42.83099" lon="2.49739">
        <ele>321.7</ele>
        <time>2015-10-04T09:45:02Z</time>
      </trkpt>
      <trkpt lat="42.83108" lon="2.49732">
        <ele>322.66</ele>
        <time>2015-10-04T09:45:03Z</time>
      </trkpt>
      <trkpt lat="42.83116" lon="2.49726">
        <ele>323.14</ele>
        <time>2015-10-04T09:45:04Z</time>
      </trkpt>
      <trkpt lat="42.83126" lon="2.49724">
        <ele>323.62</ele>
        <time>2015-10-04T09:45:05Z</time>
      </trkpt>
      <trkpt lat="42.83135" lon="2.49724">
        <ele>324.58</ele>
        <time>2015-10-04T09:45:06Z</time>
      </trkpt>
      <trkpt lat="42.83145" lon="2.49728">
        <ele>325.06</ele>
        <time>2015-10-04T09:45:07Z</time>
      </trkpt>
      <trkpt lat="42.83154" lon="2.49732">
        <ele>326.02</ele>
        <time>2015-10-04T09:45:08Z</time>
      </trkpt>
      <trkpt lat="42.83163" lon="2.49735">
        <ele>326.99</ele>
        <time>2015-10-04T09:45:09Z</time>
      </trkpt>
      <trkpt lat="42.83172" lon="2.49736">
        <ele>326.99</ele>
        <time>2015-10-04T09:45:10Z</time>
      </trkpt>
      <trkpt lat="42.8318" lon="2.49734">
        <ele>327.95</ele>
        <time>2015-10-04T09:45:11Z</time>
      </trkpt>
      <trkpt lat="42.83188" lon="2.49728">
        <ele>328.43</ele>
        <time>2015-10-04T09:45:12Z</time>
      </trkpt>
      <trkpt lat="42.83193" lon="2.49718">
        <ele>328.91</ele>
        <time>2015-10-04T09:45:13Z</time>
      </trkpt>
      <trkpt lat="42.83195" lon="2.49706">
        <ele>329.39</ele>
        <time>2015-10-04T09:45:14Z</time>
      </trkpt>
      <trkpt lat="42.83193" lon="2.49693">
        <ele>329.87</ele>
        <time>2015-10-04T09:45:15Z</time>
      </trkpt>
      <trkpt lat="42.83188" lon="2.4968">
        <ele>330.35</ele>
        <time>2015-10-04T09:45:16Z</time>
      </trkpt>
      <trkpt lat="42.83185" lon="2.49668">
        <ele>330.83</ele>
        <time>2015-10-04T09:45:17Z</time>
      </trkpt>
      <trkpt lat="42.83185" lon="2.49657">
        <ele>331.79</ele>
        <time>2015-10-04T09:45:18Z</time>
      </trkpt>
      <trkpt lat="42.83189" lon="2.49647">
        <ele>333.23</ele>
        <time>2015-10-04T09:45:19Z</time>
      </trkpt>
      <trkpt lat="42.83196" lon="2.49639">
        <ele>334.2</ele>
        <time>2015-10-04T09:45:20Z</time>
      </trkpt>
      <trkpt lat="42.83205" lon="2.49632">
        <ele>334.68</ele>
        <time>2015-10-04T09:45:21Z</time>
      </trkpt>
      <trkpt lat="42.83216" lon="2.4962">
        <ele>335.64</ele>
        <time>2015-10-04T09:45:22Z</time>
      </trkpt>
      <trkpt lat="42.83226" lon="2.49605">
        <ele>336.6</ele>
        <time>2015-10-04T09:45:23Z</time>
      </trkpt>
      <trkpt lat="42.83235" lon="2.49586">
        <ele>337.56</ele>
        <time>2015-10-04T09:45:24Z</time>
      </trkpt>
      <trkpt lat="42.83244" lon="2.49566">
        <ele>339</ele>
        <time>2015-10-04T09:45:25Z</time>
      </trkpt>
      <trkpt lat="42.83295" lon="2.49482">
        <ele>344.29</ele>
        <time>2015-10-04T09:45:30Z</time>
      </trkpt>
      <trkpt lat="42.8332" lon="2.49445">
        <ele>347.17</ele>
        <time>2015-10-04T09:45:33Z</time>
      </trkpt>
      <trkpt lat="42.83329" lon="2.49438">
        <ele>347.65</ele>
        <time>2015-10-04T09:45:34Z</time>
      </trkpt>
      <trkpt lat="42.83338" lon="2.49434">
        <ele>348.62</ele>
        <time>2015-10-04T09:45:35Z</time>
      </trkpt>
      <trkpt lat="42.83346" lon="2.49429">
        <ele>349.1</ele>
        <time>2015-10-04T09:45:36Z</time>
      </trkpt>
      <trkpt lat="42.83352" lon="2.49419">
        <ele>350.06</ele>
        <time>2015-10-04T09:45:37Z</time>
      </trkpt>
      <trkpt lat="42.83354" lon="2.49404">
        <ele>351.02</ele>
        <time>2015-10-04T09:45:38Z</time>
      </trkpt>
      <trkpt lat="42.83356" lon="2.49388">
        <ele>352.46</ele>
        <time>2015-10-04T09:45:39Z</time>
      </trkpt>
      <trkpt lat="42.83365" lon="2.49347">
        <ele>354.86</ele>
        <time>2015-10-04T09:45:42Z</time>
      </trkpt>
      <trkpt lat="42.83371" lon="2.49336">
        <ele>355.83</ele>
        <time>2015-10-04T09:45:43Z</time>
      </trkpt>
      <trkpt lat="42.83379" lon="2.4933">
        <ele>355.83</ele>
        <time>2015-10-04T09:45:44Z</time>
      </trkpt>
      <trkpt lat="42.83388" lon="2.49323">
        <ele>356.79</ele>
        <time>2015-10-04T09:45:45Z</time>
      </trkpt>
      <trkpt lat="42.83396" lon="2.49315">
        <ele>357.27</ele>
        <time>2015-10-04T09:45:46Z</time>
      </trkpt>
      <trkpt lat="42.834" lon="2.49301">
        <ele>358.23</ele>
        <time>2015-10-04T09:45:47Z</time>
      </trkpt>
      <trkpt lat="42.83402" lon="2.49286">
        <ele>359.19</ele>
        <time>2015-10-04T09:45:48Z</time>
      </trkpt>
      <trkpt lat="42.83405" lon="2.49271">
        <ele>360.15</ele>
        <time>2015-10-04T09:45:49Z</time>
      </trkpt>
      <trkpt lat="42.83409" lon="2.49256">
        <ele>361.11</ele>
        <time>2015-10-04T09:45:50Z</time>
      </trkpt>
      <trkpt lat="42.83415" lon="2.49241">
        <ele>362.07</ele>
        <time>2015-10-04T09:45:51Z</time>
      </trkpt>
      <trkpt lat="42.83423" lon="2.49228">
        <ele>363.04</ele>
        <time>2015-10-04T09:45:52Z</time>
      </trkpt>
      <trkpt lat="42.83432" lon="2.49216">
        <ele>364</ele>
        <time>2015-10-04T09:45:53Z</time>
      </trkpt>
      <trkpt lat="42.83443" lon="2.49206">
        <ele>364.96</ele>
        <time>2015-10-04T09:45:54Z</time>
      </trkpt>
      <trkpt lat="42.83453" lon="2.49197">
        <ele>365.92</ele>
        <time>2015-10-04T09:45:55Z</time>
      </trkpt>
      <trkpt lat="42.83464" lon="2.49191">
        <ele>366.4</ele>
        <time>2015-10-04T09:45:56Z</time>
      </trkpt>
      <trkpt lat="42.83475" lon="2.49188">
        <ele>367.36</ele>
        <time>2015-10-04T09:45:57Z</time>
      </trkpt>
      <trkpt lat="42.83487" lon="2.49188">
        <ele>367.84</ele>
        <time>2015-10-04T09:45:58Z</time>
      </trkpt>
      <trkpt lat="42.83499" lon="2.49189">
        <ele>368.8</ele>
        <time>2015-10-04T09:45:59Z</time>
      </trkpt>
      <trkpt lat="42.83511" lon="2.49192">
        <ele>369.76</ele>
        <time>2015-10-04T09:46:00Z</time>
      </trkpt>
      <trkpt lat="42.83523" lon="2.49198">
        <ele>370.73</ele>
        <time>2015-10-04T09:46:01Z</time>
      </trkpt>
      <trkpt lat="42.83535" lon="2.49206">
        <ele>370.73</ele>
        <time>2015-10-04T09:46:02Z</time>
      </trkpt>
      <trkpt lat="42.83545" lon="2.49216">
        <ele>371.69</ele>
        <time>2015-10-04T09:46:03Z</time>
      </trkpt>
      <trkpt lat="42.83553" lon="2.49224">
        <ele>372.65</ele>
        <time>2015-10-04T09:46:04Z</time>
      </trkpt>
      <trkpt lat="42.83561" lon="2.49231">
        <ele>373.61</ele>
        <time>2015-10-04T09:46:05Z</time>
      </trkpt>
      <trkpt lat="42.8357" lon="2.49236">
        <ele>373.61</ele>
        <time>2015-10-04T09:46:06Z</time>
      </trkpt>
      <trkpt lat="42.8358" lon="2.49238">
        <ele>374.09</ele>
        <time>2015-10-04T09:46:07Z</time>
      </trkpt>
      <trkpt lat="42.83591" lon="2.49233">
        <ele>375.05</ele>
        <time>2015-10-04T09:46:08Z</time>
      </trkpt>
      <trkpt lat="42.836" lon="2.49226">
        <ele>375.53</ele>
        <time>2015-10-04T09:46:09Z</time>
      </trkpt>
      <trkpt lat="42.83606" lon="2.49213">
        <ele>376.01</ele>
        <time>2015-10-04T09:46:10Z</time>
      </trkpt>
      <trkpt lat="42.83609" lon="2.49197">
        <ele>376.97</ele>
        <time>2015-10-04T09:46:11Z</time>
      </trkpt>
      <trkpt lat="42.83611" lon="2.4918">
        <ele>377.94</ele>
        <time>2015-10-04T09:46:12Z</time>
      </trkpt>
      <trkpt lat="42.8361" lon="2.49162">
        <ele>378.42</ele>
        <time>2015-10-04T09:46:13Z</time>
      </trkpt>
      <trkpt lat="42.83607" lon="2.49144">
        <ele>379.38</ele>
        <time>2015-10-04T09:46:14Z</time>
      </trkpt>
      <trkpt lat="42.83601" lon="2.49127">
        <ele>380.34</ele>
        <time>2015-10-04T09:46:15Z</time>
      </trkpt>
      <trkpt lat="42.83594" lon="2.49113">
        <ele>381.3</ele>
        <time>2015-10-04T09:46:16Z</time>
      </trkpt>
      <trkpt lat="42.83587" lon="2.49099">
        <ele>381.78</ele>
        <time>2015-10-04T09:46:17Z</time>
      </trkpt>
      <trkpt lat="42.83581" lon="2.49085">
        <ele>382.26</ele>
        <time>2015-10-04T09:46:18Z</time>
      </trkpt>
      <trkpt lat="42.83579" lon="2.49071">
        <ele>383.22</ele>
        <time>2015-10-04T09:46:19Z</time>
      </trkpt>
      <trkpt lat="42.83579" lon="2.49056">
        <ele>383.7</ele>
        <time>2015-10-04T09:46:20Z</time>
      </trkpt>
      <trkpt lat="42.83583" lon="2.4904">
        <ele>383.7</ele>
        <time>2015-10-04T09:46:21Z</time>
      </trkpt>
      <trkpt lat="42.83589" lon="2.49024">
        <ele>384.18</ele>
        <time>2015-10-04T09:46:22Z</time>
      </trkpt>
      <trkpt lat="42.83596" lon="2.49007">
        <ele>384.66</ele>
        <time>2015-10-04T09:46:23Z</time>
      </trkpt>
      <trkpt lat="42.83609" lon="2.4897">
        <ele>385.63</ele>
        <time>2015-10-04T09:46:25Z</time>
      </trkpt>
      <trkpt lat="42.83613" lon="2.48949">
        <ele>385.63</ele>
        <time>2015-10-04T09:46:26Z</time>
      </trkpt>
      <trkpt lat="42.83615" lon="2.48927">
        <ele>386.11</ele>
        <time>2015-10-04T09:46:27Z</time>
      </trkpt>
      <trkpt lat="42.83616" lon="2.48906">
        <ele>386.11</ele>
        <time>2015-10-04T09:46:28Z</time>
      </trkpt>
      <trkpt lat="42.83615" lon="2.48884">
        <ele>386.59</ele>
        <time>2015-10-04T09:46:29Z</time>
      </trkpt>
      <trkpt lat="42.83613" lon="2.48863">
        <ele>387.07</ele>
        <time>2015-10-04T09:46:30Z</time>
      </trkpt>
      <trkpt lat="42.83609" lon="2.48843">
        <ele>387.07</ele>
        <time>2015-10-04T09:46:31Z</time>
      </trkpt>
      <trkpt lat="42.83604" lon="2.48823">
        <ele>387.07</ele>
        <time>2015-10-04T09:46:32Z</time>
      </trkpt>
      <trkpt lat="42.83574" lon="2.48712">
        <ele>388.03</ele>
        <time>2015-10-04T09:46:38Z</time>
      </trkpt>
      <trkpt lat="42.83566" lon="2.48696">
        <ele>388.03</ele>
        <time>2015-10-04T09:46:39Z</time>
      </trkpt>
      <trkpt lat="42.83522" lon="2.48607">
        <ele>388.51</ele>
        <time>2015-10-04T09:46:45Z</time>
      </trkpt>
      <trkpt lat="42.83517" lon="2.4859">
        <ele>388.99</ele>
        <time>2015-10-04T09:46:46Z</time>
      </trkpt>
      <trkpt lat="42.83515" lon="2.48572">
        <ele>388.99</ele>
        <time>2015-10-04T09:46:47Z</time>
      </trkpt>
      <trkpt lat="42.83515" lon="2.48554">
        <ele>388.51</ele>
        <time>2015-10-04T09:46:48Z</time>
      </trkpt>
      <trkpt lat="42.83519" lon="2.48537">
        <ele>388.99</ele>
        <time>2015-10-04T09:46:49Z</time>
      </trkpt>
      <trkpt lat="42.83524" lon="2.48522">
        <ele>389.47</ele>
        <time>2015-10-04T09:46:50Z</time>
      </trkpt>
      <trkpt lat="42.83527" lon="2.48507">
        <ele>389.95</ele>
        <time>2015-10-04T09:46:51Z</time>
      </trkpt>
      <trkpt lat="42.83526" lon="2.48492">
        <ele>389.95</ele>
        <time>2015-10-04T09:46:52Z</time>
      </trkpt>
      <trkpt lat="42.83523" lon="2.48476">
        <ele>390.43</ele>
        <time>2015-10-04T09:46:53Z</time>
      </trkpt>
      <trkpt lat="42.83516" lon="2.4846">
        <ele>390.91</ele>
        <time>2015-10-04T09:46:54Z</time>
      </trkpt>
      <trkpt lat="42.83507" lon="2.48445">
        <ele>391.39</ele>
        <time>2015-10-04T09:46:55Z</time>
      </trkpt>
      <trkpt lat="42.83497" lon="2.48431">
        <ele>391.39</ele>
        <time>2015-10-04T09:46:56Z</time>
      </trkpt>
      <trkpt lat="42.83486" lon="2.48418">
        <ele>391.39</ele>
        <time>2015-10-04T09:46:57Z</time>
      </trkpt>
      <trkpt lat="42.83422" lon="2.48344">
        <ele>390.91</ele>
        <time>2015-10-04T09:47:03Z</time>
      </trkpt>
      <trkpt lat="42.83413" lon="2.48329">
        <ele>390.91</ele>
        <time>2015-10-04T09:47:04Z</time>
      </trkpt>
      <trkpt lat="42.83405" lon="2.48312">
        <ele>390.91</ele>
        <time>2015-10-04T09:47:05Z</time>
      </trkpt>
      <trkpt lat="42.83399" lon="2.48294">
        <ele>390.91</ele>
        <time>2015-10-04T09:47:06Z</time>
      </trkpt>
      <trkpt lat="42.83394" lon="2.48275">
        <ele>391.39</ele>
        <time>2015-10-04T09:47:07Z</time>
      </trkpt>
      <trkpt lat="42.83391" lon="2.48256">
        <ele>391.39</ele>
        <time>2015-10-04T09:47:08Z</time>
      </trkpt>
      <trkpt lat="42.83389" lon="2.48236">
        <ele>391.39</ele>
        <time>2015-10-04T09:47:09Z</time>
      </trkpt>
      <trkpt lat="42.83389" lon="2.48217">
        <ele>391.87</ele>
        <time>2015-10-04T09:47:10Z</time>
      </trkpt>
      <trkpt lat="42.83389" lon="2.4815">
        <ele>392.36</ele>
        <time>2015-10-04T09:47:14Z</time>
      </trkpt>
      <trkpt lat="42.83392" lon="2.48137">
        <ele>392.84</ele>
        <time>2015-10-04T09:47:15Z</time>
      </trkpt>
      <trkpt lat="42.83395" lon="2.48125">
        <ele>392.84</ele>
        <time>2015-10-04T09:47:16Z</time>
      </trkpt>
      <trkpt lat="42.83407" lon="2.48088">
        <ele>393.8</ele>
        <time>2015-10-04T09:47:20Z</time>
      </trkpt>
      <trkpt lat="42.83411" lon="2.48081">
        <ele>393.8</ele>
        <time>2015-10-04T09:47:21Z</time>
      </trkpt>
      <trkpt lat="42.83415" lon="2.48075">
        <ele>394.28</ele>
        <time>2015-10-04T09:47:22Z</time>
      </trkpt>
      <trkpt lat="42.83424" lon="2.48066">
        <ele>394.76</ele>
        <time>2015-10-04T09:47:24Z</time>
      </trkpt>
      <trkpt lat="42.8343" lon="2.48068">
        <ele>395.24</ele>
        <time>2015-10-04T09:47:25Z</time>
      </trkpt>
      <trkpt lat="42.8344" lon="2.48077">
        <ele>395.24</ele>
        <time>2015-10-04T09:47:26Z</time>
      </trkpt>
      <trkpt lat="42.83462" lon="2.48093">
        <ele>395.72</ele>
        <time>2015-10-04T09:47:28Z</time>
      </trkpt>
      <trkpt lat="42.83473" lon="2.48097">
        <ele>395.24</ele>
        <time>2015-10-04T09:47:29Z</time>
      </trkpt>
      <trkpt lat="42.83483" lon="2.48097">
        <ele>395.24</ele>
        <time>2015-10-04T09:47:30Z</time>
      </trkpt>
      <trkpt lat="42.83494" lon="2.48092">
        <ele>395.24</ele>
        <time>2015-10-04T09:47:31Z</time>
      </trkpt>
      <trkpt lat="42.83504" lon="2.48085">
        <ele>394.76</ele>
        <time>2015-10-04T09:47:32Z</time>
      </trkpt>
      <trkpt lat="42.83512" lon="2.48078">
        <ele>394.28</ele>
        <time>2015-10-04T09:47:33Z</time>
      </trkpt>
      <trkpt lat="42.8352" lon="2.4807">
        <ele>393.8</ele>
        <time>2015-10-04T09:47:34Z</time>
      </trkpt>
      <trkpt lat="42.83527" lon="2.48063">
        <ele>394.28</ele>
        <time>2015-10-04T09:47:35Z</time>
      </trkpt>
      <trkpt lat="42.83544" lon="2.48047">
        <ele>394.28</ele>
        <time>2015-10-04T09:47:38Z</time>
      </trkpt>
      <trkpt lat="42.83548" lon="2.48045">
        <ele>394.28</ele>
        <time>2015-10-04T09:47:39Z</time>
      </trkpt>
      <trkpt lat="42.83553" lon="2.48044">
        <ele>394.28</ele>
        <time>2015-10-04T09:47:40Z</time>
      </trkpt>
      <trkpt lat="42.83555" lon="2.48042">
        <ele>393.8</ele>
        <time>2015-10-04T09:47:41Z</time>
      </trkpt>
      <trkpt lat="42.83557" lon="2.4804">
        <ele>393.8</ele>
        <time>2015-10-04T09:47:42Z</time>
      </trkpt>
      <trkpt lat="42.8356" lon="2.48033">
        <ele>393.32</ele>
        <time>2015-10-04T09:47:44Z</time>
      </trkpt>
      <trkpt lat="42.83575" lon="2.48023">
        <ele>391.39</ele>
        <time>2015-10-04T09:47:54Z</time>
      </trkpt>
      <trkpt lat="42.8358" lon="2.48035">
        <ele>392.36</ele>
        <time>2015-10-04T09:48:09Z</time>
      </trkpt>
      <trkpt lat="42.83578" lon="2.48038">
        <ele>397.16</ele>
        <time>2015-10-04T09:56:25Z</time>
      </trkpt>
      <trkpt lat="42.83586" lon="2.48074">
        <ele>396.68</ele>
        <time>2015-10-04T09:58:25Z</time>
      </trkpt>
      <trkpt lat="42.83589" lon="2.48085">
        <ele>396.2</ele>
        <time>2015-10-04T09:58:26Z</time>
      </trkpt>
      <trkpt lat="42.83594" lon="2.48097">
        <ele>396.2</ele>
        <time>2015-10-04T09:58:27Z</time>
      </trkpt>
      <trkpt lat="42.83599" lon="2.48108">
        <ele>396.2</ele>
        <time>2015-10-04T09:58:28Z</time>
      </trkpt>
      <trkpt lat="42.83605" lon="2.4812">
        <ele>395.72</ele>
        <time>2015-10-04T09:58:29Z</time>
      </trkpt>
      <trkpt lat="42.83617" lon="2.48141">
        <ele>395.72</ele>
        <time>2015-10-04T09:58:31Z</time>
      </trkpt>
      <trkpt lat="42.83624" lon="2.4815">
        <ele>395.24</ele>
        <time>2015-10-04T09:58:32Z</time>
      </trkpt>
      <trkpt lat="42.83631" lon="2.48158">
        <ele>394.76</ele>
        <time>2015-10-04T09:58:33Z</time>
      </trkpt>
      <trkpt lat="42.83639" lon="2.48164">
        <ele>394.76</ele>
        <time>2015-10-04T09:58:34Z</time>
      </trkpt>
      <trkpt lat="42.83647" lon="2.4817">
        <ele>394.76</ele>
        <time>2015-10-04T09:58:35Z</time>
      </trkpt>
      <trkpt lat="42.83656" lon="2.48176">
        <ele>394.76</ele>
        <time>2015-10-04T09:58:36Z</time>
      </trkpt>
      <trkpt lat="42.83683" lon="2.48193">
        <ele>394.28</ele>
        <time>2015-10-04T09:58:39Z</time>
      </trkpt>
      <trkpt lat="42.83696" lon="2.48192">
        <ele>394.28</ele>
        <time>2015-10-04T09:58:40Z</time>
      </trkpt>
      <trkpt lat="42.83707" lon="2.48189">
        <ele>394.76</ele>
        <time>2015-10-04T09:58:41Z</time>
      </trkpt>
      <trkpt lat="42.83718" lon="2.48181">
        <ele>394.76</ele>
        <time>2015-10-04T09:58:42Z</time>
      </trkpt>
      <trkpt lat="42.83728" lon="2.48175">
        <ele>395.24</ele>
        <time>2015-10-04T09:58:43Z</time>
      </trkpt>
      <trkpt lat="42.83818" lon="2.4815">
        <ele>394.28</ele>
        <time>2015-10-04T09:58:52Z</time>
      </trkpt>
      <trkpt lat="42.83825" lon="2.48143">
        <ele>393.8</ele>
        <time>2015-10-04T09:58:53Z</time>
      </trkpt>
      <trkpt lat="42.83831" lon="2.48134">
        <ele>392.84</ele>
        <time>2015-10-04T09:58:54Z</time>
      </trkpt>
      <trkpt lat="42.83837" lon="2.48125">
        <ele>392.84</ele>
        <time>2015-10-04T09:58:55Z</time>
      </trkpt>
      <trkpt lat="42.83842" lon="2.48116">
        <ele>392.36</ele>
        <time>2015-10-04T09:58:56Z</time>
      </trkpt>
      <trkpt lat="42.83845" lon="2.48105">
        <ele>391.87</ele>
        <time>2015-10-04T09:58:57Z</time>
      </trkpt>
      <trkpt lat="42.83846" lon="2.48092">
        <ele>391.87</ele>
        <time>2015-10-04T09:58:58Z</time>
      </trkpt>
      <trkpt lat="42.83845" lon="2.48078">
        <ele>392.36</ele>
        <time>2015-10-04T09:58:59Z</time>
      </trkpt>
      <trkpt lat="42.83843" lon="2.48066">
        <ele>392.36</ele>
        <time>2015-10-04T09:59:00Z</time>
      </trkpt>
      <trkpt lat="42.8384" lon="2.48055">
        <ele>392.36</ele>
        <time>2015-10-04T09:59:01Z</time>
      </trkpt>
      <trkpt lat="42.83837" lon="2.48045">
        <ele>391.87</ele>
        <time>2015-10-04T09:59:02Z</time>
      </trkpt>
      <trkpt lat="42.83835" lon="2.48037">
        <ele>392.84</ele>
        <time>2015-10-04T09:59:03Z</time>
      </trkpt>
      <trkpt lat="42.83835" lon="2.48028">
        <ele>392.36</ele>
        <time>2015-10-04T09:59:04Z</time>
      </trkpt>
      <trkpt lat="42.83837" lon="2.4802">
        <ele>392.36</ele>
        <time>2015-10-04T09:59:05Z</time>
      </trkpt>
      <trkpt lat="42.83839" lon="2.48012">
        <ele>392.36</ele>
        <time>2015-10-04T09:59:06Z</time>
      </trkpt>
      <trkpt lat="42.83842" lon="2.48006">
        <ele>393.32</ele>
        <time>2015-10-04T09:59:07Z</time>
      </trkpt>
      <trkpt lat="42.83845" lon="2.47998">
        <ele>393.8</ele>
        <time>2015-10-04T09:59:08Z</time>
      </trkpt>
      <trkpt lat="42.83858" lon="2.47974">
        <ele>394.28</ele>
        <time>2015-10-04T09:59:12Z</time>
      </trkpt>
      <trkpt lat="42.83862" lon="2.47971">
        <ele>394.28</ele>
        <time>2015-10-04T09:59:13Z</time>
      </trkpt>
      <trkpt lat="42.83867" lon="2.47968">
        <ele>394.76</ele>
        <time>2015-10-04T09:59:14Z</time>
      </trkpt>
      <trkpt lat="42.83872" lon="2.47965">
        <ele>394.76</ele>
        <time>2015-10-04T09:59:15Z</time>
      </trkpt>
      <trkpt lat="42.83878" lon="2.47964">
        <ele>394.76</ele>
        <time>2015-10-04T09:59:16Z</time>
      </trkpt>
      <trkpt lat="42.83883" lon="2.47961">
        <ele>394.76</ele>
        <time>2015-10-04T09:59:17Z</time>
      </trkpt>
      <trkpt lat="42.83887" lon="2.4796">
        <ele>394.76</ele>
        <time>2015-10-04T09:59:18Z</time>
      </trkpt>
      <trkpt lat="42.83896" lon="2.47969">
        <ele>394.28</ele>
        <time>2015-10-04T09:59:19Z</time>
      </trkpt>
      <trkpt lat="42.83908" lon="2.47984">
        <ele>393.32</ele>
        <time>2015-10-04T09:59:20Z</time>
      </trkpt>
      <trkpt lat="42.83911" lon="2.47985">
        <ele>393.32</ele>
        <time>2015-10-04T09:59:21Z</time>
      </trkpt>
      <trkpt lat="42.83916" lon="2.47985">
        <ele>392.84</ele>
        <time>2015-10-04T09:59:22Z</time>
      </trkpt>
      <trkpt lat="42.83923" lon="2.47984">
        <ele>392.84</ele>
        <time>2015-10-04T09:59:23Z</time>
      </trkpt>
      <trkpt lat="42.83931" lon="2.47983">
        <ele>392.36</ele>
        <time>2015-10-04T09:59:24Z</time>
      </trkpt>
      <trkpt lat="42.84002" lon="2.47969">
        <ele>406.77</ele>
        <time>2015-10-04T09:59:33Z</time>
      </trkpt>
      <trkpt lat="42.84027" lon="2.47966">
        <ele>402.93</ele>
        <time>2015-10-04T09:59:38Z</time>
      </trkpt>
      <trkpt lat="42.84031" lon="2.47965">
        <ele>402.93</ele>
        <time>2015-10-04T09:59:39Z</time>
      </trkpt>
      <trkpt lat="42.84035" lon="2.47964">
        <ele>402.93</ele>
        <time>2015-10-04T09:59:40Z</time>
      </trkpt>
      <trkpt lat="42.84046" lon="2.47961">
        <ele>402.93</ele>
        <time>2015-10-04T09:59:42Z</time>
      </trkpt>
      <trkpt lat="42.8407" lon="2.47948">
        <ele>398.6</ele>
        <time>2015-10-04T09:59:47Z</time>
      </trkpt>
      <trkpt lat="42.84075" lon="2.47949">
        <ele>396.2</ele>
        <time>2015-10-04T09:59:48Z</time>
      </trkpt>
      <trkpt lat="42.84079" lon="2.47948">
        <ele>396.68</ele>
        <time>2015-10-04T09:59:49Z</time>
      </trkpt>
      <trkpt lat="42.84083" lon="2.47947">
        <ele>396.68</ele>
        <time>2015-10-04T09:59:50Z</time>
      </trkpt>
      <trkpt lat="42.84086" lon="2.47945">
        <ele>396.2</ele>
        <time>2015-10-04T09:59:51Z</time>
      </trkpt>
      <trkpt lat="42.84118" lon="2.47945">
        <ele>397.16</ele>
        <time>2015-10-04T09:59:56Z</time>
      </trkpt>
      <trkpt lat="42.84112" lon="2.47931">
        <ele>400.05</ele>
        <time>2015-10-04T09:59:57Z</time>
      </trkpt>
      <trkpt lat="42.84111" lon="2.47928">
        <ele>401.49</ele>
        <time>2015-10-04T09:59:58Z</time>
      </trkpt>
      <trkpt lat="42.84111" lon="2.47929">
        <ele>403.41</ele>
        <time>2015-10-04T09:59:59Z</time>
      </trkpt>
      <trkpt lat="42.8411" lon="2.47929">
        <ele>404.37</ele>
        <time>2015-10-04T10:00:00Z</time>
      </trkpt>
      <trkpt lat="42.84111" lon="2.47929">
        <ele>405.33</ele>
        <time>2015-10-04T10:00:01Z</time>
      </trkpt>
      <trkpt lat="42.84112" lon="2.47928">
        <ele>405.81</ele>
        <time>2015-10-04T10:00:02Z</time>
      </trkpt>
      <trkpt lat="42.84115" lon="2.47925">
        <ele>405.33</ele>
        <time>2015-10-04T10:00:03Z</time>
      </trkpt>
      <trkpt lat="42.84158" lon="2.47883">
        <ele>426.48</ele>
        <time>2015-10-04T10:00:14Z</time>
      </trkpt>
      <trkpt lat="42.84168" lon="2.47878">
        <ele>429.85</ele>
        <time>2015-10-04T10:00:16Z</time>
      </trkpt>
      <trkpt lat="42.84174" lon="2.47876">
        <ele>429.85</ele>
        <time>2015-10-04T10:00:17Z</time>
      </trkpt>
      <trkpt lat="42.84177" lon="2.47864">
        <ele>430.81</ele>
        <time>2015-10-04T10:00:19Z</time>
      </trkpt>
      <trkpt lat="42.84366" lon="2.47772">
        <ele>401.49</ele>
        <time>2015-10-04T10:00:50Z</time>
      </trkpt>
      <trkpt lat="42.84377" lon="2.47771">
        <ele>399.57</ele>
        <time>2015-10-04T10:00:51Z</time>
      </trkpt>
      <trkpt lat="42.84396" lon="2.47767">
        <ele>396.68</ele>
        <time>2015-10-04T10:00:53Z</time>
      </trkpt>
      <trkpt lat="42.84459" lon="2.4784">
        <ele>387.07</ele>
        <time>2015-10-04T10:00:56Z</time>
      </trkpt>
      <trkpt lat="42.84463" lon="2.4784">
        <ele>387.07</ele>
        <time>2015-10-04T10:00:57Z</time>
      </trkpt>
      <trkpt lat="42.84468" lon="2.47841">
        <ele>386.11</ele>
        <time>2015-10-04T10:00:58Z</time>
      </trkpt>
      <trkpt lat="42.84474" lon="2.47839">
        <ele>385.15</ele>
        <time>2015-10-04T10:00:59Z</time>
      </trkpt>
      <trkpt lat="42.84476" lon="2.4783">
        <ele>385.63</ele>
        <time>2015-10-04T10:01:00Z</time>
      </trkpt>
      <trkpt lat="42.84484" lon="2.47828">
        <ele>385.15</ele>
        <time>2015-10-04T10:01:01Z</time>
      </trkpt>
      <trkpt lat="42.84494" lon="2.47825">
        <ele>385.63</ele>
        <time>2015-10-04T10:01:02Z</time>
      </trkpt>
      <trkpt lat="42.84506" lon="2.47821">
        <ele>388.03</ele>
        <time>2015-10-04T10:01:03Z</time>
      </trkpt>
      <trkpt lat="42.84513" lon="2.47815">
        <ele>387.55</ele>
        <time>2015-10-04T10:01:04Z</time>
      </trkpt>
      <trkpt lat="42.84521" lon="2.47811">
        <ele>386.59</ele>
        <time>2015-10-04T10:01:05Z</time>
      </trkpt>
      <trkpt lat="42.84528" lon="2.47808">
        <ele>385.63</ele>
        <time>2015-10-04T10:01:06Z</time>
      </trkpt>
      <trkpt lat="42.84545" lon="2.47811">
        <ele>384.66</ele>
        <time>2015-10-04T10:01:08Z</time>
      </trkpt>
      <trkpt lat="42.84554" lon="2.47812">
        <ele>383.7</ele>
        <time>2015-10-04T10:01:09Z</time>
      </trkpt>
      <trkpt lat="42.84565" lon="2.47809">
        <ele>382.74</ele>
        <time>2015-10-04T10:01:10Z</time>
      </trkpt>
      <trkpt lat="42.84573" lon="2.47799">
        <ele>381.78</ele>
        <time>2015-10-04T10:01:11Z</time>
      </trkpt>
      <trkpt lat="42.84582" lon="2.47789">
        <ele>380.82</ele>
        <time>2015-10-04T10:01:12Z</time>
      </trkpt>
      <trkpt lat="42.84589" lon="2.47773">
        <ele>380.34</ele>
        <time>2015-10-04T10:01:13Z</time>
      </trkpt>
      <trkpt lat="42.84597" lon="2.47759">
        <ele>379.38</ele>
        <time>2015-10-04T10:01:14Z</time>
      </trkpt>
      <trkpt lat="42.84604" lon="2.47743">
        <ele>378.9</ele>
        <time>2015-10-04T10:01:15Z</time>
      </trkpt>
      <trkpt lat="42.84611" lon="2.47729">
        <ele>377.94</ele>
        <time>2015-10-04T10:01:16Z</time>
      </trkpt>
      <trkpt lat="42.84617" lon="2.47714">
        <ele>377.94</ele>
        <time>2015-10-04T10:01:17Z</time>
      </trkpt>
      <trkpt lat="42.84633" lon="2.47669">
        <ele>377.45</ele>
        <time>2015-10-04T10:01:20Z</time>
      </trkpt>
      <trkpt lat="42.84636" lon="2.47655">
        <ele>377.45</ele>
        <time>2015-10-04T10:01:21Z</time>
      </trkpt>
      <trkpt lat="42.84636" lon="2.47639">
        <ele>377.45</ele>
        <time>2015-10-04T10:01:22Z</time>
      </trkpt>
      <trkpt lat="42.84634" lon="2.47621">
        <ele>378.42</ele>
        <time>2015-10-04T10:01:23Z</time>
      </trkpt>
      <trkpt lat="42.84632" lon="2.47603">
        <ele>378.9</ele>
        <time>2015-10-04T10:01:24Z</time>
      </trkpt>
      <trkpt lat="42.84631" lon="2.47585">
        <ele>379.38</ele>
        <time>2015-10-04T10:01:25Z</time>
      </trkpt>
      <trkpt lat="42.84632" lon="2.47568">
        <ele>379.38</ele>
        <time>2015-10-04T10:01:26Z</time>
      </trkpt>
      <trkpt lat="42.84634" lon="2.47552">
        <ele>379.86</ele>
        <time>2015-10-04T10:01:27Z</time>
      </trkpt>
      <trkpt lat="42.84639" lon="2.47537">
        <ele>380.34</ele>
        <time>2015-10-04T10:01:28Z</time>
      </trkpt>
      <trkpt lat="42.84644" lon="2.47523">
        <ele>380.82</ele>
        <time>2015-10-04T10:01:29Z</time>
      </trkpt>
      <trkpt lat="42.84652" lon="2.47512">
        <ele>381.3</ele>
        <time>2015-10-04T10:01:30Z</time>
      </trkpt>
      <trkpt lat="42.84661" lon="2.47502">
        <ele>381.3</ele>
        <time>2015-10-04T10:01:31Z</time>
      </trkpt>
      <trkpt lat="42.84669" lon="2.47492">
        <ele>381.78</ele>
        <time>2015-10-04T10:01:32Z</time>
      </trkpt>
      <trkpt lat="42.84682" lon="2.47473">
        <ele>382.74</ele>
        <time>2015-10-04T10:01:34Z</time>
      </trkpt>
      <trkpt lat="42.84684" lon="2.47461">
        <ele>383.22</ele>
        <time>2015-10-04T10:01:35Z</time>
      </trkpt>
      <trkpt lat="42.84685" lon="2.47446">
        <ele>383.7</ele>
        <time>2015-10-04T10:01:36Z</time>
      </trkpt>
      <trkpt lat="42.84685" lon="2.47429">
        <ele>384.18</ele>
        <time>2015-10-04T10:01:37Z</time>
      </trkpt>
      <trkpt lat="42.84684" lon="2.47412">
        <ele>384.66</ele>
        <time>2015-10-04T10:01:38Z</time>
      </trkpt>
      <trkpt lat="42.84683" lon="2.47307">
        <ele>388.03</ele>
        <time>2015-10-04T10:01:44Z</time>
      </trkpt>
      <trkpt lat="42.8468" lon="2.47289">
        <ele>388.51</ele>
        <time>2015-10-04T10:01:45Z</time>
      </trkpt>
      <trkpt lat="42.84676" lon="2.47272">
        <ele>389.47</ele>
        <time>2015-10-04T10:01:46Z</time>
      </trkpt>
      <trkpt lat="42.8466" lon="2.47227">
        <ele>390.91</ele>
        <time>2015-10-04T10:01:49Z</time>
      </trkpt>
      <trkpt lat="42.84653" lon="2.47215">
        <ele>390.91</ele>
        <time>2015-10-04T10:01:50Z</time>
      </trkpt>
      <trkpt lat="42.84644" lon="2.47205">
        <ele>391.87</ele>
        <time>2015-10-04T10:01:51Z</time>
      </trkpt>
      <trkpt lat="42.84635" lon="2.47194">
        <ele>392.36</ele>
        <time>2015-10-04T10:01:52Z</time>
      </trkpt>
      <trkpt lat="42.84628" lon="2.47181">
        <ele>393.32</ele>
        <time>2015-10-04T10:01:53Z</time>
      </trkpt>
      <trkpt lat="42.84622" lon="2.47168">
        <ele>393.8</ele>
        <time>2015-10-04T10:01:54Z</time>
      </trkpt>
      <trkpt lat="42.84618" lon="2.47154">
        <ele>394.28</ele>
        <time>2015-10-04T10:01:55Z</time>
      </trkpt>
      <trkpt lat="42.84616" lon="2.47139">
        <ele>393.8</ele>
        <time>2015-10-04T10:01:56Z</time>
      </trkpt>
      <trkpt lat="42.84617" lon="2.47125">
        <ele>393.8</ele>
        <time>2015-10-04T10:01:57Z</time>
      </trkpt>
      <trkpt lat="42.84618" lon="2.47111">
        <ele>395.24</ele>
        <time>2015-10-04T10:01:58Z</time>
      </trkpt>
      <trkpt lat="42.84616" lon="2.47022">
        <ele>396.68</ele>
        <time>2015-10-04T10:02:04Z</time>
      </trkpt>
      <trkpt lat="42.84617" lon="2.47009">
        <ele>396.2</ele>
        <time>2015-10-04T10:02:05Z</time>
      </trkpt>
      <trkpt lat="42.8462" lon="2.46995">
        <ele>395.24</ele>
        <time>2015-10-04T10:02:06Z</time>
      </trkpt>
      <trkpt lat="42.84626" lon="2.46983">
        <ele>395.24</ele>
        <time>2015-10-04T10:02:07Z</time>
      </trkpt>
      <trkpt lat="42.84634" lon="2.46973">
        <ele>394.76</ele>
        <time>2015-10-04T10:02:08Z</time>
      </trkpt>
      <trkpt lat="42.84645" lon="2.46964">
        <ele>397.16</ele>
        <time>2015-10-04T10:02:09Z</time>
      </trkpt>
      <trkpt lat="42.84655" lon="2.46953">
        <ele>398.6</ele>
        <time>2015-10-04T10:02:10Z</time>
      </trkpt>
      <trkpt lat="42.84666" lon="2.46942">
        <ele>401.01</ele>
        <time>2015-10-04T10:02:11Z</time>
      </trkpt>
      <trkpt lat="42.84714" lon="2.46888">
        <ele>401.97</ele>
        <time>2015-10-04T10:02:16Z</time>
      </trkpt>
      <trkpt lat="42.84722" lon="2.46875">
        <ele>401.97</ele>
        <time>2015-10-04T10:02:17Z</time>
      </trkpt>
      <trkpt lat="42.84728" lon="2.46862">
        <ele>402.45</ele>
        <time>2015-10-04T10:02:18Z</time>
      </trkpt>
      <trkpt lat="42.8473" lon="2.46845">
        <ele>402.93</ele>
        <time>2015-10-04T10:02:19Z</time>
      </trkpt>
      <trkpt lat="42.84734" lon="2.46831">
        <ele>403.41</ele>
        <time>2015-10-04T10:02:20Z</time>
      </trkpt>
      <trkpt lat="42.84739" lon="2.46819">
        <ele>403.41</ele>
        <time>2015-10-04T10:02:21Z</time>
      </trkpt>
      <trkpt lat="42.84745" lon="2.46808">
        <ele>403.41</ele>
        <time>2015-10-04T10:02:22Z</time>
      </trkpt>
      <trkpt lat="42.84752" lon="2.468">
        <ele>403.41</ele>
        <time>2015-10-04T10:02:23Z</time>
      </trkpt>
      <trkpt lat="42.84759" lon="2.468">
        <ele>403.41</ele>
        <time>2015-10-04T10:02:24Z</time>
      </trkpt>
      <trkpt lat="42.84775" lon="2.46808">
        <ele>403.89</ele>
        <time>2015-10-04T10:02:26Z</time>
      </trkpt>
      <trkpt lat="42.84782" lon="2.46817">
        <ele>404.85</ele>
        <time>2015-10-04T10:02:27Z</time>
      </trkpt>
      <trkpt lat="42.84786" lon="2.46829">
        <ele>405.81</ele>
        <time>2015-10-04T10:02:28Z</time>
      </trkpt>
      <trkpt lat="42.84792" lon="2.46842">
        <ele>405.81</ele>
        <time>2015-10-04T10:02:29Z</time>
      </trkpt>
      <trkpt lat="42.84798" lon="2.46854">
        <ele>405.81</ele>
        <time>2015-10-04T10:02:30Z</time>
      </trkpt>
      <trkpt lat="42.84814" lon="2.46883">
        <ele>406.77</ele>
        <time>2015-10-04T10:02:33Z</time>
      </trkpt>
      <trkpt lat="42.84817" lon="2.46892">
        <ele>406.29</ele>
        <time>2015-10-04T10:02:34Z</time>
      </trkpt>
      <trkpt lat="42.84819" lon="2.46903">
        <ele>406.77</ele>
        <time>2015-10-04T10:02:35Z</time>
      </trkpt>
      <trkpt lat="42.8482" lon="2.46914">
        <ele>406.77</ele>
        <time>2015-10-04T10:02:36Z</time>
      </trkpt>
      <trkpt lat="42.84819" lon="2.46926">
        <ele>406.77</ele>
        <time>2015-10-04T10:02:37Z</time>
      </trkpt>
      <trkpt lat="42.84817" lon="2.46938">
        <ele>406.77</ele>
        <time>2015-10-04T10:02:38Z</time>
      </trkpt>
      <trkpt lat="42.84814" lon="2.4695">
        <ele>406.77</ele>
        <time>2015-10-04T10:02:39Z</time>
      </trkpt>
      <trkpt lat="42.84801" lon="2.47016">
        <ele>407.74</ele>
        <time>2015-10-04T10:02:44Z</time>
      </trkpt>
      <trkpt lat="42.84801" lon="2.47031">
        <ele>408.7</ele>
        <time>2015-10-04T10:02:45Z</time>
      </trkpt>
      <trkpt lat="42.84801" lon="2.47046">
        <ele>408.7</ele>
        <time>2015-10-04T10:02:46Z</time>
      </trkpt>
      <trkpt lat="42.84804" lon="2.47061">
        <ele>409.66</ele>
        <time>2015-10-04T10:02:47Z</time>
      </trkpt>
      <trkpt lat="42.84811" lon="2.47074">
        <ele>410.62</ele>
        <time>2015-10-04T10:02:48Z</time>
      </trkpt>
      <trkpt lat="42.84818" lon="2.47086">
        <ele>410.62</ele>
        <time>2015-10-04T10:02:49Z</time>
      </trkpt>
      <trkpt lat="42.84829" lon="2.47095">
        <ele>412.06</ele>
        <time>2015-10-04T10:02:50Z</time>
      </trkpt>
      <trkpt lat="42.8484" lon="2.47103">
        <ele>411.58</ele>
        <time>2015-10-04T10:02:51Z</time>
      </trkpt>
      <trkpt lat="42.84851" lon="2.4711">
        <ele>411.58</ele>
        <time>2015-10-04T10:02:52Z</time>
      </trkpt>
      <trkpt lat="42.84862" lon="2.47116">
        <ele>411.58</ele>
        <time>2015-10-04T10:02:53Z</time>
      </trkpt>
      <trkpt lat="42.84904" lon="2.4714">
        <ele>412.06</ele>
        <time>2015-10-04T10:02:57Z</time>
      </trkpt>
      <trkpt lat="42.84916" lon="2.47143">
        <ele>412.54</ele>
        <time>2015-10-04T10:02:58Z</time>
      </trkpt>
      <trkpt lat="42.84927" lon="2.47142">
        <ele>413.5</ele>
        <time>2015-10-04T10:02:59Z</time>
      </trkpt>
      <trkpt lat="42.84939" lon="2.47133">
        <ele>414.47</ele>
        <time>2015-10-04T10:03:00Z</time>
      </trkpt>
      <trkpt lat="42.84949" lon="2.47122">
        <ele>414.47</ele>
        <time>2015-10-04T10:03:01Z</time>
      </trkpt>
      <trkpt lat="42.84958" lon="2.4711">
        <ele>414.47</ele>
        <time>2015-10-04T10:03:02Z</time>
      </trkpt>
      <trkpt lat="42.84965" lon="2.47098">
        <ele>413.5</ele>
        <time>2015-10-04T10:03:03Z</time>
      </trkpt>
      <trkpt lat="42.85051" lon="2.47016">
        <ele>413.98</ele>
        <time>2015-10-04T10:03:12Z</time>
      </trkpt>
      <trkpt lat="42.85063" lon="2.47015">
        <ele>413.98</ele>
        <time>2015-10-04T10:03:13Z</time>
      </trkpt>
      <trkpt lat="42.85075" lon="2.47018">
        <ele>414.47</ele>
        <time>2015-10-04T10:03:14Z</time>
      </trkpt>
      <trkpt lat="42.85087" lon="2.47024">
        <ele>414.95</ele>
        <time>2015-10-04T10:03:15Z</time>
      </trkpt>
      <trkpt lat="42.85097" lon="2.47033">
        <ele>415.43</ele>
        <time>2015-10-04T10:03:16Z</time>
      </trkpt>
      <trkpt lat="42.85108" lon="2.4704">
        <ele>415.91</ele>
        <time>2015-10-04T10:03:17Z</time>
      </trkpt>
      <trkpt lat="42.85121" lon="2.47045">
        <ele>415.91</ele>
        <time>2015-10-04T10:03:18Z</time>
      </trkpt>
      <trkpt lat="42.85136" lon="2.47046">
        <ele>415.43</ele>
        <time>2015-10-04T10:03:19Z</time>
      </trkpt>
      <trkpt lat="42.85151" lon="2.47043">
        <ele>414.95</ele>
        <time>2015-10-04T10:03:20Z</time>
      </trkpt>
      <trkpt lat="42.85167" lon="2.47041">
        <ele>414.95</ele>
        <time>2015-10-04T10:03:21Z</time>
      </trkpt>
      <trkpt lat="42.85183" lon="2.4704">
        <ele>415.43</ele>
        <time>2015-10-04T10:03:22Z</time>
      </trkpt>
      <trkpt lat="42.85198" lon="2.4704">
        <ele>415.43</ele>
        <time>2015-10-04T10:03:23Z</time>
      </trkpt>
      <trkpt lat="42.85213" lon="2.47038">
        <ele>415.43</ele>
        <time>2015-10-04T10:03:24Z</time>
      </trkpt>
      <trkpt lat="42.85226" lon="2.47034">
        <ele>415.91</ele>
        <time>2015-10-04T10:03:25Z</time>
      </trkpt>
      <trkpt lat="42.85237" lon="2.47026">
        <ele>416.39</ele>
        <time>2015-10-04T10:03:26Z</time>
      </trkpt>
      <trkpt lat="42.85245" lon="2.47014">
        <ele>416.39</ele>
        <time>2015-10-04T10:03:27Z</time>
      </trkpt>
      <trkpt lat="42.85251" lon="2.46999">
        <ele>416.39</ele>
        <time>2015-10-04T10:03:28Z</time>
      </trkpt>
      <trkpt lat="42.85256" lon="2.46981">
        <ele>416.87</ele>
        <time>2015-10-04T10:03:29Z</time>
      </trkpt>
      <trkpt lat="42.85259" lon="2.46961">
        <ele>417.35</ele>
        <time>2015-10-04T10:03:30Z</time>
      </trkpt>
      <trkpt lat="42.85261" lon="2.46939">
        <ele>417.83</ele>
        <time>2015-10-04T10:03:31Z</time>
      </trkpt>
      <trkpt lat="42.85264" lon="2.46915">
        <ele>418.79</ele>
        <time>2015-10-04T10:03:32Z</time>
      </trkpt>
      <trkpt lat="42.85302" lon="2.46704">
        <ele>424.08</ele>
        <time>2015-10-04T10:03:41Z</time>
      </trkpt>
      <trkpt lat="42.85314" lon="2.46665">
        <ele>424.56</ele>
        <time>2015-10-04T10:03:43Z</time>
      </trkpt>
      <trkpt lat="42.85321" lon="2.4665">
        <ele>425.04</ele>
        <time>2015-10-04T10:03:44Z</time>
      </trkpt>
      <trkpt lat="42.8533" lon="2.46641">
        <ele>425.52</ele>
        <time>2015-10-04T10:03:45Z</time>
      </trkpt>
      <trkpt lat="42.85342" lon="2.46641">
        <ele>425.52</ele>
        <time>2015-10-04T10:03:46Z</time>
      </trkpt>
      <trkpt lat="42.85354" lon="2.4664">
        <ele>426</ele>
        <time>2015-10-04T10:03:47Z</time>
      </trkpt>
      <trkpt lat="42.85368" lon="2.4664">
        <ele>426</ele>
        <time>2015-10-04T10:03:48Z</time>
      </trkpt>
      <trkpt lat="42.85383" lon="2.46633">
        <ele>426.48</ele>
        <time>2015-10-04T10:03:49Z</time>
      </trkpt>
      <trkpt lat="42.85396" lon="2.46622">
        <ele>426.48</ele>
        <time>2015-10-04T10:03:50Z</time>
      </trkpt>
      <trkpt lat="42.85411" lon="2.46608">
        <ele>426.96</ele>
        <time>2015-10-04T10:03:51Z</time>
      </trkpt>
      <trkpt lat="42.85425" lon="2.46592">
        <ele>427.92</ele>
        <time>2015-10-04T10:03:52Z</time>
      </trkpt>
      <trkpt lat="42.85535" lon="2.46469">
        <ele>431.77</ele>
        <time>2015-10-04T10:04:00Z</time>
      </trkpt>
      <trkpt lat="42.85548" lon="2.4646">
        <ele>432.25</ele>
        <time>2015-10-04T10:04:01Z</time>
      </trkpt>
      <trkpt lat="42.8556" lon="2.46455">
        <ele>432.73</ele>
        <time>2015-10-04T10:04:02Z</time>
      </trkpt>
      <trkpt lat="42.85572" lon="2.46453">
        <ele>433.21</ele>
        <time>2015-10-04T10:04:03Z</time>
      </trkpt>
      <trkpt lat="42.85583" lon="2.46451">
        <ele>433.21</ele>
        <time>2015-10-04T10:04:04Z</time>
      </trkpt>
      <trkpt lat="42.85594" lon="2.46444">
        <ele>433.21</ele>
        <time>2015-10-04T10:04:05Z</time>
      </trkpt>
      <trkpt lat="42.85604" lon="2.46435">
        <ele>433.69</ele>
        <time>2015-10-04T10:04:06Z</time>
      </trkpt>
      <trkpt lat="42.85614" lon="2.46422">
        <ele>434.17</ele>
        <time>2015-10-04T10:04:07Z</time>
      </trkpt>
      <trkpt lat="42.85623" lon="2.46405">
        <ele>434.65</ele>
        <time>2015-10-04T10:04:08Z</time>
      </trkpt>
      <trkpt lat="42.85632" lon="2.46388">
        <ele>435.13</ele>
        <time>2015-10-04T10:04:09Z</time>
      </trkpt>
      <trkpt lat="42.85735" lon="2.46211">
        <ele>439.94</ele>
        <time>2015-10-04T10:04:20Z</time>
      </trkpt>
      <trkpt lat="42.85761" lon="2.46195">
        <ele>441.38</ele>
        <time>2015-10-04T10:04:22Z</time>
      </trkpt>
      <trkpt lat="42.85885" lon="2.46128">
        <ele>444.75</ele>
        <time>2015-10-04T10:04:31Z</time>
      </trkpt>
      <trkpt lat="42.85971" lon="2.46068">
        <ele>448.11</ele>
        <time>2015-10-04T10:04:39Z</time>
      </trkpt>
      <trkpt lat="42.86039" lon="2.46052">
        <ele>450.03</ele>
        <time>2015-10-04T10:04:46Z</time>
      </trkpt>
      <trkpt lat="42.86048" lon="2.46047">
        <ele>450.03</ele>
        <time>2015-10-04T10:04:47Z</time>
      </trkpt>
      <trkpt lat="42.86055" lon="2.46039">
        <ele>449.55</ele>
        <time>2015-10-04T10:04:48Z</time>
      </trkpt>
      <trkpt lat="42.8606" lon="2.46028">
        <ele>449.55</ele>
        <time>2015-10-04T10:04:49Z</time>
      </trkpt>
      <trkpt lat="42.86066" lon="2.46019">
        <ele>449.07</ele>
        <time>2015-10-04T10:04:50Z</time>
      </trkpt>
      <trkpt lat="42.86072" lon="2.46013">
        <ele>449.07</ele>
        <time>2015-10-04T10:04:51Z</time>
      </trkpt>
      <trkpt lat="42.86079" lon="2.46012">
        <ele>449.07</ele>
        <time>2015-10-04T10:04:52Z</time>
      </trkpt>
      <trkpt lat="42.86088" lon="2.46014">
        <ele>449.07</ele>
        <time>2015-10-04T10:04:53Z</time>
      </trkpt>
      <trkpt lat="42.86095" lon="2.46014">
        <ele>449.55</ele>
        <time>2015-10-04T10:04:54Z</time>
      </trkpt>
      <trkpt lat="42.86109" lon="2.46016">
        <ele>449.55</ele>
        <time>2015-10-04T10:04:56Z</time>
      </trkpt>
      <trkpt lat="42.86137" lon="2.46015">
        <ele>451</ele>
        <time>2015-10-04T10:05:04Z</time>
      </trkpt>
      <trkpt lat="42.86146" lon="2.46016">
        <ele>451.48</ele>
        <time>2015-10-04T10:05:30Z</time>
      </trkpt>
      <trkpt lat="42.86151" lon="2.46016">
        <ele>451.96</ele>
        <time>2015-10-04T10:05:31Z</time>
      </trkpt>
      <trkpt lat="42.8618" lon="2.46009">
        <ele>452.44</ele>
        <time>2015-10-04T10:05:37Z</time>
      </trkpt>
      <trkpt lat="42.86184" lon="2.46009">
        <ele>452.44</ele>
        <time>2015-10-04T10:05:38Z</time>
      </trkpt>
      <trkpt lat="42.86189" lon="2.46011">
        <ele>451.96</ele>
        <time>2015-10-04T10:05:39Z</time>
      </trkpt>
      <trkpt lat="42.86192" lon="2.46014">
        <ele>451.48</ele>
        <time>2015-10-04T10:05:40Z</time>
      </trkpt>
      <trkpt lat="42.86195" lon="2.46023">
        <ele>451.96</ele>
        <time>2015-10-04T10:05:41Z</time>
      </trkpt>
      <trkpt lat="42.86198" lon="2.46033">
        <ele>451.96</ele>
        <time>2015-10-04T10:05:42Z</time>
      </trkpt>
      <trkpt lat="42.862" lon="2.46044">
        <ele>452.44</ele>
        <time>2015-10-04T10:05:43Z</time>
      </trkpt>
      <trkpt lat="42.86203" lon="2.46055">
        <ele>452.44</ele>
        <time>2015-10-04T10:05:44Z</time>
      </trkpt>
      <trkpt lat="42.86204" lon="2.46067">
        <ele>452.92</ele>
        <time>2015-10-04T10:05:45Z</time>
      </trkpt>
      <trkpt lat="42.86205" lon="2.46078">
        <ele>453.4</ele>
        <time>2015-10-04T10:05:46Z</time>
      </trkpt>
      <trkpt lat="42.8621" lon="2.46157">
        <ele>454.84</ele>
        <time>2015-10-04T10:05:54Z</time>
      </trkpt>
      <trkpt lat="42.86212" lon="2.46163">
        <ele>455.32</ele>
        <time>2015-10-04T10:05:55Z</time>
      </trkpt>
      <trkpt lat="42.86214" lon="2.46169">
        <ele>455.8</ele>
        <time>2015-10-04T10:05:56Z</time>
      </trkpt>
      <trkpt lat="42.86253" lon="2.46235">
        <ele>461.09</ele>
        <time>2015-10-04T10:06:05Z</time>
      </trkpt>
      <trkpt lat="42.8626" lon="2.46242">
        <ele>462.05</ele>
        <time>2015-10-04T10:06:06Z</time>
      </trkpt>
      <trkpt lat="42.86267" lon="2.46248">
        <ele>462.53</ele>
        <time>2015-10-04T10:06:07Z</time>
      </trkpt>
      <trkpt lat="42.86275" lon="2.46252">
        <ele>463.49</ele>
        <time>2015-10-04T10:06:08Z</time>
      </trkpt>
      <trkpt lat="42.86283" lon="2.46253">
        <ele>463.97</ele>
        <time>2015-10-04T10:06:09Z</time>
      </trkpt>
      <trkpt lat="42.86292" lon="2.46247">
        <ele>464.93</ele>
        <time>2015-10-04T10:06:10Z</time>
      </trkpt>
      <trkpt lat="42.86301" lon="2.46235">
        <ele>465.42</ele>
        <time>2015-10-04T10:06:11Z</time>
      </trkpt>
      <trkpt lat="42.86308" lon="2.46222">
        <ele>465.9</ele>
        <time>2015-10-04T10:06:12Z</time>
      </trkpt>
      <trkpt lat="42.86314" lon="2.46206">
        <ele>466.38</ele>
        <time>2015-10-04T10:06:13Z</time>
      </trkpt>
      <trkpt lat="42.8632" lon="2.46188">
        <ele>467.34</ele>
        <time>2015-10-04T10:06:14Z</time>
      </trkpt>
      <trkpt lat="42.86326" lon="2.4617">
        <ele>468.3</ele>
        <time>2015-10-04T10:06:15Z</time>
      </trkpt>
      <trkpt lat="42.86361" lon="2.46076">
        <ele>473.59</ele>
        <time>2015-10-04T10:06:21Z</time>
      </trkpt>
      <trkpt lat="42.86368" lon="2.46066">
        <ele>474.07</ele>
        <time>2015-10-04T10:06:22Z</time>
      </trkpt>
      <trkpt lat="42.86375" lon="2.46059">
        <ele>474.55</ele>
        <time>2015-10-04T10:06:23Z</time>
      </trkpt>
      <trkpt lat="42.86384" lon="2.46056">
        <ele>475.51</ele>
        <time>2015-10-04T10:06:24Z</time>
      </trkpt>
      <trkpt lat="42.86395" lon="2.46057">
        <ele>475.99</ele>
        <time>2015-10-04T10:06:25Z</time>
      </trkpt>
      <trkpt lat="42.86407" lon="2.46059">
        <ele>476.95</ele>
        <time>2015-10-04T10:06:26Z</time>
      </trkpt>
      <trkpt lat="42.8642" lon="2.4606">
        <ele>477.91</ele>
        <time>2015-10-04T10:06:27Z</time>
      </trkpt>
      <trkpt lat="42.86433" lon="2.46059">
        <ele>478.39</ele>
        <time>2015-10-04T10:06:28Z</time>
      </trkpt>
      <trkpt lat="42.86473" lon="2.46052">
        <ele>481.28</ele>
        <time>2015-10-04T10:06:31Z</time>
      </trkpt>
      <trkpt lat="42.86487" lon="2.46046">
        <ele>481.76</ele>
        <time>2015-10-04T10:06:32Z</time>
      </trkpt>
      <trkpt lat="42.865" lon="2.46038">
        <ele>482.72</ele>
        <time>2015-10-04T10:06:33Z</time>
      </trkpt>
      <trkpt lat="42.86553" lon="2.46002">
        <ele>486.56</ele>
        <time>2015-10-04T10:06:37Z</time>
      </trkpt>
      <trkpt lat="42.86566" lon="2.45998">
        <ele>487.53</ele>
        <time>2015-10-04T10:06:38Z</time>
      </trkpt>
      <trkpt lat="42.86579" lon="2.45997">
        <ele>488.01</ele>
        <time>2015-10-04T10:06:39Z</time>
      </trkpt>
      <trkpt lat="42.8659" lon="2.45999">
        <ele>488.97</ele>
        <time>2015-10-04T10:06:40Z</time>
      </trkpt>
      <trkpt lat="42.866" lon="2.46005">
        <ele>489.45</ele>
        <time>2015-10-04T10:06:41Z</time>
      </trkpt>
      <trkpt lat="42.86609" lon="2.46013">
        <ele>489.93</ele>
        <time>2015-10-04T10:06:42Z</time>
      </trkpt>
      <trkpt lat="42.86617" lon="2.46023">
        <ele>490.41</ele>
        <time>2015-10-04T10:06:43Z</time>
      </trkpt>
      <trkpt lat="42.86663" lon="2.46064">
        <ele>494.26</ele>
        <time>2015-10-04T10:06:48Z</time>
      </trkpt>
      <trkpt lat="42.86671" lon="2.46072">
        <ele>494.74</ele>
        <time>2015-10-04T10:06:49Z</time>
      </trkpt>
      <trkpt lat="42.86676" lon="2.46084">
        <ele>494.74</ele>
        <time>2015-10-04T10:06:50Z</time>
      </trkpt>
      <trkpt lat="42.8668" lon="2.46098">
        <ele>495.7</ele>
        <time>2015-10-04T10:06:51Z</time>
      </trkpt>
      <trkpt lat="42.86683" lon="2.46114">
        <ele>496.18</ele>
        <time>2015-10-04T10:06:52Z</time>
      </trkpt>
      <trkpt lat="42.86684" lon="2.4613">
        <ele>497.62</ele>
        <time>2015-10-04T10:06:53Z</time>
      </trkpt>
      <trkpt lat="42.86685" lon="2.46145">
        <ele>499.06</ele>
        <time>2015-10-04T10:06:54Z</time>
      </trkpt>
      <trkpt lat="42.86683" lon="2.4616">
        <ele>500.02</ele>
        <time>2015-10-04T10:06:55Z</time>
      </trkpt>
      <trkpt lat="42.86679" lon="2.46173">
        <ele>500.5</ele>
        <time>2015-10-04T10:06:56Z</time>
      </trkpt>
      <trkpt lat="42.86673" lon="2.46184">
        <ele>500.98</ele>
        <time>2015-10-04T10:06:57Z</time>
      </trkpt>
      <trkpt lat="42.86667" lon="2.46194">
        <ele>500.98</ele>
        <time>2015-10-04T10:06:58Z</time>
      </trkpt>
      <trkpt lat="42.86662" lon="2.46205">
        <ele>500.98</ele>
        <time>2015-10-04T10:06:59Z</time>
      </trkpt>
      <trkpt lat="42.86657" lon="2.46218">
        <ele>500.98</ele>
        <time>2015-10-04T10:07:00Z</time>
      </trkpt>
      <trkpt lat="42.86653" lon="2.46233">
        <ele>500.5</ele>
        <time>2015-10-04T10:07:01Z</time>
      </trkpt>
      <trkpt lat="42.8665" lon="2.46249">
        <ele>499.54</ele>
        <time>2015-10-04T10:07:02Z</time>
      </trkpt>
      <trkpt lat="42.86647" lon="2.46265">
        <ele>499.06</ele>
        <time>2015-10-04T10:07:03Z</time>
      </trkpt>
      <trkpt lat="42.86646" lon="2.46281">
        <ele>498.1</ele>
        <time>2015-10-04T10:07:04Z</time>
      </trkpt>
      <trkpt lat="42.86648" lon="2.46297">
        <ele>497.62</ele>
        <time>2015-10-04T10:07:05Z</time>
      </trkpt>
      <trkpt lat="42.86652" lon="2.46313">
        <ele>496.66</ele>
        <time>2015-10-04T10:07:06Z</time>
      </trkpt>
      <trkpt lat="42.86661" lon="2.4633">
        <ele>496.18</ele>
        <time>2015-10-04T10:07:07Z</time>
      </trkpt>
      <trkpt lat="42.86671" lon="2.46348">
        <ele>495.22</ele>
        <time>2015-10-04T10:07:08Z</time>
      </trkpt>
      <trkpt lat="42.86756" lon="2.46528">
        <ele>489.45</ele>
        <time>2015-10-04T10:07:18Z</time>
      </trkpt>
      <trkpt lat="42.86768" lon="2.46559">
        <ele>488.97</ele>
        <time>2015-10-04T10:07:20Z</time>
      </trkpt>
      <trkpt lat="42.86775" lon="2.46572">
        <ele>488.97</ele>
        <time>2015-10-04T10:07:21Z</time>
      </trkpt>
      <trkpt lat="42.86782" lon="2.46585">
        <ele>487.53</ele>
        <time>2015-10-04T10:07:22Z</time>
      </trkpt>
      <trkpt lat="42.86787" lon="2.46598">
        <ele>487.05</ele>
        <time>2015-10-04T10:07:23Z</time>
      </trkpt>
      <trkpt lat="42.86786" lon="2.46614">
        <ele>486.56</ele>
        <time>2015-10-04T10:07:24Z</time>
      </trkpt>
      <trkpt lat="42.86784" lon="2.4663">
        <ele>485.6</ele>
        <time>2015-10-04T10:07:25Z</time>
      </trkpt>
      <trkpt lat="42.86779" lon="2.46646">
        <ele>484.64</ele>
        <time>2015-10-04T10:07:26Z</time>
      </trkpt>
      <trkpt lat="42.86772" lon="2.46664">
        <ele>483.68</ele>
        <time>2015-10-04T10:07:27Z</time>
      </trkpt>
      <trkpt lat="42.86767" lon="2.46683">
        <ele>482.72</ele>
        <time>2015-10-04T10:07:28Z</time>
      </trkpt>
      <trkpt lat="42.8671" lon="2.46846">
        <ele>475.03</ele>
        <time>2015-10-04T10:07:37Z</time>
      </trkpt>
      <trkpt lat="42.86707" lon="2.46862">
        <ele>474.07</ele>
        <time>2015-10-04T10:07:38Z</time>
      </trkpt>
      <trkpt lat="42.86706" lon="2.4688">
        <ele>473.59</ele>
        <time>2015-10-04T10:07:39Z</time>
      </trkpt>
      <trkpt lat="42.8671" lon="2.469">
        <ele>473.11</ele>
        <time>2015-10-04T10:07:40Z</time>
      </trkpt>
      <trkpt lat="42.86715" lon="2.46921">
        <ele>472.63</ele>
        <time>2015-10-04T10:07:41Z</time>
      </trkpt>
      <trkpt lat="42.86719" lon="2.46943">
        <ele>472.14</ele>
        <time>2015-10-04T10:07:42Z</time>
      </trkpt>
      <trkpt lat="42.86742" lon="2.47033">
        <ele>469.74</ele>
        <time>2015-10-04T10:07:47Z</time>
      </trkpt>
      <trkpt lat="42.8675" lon="2.47045">
        <ele>468.78</ele>
        <time>2015-10-04T10:07:48Z</time>
      </trkpt>
      <trkpt lat="42.86759" lon="2.47055">
        <ele>468.78</ele>
        <time>2015-10-04T10:07:49Z</time>
      </trkpt>
      <trkpt lat="42.86767" lon="2.47064">
        <ele>468.3</ele>
        <time>2015-10-04T10:07:50Z</time>
      </trkpt>
      <trkpt lat="42.86773" lon="2.47074">
        <ele>468.3</ele>
        <time>2015-10-04T10:07:51Z</time>
      </trkpt>
      <trkpt lat="42.86776" lon="2.47085">
        <ele>467.34</ele>
        <time>2015-10-04T10:07:52Z</time>
      </trkpt>
      <trkpt lat="42.86776" lon="2.471">
        <ele>467.34</ele>
        <time>2015-10-04T10:07:53Z</time>
      </trkpt>
      <trkpt lat="42.86776" lon="2.47116">
        <ele>466.86</ele>
        <time>2015-10-04T10:07:54Z</time>
      </trkpt>
      <trkpt lat="42.86777" lon="2.47133">
        <ele>466.38</ele>
        <time>2015-10-04T10:07:55Z</time>
      </trkpt>
      <trkpt lat="42.86778" lon="2.4715">
        <ele>465.9</ele>
        <time>2015-10-04T10:07:56Z</time>
      </trkpt>
      <trkpt lat="42.86781" lon="2.47167">
        <ele>465.9</ele>
        <time>2015-10-04T10:07:57Z</time>
      </trkpt>
      <trkpt lat="42.86785" lon="2.47184">
        <ele>465.42</ele>
        <time>2015-10-04T10:07:58Z</time>
      </trkpt>
      <trkpt lat="42.86791" lon="2.472">
        <ele>464.93</ele>
        <time>2015-10-04T10:07:59Z</time>
      </trkpt>
      <trkpt lat="42.86797" lon="2.47217">
        <ele>464.93</ele>
        <time>2015-10-04T10:08:00Z</time>
      </trkpt>
      <trkpt lat="42.86833" lon="2.47311">
        <ele>462.05</ele>
        <time>2015-10-04T10:08:05Z</time>
      </trkpt>
      <trkpt lat="42.86844" lon="2.4733">
        <ele>461.57</ele>
        <time>2015-10-04T10:08:06Z</time>
      </trkpt>
      <trkpt lat="42.869" lon="2.47414">
        <ele>458.21</ele>
        <time>2015-10-04T10:08:11Z</time>
      </trkpt>
      <trkpt lat="42.86909" lon="2.47431">
        <ele>457.72</ele>
        <time>2015-10-04T10:08:12Z</time>
      </trkpt>
      <trkpt lat="42.86916" lon="2.4745">
        <ele>457.24</ele>
        <time>2015-10-04T10:08:13Z</time>
      </trkpt>
      <trkpt lat="42.86923" lon="2.47469">
        <ele>456.76</ele>
        <time>2015-10-04T10:08:14Z</time>
      </trkpt>
      <trkpt lat="42.86931" lon="2.47488">
        <ele>456.28</ele>
        <time>2015-10-04T10:08:15Z</time>
      </trkpt>
      <trkpt lat="42.86939" lon="2.47506">
        <ele>456.28</ele>
        <time>2015-10-04T10:08:16Z</time>
      </trkpt>
      <trkpt lat="42.86976" lon="2.47591">
        <ele>453.88</ele>
        <time>2015-10-04T10:08:21Z</time>
      </trkpt>
      <trkpt lat="42.86979" lon="2.4761">
        <ele>453.4</ele>
        <time>2015-10-04T10:08:22Z</time>
      </trkpt>
      <trkpt lat="42.86978" lon="2.47629">
        <ele>452.92</ele>
        <time>2015-10-04T10:08:23Z</time>
      </trkpt>
      <trkpt lat="42.86975" lon="2.47648">
        <ele>452.92</ele>
        <time>2015-10-04T10:08:24Z</time>
      </trkpt>
      <trkpt lat="42.86971" lon="2.47665">
        <ele>451.96</ele>
        <time>2015-10-04T10:08:25Z</time>
      </trkpt>
      <trkpt lat="42.86968" lon="2.47682">
        <ele>451.48</ele>
        <time>2015-10-04T10:08:26Z</time>
      </trkpt>
      <trkpt lat="42.86968" lon="2.47698">
        <ele>450.52</ele>
        <time>2015-10-04T10:08:27Z</time>
      </trkpt>
      <trkpt lat="42.86972" lon="2.47712">
        <ele>450.52</ele>
        <time>2015-10-04T10:08:28Z</time>
      </trkpt>
      <trkpt lat="42.86982" lon="2.47723">
        <ele>451</ele>
        <time>2015-10-04T10:08:29Z</time>
      </trkpt>
      <trkpt lat="42.8699" lon="2.47735">
        <ele>450.03</ele>
        <time>2015-10-04T10:08:30Z</time>
      </trkpt>
      <trkpt lat="42.86998" lon="2.47746">
        <ele>450.03</ele>
        <time>2015-10-04T10:08:31Z</time>
      </trkpt>
      <trkpt lat="42.87005" lon="2.47758">
        <ele>449.55</ele>
        <time>2015-10-04T10:08:32Z</time>
      </trkpt>
      <trkpt lat="42.87009" lon="2.47772">
        <ele>449.07</ele>
        <time>2015-10-04T10:08:33Z</time>
      </trkpt>
      <trkpt lat="42.8701" lon="2.47787">
        <ele>449.07</ele>
        <time>2015-10-04T10:08:34Z</time>
      </trkpt>
      <trkpt lat="42.87009" lon="2.47801">
        <ele>448.59</ele>
        <time>2015-10-04T10:08:35Z</time>
      </trkpt>
      <trkpt lat="42.87006" lon="2.47814">
        <ele>448.11</ele>
        <time>2015-10-04T10:08:36Z</time>
      </trkpt>
      <trkpt lat="42.87" lon="2.47825">
        <ele>447.63</ele>
        <time>2015-10-04T10:08:37Z</time>
      </trkpt>
      <trkpt lat="42.86988" lon="2.47828">
        <ele>447.63</ele>
        <time>2015-10-04T10:08:38Z</time>
      </trkpt>
      <trkpt lat="42.86977" lon="2.47829">
        <ele>447.63</ele>
        <time>2015-10-04T10:08:39Z</time>
      </trkpt>
      <trkpt lat="42.86964" lon="2.47826">
        <ele>447.63</ele>
        <time>2015-10-04T10:08:40Z</time>
      </trkpt>
      <trkpt lat="42.86951" lon="2.47825">
        <ele>447.15</ele>
        <time>2015-10-04T10:08:41Z</time>
      </trkpt>
      <trkpt lat="42.86937" lon="2.47825">
        <ele>447.15</ele>
        <time>2015-10-04T10:08:42Z</time>
      </trkpt>
      <trkpt lat="42.86924" lon="2.47828">
        <ele>447.15</ele>
        <time>2015-10-04T10:08:43Z</time>
      </trkpt>
      <trkpt lat="42.86912" lon="2.47834">
        <ele>446.67</ele>
        <time>2015-10-04T10:08:44Z</time>
      </trkpt>
      <trkpt lat="42.869" lon="2.47841">
        <ele>446.19</ele>
        <time>2015-10-04T10:08:45Z</time>
      </trkpt>
      <trkpt lat="42.86891" lon="2.47852">
        <ele>446.19</ele>
        <time>2015-10-04T10:08:46Z</time>
      </trkpt>
      <trkpt lat="42.86883" lon="2.47866">
        <ele>445.71</ele>
        <time>2015-10-04T10:08:47Z</time>
      </trkpt>
      <trkpt lat="42.86878" lon="2.47883">
        <ele>445.23</ele>
        <time>2015-10-04T10:08:48Z</time>
      </trkpt>
      <trkpt lat="42.86871" lon="2.47901">
        <ele>444.75</ele>
        <time>2015-10-04T10:08:49Z</time>
      </trkpt>
      <trkpt lat="42.86863" lon="2.47918">
        <ele>444.27</ele>
        <time>2015-10-04T10:08:50Z</time>
      </trkpt>
      <trkpt lat="42.86853" lon="2.47933">
        <ele>443.79</ele>
        <time>2015-10-04T10:08:51Z</time>
      </trkpt>
      <trkpt lat="42.86843" lon="2.47947">
        <ele>443.31</ele>
        <time>2015-10-04T10:08:52Z</time>
      </trkpt>
      <trkpt lat="42.86831" lon="2.47959">
        <ele>443.31</ele>
        <time>2015-10-04T10:08:53Z</time>
      </trkpt>
      <trkpt lat="42.86819" lon="2.47967">
        <ele>442.82</ele>
        <time>2015-10-04T10:08:54Z</time>
      </trkpt>
      <trkpt lat="42.86806" lon="2.47973">
        <ele>442.34</ele>
        <time>2015-10-04T10:08:55Z</time>
      </trkpt>
      <trkpt lat="42.86794" lon="2.4798">
        <ele>441.86</ele>
        <time>2015-10-04T10:08:56Z</time>
      </trkpt>
      <trkpt lat="42.86785" lon="2.47989">
        <ele>441.38</ele>
        <time>2015-10-04T10:08:57Z</time>
      </trkpt>
      <trkpt lat="42.86779" lon="2.48002">
        <ele>440.9</ele>
        <time>2015-10-04T10:08:58Z</time>
      </trkpt>
      <trkpt lat="42.86779" lon="2.4802">
        <ele>440.42</ele>
        <time>2015-10-04T10:08:59Z</time>
      </trkpt>
      <trkpt lat="42.86779" lon="2.48041">
        <ele>440.42</ele>
        <time>2015-10-04T10:09:00Z</time>
      </trkpt>
      <trkpt lat="42.86777" lon="2.48061">
        <ele>439.46</ele>
        <time>2015-10-04T10:09:01Z</time>
      </trkpt>
      <trkpt lat="42.86774" lon="2.4808">
        <ele>439.46</ele>
        <time>2015-10-04T10:09:02Z</time>
      </trkpt>
      <trkpt lat="42.86771" lon="2.48098">
        <ele>438.98</ele>
        <time>2015-10-04T10:09:03Z</time>
      </trkpt>
      <trkpt lat="42.86772" lon="2.48115">
        <ele>438.5</ele>
        <time>2015-10-04T10:09:04Z</time>
      </trkpt>
      <trkpt lat="42.86777" lon="2.4813">
        <ele>438.02</ele>
        <time>2015-10-04T10:09:05Z</time>
      </trkpt>
      <trkpt lat="42.86785" lon="2.48143">
        <ele>438.02</ele>
        <time>2015-10-04T10:09:06Z</time>
      </trkpt>
      <trkpt lat="42.86793" lon="2.48154">
        <ele>438.02</ele>
        <time>2015-10-04T10:09:07Z</time>
      </trkpt>
      <trkpt lat="42.86801" lon="2.48163">
        <ele>438.02</ele>
        <time>2015-10-04T10:09:08Z</time>
      </trkpt>
      <trkpt lat="42.86815" lon="2.48183">
        <ele>437.54</ele>
        <time>2015-10-04T10:09:10Z</time>
      </trkpt>
      <trkpt lat="42.86819" lon="2.48195">
        <ele>437.54</ele>
        <time>2015-10-04T10:09:11Z</time>
      </trkpt>
      <trkpt lat="42.86819" lon="2.4821">
        <ele>437.06</ele>
        <time>2015-10-04T10:09:12Z</time>
      </trkpt>
      <trkpt lat="42.86816" lon="2.48224">
        <ele>437.06</ele>
        <time>2015-10-04T10:09:13Z</time>
      </trkpt>
      <trkpt lat="42.86811" lon="2.48238">
        <ele>436.58</ele>
        <time>2015-10-04T10:09:14Z</time>
      </trkpt>
      <trkpt lat="42.86807" lon="2.48254">
        <ele>436.1</ele>
        <time>2015-10-04T10:09:15Z</time>
      </trkpt>
      <trkpt lat="42.86805" lon="2.48271">
        <ele>435.13</ele>
        <time>2015-10-04T10:09:16Z</time>
      </trkpt>
      <trkpt lat="42.86804" lon="2.48289">
        <ele>434.65</ele>
        <time>2015-10-04T10:09:17Z</time>
      </trkpt>
      <trkpt lat="42.86805" lon="2.48308">
        <ele>434.65</ele>
        <time>2015-10-04T10:09:18Z</time>
      </trkpt>
      <trkpt lat="42.86808" lon="2.48327">
        <ele>433.69</ele>
        <time>2015-10-04T10:09:19Z</time>
      </trkpt>
      <trkpt lat="42.86812" lon="2.48348">
        <ele>433.21</ele>
        <time>2015-10-04T10:09:20Z</time>
      </trkpt>
      <trkpt lat="42.86818" lon="2.48369">
        <ele>432.25</ele>
        <time>2015-10-04T10:09:21Z</time>
      </trkpt>
      <trkpt lat="42.86826" lon="2.4839">
        <ele>431.77</ele>
        <time>2015-10-04T10:09:22Z</time>
      </trkpt>
      <trkpt lat="42.86864" lon="2.48486">
        <ele>429.37</ele>
        <time>2015-10-04T10:09:27Z</time>
      </trkpt>
      <trkpt lat="42.86875" lon="2.48493">
        <ele>428.4</ele>
        <time>2015-10-04T10:09:28Z</time>
      </trkpt>
      <trkpt lat="42.86887" lon="2.48496">
        <ele>427.92</ele>
        <time>2015-10-04T10:09:29Z</time>
      </trkpt>
      <trkpt lat="42.869" lon="2.48494">
        <ele>426.96</ele>
        <time>2015-10-04T10:09:30Z</time>
      </trkpt>
      <trkpt lat="42.86916" lon="2.48491">
        <ele>427.44</ele>
        <time>2015-10-04T10:09:31Z</time>
      </trkpt>
      <trkpt lat="42.86932" lon="2.48484">
        <ele>426.96</ele>
        <time>2015-10-04T10:09:32Z</time>
      </trkpt>
      <trkpt lat="42.86949" lon="2.48479">
        <ele>426.48</ele>
        <time>2015-10-04T10:09:33Z</time>
      </trkpt>
      <trkpt lat="42.87005" lon="2.48466">
        <ele>425.52</ele>
        <time>2015-10-04T10:09:37Z</time>
      </trkpt>
      <trkpt lat="42.87017" lon="2.48471">
        <ele>424.56</ele>
        <time>2015-10-04T10:09:38Z</time>
      </trkpt>
      <trkpt lat="42.87024" lon="2.48481">
        <ele>423.6</ele>
        <time>2015-10-04T10:09:39Z</time>
      </trkpt>
      <trkpt lat="42.87029" lon="2.48499">
        <ele>422.64</ele>
        <time>2015-10-04T10:09:40Z</time>
      </trkpt>
      <trkpt lat="42.87033" lon="2.48518">
        <ele>422.64</ele>
        <time>2015-10-04T10:09:41Z</time>
      </trkpt>
      <trkpt lat="42.87037" lon="2.48536">
        <ele>422.64</ele>
        <time>2015-10-04T10:09:42Z</time>
      </trkpt>
      <trkpt lat="42.87042" lon="2.48553">
        <ele>422.64</ele>
        <time>2015-10-04T10:09:43Z</time>
      </trkpt>
      <trkpt lat="42.8705" lon="2.48566">
        <ele>422.16</ele>
        <time>2015-10-04T10:09:44Z</time>
      </trkpt>
      <trkpt lat="42.8706" lon="2.48574">
        <ele>422.16</ele>
        <time>2015-10-04T10:09:45Z</time>
      </trkpt>
      <trkpt lat="42.87071" lon="2.48577">
        <ele>421.68</ele>
        <time>2015-10-04T10:09:46Z</time>
      </trkpt>
      <trkpt lat="42.87081" lon="2.48579">
        <ele>421.68</ele>
        <time>2015-10-04T10:09:47Z</time>
      </trkpt>
      <trkpt lat="42.87094" lon="2.48579">
        <ele>422.16</ele>
        <time>2015-10-04T10:09:48Z</time>
      </trkpt>
      <trkpt lat="42.87104" lon="2.48587">
        <ele>422.64</ele>
        <time>2015-10-04T10:09:49Z</time>
      </trkpt>
      <trkpt lat="42.87111" lon="2.48598">
        <ele>422.64</ele>
        <time>2015-10-04T10:09:50Z</time>
      </trkpt>
      <trkpt lat="42.87118" lon="2.48612">
        <ele>422.64</ele>
        <time>2015-10-04T10:09:51Z</time>
      </trkpt>
      <trkpt lat="42.87125" lon="2.48623">
        <ele>422.64</ele>
        <time>2015-10-04T10:09:52Z</time>
      </trkpt>
      <trkpt lat="42.87134" lon="2.48631">
        <ele>422.16</ele>
        <time>2015-10-04T10:09:53Z</time>
      </trkpt>
      <trkpt lat="42.87146" lon="2.48634">
        <ele>422.64</ele>
        <time>2015-10-04T10:09:54Z</time>
      </trkpt>
      <trkpt lat="42.87159" lon="2.48634">
        <ele>422.16</ele>
        <time>2015-10-04T10:09:55Z</time>
      </trkpt>
      <trkpt lat="42.87172" lon="2.48631">
        <ele>422.64</ele>
        <time>2015-10-04T10:09:56Z</time>
      </trkpt>
      <trkpt lat="42.87184" lon="2.48627">
        <ele>422.64</ele>
        <time>2015-10-04T10:09:57Z</time>
      </trkpt>
      <trkpt lat="42.87195" lon="2.48622">
        <ele>422.64</ele>
        <time>2015-10-04T10:09:58Z</time>
      </trkpt>
      <trkpt lat="42.87205" lon="2.48616">
        <ele>422.64</ele>
        <time>2015-10-04T10:09:59Z</time>
      </trkpt>
      <trkpt lat="42.87212" lon="2.48608">
        <ele>422.16</ele>
        <time>2015-10-04T10:10:00Z</time>
      </trkpt>
      <trkpt lat="42.87219" lon="2.48599">
        <ele>421.68</ele>
        <time>2015-10-04T10:10:01Z</time>
      </trkpt>
      <trkpt lat="42.87226" lon="2.48592">
        <ele>421.68</ele>
        <time>2015-10-04T10:10:02Z</time>
      </trkpt>
      <trkpt lat="42.87233" lon="2.48587">
        <ele>421.68</ele>
        <time>2015-10-04T10:10:03Z</time>
      </trkpt>
      <trkpt lat="42.87242" lon="2.48589">
        <ele>421.68</ele>
        <time>2015-10-04T10:10:04Z</time>
      </trkpt>
      <trkpt lat="42.87252" lon="2.48595">
        <ele>421.19</ele>
        <time>2015-10-04T10:10:05Z</time>
      </trkpt>
      <trkpt lat="42.87262" lon="2.48604">
        <ele>420.71</ele>
        <time>2015-10-04T10:10:06Z</time>
      </trkpt>
      <trkpt lat="42.87273" lon="2.48617">
        <ele>421.19</ele>
        <time>2015-10-04T10:10:07Z</time>
      </trkpt>
      <trkpt lat="42.87283" lon="2.4863">
        <ele>422.16</ele>
        <time>2015-10-04T10:10:08Z</time>
      </trkpt>
      <trkpt lat="42.87309" lon="2.48666">
        <ele>424.08</ele>
        <time>2015-10-04T10:10:11Z</time>
      </trkpt>
      <trkpt lat="42.87312" lon="2.48683">
        <ele>424.08</ele>
        <time>2015-10-04T10:10:12Z</time>
      </trkpt>
      <trkpt lat="42.8731" lon="2.48701">
        <ele>423.6</ele>
        <time>2015-10-04T10:10:13Z</time>
      </trkpt>
      <trkpt lat="42.87307" lon="2.48717">
        <ele>424.08</ele>
        <time>2015-10-04T10:10:14Z</time>
      </trkpt>
      <trkpt lat="42.87304" lon="2.48731">
        <ele>424.56</ele>
        <time>2015-10-04T10:10:15Z</time>
      </trkpt>
      <trkpt lat="42.87302" lon="2.48745">
        <ele>424.56</ele>
        <time>2015-10-04T10:10:16Z</time>
      </trkpt>
      <trkpt lat="42.87303" lon="2.4876">
        <ele>424.56</ele>
        <time>2015-10-04T10:10:17Z</time>
      </trkpt>
      <trkpt lat="42.87306" lon="2.48775">
        <ele>425.04</ele>
        <time>2015-10-04T10:10:18Z</time>
      </trkpt>
      <trkpt lat="42.87311" lon="2.48792">
        <ele>425.52</ele>
        <time>2015-10-04T10:10:19Z</time>
      </trkpt>
      <trkpt lat="42.87318" lon="2.48809">
        <ele>425.52</ele>
        <time>2015-10-04T10:10:20Z</time>
      </trkpt>
      <trkpt lat="42.87375" lon="2.48971">
        <ele>428.4</ele>
        <time>2015-10-04T10:10:28Z</time>
      </trkpt>
      <trkpt lat="42.87383" lon="2.48991">
        <ele>428.4</ele>
        <time>2015-10-04T10:10:29Z</time>
      </trkpt>
      <trkpt lat="42.87392" lon="2.4901">
        <ele>428.4</ele>
        <time>2015-10-04T10:10:30Z</time>
      </trkpt>
      <trkpt lat="42.87462" lon="2.49155">
        <ele>429.37</ele>
        <time>2015-10-04T10:10:38Z</time>
      </trkpt>
      <trkpt lat="42.87466" lon="2.49174">
        <ele>429.37</ele>
        <time>2015-10-04T10:10:39Z</time>
      </trkpt>
      <trkpt lat="42.87468" lon="2.49192">
        <ele>429.37</ele>
        <time>2015-10-04T10:10:40Z</time>
      </trkpt>
      <trkpt lat="42.8747" lon="2.49219">
        <ele>429.85</ele>
        <time>2015-10-04T10:10:43Z</time>
      </trkpt>
      <trkpt lat="42.87471" lon="2.49223">
        <ele>429.85</ele>
        <time>2015-10-04T10:10:44Z</time>
      </trkpt>
      <trkpt lat="42.87473" lon="2.49227">
        <ele>429.85</ele>
        <time>2015-10-04T10:10:45Z</time>
      </trkpt>
      <trkpt lat="42.87476" lon="2.49231">
        <ele>429.85</ele>
        <time>2015-10-04T10:10:46Z</time>
      </trkpt>
      <trkpt lat="42.87481" lon="2.49234">
        <ele>429.85</ele>
        <time>2015-10-04T10:10:47Z</time>
      </trkpt>
      <trkpt lat="42.87486" lon="2.49235">
        <ele>429.85</ele>
        <time>2015-10-04T10:10:48Z</time>
      </trkpt>
      <trkpt lat="42.87493" lon="2.49235">
        <ele>429.85</ele>
        <time>2015-10-04T10:10:49Z</time>
      </trkpt>
      <trkpt lat="42.87499" lon="2.49234">
        <ele>429.85</ele>
        <time>2015-10-04T10:10:50Z</time>
      </trkpt>
      <trkpt lat="42.87506" lon="2.49234">
        <ele>430.33</ele>
        <time>2015-10-04T10:10:51Z</time>
      </trkpt>
      <trkpt lat="42.87513" lon="2.49235">
        <ele>430.33</ele>
        <time>2015-10-04T10:10:52Z</time>
      </trkpt>
      <trkpt lat="42.8752" lon="2.49239">
        <ele>429.85</ele>
        <time>2015-10-04T10:10:53Z</time>
      </trkpt>
      <trkpt lat="42.87527" lon="2.49245">
        <ele>429.85</ele>
        <time>2015-10-04T10:10:54Z</time>
      </trkpt>
      <trkpt lat="42.87534" lon="2.49253">
        <ele>430.33</ele>
        <time>2015-10-04T10:10:55Z</time>
      </trkpt>
      <trkpt lat="42.8754" lon="2.49264">
        <ele>430.33</ele>
        <time>2015-10-04T10:10:56Z</time>
      </trkpt>
      <trkpt lat="42.87545" lon="2.49276">
        <ele>429.85</ele>
        <time>2015-10-04T10:10:57Z</time>
      </trkpt>
      <trkpt lat="42.87548" lon="2.49291">
        <ele>429.85</ele>
        <time>2015-10-04T10:10:58Z</time>
      </trkpt>
      <trkpt lat="42.8755" lon="2.49309">
        <ele>429.85</ele>
        <time>2015-10-04T10:10:59Z</time>
      </trkpt>
      <trkpt lat="42.87551" lon="2.49329">
        <ele>429.85</ele>
        <time>2015-10-04T10:11:00Z</time>
      </trkpt>
      <trkpt lat="42.87551" lon="2.49349">
        <ele>429.85</ele>
        <time>2015-10-04T10:11:01Z</time>
      </trkpt>
      <trkpt lat="42.87542" lon="2.4955">
        <ele>427.44</ele>
        <time>2015-10-04T10:11:12Z</time>
      </trkpt>
      <trkpt lat="42.87544" lon="2.49565">
        <ele>426.96</ele>
        <time>2015-10-04T10:11:13Z</time>
      </trkpt>
      <trkpt lat="42.8755" lon="2.49578">
        <ele>426.96</ele>
        <time>2015-10-04T10:11:14Z</time>
      </trkpt>
      <trkpt lat="42.8756" lon="2.49586">
        <ele>426.96</ele>
        <time>2015-10-04T10:11:15Z</time>
      </trkpt>
      <trkpt lat="42.87571" lon="2.49594">
        <ele>426.96</ele>
        <time>2015-10-04T10:11:16Z</time>
      </trkpt>
      <trkpt lat="42.87584" lon="2.49598">
        <ele>426.96</ele>
        <time>2015-10-04T10:11:17Z</time>
      </trkpt>
      <trkpt lat="42.87598" lon="2.49598">
        <ele>426</ele>
        <time>2015-10-04T10:11:18Z</time>
      </trkpt>
      <trkpt lat="42.87612" lon="2.49599">
        <ele>426</ele>
        <time>2015-10-04T10:11:19Z</time>
      </trkpt>
      <trkpt lat="42.8765" lon="2.49606">
        <ele>425.52</ele>
        <time>2015-10-04T10:11:22Z</time>
      </trkpt>
      <trkpt lat="42.87662" lon="2.49612">
        <ele>424.56</ele>
        <time>2015-10-04T10:11:23Z</time>
      </trkpt>
      <trkpt lat="42.87672" lon="2.49622">
        <ele>423.6</ele>
        <time>2015-10-04T10:11:24Z</time>
      </trkpt>
      <trkpt lat="42.87681" lon="2.49636">
        <ele>423.12</ele>
        <time>2015-10-04T10:11:25Z</time>
      </trkpt>
      <trkpt lat="42.87689" lon="2.49652">
        <ele>422.16</ele>
        <time>2015-10-04T10:11:26Z</time>
      </trkpt>
      <trkpt lat="42.87695" lon="2.4967">
        <ele>421.68</ele>
        <time>2015-10-04T10:11:27Z</time>
      </trkpt>
      <trkpt lat="42.87702" lon="2.49688">
        <ele>421.19</ele>
        <time>2015-10-04T10:11:28Z</time>
      </trkpt>
      <trkpt lat="42.87749" lon="2.49792">
        <ele>417.35</ele>
        <time>2015-10-04T10:11:34Z</time>
      </trkpt>
      <trkpt lat="42.87759" lon="2.49805">
        <ele>416.87</ele>
        <time>2015-10-04T10:11:35Z</time>
      </trkpt>
      <trkpt lat="42.8777" lon="2.49816">
        <ele>416.87</ele>
        <time>2015-10-04T10:11:36Z</time>
      </trkpt>
      <trkpt lat="42.87792" lon="2.49836">
        <ele>416.39</ele>
        <time>2015-10-04T10:11:38Z</time>
      </trkpt>
      <trkpt lat="42.87801" lon="2.49848">
        <ele>415.91</ele>
        <time>2015-10-04T10:11:39Z</time>
      </trkpt>
      <trkpt lat="42.87808" lon="2.49864">
        <ele>415.43</ele>
        <time>2015-10-04T10:11:40Z</time>
      </trkpt>
      <trkpt lat="42.87813" lon="2.49882">
        <ele>414.95</ele>
        <time>2015-10-04T10:11:41Z</time>
      </trkpt>
      <trkpt lat="42.87817" lon="2.49903">
        <ele>414.47</ele>
        <time>2015-10-04T10:11:42Z</time>
      </trkpt>
      <trkpt lat="42.8782" lon="2.49925">
        <ele>413.98</ele>
        <time>2015-10-04T10:11:43Z</time>
      </trkpt>
      <trkpt lat="42.87827" lon="2.50097">
        <ele>410.14</ele>
        <time>2015-10-04T10:11:51Z</time>
      </trkpt>
      <trkpt lat="42.87829" lon="2.50116">
        <ele>409.18</ele>
        <time>2015-10-04T10:11:52Z</time>
      </trkpt>
      <trkpt lat="42.87833" lon="2.50133">
        <ele>408.7</ele>
        <time>2015-10-04T10:11:53Z</time>
      </trkpt>
      <trkpt lat="42.87836" lon="2.50148">
        <ele>407.74</ele>
        <time>2015-10-04T10:11:54Z</time>
      </trkpt>
      <trkpt lat="42.87859" lon="2.50266">
        <ele>402.45</ele>
        <time>2015-10-04T10:12:04Z</time>
      </trkpt>
      <trkpt lat="42.8787" lon="2.50363">
        <ele>400.05</ele>
        <time>2015-10-04T10:12:14Z</time>
      </trkpt>
      <trkpt lat="42.8787" lon="2.50371">
        <ele>399.57</ele>
        <time>2015-10-04T10:12:15Z</time>
      </trkpt>
      <trkpt lat="42.8787" lon="2.50378">
        <ele>400.05</ele>
        <time>2015-10-04T10:12:16Z</time>
      </trkpt>
      <trkpt lat="42.87873" lon="2.50401">
        <ele>399.57</ele>
        <time>2015-10-04T10:12:19Z</time>
      </trkpt>
      <trkpt lat="42.87874" lon="2.5041">
        <ele>400.05</ele>
        <time>2015-10-04T10:12:20Z</time>
      </trkpt>
      <trkpt lat="42.87878" lon="2.50445">
        <ele>401.49</ele>
        <time>2015-10-04T10:12:25Z</time>
      </trkpt>
      <trkpt lat="42.87881" lon="2.5045">
        <ele>401.01</ele>
        <time>2015-10-04T10:12:26Z</time>
      </trkpt>
      <trkpt lat="42.87883" lon="2.50455">
        <ele>400.05</ele>
        <time>2015-10-04T10:12:27Z</time>
      </trkpt>
      <trkpt lat="42.87885" lon="2.50461">
        <ele>399.08</ele>
        <time>2015-10-04T10:12:28Z</time>
      </trkpt>
      <trkpt lat="42.8789" lon="2.50464">
        <ele>398.12</ele>
        <time>2015-10-04T10:12:29Z</time>
      </trkpt>
      <trkpt lat="42.87895" lon="2.50468">
        <ele>397.64</ele>
        <time>2015-10-04T10:12:30Z</time>
      </trkpt>
      <trkpt lat="42.879" lon="2.50471">
        <ele>397.16</ele>
        <time>2015-10-04T10:12:31Z</time>
      </trkpt>
      <trkpt lat="42.87911" lon="2.50479">
        <ele>398.12</ele>
        <time>2015-10-04T10:12:33Z</time>
      </trkpt>
      <trkpt lat="42.87915" lon="2.50484">
        <ele>397.64</ele>
        <time>2015-10-04T10:12:34Z</time>
      </trkpt>
      <trkpt lat="42.87919" lon="2.5049">
        <ele>397.16</ele>
        <time>2015-10-04T10:12:35Z</time>
      </trkpt>
      <trkpt lat="42.87922" lon="2.50496">
        <ele>397.16</ele>
        <time>2015-10-04T10:12:36Z</time>
      </trkpt>
      <trkpt lat="42.87923" lon="2.50503">
        <ele>397.16</ele>
        <time>2015-10-04T10:12:37Z</time>
      </trkpt>
      <trkpt lat="42.87925" lon="2.50512">
        <ele>397.64</ele>
        <time>2015-10-04T10:12:38Z</time>
      </trkpt>
      <trkpt lat="42.87926" lon="2.5052">
        <ele>399.08</ele>
        <time>2015-10-04T10:12:39Z</time>
      </trkpt>
      <trkpt lat="42.87926" lon="2.50528">
        <ele>398.6</ele>
        <time>2015-10-04T10:12:40Z</time>
      </trkpt>
      <trkpt lat="42.87923" lon="2.50554">
        <ele>397.64</ele>
        <time>2015-10-04T10:12:44Z</time>
      </trkpt>
      <trkpt lat="42.8792" lon="2.50561">
        <ele>397.16</ele>
        <time>2015-10-04T10:12:45Z</time>
      </trkpt>
      <trkpt lat="42.87916" lon="2.50568">
        <ele>396.68</ele>
        <time>2015-10-04T10:12:46Z</time>
      </trkpt>
      <trkpt lat="42.87887" lon="2.5062">
        <ele>394.28</ele>
        <time>2015-10-04T10:12:52Z</time>
      </trkpt>
      <trkpt lat="42.87881" lon="2.50633">
        <ele>393.8</ele>
        <time>2015-10-04T10:12:53Z</time>
      </trkpt>
      <trkpt lat="42.87835" lon="2.50772">
        <ele>392.36</ele>
        <time>2015-10-04T10:13:02Z</time>
      </trkpt>
      <trkpt lat="42.87831" lon="2.50788">
        <ele>392.36</ele>
        <time>2015-10-04T10:13:03Z</time>
      </trkpt>
      <trkpt lat="42.87828" lon="2.50804">
        <ele>392.36</ele>
        <time>2015-10-04T10:13:04Z</time>
      </trkpt>
      <trkpt lat="42.87828" lon="2.5082">
        <ele>392.36</ele>
        <time>2015-10-04T10:13:05Z</time>
      </trkpt>
      <trkpt lat="42.87833" lon="2.50838">
        <ele>391.87</ele>
        <time>2015-10-04T10:13:06Z</time>
      </trkpt>
      <trkpt lat="42.87841" lon="2.50856">
        <ele>391.87</ele>
        <time>2015-10-04T10:13:07Z</time>
      </trkpt>
      <trkpt lat="42.87849" lon="2.50875">
        <ele>391.39</ele>
        <time>2015-10-04T10:13:08Z</time>
      </trkpt>
      <trkpt lat="42.87862" lon="2.50916">
        <ele>390.43</ele>
        <time>2015-10-04T10:13:10Z</time>
      </trkpt>
      <trkpt lat="42.87865" lon="2.50939">
        <ele>390.43</ele>
        <time>2015-10-04T10:13:11Z</time>
      </trkpt>
      <trkpt lat="42.87866" lon="2.50963">
        <ele>389.95</ele>
        <time>2015-10-04T10:13:12Z</time>
      </trkpt>
      <trkpt lat="42.87864" lon="2.50987">
        <ele>389.47</ele>
        <time>2015-10-04T10:13:13Z</time>
      </trkpt>
      <trkpt lat="42.87859" lon="2.5101">
        <ele>388.99</ele>
        <time>2015-10-04T10:13:14Z</time>
      </trkpt>
      <trkpt lat="42.87852" lon="2.51031">
        <ele>388.51</ele>
        <time>2015-10-04T10:13:15Z</time>
      </trkpt>
      <trkpt lat="42.87839" lon="2.51051">
        <ele>388.03</ele>
        <time>2015-10-04T10:13:16Z</time>
      </trkpt>
      <trkpt lat="42.87825" lon="2.5107">
        <ele>388.03</ele>
        <time>2015-10-04T10:13:17Z</time>
      </trkpt>
      <trkpt lat="42.87809" lon="2.51085">
        <ele>388.03</ele>
        <time>2015-10-04T10:13:18Z</time>
      </trkpt>
      <trkpt lat="42.87792" lon="2.511">
        <ele>387.55</ele>
        <time>2015-10-04T10:13:19Z</time>
      </trkpt>
      <trkpt lat="42.87776" lon="2.51112">
        <ele>387.55</ele>
        <time>2015-10-04T10:13:20Z</time>
      </trkpt>
      <trkpt lat="42.87761" lon="2.51123">
        <ele>387.07</ele>
        <time>2015-10-04T10:13:21Z</time>
      </trkpt>
      <trkpt lat="42.87745" lon="2.51127">
        <ele>387.55</ele>
        <time>2015-10-04T10:13:22Z</time>
      </trkpt>
      <trkpt lat="42.8773" lon="2.51127">
        <ele>387.07</ele>
        <time>2015-10-04T10:13:23Z</time>
      </trkpt>
      <trkpt lat="42.87706" lon="2.51131">
        <ele>386.59</ele>
        <time>2015-10-04T10:13:25Z</time>
      </trkpt>
      <trkpt lat="42.87696" lon="2.51136">
        <ele>386.59</ele>
        <time>2015-10-04T10:13:26Z</time>
      </trkpt>
      <trkpt lat="42.87687" lon="2.51144">
        <ele>386.11</ele>
        <time>2015-10-04T10:13:27Z</time>
      </trkpt>
      <trkpt lat="42.87679" lon="2.51153">
        <ele>385.63</ele>
        <time>2015-10-04T10:13:28Z</time>
      </trkpt>
      <trkpt lat="42.87673" lon="2.51166">
        <ele>385.63</ele>
        <time>2015-10-04T10:13:29Z</time>
      </trkpt>
      <trkpt lat="42.87672" lon="2.51185">
        <ele>385.15</ele>
        <time>2015-10-04T10:13:30Z</time>
      </trkpt>
      <trkpt lat="42.87674" lon="2.51206">
        <ele>384.66</ele>
        <time>2015-10-04T10:13:31Z</time>
      </trkpt>
      <trkpt lat="42.87679" lon="2.51228">
        <ele>384.18</ele>
        <time>2015-10-04T10:13:32Z</time>
      </trkpt>
      <trkpt lat="42.87685" lon="2.5125">
        <ele>383.7</ele>
        <time>2015-10-04T10:13:33Z</time>
      </trkpt>
      <trkpt lat="42.87691" lon="2.51273">
        <ele>382.74</ele>
        <time>2015-10-04T10:13:34Z</time>
      </trkpt>
      <trkpt lat="42.87712" lon="2.51421">
        <ele>379.38</ele>
        <time>2015-10-04T10:13:40Z</time>
      </trkpt>
      <trkpt lat="42.87719" lon="2.51447">
        <ele>379.86</ele>
        <time>2015-10-04T10:13:41Z</time>
      </trkpt>
      <trkpt lat="42.87772" lon="2.51649">
        <ele>379.86</ele>
        <time>2015-10-04T10:13:49Z</time>
      </trkpt>
      <trkpt lat="42.87781" lon="2.51711">
        <ele>378.42</ele>
        <time>2015-10-04T10:13:52Z</time>
      </trkpt>
      <trkpt lat="42.8778" lon="2.51732">
        <ele>377.94</ele>
        <time>2015-10-04T10:13:53Z</time>
      </trkpt>
      <trkpt lat="42.87777" lon="2.51752">
        <ele>377.45</ele>
        <time>2015-10-04T10:13:54Z</time>
      </trkpt>
      <trkpt lat="42.8777" lon="2.51787">
        <ele>376.49</ele>
        <time>2015-10-04T10:13:56Z</time>
      </trkpt>
      <trkpt lat="42.87769" lon="2.51801">
        <ele>376.49</ele>
        <time>2015-10-04T10:13:57Z</time>
      </trkpt>
      <trkpt lat="42.87772" lon="2.51816">
        <ele>376.49</ele>
        <time>2015-10-04T10:13:58Z</time>
      </trkpt>
      <trkpt lat="42.87776" lon="2.51833">
        <ele>376.01</ele>
        <time>2015-10-04T10:13:59Z</time>
      </trkpt>
      <trkpt lat="42.87781" lon="2.51851">
        <ele>376.01</ele>
        <time>2015-10-04T10:14:00Z</time>
      </trkpt>
      <trkpt lat="42.87832" lon="2.52022">
        <ele>372.65</ele>
        <time>2015-10-04T10:14:09Z</time>
      </trkpt>
      <trkpt lat="42.87835" lon="2.52041">
        <ele>372.17</ele>
        <time>2015-10-04T10:14:10Z</time>
      </trkpt>
      <trkpt lat="42.87847" lon="2.52213">
        <ele>372.17</ele>
        <time>2015-10-04T10:14:17Z</time>
      </trkpt>
      <trkpt lat="42.87875" lon="2.52369">
        <ele>371.21</ele>
        <time>2015-10-04T10:14:24Z</time>
      </trkpt>
      <trkpt lat="42.87877" lon="2.52387">
        <ele>370.73</ele>
        <time>2015-10-04T10:14:25Z</time>
      </trkpt>
      <trkpt lat="42.87875" lon="2.52406">
        <ele>370.73</ele>
        <time>2015-10-04T10:14:26Z</time>
      </trkpt>
      <trkpt lat="42.87869" lon="2.52425">
        <ele>370.73</ele>
        <time>2015-10-04T10:14:27Z</time>
      </trkpt>
      <trkpt lat="42.87861" lon="2.52445">
        <ele>370.24</ele>
        <time>2015-10-04T10:14:28Z</time>
      </trkpt>
      <trkpt lat="42.87853" lon="2.52465">
        <ele>369.76</ele>
        <time>2015-10-04T10:14:29Z</time>
      </trkpt>
      <trkpt lat="42.87794" lon="2.5262">
        <ele>367.36</ele>
        <time>2015-10-04T10:14:37Z</time>
      </trkpt>
      <trkpt lat="42.8779" lon="2.52638">
        <ele>367.36</ele>
        <time>2015-10-04T10:14:38Z</time>
      </trkpt>
      <trkpt lat="42.8779" lon="2.52659">
        <ele>367.36</ele>
        <time>2015-10-04T10:14:39Z</time>
      </trkpt>
      <trkpt lat="42.87792" lon="2.52682">
        <ele>366.88</ele>
        <time>2015-10-04T10:14:40Z</time>
      </trkpt>
      <trkpt lat="42.87796" lon="2.52709">
        <ele>365.92</ele>
        <time>2015-10-04T10:14:41Z</time>
      </trkpt>
      <trkpt lat="42.87825" lon="2.52983">
        <ele>362.55</ele>
        <time>2015-10-04T10:14:52Z</time>
      </trkpt>
      <trkpt lat="42.87894" lon="2.5331">
        <ele>360.63</ele>
        <time>2015-10-04T10:15:05Z</time>
      </trkpt>
      <trkpt lat="42.87926" lon="2.53414">
        <ele>361.11</ele>
        <time>2015-10-04T10:15:10Z</time>
      </trkpt>
      <trkpt lat="42.87937" lon="2.53432">
        <ele>361.11</ele>
        <time>2015-10-04T10:15:11Z</time>
      </trkpt>
      <trkpt lat="42.87969" lon="2.53489">
        <ele>362.55</ele>
        <time>2015-10-04T10:15:14Z</time>
      </trkpt>
      <trkpt lat="42.87977" lon="2.53511">
        <ele>362.55</ele>
        <time>2015-10-04T10:15:15Z</time>
      </trkpt>
      <trkpt lat="42.87984" lon="2.53534">
        <ele>362.55</ele>
        <time>2015-10-04T10:15:16Z</time>
      </trkpt>
      <trkpt lat="42.88055" lon="2.53745">
        <ele>362.55</ele>
        <time>2015-10-04T10:15:25Z</time>
      </trkpt>
      <trkpt lat="42.88061" lon="2.53771">
        <ele>362.55</ele>
        <time>2015-10-04T10:15:26Z</time>
      </trkpt>
      <trkpt lat="42.88064" lon="2.53799">
        <ele>362.07</ele>
        <time>2015-10-04T10:15:27Z</time>
      </trkpt>
      <trkpt lat="42.88086" lon="2.54068">
        <ele>356.31</ele>
        <time>2015-10-04T10:15:37Z</time>
      </trkpt>
      <trkpt lat="42.88105" lon="2.54313">
        <ele>352.94</ele>
        <time>2015-10-04T10:15:48Z</time>
      </trkpt>
      <trkpt lat="42.88102" lon="2.54333">
        <ele>352.94</ele>
        <time>2015-10-04T10:15:49Z</time>
      </trkpt>
      <trkpt lat="42.88098" lon="2.54353">
        <ele>352.46</ele>
        <time>2015-10-04T10:15:50Z</time>
      </trkpt>
      <trkpt lat="42.88091" lon="2.54371">
        <ele>352.46</ele>
        <time>2015-10-04T10:15:51Z</time>
      </trkpt>
      <trkpt lat="42.88082" lon="2.54387">
        <ele>351.98</ele>
        <time>2015-10-04T10:15:52Z</time>
      </trkpt>
      <trkpt lat="42.88072" lon="2.54402">
        <ele>351.5</ele>
        <time>2015-10-04T10:15:53Z</time>
      </trkpt>
      <trkpt lat="42.88061" lon="2.54413">
        <ele>351.5</ele>
        <time>2015-10-04T10:15:54Z</time>
      </trkpt>
      <trkpt lat="42.88049" lon="2.54421">
        <ele>351.02</ele>
        <time>2015-10-04T10:15:55Z</time>
      </trkpt>
      <trkpt lat="42.88036" lon="2.54425">
        <ele>351.02</ele>
        <time>2015-10-04T10:15:56Z</time>
      </trkpt>
      <trkpt lat="42.88024" lon="2.54427">
        <ele>351.02</ele>
        <time>2015-10-04T10:15:57Z</time>
      </trkpt>
      <trkpt lat="42.88013" lon="2.54429">
        <ele>351.5</ele>
        <time>2015-10-04T10:15:58Z</time>
      </trkpt>
      <trkpt lat="42.87993" lon="2.54434">
        <ele>352.46</ele>
        <time>2015-10-04T10:16:00Z</time>
      </trkpt>
      <trkpt lat="42.87985" lon="2.54439">
        <ele>352.94</ele>
        <time>2015-10-04T10:16:01Z</time>
      </trkpt>
      <trkpt lat="42.87979" lon="2.54447">
        <ele>353.42</ele>
        <time>2015-10-04T10:16:02Z</time>
      </trkpt>
      <trkpt lat="42.87977" lon="2.5446">
        <ele>353.9</ele>
        <time>2015-10-04T10:16:03Z</time>
      </trkpt>
      <trkpt lat="42.87977" lon="2.54476">
        <ele>354.86</ele>
        <time>2015-10-04T10:16:04Z</time>
      </trkpt>
      <trkpt lat="42.87976" lon="2.54492">
        <ele>355.83</ele>
        <time>2015-10-04T10:16:05Z</time>
      </trkpt>
      <trkpt lat="42.87975" lon="2.54507">
        <ele>356.31</ele>
        <time>2015-10-04T10:16:06Z</time>
      </trkpt>
      <trkpt lat="42.87971" lon="2.54521">
        <ele>356.79</ele>
        <time>2015-10-04T10:16:07Z</time>
      </trkpt>
      <trkpt lat="42.87966" lon="2.54533">
        <ele>357.27</ele>
        <time>2015-10-04T10:16:08Z</time>
      </trkpt>
      <trkpt lat="42.87961" lon="2.54544">
        <ele>357.75</ele>
        <time>2015-10-04T10:16:09Z</time>
      </trkpt>
      <trkpt lat="42.87958" lon="2.54556">
        <ele>358.23</ele>
        <time>2015-10-04T10:16:10Z</time>
      </trkpt>
      <trkpt lat="42.87957" lon="2.5457">
        <ele>358.71</ele>
        <time>2015-10-04T10:16:11Z</time>
      </trkpt>
      <trkpt lat="42.8796" lon="2.54583">
        <ele>359.67</ele>
        <time>2015-10-04T10:16:12Z</time>
      </trkpt>
      <trkpt lat="42.87963" lon="2.54596">
        <ele>360.15</ele>
        <time>2015-10-04T10:16:13Z</time>
      </trkpt>
      <trkpt lat="42.87965" lon="2.54609">
        <ele>360.63</ele>
        <time>2015-10-04T10:16:14Z</time>
      </trkpt>
      <trkpt lat="42.87965" lon="2.54623">
        <ele>362.07</ele>
        <time>2015-10-04T10:16:15Z</time>
      </trkpt>
      <trkpt lat="42.87965" lon="2.54636">
        <ele>362.55</ele>
        <time>2015-10-04T10:16:16Z</time>
      </trkpt>
      <trkpt lat="42.87964" lon="2.54666">
        <ele>364.48</ele>
        <time>2015-10-04T10:16:18Z</time>
      </trkpt>
      <trkpt lat="42.87962" lon="2.54682">
        <ele>365.44</ele>
        <time>2015-10-04T10:16:19Z</time>
      </trkpt>
      <trkpt lat="42.87955" lon="2.54699">
        <ele>365.92</ele>
        <time>2015-10-04T10:16:20Z</time>
      </trkpt>
      <trkpt lat="42.8794" lon="2.54734">
        <ele>367.84</ele>
        <time>2015-10-04T10:16:22Z</time>
      </trkpt>
      <trkpt lat="42.87935" lon="2.54756">
        <ele>368.8</ele>
        <time>2015-10-04T10:16:23Z</time>
      </trkpt>
      <trkpt lat="42.87932" lon="2.54778">
        <ele>369.76</ele>
        <time>2015-10-04T10:16:24Z</time>
      </trkpt>
      <trkpt lat="42.87923" lon="2.54819">
        <ele>371.69</ele>
        <time>2015-10-04T10:16:26Z</time>
      </trkpt>
      <trkpt lat="42.87916" lon="2.54837">
        <ele>372.65</ele>
        <time>2015-10-04T10:16:27Z</time>
      </trkpt>
      <trkpt lat="42.8791" lon="2.54858">
        <ele>373.13</ele>
        <time>2015-10-04T10:16:28Z</time>
      </trkpt>
      <trkpt lat="42.87906" lon="2.54879">
        <ele>374.09</ele>
        <time>2015-10-04T10:16:29Z</time>
      </trkpt>
      <trkpt lat="42.87903" lon="2.54899">
        <ele>374.57</ele>
        <time>2015-10-04T10:16:30Z</time>
      </trkpt>
      <trkpt lat="42.87899" lon="2.54917">
        <ele>375.53</ele>
        <time>2015-10-04T10:16:31Z</time>
      </trkpt>
      <trkpt lat="42.87897" lon="2.54934">
        <ele>376.49</ele>
        <time>2015-10-04T10:16:32Z</time>
      </trkpt>
      <trkpt lat="42.879" lon="2.5495">
        <ele>377.45</ele>
        <time>2015-10-04T10:16:33Z</time>
      </trkpt>
      <trkpt lat="42.87905" lon="2.54966">
        <ele>378.42</ele>
        <time>2015-10-04T10:16:34Z</time>
      </trkpt>
      <trkpt lat="42.87916" lon="2.55001">
        <ele>379.86</ele>
        <time>2015-10-04T10:16:36Z</time>
      </trkpt>
      <trkpt lat="42.87918" lon="2.55023">
        <ele>380.82</ele>
        <time>2015-10-04T10:16:37Z</time>
      </trkpt>
      <trkpt lat="42.87918" lon="2.55046">
        <ele>381.78</ele>
        <time>2015-10-04T10:16:38Z</time>
      </trkpt>
      <trkpt lat="42.87916" lon="2.55108">
        <ele>384.18</ele>
        <time>2015-10-04T10:16:41Z</time>
      </trkpt>
      <trkpt lat="42.87912" lon="2.55127">
        <ele>385.15</ele>
        <time>2015-10-04T10:16:42Z</time>
      </trkpt>
      <trkpt lat="42.87904" lon="2.55146">
        <ele>385.63</ele>
        <time>2015-10-04T10:16:43Z</time>
      </trkpt>
      <trkpt lat="42.87882" lon="2.55205">
        <ele>388.51</ele>
        <time>2015-10-04T10:16:46Z</time>
      </trkpt>
      <trkpt lat="42.87878" lon="2.55228">
        <ele>389.95</ele>
        <time>2015-10-04T10:16:47Z</time>
      </trkpt>
      <trkpt lat="42.87865" lon="2.55321">
        <ele>394.28</ele>
        <time>2015-10-04T10:16:51Z</time>
      </trkpt>
      <trkpt lat="42.87858" lon="2.55342">
        <ele>395.72</ele>
        <time>2015-10-04T10:16:52Z</time>
      </trkpt>
      <trkpt lat="42.87849" lon="2.55363">
        <ele>396.68</ele>
        <time>2015-10-04T10:16:53Z</time>
      </trkpt>
      <trkpt lat="42.8779" lon="2.55504">
        <ele>403.89</ele>
        <time>2015-10-04T10:17:00Z</time>
      </trkpt>
      <trkpt lat="42.87782" lon="2.55517">
        <ele>405.33</ele>
        <time>2015-10-04T10:17:01Z</time>
      </trkpt>
      <trkpt lat="42.87774" lon="2.55526">
        <ele>406.29</ele>
        <time>2015-10-04T10:17:02Z</time>
      </trkpt>
      <trkpt lat="42.87766" lon="2.55536">
        <ele>407.26</ele>
        <time>2015-10-04T10:17:03Z</time>
      </trkpt>
      <trkpt lat="42.87761" lon="2.55546">
        <ele>407.74</ele>
        <time>2015-10-04T10:17:04Z</time>
      </trkpt>
      <trkpt lat="42.87759" lon="2.55561">
        <ele>408.22</ele>
        <time>2015-10-04T10:17:05Z</time>
      </trkpt>
      <trkpt lat="42.87757" lon="2.5558">
        <ele>409.18</ele>
        <time>2015-10-04T10:17:06Z</time>
      </trkpt>
      <trkpt lat="42.87749" lon="2.55652">
        <ele>410.14</ele>
        <time>2015-10-04T10:17:09Z</time>
      </trkpt>
      <trkpt lat="42.87729" lon="2.55801">
        <ele>406.77</ele>
        <time>2015-10-04T10:17:16Z</time>
      </trkpt>
      <trkpt lat="42.87729" lon="2.55819">
        <ele>406.29</ele>
        <time>2015-10-04T10:17:17Z</time>
      </trkpt>
      <trkpt lat="42.87735" lon="2.55837">
        <ele>405.81</ele>
        <time>2015-10-04T10:17:18Z</time>
      </trkpt>
      <trkpt lat="42.87741" lon="2.55855">
        <ele>405.33</ele>
        <time>2015-10-04T10:17:19Z</time>
      </trkpt>
      <trkpt lat="42.87747" lon="2.55874">
        <ele>404.85</ele>
        <time>2015-10-04T10:17:20Z</time>
      </trkpt>
      <trkpt lat="42.8775" lon="2.55894">
        <ele>404.37</ele>
        <time>2015-10-04T10:17:21Z</time>
      </trkpt>
      <trkpt lat="42.87751" lon="2.55916">
        <ele>403.89</ele>
        <time>2015-10-04T10:17:22Z</time>
      </trkpt>
      <trkpt lat="42.87751" lon="2.55938">
        <ele>402.93</ele>
        <time>2015-10-04T10:17:23Z</time>
      </trkpt>
      <trkpt lat="42.8775" lon="2.5596">
        <ele>402.45</ele>
        <time>2015-10-04T10:17:24Z</time>
      </trkpt>
      <trkpt lat="42.87748" lon="2.56019">
        <ele>400.53</ele>
        <time>2015-10-04T10:17:27Z</time>
      </trkpt>
      <trkpt lat="42.87745" lon="2.56036">
        <ele>399.57</ele>
        <time>2015-10-04T10:17:28Z</time>
      </trkpt>
      <trkpt lat="42.87737" lon="2.56051">
        <ele>399.08</ele>
        <time>2015-10-04T10:17:29Z</time>
      </trkpt>
      <trkpt lat="42.87727" lon="2.56065">
        <ele>398.12</ele>
        <time>2015-10-04T10:17:30Z</time>
      </trkpt>
      <trkpt lat="42.87715" lon="2.56078">
        <ele>397.64</ele>
        <time>2015-10-04T10:17:31Z</time>
      </trkpt>
      <trkpt lat="42.87703" lon="2.56088">
        <ele>397.16</ele>
        <time>2015-10-04T10:17:32Z</time>
      </trkpt>
      <trkpt lat="42.87692" lon="2.56098">
        <ele>397.16</ele>
        <time>2015-10-04T10:17:33Z</time>
      </trkpt>
      <trkpt lat="42.87681" lon="2.56111">
        <ele>396.2</ele>
        <time>2015-10-04T10:17:34Z</time>
      </trkpt>
      <trkpt lat="42.87672" lon="2.56125">
        <ele>395.72</ele>
        <time>2015-10-04T10:17:35Z</time>
      </trkpt>
      <trkpt lat="42.87665" lon="2.56141">
        <ele>395.24</ele>
        <time>2015-10-04T10:17:36Z</time>
      </trkpt>
      <trkpt lat="42.87649" lon="2.56187">
        <ele>394.28</ele>
        <time>2015-10-04T10:17:39Z</time>
      </trkpt>
      <trkpt lat="42.8765" lon="2.56203">
        <ele>393.8</ele>
        <time>2015-10-04T10:17:40Z</time>
      </trkpt>
      <trkpt lat="42.87654" lon="2.56219">
        <ele>392.84</ele>
        <time>2015-10-04T10:17:41Z</time>
      </trkpt>
      <trkpt lat="42.8766" lon="2.56237">
        <ele>392.36</ele>
        <time>2015-10-04T10:17:42Z</time>
      </trkpt>
      <trkpt lat="42.87665" lon="2.56255">
        <ele>391.87</ele>
        <time>2015-10-04T10:17:43Z</time>
      </trkpt>
      <trkpt lat="42.87668" lon="2.56275">
        <ele>391.39</ele>
        <time>2015-10-04T10:17:44Z</time>
      </trkpt>
      <trkpt lat="42.87671" lon="2.56293">
        <ele>390.91</ele>
        <time>2015-10-04T10:17:45Z</time>
      </trkpt>
      <trkpt lat="42.87677" lon="2.56311">
        <ele>390.43</ele>
        <time>2015-10-04T10:17:46Z</time>
      </trkpt>
      <trkpt lat="42.87682" lon="2.56327">
        <ele>390.43</ele>
        <time>2015-10-04T10:17:47Z</time>
      </trkpt>
      <trkpt lat="42.87686" lon="2.56344">
        <ele>389.95</ele>
        <time>2015-10-04T10:17:48Z</time>
      </trkpt>
      <trkpt lat="42.87686" lon="2.56364">
        <ele>389.47</ele>
        <time>2015-10-04T10:17:49Z</time>
      </trkpt>
      <trkpt lat="42.87683" lon="2.56385">
        <ele>389.47</ele>
        <time>2015-10-04T10:17:50Z</time>
      </trkpt>
      <trkpt lat="42.87676" lon="2.56407">
        <ele>388.99</ele>
        <time>2015-10-04T10:17:51Z</time>
      </trkpt>
      <trkpt lat="42.8767" lon="2.5643">
        <ele>388.51</ele>
        <time>2015-10-04T10:17:52Z</time>
      </trkpt>
      <trkpt lat="42.87665" lon="2.56458">
        <ele>388.03</ele>
        <time>2015-10-04T10:17:53Z</time>
      </trkpt>
      <trkpt lat="42.8766" lon="2.56487">
        <ele>387.55</ele>
        <time>2015-10-04T10:17:54Z</time>
      </trkpt>
      <trkpt lat="42.87627" lon="2.56671">
        <ele>386.11</ele>
        <time>2015-10-04T10:18:01Z</time>
      </trkpt>
      <trkpt lat="42.87625" lon="2.56694">
        <ele>385.63</ele>
        <time>2015-10-04T10:18:02Z</time>
      </trkpt>
      <trkpt lat="42.87626" lon="2.56719">
        <ele>386.11</ele>
        <time>2015-10-04T10:18:03Z</time>
      </trkpt>
      <trkpt lat="42.87626" lon="2.56743">
        <ele>386.11</ele>
        <time>2015-10-04T10:18:04Z</time>
      </trkpt>
      <trkpt lat="42.87623" lon="2.56767">
        <ele>387.07</ele>
        <time>2015-10-04T10:18:05Z</time>
      </trkpt>
      <trkpt lat="42.87618" lon="2.56788">
        <ele>387.55</ele>
        <time>2015-10-04T10:18:06Z</time>
      </trkpt>
      <trkpt lat="42.87611" lon="2.56808">
        <ele>387.55</ele>
        <time>2015-10-04T10:18:07Z</time>
      </trkpt>
      <trkpt lat="42.87601" lon="2.56825">
        <ele>388.03</ele>
        <time>2015-10-04T10:18:08Z</time>
      </trkpt>
      <trkpt lat="42.87587" lon="2.56842">
        <ele>388.51</ele>
        <time>2015-10-04T10:18:09Z</time>
      </trkpt>
      <trkpt lat="42.87572" lon="2.56856">
        <ele>389.47</ele>
        <time>2015-10-04T10:18:10Z</time>
      </trkpt>
      <trkpt lat="42.87556" lon="2.56872">
        <ele>389.95</ele>
        <time>2015-10-04T10:18:11Z</time>
      </trkpt>
      <trkpt lat="42.87471" lon="2.56963">
        <ele>393.8</ele>
        <time>2015-10-04T10:18:17Z</time>
      </trkpt>
      <trkpt lat="42.87463" lon="2.56982">
        <ele>394.28</ele>
        <time>2015-10-04T10:18:18Z</time>
      </trkpt>
      <trkpt lat="42.87456" lon="2.57003">
        <ele>394.76</ele>
        <time>2015-10-04T10:18:19Z</time>
      </trkpt>
      <trkpt lat="42.87437" lon="2.57097">
        <ele>397.64</ele>
        <time>2015-10-04T10:18:24Z</time>
      </trkpt>
      <trkpt lat="42.87431" lon="2.57113">
        <ele>397.64</ele>
        <time>2015-10-04T10:18:25Z</time>
      </trkpt>
      <trkpt lat="42.87423" lon="2.57129">
        <ele>398.12</ele>
        <time>2015-10-04T10:18:26Z</time>
      </trkpt>
      <trkpt lat="42.87412" lon="2.57142">
        <ele>398.6</ele>
        <time>2015-10-04T10:18:27Z</time>
      </trkpt>
      <trkpt lat="42.87401" lon="2.57154">
        <ele>398.6</ele>
        <time>2015-10-04T10:18:28Z</time>
      </trkpt>
      <trkpt lat="42.87388" lon="2.57162">
        <ele>399.08</ele>
        <time>2015-10-04T10:18:29Z</time>
      </trkpt>
      <trkpt lat="42.87373" lon="2.57169">
        <ele>399.08</ele>
        <time>2015-10-04T10:18:30Z</time>
      </trkpt>
      <trkpt lat="42.87356" lon="2.57174">
        <ele>399.08</ele>
        <time>2015-10-04T10:18:31Z</time>
      </trkpt>
      <trkpt lat="42.87338" lon="2.57179">
        <ele>399.08</ele>
        <time>2015-10-04T10:18:32Z</time>
      </trkpt>
      <trkpt lat="42.87259" lon="2.57201">
        <ele>399.08</ele>
        <time>2015-10-04T10:18:37Z</time>
      </trkpt>
      <trkpt lat="42.87245" lon="2.57208">
        <ele>398.6</ele>
        <time>2015-10-04T10:18:38Z</time>
      </trkpt>
      <trkpt lat="42.87234" lon="2.57221">
        <ele>398.6</ele>
        <time>2015-10-04T10:18:39Z</time>
      </trkpt>
      <trkpt lat="42.87225" lon="2.57237">
        <ele>398.6</ele>
        <time>2015-10-04T10:18:40Z</time>
      </trkpt>
      <trkpt lat="42.87216" lon="2.57252">
        <ele>398.6</ele>
        <time>2015-10-04T10:18:41Z</time>
      </trkpt>
      <trkpt lat="42.87207" lon="2.57266">
        <ele>398.6</ele>
        <time>2015-10-04T10:18:42Z</time>
      </trkpt>
      <trkpt lat="42.87197" lon="2.57276">
        <ele>398.6</ele>
        <time>2015-10-04T10:18:43Z</time>
      </trkpt>
      <trkpt lat="42.87185" lon="2.57282">
        <ele>397.64</ele>
        <time>2015-10-04T10:18:44Z</time>
      </trkpt>
      <trkpt lat="42.8717" lon="2.57282">
        <ele>398.12</ele>
        <time>2015-10-04T10:18:45Z</time>
      </trkpt>
      <trkpt lat="42.87156" lon="2.5728">
        <ele>399.08</ele>
        <time>2015-10-04T10:18:46Z</time>
      </trkpt>
      <trkpt lat="42.8714" lon="2.57279">
        <ele>399.57</ele>
        <time>2015-10-04T10:18:47Z</time>
      </trkpt>
      <trkpt lat="42.8704" lon="2.57272">
        <ele>404.37</ele>
        <time>2015-10-04T10:18:54Z</time>
      </trkpt>
      <trkpt lat="42.87029" lon="2.57268">
        <ele>404.37</ele>
        <time>2015-10-04T10:18:55Z</time>
      </trkpt>
      <trkpt lat="42.87019" lon="2.57261">
        <ele>404.85</ele>
        <time>2015-10-04T10:18:56Z</time>
      </trkpt>
      <trkpt lat="42.8701" lon="2.57251">
        <ele>405.33</ele>
        <time>2015-10-04T10:18:57Z</time>
      </trkpt>
      <trkpt lat="42.87001" lon="2.57239">
        <ele>405.33</ele>
        <time>2015-10-04T10:18:58Z</time>
      </trkpt>
      <trkpt lat="42.8699" lon="2.57226">
        <ele>405.33</ele>
        <time>2015-10-04T10:18:59Z</time>
      </trkpt>
      <trkpt lat="42.86944" lon="2.57181">
        <ele>403.41</ele>
        <time>2015-10-04T10:19:03Z</time>
      </trkpt>
      <trkpt lat="42.86926" lon="2.57159">
        <ele>402.45</ele>
        <time>2015-10-04T10:19:05Z</time>
      </trkpt>
      <trkpt lat="42.86916" lon="2.57152">
        <ele>401.97</ele>
        <time>2015-10-04T10:19:06Z</time>
      </trkpt>
      <trkpt lat="42.86905" lon="2.57148">
        <ele>401.01</ele>
        <time>2015-10-04T10:19:07Z</time>
      </trkpt>
      <trkpt lat="42.86895" lon="2.57146">
        <ele>400.53</ele>
        <time>2015-10-04T10:19:08Z</time>
      </trkpt>
      <trkpt lat="42.86885" lon="2.57144">
        <ele>399.08</ele>
        <time>2015-10-04T10:19:09Z</time>
      </trkpt>
      <trkpt lat="42.86876" lon="2.57142">
        <ele>398.12</ele>
        <time>2015-10-04T10:19:10Z</time>
      </trkpt>
      <trkpt lat="42.86867" lon="2.57138">
        <ele>397.16</ele>
        <time>2015-10-04T10:19:11Z</time>
      </trkpt>
      <trkpt lat="42.86859" lon="2.57131">
        <ele>396.2</ele>
        <time>2015-10-04T10:19:12Z</time>
      </trkpt>
      <trkpt lat="42.86851" lon="2.57122">
        <ele>395.24</ele>
        <time>2015-10-04T10:19:13Z</time>
      </trkpt>
      <trkpt lat="42.86843" lon="2.57111">
        <ele>393.8</ele>
        <time>2015-10-04T10:19:14Z</time>
      </trkpt>
      <trkpt lat="42.86837" lon="2.57099">
        <ele>390.91</ele>
        <time>2015-10-04T10:19:15Z</time>
      </trkpt>
      <trkpt lat="42.86831" lon="2.57087">
        <ele>388.99</ele>
        <time>2015-10-04T10:19:16Z</time>
      </trkpt>
      <trkpt lat="42.86826" lon="2.57074">
        <ele>387.07</ele>
        <time>2015-10-04T10:19:17Z</time>
      </trkpt>
      <trkpt lat="42.86822" lon="2.57061">
        <ele>385.63</ele>
        <time>2015-10-04T10:19:18Z</time>
      </trkpt>
      <trkpt lat="42.86819" lon="2.57046">
        <ele>384.66</ele>
        <time>2015-10-04T10:19:19Z</time>
      </trkpt>
      <trkpt lat="42.86816" lon="2.5703">
        <ele>383.7</ele>
        <time>2015-10-04T10:19:20Z</time>
      </trkpt>
      <trkpt lat="42.86784" lon="2.56902">
        <ele>377.45</ele>
        <time>2015-10-04T10:19:27Z</time>
      </trkpt>
      <trkpt lat="42.86769" lon="2.56838">
        <ele>376.01</ele>
        <time>2015-10-04T10:19:31Z</time>
      </trkpt>
      <trkpt lat="42.86763" lon="2.56825">
        <ele>375.53</ele>
        <time>2015-10-04T10:19:32Z</time>
      </trkpt>
      <trkpt lat="42.86755" lon="2.56816">
        <ele>374.57</ele>
        <time>2015-10-04T10:19:33Z</time>
      </trkpt>
      <trkpt lat="42.86746" lon="2.56809">
        <ele>374.57</ele>
        <time>2015-10-04T10:19:34Z</time>
      </trkpt>
      <trkpt lat="42.86735" lon="2.56803">
        <ele>374.09</ele>
        <time>2015-10-04T10:19:35Z</time>
      </trkpt>
      <trkpt lat="42.86724" lon="2.56796">
        <ele>373.61</ele>
        <time>2015-10-04T10:19:36Z</time>
      </trkpt>
      <trkpt lat="42.86713" lon="2.56787">
        <ele>373.13</ele>
        <time>2015-10-04T10:19:37Z</time>
      </trkpt>
      <trkpt lat="42.86702" lon="2.56778">
        <ele>372.65</ele>
        <time>2015-10-04T10:19:38Z</time>
      </trkpt>
      <trkpt lat="42.86691" lon="2.5677">
        <ele>371.69</ele>
        <time>2015-10-04T10:19:39Z</time>
      </trkpt>
      <trkpt lat="42.8668" lon="2.56763">
        <ele>371.21</ele>
        <time>2015-10-04T10:19:40Z</time>
      </trkpt>
      <trkpt lat="42.86669" lon="2.56755">
        <ele>370.24</ele>
        <time>2015-10-04T10:19:41Z</time>
      </trkpt>
      <trkpt lat="42.86628" lon="2.56727">
        <ele>367.84</ele>
        <time>2015-10-04T10:19:45Z</time>
      </trkpt>
      <trkpt lat="42.86618" lon="2.56724">
        <ele>367.84</ele>
        <time>2015-10-04T10:19:46Z</time>
      </trkpt>
      <trkpt lat="42.86599" lon="2.56721">
        <ele>365.92</ele>
        <time>2015-10-04T10:19:48Z</time>
      </trkpt>
      <trkpt lat="42.86592" lon="2.56716">
        <ele>364.96</ele>
        <time>2015-10-04T10:19:49Z</time>
      </trkpt>
      <trkpt lat="42.86588" lon="2.56708">
        <ele>364.96</ele>
        <time>2015-10-04T10:19:50Z</time>
      </trkpt>
      <trkpt lat="42.86586" lon="2.567">
        <ele>364.96</ele>
        <time>2015-10-04T10:19:51Z</time>
      </trkpt>
      <trkpt lat="42.86585" lon="2.56691">
        <ele>364.48</ele>
        <time>2015-10-04T10:19:52Z</time>
      </trkpt>
      <trkpt lat="42.86583" lon="2.56683">
        <ele>363.52</ele>
        <time>2015-10-04T10:19:53Z</time>
      </trkpt>
      <trkpt lat="42.8658" lon="2.56675">
        <ele>362.55</ele>
        <time>2015-10-04T10:19:54Z</time>
      </trkpt>
      <trkpt lat="42.86574" lon="2.56667">
        <ele>361.59</ele>
        <time>2015-10-04T10:19:55Z</time>
      </trkpt>
      <trkpt lat="42.86565" lon="2.5666">
        <ele>361.11</ele>
        <time>2015-10-04T10:19:56Z</time>
      </trkpt>
      <trkpt lat="42.86556" lon="2.56655">
        <ele>361.11</ele>
        <time>2015-10-04T10:19:57Z</time>
      </trkpt>
      <trkpt lat="42.86548" lon="2.56649">
        <ele>360.15</ele>
        <time>2015-10-04T10:19:58Z</time>
      </trkpt>
      <trkpt lat="42.86477" lon="2.56568">
        <ele>354.86</ele>
        <time>2015-10-04T10:20:09Z</time>
      </trkpt>
      <trkpt lat="42.86447" lon="2.56536">
        <ele>352.94</ele>
        <time>2015-10-04T10:20:14Z</time>
      </trkpt>
      <trkpt lat="42.86439" lon="2.56532">
        <ele>351.98</ele>
        <time>2015-10-04T10:20:15Z</time>
      </trkpt>
      <trkpt lat="42.86431" lon="2.56532">
        <ele>351.5</ele>
        <time>2015-10-04T10:20:16Z</time>
      </trkpt>
      <trkpt lat="42.86425" lon="2.56535">
        <ele>351.02</ele>
        <time>2015-10-04T10:20:17Z</time>
      </trkpt>
      <trkpt lat="42.8642" lon="2.56541">
        <ele>351.02</ele>
        <time>2015-10-04T10:20:18Z</time>
      </trkpt>
      <trkpt lat="42.86417" lon="2.56549">
        <ele>351.02</ele>
        <time>2015-10-04T10:20:19Z</time>
      </trkpt>
      <trkpt lat="42.86414" lon="2.56558">
        <ele>350.54</ele>
        <time>2015-10-04T10:20:20Z</time>
      </trkpt>
      <trkpt lat="42.86413" lon="2.56566">
        <ele>350.06</ele>
        <time>2015-10-04T10:20:21Z</time>
      </trkpt>
      <trkpt lat="42.86413" lon="2.56574">
        <ele>349.58</ele>
        <time>2015-10-04T10:20:22Z</time>
      </trkpt>
      <trkpt lat="42.86412" lon="2.56637">
        <ele>347.17</ele>
        <time>2015-10-04T10:20:33Z</time>
      </trkpt>
      <trkpt lat="42.86412" lon="2.56652">
        <ele>347.17</ele>
        <time>2015-10-04T10:20:44Z</time>
      </trkpt>
      <trkpt lat="42.86413" lon="2.5665">
        <ele>350.06</ele>
        <time>2015-10-04T10:21:57Z</time>
      </trkpt>
      <trkpt lat="42.86408" lon="2.56661">
        <ele>345.73</ele>
        <time>2015-10-04T10:23:59Z</time>
      </trkpt>
      <trkpt lat="42.86406" lon="2.56669">
        <ele>345.73</ele>
        <time>2015-10-04T10:24:00Z</time>
      </trkpt>
      <trkpt lat="42.86404" lon="2.56681">
        <ele>345.25</ele>
        <time>2015-10-04T10:24:01Z</time>
      </trkpt>
      <trkpt lat="42.86402" lon="2.56693">
        <ele>344.77</ele>
        <time>2015-10-04T10:24:02Z</time>
      </trkpt>
      <trkpt lat="42.86402" lon="2.56707">
        <ele>344.29</ele>
        <time>2015-10-04T10:24:03Z</time>
      </trkpt>
      <trkpt lat="42.86399" lon="2.56735">
        <ele>343.33</ele>
        <time>2015-10-04T10:24:05Z</time>
      </trkpt>
      <trkpt lat="42.86395" lon="2.56748">
        <ele>342.37</ele>
        <time>2015-10-04T10:24:06Z</time>
      </trkpt>
      <trkpt lat="42.86388" lon="2.56761">
        <ele>341.89</ele>
        <time>2015-10-04T10:24:07Z</time>
      </trkpt>
      <trkpt lat="42.86381" lon="2.56773">
        <ele>340.92</ele>
        <time>2015-10-04T10:24:08Z</time>
      </trkpt>
      <trkpt lat="42.86372" lon="2.56785">
        <ele>340.44</ele>
        <time>2015-10-04T10:24:09Z</time>
      </trkpt>
      <trkpt lat="42.86332" lon="2.56837">
        <ele>337.56</ele>
        <time>2015-10-04T10:24:14Z</time>
      </trkpt>
      <trkpt lat="42.86323" lon="2.56843">
        <ele>337.08</ele>
        <time>2015-10-04T10:24:15Z</time>
      </trkpt>
      <trkpt lat="42.86313" lon="2.56847">
        <ele>336.12</ele>
        <time>2015-10-04T10:24:16Z</time>
      </trkpt>
      <trkpt lat="42.86302" lon="2.56849">
        <ele>335.16</ele>
        <time>2015-10-04T10:24:17Z</time>
      </trkpt>
      <trkpt lat="42.86291" lon="2.56848">
        <ele>335.16</ele>
        <time>2015-10-04T10:24:18Z</time>
      </trkpt>
      <trkpt lat="42.86282" lon="2.56844">
        <ele>335.16</ele>
        <time>2015-10-04T10:24:19Z</time>
      </trkpt>
      <trkpt lat="42.86275" lon="2.5684">
        <ele>335.16</ele>
        <time>2015-10-04T10:24:20Z</time>
      </trkpt>
      <trkpt lat="42.86269" lon="2.56836">
        <ele>335.16</ele>
        <time>2015-10-04T10:24:21Z</time>
      </trkpt>
      <trkpt lat="42.86264" lon="2.5683">
        <ele>335.64</ele>
        <time>2015-10-04T10:24:27Z</time>
      </trkpt>
      <trkpt lat="42.86264" lon="2.56828">
        <ele>338.04</ele>
        <time>2015-10-04T10:24:51Z</time>
      </trkpt>
      <trkpt lat="42.8626" lon="2.56822">
        <ele>338.04</ele>
        <time>2015-10-04T10:26:19Z</time>
      </trkpt>
      <trkpt lat="42.86256" lon="2.56819">
        <ele>337.56</ele>
        <time>2015-10-04T10:28:15Z</time>
      </trkpt>
      <trkpt lat="42.86251" lon="2.56815">
        <ele>335.64</ele>
        <time>2015-10-04T10:28:16Z</time>
      </trkpt>
      <trkpt lat="42.86203" lon="2.5677">
        <ele>333.71</ele>
        <time>2015-10-04T10:28:22Z</time>
      </trkpt>
      <trkpt lat="42.86191" lon="2.56764">
        <ele>332.75</ele>
        <time>2015-10-04T10:28:23Z</time>
      </trkpt>
      <trkpt lat="42.86179" lon="2.56759">
        <ele>332.27</ele>
        <time>2015-10-04T10:28:24Z</time>
      </trkpt>
      <trkpt lat="42.86168" lon="2.56756">
        <ele>331.79</ele>
        <time>2015-10-04T10:28:25Z</time>
      </trkpt>
      <trkpt lat="42.86156" lon="2.56754">
        <ele>330.83</ele>
        <time>2015-10-04T10:28:26Z</time>
      </trkpt>
      <trkpt lat="42.86144" lon="2.56758">
        <ele>330.35</ele>
        <time>2015-10-04T10:28:27Z</time>
      </trkpt>
      <trkpt lat="42.86132" lon="2.56767">
        <ele>329.87</ele>
        <time>2015-10-04T10:28:28Z</time>
      </trkpt>
      <trkpt lat="42.86122" lon="2.56779">
        <ele>329.39</ele>
        <time>2015-10-04T10:28:29Z</time>
      </trkpt>
      <trkpt lat="42.86115" lon="2.56793">
        <ele>328.43</ele>
        <time>2015-10-04T10:28:30Z</time>
      </trkpt>
      <trkpt lat="42.86109" lon="2.5681">
        <ele>326.99</ele>
        <time>2015-10-04T10:28:31Z</time>
      </trkpt>
      <trkpt lat="42.86104" lon="2.56828">
        <ele>326.02</ele>
        <time>2015-10-04T10:28:32Z</time>
      </trkpt>
      <trkpt lat="42.86099" lon="2.56847">
        <ele>324.58</ele>
        <time>2015-10-04T10:28:33Z</time>
      </trkpt>
      <trkpt lat="42.86071" lon="2.56969">
        <ele>317.85</ele>
        <time>2015-10-04T10:28:39Z</time>
      </trkpt>
      <trkpt lat="42.86064" lon="2.56987">
        <ele>316.89</ele>
        <time>2015-10-04T10:28:40Z</time>
      </trkpt>
      <trkpt lat="42.86056" lon="2.57003">
        <ele>315.93</ele>
        <time>2015-10-04T10:28:41Z</time>
      </trkpt>
      <trkpt lat="42.86045" lon="2.57015">
        <ele>314.97</ele>
        <time>2015-10-04T10:28:42Z</time>
      </trkpt>
      <trkpt lat="42.86032" lon="2.57022">
        <ele>314.01</ele>
        <time>2015-10-04T10:28:43Z</time>
      </trkpt>
      <trkpt lat="42.86017" lon="2.57024">
        <ele>313.05</ele>
        <time>2015-10-04T10:28:44Z</time>
      </trkpt>
      <trkpt lat="42.86001" lon="2.57021">
        <ele>312.09</ele>
        <time>2015-10-04T10:28:45Z</time>
      </trkpt>
      <trkpt lat="42.85985" lon="2.57017">
        <ele>310.64</ele>
        <time>2015-10-04T10:28:46Z</time>
      </trkpt>
      <trkpt lat="42.8597" lon="2.5701">
        <ele>309.68</ele>
        <time>2015-10-04T10:28:47Z</time>
      </trkpt>
      <trkpt lat="42.85957" lon="2.56998">
        <ele>309.2</ele>
        <time>2015-10-04T10:28:48Z</time>
      </trkpt>
      <trkpt lat="42.85946" lon="2.56982">
        <ele>308.24</ele>
        <time>2015-10-04T10:28:49Z</time>
      </trkpt>
      <trkpt lat="42.85936" lon="2.56966">
        <ele>307.28</ele>
        <time>2015-10-04T10:28:50Z</time>
      </trkpt>
      <trkpt lat="42.8593" lon="2.56947">
        <ele>306.32</ele>
        <time>2015-10-04T10:28:51Z</time>
      </trkpt>
      <trkpt lat="42.85926" lon="2.56928">
        <ele>305.36</ele>
        <time>2015-10-04T10:28:52Z</time>
      </trkpt>
      <trkpt lat="42.85924" lon="2.56907">
        <ele>301.99</ele>
        <time>2015-10-04T10:28:53Z</time>
      </trkpt>
      <trkpt lat="42.85925" lon="2.56884">
        <ele>299.11</ele>
        <time>2015-10-04T10:28:54Z</time>
      </trkpt>
      <trkpt lat="42.85925" lon="2.56861">
        <ele>298.63</ele>
        <time>2015-10-04T10:28:55Z</time>
      </trkpt>
      <trkpt lat="42.85916" lon="2.56787">
        <ele>294.78</ele>
        <time>2015-10-04T10:28:59Z</time>
      </trkpt>
      <trkpt lat="42.85908" lon="2.5678">
        <ele>294.78</ele>
        <time>2015-10-04T10:29:00Z</time>
      </trkpt>
      <trkpt lat="42.85894" lon="2.56777">
        <ele>293.34</ele>
        <time>2015-10-04T10:29:01Z</time>
      </trkpt>
      <trkpt lat="42.85878" lon="2.56779">
        <ele>292.38</ele>
        <time>2015-10-04T10:29:02Z</time>
      </trkpt>
      <trkpt lat="42.85863" lon="2.56785">
        <ele>291.9</ele>
        <time>2015-10-04T10:29:03Z</time>
      </trkpt>
      <trkpt lat="42.8585" lon="2.56792">
        <ele>291.9</ele>
        <time>2015-10-04T10:29:04Z</time>
      </trkpt>
      <trkpt lat="42.85839" lon="2.56802">
        <ele>292.86</ele>
        <time>2015-10-04T10:29:05Z</time>
      </trkpt>
      <trkpt lat="42.85832" lon="2.56816">
        <ele>292.38</ele>
        <time>2015-10-04T10:29:06Z</time>
      </trkpt>
      <trkpt lat="42.85827" lon="2.56831">
        <ele>291.42</ele>
        <time>2015-10-04T10:29:07Z</time>
      </trkpt>
      <trkpt lat="42.85823" lon="2.5685">
        <ele>291.9</ele>
        <time>2015-10-04T10:29:08Z</time>
      </trkpt>
      <trkpt lat="42.8582" lon="2.56867">
        <ele>292.38</ele>
        <time>2015-10-04T10:29:09Z</time>
      </trkpt>
      <trkpt lat="42.85816" lon="2.56882">
        <ele>293.34</ele>
        <time>2015-10-04T10:29:10Z</time>
      </trkpt>
      <trkpt lat="42.85809" lon="2.56894">
        <ele>293.34</ele>
        <time>2015-10-04T10:29:11Z</time>
      </trkpt>
      <trkpt lat="42.858" lon="2.56903">
        <ele>293.82</ele>
        <time>2015-10-04T10:29:12Z</time>
      </trkpt>
      <trkpt lat="42.85788" lon="2.56908">
        <ele>295.74</ele>
        <time>2015-10-04T10:29:13Z</time>
      </trkpt>
      <trkpt lat="42.85774" lon="2.5691">
        <ele>297.67</ele>
        <time>2015-10-04T10:29:14Z</time>
      </trkpt>
      <trkpt lat="42.8576" lon="2.56912">
        <ele>299.11</ele>
        <time>2015-10-04T10:29:15Z</time>
      </trkpt>
      <trkpt lat="42.85625" lon="2.56928">
        <ele>311.12</ele>
        <time>2015-10-04T10:29:24Z</time>
      </trkpt>
      <trkpt lat="42.85611" lon="2.56934">
        <ele>312.09</ele>
        <time>2015-10-04T10:29:25Z</time>
      </trkpt>
      <trkpt lat="42.85598" lon="2.56943">
        <ele>313.05</ele>
        <time>2015-10-04T10:29:26Z</time>
      </trkpt>
      <trkpt lat="42.85586" lon="2.56954">
        <ele>314.01</ele>
        <time>2015-10-04T10:29:27Z</time>
      </trkpt>
      <trkpt lat="42.85576" lon="2.56965">
        <ele>314.97</ele>
        <time>2015-10-04T10:29:28Z</time>
      </trkpt>
      <trkpt lat="42.85567" lon="2.56978">
        <ele>315.45</ele>
        <time>2015-10-04T10:29:29Z</time>
      </trkpt>
      <trkpt lat="42.85559" lon="2.56994">
        <ele>316.41</ele>
        <time>2015-10-04T10:29:30Z</time>
      </trkpt>
      <trkpt lat="42.85551" lon="2.57012">
        <ele>317.37</ele>
        <time>2015-10-04T10:29:31Z</time>
      </trkpt>
      <trkpt lat="42.85545" lon="2.57032">
        <ele>318.33</ele>
        <time>2015-10-04T10:29:32Z</time>
      </trkpt>
      <trkpt lat="42.85539" lon="2.57053">
        <ele>318.81</ele>
        <time>2015-10-04T10:29:33Z</time>
      </trkpt>
      <trkpt lat="42.85511" lon="2.57182">
        <ele>324.1</ele>
        <time>2015-10-04T10:29:39Z</time>
      </trkpt>
      <trkpt lat="42.85511" lon="2.57202">
        <ele>325.54</ele>
        <time>2015-10-04T10:29:40Z</time>
      </trkpt>
      <trkpt lat="42.85512" lon="2.57222">
        <ele>326.5</ele>
        <time>2015-10-04T10:29:41Z</time>
      </trkpt>
      <trkpt lat="42.85514" lon="2.57241">
        <ele>327.47</ele>
        <time>2015-10-04T10:29:42Z</time>
      </trkpt>
      <trkpt lat="42.85513" lon="2.57259">
        <ele>328.91</ele>
        <time>2015-10-04T10:29:43Z</time>
      </trkpt>
      <trkpt lat="42.85507" lon="2.57274">
        <ele>329.87</ele>
        <time>2015-10-04T10:29:44Z</time>
      </trkpt>
      <trkpt lat="42.85495" lon="2.57283">
        <ele>330.83</ele>
        <time>2015-10-04T10:29:45Z</time>
      </trkpt>
      <trkpt lat="42.85482" lon="2.57289">
        <ele>331.31</ele>
        <time>2015-10-04T10:29:46Z</time>
      </trkpt>
      <trkpt lat="42.8547" lon="2.57296">
        <ele>331.79</ele>
        <time>2015-10-04T10:29:47Z</time>
      </trkpt>
      <trkpt lat="42.85461" lon="2.57306">
        <ele>332.75</ele>
        <time>2015-10-04T10:29:48Z</time>
      </trkpt>
      <trkpt lat="42.85456" lon="2.57321">
        <ele>333.71</ele>
        <time>2015-10-04T10:29:49Z</time>
      </trkpt>
      <trkpt lat="42.85454" lon="2.57339">
        <ele>334.2</ele>
        <time>2015-10-04T10:29:50Z</time>
      </trkpt>
      <trkpt lat="42.85452" lon="2.57359">
        <ele>335.16</ele>
        <time>2015-10-04T10:29:51Z</time>
      </trkpt>
      <trkpt lat="42.85447" lon="2.57376">
        <ele>336.12</ele>
        <time>2015-10-04T10:29:52Z</time>
      </trkpt>
      <trkpt lat="42.85438" lon="2.57388">
        <ele>337.08</ele>
        <time>2015-10-04T10:29:53Z</time>
      </trkpt>
      <trkpt lat="42.85428" lon="2.57394">
        <ele>337.56</ele>
        <time>2015-10-04T10:29:54Z</time>
      </trkpt>
      <trkpt lat="42.85416" lon="2.57396">
        <ele>338.52</ele>
        <time>2015-10-04T10:29:55Z</time>
      </trkpt>
      <trkpt lat="42.85404" lon="2.57398">
        <ele>339</ele>
        <time>2015-10-04T10:29:56Z</time>
      </trkpt>
      <trkpt lat="42.85394" lon="2.57407">
        <ele>339.96</ele>
        <time>2015-10-04T10:29:57Z</time>
      </trkpt>
      <trkpt lat="42.85388" lon="2.57419">
        <ele>340.92</ele>
        <time>2015-10-04T10:29:58Z</time>
      </trkpt>
      <trkpt lat="42.85387" lon="2.57437">
        <ele>341.41</ele>
        <time>2015-10-04T10:29:59Z</time>
      </trkpt>
      <trkpt lat="42.85386" lon="2.57457">
        <ele>341.89</ele>
        <time>2015-10-04T10:30:00Z</time>
      </trkpt>
      <trkpt lat="42.85385" lon="2.57477">
        <ele>342.85</ele>
        <time>2015-10-04T10:30:01Z</time>
      </trkpt>
      <trkpt lat="42.8538" lon="2.57496">
        <ele>343.81</ele>
        <time>2015-10-04T10:30:02Z</time>
      </trkpt>
      <trkpt lat="42.85376" lon="2.57515">
        <ele>344.29</ele>
        <time>2015-10-04T10:30:03Z</time>
      </trkpt>
      <trkpt lat="42.85373" lon="2.57536">
        <ele>345.25</ele>
        <time>2015-10-04T10:30:04Z</time>
      </trkpt>
      <trkpt lat="42.85371" lon="2.57558">
        <ele>345.73</ele>
        <time>2015-10-04T10:30:05Z</time>
      </trkpt>
      <trkpt lat="42.8535" lon="2.57722">
        <ele>346.69</ele>
        <time>2015-10-04T10:30:14Z</time>
      </trkpt>
      <trkpt lat="42.85345" lon="2.5774">
        <ele>346.21</ele>
        <time>2015-10-04T10:30:15Z</time>
      </trkpt>
      <trkpt lat="42.85338" lon="2.57758">
        <ele>345.73</ele>
        <time>2015-10-04T10:30:16Z</time>
      </trkpt>
      <trkpt lat="42.85304" lon="2.5783">
        <ele>344.29</ele>
        <time>2015-10-04T10:30:20Z</time>
      </trkpt>
      <trkpt lat="42.85244" lon="2.57935">
        <ele>341.89</ele>
        <time>2015-10-04T10:30:26Z</time>
      </trkpt>
      <trkpt lat="42.85237" lon="2.57954">
        <ele>341.89</ele>
        <time>2015-10-04T10:30:27Z</time>
      </trkpt>
      <trkpt lat="42.85232" lon="2.57974">
        <ele>341.41</ele>
        <time>2015-10-04T10:30:28Z</time>
      </trkpt>
      <trkpt lat="42.85192" lon="2.58188">
        <ele>339</ele>
        <time>2015-10-04T10:30:38Z</time>
      </trkpt>
      <trkpt lat="42.85155" lon="2.58321">
        <ele>337.08</ele>
        <time>2015-10-04T10:30:44Z</time>
      </trkpt>
      <trkpt lat="42.85146" lon="2.58339">
        <ele>336.6</ele>
        <time>2015-10-04T10:30:45Z</time>
      </trkpt>
      <trkpt lat="42.85138" lon="2.58356">
        <ele>336.12</ele>
        <time>2015-10-04T10:30:46Z</time>
      </trkpt>
      <trkpt lat="42.85133" lon="2.58375">
        <ele>335.64</ele>
        <time>2015-10-04T10:30:47Z</time>
      </trkpt>
      <trkpt lat="42.85133" lon="2.58395">
        <ele>335.16</ele>
        <time>2015-10-04T10:30:48Z</time>
      </trkpt>
      <trkpt lat="42.85137" lon="2.58418">
        <ele>335.16</ele>
        <time>2015-10-04T10:30:49Z</time>
      </trkpt>
      <trkpt lat="42.85142" lon="2.58442">
        <ele>334.2</ele>
        <time>2015-10-04T10:30:50Z</time>
      </trkpt>
      <trkpt lat="42.85148" lon="2.58466">
        <ele>333.71</ele>
        <time>2015-10-04T10:30:51Z</time>
      </trkpt>
      <trkpt lat="42.85156" lon="2.58513">
        <ele>332.75</ele>
        <time>2015-10-04T10:30:53Z</time>
      </trkpt>
      <trkpt lat="42.85157" lon="2.58537">
        <ele>332.27</ele>
        <time>2015-10-04T10:30:54Z</time>
      </trkpt>
      <trkpt lat="42.85155" lon="2.58561">
        <ele>331.31</ele>
        <time>2015-10-04T10:30:55Z</time>
      </trkpt>
      <trkpt lat="42.8515" lon="2.58584">
        <ele>330.83</ele>
        <time>2015-10-04T10:30:56Z</time>
      </trkpt>
      <trkpt lat="42.85141" lon="2.58606">
        <ele>330.35</ele>
        <time>2015-10-04T10:30:57Z</time>
      </trkpt>
      <trkpt lat="42.8513" lon="2.58625">
        <ele>329.87</ele>
        <time>2015-10-04T10:30:58Z</time>
      </trkpt>
      <trkpt lat="42.85117" lon="2.58643">
        <ele>329.39</ele>
        <time>2015-10-04T10:30:59Z</time>
      </trkpt>
      <trkpt lat="42.85104" lon="2.58659">
        <ele>329.39</ele>
        <time>2015-10-04T10:31:00Z</time>
      </trkpt>
      <trkpt lat="42.85057" lon="2.58719">
        <ele>329.39</ele>
        <time>2015-10-04T10:31:04Z</time>
      </trkpt>
      <trkpt lat="42.85049" lon="2.58735">
        <ele>328.91</ele>
        <time>2015-10-04T10:31:05Z</time>
      </trkpt>
      <trkpt lat="42.84991" lon="2.58859">
        <ele>323.62</ele>
        <time>2015-10-04T10:31:12Z</time>
      </trkpt>
      <trkpt lat="42.84981" lon="2.58872">
        <ele>323.14</ele>
        <time>2015-10-04T10:31:13Z</time>
      </trkpt>
      <trkpt lat="42.8497" lon="2.58882">
        <ele>322.66</ele>
        <time>2015-10-04T10:31:14Z</time>
      </trkpt>
      <trkpt lat="42.84959" lon="2.58889">
        <ele>322.18</ele>
        <time>2015-10-04T10:31:15Z</time>
      </trkpt>
      <trkpt lat="42.84947" lon="2.58894">
        <ele>322.18</ele>
        <time>2015-10-04T10:31:16Z</time>
      </trkpt>
      <trkpt lat="42.84935" lon="2.58901">
        <ele>321.7</ele>
        <time>2015-10-04T10:31:17Z</time>
      </trkpt>
      <trkpt lat="42.84925" lon="2.5891">
        <ele>321.22</ele>
        <time>2015-10-04T10:31:18Z</time>
      </trkpt>
      <trkpt lat="42.84916" lon="2.58922">
        <ele>320.74</ele>
        <time>2015-10-04T10:31:19Z</time>
      </trkpt>
      <trkpt lat="42.8491" lon="2.58936">
        <ele>320.26</ele>
        <time>2015-10-04T10:31:20Z</time>
      </trkpt>
      <trkpt lat="42.84905" lon="2.58952">
        <ele>319.78</ele>
        <time>2015-10-04T10:31:21Z</time>
      </trkpt>
      <trkpt lat="42.849" lon="2.58969">
        <ele>319.78</ele>
        <time>2015-10-04T10:31:22Z</time>
      </trkpt>
      <trkpt lat="42.84887" lon="2.59043">
        <ele>318.33</ele>
        <time>2015-10-04T10:31:26Z</time>
      </trkpt>
      <trkpt lat="42.84887" lon="2.59063">
        <ele>318.33</ele>
        <time>2015-10-04T10:31:27Z</time>
      </trkpt>
      <trkpt lat="42.84888" lon="2.59082">
        <ele>317.85</ele>
        <time>2015-10-04T10:31:28Z</time>
      </trkpt>
      <trkpt lat="42.8489" lon="2.59102">
        <ele>317.37</ele>
        <time>2015-10-04T10:31:29Z</time>
      </trkpt>
      <trkpt lat="42.84894" lon="2.59121">
        <ele>316.89</ele>
        <time>2015-10-04T10:31:30Z</time>
      </trkpt>
      <trkpt lat="42.84898" lon="2.5914">
        <ele>316.41</ele>
        <time>2015-10-04T10:31:31Z</time>
      </trkpt>
      <trkpt lat="42.849" lon="2.5916">
        <ele>315.93</ele>
        <time>2015-10-04T10:31:32Z</time>
      </trkpt>
      <trkpt lat="42.849" lon="2.5918">
        <ele>315.45</ele>
        <time>2015-10-04T10:31:33Z</time>
      </trkpt>
      <trkpt lat="42.84897" lon="2.59199">
        <ele>314.97</ele>
        <time>2015-10-04T10:31:34Z</time>
      </trkpt>
      <trkpt lat="42.84892" lon="2.59217">
        <ele>314.97</ele>
        <time>2015-10-04T10:31:35Z</time>
      </trkpt>
      <trkpt lat="42.84885" lon="2.59234">
        <ele>314.49</ele>
        <time>2015-10-04T10:31:36Z</time>
      </trkpt>
      <trkpt lat="42.84877" lon="2.59251">
        <ele>314.49</ele>
        <time>2015-10-04T10:31:37Z</time>
      </trkpt>
      <trkpt lat="42.84855" lon="2.59297">
        <ele>314.01</ele>
        <time>2015-10-04T10:31:40Z</time>
      </trkpt>
      <trkpt lat="42.84851" lon="2.59312">
        <ele>313.53</ele>
        <time>2015-10-04T10:31:41Z</time>
      </trkpt>
      <trkpt lat="42.84852" lon="2.59327">
        <ele>313.05</ele>
        <time>2015-10-04T10:31:42Z</time>
      </trkpt>
      <trkpt lat="42.84856" lon="2.59341">
        <ele>313.05</ele>
        <time>2015-10-04T10:31:43Z</time>
      </trkpt>
      <trkpt lat="42.84861" lon="2.59355">
        <ele>312.57</ele>
        <time>2015-10-04T10:31:44Z</time>
      </trkpt>
      <trkpt lat="42.84869" lon="2.59368">
        <ele>312.57</ele>
        <time>2015-10-04T10:31:45Z</time>
      </trkpt>
      <trkpt lat="42.84878" lon="2.59379">
        <ele>312.09</ele>
        <time>2015-10-04T10:31:46Z</time>
      </trkpt>
      <trkpt lat="42.84889" lon="2.59389">
        <ele>312.09</ele>
        <time>2015-10-04T10:31:47Z</time>
      </trkpt>
      <trkpt lat="42.84899" lon="2.59398">
        <ele>311.6</ele>
        <time>2015-10-04T10:31:48Z</time>
      </trkpt>
      <trkpt lat="42.8491" lon="2.59406">
        <ele>311.12</ele>
        <time>2015-10-04T10:31:49Z</time>
      </trkpt>
      <trkpt lat="42.84921" lon="2.59407">
        <ele>311.12</ele>
        <time>2015-10-04T10:31:50Z</time>
      </trkpt>
      <trkpt lat="42.84932" lon="2.59407">
        <ele>310.64</ele>
        <time>2015-10-04T10:31:51Z</time>
      </trkpt>
      <trkpt lat="42.8494" lon="2.59403">
        <ele>310.64</ele>
        <time>2015-10-04T10:31:52Z</time>
      </trkpt>
      <trkpt lat="42.84948" lon="2.594">
        <ele>310.64</ele>
        <time>2015-10-04T10:31:53Z</time>
      </trkpt>
      <trkpt lat="42.84955" lon="2.59398">
        <ele>310.16</ele>
        <time>2015-10-04T10:31:54Z</time>
      </trkpt>
      <trkpt lat="42.84962" lon="2.59397">
        <ele>310.16</ele>
        <time>2015-10-04T10:31:55Z</time>
      </trkpt>
      <trkpt lat="42.84968" lon="2.594">
        <ele>309.68</ele>
        <time>2015-10-04T10:31:56Z</time>
      </trkpt>
      <trkpt lat="42.84973" lon="2.59405">
        <ele>309.2</ele>
        <time>2015-10-04T10:31:57Z</time>
      </trkpt>
      <trkpt lat="42.84976" lon="2.59412">
        <ele>309.2</ele>
        <time>2015-10-04T10:31:58Z</time>
      </trkpt>
      <trkpt lat="42.84978" lon="2.5942">
        <ele>308.72</ele>
        <time>2015-10-04T10:31:59Z</time>
      </trkpt>
      <trkpt lat="42.84978" lon="2.59429">
        <ele>308.72</ele>
        <time>2015-10-04T10:32:00Z</time>
      </trkpt>
      <trkpt lat="42.84979" lon="2.59439">
        <ele>308.72</ele>
        <time>2015-10-04T10:32:01Z</time>
      </trkpt>
      <trkpt lat="42.84963" lon="2.59551">
        <ele>307.28</ele>
        <time>2015-10-04T10:32:09Z</time>
      </trkpt>
      <trkpt lat="42.84938" lon="2.59649">
        <ele>304.88</ele>
        <time>2015-10-04T10:32:14Z</time>
      </trkpt>
      <trkpt lat="42.84937" lon="2.59667">
        <ele>304.88</ele>
        <time>2015-10-04T10:32:15Z</time>
      </trkpt>
      <trkpt lat="42.84938" lon="2.59684">
        <ele>304.39</ele>
        <time>2015-10-04T10:32:16Z</time>
      </trkpt>
      <trkpt lat="42.84939" lon="2.59702">
        <ele>303.91</ele>
        <time>2015-10-04T10:32:17Z</time>
      </trkpt>
      <trkpt lat="42.84938" lon="2.59721">
        <ele>303.43</ele>
        <time>2015-10-04T10:32:18Z</time>
      </trkpt>
      <trkpt lat="42.84935" lon="2.59738">
        <ele>302.95</ele>
        <time>2015-10-04T10:32:19Z</time>
      </trkpt>
      <trkpt lat="42.84929" lon="2.59753">
        <ele>302.47</ele>
        <time>2015-10-04T10:32:20Z</time>
      </trkpt>
      <trkpt lat="42.84923" lon="2.59767">
        <ele>301.99</ele>
        <time>2015-10-04T10:32:21Z</time>
      </trkpt>
      <trkpt lat="42.84921" lon="2.59781">
        <ele>301.51</ele>
        <time>2015-10-04T10:32:22Z</time>
      </trkpt>
      <trkpt lat="42.84923" lon="2.59794">
        <ele>301.03</ele>
        <time>2015-10-04T10:32:23Z</time>
      </trkpt>
      <trkpt lat="42.84928" lon="2.59805">
        <ele>301.03</ele>
        <time>2015-10-04T10:32:24Z</time>
      </trkpt>
      <trkpt lat="42.84935" lon="2.59814">
        <ele>301.03</ele>
        <time>2015-10-04T10:32:25Z</time>
      </trkpt>
      <trkpt lat="42.84941" lon="2.59822">
        <ele>301.03</ele>
        <time>2015-10-04T10:32:26Z</time>
      </trkpt>
      <trkpt lat="42.84947" lon="2.59828">
        <ele>301.03</ele>
        <time>2015-10-04T10:32:27Z</time>
      </trkpt>
      <trkpt lat="42.84969" lon="2.59853">
        <ele>301.03</ele>
        <time>2015-10-04T10:32:35Z</time>
      </trkpt>
      <trkpt lat="42.84973" lon="2.59863">
        <ele>300.55</ele>
        <time>2015-10-04T10:32:43Z</time>
      </trkpt>
      <trkpt lat="42.84977" lon="2.59883">
        <ele>301.51</ele>
        <time>2015-10-04T10:33:13Z</time>
      </trkpt>
      <trkpt lat="42.84978" lon="2.59897">
        <ele>301.51</ele>
        <time>2015-10-04T10:33:14Z</time>
      </trkpt>
      <trkpt lat="42.84977" lon="2.59912">
        <ele>301.03</ele>
        <time>2015-10-04T10:33:15Z</time>
      </trkpt>
      <trkpt lat="42.84976" lon="2.59926">
        <ele>301.03</ele>
        <time>2015-10-04T10:33:16Z</time>
      </trkpt>
      <trkpt lat="42.84973" lon="2.59938">
        <ele>301.03</ele>
        <time>2015-10-04T10:33:17Z</time>
      </trkpt>
      <trkpt lat="42.84971" lon="2.59948">
        <ele>300.55</ele>
        <time>2015-10-04T10:33:18Z</time>
      </trkpt>
      <trkpt lat="42.84959" lon="2.59984">
        <ele>300.07</ele>
        <time>2015-10-04T10:33:22Z</time>
      </trkpt>
      <trkpt lat="42.84959" lon="2.59995">
        <ele>299.59</ele>
        <time>2015-10-04T10:33:23Z</time>
      </trkpt>
      <trkpt lat="42.8496" lon="2.60008">
        <ele>299.11</ele>
        <time>2015-10-04T10:33:24Z</time>
      </trkpt>
      <trkpt lat="42.84962" lon="2.60021">
        <ele>298.63</ele>
        <time>2015-10-04T10:33:25Z</time>
      </trkpt>
      <trkpt lat="42.84965" lon="2.60036">
        <ele>298.15</ele>
        <time>2015-10-04T10:33:26Z</time>
      </trkpt>
      <trkpt lat="42.84992" lon="2.60154">
        <ele>294.3</ele>
        <time>2015-10-04T10:33:34Z</time>
      </trkpt>
      <trkpt lat="42.84994" lon="2.6017">
        <ele>293.82</ele>
        <time>2015-10-04T10:33:35Z</time>
      </trkpt>
      <trkpt lat="42.84996" lon="2.60188">
        <ele>293.34</ele>
        <time>2015-10-04T10:33:36Z</time>
      </trkpt>
      <trkpt lat="42.84997" lon="2.60206">
        <ele>292.86</ele>
        <time>2015-10-04T10:33:37Z</time>
      </trkpt>
      <trkpt lat="42.84997" lon="2.60225">
        <ele>292.38</ele>
        <time>2015-10-04T10:33:38Z</time>
      </trkpt>
      <trkpt lat="42.84992" lon="2.6034">
        <ele>289.01</ele>
        <time>2015-10-04T10:33:45Z</time>
      </trkpt>
      <trkpt lat="42.84994" lon="2.60356">
        <ele>288.53</ele>
        <time>2015-10-04T10:33:46Z</time>
      </trkpt>
      <trkpt lat="42.85022" lon="2.60497">
        <ele>283.73</ele>
        <time>2015-10-04T10:33:53Z</time>
      </trkpt>
      <trkpt lat="42.85067" lon="2.60655">
        <ele>277</ele>
        <time>2015-10-04T10:34:02Z</time>
      </trkpt>
      <trkpt lat="42.85073" lon="2.60668">
        <ele>276.52</ele>
        <time>2015-10-04T10:34:03Z</time>
      </trkpt>
      <trkpt lat="42.85079" lon="2.60679">
        <ele>276.04</ele>
        <time>2015-10-04T10:34:04Z</time>
      </trkpt>
      <trkpt lat="42.85085" lon="2.60689">
        <ele>275.56</ele>
        <time>2015-10-04T10:34:05Z</time>
      </trkpt>
      <trkpt lat="42.85092" lon="2.60698">
        <ele>275.07</ele>
        <time>2015-10-04T10:34:06Z</time>
      </trkpt>
      <trkpt lat="42.85099" lon="2.60706">
        <ele>274.59</ele>
        <time>2015-10-04T10:34:07Z</time>
      </trkpt>
      <trkpt lat="42.85107" lon="2.60712">
        <ele>274.11</ele>
        <time>2015-10-04T10:34:08Z</time>
      </trkpt>
      <trkpt lat="42.85115" lon="2.60716">
        <ele>273.63</ele>
        <time>2015-10-04T10:34:09Z</time>
      </trkpt>
      <trkpt lat="42.85123" lon="2.6072">
        <ele>273.15</ele>
        <time>2015-10-04T10:34:10Z</time>
      </trkpt>
      <trkpt lat="42.85171" lon="2.6074">
        <ele>270.75</ele>
        <time>2015-10-04T10:34:16Z</time>
      </trkpt>
      <trkpt lat="42.85178" lon="2.60738">
        <ele>270.27</ele>
        <time>2015-10-04T10:34:17Z</time>
      </trkpt>
      <trkpt lat="42.85184" lon="2.60733">
        <ele>269.79</ele>
        <time>2015-10-04T10:34:18Z</time>
      </trkpt>
      <trkpt lat="42.85189" lon="2.60726">
        <ele>269.31</ele>
        <time>2015-10-04T10:34:19Z</time>
      </trkpt>
      <trkpt lat="42.85194" lon="2.60718">
        <ele>268.83</ele>
        <time>2015-10-04T10:34:20Z</time>
      </trkpt>
      <trkpt lat="42.85198" lon="2.60708">
        <ele>268.35</ele>
        <time>2015-10-04T10:34:21Z</time>
      </trkpt>
      <trkpt lat="42.85201" lon="2.60699">
        <ele>267.86</ele>
        <time>2015-10-04T10:34:22Z</time>
      </trkpt>
      <trkpt lat="42.85205" lon="2.60691">
        <ele>267.86</ele>
        <time>2015-10-04T10:34:23Z</time>
      </trkpt>
      <trkpt lat="42.8521" lon="2.60684">
        <ele>267.38</ele>
        <time>2015-10-04T10:34:24Z</time>
      </trkpt>
      <trkpt lat="42.85216" lon="2.60679">
        <ele>267.38</ele>
        <time>2015-10-04T10:34:25Z</time>
      </trkpt>
      <trkpt lat="42.85222" lon="2.60676">
        <ele>266.9</ele>
        <time>2015-10-04T10:34:26Z</time>
      </trkpt>
      <trkpt lat="42.85229" lon="2.60676">
        <ele>266.9</ele>
        <time>2015-10-04T10:34:27Z</time>
      </trkpt>
      <trkpt lat="42.85235" lon="2.60678">
        <ele>266.42</ele>
        <time>2015-10-04T10:34:28Z</time>
      </trkpt>
      <trkpt lat="42.85241" lon="2.60683">
        <ele>266.42</ele>
        <time>2015-10-04T10:34:29Z</time>
      </trkpt>
      <trkpt lat="42.85247" lon="2.60688">
        <ele>266.42</ele>
        <time>2015-10-04T10:34:30Z</time>
      </trkpt>
      <trkpt lat="42.85253" lon="2.60695">
        <ele>265.94</ele>
        <time>2015-10-04T10:34:31Z</time>
      </trkpt>
      <trkpt lat="42.85257" lon="2.60703">
        <ele>265.94</ele>
        <time>2015-10-04T10:34:32Z</time>
      </trkpt>
      <trkpt lat="42.8526" lon="2.60714">
        <ele>265.46</ele>
        <time>2015-10-04T10:34:33Z</time>
      </trkpt>
      <trkpt lat="42.85261" lon="2.60726">
        <ele>264.98</ele>
        <time>2015-10-04T10:34:34Z</time>
      </trkpt>
      <trkpt lat="42.85259" lon="2.60739">
        <ele>264.98</ele>
        <time>2015-10-04T10:34:35Z</time>
      </trkpt>
      <trkpt lat="42.85257" lon="2.60753">
        <ele>264.98</ele>
        <time>2015-10-04T10:34:36Z</time>
      </trkpt>
      <trkpt lat="42.85255" lon="2.60767">
        <ele>264.98</ele>
        <time>2015-10-04T10:34:37Z</time>
      </trkpt>
      <trkpt lat="42.85254" lon="2.60783">
        <ele>264.5</ele>
        <time>2015-10-04T10:34:38Z</time>
      </trkpt>
      <trkpt lat="42.85256" lon="2.608">
        <ele>264.5</ele>
        <time>2015-10-04T10:34:39Z</time>
      </trkpt>
      <trkpt lat="42.85258" lon="2.60816">
        <ele>264.02</ele>
        <time>2015-10-04T10:34:40Z</time>
      </trkpt>
      <trkpt lat="42.85261" lon="2.60832">
        <ele>264.02</ele>
        <time>2015-10-04T10:34:41Z</time>
      </trkpt>
      <trkpt lat="42.8528" lon="2.60918">
        <ele>264.02</ele>
        <time>2015-10-04T10:34:47Z</time>
      </trkpt>
      <trkpt lat="42.85285" lon="2.60932">
        <ele>263.54</ele>
        <time>2015-10-04T10:34:48Z</time>
      </trkpt>
      <trkpt lat="42.85292" lon="2.60945">
        <ele>263.54</ele>
        <time>2015-10-04T10:34:49Z</time>
      </trkpt>
      <trkpt lat="42.85365" lon="2.61068">
        <ele>261.62</ele>
        <time>2015-10-04T10:34:57Z</time>
      </trkpt>
      <trkpt lat="42.85452" lon="2.61263">
        <ele>258.25</ele>
        <time>2015-10-04T10:35:07Z</time>
      </trkpt>
      <trkpt lat="42.85514" lon="2.61372">
        <ele>256.33</ele>
        <time>2015-10-04T10:35:14Z</time>
      </trkpt>
      <trkpt lat="42.85524" lon="2.61393">
        <ele>255.37</ele>
        <time>2015-10-04T10:35:21Z</time>
      </trkpt>
      <trkpt lat="42.85532" lon="2.61411">
        <ele>256.33</ele>
        <time>2015-10-04T10:35:52Z</time>
      </trkpt>
      <trkpt lat="42.85585" lon="2.61521">
        <ele>255.37</ele>
        <time>2015-10-04T10:35:59Z</time>
      </trkpt>
      <trkpt lat="42.85652" lon="2.61697">
        <ele>252.48</ele>
        <time>2015-10-04T10:36:08Z</time>
      </trkpt>
      <trkpt lat="42.85669" lon="2.61759">
        <ele>251.04</ele>
        <time>2015-10-04T10:36:11Z</time>
      </trkpt>
      <trkpt lat="42.85678" lon="2.61776">
        <ele>250.56</ele>
        <time>2015-10-04T10:36:12Z</time>
      </trkpt>
      <trkpt lat="42.85688" lon="2.61793">
        <ele>250.08</ele>
        <time>2015-10-04T10:36:13Z</time>
      </trkpt>
      <trkpt lat="42.85697" lon="2.61815">
        <ele>249.12</ele>
        <time>2015-10-04T10:36:14Z</time>
      </trkpt>
      <trkpt lat="42.85704" lon="2.61838">
        <ele>249.12</ele>
        <time>2015-10-04T10:36:15Z</time>
      </trkpt>
      <trkpt lat="42.85711" lon="2.6186">
        <ele>248.64</ele>
        <time>2015-10-04T10:36:16Z</time>
      </trkpt>
      <trkpt lat="42.85718" lon="2.61882">
        <ele>248.16</ele>
        <time>2015-10-04T10:36:17Z</time>
      </trkpt>
      <trkpt lat="42.85759" lon="2.62076">
        <ele>243.83</ele>
        <time>2015-10-04T10:36:25Z</time>
      </trkpt>
      <trkpt lat="42.85763" lon="2.621">
        <ele>243.35</ele>
        <time>2015-10-04T10:36:26Z</time>
      </trkpt>
      <trkpt lat="42.85769" lon="2.62124">
        <ele>242.87</ele>
        <time>2015-10-04T10:36:27Z</time>
      </trkpt>
      <trkpt lat="42.85775" lon="2.62147">
        <ele>242.39</ele>
        <time>2015-10-04T10:36:28Z</time>
      </trkpt>
      <trkpt lat="42.8578" lon="2.62171">
        <ele>241.91</ele>
        <time>2015-10-04T10:36:29Z</time>
      </trkpt>
      <trkpt lat="42.85783" lon="2.62197">
        <ele>241.43</ele>
        <time>2015-10-04T10:36:30Z</time>
      </trkpt>
      <trkpt lat="42.85784" lon="2.62222">
        <ele>240.95</ele>
        <time>2015-10-04T10:36:31Z</time>
      </trkpt>
      <trkpt lat="42.85792" lon="2.6232">
        <ele>238.54</ele>
        <time>2015-10-04T10:36:35Z</time>
      </trkpt>
      <trkpt lat="42.85798" lon="2.62343">
        <ele>238.06</ele>
        <time>2015-10-04T10:36:36Z</time>
      </trkpt>
      <trkpt lat="42.85806" lon="2.62364">
        <ele>237.58</ele>
        <time>2015-10-04T10:36:37Z</time>
      </trkpt>
      <trkpt lat="42.85816" lon="2.62384">
        <ele>237.1</ele>
        <time>2015-10-04T10:36:38Z</time>
      </trkpt>
      <trkpt lat="42.85828" lon="2.62403">
        <ele>237.1</ele>
        <time>2015-10-04T10:36:39Z</time>
      </trkpt>
      <trkpt lat="42.85893" lon="2.62526">
        <ele>234.7</ele>
        <time>2015-10-04T10:36:45Z</time>
      </trkpt>
      <trkpt lat="42.85899" lon="2.6255">
        <ele>234.22</ele>
        <time>2015-10-04T10:36:46Z</time>
      </trkpt>
      <trkpt lat="42.85902" lon="2.62575">
        <ele>233.26</ele>
        <time>2015-10-04T10:36:47Z</time>
      </trkpt>
      <trkpt lat="42.85904" lon="2.62601">
        <ele>232.78</ele>
        <time>2015-10-04T10:36:48Z</time>
      </trkpt>
      <trkpt lat="42.85904" lon="2.62627">
        <ele>232.3</ele>
        <time>2015-10-04T10:36:49Z</time>
      </trkpt>
      <trkpt lat="42.85902" lon="2.62653">
        <ele>232.3</ele>
        <time>2015-10-04T10:36:50Z</time>
      </trkpt>
      <trkpt lat="42.859" lon="2.62678">
        <ele>231.81</ele>
        <time>2015-10-04T10:36:51Z</time>
      </trkpt>
      <trkpt lat="42.85897" lon="2.62701">
        <ele>231.33</ele>
        <time>2015-10-04T10:36:52Z</time>
      </trkpt>
      <trkpt lat="42.85896" lon="2.62722">
        <ele>230.85</ele>
        <time>2015-10-04T10:36:53Z</time>
      </trkpt>
      <trkpt lat="42.85899" lon="2.62744">
        <ele>229.89</ele>
        <time>2015-10-04T10:36:54Z</time>
      </trkpt>
      <trkpt lat="42.85905" lon="2.62765">
        <ele>229.89</ele>
        <time>2015-10-04T10:36:55Z</time>
      </trkpt>
      <trkpt lat="42.85913" lon="2.62785">
        <ele>229.41</ele>
        <time>2015-10-04T10:36:56Z</time>
      </trkpt>
      <trkpt lat="42.85923" lon="2.62804">
        <ele>229.41</ele>
        <time>2015-10-04T10:36:57Z</time>
      </trkpt>
      <trkpt lat="42.85935" lon="2.62822">
        <ele>228.93</ele>
        <time>2015-10-04T10:36:58Z</time>
      </trkpt>
      <trkpt lat="42.85947" lon="2.6284">
        <ele>228.45</ele>
        <time>2015-10-04T10:36:59Z</time>
      </trkpt>
      <trkpt lat="42.8603" lon="2.62979">
        <ele>225.57</ele>
        <time>2015-10-04T10:37:06Z</time>
      </trkpt>
      <trkpt lat="42.86043" lon="2.62996">
        <ele>225.09</ele>
        <time>2015-10-04T10:37:07Z</time>
      </trkpt>
      <trkpt lat="42.86181" lon="2.63128">
        <ele>220.76</ele>
        <time>2015-10-04T10:37:17Z</time>
      </trkpt>
      <trkpt lat="42.86219" lon="2.63164">
        <ele>218.84</ele>
        <time>2015-10-04T10:37:21Z</time>
      </trkpt>
      <trkpt lat="42.86224" lon="2.63173">
        <ele>218.36</ele>
        <time>2015-10-04T10:37:22Z</time>
      </trkpt>
      <trkpt lat="42.86226" lon="2.63184">
        <ele>217.88</ele>
        <time>2015-10-04T10:37:23Z</time>
      </trkpt>
      <trkpt lat="42.86226" lon="2.63195">
        <ele>217.88</ele>
        <time>2015-10-04T10:37:24Z</time>
      </trkpt>
      <trkpt lat="42.86224" lon="2.63206">
        <ele>217.88</ele>
        <time>2015-10-04T10:37:25Z</time>
      </trkpt>
      <trkpt lat="42.8622" lon="2.63217">
        <ele>218.36</ele>
        <time>2015-10-04T10:37:26Z</time>
      </trkpt>
      <trkpt lat="42.86215" lon="2.63229">
        <ele>217.88</ele>
        <time>2015-10-04T10:37:27Z</time>
      </trkpt>
      <trkpt lat="42.86211" lon="2.63241">
        <ele>217.4</ele>
        <time>2015-10-04T10:37:28Z</time>
      </trkpt>
      <trkpt lat="42.86211" lon="2.63252">
        <ele>216.91</ele>
        <time>2015-10-04T10:37:29Z</time>
      </trkpt>
      <trkpt lat="42.86215" lon="2.63261">
        <ele>216.91</ele>
        <time>2015-10-04T10:37:30Z</time>
      </trkpt>
      <trkpt lat="42.86224" lon="2.63268">
        <ele>216.91</ele>
        <time>2015-10-04T10:37:31Z</time>
      </trkpt>
      <trkpt lat="42.86235" lon="2.63274">
        <ele>216.91</ele>
        <time>2015-10-04T10:37:32Z</time>
      </trkpt>
      <trkpt lat="42.86247" lon="2.63279">
        <ele>217.4</ele>
        <time>2015-10-04T10:37:33Z</time>
      </trkpt>
      <trkpt lat="42.8632" lon="2.63318">
        <ele>218.36</ele>
        <time>2015-10-04T10:37:39Z</time>
      </trkpt>
      <trkpt lat="42.86332" lon="2.63328">
        <ele>218.36</ele>
        <time>2015-10-04T10:37:40Z</time>
      </trkpt>
      <trkpt lat="42.86343" lon="2.63342">
        <ele>218.36</ele>
        <time>2015-10-04T10:37:41Z</time>
      </trkpt>
      <trkpt lat="42.86352" lon="2.63357">
        <ele>218.36</ele>
        <time>2015-10-04T10:37:42Z</time>
      </trkpt>
      <trkpt lat="42.8636" lon="2.63372">
        <ele>217.88</ele>
        <time>2015-10-04T10:37:43Z</time>
      </trkpt>
      <trkpt lat="42.86399" lon="2.63455">
        <ele>218.36</ele>
        <time>2015-10-04T10:37:49Z</time>
      </trkpt>
      <trkpt lat="42.86406" lon="2.63468">
        <ele>218.36</ele>
        <time>2015-10-04T10:37:50Z</time>
      </trkpt>
      <trkpt lat="42.86415" lon="2.63479">
        <ele>218.36</ele>
        <time>2015-10-04T10:37:51Z</time>
      </trkpt>
      <trkpt lat="42.86424" lon="2.63489">
        <ele>218.36</ele>
        <time>2015-10-04T10:37:52Z</time>
      </trkpt>
      <trkpt lat="42.86434" lon="2.63499">
        <ele>218.36</ele>
        <time>2015-10-04T10:37:53Z</time>
      </trkpt>
      <trkpt lat="42.86453" lon="2.6352">
        <ele>217.88</ele>
        <time>2015-10-04T10:37:55Z</time>
      </trkpt>
      <trkpt lat="42.86461" lon="2.63534">
        <ele>217.88</ele>
        <time>2015-10-04T10:37:56Z</time>
      </trkpt>
      <trkpt lat="42.86468" lon="2.63549">
        <ele>217.4</ele>
        <time>2015-10-04T10:37:57Z</time>
      </trkpt>
      <trkpt lat="42.86474" lon="2.63565">
        <ele>217.4</ele>
        <time>2015-10-04T10:37:58Z</time>
      </trkpt>
      <trkpt lat="42.86478" lon="2.63583">
        <ele>217.4</ele>
        <time>2015-10-04T10:37:59Z</time>
      </trkpt>
      <trkpt lat="42.86481" lon="2.63601">
        <ele>217.4</ele>
        <time>2015-10-04T10:38:00Z</time>
      </trkpt>
      <trkpt lat="42.86483" lon="2.6362">
        <ele>217.4</ele>
        <time>2015-10-04T10:38:01Z</time>
      </trkpt>
      <trkpt lat="42.8649" lon="2.63782">
        <ele>217.88</ele>
        <time>2015-10-04T10:38:09Z</time>
      </trkpt>
      <trkpt lat="42.86487" lon="2.63802">
        <ele>217.4</ele>
        <time>2015-10-04T10:38:10Z</time>
      </trkpt>
      <trkpt lat="42.86485" lon="2.63823">
        <ele>217.4</ele>
        <time>2015-10-04T10:38:11Z</time>
      </trkpt>
      <trkpt lat="42.86483" lon="2.63844">
        <ele>217.4</ele>
        <time>2015-10-04T10:38:12Z</time>
      </trkpt>
      <trkpt lat="42.86482" lon="2.63865">
        <ele>217.4</ele>
        <time>2015-10-04T10:38:13Z</time>
      </trkpt>
      <trkpt lat="42.86476" lon="2.63964">
        <ele>215.95</ele>
        <time>2015-10-04T10:38:19Z</time>
      </trkpt>
      <trkpt lat="42.86479" lon="2.63976">
        <ele>215.95</ele>
        <time>2015-10-04T10:38:20Z</time>
      </trkpt>
      <trkpt lat="42.86484" lon="2.63986">
        <ele>215.95</ele>
        <time>2015-10-04T10:38:21Z</time>
      </trkpt>
      <trkpt lat="42.8649" lon="2.63996">
        <ele>215.95</ele>
        <time>2015-10-04T10:38:22Z</time>
      </trkpt>
      <trkpt lat="42.86497" lon="2.64005">
        <ele>215.95</ele>
        <time>2015-10-04T10:38:23Z</time>
      </trkpt>
      <trkpt lat="42.86506" lon="2.64012">
        <ele>215.95</ele>
        <time>2015-10-04T10:38:24Z</time>
      </trkpt>
      <trkpt lat="42.86515" lon="2.64018">
        <ele>215.95</ele>
        <time>2015-10-04T10:38:25Z</time>
      </trkpt>
      <trkpt lat="42.86524" lon="2.64025">
        <ele>215.95</ele>
        <time>2015-10-04T10:38:26Z</time>
      </trkpt>
      <trkpt lat="42.86533" lon="2.64034">
        <ele>215.95</ele>
        <time>2015-10-04T10:38:27Z</time>
      </trkpt>
      <trkpt lat="42.8654" lon="2.64046">
        <ele>215.47</ele>
        <time>2015-10-04T10:38:28Z</time>
      </trkpt>
      <trkpt lat="42.86547" lon="2.64058">
        <ele>215.47</ele>
        <time>2015-10-04T10:38:29Z</time>
      </trkpt>
      <trkpt lat="42.86553" lon="2.6407">
        <ele>215.47</ele>
        <time>2015-10-04T10:38:30Z</time>
      </trkpt>
      <trkpt lat="42.86578" lon="2.64128">
        <ele>214.51</ele>
        <time>2015-10-04T10:38:35Z</time>
      </trkpt>
      <trkpt lat="42.8658" lon="2.6414">
        <ele>214.51</ele>
        <time>2015-10-04T10:38:36Z</time>
      </trkpt>
      <trkpt lat="42.8658" lon="2.64151">
        <ele>214.51</ele>
        <time>2015-10-04T10:38:37Z</time>
      </trkpt>
      <trkpt lat="42.86574" lon="2.64161">
        <ele>214.51</ele>
        <time>2015-10-04T10:38:38Z</time>
      </trkpt>
      <trkpt lat="42.86568" lon="2.6417">
        <ele>214.03</ele>
        <time>2015-10-04T10:38:39Z</time>
      </trkpt>
      <trkpt lat="42.8656" lon="2.6418">
        <ele>214.03</ele>
        <time>2015-10-04T10:38:40Z</time>
      </trkpt>
      <trkpt lat="42.86553" lon="2.6419">
        <ele>213.55</ele>
        <time>2015-10-04T10:38:41Z</time>
      </trkpt>
      <trkpt lat="42.86547" lon="2.64201">
        <ele>213.55</ele>
        <time>2015-10-04T10:38:42Z</time>
      </trkpt>
      <trkpt lat="42.86542" lon="2.64214">
        <ele>213.07</ele>
        <time>2015-10-04T10:38:43Z</time>
      </trkpt>
      <trkpt lat="42.86539" lon="2.64227">
        <ele>213.07</ele>
        <time>2015-10-04T10:38:44Z</time>
      </trkpt>
      <trkpt lat="42.86537" lon="2.64242">
        <ele>213.07</ele>
        <time>2015-10-04T10:38:45Z</time>
      </trkpt>
      <trkpt lat="42.86538" lon="2.64256">
        <ele>212.59</ele>
        <time>2015-10-04T10:38:46Z</time>
      </trkpt>
      <trkpt lat="42.86542" lon="2.64269">
        <ele>212.59</ele>
        <time>2015-10-04T10:38:47Z</time>
      </trkpt>
      <trkpt lat="42.86548" lon="2.64281">
        <ele>212.59</ele>
        <time>2015-10-04T10:38:48Z</time>
      </trkpt>
      <trkpt lat="42.86555" lon="2.64292">
        <ele>212.11</ele>
        <time>2015-10-04T10:38:49Z</time>
      </trkpt>
      <trkpt lat="42.86564" lon="2.64303">
        <ele>211.63</ele>
        <time>2015-10-04T10:38:50Z</time>
      </trkpt>
      <trkpt lat="42.86597" lon="2.64346">
        <ele>210.67</ele>
        <time>2015-10-04T10:38:54Z</time>
      </trkpt>
      <trkpt lat="42.86604" lon="2.6436">
        <ele>210.67</ele>
        <time>2015-10-04T10:38:55Z</time>
      </trkpt>
      <trkpt lat="42.86608" lon="2.64375">
        <ele>210.19</ele>
        <time>2015-10-04T10:38:56Z</time>
      </trkpt>
      <trkpt lat="42.86611" lon="2.64391">
        <ele>210.19</ele>
        <time>2015-10-04T10:38:57Z</time>
      </trkpt>
      <trkpt lat="42.86615" lon="2.64407">
        <ele>210.19</ele>
        <time>2015-10-04T10:38:58Z</time>
      </trkpt>
      <trkpt lat="42.8662" lon="2.64422">
        <ele>209.7</ele>
        <time>2015-10-04T10:38:59Z</time>
      </trkpt>
      <trkpt lat="42.86626" lon="2.64439">
        <ele>209.7</ele>
        <time>2015-10-04T10:39:00Z</time>
      </trkpt>
      <trkpt lat="42.86637" lon="2.64473">
        <ele>209.22</ele>
        <time>2015-10-04T10:39:02Z</time>
      </trkpt>
      <trkpt lat="42.8664" lon="2.64491">
        <ele>208.74</ele>
        <time>2015-10-04T10:39:03Z</time>
      </trkpt>
      <trkpt lat="42.86671" lon="2.64667">
        <ele>207.3</ele>
        <time>2015-10-04T10:39:12Z</time>
      </trkpt>
      <trkpt lat="42.86752" lon="2.64951">
        <ele>204.9</ele>
        <time>2015-10-04T10:39:26Z</time>
      </trkpt>
      <trkpt lat="42.86789" lon="2.65172">
        <ele>202.98</ele>
        <time>2015-10-04T10:39:37Z</time>
      </trkpt>
      <trkpt lat="42.86804" lon="2.65258">
        <ele>202.01</ele>
        <time>2015-10-04T10:39:44Z</time>
      </trkpt>
      <trkpt lat="42.86804" lon="2.65261">
        <ele>202.01</ele>
        <time>2015-10-04T10:39:52Z</time>
      </trkpt>
      <trkpt lat="42.86804" lon="2.65265">
        <ele>202.01</ele>
        <time>2015-10-04T10:40:08Z</time>
      </trkpt>
      <trkpt lat="42.86805" lon="2.65271">
        <ele>201.53</ele>
        <time>2015-10-04T10:40:09Z</time>
      </trkpt>
      <trkpt lat="42.86807" lon="2.65277">
        <ele>201.53</ele>
        <time>2015-10-04T10:40:10Z</time>
      </trkpt>
      <trkpt lat="42.8681" lon="2.65282">
        <ele>201.53</ele>
        <time>2015-10-04T10:40:11Z</time>
      </trkpt>
      <trkpt lat="42.86816" lon="2.65282">
        <ele>201.53</ele>
        <time>2015-10-04T10:40:12Z</time>
      </trkpt>
      <trkpt lat="42.86821" lon="2.65281">
        <ele>201.53</ele>
        <time>2015-10-04T10:40:13Z</time>
      </trkpt>
      <trkpt lat="42.86826" lon="2.6528">
        <ele>201.53</ele>
        <time>2015-10-04T10:40:14Z</time>
      </trkpt>
      <trkpt lat="42.86832" lon="2.65278">
        <ele>201.53</ele>
        <time>2015-10-04T10:40:15Z</time>
      </trkpt>
      <trkpt lat="42.86838" lon="2.65276">
        <ele>201.05</ele>
        <time>2015-10-04T10:40:16Z</time>
      </trkpt>
      <trkpt lat="42.86853" lon="2.65272">
        <ele>202.49</ele>
        <time>2015-10-04T10:40:18Z</time>
      </trkpt>
      <trkpt lat="42.8686" lon="2.65272">
        <ele>202.49</ele>
        <time>2015-10-04T10:40:19Z</time>
      </trkpt>
      <trkpt lat="42.86867" lon="2.65273">
        <ele>202.98</ele>
        <time>2015-10-04T10:40:20Z</time>
      </trkpt>
      <trkpt lat="42.86944" lon="2.65302">
        <ele>202.49</ele>
        <time>2015-10-04T10:40:33Z</time>
      </trkpt>
      <trkpt lat="42.86958" lon="2.65318">
        <ele>202.01</ele>
        <time>2015-10-04T10:40:43Z</time>
      </trkpt>
      <trkpt lat="42.8696" lon="2.65335">
        <ele>202.49</ele>
        <time>2015-10-04T10:42:30Z</time>
      </trkpt>
      <trkpt lat="42.86962" lon="2.65346">
        <ele>202.49</ele>
        <time>2015-10-04T10:42:31Z</time>
      </trkpt>
      <trkpt lat="42.86964" lon="2.65359">
        <ele>202.49</ele>
        <time>2015-10-04T10:42:32Z</time>
      </trkpt>
      <trkpt lat="42.86969" lon="2.65422">
        <ele>202.49</ele>
        <time>2015-10-04T10:42:38Z</time>
      </trkpt>
      <trkpt lat="42.86972" lon="2.65434">
        <ele>202.49</ele>
        <time>2015-10-04T10:42:39Z</time>
      </trkpt>
      <trkpt lat="42.86976" lon="2.65445">
        <ele>202.49</ele>
        <time>2015-10-04T10:42:40Z</time>
      </trkpt>
      <trkpt lat="42.86989" lon="2.65473">
        <ele>203.46</ele>
        <time>2015-10-04T10:42:43Z</time>
      </trkpt>
      <trkpt lat="42.86995" lon="2.65481">
        <ele>203.94</ele>
        <time>2015-10-04T10:42:44Z</time>
      </trkpt>
      <trkpt lat="42.87001" lon="2.65487">
        <ele>203.94</ele>
        <time>2015-10-04T10:42:45Z</time>
      </trkpt>
      <trkpt lat="42.87009" lon="2.65491">
        <ele>204.9</ele>
        <time>2015-10-04T10:42:46Z</time>
      </trkpt>
      <trkpt lat="42.87018" lon="2.65489">
        <ele>205.38</ele>
        <time>2015-10-04T10:42:47Z</time>
      </trkpt>
      <trkpt lat="42.87027" lon="2.6548">
        <ele>203.94</ele>
        <time>2015-10-04T10:42:48Z</time>
      </trkpt>
      <trkpt lat="42.87035" lon="2.6547">
        <ele>203.46</ele>
        <time>2015-10-04T10:42:49Z</time>
      </trkpt>
      <trkpt lat="42.87043" lon="2.65458">
        <ele>202.98</ele>
        <time>2015-10-04T10:42:50Z</time>
      </trkpt>
      <trkpt lat="42.8705" lon="2.65445">
        <ele>202.49</ele>
        <time>2015-10-04T10:42:51Z</time>
      </trkpt>
      <trkpt lat="42.87066" lon="2.65413">
        <ele>202.01</ele>
        <time>2015-10-04T10:42:53Z</time>
      </trkpt>
      <trkpt lat="42.87072" lon="2.65395">
        <ele>202.01</ele>
        <time>2015-10-04T10:42:54Z</time>
      </trkpt>
      <trkpt lat="42.87078" lon="2.65375">
        <ele>202.01</ele>
        <time>2015-10-04T10:42:55Z</time>
      </trkpt>
      <trkpt lat="42.87112" lon="2.65246">
        <ele>203.94</ele>
        <time>2015-10-04T10:43:02Z</time>
      </trkpt>
      <trkpt lat="42.8712" lon="2.6523">
        <ele>203.94</ele>
        <time>2015-10-04T10:43:03Z</time>
      </trkpt>
      <trkpt lat="42.87176" lon="2.65145">
        <ele>205.86</ele>
        <time>2015-10-04T10:43:09Z</time>
      </trkpt>
      <trkpt lat="42.87186" lon="2.65135">
        <ele>205.86</ele>
        <time>2015-10-04T10:43:10Z</time>
      </trkpt>
      <trkpt lat="42.87196" lon="2.65126">
        <ele>206.34</ele>
        <time>2015-10-04T10:43:11Z</time>
      </trkpt>
      <trkpt lat="42.87205" lon="2.65115">
        <ele>206.34</ele>
        <time>2015-10-04T10:43:12Z</time>
      </trkpt>
      <trkpt lat="42.87211" lon="2.65101">
        <ele>206.82</ele>
        <time>2015-10-04T10:43:13Z</time>
      </trkpt>
      <trkpt lat="42.87217" lon="2.65086">
        <ele>207.3</ele>
        <time>2015-10-04T10:43:14Z</time>
      </trkpt>
      <trkpt lat="42.87224" lon="2.65073">
        <ele>207.3</ele>
        <time>2015-10-04T10:43:15Z</time>
      </trkpt>
      <trkpt lat="42.87234" lon="2.65061">
        <ele>207.78</ele>
        <time>2015-10-04T10:43:16Z</time>
      </trkpt>
      <trkpt lat="42.87244" lon="2.65051">
        <ele>207.78</ele>
        <time>2015-10-04T10:43:17Z</time>
      </trkpt>
      <trkpt lat="42.87255" lon="2.65041">
        <ele>208.26</ele>
        <time>2015-10-04T10:43:18Z</time>
      </trkpt>
      <trkpt lat="42.87264" lon="2.65029">
        <ele>208.26</ele>
        <time>2015-10-04T10:43:19Z</time>
      </trkpt>
      <trkpt lat="42.87271" lon="2.65012">
        <ele>208.74</ele>
        <time>2015-10-04T10:43:20Z</time>
      </trkpt>
      <trkpt lat="42.87277" lon="2.64993">
        <ele>209.7</ele>
        <time>2015-10-04T10:43:21Z</time>
      </trkpt>
      <trkpt lat="42.87283" lon="2.64972">
        <ele>209.7</ele>
        <time>2015-10-04T10:43:22Z</time>
      </trkpt>
      <trkpt lat="42.87287" lon="2.64951">
        <ele>210.19</ele>
        <time>2015-10-04T10:43:23Z</time>
      </trkpt>
      <trkpt lat="42.87303" lon="2.64885">
        <ele>211.63</ele>
        <time>2015-10-04T10:43:26Z</time>
      </trkpt>
      <trkpt lat="42.87311" lon="2.64864">
        <ele>212.11</ele>
        <time>2015-10-04T10:43:27Z</time>
      </trkpt>
      <trkpt lat="42.87321" lon="2.64843">
        <ele>212.11</ele>
        <time>2015-10-04T10:43:28Z</time>
      </trkpt>
      <trkpt lat="42.87356" lon="2.64787">
        <ele>213.55</ele>
        <time>2015-10-04T10:43:31Z</time>
      </trkpt>
      <trkpt lat="42.87369" lon="2.64772">
        <ele>214.51</ele>
        <time>2015-10-04T10:43:32Z</time>
      </trkpt>
      <trkpt lat="42.87394" lon="2.64746">
        <ele>214.99</ele>
        <time>2015-10-04T10:43:34Z</time>
      </trkpt>
      <trkpt lat="42.87403" lon="2.64731">
        <ele>215.47</ele>
        <time>2015-10-04T10:43:35Z</time>
      </trkpt>
      <trkpt lat="42.87411" lon="2.64714">
        <ele>215.95</ele>
        <time>2015-10-04T10:43:36Z</time>
      </trkpt>
      <trkpt lat="42.87425" lon="2.64682">
        <ele>215.95</ele>
        <time>2015-10-04T10:43:38Z</time>
      </trkpt>
      <trkpt lat="42.87428" lon="2.64665">
        <ele>216.43</ele>
        <time>2015-10-04T10:43:39Z</time>
      </trkpt>
      <trkpt lat="42.8743" lon="2.64646">
        <ele>216.43</ele>
        <time>2015-10-04T10:43:40Z</time>
      </trkpt>
      <trkpt lat="42.87431" lon="2.64626">
        <ele>216.43</ele>
        <time>2015-10-04T10:43:41Z</time>
      </trkpt>
      <trkpt lat="42.87433" lon="2.64606">
        <ele>216.43</ele>
        <time>2015-10-04T10:43:42Z</time>
      </trkpt>
      <trkpt lat="42.87438" lon="2.64584">
        <ele>216.91</ele>
        <time>2015-10-04T10:43:43Z</time>
      </trkpt>
      <trkpt lat="42.87444" lon="2.64562">
        <ele>216.91</ele>
        <time>2015-10-04T10:43:44Z</time>
      </trkpt>
      <trkpt lat="42.87482" lon="2.64426">
        <ele>218.36</ele>
        <time>2015-10-04T10:43:50Z</time>
      </trkpt>
      <trkpt lat="42.87491" lon="2.64406">
        <ele>218.36</ele>
        <time>2015-10-04T10:43:51Z</time>
      </trkpt>
      <trkpt lat="42.87501" lon="2.64388">
        <ele>218.36</ele>
        <time>2015-10-04T10:43:52Z</time>
      </trkpt>
      <trkpt lat="42.87608" lon="2.64206">
        <ele>219.32</ele>
        <time>2015-10-04T10:44:02Z</time>
      </trkpt>
      <trkpt lat="42.87625" lon="2.64174">
        <ele>219.32</ele>
        <time>2015-10-04T10:44:04Z</time>
      </trkpt>
      <trkpt lat="42.87635" lon="2.64162">
        <ele>219.8</ele>
        <time>2015-10-04T10:44:05Z</time>
      </trkpt>
      <trkpt lat="42.87648" lon="2.64152">
        <ele>219.8</ele>
        <time>2015-10-04T10:44:06Z</time>
      </trkpt>
      <trkpt lat="42.87703" lon="2.64118">
        <ele>220.76</ele>
        <time>2015-10-04T10:44:10Z</time>
      </trkpt>
      <trkpt lat="42.87719" lon="2.64112">
        <ele>220.76</ele>
        <time>2015-10-04T10:44:11Z</time>
      </trkpt>
      <trkpt lat="42.87818" lon="2.64067">
        <ele>221.24</ele>
        <time>2015-10-04T10:44:17Z</time>
      </trkpt>
      <trkpt lat="42.87831" lon="2.64056">
        <ele>221.24</ele>
        <time>2015-10-04T10:44:18Z</time>
      </trkpt>
      <trkpt lat="42.87842" lon="2.64042">
        <ele>221.72</ele>
        <time>2015-10-04T10:44:19Z</time>
      </trkpt>
      <trkpt lat="42.87854" lon="2.64028">
        <ele>221.72</ele>
        <time>2015-10-04T10:44:20Z</time>
      </trkpt>
      <trkpt lat="42.87866" lon="2.64016">
        <ele>221.72</ele>
        <time>2015-10-04T10:44:21Z</time>
      </trkpt>
      <trkpt lat="42.87879" lon="2.64008">
        <ele>222.2</ele>
        <time>2015-10-04T10:44:22Z</time>
      </trkpt>
      <trkpt lat="42.87892" lon="2.64001">
        <ele>222.2</ele>
        <time>2015-10-04T10:44:23Z</time>
      </trkpt>
      <trkpt lat="42.87904" lon="2.63995">
        <ele>222.2</ele>
        <time>2015-10-04T10:44:24Z</time>
      </trkpt>
      <trkpt lat="42.87916" lon="2.63988">
        <ele>221.72</ele>
        <time>2015-10-04T10:44:25Z</time>
      </trkpt>
      <trkpt lat="42.87926" lon="2.63979">
        <ele>221.72</ele>
        <time>2015-10-04T10:44:26Z</time>
      </trkpt>
      <trkpt lat="42.87935" lon="2.63966">
        <ele>221.72</ele>
        <time>2015-10-04T10:44:27Z</time>
      </trkpt>
      <trkpt lat="42.87942" lon="2.63952">
        <ele>222.68</ele>
        <time>2015-10-04T10:44:28Z</time>
      </trkpt>
      <trkpt lat="42.87949" lon="2.63939">
        <ele>222.68</ele>
        <time>2015-10-04T10:44:29Z</time>
      </trkpt>
      <trkpt lat="42.87957" lon="2.63929">
        <ele>222.68</ele>
        <time>2015-10-04T10:44:30Z</time>
      </trkpt>
      <trkpt lat="42.87966" lon="2.63921">
        <ele>223.64</ele>
        <time>2015-10-04T10:44:31Z</time>
      </trkpt>
      <trkpt lat="42.87978" lon="2.63919">
        <ele>224.61</ele>
        <time>2015-10-04T10:44:32Z</time>
      </trkpt>
      <trkpt lat="42.87993" lon="2.63919">
        <ele>225.09</ele>
        <time>2015-10-04T10:44:33Z</time>
      </trkpt>
      <trkpt lat="42.8801" lon="2.63921">
        <ele>224.61</ele>
        <time>2015-10-04T10:44:34Z</time>
      </trkpt>
      <trkpt lat="42.88028" lon="2.63927">
        <ele>224.61</ele>
        <time>2015-10-04T10:44:35Z</time>
      </trkpt>
      <trkpt lat="42.88047" lon="2.63933">
        <ele>224.12</ele>
        <time>2015-10-04T10:44:36Z</time>
      </trkpt>
      <trkpt lat="42.88066" lon="2.6394">
        <ele>224.12</ele>
        <time>2015-10-04T10:44:37Z</time>
      </trkpt>
      <trkpt lat="42.8826" lon="2.64022">
        <ele>224.61</ele>
        <time>2015-10-04T10:44:47Z</time>
      </trkpt>
      <trkpt lat="42.88331" lon="2.6403">
        <ele>224.61</ele>
        <time>2015-10-04T10:44:51Z</time>
      </trkpt>
      <trkpt lat="42.88347" lon="2.64026">
        <ele>225.57</ele>
        <time>2015-10-04T10:44:52Z</time>
      </trkpt>
      <trkpt lat="42.88363" lon="2.6402">
        <ele>226.05</ele>
        <time>2015-10-04T10:44:53Z</time>
      </trkpt>
      <trkpt lat="42.8838" lon="2.64011">
        <ele>226.53</ele>
        <time>2015-10-04T10:44:54Z</time>
      </trkpt>
      <trkpt lat="42.88397" lon="2.64002">
        <ele>227.49</ele>
        <time>2015-10-04T10:44:55Z</time>
      </trkpt>
      <trkpt lat="42.88532" lon="2.63957">
        <ele>229.41</ele>
        <time>2015-10-04T10:45:03Z</time>
      </trkpt>
      <trkpt lat="42.88547" lon="2.6395">
        <ele>229.41</ele>
        <time>2015-10-04T10:45:04Z</time>
      </trkpt>
      <trkpt lat="42.88562" lon="2.63942">
        <ele>229.41</ele>
        <time>2015-10-04T10:45:05Z</time>
      </trkpt>
      <trkpt lat="42.88575" lon="2.63933">
        <ele>229.41</ele>
        <time>2015-10-04T10:45:06Z</time>
      </trkpt>
      <trkpt lat="42.88587" lon="2.63921">
        <ele>229.41</ele>
        <time>2015-10-04T10:45:07Z</time>
      </trkpt>
      <trkpt lat="42.88598" lon="2.63907">
        <ele>229.41</ele>
        <time>2015-10-04T10:45:08Z</time>
      </trkpt>
      <trkpt lat="42.88607" lon="2.63889">
        <ele>230.37</ele>
        <time>2015-10-04T10:45:09Z</time>
      </trkpt>
      <trkpt lat="42.88616" lon="2.63871">
        <ele>230.85</ele>
        <time>2015-10-04T10:45:10Z</time>
      </trkpt>
      <trkpt lat="42.8869" lon="2.63766">
        <ele>231.33</ele>
        <time>2015-10-04T10:45:17Z</time>
      </trkpt>
      <trkpt lat="42.88702" lon="2.63759">
        <ele>230.85</ele>
        <time>2015-10-04T10:45:18Z</time>
      </trkpt>
      <trkpt lat="42.88716" lon="2.63759">
        <ele>231.33</ele>
        <time>2015-10-04T10:45:19Z</time>
      </trkpt>
      <trkpt lat="42.88729" lon="2.6376">
        <ele>231.33</ele>
        <time>2015-10-04T10:45:20Z</time>
      </trkpt>
      <trkpt lat="42.88744" lon="2.63769">
        <ele>231.33</ele>
        <time>2015-10-04T10:45:21Z</time>
      </trkpt>
      <trkpt lat="42.88759" lon="2.63776">
        <ele>231.33</ele>
        <time>2015-10-04T10:45:22Z</time>
      </trkpt>
      <trkpt lat="42.88814" lon="2.63804">
        <ele>231.81</ele>
        <time>2015-10-04T10:45:26Z</time>
      </trkpt>
      <trkpt lat="42.88826" lon="2.63813">
        <ele>231.81</ele>
        <time>2015-10-04T10:45:27Z</time>
      </trkpt>
      <trkpt lat="42.88836" lon="2.63826">
        <ele>231.81</ele>
        <time>2015-10-04T10:45:28Z</time>
      </trkpt>
      <trkpt lat="42.88845" lon="2.63842">
        <ele>231.81</ele>
        <time>2015-10-04T10:45:29Z</time>
      </trkpt>
      <trkpt lat="42.88853" lon="2.63859">
        <ele>231.81</ele>
        <time>2015-10-04T10:45:30Z</time>
      </trkpt>
      <trkpt lat="42.8886" lon="2.63876">
        <ele>231.81</ele>
        <time>2015-10-04T10:45:31Z</time>
      </trkpt>
      <trkpt lat="42.88869" lon="2.63892">
        <ele>231.81</ele>
        <time>2015-10-04T10:45:32Z</time>
      </trkpt>
      <trkpt lat="42.88879" lon="2.63904">
        <ele>232.3</ele>
        <time>2015-10-04T10:45:33Z</time>
      </trkpt>
      <trkpt lat="42.88891" lon="2.63914">
        <ele>232.3</ele>
        <time>2015-10-04T10:45:34Z</time>
      </trkpt>
      <trkpt lat="42.88902" lon="2.63924">
        <ele>232.78</ele>
        <time>2015-10-04T10:45:35Z</time>
      </trkpt>
      <trkpt lat="42.88911" lon="2.63937">
        <ele>232.78</ele>
        <time>2015-10-04T10:45:36Z</time>
      </trkpt>
      <trkpt lat="42.88919" lon="2.6395">
        <ele>233.26</ele>
        <time>2015-10-04T10:45:37Z</time>
      </trkpt>
      <trkpt lat="42.88928" lon="2.63962">
        <ele>233.26</ele>
        <time>2015-10-04T10:45:38Z</time>
      </trkpt>
      <trkpt lat="42.88937" lon="2.63973">
        <ele>233.74</ele>
        <time>2015-10-04T10:45:39Z</time>
      </trkpt>
      <trkpt lat="42.88946" lon="2.63981">
        <ele>233.74</ele>
        <time>2015-10-04T10:45:40Z</time>
      </trkpt>
      <trkpt lat="42.88957" lon="2.63982">
        <ele>234.22</ele>
        <time>2015-10-04T10:45:41Z</time>
      </trkpt>
      <trkpt lat="42.8897" lon="2.63979">
        <ele>234.22</ele>
        <time>2015-10-04T10:45:42Z</time>
      </trkpt>
      <trkpt lat="42.8898" lon="2.63973">
        <ele>233.74</ele>
        <time>2015-10-04T10:45:43Z</time>
      </trkpt>
      <trkpt lat="42.88992" lon="2.63962">
        <ele>233.74</ele>
        <time>2015-10-04T10:45:44Z</time>
      </trkpt>
      <trkpt lat="42.89002" lon="2.63948">
        <ele>233.74</ele>
        <time>2015-10-04T10:45:45Z</time>
      </trkpt>
      <trkpt lat="42.89011" lon="2.63931">
        <ele>233.26</ele>
        <time>2015-10-04T10:45:46Z</time>
      </trkpt>
      <trkpt lat="42.89018" lon="2.63914">
        <ele>233.26</ele>
        <time>2015-10-04T10:45:47Z</time>
      </trkpt>
      <trkpt lat="42.89024" lon="2.63894">
        <ele>233.26</ele>
        <time>2015-10-04T10:45:48Z</time>
      </trkpt>
      <trkpt lat="42.89029" lon="2.63874">
        <ele>233.26</ele>
        <time>2015-10-04T10:45:49Z</time>
      </trkpt>
      <trkpt lat="42.89054" lon="2.63757">
        <ele>234.22</ele>
        <time>2015-10-04T10:45:55Z</time>
      </trkpt>
      <trkpt lat="42.8906" lon="2.63698">
        <ele>237.1</ele>
        <time>2015-10-04T10:45:58Z</time>
      </trkpt>
      <trkpt lat="42.89065" lon="2.6368">
        <ele>237.58</ele>
        <time>2015-10-04T10:45:59Z</time>
      </trkpt>
      <trkpt lat="42.89072" lon="2.63664">
        <ele>238.06</ele>
        <time>2015-10-04T10:46:00Z</time>
      </trkpt>
      <trkpt lat="42.89082" lon="2.63652">
        <ele>238.54</ele>
        <time>2015-10-04T10:46:01Z</time>
      </trkpt>
      <trkpt lat="42.89093" lon="2.63646">
        <ele>239.02</ele>
        <time>2015-10-04T10:46:02Z</time>
      </trkpt>
      <trkpt lat="42.89104" lon="2.63644">
        <ele>238.54</ele>
        <time>2015-10-04T10:46:03Z</time>
      </trkpt>
      <trkpt lat="42.89114" lon="2.63648">
        <ele>238.06</ele>
        <time>2015-10-04T10:46:04Z</time>
      </trkpt>
      <trkpt lat="42.89124" lon="2.63657">
        <ele>238.06</ele>
        <time>2015-10-04T10:46:05Z</time>
      </trkpt>
      <trkpt lat="42.89133" lon="2.63667">
        <ele>238.06</ele>
        <time>2015-10-04T10:46:06Z</time>
      </trkpt>
      <trkpt lat="42.8914" lon="2.63679">
        <ele>237.58</ele>
        <time>2015-10-04T10:46:07Z</time>
      </trkpt>
      <trkpt lat="42.89146" lon="2.63693">
        <ele>238.06</ele>
        <time>2015-10-04T10:46:08Z</time>
      </trkpt>
      <trkpt lat="42.8915" lon="2.63707">
        <ele>237.58</ele>
        <time>2015-10-04T10:46:09Z</time>
      </trkpt>
      <trkpt lat="42.89151" lon="2.63722">
        <ele>237.58</ele>
        <time>2015-10-04T10:46:10Z</time>
      </trkpt>
      <trkpt lat="42.89151" lon="2.63736">
        <ele>238.06</ele>
        <time>2015-10-04T10:46:11Z</time>
      </trkpt>
      <trkpt lat="42.89152" lon="2.6375">
        <ele>240.95</ele>
        <time>2015-10-04T10:46:12Z</time>
      </trkpt>
      <trkpt lat="42.89155" lon="2.63759">
        <ele>240.95</ele>
        <time>2015-10-04T10:46:13Z</time>
      </trkpt>
      <trkpt lat="42.89161" lon="2.63764">
        <ele>241.43</ele>
        <time>2015-10-04T10:46:14Z</time>
      </trkpt>
      <trkpt lat="42.8917" lon="2.63765">
        <ele>241.43</ele>
        <time>2015-10-04T10:46:15Z</time>
      </trkpt>
      <trkpt lat="42.8918" lon="2.63763">
        <ele>241.43</ele>
        <time>2015-10-04T10:46:16Z</time>
      </trkpt>
      <trkpt lat="42.8919" lon="2.63759">
        <ele>241.91</ele>
        <time>2015-10-04T10:46:17Z</time>
      </trkpt>
      <trkpt lat="42.89203" lon="2.63751">
        <ele>241.91</ele>
        <time>2015-10-04T10:46:18Z</time>
      </trkpt>
      <trkpt lat="42.89214" lon="2.63744">
        <ele>241.91</ele>
        <time>2015-10-04T10:46:19Z</time>
      </trkpt>
      <trkpt lat="42.89226" lon="2.63738">
        <ele>241.91</ele>
        <time>2015-10-04T10:46:20Z</time>
      </trkpt>
      <trkpt lat="42.89237" lon="2.63736">
        <ele>241.91</ele>
        <time>2015-10-04T10:46:21Z</time>
      </trkpt>
      <trkpt lat="42.89249" lon="2.63736">
        <ele>241.91</ele>
        <time>2015-10-04T10:46:22Z</time>
      </trkpt>
      <trkpt lat="42.89259" lon="2.63742">
        <ele>241.91</ele>
        <time>2015-10-04T10:46:23Z</time>
      </trkpt>
      <trkpt lat="42.89269" lon="2.6375">
        <ele>241.43</ele>
        <time>2015-10-04T10:46:24Z</time>
      </trkpt>
      <trkpt lat="42.89279" lon="2.6376">
        <ele>240.47</ele>
        <time>2015-10-04T10:46:25Z</time>
      </trkpt>
      <trkpt lat="42.8929" lon="2.63772">
        <ele>239.51</ele>
        <time>2015-10-04T10:46:26Z</time>
      </trkpt>
      <trkpt lat="42.89388" lon="2.63851">
        <ele>237.58</ele>
        <time>2015-10-04T10:46:34Z</time>
      </trkpt>
      <trkpt lat="42.89399" lon="2.63856">
        <ele>237.58</ele>
        <time>2015-10-04T10:46:35Z</time>
      </trkpt>
      <trkpt lat="42.89412" lon="2.63859">
        <ele>237.58</ele>
        <time>2015-10-04T10:46:36Z</time>
      </trkpt>
      <trkpt lat="42.89425" lon="2.63859">
        <ele>238.06</ele>
        <time>2015-10-04T10:46:37Z</time>
      </trkpt>
      <trkpt lat="42.89438" lon="2.63857">
        <ele>238.06</ele>
        <time>2015-10-04T10:46:38Z</time>
      </trkpt>
      <trkpt lat="42.89451" lon="2.63851">
        <ele>237.58</ele>
        <time>2015-10-04T10:46:39Z</time>
      </trkpt>
      <trkpt lat="42.89465" lon="2.63842">
        <ele>237.58</ele>
        <time>2015-10-04T10:46:40Z</time>
      </trkpt>
      <trkpt lat="42.89477" lon="2.63832">
        <ele>238.06</ele>
        <time>2015-10-04T10:46:41Z</time>
      </trkpt>
      <trkpt lat="42.8949" lon="2.6382">
        <ele>236.14</ele>
        <time>2015-10-04T10:46:42Z</time>
      </trkpt>
      <trkpt lat="42.89501" lon="2.63807">
        <ele>235.66</ele>
        <time>2015-10-04T10:46:43Z</time>
      </trkpt>
      <trkpt lat="42.89512" lon="2.63793">
        <ele>236.14</ele>
        <time>2015-10-04T10:46:44Z</time>
      </trkpt>
      <trkpt lat="42.89521" lon="2.63777">
        <ele>237.1</ele>
        <time>2015-10-04T10:46:45Z</time>
      </trkpt>
      <trkpt lat="42.89529" lon="2.6376">
        <ele>237.58</ele>
        <time>2015-10-04T10:46:46Z</time>
      </trkpt>
      <trkpt lat="42.89536" lon="2.63742">
        <ele>238.06</ele>
        <time>2015-10-04T10:46:47Z</time>
      </trkpt>
      <trkpt lat="42.89543" lon="2.63725">
        <ele>238.54</ele>
        <time>2015-10-04T10:46:48Z</time>
      </trkpt>
      <trkpt lat="42.89552" lon="2.6371">
        <ele>239.51</ele>
        <time>2015-10-04T10:46:49Z</time>
      </trkpt>
      <trkpt lat="42.89561" lon="2.63696">
        <ele>240.47</ele>
        <time>2015-10-04T10:46:50Z</time>
      </trkpt>
      <trkpt lat="42.89571" lon="2.63684">
        <ele>240.95</ele>
        <time>2015-10-04T10:46:51Z</time>
      </trkpt>
      <trkpt lat="42.89582" lon="2.63673">
        <ele>241.43</ele>
        <time>2015-10-04T10:46:52Z</time>
      </trkpt>
      <trkpt lat="42.89594" lon="2.63664">
        <ele>242.39</ele>
        <time>2015-10-04T10:46:53Z</time>
      </trkpt>
      <trkpt lat="42.89606" lon="2.63656">
        <ele>242.87</ele>
        <time>2015-10-04T10:46:54Z</time>
      </trkpt>
      <trkpt lat="42.89618" lon="2.63649">
        <ele>243.83</ele>
        <time>2015-10-04T10:46:55Z</time>
      </trkpt>
      <trkpt lat="42.8963" lon="2.63641">
        <ele>244.79</ele>
        <time>2015-10-04T10:46:56Z</time>
      </trkpt>
      <trkpt lat="42.89641" lon="2.63633">
        <ele>245.27</ele>
        <time>2015-10-04T10:46:57Z</time>
      </trkpt>
      <trkpt lat="42.89653" lon="2.63627">
        <ele>245.75</ele>
        <time>2015-10-04T10:46:58Z</time>
      </trkpt>
      <trkpt lat="42.89665" lon="2.63624">
        <ele>246.23</ele>
        <time>2015-10-04T10:46:59Z</time>
      </trkpt>
      <trkpt lat="42.89677" lon="2.63622">
        <ele>246.23</ele>
        <time>2015-10-04T10:47:00Z</time>
      </trkpt>
      <trkpt lat="42.89689" lon="2.63622">
        <ele>245.75</ele>
        <time>2015-10-04T10:47:01Z</time>
      </trkpt>
      <trkpt lat="42.897" lon="2.63626">
        <ele>246.23</ele>
        <time>2015-10-04T10:47:02Z</time>
      </trkpt>
      <trkpt lat="42.8971" lon="2.63633">
        <ele>246.23</ele>
        <time>2015-10-04T10:47:03Z</time>
      </trkpt>
      <trkpt lat="42.89719" lon="2.63643">
        <ele>246.23</ele>
        <time>2015-10-04T10:47:04Z</time>
      </trkpt>
      <trkpt lat="42.89728" lon="2.63652">
        <ele>246.23</ele>
        <time>2015-10-04T10:47:05Z</time>
      </trkpt>
      <trkpt lat="42.89737" lon="2.63658">
        <ele>247.2</ele>
        <time>2015-10-04T10:47:06Z</time>
      </trkpt>
      <trkpt lat="42.89747" lon="2.63663">
        <ele>248.16</ele>
        <time>2015-10-04T10:47:07Z</time>
      </trkpt>
      <trkpt lat="42.89757" lon="2.63666">
        <ele>249.12</ele>
        <time>2015-10-04T10:47:08Z</time>
      </trkpt>
      <trkpt lat="42.89767" lon="2.63672">
        <ele>249.6</ele>
        <time>2015-10-04T10:47:09Z</time>
      </trkpt>
      <trkpt lat="42.89775" lon="2.6368">
        <ele>250.08</ele>
        <time>2015-10-04T10:47:10Z</time>
      </trkpt>
      <trkpt lat="42.89782" lon="2.63691">
        <ele>250.08</ele>
        <time>2015-10-04T10:47:11Z</time>
      </trkpt>
      <trkpt lat="42.8979" lon="2.63702">
        <ele>250.56</ele>
        <time>2015-10-04T10:47:12Z</time>
      </trkpt>
      <trkpt lat="42.89798" lon="2.63714">
        <ele>250.56</ele>
        <time>2015-10-04T10:47:13Z</time>
      </trkpt>
      <trkpt lat="42.89805" lon="2.63727">
        <ele>251.52</ele>
        <time>2015-10-04T10:47:14Z</time>
      </trkpt>
      <trkpt lat="42.8981" lon="2.63742">
        <ele>252</ele>
        <time>2015-10-04T10:47:15Z</time>
      </trkpt>
      <trkpt lat="42.89813" lon="2.63758">
        <ele>252</ele>
        <time>2015-10-04T10:47:16Z</time>
      </trkpt>
      <trkpt lat="42.89815" lon="2.63777">
        <ele>254.89</ele>
        <time>2015-10-04T10:47:17Z</time>
      </trkpt>
      <trkpt lat="42.89816" lon="2.63795">
        <ele>255.85</ele>
        <time>2015-10-04T10:47:18Z</time>
      </trkpt>
      <trkpt lat="42.8982" lon="2.63851">
        <ele>256.33</ele>
        <time>2015-10-04T10:47:22Z</time>
      </trkpt>
      <trkpt lat="42.89825" lon="2.63861">
        <ele>256.81</ele>
        <time>2015-10-04T10:47:23Z</time>
      </trkpt>
      <trkpt lat="42.89834" lon="2.6387">
        <ele>256.81</ele>
        <time>2015-10-04T10:47:24Z</time>
      </trkpt>
      <trkpt lat="42.89845" lon="2.63878">
        <ele>257.29</ele>
        <time>2015-10-04T10:47:25Z</time>
      </trkpt>
      <trkpt lat="42.89857" lon="2.63885">
        <ele>257.77</ele>
        <time>2015-10-04T10:47:26Z</time>
      </trkpt>
      <trkpt lat="42.89868" lon="2.63891">
        <ele>258.25</ele>
        <time>2015-10-04T10:47:27Z</time>
      </trkpt>
      <trkpt lat="42.8988" lon="2.63894">
        <ele>259.21</ele>
        <time>2015-10-04T10:47:28Z</time>
      </trkpt>
      <trkpt lat="42.89892" lon="2.63894">
        <ele>259.69</ele>
        <time>2015-10-04T10:47:29Z</time>
      </trkpt>
      <trkpt lat="42.89905" lon="2.63891">
        <ele>259.69</ele>
        <time>2015-10-04T10:47:30Z</time>
      </trkpt>
      <trkpt lat="42.89916" lon="2.63889">
        <ele>259.69</ele>
        <time>2015-10-04T10:47:31Z</time>
      </trkpt>
      <trkpt lat="42.89926" lon="2.63889">
        <ele>260.17</ele>
        <time>2015-10-04T10:47:32Z</time>
      </trkpt>
      <trkpt lat="42.89937" lon="2.63889">
        <ele>260.65</ele>
        <time>2015-10-04T10:47:33Z</time>
      </trkpt>
      <trkpt lat="42.89946" lon="2.63883">
        <ele>261.14</ele>
        <time>2015-10-04T10:47:34Z</time>
      </trkpt>
      <trkpt lat="42.89956" lon="2.63872">
        <ele>259.21</ele>
        <time>2015-10-04T10:47:35Z</time>
      </trkpt>
      <trkpt lat="42.89962" lon="2.63858">
        <ele>259.21</ele>
        <time>2015-10-04T10:47:36Z</time>
      </trkpt>
      <trkpt lat="42.89966" lon="2.63843">
        <ele>258.73</ele>
        <time>2015-10-04T10:47:37Z</time>
      </trkpt>
      <trkpt lat="42.89967" lon="2.63826">
        <ele>259.69</ele>
        <time>2015-10-04T10:47:38Z</time>
      </trkpt>
      <trkpt lat="42.89966" lon="2.63812">
        <ele>259.21</ele>
        <time>2015-10-04T10:47:39Z</time>
      </trkpt>
      <trkpt lat="42.89965" lon="2.638">
        <ele>259.69</ele>
        <time>2015-10-04T10:47:40Z</time>
      </trkpt>
      <trkpt lat="42.89962" lon="2.63788">
        <ele>259.21</ele>
        <time>2015-10-04T10:47:41Z</time>
      </trkpt>
      <trkpt lat="42.8996" lon="2.63776">
        <ele>259.69</ele>
        <time>2015-10-04T10:47:42Z</time>
      </trkpt>
      <trkpt lat="42.89959" lon="2.63765">
        <ele>259.21</ele>
        <time>2015-10-04T10:47:43Z</time>
      </trkpt>
      <trkpt lat="42.89959" lon="2.63753">
        <ele>259.69</ele>
        <time>2015-10-04T10:47:44Z</time>
      </trkpt>
      <trkpt lat="42.89962" lon="2.63743">
        <ele>259.21</ele>
        <time>2015-10-04T10:47:45Z</time>
      </trkpt>
      <trkpt lat="42.89969" lon="2.63735">
        <ele>261.14</ele>
        <time>2015-10-04T10:47:46Z</time>
      </trkpt>
      <trkpt lat="42.89978" lon="2.63729">
        <ele>262.58</ele>
        <time>2015-10-04T10:47:47Z</time>
      </trkpt>
      <trkpt lat="42.89987" lon="2.63723">
        <ele>263.54</ele>
        <time>2015-10-04T10:47:48Z</time>
      </trkpt>
      <trkpt lat="42.90014" lon="2.63709">
        <ele>264.98</ele>
        <time>2015-10-04T10:47:51Z</time>
      </trkpt>
      <trkpt lat="42.90023" lon="2.63711">
        <ele>264.98</ele>
        <time>2015-10-04T10:47:52Z</time>
      </trkpt>
      <trkpt lat="42.90031" lon="2.63719">
        <ele>265.46</ele>
        <time>2015-10-04T10:47:53Z</time>
      </trkpt>
      <trkpt lat="42.9004" lon="2.6373">
        <ele>265.46</ele>
        <time>2015-10-04T10:47:54Z</time>
      </trkpt>
      <trkpt lat="42.9005" lon="2.63738">
        <ele>265.94</ele>
        <time>2015-10-04T10:47:55Z</time>
      </trkpt>
      <trkpt lat="42.9006" lon="2.63744">
        <ele>265.94</ele>
        <time>2015-10-04T10:47:56Z</time>
      </trkpt>
      <trkpt lat="42.90069" lon="2.63747">
        <ele>266.42</ele>
        <time>2015-10-04T10:47:57Z</time>
      </trkpt>
      <trkpt lat="42.90079" lon="2.63747">
        <ele>267.38</ele>
        <time>2015-10-04T10:47:58Z</time>
      </trkpt>
      <trkpt lat="42.90087" lon="2.63744">
        <ele>268.83</ele>
        <time>2015-10-04T10:47:59Z</time>
      </trkpt>
      <trkpt lat="42.90094" lon="2.63736">
        <ele>269.79</ele>
        <time>2015-10-04T10:48:00Z</time>
      </trkpt>
      <trkpt lat="42.90102" lon="2.63728">
        <ele>270.27</ele>
        <time>2015-10-04T10:48:01Z</time>
      </trkpt>
      <trkpt lat="42.9011" lon="2.6372">
        <ele>270.75</ele>
        <time>2015-10-04T10:48:02Z</time>
      </trkpt>
      <trkpt lat="42.9012" lon="2.63712">
        <ele>271.71</ele>
        <time>2015-10-04T10:48:03Z</time>
      </trkpt>
      <trkpt lat="42.90145" lon="2.63694">
        <ele>272.67</ele>
        <time>2015-10-04T10:48:06Z</time>
      </trkpt>
      <trkpt lat="42.90155" lon="2.63692">
        <ele>272.67</ele>
        <time>2015-10-04T10:48:07Z</time>
      </trkpt>
      <trkpt lat="42.90165" lon="2.63697">
        <ele>272.19</ele>
        <time>2015-10-04T10:48:08Z</time>
      </trkpt>
      <trkpt lat="42.90174" lon="2.63706">
        <ele>272.19</ele>
        <time>2015-10-04T10:48:09Z</time>
      </trkpt>
      <trkpt lat="42.90182" lon="2.63717">
        <ele>271.71</ele>
        <time>2015-10-04T10:48:10Z</time>
      </trkpt>
      <trkpt lat="42.9019" lon="2.6373">
        <ele>272.19</ele>
        <time>2015-10-04T10:48:11Z</time>
      </trkpt>
      <trkpt lat="42.90197" lon="2.63742">
        <ele>272.19</ele>
        <time>2015-10-04T10:48:12Z</time>
      </trkpt>
      <trkpt lat="42.90204" lon="2.63754">
        <ele>272.19</ele>
        <time>2015-10-04T10:48:13Z</time>
      </trkpt>
      <trkpt lat="42.90208" lon="2.63768">
        <ele>271.71</ele>
        <time>2015-10-04T10:48:14Z</time>
      </trkpt>
      <trkpt lat="42.90208" lon="2.63786">
        <ele>272.19</ele>
        <time>2015-10-04T10:48:15Z</time>
      </trkpt>
      <trkpt lat="42.90208" lon="2.63805">
        <ele>272.19</ele>
        <time>2015-10-04T10:48:16Z</time>
      </trkpt>
      <trkpt lat="42.90206" lon="2.63824">
        <ele>271.71</ele>
        <time>2015-10-04T10:48:17Z</time>
      </trkpt>
      <trkpt lat="42.90201" lon="2.63874">
        <ele>272.19</ele>
        <time>2015-10-04T10:48:20Z</time>
      </trkpt>
      <trkpt lat="42.90195" lon="2.63889">
        <ele>271.71</ele>
        <time>2015-10-04T10:48:21Z</time>
      </trkpt>
      <trkpt lat="42.90189" lon="2.63903">
        <ele>271.23</ele>
        <time>2015-10-04T10:48:22Z</time>
      </trkpt>
      <trkpt lat="42.90168" lon="2.63946">
        <ele>270.27</ele>
        <time>2015-10-04T10:48:25Z</time>
      </trkpt>
      <trkpt lat="42.90164" lon="2.63963">
        <ele>270.27</ele>
        <time>2015-10-04T10:48:26Z</time>
      </trkpt>
      <trkpt lat="42.90161" lon="2.63981">
        <ele>270.27</ele>
        <time>2015-10-04T10:48:27Z</time>
      </trkpt>
      <trkpt lat="42.90158" lon="2.64">
        <ele>270.27</ele>
        <time>2015-10-04T10:48:28Z</time>
      </trkpt>
      <trkpt lat="42.90154" lon="2.64018">
        <ele>270.27</ele>
        <time>2015-10-04T10:48:29Z</time>
      </trkpt>
      <trkpt lat="42.9015" lon="2.64035">
        <ele>270.27</ele>
        <time>2015-10-04T10:48:30Z</time>
      </trkpt>
      <trkpt lat="42.90149" lon="2.64051">
        <ele>269.79</ele>
        <time>2015-10-04T10:48:31Z</time>
      </trkpt>
      <trkpt lat="42.90151" lon="2.64066">
        <ele>269.79</ele>
        <time>2015-10-04T10:48:32Z</time>
      </trkpt>
      <trkpt lat="42.90159" lon="2.64078">
        <ele>270.27</ele>
        <time>2015-10-04T10:48:33Z</time>
      </trkpt>
      <trkpt lat="42.90166" lon="2.64086">
        <ele>271.23</ele>
        <time>2015-10-04T10:48:34Z</time>
      </trkpt>
      <trkpt lat="42.90174" lon="2.64089">
        <ele>272.19</ele>
        <time>2015-10-04T10:48:35Z</time>
      </trkpt>
      <trkpt lat="42.90182" lon="2.64091">
        <ele>272.67</ele>
        <time>2015-10-04T10:48:36Z</time>
      </trkpt>
      <trkpt lat="42.90189" lon="2.64091">
        <ele>272.19</ele>
        <time>2015-10-04T10:48:37Z</time>
      </trkpt>
      <trkpt lat="42.90196" lon="2.64091">
        <ele>272.19</ele>
        <time>2015-10-04T10:48:38Z</time>
      </trkpt>
      <trkpt lat="42.90201" lon="2.64092">
        <ele>270.75</ele>
        <time>2015-10-04T10:48:39Z</time>
      </trkpt>
      <trkpt lat="42.90216" lon="2.64102">
        <ele>270.27</ele>
        <time>2015-10-04T10:48:42Z</time>
      </trkpt>
      <trkpt lat="42.90222" lon="2.64109">
        <ele>270.27</ele>
        <time>2015-10-04T10:48:43Z</time>
      </trkpt>
      <trkpt lat="42.90228" lon="2.64119">
        <ele>270.27</ele>
        <time>2015-10-04T10:48:44Z</time>
      </trkpt>
      <trkpt lat="42.90233" lon="2.64133">
        <ele>270.27</ele>
        <time>2015-10-04T10:48:45Z</time>
      </trkpt>
      <trkpt lat="42.90236" lon="2.64146">
        <ele>270.27</ele>
        <time>2015-10-04T10:48:46Z</time>
      </trkpt>
      <trkpt lat="42.90239" lon="2.6416">
        <ele>270.27</ele>
        <time>2015-10-04T10:48:47Z</time>
      </trkpt>
      <trkpt lat="42.90244" lon="2.64172">
        <ele>270.27</ele>
        <time>2015-10-04T10:48:48Z</time>
      </trkpt>
      <trkpt lat="42.90249" lon="2.64183">
        <ele>270.27</ele>
        <time>2015-10-04T10:48:49Z</time>
      </trkpt>
      <trkpt lat="42.90255" lon="2.64194">
        <ele>269.79</ele>
        <time>2015-10-04T10:48:50Z</time>
      </trkpt>
      <trkpt lat="42.90263" lon="2.64203">
        <ele>270.27</ele>
        <time>2015-10-04T10:48:51Z</time>
      </trkpt>
      <trkpt lat="42.90274" lon="2.6421">
        <ele>270.27</ele>
        <time>2015-10-04T10:48:52Z</time>
      </trkpt>
      <trkpt lat="42.90286" lon="2.64214">
        <ele>270.27</ele>
        <time>2015-10-04T10:48:53Z</time>
      </trkpt>
      <trkpt lat="42.90299" lon="2.64218">
        <ele>269.79</ele>
        <time>2015-10-04T10:48:54Z</time>
      </trkpt>
      <trkpt lat="42.90312" lon="2.64222">
        <ele>270.27</ele>
        <time>2015-10-04T10:48:55Z</time>
      </trkpt>
      <trkpt lat="42.90324" lon="2.64227">
        <ele>270.75</ele>
        <time>2015-10-04T10:48:56Z</time>
      </trkpt>
      <trkpt lat="42.90335" lon="2.64233">
        <ele>271.23</ele>
        <time>2015-10-04T10:48:57Z</time>
      </trkpt>
      <trkpt lat="42.90345" lon="2.64241">
        <ele>271.23</ele>
        <time>2015-10-04T10:48:58Z</time>
      </trkpt>
      <trkpt lat="42.90353" lon="2.64249">
        <ele>270.75</ele>
        <time>2015-10-04T10:48:59Z</time>
      </trkpt>
      <trkpt lat="42.9036" lon="2.64258">
        <ele>270.75</ele>
        <time>2015-10-04T10:49:00Z</time>
      </trkpt>
      <trkpt lat="42.90367" lon="2.64266">
        <ele>270.27</ele>
        <time>2015-10-04T10:49:01Z</time>
      </trkpt>
      <trkpt lat="42.90374" lon="2.64274">
        <ele>270.27</ele>
        <time>2015-10-04T10:49:02Z</time>
      </trkpt>
      <trkpt lat="42.90383" lon="2.64279">
        <ele>270.75</ele>
        <time>2015-10-04T10:49:03Z</time>
      </trkpt>
      <trkpt lat="42.90392" lon="2.64282">
        <ele>269.31</ele>
        <time>2015-10-04T10:49:04Z</time>
      </trkpt>
      <trkpt lat="42.90404" lon="2.64284">
        <ele>269.79</ele>
        <time>2015-10-04T10:49:05Z</time>
      </trkpt>
      <trkpt lat="42.90417" lon="2.64284">
        <ele>269.79</ele>
        <time>2015-10-04T10:49:06Z</time>
      </trkpt>
      <trkpt lat="42.90433" lon="2.64282">
        <ele>269.79</ele>
        <time>2015-10-04T10:49:07Z</time>
      </trkpt>
      <trkpt lat="42.9045" lon="2.6428">
        <ele>269.79</ele>
        <time>2015-10-04T10:49:08Z</time>
      </trkpt>
      <trkpt lat="42.90556" lon="2.64271">
        <ele>268.35</ele>
        <time>2015-10-04T10:49:15Z</time>
      </trkpt>
      <trkpt lat="42.9057" lon="2.64272">
        <ele>267.86</ele>
        <time>2015-10-04T10:49:16Z</time>
      </trkpt>
      <trkpt lat="42.90583" lon="2.64278">
        <ele>267.38</ele>
        <time>2015-10-04T10:49:17Z</time>
      </trkpt>
      <trkpt lat="42.90596" lon="2.6429">
        <ele>266.9</ele>
        <time>2015-10-04T10:49:18Z</time>
      </trkpt>
      <trkpt lat="42.90608" lon="2.64305">
        <ele>266.42</ele>
        <time>2015-10-04T10:49:19Z</time>
      </trkpt>
      <trkpt lat="42.9062" lon="2.64322">
        <ele>266.42</ele>
        <time>2015-10-04T10:49:20Z</time>
      </trkpt>
      <trkpt lat="42.90689" lon="2.6441">
        <ele>270.27</ele>
        <time>2015-10-04T10:49:26Z</time>
      </trkpt>
      <trkpt lat="42.907" lon="2.64415">
        <ele>269.79</ele>
        <time>2015-10-04T10:49:27Z</time>
      </trkpt>
      <trkpt lat="42.90713" lon="2.64418">
        <ele>270.75</ele>
        <time>2015-10-04T10:49:28Z</time>
      </trkpt>
      <trkpt lat="42.90725" lon="2.64419">
        <ele>271.23</ele>
        <time>2015-10-04T10:49:29Z</time>
      </trkpt>
      <trkpt lat="42.90739" lon="2.64415">
        <ele>270.27</ele>
        <time>2015-10-04T10:49:30Z</time>
      </trkpt>
      <trkpt lat="42.90753" lon="2.6441">
        <ele>269.79</ele>
        <time>2015-10-04T10:49:31Z</time>
      </trkpt>
      <trkpt lat="42.90768" lon="2.64401">
        <ele>269.31</ele>
        <time>2015-10-04T10:49:32Z</time>
      </trkpt>
      <trkpt lat="42.90783" lon="2.64389">
        <ele>269.31</ele>
        <time>2015-10-04T10:49:33Z</time>
      </trkpt>
      <trkpt lat="42.90798" lon="2.64374">
        <ele>269.79</ele>
        <time>2015-10-04T10:49:34Z</time>
      </trkpt>
      <trkpt lat="42.90815" lon="2.64358">
        <ele>269.79</ele>
        <time>2015-10-04T10:49:35Z</time>
      </trkpt>
      <trkpt lat="42.90936" lon="2.64261">
        <ele>272.67</ele>
        <time>2015-10-04T10:49:42Z</time>
      </trkpt>
      <trkpt lat="42.90979" lon="2.64208">
        <ele>274.59</ele>
        <time>2015-10-04T10:49:46Z</time>
      </trkpt>
      <trkpt lat="42.90986" lon="2.64191">
        <ele>274.59</ele>
        <time>2015-10-04T10:49:47Z</time>
      </trkpt>
      <trkpt lat="42.90991" lon="2.64172">
        <ele>274.59</ele>
        <time>2015-10-04T10:49:48Z</time>
      </trkpt>
      <trkpt lat="42.90998" lon="2.64153">
        <ele>275.07</ele>
        <time>2015-10-04T10:49:49Z</time>
      </trkpt>
      <trkpt lat="42.91007" lon="2.64137">
        <ele>275.56</ele>
        <time>2015-10-04T10:49:50Z</time>
      </trkpt>
      <trkpt lat="42.91017" lon="2.64122">
        <ele>276.04</ele>
        <time>2015-10-04T10:49:51Z</time>
      </trkpt>
      <trkpt lat="42.91029" lon="2.64109">
        <ele>276.52</ele>
        <time>2015-10-04T10:49:52Z</time>
      </trkpt>
      <trkpt lat="42.91039" lon="2.64098">
        <ele>276.52</ele>
        <time>2015-10-04T10:49:53Z</time>
      </trkpt>
      <trkpt lat="42.91061" lon="2.6408">
        <ele>277</ele>
        <time>2015-10-04T10:49:55Z</time>
      </trkpt>
      <trkpt lat="42.91074" lon="2.64078">
        <ele>277.48</ele>
        <time>2015-10-04T10:49:56Z</time>
      </trkpt>
      <trkpt lat="42.91088" lon="2.64079">
        <ele>277.48</ele>
        <time>2015-10-04T10:49:57Z</time>
      </trkpt>
      <trkpt lat="42.91102" lon="2.64084">
        <ele>277.96</ele>
        <time>2015-10-04T10:49:58Z</time>
      </trkpt>
      <trkpt lat="42.91118" lon="2.64089">
        <ele>277.48</ele>
        <time>2015-10-04T10:49:59Z</time>
      </trkpt>
      <trkpt lat="42.91185" lon="2.64119">
        <ele>277.96</ele>
        <time>2015-10-04T10:50:04Z</time>
      </trkpt>
      <trkpt lat="42.91197" lon="2.64121">
        <ele>278.92</ele>
        <time>2015-10-04T10:50:05Z</time>
      </trkpt>
      <trkpt lat="42.9121" lon="2.6412">
        <ele>278.44</ele>
        <time>2015-10-04T10:50:06Z</time>
      </trkpt>
      <trkpt lat="42.91224" lon="2.64114">
        <ele>278.92</ele>
        <time>2015-10-04T10:50:07Z</time>
      </trkpt>
      <trkpt lat="42.91238" lon="2.6411">
        <ele>279.4</ele>
        <time>2015-10-04T10:50:08Z</time>
      </trkpt>
      <trkpt lat="42.91265" lon="2.64098">
        <ele>279.88</ele>
        <time>2015-10-04T10:50:10Z</time>
      </trkpt>
      <trkpt lat="42.91276" lon="2.64091">
        <ele>280.36</ele>
        <time>2015-10-04T10:50:11Z</time>
      </trkpt>
      <trkpt lat="42.91287" lon="2.64081">
        <ele>279.88</ele>
        <time>2015-10-04T10:50:12Z</time>
      </trkpt>
      <trkpt lat="42.91297" lon="2.64071">
        <ele>279.88</ele>
        <time>2015-10-04T10:50:13Z</time>
      </trkpt>
      <trkpt lat="42.91307" lon="2.64059">
        <ele>279.4</ele>
        <time>2015-10-04T10:50:14Z</time>
      </trkpt>
      <trkpt lat="42.91315" lon="2.64045">
        <ele>278.92</ele>
        <time>2015-10-04T10:50:15Z</time>
      </trkpt>
      <trkpt lat="42.91321" lon="2.6403">
        <ele>278.92</ele>
        <time>2015-10-04T10:50:16Z</time>
      </trkpt>
      <trkpt lat="42.91326" lon="2.64015">
        <ele>278.92</ele>
        <time>2015-10-04T10:50:17Z</time>
      </trkpt>
      <trkpt lat="42.91329" lon="2.64">
        <ele>279.4</ele>
        <time>2015-10-04T10:50:18Z</time>
      </trkpt>
      <trkpt lat="42.91332" lon="2.63986">
        <ele>279.4</ele>
        <time>2015-10-04T10:50:19Z</time>
      </trkpt>
      <trkpt lat="42.91337" lon="2.63975">
        <ele>279.4</ele>
        <time>2015-10-04T10:50:20Z</time>
      </trkpt>
      <trkpt lat="42.91343" lon="2.63968">
        <ele>280.36</ele>
        <time>2015-10-04T10:50:21Z</time>
      </trkpt>
      <trkpt lat="42.91353" lon="2.63966">
        <ele>280.84</ele>
        <time>2015-10-04T10:50:22Z</time>
      </trkpt>
      <trkpt lat="42.91364" lon="2.63968">
        <ele>281.32</ele>
        <time>2015-10-04T10:50:23Z</time>
      </trkpt>
      <trkpt lat="42.91375" lon="2.63972">
        <ele>281.8</ele>
        <time>2015-10-04T10:50:24Z</time>
      </trkpt>
      <trkpt lat="42.91385" lon="2.63975">
        <ele>282.28</ele>
        <time>2015-10-04T10:50:25Z</time>
      </trkpt>
      <trkpt lat="42.91402" lon="2.63978">
        <ele>283.73</ele>
        <time>2015-10-04T10:50:27Z</time>
      </trkpt>
      <trkpt lat="42.91409" lon="2.63976">
        <ele>284.21</ele>
        <time>2015-10-04T10:50:28Z</time>
      </trkpt>
      <trkpt lat="42.91415" lon="2.63968">
        <ele>285.17</ele>
        <time>2015-10-04T10:50:29Z</time>
      </trkpt>
      <trkpt lat="42.91418" lon="2.63956">
        <ele>285.65</ele>
        <time>2015-10-04T10:50:30Z</time>
      </trkpt>
      <trkpt lat="42.91419" lon="2.63942">
        <ele>286.61</ele>
        <time>2015-10-04T10:50:31Z</time>
      </trkpt>
      <trkpt lat="42.9142" lon="2.63925">
        <ele>287.57</ele>
        <time>2015-10-04T10:50:32Z</time>
      </trkpt>
      <trkpt lat="42.91421" lon="2.63905">
        <ele>288.05</ele>
        <time>2015-10-04T10:50:33Z</time>
      </trkpt>
      <trkpt lat="42.91434" lon="2.63731">
        <ele>297.18</ele>
        <time>2015-10-04T10:50:42Z</time>
      </trkpt>
      <trkpt lat="42.91446" lon="2.63625">
        <ele>302.95</ele>
        <time>2015-10-04T10:50:49Z</time>
      </trkpt>
      <trkpt lat="42.91448" lon="2.63618">
        <ele>302.95</ele>
        <time>2015-10-04T10:50:50Z</time>
      </trkpt>
      <trkpt lat="42.9145" lon="2.63613">
        <ele>303.43</ele>
        <time>2015-10-04T10:50:51Z</time>
      </trkpt>
      <trkpt lat="42.91454" lon="2.63614">
        <ele>303.43</ele>
        <time>2015-10-04T10:50:52Z</time>
      </trkpt>
      <trkpt lat="42.91456" lon="2.63617">
        <ele>303.43</ele>
        <time>2015-10-04T10:50:53Z</time>
      </trkpt>
      <trkpt lat="42.91458" lon="2.63623">
        <ele>303.43</ele>
        <time>2015-10-04T10:50:54Z</time>
      </trkpt>
      <trkpt lat="42.91456" lon="2.63632">
        <ele>303.91</ele>
        <time>2015-10-04T10:50:55Z</time>
      </trkpt>
      <trkpt lat="42.91454" lon="2.63643">
        <ele>303.91</ele>
        <time>2015-10-04T10:50:56Z</time>
      </trkpt>
      <trkpt lat="42.91451" lon="2.63656">
        <ele>303.91</ele>
        <time>2015-10-04T10:50:57Z</time>
      </trkpt>
      <trkpt lat="42.9145" lon="2.63673">
        <ele>303.91</ele>
        <time>2015-10-04T10:50:58Z</time>
      </trkpt>
      <trkpt lat="42.9145" lon="2.6369">
        <ele>303.91</ele>
        <time>2015-10-04T10:50:59Z</time>
      </trkpt>
      <trkpt lat="42.91451" lon="2.63706">
        <ele>304.39</ele>
        <time>2015-10-04T10:51:00Z</time>
      </trkpt>
      <trkpt lat="42.91453" lon="2.6372">
        <ele>304.39</ele>
        <time>2015-10-04T10:51:01Z</time>
      </trkpt>
      <trkpt lat="42.91455" lon="2.63734">
        <ele>304.88</ele>
        <time>2015-10-04T10:51:02Z</time>
      </trkpt>
      <trkpt lat="42.9146" lon="2.63746">
        <ele>304.88</ele>
        <time>2015-10-04T10:51:03Z</time>
      </trkpt>
      <trkpt lat="42.9147" lon="2.63756">
        <ele>304.88</ele>
        <time>2015-10-04T10:51:04Z</time>
      </trkpt>
      <trkpt lat="42.91481" lon="2.63764">
        <ele>305.36</ele>
        <time>2015-10-04T10:51:05Z</time>
      </trkpt>
      <trkpt lat="42.91493" lon="2.63771">
        <ele>305.36</ele>
        <time>2015-10-04T10:51:06Z</time>
      </trkpt>
      <trkpt lat="42.91504" lon="2.63778">
        <ele>305.36</ele>
        <time>2015-10-04T10:51:07Z</time>
      </trkpt>
      <trkpt lat="42.91541" lon="2.638">
        <ele>305.84</ele>
        <time>2015-10-04T10:51:11Z</time>
      </trkpt>
      <trkpt lat="42.91546" lon="2.63807">
        <ele>305.84</ele>
        <time>2015-10-04T10:51:12Z</time>
      </trkpt>
      <trkpt lat="42.91549" lon="2.63817">
        <ele>305.84</ele>
        <time>2015-10-04T10:51:13Z</time>
      </trkpt>
      <trkpt lat="42.91549" lon="2.63831">
        <ele>306.8</ele>
        <time>2015-10-04T10:51:14Z</time>
      </trkpt>
      <trkpt lat="42.91547" lon="2.63846">
        <ele>307.28</ele>
        <time>2015-10-04T10:51:15Z</time>
      </trkpt>
      <trkpt lat="42.91544" lon="2.63862">
        <ele>307.76</ele>
        <time>2015-10-04T10:51:16Z</time>
      </trkpt>
      <trkpt lat="42.91543" lon="2.63878">
        <ele>308.24</ele>
        <time>2015-10-04T10:51:17Z</time>
      </trkpt>
      <trkpt lat="42.91543" lon="2.63893">
        <ele>308.24</ele>
        <time>2015-10-04T10:51:18Z</time>
      </trkpt>
      <trkpt lat="42.91545" lon="2.63908">
        <ele>308.24</ele>
        <time>2015-10-04T10:51:19Z</time>
      </trkpt>
      <trkpt lat="42.9155" lon="2.6392">
        <ele>308.24</ele>
        <time>2015-10-04T10:51:20Z</time>
      </trkpt>
      <trkpt lat="42.91558" lon="2.6393">
        <ele>308.24</ele>
        <time>2015-10-04T10:51:21Z</time>
      </trkpt>
      <trkpt lat="42.91568" lon="2.63936">
        <ele>308.24</ele>
        <time>2015-10-04T10:51:22Z</time>
      </trkpt>
      <trkpt lat="42.9158" lon="2.6394">
        <ele>307.76</ele>
        <time>2015-10-04T10:51:23Z</time>
      </trkpt>
      <trkpt lat="42.91592" lon="2.63944">
        <ele>307.76</ele>
        <time>2015-10-04T10:51:24Z</time>
      </trkpt>
      <trkpt lat="42.91605" lon="2.63951">
        <ele>307.76</ele>
        <time>2015-10-04T10:51:25Z</time>
      </trkpt>
      <trkpt lat="42.91617" lon="2.63961">
        <ele>308.24</ele>
        <time>2015-10-04T10:51:26Z</time>
      </trkpt>
      <trkpt lat="42.91629" lon="2.63971">
        <ele>308.72</ele>
        <time>2015-10-04T10:51:27Z</time>
      </trkpt>
      <trkpt lat="42.91641" lon="2.6398">
        <ele>309.2</ele>
        <time>2015-10-04T10:51:28Z</time>
      </trkpt>
      <trkpt lat="42.91653" lon="2.63987">
        <ele>309.2</ele>
        <time>2015-10-04T10:51:29Z</time>
      </trkpt>
      <trkpt lat="42.91698" lon="2.64006">
        <ele>309.68</ele>
        <time>2015-10-04T10:51:33Z</time>
      </trkpt>
      <trkpt lat="42.91711" lon="2.64006">
        <ele>309.68</ele>
        <time>2015-10-04T10:51:34Z</time>
      </trkpt>
      <trkpt lat="42.91724" lon="2.64002">
        <ele>309.2</ele>
        <time>2015-10-04T10:51:35Z</time>
      </trkpt>
      <trkpt lat="42.91738" lon="2.63993">
        <ele>309.2</ele>
        <time>2015-10-04T10:51:36Z</time>
      </trkpt>
      <trkpt lat="42.91753" lon="2.63983">
        <ele>308.72</ele>
        <time>2015-10-04T10:51:37Z</time>
      </trkpt>
      <trkpt lat="42.91768" lon="2.63971">
        <ele>307.76</ele>
        <time>2015-10-04T10:51:38Z</time>
      </trkpt>
      <trkpt lat="42.91781" lon="2.63957">
        <ele>307.76</ele>
        <time>2015-10-04T10:51:39Z</time>
      </trkpt>
      <trkpt lat="42.91794" lon="2.63945">
        <ele>307.28</ele>
        <time>2015-10-04T10:51:40Z</time>
      </trkpt>
      <trkpt lat="42.91817" lon="2.6392">
        <ele>307.28</ele>
        <time>2015-10-04T10:51:42Z</time>
      </trkpt>
      <trkpt lat="42.91827" lon="2.63904">
        <ele>306.8</ele>
        <time>2015-10-04T10:51:43Z</time>
      </trkpt>
      <trkpt lat="42.91836" lon="2.63884">
        <ele>307.76</ele>
        <time>2015-10-04T10:51:44Z</time>
      </trkpt>
      <trkpt lat="42.91899" lon="2.63767">
        <ele>309.68</ele>
        <time>2015-10-04T10:51:49Z</time>
      </trkpt>
      <trkpt lat="42.9196" lon="2.63699">
        <ele>311.12</ele>
        <time>2015-10-04T10:51:53Z</time>
      </trkpt>
      <trkpt lat="42.91974" lon="2.6369">
        <ele>311.6</ele>
        <time>2015-10-04T10:51:54Z</time>
      </trkpt>
      <trkpt lat="42.91988" lon="2.63683">
        <ele>311.6</ele>
        <time>2015-10-04T10:51:55Z</time>
      </trkpt>
      <trkpt lat="42.92016" lon="2.6367">
        <ele>312.09</ele>
        <time>2015-10-04T10:51:57Z</time>
      </trkpt>
      <trkpt lat="42.9203" lon="2.63656">
        <ele>312.09</ele>
        <time>2015-10-04T10:51:58Z</time>
      </trkpt>
      <trkpt lat="42.92113" lon="2.63553">
        <ele>313.05</ele>
        <time>2015-10-04T10:52:05Z</time>
      </trkpt>
      <trkpt lat="42.92123" lon="2.63549">
        <ele>313.05</ele>
        <time>2015-10-04T10:52:06Z</time>
      </trkpt>
      <trkpt lat="42.92134" lon="2.6355">
        <ele>313.05</ele>
        <time>2015-10-04T10:52:07Z</time>
      </trkpt>
      <trkpt lat="42.92147" lon="2.63554">
        <ele>313.05</ele>
        <time>2015-10-04T10:52:08Z</time>
      </trkpt>
      <trkpt lat="42.92161" lon="2.63561">
        <ele>313.53</ele>
        <time>2015-10-04T10:52:09Z</time>
      </trkpt>
      <trkpt lat="42.92175" lon="2.63568">
        <ele>313.53</ele>
        <time>2015-10-04T10:52:10Z</time>
      </trkpt>
      <trkpt lat="42.92247" lon="2.636">
        <ele>313.05</ele>
        <time>2015-10-04T10:52:15Z</time>
      </trkpt>
      <trkpt lat="42.92259" lon="2.63611">
        <ele>313.53</ele>
        <time>2015-10-04T10:52:16Z</time>
      </trkpt>
      <trkpt lat="42.92342" lon="2.6369">
        <ele>311.6</ele>
        <time>2015-10-04T10:52:23Z</time>
      </trkpt>
      <trkpt lat="42.92351" lon="2.63702">
        <ele>311.6</ele>
        <time>2015-10-04T10:52:24Z</time>
      </trkpt>
      <trkpt lat="42.92355" lon="2.63714">
        <ele>310.64</ele>
        <time>2015-10-04T10:52:25Z</time>
      </trkpt>
      <trkpt lat="42.92358" lon="2.63728">
        <ele>311.6</ele>
        <time>2015-10-04T10:52:26Z</time>
      </trkpt>
      <trkpt lat="42.92358" lon="2.63744">
        <ele>312.57</ele>
        <time>2015-10-04T10:52:27Z</time>
      </trkpt>
      <trkpt lat="42.92358" lon="2.6376">
        <ele>313.05</ele>
        <time>2015-10-04T10:52:28Z</time>
      </trkpt>
      <trkpt lat="42.92359" lon="2.63803">
        <ele>314.01</ele>
        <time>2015-10-04T10:52:31Z</time>
      </trkpt>
      <trkpt lat="42.92362" lon="2.63813">
        <ele>313.53</ele>
        <time>2015-10-04T10:52:32Z</time>
      </trkpt>
      <trkpt lat="42.9237" lon="2.63821">
        <ele>313.53</ele>
        <time>2015-10-04T10:52:33Z</time>
      </trkpt>
      <trkpt lat="42.92379" lon="2.63823">
        <ele>313.53</ele>
        <time>2015-10-04T10:52:34Z</time>
      </trkpt>
      <trkpt lat="42.9239" lon="2.6382">
        <ele>313.53</ele>
        <time>2015-10-04T10:52:35Z</time>
      </trkpt>
      <trkpt lat="42.92401" lon="2.63813">
        <ele>313.53</ele>
        <time>2015-10-04T10:52:36Z</time>
      </trkpt>
      <trkpt lat="42.92412" lon="2.63803">
        <ele>313.05</ele>
        <time>2015-10-04T10:52:37Z</time>
      </trkpt>
      <trkpt lat="42.9242" lon="2.63789">
        <ele>312.57</ele>
        <time>2015-10-04T10:52:38Z</time>
      </trkpt>
      <trkpt lat="42.92427" lon="2.63773">
        <ele>312.09</ele>
        <time>2015-10-04T10:52:39Z</time>
      </trkpt>
      <trkpt lat="42.92433" lon="2.63756">
        <ele>312.09</ele>
        <time>2015-10-04T10:52:40Z</time>
      </trkpt>
      <trkpt lat="42.92437" lon="2.6374">
        <ele>311.12</ele>
        <time>2015-10-04T10:52:41Z</time>
      </trkpt>
      <trkpt lat="42.92442" lon="2.63723">
        <ele>311.12</ele>
        <time>2015-10-04T10:52:42Z</time>
      </trkpt>
      <trkpt lat="42.92448" lon="2.63706">
        <ele>311.12</ele>
        <time>2015-10-04T10:52:43Z</time>
      </trkpt>
      <trkpt lat="42.92455" lon="2.6369">
        <ele>310.64</ele>
        <time>2015-10-04T10:52:44Z</time>
      </trkpt>
      <trkpt lat="42.92464" lon="2.63675">
        <ele>311.12</ele>
        <time>2015-10-04T10:52:45Z</time>
      </trkpt>
      <trkpt lat="42.92476" lon="2.63662">
        <ele>311.12</ele>
        <time>2015-10-04T10:52:46Z</time>
      </trkpt>
      <trkpt lat="42.92488" lon="2.63649">
        <ele>312.09</ele>
        <time>2015-10-04T10:52:47Z</time>
      </trkpt>
      <trkpt lat="42.92587" lon="2.63504">
        <ele>310.64</ele>
        <time>2015-10-04T10:52:57Z</time>
      </trkpt>
      <trkpt lat="42.92611" lon="2.63446">
        <ele>309.68</ele>
        <time>2015-10-04T10:53:01Z</time>
      </trkpt>
      <trkpt lat="42.92619" lon="2.63435">
        <ele>310.16</ele>
        <time>2015-10-04T10:53:02Z</time>
      </trkpt>
      <trkpt lat="42.92627" lon="2.63428">
        <ele>310.16</ele>
        <time>2015-10-04T10:53:03Z</time>
      </trkpt>
      <trkpt lat="42.92636" lon="2.63424">
        <ele>310.16</ele>
        <time>2015-10-04T10:53:04Z</time>
      </trkpt>
      <trkpt lat="42.92644" lon="2.63423">
        <ele>310.64</ele>
        <time>2015-10-04T10:53:05Z</time>
      </trkpt>
      <trkpt lat="42.92652" lon="2.6343">
        <ele>310.16</ele>
        <time>2015-10-04T10:53:06Z</time>
      </trkpt>
      <trkpt lat="42.92657" lon="2.63441">
        <ele>310.16</ele>
        <time>2015-10-04T10:53:07Z</time>
      </trkpt>
      <trkpt lat="42.9266" lon="2.63453">
        <ele>310.16</ele>
        <time>2015-10-04T10:53:08Z</time>
      </trkpt>
      <trkpt lat="42.92661" lon="2.63466">
        <ele>310.64</ele>
        <time>2015-10-04T10:53:09Z</time>
      </trkpt>
      <trkpt lat="42.9266" lon="2.6348">
        <ele>311.12</ele>
        <time>2015-10-04T10:53:10Z</time>
      </trkpt>
      <trkpt lat="42.9266" lon="2.63491">
        <ele>311.6</ele>
        <time>2015-10-04T10:53:11Z</time>
      </trkpt>
      <trkpt lat="42.92662" lon="2.63502">
        <ele>311.6</ele>
        <time>2015-10-04T10:53:12Z</time>
      </trkpt>
      <trkpt lat="42.92666" lon="2.63511">
        <ele>312.09</ele>
        <time>2015-10-04T10:53:13Z</time>
      </trkpt>
      <trkpt lat="42.92672" lon="2.63518">
        <ele>313.05</ele>
        <time>2015-10-04T10:53:14Z</time>
      </trkpt>
      <trkpt lat="42.92681" lon="2.6352">
        <ele>313.05</ele>
        <time>2015-10-04T10:53:15Z</time>
      </trkpt>
      <trkpt lat="42.92692" lon="2.63521">
        <ele>313.05</ele>
        <time>2015-10-04T10:53:16Z</time>
      </trkpt>
      <trkpt lat="42.92701" lon="2.6352">
        <ele>313.05</ele>
        <time>2015-10-04T10:53:17Z</time>
      </trkpt>
      <trkpt lat="42.9271" lon="2.63519">
        <ele>313.53</ele>
        <time>2015-10-04T10:53:18Z</time>
      </trkpt>
      <trkpt lat="42.92717" lon="2.63516">
        <ele>313.53</ele>
        <time>2015-10-04T10:53:19Z</time>
      </trkpt>
      <trkpt lat="42.92723" lon="2.63512">
        <ele>313.53</ele>
        <time>2015-10-04T10:53:20Z</time>
      </trkpt>
      <trkpt lat="42.92726" lon="2.63508">
        <ele>313.53</ele>
        <time>2015-10-04T10:53:21Z</time>
      </trkpt>
      <trkpt lat="42.92729" lon="2.63505">
        <ele>314.01</ele>
        <time>2015-10-04T10:53:22Z</time>
      </trkpt>
      <trkpt lat="42.92729" lon="2.63502">
        <ele>314.01</ele>
        <time>2015-10-04T10:53:23Z</time>
      </trkpt>
      <trkpt lat="42.92729" lon="2.635">
        <ele>313.05</ele>
        <time>2015-10-04T10:53:24Z</time>
      </trkpt>
      <trkpt lat="42.92728" lon="2.63497">
        <ele>312.57</ele>
        <time>2015-10-04T10:53:25Z</time>
      </trkpt>
      <trkpt lat="42.92726" lon="2.63493">
        <ele>312.09</ele>
        <time>2015-10-04T10:53:26Z</time>
      </trkpt>
      <trkpt lat="42.92723" lon="2.63489">
        <ele>312.09</ele>
        <time>2015-10-04T10:53:27Z</time>
      </trkpt>
      <trkpt lat="42.92719" lon="2.63486">
        <ele>312.09</ele>
        <time>2015-10-04T10:53:28Z</time>
      </trkpt>
      <trkpt lat="42.92716" lon="2.63484">
        <ele>312.57</ele>
        <time>2015-10-04T10:53:29Z</time>
      </trkpt>
      <trkpt lat="42.92714" lon="2.63484">
        <ele>313.05</ele>
        <time>2015-10-04T10:53:30Z</time>
      </trkpt>
      <trkpt lat="42.92712" lon="2.63485">
        <ele>314.97</ele>
        <time>2015-10-04T10:53:50Z</time>
      </trkpt>
      <trkpt lat="42.92707" lon="2.63485">
        <ele>314.97</ele>
        <time>2015-10-04T10:54:05Z</time>
      </trkpt>
      <trkpt lat="42.92694" lon="2.63484">
        <ele>314.97</ele>
        <time>2015-10-04T10:54:07Z</time>
      </trkpt>
      <trkpt lat="42.92689" lon="2.63479">
        <ele>314.97</ele>
        <time>2015-10-04T10:54:08Z</time>
      </trkpt>
      <trkpt lat="42.92686" lon="2.63472">
        <ele>314.97</ele>
        <time>2015-10-04T10:54:09Z</time>
      </trkpt>
      <trkpt lat="42.92686" lon="2.63461">
        <ele>314.49</ele>
        <time>2015-10-04T10:54:10Z</time>
      </trkpt>
      <trkpt lat="42.92687" lon="2.63448">
        <ele>314.49</ele>
        <time>2015-10-04T10:54:11Z</time>
      </trkpt>
      <trkpt lat="42.92689" lon="2.63433">
        <ele>314.01</ele>
        <time>2015-10-04T10:54:12Z</time>
      </trkpt>
      <trkpt lat="42.92697" lon="2.63325">
        <ele>315.93</ele>
        <time>2015-10-04T10:54:21Z</time>
      </trkpt>
      <trkpt lat="42.92696" lon="2.63314">
        <ele>316.41</ele>
        <time>2015-10-04T10:54:22Z</time>
      </trkpt>
      <trkpt lat="42.92695" lon="2.63303">
        <ele>316.41</ele>
        <time>2015-10-04T10:54:23Z</time>
      </trkpt>
      <trkpt lat="42.92695" lon="2.6329">
        <ele>316.89</ele>
        <time>2015-10-04T10:54:24Z</time>
      </trkpt>
      <trkpt lat="42.92696" lon="2.63276">
        <ele>316.89</ele>
        <time>2015-10-04T10:54:25Z</time>
      </trkpt>
      <trkpt lat="42.92698" lon="2.63263">
        <ele>319.3</ele>
        <time>2015-10-04T10:54:26Z</time>
      </trkpt>
      <trkpt lat="42.927" lon="2.6325">
        <ele>319.78</ele>
        <time>2015-10-04T10:54:27Z</time>
      </trkpt>
      <trkpt lat="42.92707" lon="2.63128">
        <ele>319.78</ele>
        <time>2015-10-04T10:54:36Z</time>
      </trkpt>
      <trkpt lat="42.92713" lon="2.63112">
        <ele>319.78</ele>
        <time>2015-10-04T10:54:37Z</time>
      </trkpt>
      <trkpt lat="42.92771" lon="2.62948">
        <ele>319.78</ele>
        <time>2015-10-04T10:54:47Z</time>
      </trkpt>
      <trkpt lat="42.92804" lon="2.62876">
        <ele>318.81</ele>
        <time>2015-10-04T10:54:51Z</time>
      </trkpt>
      <trkpt lat="42.92887" lon="2.62725">
        <ele>318.33</ele>
        <time>2015-10-04T10:55:00Z</time>
      </trkpt>
      <trkpt lat="42.92893" lon="2.62706">
        <ele>317.85</ele>
        <time>2015-10-04T10:55:01Z</time>
      </trkpt>
      <trkpt lat="42.92896" lon="2.62686">
        <ele>317.85</ele>
        <time>2015-10-04T10:55:02Z</time>
      </trkpt>
      <trkpt lat="42.92916" lon="2.62603">
        <ele>317.37</ele>
        <time>2015-10-04T10:55:06Z</time>
      </trkpt>
      <trkpt lat="42.92925" lon="2.62585">
        <ele>317.37</ele>
        <time>2015-10-04T10:55:07Z</time>
      </trkpt>
      <trkpt lat="42.92935" lon="2.62569">
        <ele>317.37</ele>
        <time>2015-10-04T10:55:08Z</time>
      </trkpt>
      <trkpt lat="42.92946" lon="2.62554">
        <ele>317.37</ele>
        <time>2015-10-04T10:55:09Z</time>
      </trkpt>
      <trkpt lat="42.92958" lon="2.6254">
        <ele>317.37</ele>
        <time>2015-10-04T10:55:10Z</time>
      </trkpt>
      <trkpt lat="42.9297" lon="2.62527">
        <ele>317.37</ele>
        <time>2015-10-04T10:55:11Z</time>
      </trkpt>
      <trkpt lat="42.9298" lon="2.62512">
        <ele>317.37</ele>
        <time>2015-10-04T10:55:12Z</time>
      </trkpt>
      <trkpt lat="42.92988" lon="2.62496">
        <ele>317.85</ele>
        <time>2015-10-04T10:55:13Z</time>
      </trkpt>
      <trkpt lat="42.92994" lon="2.6248">
        <ele>317.85</ele>
        <time>2015-10-04T10:55:14Z</time>
      </trkpt>
      <trkpt lat="42.93" lon="2.62464">
        <ele>317.85</ele>
        <time>2015-10-04T10:55:15Z</time>
      </trkpt>
      <trkpt lat="42.93008" lon="2.62452">
        <ele>318.33</ele>
        <time>2015-10-04T10:55:16Z</time>
      </trkpt>
      <trkpt lat="42.93019" lon="2.62442">
        <ele>318.81</ele>
        <time>2015-10-04T10:55:17Z</time>
      </trkpt>
      <trkpt lat="42.93032" lon="2.62434">
        <ele>318.81</ele>
        <time>2015-10-04T10:55:18Z</time>
      </trkpt>
      <trkpt lat="42.93045" lon="2.62428">
        <ele>319.3</ele>
        <time>2015-10-04T10:55:19Z</time>
      </trkpt>
      <trkpt lat="42.93074" lon="2.62413">
        <ele>319.3</ele>
        <time>2015-10-04T10:55:21Z</time>
      </trkpt>
      <trkpt lat="42.93088" lon="2.62401">
        <ele>319.3</ele>
        <time>2015-10-04T10:55:22Z</time>
      </trkpt>
      <trkpt lat="42.93146" lon="2.62348">
        <ele>320.26</ele>
        <time>2015-10-04T10:55:26Z</time>
      </trkpt>
      <trkpt lat="42.93162" lon="2.62338">
        <ele>320.74</ele>
        <time>2015-10-04T10:55:27Z</time>
      </trkpt>
      <trkpt lat="42.93179" lon="2.62332">
        <ele>320.74</ele>
        <time>2015-10-04T10:55:28Z</time>
      </trkpt>
      <trkpt lat="42.93196" lon="2.62325">
        <ele>320.74</ele>
        <time>2015-10-04T10:55:29Z</time>
      </trkpt>
      <trkpt lat="42.93213" lon="2.62316">
        <ele>321.22</ele>
        <time>2015-10-04T10:55:30Z</time>
      </trkpt>
      <trkpt lat="42.9323" lon="2.62306">
        <ele>321.22</ele>
        <time>2015-10-04T10:55:31Z</time>
      </trkpt>
      <trkpt lat="42.93305" lon="2.62268">
        <ele>323.14</ele>
        <time>2015-10-04T10:55:36Z</time>
      </trkpt>
      <trkpt lat="42.93316" lon="2.62256">
        <ele>323.62</ele>
        <time>2015-10-04T10:55:37Z</time>
      </trkpt>
      <trkpt lat="42.93326" lon="2.62242">
        <ele>323.62</ele>
        <time>2015-10-04T10:55:38Z</time>
      </trkpt>
      <trkpt lat="42.93335" lon="2.62225">
        <ele>324.1</ele>
        <time>2015-10-04T10:55:39Z</time>
      </trkpt>
      <trkpt lat="42.93343" lon="2.62207">
        <ele>324.1</ele>
        <time>2015-10-04T10:55:40Z</time>
      </trkpt>
      <trkpt lat="42.9335" lon="2.62188">
        <ele>324.58</ele>
        <time>2015-10-04T10:55:41Z</time>
      </trkpt>
      <trkpt lat="42.93356" lon="2.62169">
        <ele>325.06</ele>
        <time>2015-10-04T10:55:42Z</time>
      </trkpt>
      <trkpt lat="42.93361" lon="2.62149">
        <ele>325.06</ele>
        <time>2015-10-04T10:55:43Z</time>
      </trkpt>
      <trkpt lat="42.93377" lon="2.62094">
        <ele>326.02</ele>
        <time>2015-10-04T10:55:46Z</time>
      </trkpt>
      <trkpt lat="42.93386" lon="2.62078">
        <ele>326.02</ele>
        <time>2015-10-04T10:55:47Z</time>
      </trkpt>
      <trkpt lat="42.93398" lon="2.62066">
        <ele>326.5</ele>
        <time>2015-10-04T10:55:48Z</time>
      </trkpt>
      <trkpt lat="42.93413" lon="2.62057">
        <ele>326.99</ele>
        <time>2015-10-04T10:55:49Z</time>
      </trkpt>
      <trkpt lat="42.93429" lon="2.62051">
        <ele>326.99</ele>
        <time>2015-10-04T10:55:50Z</time>
      </trkpt>
      <trkpt lat="42.93446" lon="2.62048">
        <ele>327.47</ele>
        <time>2015-10-04T10:55:51Z</time>
      </trkpt>
      <trkpt lat="42.93462" lon="2.62047">
        <ele>327.47</ele>
        <time>2015-10-04T10:55:52Z</time>
      </trkpt>
      <trkpt lat="42.93477" lon="2.62046">
        <ele>327.47</ele>
        <time>2015-10-04T10:55:53Z</time>
      </trkpt>
      <trkpt lat="42.93531" lon="2.62043">
        <ele>328.43</ele>
        <time>2015-10-04T10:55:57Z</time>
      </trkpt>
      <trkpt lat="42.93542" lon="2.62033">
        <ele>328.43</ele>
        <time>2015-10-04T10:55:58Z</time>
      </trkpt>
      <trkpt lat="42.9355" lon="2.6202">
        <ele>328.91</ele>
        <time>2015-10-04T10:55:59Z</time>
      </trkpt>
      <trkpt lat="42.93556" lon="2.62003">
        <ele>329.39</ele>
        <time>2015-10-04T10:56:00Z</time>
      </trkpt>
      <trkpt lat="42.93563" lon="2.61984">
        <ele>329.87</ele>
        <time>2015-10-04T10:56:01Z</time>
      </trkpt>
      <trkpt lat="42.93569" lon="2.61964">
        <ele>330.35</ele>
        <time>2015-10-04T10:56:02Z</time>
      </trkpt>
      <trkpt lat="42.936" lon="2.61868">
        <ele>331.79</ele>
        <time>2015-10-04T10:56:07Z</time>
      </trkpt>
      <trkpt lat="42.93609" lon="2.61852">
        <ele>332.27</ele>
        <time>2015-10-04T10:56:08Z</time>
      </trkpt>
      <trkpt lat="42.9362" lon="2.61839">
        <ele>332.27</ele>
        <time>2015-10-04T10:56:09Z</time>
      </trkpt>
      <trkpt lat="42.93635" lon="2.61831">
        <ele>333.23</ele>
        <time>2015-10-04T10:56:10Z</time>
      </trkpt>
      <trkpt lat="42.9365" lon="2.61828">
        <ele>333.23</ele>
        <time>2015-10-04T10:56:11Z</time>
      </trkpt>
      <trkpt lat="42.93666" lon="2.61828">
        <ele>333.71</ele>
        <time>2015-10-04T10:56:12Z</time>
      </trkpt>
      <trkpt lat="42.93681" lon="2.61826">
        <ele>333.71</ele>
        <time>2015-10-04T10:56:13Z</time>
      </trkpt>
      <trkpt lat="42.93696" lon="2.6182">
        <ele>334.2</ele>
        <time>2015-10-04T10:56:14Z</time>
      </trkpt>
      <trkpt lat="42.93711" lon="2.61809">
        <ele>334.68</ele>
        <time>2015-10-04T10:56:15Z</time>
      </trkpt>
      <trkpt lat="42.93725" lon="2.61797">
        <ele>335.16</ele>
        <time>2015-10-04T10:56:16Z</time>
      </trkpt>
      <trkpt lat="42.93739" lon="2.61783">
        <ele>335.16</ele>
        <time>2015-10-04T10:56:17Z</time>
      </trkpt>
      <trkpt lat="42.93819" lon="2.61701">
        <ele>338.04</ele>
        <time>2015-10-04T10:56:23Z</time>
      </trkpt>
      <trkpt lat="42.93835" lon="2.61692">
        <ele>338.52</ele>
        <time>2015-10-04T10:56:24Z</time>
      </trkpt>
      <trkpt lat="42.9385" lon="2.61688">
        <ele>338.52</ele>
        <time>2015-10-04T10:56:25Z</time>
      </trkpt>
      <trkpt lat="42.93865" lon="2.61692">
        <ele>339</ele>
        <time>2015-10-04T10:56:26Z</time>
      </trkpt>
      <trkpt lat="42.9388" lon="2.61697">
        <ele>339.96</ele>
        <time>2015-10-04T10:56:27Z</time>
      </trkpt>
      <trkpt lat="42.93893" lon="2.617">
        <ele>340.44</ele>
        <time>2015-10-04T10:56:28Z</time>
      </trkpt>
      <trkpt lat="42.93905" lon="2.61699">
        <ele>340.92</ele>
        <time>2015-10-04T10:56:29Z</time>
      </trkpt>
      <trkpt lat="42.93917" lon="2.61693">
        <ele>341.41</ele>
        <time>2015-10-04T10:56:30Z</time>
      </trkpt>
      <trkpt lat="42.93927" lon="2.61689">
        <ele>341.89</ele>
        <time>2015-10-04T10:56:31Z</time>
      </trkpt>
      <trkpt lat="42.93937" lon="2.61688">
        <ele>342.37</ele>
        <time>2015-10-04T10:56:32Z</time>
      </trkpt>
      <trkpt lat="42.93947" lon="2.61688">
        <ele>342.85</ele>
        <time>2015-10-04T10:56:33Z</time>
      </trkpt>
      <trkpt lat="42.93956" lon="2.61684">
        <ele>343.81</ele>
        <time>2015-10-04T10:56:34Z</time>
      </trkpt>
      <trkpt lat="42.93966" lon="2.61676">
        <ele>343.81</ele>
        <time>2015-10-04T10:56:35Z</time>
      </trkpt>
      <trkpt lat="42.93973" lon="2.61665">
        <ele>343.81</ele>
        <time>2015-10-04T10:56:36Z</time>
      </trkpt>
      <trkpt lat="42.9398" lon="2.61651">
        <ele>343.81</ele>
        <time>2015-10-04T10:56:37Z</time>
      </trkpt>
      <trkpt lat="42.93987" lon="2.61636">
        <ele>344.29</ele>
        <time>2015-10-04T10:56:38Z</time>
      </trkpt>
      <trkpt lat="42.93995" lon="2.61621">
        <ele>344.77</ele>
        <time>2015-10-04T10:56:39Z</time>
      </trkpt>
      <trkpt lat="42.94005" lon="2.61607">
        <ele>344.77</ele>
        <time>2015-10-04T10:56:40Z</time>
      </trkpt>
      <trkpt lat="42.94016" lon="2.61594">
        <ele>344.77</ele>
        <time>2015-10-04T10:56:41Z</time>
      </trkpt>
      <trkpt lat="42.94028" lon="2.61584">
        <ele>345.25</ele>
        <time>2015-10-04T10:56:42Z</time>
      </trkpt>
      <trkpt lat="42.94043" lon="2.61577">
        <ele>345.73</ele>
        <time>2015-10-04T10:56:43Z</time>
      </trkpt>
      <trkpt lat="42.94058" lon="2.61575">
        <ele>346.21</ele>
        <time>2015-10-04T10:56:44Z</time>
      </trkpt>
      <trkpt lat="42.94073" lon="2.61573">
        <ele>347.17</ele>
        <time>2015-10-04T10:56:45Z</time>
      </trkpt>
      <trkpt lat="42.94089" lon="2.6157">
        <ele>347.65</ele>
        <time>2015-10-04T10:56:46Z</time>
      </trkpt>
      <trkpt lat="42.94105" lon="2.61562">
        <ele>348.13</ele>
        <time>2015-10-04T10:56:47Z</time>
      </trkpt>
      <trkpt lat="42.94155" lon="2.61536">
        <ele>349.1</ele>
        <time>2015-10-04T10:56:50Z</time>
      </trkpt>
      <trkpt lat="42.94172" lon="2.6153">
        <ele>349.1</ele>
        <time>2015-10-04T10:56:51Z</time>
      </trkpt>
      <trkpt lat="42.94202" lon="2.61522">
        <ele>350.54</ele>
        <time>2015-10-04T10:56:53Z</time>
      </trkpt>
      <trkpt lat="42.94216" lon="2.61514">
        <ele>351.5</ele>
        <time>2015-10-04T10:56:54Z</time>
      </trkpt>
      <trkpt lat="42.9423" lon="2.61502">
        <ele>351.98</ele>
        <time>2015-10-04T10:56:55Z</time>
      </trkpt>
      <trkpt lat="42.94269" lon="2.61473">
        <ele>353.42</ele>
        <time>2015-10-04T10:56:58Z</time>
      </trkpt>
      <trkpt lat="42.94281" lon="2.61469">
        <ele>354.38</ele>
        <time>2015-10-04T10:56:59Z</time>
      </trkpt>
      <trkpt lat="42.94295" lon="2.61469">
        <ele>355.34</ele>
        <time>2015-10-04T10:57:00Z</time>
      </trkpt>
      <trkpt lat="42.94309" lon="2.61472">
        <ele>355.34</ele>
        <time>2015-10-04T10:57:01Z</time>
      </trkpt>
      <trkpt lat="42.94323" lon="2.61477">
        <ele>356.31</ele>
        <time>2015-10-04T10:57:02Z</time>
      </trkpt>
      <trkpt lat="42.94337" lon="2.61482">
        <ele>357.27</ele>
        <time>2015-10-04T10:57:03Z</time>
      </trkpt>
      <trkpt lat="42.94351" lon="2.61489">
        <ele>358.23</ele>
        <time>2015-10-04T10:57:04Z</time>
      </trkpt>
      <trkpt lat="42.94366" lon="2.61496">
        <ele>359.67</ele>
        <time>2015-10-04T10:57:05Z</time>
      </trkpt>
      <trkpt lat="42.94381" lon="2.61499">
        <ele>361.11</ele>
        <time>2015-10-04T10:57:06Z</time>
      </trkpt>
      <trkpt lat="42.94396" lon="2.61501">
        <ele>362.07</ele>
        <time>2015-10-04T10:57:07Z</time>
      </trkpt>
      <trkpt lat="42.94412" lon="2.61505">
        <ele>363.04</ele>
        <time>2015-10-04T10:57:08Z</time>
      </trkpt>
      <trkpt lat="42.94427" lon="2.61511">
        <ele>364.48</ele>
        <time>2015-10-04T10:57:09Z</time>
      </trkpt>
      <trkpt lat="42.94482" lon="2.61549">
        <ele>368.8</ele>
        <time>2015-10-04T10:57:13Z</time>
      </trkpt>
      <trkpt lat="42.94495" lon="2.61562">
        <ele>369.76</ele>
        <time>2015-10-04T10:57:14Z</time>
      </trkpt>
      <trkpt lat="42.94537" lon="2.61619">
        <ele>373.13</ele>
        <time>2015-10-04T10:57:18Z</time>
      </trkpt>
      <trkpt lat="42.94543" lon="2.61638">
        <ele>374.09</ele>
        <time>2015-10-04T10:57:19Z</time>
      </trkpt>
      <trkpt lat="42.94547" lon="2.61659">
        <ele>375.05</ele>
        <time>2015-10-04T10:57:20Z</time>
      </trkpt>
      <trkpt lat="42.9455" lon="2.6168">
        <ele>376.01</ele>
        <time>2015-10-04T10:57:21Z</time>
      </trkpt>
      <trkpt lat="42.94551" lon="2.617">
        <ele>376.97</ele>
        <time>2015-10-04T10:57:22Z</time>
      </trkpt>
      <trkpt lat="42.94551" lon="2.61718">
        <ele>377.94</ele>
        <time>2015-10-04T10:57:23Z</time>
      </trkpt>
      <trkpt lat="42.94553" lon="2.61763">
        <ele>380.82</ele>
        <time>2015-10-04T10:57:26Z</time>
      </trkpt>
      <trkpt lat="42.94555" lon="2.61774">
        <ele>381.78</ele>
        <time>2015-10-04T10:57:27Z</time>
      </trkpt>
      <trkpt lat="42.94561" lon="2.6178">
        <ele>382.74</ele>
        <time>2015-10-04T10:57:28Z</time>
      </trkpt>
      <trkpt lat="42.9457" lon="2.61781">
        <ele>383.22</ele>
        <time>2015-10-04T10:57:29Z</time>
      </trkpt>
      <trkpt lat="42.94577" lon="2.61776">
        <ele>383.7</ele>
        <time>2015-10-04T10:57:30Z</time>
      </trkpt>
      <trkpt lat="42.94582" lon="2.61765">
        <ele>383.22</ele>
        <time>2015-10-04T10:57:31Z</time>
      </trkpt>
      <trkpt lat="42.94584" lon="2.61751">
        <ele>383.7</ele>
        <time>2015-10-04T10:57:32Z</time>
      </trkpt>
      <trkpt lat="42.94585" lon="2.61736">
        <ele>384.18</ele>
        <time>2015-10-04T10:57:33Z</time>
      </trkpt>
      <trkpt lat="42.94583" lon="2.61719">
        <ele>384.66</ele>
        <time>2015-10-04T10:57:34Z</time>
      </trkpt>
      <trkpt lat="42.94583" lon="2.61701">
        <ele>386.11</ele>
        <time>2015-10-04T10:57:35Z</time>
      </trkpt>
      <trkpt lat="42.94588" lon="2.6157">
        <ele>392.36</ele>
        <time>2015-10-04T10:57:43Z</time>
      </trkpt>
      <trkpt lat="42.94592" lon="2.61556">
        <ele>393.32</ele>
        <time>2015-10-04T10:57:44Z</time>
      </trkpt>
      <trkpt lat="42.946" lon="2.61546">
        <ele>394.28</ele>
        <time>2015-10-04T10:57:45Z</time>
      </trkpt>
      <trkpt lat="42.9461" lon="2.61539">
        <ele>395.24</ele>
        <time>2015-10-04T10:57:46Z</time>
      </trkpt>
      <trkpt lat="42.94622" lon="2.61535">
        <ele>396.68</ele>
        <time>2015-10-04T10:57:47Z</time>
      </trkpt>
      <trkpt lat="42.94636" lon="2.61531">
        <ele>398.12</ele>
        <time>2015-10-04T10:57:48Z</time>
      </trkpt>
      <trkpt lat="42.9465" lon="2.61529">
        <ele>399.08</ele>
        <time>2015-10-04T10:57:49Z</time>
      </trkpt>
      <trkpt lat="42.94676" lon="2.61527">
        <ele>401.49</ele>
        <time>2015-10-04T10:57:51Z</time>
      </trkpt>
      <trkpt lat="42.94687" lon="2.61531">
        <ele>402.93</ele>
        <time>2015-10-04T10:57:52Z</time>
      </trkpt>
      <trkpt lat="42.94698" lon="2.61542">
        <ele>402.93</ele>
        <time>2015-10-04T10:57:53Z</time>
      </trkpt>
      <trkpt lat="42.94705" lon="2.61553">
        <ele>403.41</ele>
        <time>2015-10-04T10:57:54Z</time>
      </trkpt>
      <trkpt lat="42.94711" lon="2.61561">
        <ele>403.41</ele>
        <time>2015-10-04T10:57:55Z</time>
      </trkpt>
      <trkpt lat="42.94717" lon="2.61565">
        <ele>403.89</ele>
        <time>2015-10-04T10:57:56Z</time>
      </trkpt>
      <trkpt lat="42.94725" lon="2.61562">
        <ele>404.37</ele>
        <time>2015-10-04T10:57:57Z</time>
      </trkpt>
      <trkpt lat="42.9473" lon="2.61553">
        <ele>404.85</ele>
        <time>2015-10-04T10:57:58Z</time>
      </trkpt>
      <trkpt lat="42.94734" lon="2.61541">
        <ele>405.33</ele>
        <time>2015-10-04T10:57:59Z</time>
      </trkpt>
      <trkpt lat="42.94736" lon="2.61528">
        <ele>405.81</ele>
        <time>2015-10-04T10:58:00Z</time>
      </trkpt>
      <trkpt lat="42.94737" lon="2.61514">
        <ele>406.29</ele>
        <time>2015-10-04T10:58:01Z</time>
      </trkpt>
      <trkpt lat="42.94739" lon="2.61499">
        <ele>407.74</ele>
        <time>2015-10-04T10:58:02Z</time>
      </trkpt>
      <trkpt lat="42.94742" lon="2.61486">
        <ele>408.22</ele>
        <time>2015-10-04T10:58:03Z</time>
      </trkpt>
      <trkpt lat="42.94748" lon="2.61475">
        <ele>408.7</ele>
        <time>2015-10-04T10:58:04Z</time>
      </trkpt>
      <trkpt lat="42.94756" lon="2.61466">
        <ele>409.18</ele>
        <time>2015-10-04T10:58:05Z</time>
      </trkpt>
      <trkpt lat="42.94767" lon="2.61461">
        <ele>410.14</ele>
        <time>2015-10-04T10:58:06Z</time>
      </trkpt>
      <trkpt lat="42.94779" lon="2.61461">
        <ele>411.1</ele>
        <time>2015-10-04T10:58:07Z</time>
      </trkpt>
      <trkpt lat="42.9479" lon="2.61468">
        <ele>411.58</ele>
        <time>2015-10-04T10:58:08Z</time>
      </trkpt>
      <trkpt lat="42.948" lon="2.61476">
        <ele>412.06</ele>
        <time>2015-10-04T10:58:09Z</time>
      </trkpt>
      <trkpt lat="42.94808" lon="2.61486">
        <ele>412.06</ele>
        <time>2015-10-04T10:58:10Z</time>
      </trkpt>
      <trkpt lat="42.94815" lon="2.61496">
        <ele>413.02</ele>
        <time>2015-10-04T10:58:11Z</time>
      </trkpt>
      <trkpt lat="42.9482" lon="2.61506">
        <ele>413.98</ele>
        <time>2015-10-04T10:58:12Z</time>
      </trkpt>
      <trkpt lat="42.94823" lon="2.61518">
        <ele>414.47</ele>
        <time>2015-10-04T10:58:13Z</time>
      </trkpt>
      <trkpt lat="42.94823" lon="2.6153">
        <ele>415.43</ele>
        <time>2015-10-04T10:58:14Z</time>
      </trkpt>
      <trkpt lat="42.94823" lon="2.6154">
        <ele>415.91</ele>
        <time>2015-10-04T10:58:15Z</time>
      </trkpt>
      <trkpt lat="42.94823" lon="2.61549">
        <ele>416.39</ele>
        <time>2015-10-04T10:58:16Z</time>
      </trkpt>
      <trkpt lat="42.94827" lon="2.61557">
        <ele>416.87</ele>
        <time>2015-10-04T10:58:17Z</time>
      </trkpt>
      <trkpt lat="42.94833" lon="2.6156">
        <ele>417.35</ele>
        <time>2015-10-04T10:58:18Z</time>
      </trkpt>
      <trkpt lat="42.9484" lon="2.61558">
        <ele>418.31</ele>
        <time>2015-10-04T10:58:19Z</time>
      </trkpt>
      <trkpt lat="42.94846" lon="2.6155">
        <ele>418.79</ele>
        <time>2015-10-04T10:58:20Z</time>
      </trkpt>
      <trkpt lat="42.9485" lon="2.61537">
        <ele>418.79</ele>
        <time>2015-10-04T10:58:21Z</time>
      </trkpt>
      <trkpt lat="42.94854" lon="2.61522">
        <ele>419.27</ele>
        <time>2015-10-04T10:58:22Z</time>
      </trkpt>
      <trkpt lat="42.94857" lon="2.61503">
        <ele>420.23</ele>
        <time>2015-10-04T10:58:23Z</time>
      </trkpt>
      <trkpt lat="42.94858" lon="2.61484">
        <ele>420.71</ele>
        <time>2015-10-04T10:58:24Z</time>
      </trkpt>
      <trkpt lat="42.94858" lon="2.61465">
        <ele>421.19</ele>
        <time>2015-10-04T10:58:25Z</time>
      </trkpt>
      <trkpt lat="42.94857" lon="2.61448">
        <ele>422.16</ele>
        <time>2015-10-04T10:58:26Z</time>
      </trkpt>
      <trkpt lat="42.94855" lon="2.61431">
        <ele>423.12</ele>
        <time>2015-10-04T10:58:27Z</time>
      </trkpt>
      <trkpt lat="42.94853" lon="2.61415">
        <ele>424.08</ele>
        <time>2015-10-04T10:58:28Z</time>
      </trkpt>
      <trkpt lat="42.9485" lon="2.61399">
        <ele>424.56</ele>
        <time>2015-10-04T10:58:29Z</time>
      </trkpt>
      <trkpt lat="42.94848" lon="2.61383">
        <ele>425.52</ele>
        <time>2015-10-04T10:58:30Z</time>
      </trkpt>
      <trkpt lat="42.94846" lon="2.61366">
        <ele>426</ele>
        <time>2015-10-04T10:58:31Z</time>
      </trkpt>
      <trkpt lat="42.94842" lon="2.61351">
        <ele>426.48</ele>
        <time>2015-10-04T10:58:32Z</time>
      </trkpt>
      <trkpt lat="42.94836" lon="2.61338">
        <ele>426.96</ele>
        <time>2015-10-04T10:58:33Z</time>
      </trkpt>
      <trkpt lat="42.94833" lon="2.61326">
        <ele>427.92</ele>
        <time>2015-10-04T10:58:34Z</time>
      </trkpt>
      <trkpt lat="42.94832" lon="2.61314">
        <ele>427.92</ele>
        <time>2015-10-04T10:58:35Z</time>
      </trkpt>
      <trkpt lat="42.94837" lon="2.61304">
        <ele>428.4</ele>
        <time>2015-10-04T10:58:36Z</time>
      </trkpt>
      <trkpt lat="42.94848" lon="2.61293">
        <ele>429.37</ele>
        <time>2015-10-04T10:58:37Z</time>
      </trkpt>
      <trkpt lat="42.9486" lon="2.61284">
        <ele>430.33</ele>
        <time>2015-10-04T10:58:38Z</time>
      </trkpt>
      <trkpt lat="42.94873" lon="2.61274">
        <ele>431.77</ele>
        <time>2015-10-04T10:58:39Z</time>
      </trkpt>
      <trkpt lat="42.94906" lon="2.61249">
        <ele>434.17</ele>
        <time>2015-10-04T10:58:42Z</time>
      </trkpt>
      <trkpt lat="42.94915" lon="2.61239">
        <ele>435.13</ele>
        <time>2015-10-04T10:58:43Z</time>
      </trkpt>
      <trkpt lat="42.94924" lon="2.61227">
        <ele>436.1</ele>
        <time>2015-10-04T10:58:44Z</time>
      </trkpt>
      <trkpt lat="42.94933" lon="2.61213">
        <ele>436.58</ele>
        <time>2015-10-04T10:58:45Z</time>
      </trkpt>
      <trkpt lat="42.94942" lon="2.61196">
        <ele>438.02</ele>
        <time>2015-10-04T10:58:46Z</time>
      </trkpt>
      <trkpt lat="42.94968" lon="2.61147">
        <ele>440.42</ele>
        <time>2015-10-04T10:58:49Z</time>
      </trkpt>
      <trkpt lat="42.94979" lon="2.61134">
        <ele>441.38</ele>
        <time>2015-10-04T10:58:50Z</time>
      </trkpt>
      <trkpt lat="42.94993" lon="2.61124">
        <ele>442.34</ele>
        <time>2015-10-04T10:58:51Z</time>
      </trkpt>
      <trkpt lat="42.95007" lon="2.61118">
        <ele>443.79</ele>
        <time>2015-10-04T10:58:52Z</time>
      </trkpt>
      <trkpt lat="42.95022" lon="2.61113">
        <ele>444.75</ele>
        <time>2015-10-04T10:58:53Z</time>
      </trkpt>
      <trkpt lat="42.95096" lon="2.61084">
        <ele>449.07</ele>
        <time>2015-10-04T10:58:59Z</time>
      </trkpt>
      <trkpt lat="42.95106" lon="2.61086">
        <ele>449.55</ele>
        <time>2015-10-04T10:59:00Z</time>
      </trkpt>
      <trkpt lat="42.95118" lon="2.61095">
        <ele>450.03</ele>
        <time>2015-10-04T10:59:01Z</time>
      </trkpt>
      <trkpt lat="42.95127" lon="2.61106">
        <ele>450.52</ele>
        <time>2015-10-04T10:59:02Z</time>
      </trkpt>
      <trkpt lat="42.95136" lon="2.61118">
        <ele>450.52</ele>
        <time>2015-10-04T10:59:03Z</time>
      </trkpt>
      <trkpt lat="42.95147" lon="2.61128">
        <ele>450.52</ele>
        <time>2015-10-04T10:59:04Z</time>
      </trkpt>
      <trkpt lat="42.95158" lon="2.61133">
        <ele>450.52</ele>
        <time>2015-10-04T10:59:05Z</time>
      </trkpt>
      <trkpt lat="42.95168" lon="2.61136">
        <ele>451</ele>
        <time>2015-10-04T10:59:06Z</time>
      </trkpt>
      <trkpt lat="42.95178" lon="2.61137">
        <ele>451</ele>
        <time>2015-10-04T10:59:07Z</time>
      </trkpt>
      <trkpt lat="42.95187" lon="2.61137">
        <ele>451</ele>
        <time>2015-10-04T10:59:08Z</time>
      </trkpt>
      <trkpt lat="42.95195" lon="2.61136">
        <ele>450.52</ele>
        <time>2015-10-04T10:59:09Z</time>
      </trkpt>
      <trkpt lat="42.95203" lon="2.61135">
        <ele>451</ele>
        <time>2015-10-04T10:59:10Z</time>
      </trkpt>
      <trkpt lat="42.95211" lon="2.61132">
        <ele>450.52</ele>
        <time>2015-10-04T10:59:11Z</time>
      </trkpt>
      <trkpt lat="42.95218" lon="2.61127">
        <ele>450.52</ele>
        <time>2015-10-04T10:59:12Z</time>
      </trkpt>
      <trkpt lat="42.95225" lon="2.61122">
        <ele>450.52</ele>
        <time>2015-10-04T10:59:13Z</time>
      </trkpt>
      <trkpt lat="42.95231" lon="2.61116">
        <ele>450.03</ele>
        <time>2015-10-04T10:59:14Z</time>
      </trkpt>
      <trkpt lat="42.95238" lon="2.61109">
        <ele>450.03</ele>
        <time>2015-10-04T10:59:15Z</time>
      </trkpt>
      <trkpt lat="42.95244" lon="2.61101">
        <ele>449.55</ele>
        <time>2015-10-04T10:59:16Z</time>
      </trkpt>
      <trkpt lat="42.9525" lon="2.61092">
        <ele>449.55</ele>
        <time>2015-10-04T10:59:17Z</time>
      </trkpt>
      <trkpt lat="42.95256" lon="2.61082">
        <ele>450.03</ele>
        <time>2015-10-04T10:59:18Z</time>
      </trkpt>
      <trkpt lat="42.95261" lon="2.61072">
        <ele>450.03</ele>
        <time>2015-10-04T10:59:19Z</time>
      </trkpt>
      <trkpt lat="42.9528" lon="2.61034">
        <ele>451</ele>
        <time>2015-10-04T10:59:23Z</time>
      </trkpt>
      <trkpt lat="42.95286" lon="2.61027">
        <ele>451</ele>
        <time>2015-10-04T10:59:24Z</time>
      </trkpt>
      <trkpt lat="42.95294" lon="2.61021">
        <ele>451.48</ele>
        <time>2015-10-04T10:59:25Z</time>
      </trkpt>
      <trkpt lat="42.95305" lon="2.61018">
        <ele>451.96</ele>
        <time>2015-10-04T10:59:26Z</time>
      </trkpt>
      <trkpt lat="42.95316" lon="2.61017">
        <ele>451.48</ele>
        <time>2015-10-04T10:59:27Z</time>
      </trkpt>
      <trkpt lat="42.95327" lon="2.61023">
        <ele>451.48</ele>
        <time>2015-10-04T10:59:28Z</time>
      </trkpt>
      <trkpt lat="42.95338" lon="2.61032">
        <ele>451.96</ele>
        <time>2015-10-04T10:59:29Z</time>
      </trkpt>
      <trkpt lat="42.95348" lon="2.61041">
        <ele>452.44</ele>
        <time>2015-10-04T10:59:30Z</time>
      </trkpt>
      <trkpt lat="42.95358" lon="2.61047">
        <ele>452.44</ele>
        <time>2015-10-04T10:59:31Z</time>
      </trkpt>
      <trkpt lat="42.9537" lon="2.61052">
        <ele>452.92</ele>
        <time>2015-10-04T10:59:32Z</time>
      </trkpt>
      <trkpt lat="42.95381" lon="2.61055">
        <ele>452.92</ele>
        <time>2015-10-04T10:59:33Z</time>
      </trkpt>
      <trkpt lat="42.95394" lon="2.61056">
        <ele>452.92</ele>
        <time>2015-10-04T10:59:34Z</time>
      </trkpt>
      <trkpt lat="42.95407" lon="2.61055">
        <ele>452.92</ele>
        <time>2015-10-04T10:59:35Z</time>
      </trkpt>
      <trkpt lat="42.9542" lon="2.61051">
        <ele>452.44</ele>
        <time>2015-10-04T10:59:36Z</time>
      </trkpt>
      <trkpt lat="42.95434" lon="2.61046">
        <ele>451.96</ele>
        <time>2015-10-04T10:59:37Z</time>
      </trkpt>
      <trkpt lat="42.95448" lon="2.6104">
        <ele>451</ele>
        <time>2015-10-04T10:59:38Z</time>
      </trkpt>
      <trkpt lat="42.95492" lon="2.61017">
        <ele>449.55</ele>
        <time>2015-10-04T10:59:41Z</time>
      </trkpt>
      <trkpt lat="42.95506" lon="2.61005">
        <ele>448.59</ele>
        <time>2015-10-04T10:59:42Z</time>
      </trkpt>
      <trkpt lat="42.95534" lon="2.60983">
        <ele>447.63</ele>
        <time>2015-10-04T10:59:44Z</time>
      </trkpt>
      <trkpt lat="42.95549" lon="2.60975">
        <ele>446.67</ele>
        <time>2015-10-04T10:59:45Z</time>
      </trkpt>
      <trkpt lat="42.95563" lon="2.6097">
        <ele>446.67</ele>
        <time>2015-10-04T10:59:46Z</time>
      </trkpt>
      <trkpt lat="42.95578" lon="2.60969">
        <ele>445.71</ele>
        <time>2015-10-04T10:59:47Z</time>
      </trkpt>
      <trkpt lat="42.95592" lon="2.60969">
        <ele>444.75</ele>
        <time>2015-10-04T10:59:48Z</time>
      </trkpt>
      <trkpt lat="42.95606" lon="2.6097">
        <ele>443.79</ele>
        <time>2015-10-04T10:59:49Z</time>
      </trkpt>
      <trkpt lat="42.95632" lon="2.60972">
        <ele>441.38</ele>
        <time>2015-10-04T10:59:51Z</time>
      </trkpt>
      <trkpt lat="42.95643" lon="2.6097">
        <ele>440.42</ele>
        <time>2015-10-04T10:59:52Z</time>
      </trkpt>
      <trkpt lat="42.95655" lon="2.60965">
        <ele>438.98</ele>
        <time>2015-10-04T10:59:53Z</time>
      </trkpt>
      <trkpt lat="42.95665" lon="2.60956">
        <ele>438.02</ele>
        <time>2015-10-04T10:59:54Z</time>
      </trkpt>
      <trkpt lat="42.95675" lon="2.60946">
        <ele>437.06</ele>
        <time>2015-10-04T10:59:55Z</time>
      </trkpt>
      <trkpt lat="42.95684" lon="2.60934">
        <ele>436.1</ele>
        <time>2015-10-04T10:59:56Z</time>
      </trkpt>
      <trkpt lat="42.95725" lon="2.60873">
        <ele>432.25</ele>
        <time>2015-10-04T11:00:01Z</time>
      </trkpt>
      <trkpt lat="42.9573" lon="2.60858">
        <ele>431.77</ele>
        <time>2015-10-04T11:00:02Z</time>
      </trkpt>
      <trkpt lat="42.95751" lon="2.60786">
        <ele>427.92</ele>
        <time>2015-10-04T11:00:06Z</time>
      </trkpt>
      <trkpt lat="42.95754" lon="2.60766">
        <ele>426.96</ele>
        <time>2015-10-04T11:00:07Z</time>
      </trkpt>
      <trkpt lat="42.95771" lon="2.60607">
        <ele>417.83</ele>
        <time>2015-10-04T11:00:15Z</time>
      </trkpt>
      <trkpt lat="42.9577" lon="2.60594">
        <ele>416.87</ele>
        <time>2015-10-04T11:00:16Z</time>
      </trkpt>
      <trkpt lat="42.95769" lon="2.6057">
        <ele>415.91</ele>
        <time>2015-10-04T11:00:18Z</time>
      </trkpt>
      <trkpt lat="42.95771" lon="2.60561">
        <ele>414.95</ele>
        <time>2015-10-04T11:00:19Z</time>
      </trkpt>
      <trkpt lat="42.95776" lon="2.60557">
        <ele>414.47</ele>
        <time>2015-10-04T11:00:20Z</time>
      </trkpt>
      <trkpt lat="42.95783" lon="2.60559">
        <ele>413.98</ele>
        <time>2015-10-04T11:00:21Z</time>
      </trkpt>
      <trkpt lat="42.9579" lon="2.60566">
        <ele>413.02</ele>
        <time>2015-10-04T11:00:22Z</time>
      </trkpt>
      <trkpt lat="42.95795" lon="2.60579">
        <ele>412.54</ele>
        <time>2015-10-04T11:00:23Z</time>
      </trkpt>
      <trkpt lat="42.95798" lon="2.60592">
        <ele>412.54</ele>
        <time>2015-10-04T11:00:24Z</time>
      </trkpt>
      <trkpt lat="42.95801" lon="2.60604">
        <ele>412.06</ele>
        <time>2015-10-04T11:00:25Z</time>
      </trkpt>
      <trkpt lat="42.95817" lon="2.60662">
        <ele>409.66</ele>
        <time>2015-10-04T11:00:30Z</time>
      </trkpt>
      <trkpt lat="42.95822" lon="2.60674">
        <ele>408.7</ele>
        <time>2015-10-04T11:00:31Z</time>
      </trkpt>
      <trkpt lat="42.95828" lon="2.60685">
        <ele>408.22</ele>
        <time>2015-10-04T11:00:32Z</time>
      </trkpt>
      <trkpt lat="42.95836" lon="2.60695">
        <ele>407.74</ele>
        <time>2015-10-04T11:00:33Z</time>
      </trkpt>
      <trkpt lat="42.95845" lon="2.60703">
        <ele>406.77</ele>
        <time>2015-10-04T11:00:34Z</time>
      </trkpt>
      <trkpt lat="42.95854" lon="2.60709">
        <ele>406.29</ele>
        <time>2015-10-04T11:00:35Z</time>
      </trkpt>
      <trkpt lat="42.95864" lon="2.60713">
        <ele>405.33</ele>
        <time>2015-10-04T11:00:36Z</time>
      </trkpt>
      <trkpt lat="42.95874" lon="2.60715">
        <ele>404.85</ele>
        <time>2015-10-04T11:00:37Z</time>
      </trkpt>
      <trkpt lat="42.95883" lon="2.60714">
        <ele>404.37</ele>
        <time>2015-10-04T11:00:38Z</time>
      </trkpt>
      <trkpt lat="42.95891" lon="2.60712">
        <ele>403.41</ele>
        <time>2015-10-04T11:00:39Z</time>
      </trkpt>
      <trkpt lat="42.95899" lon="2.6071">
        <ele>402.93</ele>
        <time>2015-10-04T11:00:40Z</time>
      </trkpt>
      <trkpt lat="42.95931" lon="2.607">
        <ele>400.53</ele>
        <time>2015-10-04T11:00:46Z</time>
      </trkpt>
      <trkpt lat="42.95959" lon="2.60688">
        <ele>401.49</ele>
        <time>2015-10-04T11:00:58Z</time>
      </trkpt>
      <trkpt lat="42.95964" lon="2.60681">
        <ele>399.57</ele>
        <time>2015-10-04T11:01:10Z</time>
      </trkpt>
      <trkpt lat="42.95969" lon="2.60673">
        <ele>397.64</ele>
        <time>2015-10-04T11:01:42Z</time>
      </trkpt>
      <trkpt lat="42.95977" lon="2.60666">
        <ele>398.6</ele>
        <time>2015-10-04T11:01:45Z</time>
      </trkpt>
      <trkpt lat="42.95977" lon="2.60664">
        <ele>398.6</ele>
        <time>2015-10-04T11:01:46Z</time>
      </trkpt>
      <trkpt lat="42.95977" lon="2.60661">
        <ele>399.08</ele>
        <time>2015-10-04T11:01:47Z</time>
      </trkpt>
      <trkpt lat="42.95975" lon="2.60659">
        <ele>398.6</ele>
        <time>2015-10-04T11:01:48Z</time>
      </trkpt>
      <trkpt lat="42.95974" lon="2.60658">
        <ele>398.6</ele>
        <time>2015-10-04T11:01:49Z</time>
      </trkpt>
      <trkpt lat="42.95973" lon="2.60659">
        <ele>398.12</ele>
        <time>2015-10-04T11:01:50Z</time>
      </trkpt>
      <trkpt lat="42.95972" lon="2.60663">
        <ele>398.6</ele>
        <time>2015-10-04T11:02:04Z</time>
      </trkpt>
      <trkpt lat="42.95971" lon="2.60667">
        <ele>398.6</ele>
        <time>2015-10-04T11:02:05Z</time>
      </trkpt>
      <trkpt lat="42.95969" lon="2.60672">
        <ele>398.6</ele>
        <time>2015-10-04T11:02:06Z</time>
      </trkpt>
      <trkpt lat="42.95966" lon="2.60677">
        <ele>398.6</ele>
        <time>2015-10-04T11:02:07Z</time>
      </trkpt>
      <trkpt lat="42.95962" lon="2.60682">
        <ele>398.6</ele>
        <time>2015-10-04T11:02:08Z</time>
      </trkpt>
      <trkpt lat="42.95922" lon="2.60745">
        <ele>400.53</ele>
        <time>2015-10-04T11:02:16Z</time>
      </trkpt>
      <trkpt lat="42.95917" lon="2.60756">
        <ele>400.53</ele>
        <time>2015-10-04T11:02:17Z</time>
      </trkpt>
      <trkpt lat="42.95889" lon="2.60854">
        <ele>400.53</ele>
        <time>2015-10-04T11:02:27Z</time>
      </trkpt>
      <trkpt lat="42.9587" lon="2.60939">
        <ele>401.01</ele>
        <time>2015-10-04T11:02:34Z</time>
      </trkpt>
      <trkpt lat="42.9587" lon="2.60956">
        <ele>401.01</ele>
        <time>2015-10-04T11:02:35Z</time>
      </trkpt>
      <trkpt lat="42.9587" lon="2.60973">
        <ele>401.01</ele>
        <time>2015-10-04T11:02:36Z</time>
      </trkpt>
      <trkpt lat="42.95872" lon="2.61005">
        <ele>401.01</ele>
        <time>2015-10-04T11:02:38Z</time>
      </trkpt>
      <trkpt lat="42.95875" lon="2.61019">
        <ele>401.01</ele>
        <time>2015-10-04T11:02:39Z</time>
      </trkpt>
      <trkpt lat="42.95884" lon="2.61031">
        <ele>401.01</ele>
        <time>2015-10-04T11:02:40Z</time>
      </trkpt>
      <trkpt lat="42.95895" lon="2.61042">
        <ele>401.49</ele>
        <time>2015-10-04T11:02:41Z</time>
      </trkpt>
      <trkpt lat="42.95907" lon="2.61052">
        <ele>402.45</ele>
        <time>2015-10-04T11:02:42Z</time>
      </trkpt>
      <trkpt lat="42.95919" lon="2.61064">
        <ele>402.93</ele>
        <time>2015-10-04T11:02:43Z</time>
      </trkpt>
      <trkpt lat="42.95929" lon="2.61079">
        <ele>403.41</ele>
        <time>2015-10-04T11:02:44Z</time>
      </trkpt>
      <trkpt lat="42.95938" lon="2.61095">
        <ele>404.37</ele>
        <time>2015-10-04T11:02:45Z</time>
      </trkpt>
      <trkpt lat="42.95946" lon="2.61113">
        <ele>404.85</ele>
        <time>2015-10-04T11:02:46Z</time>
      </trkpt>
      <trkpt lat="42.95953" lon="2.61132">
        <ele>405.81</ele>
        <time>2015-10-04T11:02:47Z</time>
      </trkpt>
      <trkpt lat="42.96033" lon="2.61345">
        <ele>404.85</ele>
        <time>2015-10-04T11:02:58Z</time>
      </trkpt>
      <trkpt lat="42.96053" lon="2.61406">
        <ele>401.01</ele>
        <time>2015-10-04T11:03:01Z</time>
      </trkpt>
      <trkpt lat="42.96062" lon="2.61426">
        <ele>399.57</ele>
        <time>2015-10-04T11:03:02Z</time>
      </trkpt>
      <trkpt lat="42.961" lon="2.61497">
        <ele>395.72</ele>
        <time>2015-10-04T11:03:06Z</time>
      </trkpt>
      <trkpt lat="42.96111" lon="2.6151">
        <ele>394.76</ele>
        <time>2015-10-04T11:03:07Z</time>
      </trkpt>
      <trkpt lat="42.96124" lon="2.61521">
        <ele>394.28</ele>
        <time>2015-10-04T11:03:08Z</time>
      </trkpt>
      <trkpt lat="42.96212" lon="2.61594">
        <ele>390.43</ele>
        <time>2015-10-04T11:03:15Z</time>
      </trkpt>
      <trkpt lat="42.96225" lon="2.61602">
        <ele>389.95</ele>
        <time>2015-10-04T11:03:16Z</time>
      </trkpt>
      <trkpt lat="42.9624" lon="2.61608">
        <ele>389.47</ele>
        <time>2015-10-04T11:03:17Z</time>
      </trkpt>
      <trkpt lat="42.96317" lon="2.61633">
        <ele>386.59</ele>
        <time>2015-10-04T11:03:22Z</time>
      </trkpt>
      <trkpt lat="42.96332" lon="2.61633">
        <ele>386.11</ele>
        <time>2015-10-04T11:03:23Z</time>
      </trkpt>
      <trkpt lat="42.96346" lon="2.61629">
        <ele>385.15</ele>
        <time>2015-10-04T11:03:24Z</time>
      </trkpt>
      <trkpt lat="42.9636" lon="2.61624">
        <ele>384.66</ele>
        <time>2015-10-04T11:03:25Z</time>
      </trkpt>
      <trkpt lat="42.96373" lon="2.61619">
        <ele>384.18</ele>
        <time>2015-10-04T11:03:26Z</time>
      </trkpt>
      <trkpt lat="42.96386" lon="2.61616">
        <ele>383.7</ele>
        <time>2015-10-04T11:03:27Z</time>
      </trkpt>
      <trkpt lat="42.96401" lon="2.61615">
        <ele>383.22</ele>
        <time>2015-10-04T11:03:28Z</time>
      </trkpt>
      <trkpt lat="42.96413" lon="2.61619">
        <ele>382.74</ele>
        <time>2015-10-04T11:03:29Z</time>
      </trkpt>
      <trkpt lat="42.96426" lon="2.61623">
        <ele>382.26</ele>
        <time>2015-10-04T11:03:30Z</time>
      </trkpt>
      <trkpt lat="42.96438" lon="2.61625">
        <ele>381.3</ele>
        <time>2015-10-04T11:03:31Z</time>
      </trkpt>
      <trkpt lat="42.96451" lon="2.61623">
        <ele>380.82</ele>
        <time>2015-10-04T11:03:32Z</time>
      </trkpt>
      <trkpt lat="42.96465" lon="2.61619">
        <ele>380.34</ele>
        <time>2015-10-04T11:03:33Z</time>
      </trkpt>
      <trkpt lat="42.96478" lon="2.61614">
        <ele>379.38</ele>
        <time>2015-10-04T11:03:34Z</time>
      </trkpt>
      <trkpt lat="42.96491" lon="2.61606">
        <ele>378.9</ele>
        <time>2015-10-04T11:03:35Z</time>
      </trkpt>
      <trkpt lat="42.96502" lon="2.61596">
        <ele>377.94</ele>
        <time>2015-10-04T11:03:36Z</time>
      </trkpt>
      <trkpt lat="42.96513" lon="2.61584">
        <ele>377.94</ele>
        <time>2015-10-04T11:03:37Z</time>
      </trkpt>
      <trkpt lat="42.96523" lon="2.61573">
        <ele>376.97</ele>
        <time>2015-10-04T11:03:38Z</time>
      </trkpt>
      <trkpt lat="42.96534" lon="2.61566">
        <ele>376.49</ele>
        <time>2015-10-04T11:03:39Z</time>
      </trkpt>
      <trkpt lat="42.96547" lon="2.61563">
        <ele>376.01</ele>
        <time>2015-10-04T11:03:40Z</time>
      </trkpt>
      <trkpt lat="42.9656" lon="2.61564">
        <ele>375.53</ele>
        <time>2015-10-04T11:03:41Z</time>
      </trkpt>
      <trkpt lat="42.96574" lon="2.61563">
        <ele>375.05</ele>
        <time>2015-10-04T11:03:42Z</time>
      </trkpt>
      <trkpt lat="42.96587" lon="2.61559">
        <ele>374.09</ele>
        <time>2015-10-04T11:03:43Z</time>
      </trkpt>
      <trkpt lat="42.96599" lon="2.61552">
        <ele>373.61</ele>
        <time>2015-10-04T11:03:44Z</time>
      </trkpt>
      <trkpt lat="42.96612" lon="2.61546">
        <ele>373.13</ele>
        <time>2015-10-04T11:03:45Z</time>
      </trkpt>
      <trkpt lat="42.96668" lon="2.61515">
        <ele>370.73</ele>
        <time>2015-10-04T11:03:50Z</time>
      </trkpt>
      <trkpt lat="42.96678" lon="2.61513">
        <ele>370.24</ele>
        <time>2015-10-04T11:03:51Z</time>
      </trkpt>
      <trkpt lat="42.96688" lon="2.61518">
        <ele>369.76</ele>
        <time>2015-10-04T11:03:52Z</time>
      </trkpt>
      <trkpt lat="42.96695" lon="2.61528">
        <ele>369.28</ele>
        <time>2015-10-04T11:03:53Z</time>
      </trkpt>
      <trkpt lat="42.967" lon="2.6154">
        <ele>368.8</ele>
        <time>2015-10-04T11:03:54Z</time>
      </trkpt>
      <trkpt lat="42.96705" lon="2.61552">
        <ele>369.28</ele>
        <time>2015-10-04T11:03:55Z</time>
      </trkpt>
      <trkpt lat="42.9671" lon="2.61565">
        <ele>369.76</ele>
        <time>2015-10-04T11:03:56Z</time>
      </trkpt>
      <trkpt lat="42.96741" lon="2.61636">
        <ele>373.61</ele>
        <time>2015-10-04T11:04:02Z</time>
      </trkpt>
      <trkpt lat="42.96748" lon="2.61639">
        <ele>373.61</ele>
        <time>2015-10-04T11:04:03Z</time>
      </trkpt>
      <trkpt lat="42.96756" lon="2.61639">
        <ele>374.09</ele>
        <time>2015-10-04T11:04:04Z</time>
      </trkpt>
      <trkpt lat="42.96764" lon="2.61633">
        <ele>374.09</ele>
        <time>2015-10-04T11:04:05Z</time>
      </trkpt>
      <trkpt lat="42.96773" lon="2.61626">
        <ele>374.57</ele>
        <time>2015-10-04T11:04:06Z</time>
      </trkpt>
      <trkpt lat="42.96782" lon="2.61615">
        <ele>374.57</ele>
        <time>2015-10-04T11:04:07Z</time>
      </trkpt>
      <trkpt lat="42.96791" lon="2.61604">
        <ele>374.09</ele>
        <time>2015-10-04T11:04:08Z</time>
      </trkpt>
      <trkpt lat="42.96822" lon="2.61568">
        <ele>373.13</ele>
        <time>2015-10-04T11:04:11Z</time>
      </trkpt>
      <trkpt lat="42.96835" lon="2.61561">
        <ele>373.13</ele>
        <time>2015-10-04T11:04:12Z</time>
      </trkpt>
      <trkpt lat="42.96848" lon="2.61555">
        <ele>372.65</ele>
        <time>2015-10-04T11:04:13Z</time>
      </trkpt>
      <trkpt lat="42.96861" lon="2.61552">
        <ele>372.65</ele>
        <time>2015-10-04T11:04:14Z</time>
      </trkpt>
      <trkpt lat="42.96874" lon="2.6155">
        <ele>372.65</ele>
        <time>2015-10-04T11:04:15Z</time>
      </trkpt>
      <trkpt lat="42.96888" lon="2.61548">
        <ele>372.17</ele>
        <time>2015-10-04T11:04:16Z</time>
      </trkpt>
      <trkpt lat="42.96901" lon="2.61544">
        <ele>371.69</ele>
        <time>2015-10-04T11:04:17Z</time>
      </trkpt>
      <trkpt lat="42.96914" lon="2.61536">
        <ele>370.24</ele>
        <time>2015-10-04T11:04:18Z</time>
      </trkpt>
      <trkpt lat="42.96924" lon="2.61521">
        <ele>370.24</ele>
        <time>2015-10-04T11:04:19Z</time>
      </trkpt>
      <trkpt lat="42.96933" lon="2.61502">
        <ele>370.24</ele>
        <time>2015-10-04T11:04:20Z</time>
      </trkpt>
      <trkpt lat="42.96941" lon="2.61484">
        <ele>369.28</ele>
        <time>2015-10-04T11:04:21Z</time>
      </trkpt>
      <trkpt lat="42.96968" lon="2.61434">
        <ele>368.32</ele>
        <time>2015-10-04T11:04:24Z</time>
      </trkpt>
      <trkpt lat="42.9698" lon="2.6142">
        <ele>367.84</ele>
        <time>2015-10-04T11:04:25Z</time>
      </trkpt>
      <trkpt lat="42.9703" lon="2.6136">
        <ele>365.92</ele>
        <time>2015-10-04T11:04:29Z</time>
      </trkpt>
      <trkpt lat="42.97039" lon="2.61343">
        <ele>365.44</ele>
        <time>2015-10-04T11:04:30Z</time>
      </trkpt>
      <trkpt lat="42.97046" lon="2.61325">
        <ele>364.96</ele>
        <time>2015-10-04T11:04:31Z</time>
      </trkpt>
      <trkpt lat="42.97053" lon="2.61307">
        <ele>364.48</ele>
        <time>2015-10-04T11:04:32Z</time>
      </trkpt>
      <trkpt lat="42.97059" lon="2.6129">
        <ele>364</ele>
        <time>2015-10-04T11:04:33Z</time>
      </trkpt>
      <trkpt lat="42.97067" lon="2.61274">
        <ele>363.52</ele>
        <time>2015-10-04T11:04:34Z</time>
      </trkpt>
      <trkpt lat="42.97078" lon="2.61261">
        <ele>363.04</ele>
        <time>2015-10-04T11:04:35Z</time>
      </trkpt>
      <trkpt lat="42.9709" lon="2.61253">
        <ele>363.04</ele>
        <time>2015-10-04T11:04:36Z</time>
      </trkpt>
      <trkpt lat="42.97104" lon="2.61248">
        <ele>363.04</ele>
        <time>2015-10-04T11:04:37Z</time>
      </trkpt>
      <trkpt lat="42.9712" lon="2.61247">
        <ele>363.04</ele>
        <time>2015-10-04T11:04:38Z</time>
      </trkpt>
      <trkpt lat="42.97134" lon="2.61246">
        <ele>362.55</ele>
        <time>2015-10-04T11:04:39Z</time>
      </trkpt>
      <trkpt lat="42.9715" lon="2.61246">
        <ele>362.07</ele>
        <time>2015-10-04T11:04:40Z</time>
      </trkpt>
      <trkpt lat="42.97166" lon="2.61249">
        <ele>361.59</ele>
        <time>2015-10-04T11:04:41Z</time>
      </trkpt>
      <trkpt lat="42.97197" lon="2.61253">
        <ele>360.63</ele>
        <time>2015-10-04T11:04:43Z</time>
      </trkpt>
      <trkpt lat="42.97212" lon="2.61251">
        <ele>360.63</ele>
        <time>2015-10-04T11:04:44Z</time>
      </trkpt>
      <trkpt lat="42.97266" lon="2.61249">
        <ele>360.63</ele>
        <time>2015-10-04T11:04:48Z</time>
      </trkpt>
      <trkpt lat="42.97275" lon="2.61244">
        <ele>360.15</ele>
        <time>2015-10-04T11:04:49Z</time>
      </trkpt>
      <trkpt lat="42.97281" lon="2.61235">
        <ele>359.19</ele>
        <time>2015-10-04T11:04:50Z</time>
      </trkpt>
      <trkpt lat="42.97286" lon="2.61223">
        <ele>358.71</ele>
        <time>2015-10-04T11:04:51Z</time>
      </trkpt>
      <trkpt lat="42.97289" lon="2.61209">
        <ele>358.23</ele>
        <time>2015-10-04T11:04:52Z</time>
      </trkpt>
      <trkpt lat="42.97293" lon="2.61192">
        <ele>357.75</ele>
        <time>2015-10-04T11:04:53Z</time>
      </trkpt>
      <trkpt lat="42.97298" lon="2.61176">
        <ele>357.75</ele>
        <time>2015-10-04T11:04:54Z</time>
      </trkpt>
      <trkpt lat="42.97307" lon="2.61161">
        <ele>357.27</ele>
        <time>2015-10-04T11:04:55Z</time>
      </trkpt>
      <trkpt lat="42.97318" lon="2.6115">
        <ele>356.31</ele>
        <time>2015-10-04T11:04:56Z</time>
      </trkpt>
      <trkpt lat="42.9733" lon="2.61143">
        <ele>355.83</ele>
        <time>2015-10-04T11:04:57Z</time>
      </trkpt>
      <trkpt lat="42.97343" lon="2.61142">
        <ele>355.34</ele>
        <time>2015-10-04T11:04:58Z</time>
      </trkpt>
      <trkpt lat="42.97357" lon="2.61144">
        <ele>354.86</ele>
        <time>2015-10-04T11:04:59Z</time>
      </trkpt>
      <trkpt lat="42.97371" lon="2.61144">
        <ele>354.38</ele>
        <time>2015-10-04T11:05:00Z</time>
      </trkpt>
      <trkpt lat="42.97387" lon="2.61141">
        <ele>353.9</ele>
        <time>2015-10-04T11:05:01Z</time>
      </trkpt>
      <trkpt lat="42.97403" lon="2.61135">
        <ele>353.42</ele>
        <time>2015-10-04T11:05:02Z</time>
      </trkpt>
      <trkpt lat="42.97452" lon="2.61123">
        <ele>352.46</ele>
        <time>2015-10-04T11:05:05Z</time>
      </trkpt>
      <trkpt lat="42.97468" lon="2.61123">
        <ele>352.46</ele>
        <time>2015-10-04T11:05:06Z</time>
      </trkpt>
      <trkpt lat="42.97515" lon="2.61123">
        <ele>351.5</ele>
        <time>2015-10-04T11:05:09Z</time>
      </trkpt>
      <trkpt lat="42.97531" lon="2.61119">
        <ele>351.02</ele>
        <time>2015-10-04T11:05:10Z</time>
      </trkpt>
      <trkpt lat="42.97659" lon="2.61045">
        <ele>348.13</ele>
        <time>2015-10-04T11:05:18Z</time>
      </trkpt>
      <trkpt lat="42.97673" lon="2.61027">
        <ele>347.65</ele>
        <time>2015-10-04T11:05:19Z</time>
      </trkpt>
      <trkpt lat="42.97687" lon="2.61008">
        <ele>347.65</ele>
        <time>2015-10-04T11:05:20Z</time>
      </trkpt>
      <trkpt lat="42.97763" lon="2.6089">
        <ele>347.17</ele>
        <time>2015-10-04T11:05:27Z</time>
      </trkpt>
      <trkpt lat="42.97777" lon="2.6088">
        <ele>346.69</ele>
        <time>2015-10-04T11:05:28Z</time>
      </trkpt>
      <trkpt lat="42.97793" lon="2.60876">
        <ele>346.21</ele>
        <time>2015-10-04T11:05:29Z</time>
      </trkpt>
      <trkpt lat="42.9781" lon="2.60877">
        <ele>345.73</ele>
        <time>2015-10-04T11:05:30Z</time>
      </trkpt>
      <trkpt lat="42.97827" lon="2.60883">
        <ele>345.25</ele>
        <time>2015-10-04T11:05:31Z</time>
      </trkpt>
      <trkpt lat="42.97845" lon="2.60892">
        <ele>344.77</ele>
        <time>2015-10-04T11:05:32Z</time>
      </trkpt>
      <trkpt lat="42.9786" lon="2.60904">
        <ele>344.77</ele>
        <time>2015-10-04T11:05:33Z</time>
      </trkpt>
      <trkpt lat="42.97876" lon="2.60914">
        <ele>344.77</ele>
        <time>2015-10-04T11:05:34Z</time>
      </trkpt>
      <trkpt lat="42.97892" lon="2.60922">
        <ele>344.77</ele>
        <time>2015-10-04T11:05:35Z</time>
      </trkpt>
      <trkpt lat="42.97909" lon="2.60928">
        <ele>344.29</ele>
        <time>2015-10-04T11:05:36Z</time>
      </trkpt>
      <trkpt lat="42.98039" lon="2.60989">
        <ele>343.33</ele>
        <time>2015-10-04T11:05:43Z</time>
      </trkpt>
      <trkpt lat="42.98125" lon="2.61041">
        <ele>342.37</ele>
        <time>2015-10-04T11:05:49Z</time>
      </trkpt>
      <trkpt lat="42.9822" lon="2.61138">
        <ele>339.96</ele>
        <time>2015-10-04T11:05:57Z</time>
      </trkpt>
      <trkpt lat="42.98233" lon="2.61144">
        <ele>339.96</ele>
        <time>2015-10-04T11:05:58Z</time>
      </trkpt>
      <trkpt lat="42.98248" lon="2.61147">
        <ele>339.48</ele>
        <time>2015-10-04T11:05:59Z</time>
      </trkpt>
      <trkpt lat="42.98264" lon="2.61143">
        <ele>339</ele>
        <time>2015-10-04T11:06:00Z</time>
      </trkpt>
      <trkpt lat="42.98279" lon="2.61135">
        <ele>339</ele>
        <time>2015-10-04T11:06:01Z</time>
      </trkpt>
      <trkpt lat="42.98294" lon="2.61125">
        <ele>338.52</ele>
        <time>2015-10-04T11:06:02Z</time>
      </trkpt>
      <trkpt lat="42.98309" lon="2.61114">
        <ele>338.04</ele>
        <time>2015-10-04T11:06:03Z</time>
      </trkpt>
      <trkpt lat="42.9834" lon="2.61093">
        <ele>338.04</ele>
        <time>2015-10-04T11:06:05Z</time>
      </trkpt>
      <trkpt lat="42.98356" lon="2.61087">
        <ele>338.04</ele>
        <time>2015-10-04T11:06:06Z</time>
      </trkpt>
      <trkpt lat="42.98373" lon="2.61083">
        <ele>338.04</ele>
        <time>2015-10-04T11:06:07Z</time>
      </trkpt>
      <trkpt lat="42.98548" lon="2.61073">
        <ele>338.52</ele>
        <time>2015-10-04T11:06:18Z</time>
      </trkpt>
      <trkpt lat="42.98573" lon="2.61075">
        <ele>338.52</ele>
        <time>2015-10-04T11:06:20Z</time>
      </trkpt>
      <trkpt lat="42.98584" lon="2.6108">
        <ele>338.52</ele>
        <time>2015-10-04T11:06:21Z</time>
      </trkpt>
      <trkpt lat="42.98596" lon="2.61088">
        <ele>339</ele>
        <time>2015-10-04T11:06:22Z</time>
      </trkpt>
      <trkpt lat="42.98607" lon="2.61098">
        <ele>339</ele>
        <time>2015-10-04T11:06:23Z</time>
      </trkpt>
      <trkpt lat="42.98617" lon="2.61108">
        <ele>339</ele>
        <time>2015-10-04T11:06:24Z</time>
      </trkpt>
      <trkpt lat="42.98654" lon="2.61147">
        <ele>339.96</ele>
        <time>2015-10-04T11:06:30Z</time>
      </trkpt>
      <trkpt lat="42.98663" lon="2.61158">
        <ele>340.92</ele>
        <time>2015-10-04T11:06:39Z</time>
      </trkpt>
      <trkpt lat="42.98675" lon="2.61164">
        <ele>341.41</ele>
        <time>2015-10-04T11:06:56Z</time>
      </trkpt>
      <trkpt lat="42.98676" lon="2.61161">
        <ele>341.41</ele>
        <time>2015-10-04T11:06:58Z</time>
      </trkpt>
      <trkpt lat="42.98676" lon="2.61157">
        <ele>340.44</ele>
        <time>2015-10-04T11:06:59Z</time>
      </trkpt>
      <trkpt lat="42.98672" lon="2.61149">
        <ele>339.96</ele>
        <time>2015-10-04T11:07:00Z</time>
      </trkpt>
      <trkpt lat="42.98666" lon="2.61134">
        <ele>339.96</ele>
        <time>2015-10-04T11:07:01Z</time>
      </trkpt>
      <trkpt lat="42.98659" lon="2.6112">
        <ele>339.48</ele>
        <time>2015-10-04T11:07:02Z</time>
      </trkpt>
      <trkpt lat="42.9865" lon="2.61101">
        <ele>339.48</ele>
        <time>2015-10-04T11:07:03Z</time>
      </trkpt>
      <trkpt lat="42.98588" lon="2.60976">
        <ele>343.81</ele>
        <time>2015-10-04T11:07:09Z</time>
      </trkpt>
      <trkpt lat="42.98576" lon="2.60959">
        <ele>344.77</ele>
        <time>2015-10-04T11:07:10Z</time>
      </trkpt>
      <trkpt lat="42.98563" lon="2.60945">
        <ele>345.73</ele>
        <time>2015-10-04T11:07:11Z</time>
      </trkpt>
      <trkpt lat="42.98549" lon="2.60933">
        <ele>346.69</ele>
        <time>2015-10-04T11:07:12Z</time>
      </trkpt>
      <trkpt lat="42.98533" lon="2.60924">
        <ele>347.65</ele>
        <time>2015-10-04T11:07:13Z</time>
      </trkpt>
      <trkpt lat="42.98516" lon="2.60918">
        <ele>348.62</ele>
        <time>2015-10-04T11:07:14Z</time>
      </trkpt>
      <trkpt lat="42.98497" lon="2.60915">
        <ele>349.58</ele>
        <time>2015-10-04T11:07:15Z</time>
      </trkpt>
      <trkpt lat="42.98478" lon="2.60915">
        <ele>350.54</ele>
        <time>2015-10-04T11:07:16Z</time>
      </trkpt>
      <trkpt lat="42.98459" lon="2.60916">
        <ele>351.02</ele>
        <time>2015-10-04T11:07:17Z</time>
      </trkpt>
      <trkpt lat="42.98442" lon="2.60917">
        <ele>351.98</ele>
        <time>2015-10-04T11:07:18Z</time>
      </trkpt>
      <trkpt lat="42.98411" lon="2.60916">
        <ele>353.42</ele>
        <time>2015-10-04T11:07:20Z</time>
      </trkpt>
      <trkpt lat="42.98397" lon="2.60908">
        <ele>354.38</ele>
        <time>2015-10-04T11:07:21Z</time>
      </trkpt>
      <trkpt lat="42.98384" lon="2.60896">
        <ele>355.34</ele>
        <time>2015-10-04T11:07:22Z</time>
      </trkpt>
      <trkpt lat="42.98375" lon="2.60879">
        <ele>356.31</ele>
        <time>2015-10-04T11:07:23Z</time>
      </trkpt>
      <trkpt lat="42.98369" lon="2.60861">
        <ele>357.27</ele>
        <time>2015-10-04T11:07:24Z</time>
      </trkpt>
      <trkpt lat="42.98361" lon="2.60844">
        <ele>358.23</ele>
        <time>2015-10-04T11:07:25Z</time>
      </trkpt>
      <trkpt lat="42.9835" lon="2.6083">
        <ele>359.19</ele>
        <time>2015-10-04T11:07:26Z</time>
      </trkpt>
      <trkpt lat="42.98337" lon="2.60818">
        <ele>360.15</ele>
        <time>2015-10-04T11:07:27Z</time>
      </trkpt>
      <trkpt lat="42.98319" lon="2.60813">
        <ele>360.63</ele>
        <time>2015-10-04T11:07:28Z</time>
      </trkpt>
      <trkpt lat="42.98302" lon="2.60809">
        <ele>361.59</ele>
        <time>2015-10-04T11:07:29Z</time>
      </trkpt>
      <trkpt lat="42.98286" lon="2.60805">
        <ele>362.55</ele>
        <time>2015-10-04T11:07:30Z</time>
      </trkpt>
      <trkpt lat="42.9827" lon="2.60798">
        <ele>363.52</ele>
        <time>2015-10-04T11:07:31Z</time>
      </trkpt>
      <trkpt lat="42.98256" lon="2.60786">
        <ele>364.48</ele>
        <time>2015-10-04T11:07:32Z</time>
      </trkpt>
      <trkpt lat="42.98247" lon="2.60766">
        <ele>364.48</ele>
        <time>2015-10-04T11:07:33Z</time>
      </trkpt>
      <trkpt lat="42.9824" lon="2.60747">
        <ele>365.44</ele>
        <time>2015-10-04T11:07:34Z</time>
      </trkpt>
      <trkpt lat="42.98237" lon="2.60726">
        <ele>366.88</ele>
        <time>2015-10-04T11:07:35Z</time>
      </trkpt>
      <trkpt lat="42.98234" lon="2.60705">
        <ele>367.84</ele>
        <time>2015-10-04T11:07:36Z</time>
      </trkpt>
      <trkpt lat="42.98231" lon="2.60685">
        <ele>368.8</ele>
        <time>2015-10-04T11:07:37Z</time>
      </trkpt>
      <trkpt lat="42.98225" lon="2.60606">
        <ele>372.17</ele>
        <time>2015-10-04T11:07:41Z</time>
      </trkpt>
      <trkpt lat="42.98229" lon="2.60586">
        <ele>372.17</ele>
        <time>2015-10-04T11:07:42Z</time>
      </trkpt>
      <trkpt lat="42.98236" lon="2.60566">
        <ele>372.17</ele>
        <time>2015-10-04T11:07:43Z</time>
      </trkpt>
      <trkpt lat="42.98246" lon="2.60546">
        <ele>372.65</ele>
        <time>2015-10-04T11:07:44Z</time>
      </trkpt>
      <trkpt lat="42.98257" lon="2.60526">
        <ele>373.61</ele>
        <time>2015-10-04T11:07:45Z</time>
      </trkpt>
      <trkpt lat="42.98285" lon="2.60469">
        <ele>376.01</ele>
        <time>2015-10-04T11:07:48Z</time>
      </trkpt>
      <trkpt lat="42.98291" lon="2.60447">
        <ele>376.97</ele>
        <time>2015-10-04T11:07:49Z</time>
      </trkpt>
      <trkpt lat="42.98292" lon="2.60425">
        <ele>377.94</ele>
        <time>2015-10-04T11:07:50Z</time>
      </trkpt>
      <trkpt lat="42.98289" lon="2.60404">
        <ele>378.42</ele>
        <time>2015-10-04T11:07:51Z</time>
      </trkpt>
      <trkpt lat="42.98286" lon="2.60383">
        <ele>379.38</ele>
        <time>2015-10-04T11:07:52Z</time>
      </trkpt>
      <trkpt lat="42.98283" lon="2.60362">
        <ele>380.34</ele>
        <time>2015-10-04T11:07:53Z</time>
      </trkpt>
      <trkpt lat="42.98284" lon="2.6034">
        <ele>381.3</ele>
        <time>2015-10-04T11:07:54Z</time>
      </trkpt>
      <trkpt lat="42.98289" lon="2.60318">
        <ele>382.26</ele>
        <time>2015-10-04T11:07:55Z</time>
      </trkpt>
      <trkpt lat="42.98294" lon="2.60298">
        <ele>383.22</ele>
        <time>2015-10-04T11:07:56Z</time>
      </trkpt>
      <trkpt lat="42.983" lon="2.60279">
        <ele>384.18</ele>
        <time>2015-10-04T11:07:57Z</time>
      </trkpt>
      <trkpt lat="42.98348" lon="2.60148">
        <ele>390.43</ele>
        <time>2015-10-04T11:08:04Z</time>
      </trkpt>
      <trkpt lat="42.9835" lon="2.60127">
        <ele>390.91</ele>
        <time>2015-10-04T11:08:05Z</time>
      </trkpt>
      <trkpt lat="42.98348" lon="2.60105">
        <ele>392.36</ele>
        <time>2015-10-04T11:08:06Z</time>
      </trkpt>
      <trkpt lat="42.98342" lon="2.60083">
        <ele>392.84</ele>
        <time>2015-10-04T11:08:07Z</time>
      </trkpt>
      <trkpt lat="42.98333" lon="2.60062">
        <ele>393.8</ele>
        <time>2015-10-04T11:08:08Z</time>
      </trkpt>
      <trkpt lat="42.98323" lon="2.6004">
        <ele>395.24</ele>
        <time>2015-10-04T11:08:09Z</time>
      </trkpt>
      <trkpt lat="42.98313" lon="2.60018">
        <ele>396.2</ele>
        <time>2015-10-04T11:08:10Z</time>
      </trkpt>
      <trkpt lat="42.9827" lon="2.59918">
        <ele>401.01</ele>
        <time>2015-10-04T11:08:15Z</time>
      </trkpt>
      <trkpt lat="42.98265" lon="2.59895">
        <ele>401.97</ele>
        <time>2015-10-04T11:08:16Z</time>
      </trkpt>
      <trkpt lat="42.98263" lon="2.59871">
        <ele>402.93</ele>
        <time>2015-10-04T11:08:17Z</time>
      </trkpt>
      <trkpt lat="42.98262" lon="2.59846">
        <ele>403.89</ele>
        <time>2015-10-04T11:08:18Z</time>
      </trkpt>
      <trkpt lat="42.98263" lon="2.59819">
        <ele>404.85</ele>
        <time>2015-10-04T11:08:19Z</time>
      </trkpt>
      <trkpt lat="42.98266" lon="2.59791">
        <ele>405.81</ele>
        <time>2015-10-04T11:08:20Z</time>
      </trkpt>
      <trkpt lat="42.98272" lon="2.59708">
        <ele>408.7</ele>
        <time>2015-10-04T11:08:23Z</time>
      </trkpt>
      <trkpt lat="42.98269" lon="2.5968">
        <ele>409.66</ele>
        <time>2015-10-04T11:08:24Z</time>
      </trkpt>
      <trkpt lat="42.98264" lon="2.59653">
        <ele>410.62</ele>
        <time>2015-10-04T11:08:25Z</time>
      </trkpt>
      <trkpt lat="42.98256" lon="2.59627">
        <ele>411.1</ele>
        <time>2015-10-04T11:08:26Z</time>
      </trkpt>
      <trkpt lat="42.98246" lon="2.59603">
        <ele>412.06</ele>
        <time>2015-10-04T11:08:27Z</time>
      </trkpt>
      <trkpt lat="42.98234" lon="2.59579">
        <ele>412.54</ele>
        <time>2015-10-04T11:08:28Z</time>
      </trkpt>
      <trkpt lat="42.98221" lon="2.59555">
        <ele>413.98</ele>
        <time>2015-10-04T11:08:29Z</time>
      </trkpt>
      <trkpt lat="42.98133" lon="2.59383">
        <ele>422.16</ele>
        <time>2015-10-04T11:08:37Z</time>
      </trkpt>
      <trkpt lat="42.98127" lon="2.59358">
        <ele>423.12</ele>
        <time>2015-10-04T11:08:38Z</time>
      </trkpt>
      <trkpt lat="42.98124" lon="2.59332">
        <ele>424.08</ele>
        <time>2015-10-04T11:08:39Z</time>
      </trkpt>
      <trkpt lat="42.98124" lon="2.59305">
        <ele>425.04</ele>
        <time>2015-10-04T11:08:40Z</time>
      </trkpt>
      <trkpt lat="42.98125" lon="2.59277">
        <ele>426.48</ele>
        <time>2015-10-04T11:08:41Z</time>
      </trkpt>
      <trkpt lat="42.98127" lon="2.59249">
        <ele>427.44</ele>
        <time>2015-10-04T11:08:42Z</time>
      </trkpt>
      <trkpt lat="42.98138" lon="2.59036">
        <ele>435.61</ele>
        <time>2015-10-04T11:08:50Z</time>
      </trkpt>
      <trkpt lat="42.98132" lon="2.59016">
        <ele>436.58</ele>
        <time>2015-10-04T11:08:51Z</time>
      </trkpt>
      <trkpt lat="42.98121" lon="2.58998">
        <ele>437.54</ele>
        <time>2015-10-04T11:08:52Z</time>
      </trkpt>
      <trkpt lat="42.98109" lon="2.58984">
        <ele>438.02</ele>
        <time>2015-10-04T11:08:53Z</time>
      </trkpt>
      <trkpt lat="42.98093" lon="2.58975">
        <ele>438.5</ele>
        <time>2015-10-04T11:08:54Z</time>
      </trkpt>
      <trkpt lat="42.98076" lon="2.5897">
        <ele>439.46</ele>
        <time>2015-10-04T11:08:55Z</time>
      </trkpt>
      <trkpt lat="42.9806" lon="2.58964">
        <ele>439.94</ele>
        <time>2015-10-04T11:08:56Z</time>
      </trkpt>
      <trkpt lat="42.98046" lon="2.58956">
        <ele>440.9</ele>
        <time>2015-10-04T11:08:57Z</time>
      </trkpt>
      <trkpt lat="42.98033" lon="2.58943">
        <ele>441.38</ele>
        <time>2015-10-04T11:08:58Z</time>
      </trkpt>
      <trkpt lat="42.98025" lon="2.58925">
        <ele>442.34</ele>
        <time>2015-10-04T11:08:59Z</time>
      </trkpt>
      <trkpt lat="42.98021" lon="2.58905">
        <ele>442.82</ele>
        <time>2015-10-04T11:09:00Z</time>
      </trkpt>
      <trkpt lat="42.98018" lon="2.58886">
        <ele>443.79</ele>
        <time>2015-10-04T11:09:01Z</time>
      </trkpt>
      <trkpt lat="42.98019" lon="2.58864">
        <ele>444.27</ele>
        <time>2015-10-04T11:09:02Z</time>
      </trkpt>
      <trkpt lat="42.98019" lon="2.58842">
        <ele>444.75</ele>
        <time>2015-10-04T11:09:03Z</time>
      </trkpt>
      <trkpt lat="42.98017" lon="2.5882">
        <ele>445.71</ele>
        <time>2015-10-04T11:09:04Z</time>
      </trkpt>
      <trkpt lat="42.98011" lon="2.58797">
        <ele>446.19</ele>
        <time>2015-10-04T11:09:05Z</time>
      </trkpt>
      <trkpt lat="42.98002" lon="2.58775">
        <ele>447.15</ele>
        <time>2015-10-04T11:09:06Z</time>
      </trkpt>
      <trkpt lat="42.97991" lon="2.58753">
        <ele>447.63</ele>
        <time>2015-10-04T11:09:07Z</time>
      </trkpt>
      <trkpt lat="42.97978" lon="2.58731">
        <ele>448.59</ele>
        <time>2015-10-04T11:09:08Z</time>
      </trkpt>
      <trkpt lat="42.97871" lon="2.58606">
        <ele>457.72</ele>
        <time>2015-10-04T11:09:14Z</time>
      </trkpt>
      <trkpt lat="42.97727" lon="2.58454">
        <ele>467.82</ele>
        <time>2015-10-04T11:09:22Z</time>
      </trkpt>
      <trkpt lat="42.97714" lon="2.58434">
        <ele>468.78</ele>
        <time>2015-10-04T11:09:23Z</time>
      </trkpt>
      <trkpt lat="42.97703" lon="2.58412">
        <ele>469.74</ele>
        <time>2015-10-04T11:09:24Z</time>
      </trkpt>
      <trkpt lat="42.97606" lon="2.58246">
        <ele>476.95</ele>
        <time>2015-10-04T11:09:31Z</time>
      </trkpt>
      <trkpt lat="42.97547" lon="2.58164">
        <ele>480.8</ele>
        <time>2015-10-04T11:09:35Z</time>
      </trkpt>
      <trkpt lat="42.9753" lon="2.58152">
        <ele>481.76</ele>
        <time>2015-10-04T11:09:36Z</time>
      </trkpt>
      <trkpt lat="42.97511" lon="2.58144">
        <ele>482.72</ele>
        <time>2015-10-04T11:09:37Z</time>
      </trkpt>
      <trkpt lat="42.97491" lon="2.58142">
        <ele>483.68</ele>
        <time>2015-10-04T11:09:38Z</time>
      </trkpt>
      <trkpt lat="42.97471" lon="2.58143">
        <ele>484.16</ele>
        <time>2015-10-04T11:09:39Z</time>
      </trkpt>
      <trkpt lat="42.97452" lon="2.58145">
        <ele>485.12</ele>
        <time>2015-10-04T11:09:40Z</time>
      </trkpt>
      <trkpt lat="42.97434" lon="2.58145">
        <ele>485.6</ele>
        <time>2015-10-04T11:09:41Z</time>
      </trkpt>
      <trkpt lat="42.97417" lon="2.5814">
        <ele>487.05</ele>
        <time>2015-10-04T11:09:42Z</time>
      </trkpt>
      <trkpt lat="42.97402" lon="2.58132">
        <ele>488.01</ele>
        <time>2015-10-04T11:09:43Z</time>
      </trkpt>
      <trkpt lat="42.97389" lon="2.58121">
        <ele>488.49</ele>
        <time>2015-10-04T11:09:44Z</time>
      </trkpt>
      <trkpt lat="42.97379" lon="2.5811">
        <ele>488.97</ele>
        <time>2015-10-04T11:09:45Z</time>
      </trkpt>
      <trkpt lat="42.97373" lon="2.581">
        <ele>488.97</ele>
        <time>2015-10-04T11:09:46Z</time>
      </trkpt>
      <trkpt lat="42.97369" lon="2.58092">
        <ele>488.97</ele>
        <time>2015-10-04T11:09:47Z</time>
      </trkpt>
      <trkpt lat="42.97367" lon="2.58085">
        <ele>488.97</ele>
        <time>2015-10-04T11:09:48Z</time>
      </trkpt>
      <trkpt lat="42.97365" lon="2.5808">
        <ele>489.45</ele>
        <time>2015-10-04T11:09:49Z</time>
      </trkpt>
      <trkpt lat="42.97365" lon="2.58075">
        <ele>489.45</ele>
        <time>2015-10-04T11:09:50Z</time>
      </trkpt>
      <trkpt lat="42.97365" lon="2.58071">
        <ele>489.45</ele>
        <time>2015-10-04T11:09:51Z</time>
      </trkpt>
      <trkpt lat="42.97365" lon="2.58068">
        <ele>489.45</ele>
        <time>2015-10-04T11:09:52Z</time>
      </trkpt>
      <trkpt lat="42.97366" lon="2.58065">
        <ele>489.45</ele>
        <time>2015-10-04T11:09:53Z</time>
      </trkpt>
      <trkpt lat="42.97367" lon="2.58062">
        <ele>488.97</ele>
        <time>2015-10-04T11:09:54Z</time>
      </trkpt>
      <trkpt lat="42.97368" lon="2.5806">
        <ele>488.97</ele>
        <time>2015-10-04T11:09:55Z</time>
      </trkpt>
      <trkpt lat="42.97369" lon="2.58058">
        <ele>488.97</ele>
        <time>2015-10-04T11:09:56Z</time>
      </trkpt>
      <trkpt lat="42.97373" lon="2.58053">
        <ele>488.01</ele>
        <time>2015-10-04T11:10:11Z</time>
      </trkpt>
      <trkpt lat="42.97377" lon="2.5804">
        <ele>488.01</ele>
        <time>2015-10-04T11:10:13Z</time>
      </trkpt>
      <trkpt lat="42.97378" lon="2.58034">
        <ele>488.01</ele>
        <time>2015-10-04T11:10:14Z</time>
      </trkpt>
      <trkpt lat="42.97379" lon="2.5803">
        <ele>488.01</ele>
        <time>2015-10-04T11:10:15Z</time>
      </trkpt>
      <trkpt lat="42.97379" lon="2.58027">
        <ele>488.01</ele>
        <time>2015-10-04T11:10:16Z</time>
      </trkpt>
      <trkpt lat="42.97379" lon="2.58023">
        <ele>487.53</ele>
        <time>2015-10-04T11:10:17Z</time>
      </trkpt>
      <trkpt lat="42.97373" lon="2.57999">
        <ele>487.05</ele>
        <time>2015-10-04T11:10:26Z</time>
      </trkpt>
      <trkpt lat="42.97372" lon="2.57999">
        <ele>486.08</ele>
        <time>2015-10-04T11:10:39Z</time>
      </trkpt>
      <trkpt lat="42.9737" lon="2.57998">
        <ele>486.08</ele>
        <time>2015-10-04T11:10:40Z</time>
      </trkpt>
      <trkpt lat="42.97364" lon="2.57987">
        <ele>486.08</ele>
        <time>2015-10-04T11:10:52Z</time>
      </trkpt>
      <trkpt lat="42.97343" lon="2.57946">
        <ele>485.12</ele>
        <time>2015-10-04T11:10:56Z</time>
      </trkpt>
      <trkpt lat="42.9734" lon="2.57933">
        <ele>484.64</ele>
        <time>2015-10-04T11:10:57Z</time>
      </trkpt>
      <trkpt lat="42.97339" lon="2.57919">
        <ele>484.16</ele>
        <time>2015-10-04T11:10:58Z</time>
      </trkpt>
      <trkpt lat="42.97341" lon="2.57903">
        <ele>483.2</ele>
        <time>2015-10-04T11:10:59Z</time>
      </trkpt>
      <trkpt lat="42.97344" lon="2.57888">
        <ele>482.72</ele>
        <time>2015-10-04T11:11:00Z</time>
      </trkpt>
      <trkpt lat="42.97347" lon="2.57872">
        <ele>482.24</ele>
        <time>2015-10-04T11:11:01Z</time>
      </trkpt>
      <trkpt lat="42.97385" lon="2.57718">
        <ele>477.91</ele>
        <time>2015-10-04T11:11:11Z</time>
      </trkpt>
      <trkpt lat="42.97391" lon="2.57678">
        <ele>476.47</ele>
        <time>2015-10-04T11:11:14Z</time>
      </trkpt>
      <trkpt lat="42.97396" lon="2.57666">
        <ele>475.99</ele>
        <time>2015-10-04T11:11:15Z</time>
      </trkpt>
      <trkpt lat="42.97403" lon="2.57657">
        <ele>475.03</ele>
        <time>2015-10-04T11:11:16Z</time>
      </trkpt>
      <trkpt lat="42.97442" lon="2.5762">
        <ele>473.59</ele>
        <time>2015-10-04T11:11:20Z</time>
      </trkpt>
      <trkpt lat="42.97453" lon="2.57615">
        <ele>473.59</ele>
        <time>2015-10-04T11:11:21Z</time>
      </trkpt>
      <trkpt lat="42.97465" lon="2.57612">
        <ele>473.11</ele>
        <time>2015-10-04T11:11:22Z</time>
      </trkpt>
      <trkpt lat="42.97476" lon="2.57612">
        <ele>472.63</ele>
        <time>2015-10-04T11:11:23Z</time>
      </trkpt>
      <trkpt lat="42.97488" lon="2.5761">
        <ele>472.14</ele>
        <time>2015-10-04T11:11:24Z</time>
      </trkpt>
      <trkpt lat="42.97499" lon="2.57605">
        <ele>471.66</ele>
        <time>2015-10-04T11:11:25Z</time>
      </trkpt>
      <trkpt lat="42.97511" lon="2.57596">
        <ele>470.7</ele>
        <time>2015-10-04T11:11:26Z</time>
      </trkpt>
      <trkpt lat="42.97522" lon="2.57586">
        <ele>470.22</ele>
        <time>2015-10-04T11:11:27Z</time>
      </trkpt>
      <trkpt lat="42.97544" lon="2.57569">
        <ele>469.74</ele>
        <time>2015-10-04T11:11:29Z</time>
      </trkpt>
      <trkpt lat="42.97565" lon="2.57554">
        <ele>468.3</ele>
        <time>2015-10-04T11:11:31Z</time>
      </trkpt>
      <trkpt lat="42.97574" lon="2.57544">
        <ele>467.82</ele>
        <time>2015-10-04T11:11:32Z</time>
      </trkpt>
      <trkpt lat="42.97599" lon="2.57513">
        <ele>465.9</ele>
        <time>2015-10-04T11:11:35Z</time>
      </trkpt>
      <trkpt lat="42.97604" lon="2.57503">
        <ele>464.93</ele>
        <time>2015-10-04T11:11:36Z</time>
      </trkpt>
      <trkpt lat="42.9761" lon="2.57493">
        <ele>464.45</ele>
        <time>2015-10-04T11:11:37Z</time>
      </trkpt>
      <trkpt lat="42.97617" lon="2.57487">
        <ele>463.49</ele>
        <time>2015-10-04T11:11:38Z</time>
      </trkpt>
      <trkpt lat="42.97624" lon="2.57484">
        <ele>463.49</ele>
        <time>2015-10-04T11:11:39Z</time>
      </trkpt>
      <trkpt lat="42.97634" lon="2.57485">
        <ele>463.01</ele>
        <time>2015-10-04T11:11:40Z</time>
      </trkpt>
      <trkpt lat="42.97645" lon="2.57487">
        <ele>462.53</ele>
        <time>2015-10-04T11:11:41Z</time>
      </trkpt>
      <trkpt lat="42.97655" lon="2.57488">
        <ele>462.05</ele>
        <time>2015-10-04T11:11:42Z</time>
      </trkpt>
      <trkpt lat="42.97665" lon="2.57486">
        <ele>461.09</ele>
        <time>2015-10-04T11:11:43Z</time>
      </trkpt>
      <trkpt lat="42.97674" lon="2.57481">
        <ele>460.13</ele>
        <time>2015-10-04T11:11:44Z</time>
      </trkpt>
      <trkpt lat="42.97683" lon="2.57473">
        <ele>459.65</ele>
        <time>2015-10-04T11:11:45Z</time>
      </trkpt>
      <trkpt lat="42.97692" lon="2.57465">
        <ele>459.17</ele>
        <time>2015-10-04T11:11:46Z</time>
      </trkpt>
      <trkpt lat="42.97701" lon="2.57458">
        <ele>458.69</ele>
        <time>2015-10-04T11:11:47Z</time>
      </trkpt>
      <trkpt lat="42.9771" lon="2.57454">
        <ele>458.21</ele>
        <time>2015-10-04T11:11:48Z</time>
      </trkpt>
      <trkpt lat="42.97719" lon="2.57454">
        <ele>457.24</ele>
        <time>2015-10-04T11:11:49Z</time>
      </trkpt>
      <trkpt lat="42.97728" lon="2.5746">
        <ele>456.28</ele>
        <time>2015-10-04T11:11:50Z</time>
      </trkpt>
      <trkpt lat="42.97736" lon="2.57469">
        <ele>455.8</ele>
        <time>2015-10-04T11:11:51Z</time>
      </trkpt>
      <trkpt lat="42.97745" lon="2.57481">
        <ele>455.32</ele>
        <time>2015-10-04T11:11:52Z</time>
      </trkpt>
      <trkpt lat="42.97754" lon="2.57496">
        <ele>454.84</ele>
        <time>2015-10-04T11:11:53Z</time>
      </trkpt>
      <trkpt lat="42.97761" lon="2.57514">
        <ele>453.88</ele>
        <time>2015-10-04T11:11:54Z</time>
      </trkpt>
      <trkpt lat="42.97768" lon="2.57532">
        <ele>453.4</ele>
        <time>2015-10-04T11:11:55Z</time>
      </trkpt>
      <trkpt lat="42.97773" lon="2.5755">
        <ele>452.44</ele>
        <time>2015-10-04T11:11:56Z</time>
      </trkpt>
      <trkpt lat="42.97775" lon="2.57566">
        <ele>451.96</ele>
        <time>2015-10-04T11:11:57Z</time>
      </trkpt>
      <trkpt lat="42.97774" lon="2.57581">
        <ele>451.48</ele>
        <time>2015-10-04T11:11:58Z</time>
      </trkpt>
      <trkpt lat="42.97771" lon="2.57593">
        <ele>451</ele>
        <time>2015-10-04T11:11:59Z</time>
      </trkpt>
      <trkpt lat="42.97766" lon="2.57605">
        <ele>450.52</ele>
        <time>2015-10-04T11:12:00Z</time>
      </trkpt>
      <trkpt lat="42.97761" lon="2.57618">
        <ele>450.52</ele>
        <time>2015-10-04T11:12:01Z</time>
      </trkpt>
      <trkpt lat="42.97755" lon="2.57628">
        <ele>450.03</ele>
        <time>2015-10-04T11:12:02Z</time>
      </trkpt>
      <trkpt lat="42.97741" lon="2.5766">
        <ele>448.11</ele>
        <time>2015-10-04T11:12:05Z</time>
      </trkpt>
      <trkpt lat="42.9774" lon="2.57669">
        <ele>447.15</ele>
        <time>2015-10-04T11:12:06Z</time>
      </trkpt>
      <trkpt lat="42.97745" lon="2.57675">
        <ele>446.67</ele>
        <time>2015-10-04T11:12:07Z</time>
      </trkpt>
      <trkpt lat="42.97753" lon="2.57678">
        <ele>446.67</ele>
        <time>2015-10-04T11:12:08Z</time>
      </trkpt>
      <trkpt lat="42.97763" lon="2.57677">
        <ele>446.19</ele>
        <time>2015-10-04T11:12:09Z</time>
      </trkpt>
      <trkpt lat="42.97773" lon="2.57673">
        <ele>445.71</ele>
        <time>2015-10-04T11:12:10Z</time>
      </trkpt>
      <trkpt lat="42.97783" lon="2.57667">
        <ele>445.71</ele>
        <time>2015-10-04T11:12:11Z</time>
      </trkpt>
      <trkpt lat="42.97793" lon="2.57661">
        <ele>445.23</ele>
        <time>2015-10-04T11:12:12Z</time>
      </trkpt>
      <trkpt lat="42.97803" lon="2.57656">
        <ele>444.75</ele>
        <time>2015-10-04T11:12:13Z</time>
      </trkpt>
      <trkpt lat="42.97813" lon="2.57653">
        <ele>444.75</ele>
        <time>2015-10-04T11:12:14Z</time>
      </trkpt>
      <trkpt lat="42.97824" lon="2.57652">
        <ele>444.75</ele>
        <time>2015-10-04T11:12:15Z</time>
      </trkpt>
      <trkpt lat="42.97835" lon="2.57653">
        <ele>444.27</ele>
        <time>2015-10-04T11:12:16Z</time>
      </trkpt>
      <trkpt lat="42.97847" lon="2.57656">
        <ele>443.79</ele>
        <time>2015-10-04T11:12:17Z</time>
      </trkpt>
      <trkpt lat="42.97861" lon="2.57662">
        <ele>442.34</ele>
        <time>2015-10-04T11:12:18Z</time>
      </trkpt>
      <trkpt lat="42.97874" lon="2.57668">
        <ele>441.38</ele>
        <time>2015-10-04T11:12:19Z</time>
      </trkpt>
      <trkpt lat="42.97888" lon="2.57676">
        <ele>440.42</ele>
        <time>2015-10-04T11:12:20Z</time>
      </trkpt>
      <trkpt lat="42.979" lon="2.57684">
        <ele>439.94</ele>
        <time>2015-10-04T11:12:21Z</time>
      </trkpt>
      <trkpt lat="42.97949" lon="2.57709">
        <ele>437.54</ele>
        <time>2015-10-04T11:12:25Z</time>
      </trkpt>
      <trkpt lat="42.97961" lon="2.57712">
        <ele>437.06</ele>
        <time>2015-10-04T11:12:26Z</time>
      </trkpt>
      <trkpt lat="42.97973" lon="2.57711">
        <ele>436.58</ele>
        <time>2015-10-04T11:12:27Z</time>
      </trkpt>
      <trkpt lat="42.97986" lon="2.57708">
        <ele>436.1</ele>
        <time>2015-10-04T11:12:28Z</time>
      </trkpt>
      <trkpt lat="42.97999" lon="2.57703">
        <ele>435.13</ele>
        <time>2015-10-04T11:12:29Z</time>
      </trkpt>
      <trkpt lat="42.98012" lon="2.57698">
        <ele>434.65</ele>
        <time>2015-10-04T11:12:30Z</time>
      </trkpt>
      <trkpt lat="42.98076" lon="2.57665">
        <ele>431.29</ele>
        <time>2015-10-04T11:12:35Z</time>
      </trkpt>
      <trkpt lat="42.98088" lon="2.57655">
        <ele>431.29</ele>
        <time>2015-10-04T11:12:36Z</time>
      </trkpt>
      <trkpt lat="42.98139" lon="2.57615">
        <ele>433.21</ele>
        <time>2015-10-04T11:12:40Z</time>
      </trkpt>
      <trkpt lat="42.98154" lon="2.57609">
        <ele>433.69</ele>
        <time>2015-10-04T11:12:41Z</time>
      </trkpt>
      <trkpt lat="42.98167" lon="2.57606">
        <ele>434.17</ele>
        <time>2015-10-04T11:12:42Z</time>
      </trkpt>
      <trkpt lat="42.98179" lon="2.57605">
        <ele>434.17</ele>
        <time>2015-10-04T11:12:43Z</time>
      </trkpt>
      <trkpt lat="42.98189" lon="2.57604">
        <ele>434.65</ele>
        <time>2015-10-04T11:12:44Z</time>
      </trkpt>
      <trkpt lat="42.98199" lon="2.57601">
        <ele>435.61</ele>
        <time>2015-10-04T11:12:45Z</time>
      </trkpt>
      <trkpt lat="42.98206" lon="2.57595">
        <ele>435.61</ele>
        <time>2015-10-04T11:12:46Z</time>
      </trkpt>
      <trkpt lat="42.98212" lon="2.57586">
        <ele>436.58</ele>
        <time>2015-10-04T11:12:47Z</time>
      </trkpt>
      <trkpt lat="42.98218" lon="2.57575">
        <ele>437.06</ele>
        <time>2015-10-04T11:12:48Z</time>
      </trkpt>
      <trkpt lat="42.98225" lon="2.57563">
        <ele>437.54</ele>
        <time>2015-10-04T11:12:49Z</time>
      </trkpt>
      <trkpt lat="42.98247" lon="2.57523">
        <ele>439.46</ele>
        <time>2015-10-04T11:12:52Z</time>
      </trkpt>
      <trkpt lat="42.98269" lon="2.5748">
        <ele>441.38</ele>
        <time>2015-10-04T11:12:55Z</time>
      </trkpt>
      <trkpt lat="42.98279" lon="2.57469">
        <ele>441.86</ele>
        <time>2015-10-04T11:12:56Z</time>
      </trkpt>
      <trkpt lat="42.98291" lon="2.5746">
        <ele>442.34</ele>
        <time>2015-10-04T11:12:57Z</time>
      </trkpt>
      <trkpt lat="42.98302" lon="2.5745">
        <ele>443.31</ele>
        <time>2015-10-04T11:12:58Z</time>
      </trkpt>
      <trkpt lat="42.98313" lon="2.5744">
        <ele>443.79</ele>
        <time>2015-10-04T11:12:59Z</time>
      </trkpt>
      <trkpt lat="42.98324" lon="2.57428">
        <ele>444.27</ele>
        <time>2015-10-04T11:13:00Z</time>
      </trkpt>
      <trkpt lat="42.98333" lon="2.57416">
        <ele>444.75</ele>
        <time>2015-10-04T11:13:01Z</time>
      </trkpt>
      <trkpt lat="42.98343" lon="2.57405">
        <ele>445.23</ele>
        <time>2015-10-04T11:13:02Z</time>
      </trkpt>
      <trkpt lat="42.98354" lon="2.57397">
        <ele>446.19</ele>
        <time>2015-10-04T11:13:03Z</time>
      </trkpt>
      <trkpt lat="42.98365" lon="2.57392">
        <ele>446.67</ele>
        <time>2015-10-04T11:13:04Z</time>
      </trkpt>
      <trkpt lat="42.98378" lon="2.57391">
        <ele>447.63</ele>
        <time>2015-10-04T11:13:05Z</time>
      </trkpt>
      <trkpt lat="42.98392" lon="2.57391">
        <ele>448.11</ele>
        <time>2015-10-04T11:13:06Z</time>
      </trkpt>
      <trkpt lat="42.98406" lon="2.57395">
        <ele>448.59</ele>
        <time>2015-10-04T11:13:07Z</time>
      </trkpt>
      <trkpt lat="42.98419" lon="2.57401">
        <ele>449.55</ele>
        <time>2015-10-04T11:13:08Z</time>
      </trkpt>
      <trkpt lat="42.98433" lon="2.5741">
        <ele>450.03</ele>
        <time>2015-10-04T11:13:09Z</time>
      </trkpt>
      <trkpt lat="42.98445" lon="2.5742">
        <ele>450.52</ele>
        <time>2015-10-04T11:13:10Z</time>
      </trkpt>
      <trkpt lat="42.98457" lon="2.57432">
        <ele>451</ele>
        <time>2015-10-04T11:13:11Z</time>
      </trkpt>
      <trkpt lat="42.98468" lon="2.57446">
        <ele>451.48</ele>
        <time>2015-10-04T11:13:12Z</time>
      </trkpt>
      <trkpt lat="42.98477" lon="2.57461">
        <ele>451.96</ele>
        <time>2015-10-04T11:13:13Z</time>
      </trkpt>
      <trkpt lat="42.98486" lon="2.57476">
        <ele>451.96</ele>
        <time>2015-10-04T11:13:14Z</time>
      </trkpt>
      <trkpt lat="42.98501" lon="2.57502">
        <ele>452.92</ele>
        <time>2015-10-04T11:13:16Z</time>
      </trkpt>
      <trkpt lat="42.9851" lon="2.5751">
        <ele>452.92</ele>
        <time>2015-10-04T11:13:17Z</time>
      </trkpt>
      <trkpt lat="42.98521" lon="2.57516">
        <ele>453.4</ele>
        <time>2015-10-04T11:13:18Z</time>
      </trkpt>
      <trkpt lat="42.98532" lon="2.5752">
        <ele>453.88</ele>
        <time>2015-10-04T11:13:19Z</time>
      </trkpt>
      <trkpt lat="42.98544" lon="2.57523">
        <ele>453.88</ele>
        <time>2015-10-04T11:13:20Z</time>
      </trkpt>
      <trkpt lat="42.98555" lon="2.57525">
        <ele>454.36</ele>
        <time>2015-10-04T11:13:21Z</time>
      </trkpt>
      <trkpt lat="42.98565" lon="2.57523">
        <ele>454.84</ele>
        <time>2015-10-04T11:13:22Z</time>
      </trkpt>
      <trkpt lat="42.98576" lon="2.57514">
        <ele>454.84</ele>
        <time>2015-10-04T11:13:23Z</time>
      </trkpt>
      <trkpt lat="42.98585" lon="2.57503">
        <ele>455.32</ele>
        <time>2015-10-04T11:13:24Z</time>
      </trkpt>
      <trkpt lat="42.98594" lon="2.57491">
        <ele>455.8</ele>
        <time>2015-10-04T11:13:25Z</time>
      </trkpt>
      <trkpt lat="42.98603" lon="2.57479">
        <ele>455.8</ele>
        <time>2015-10-04T11:13:26Z</time>
      </trkpt>
      <trkpt lat="42.98609" lon="2.57466">
        <ele>456.28</ele>
        <time>2015-10-04T11:13:27Z</time>
      </trkpt>
      <trkpt lat="42.98614" lon="2.57452">
        <ele>456.28</ele>
        <time>2015-10-04T11:13:28Z</time>
      </trkpt>
      <trkpt lat="42.98619" lon="2.5744">
        <ele>456.28</ele>
        <time>2015-10-04T11:13:29Z</time>
      </trkpt>
      <trkpt lat="42.98624" lon="2.5743">
        <ele>456.76</ele>
        <time>2015-10-04T11:13:30Z</time>
      </trkpt>
      <trkpt lat="42.98631" lon="2.57423">
        <ele>456.76</ele>
        <time>2015-10-04T11:13:31Z</time>
      </trkpt>
      <trkpt lat="42.98639" lon="2.57419">
        <ele>456.76</ele>
        <time>2015-10-04T11:13:32Z</time>
      </trkpt>
      <trkpt lat="42.98647" lon="2.57418">
        <ele>457.24</ele>
        <time>2015-10-04T11:13:33Z</time>
      </trkpt>
      <trkpt lat="42.98656" lon="2.5742">
        <ele>457.24</ele>
        <time>2015-10-04T11:13:34Z</time>
      </trkpt>
      <trkpt lat="42.98666" lon="2.57425">
        <ele>457.72</ele>
        <time>2015-10-04T11:13:35Z</time>
      </trkpt>
      <trkpt lat="42.98675" lon="2.57432">
        <ele>458.21</ele>
        <time>2015-10-04T11:13:36Z</time>
      </trkpt>
      <trkpt lat="42.98685" lon="2.57441">
        <ele>458.69</ele>
        <time>2015-10-04T11:13:37Z</time>
      </trkpt>
      <trkpt lat="42.98695" lon="2.57452">
        <ele>459.65</ele>
        <time>2015-10-04T11:13:38Z</time>
      </trkpt>
      <trkpt lat="42.98705" lon="2.57464">
        <ele>460.61</ele>
        <time>2015-10-04T11:13:39Z</time>
      </trkpt>
      <trkpt lat="42.98714" lon="2.57478">
        <ele>461.57</ele>
        <time>2015-10-04T11:13:40Z</time>
      </trkpt>
      <trkpt lat="42.98775" lon="2.57558">
        <ele>466.38</ele>
        <time>2015-10-04T11:13:46Z</time>
      </trkpt>
      <trkpt lat="42.98789" lon="2.57568">
        <ele>467.34</ele>
        <time>2015-10-04T11:13:47Z</time>
      </trkpt>
      <trkpt lat="42.98803" lon="2.57576">
        <ele>468.3</ele>
        <time>2015-10-04T11:13:48Z</time>
      </trkpt>
      <trkpt lat="42.98819" lon="2.57583">
        <ele>469.74</ele>
        <time>2015-10-04T11:13:49Z</time>
      </trkpt>
      <trkpt lat="42.98835" lon="2.57588">
        <ele>470.7</ele>
        <time>2015-10-04T11:13:50Z</time>
      </trkpt>
      <trkpt lat="42.98851" lon="2.57591">
        <ele>471.66</ele>
        <time>2015-10-04T11:13:51Z</time>
      </trkpt>
      <trkpt lat="42.98893" lon="2.57602">
        <ele>474.55</ele>
        <time>2015-10-04T11:13:54Z</time>
      </trkpt>
      <trkpt lat="42.98906" lon="2.57609">
        <ele>475.51</ele>
        <time>2015-10-04T11:13:55Z</time>
      </trkpt>
      <trkpt lat="42.98918" lon="2.57618">
        <ele>476.47</ele>
        <time>2015-10-04T11:13:56Z</time>
      </trkpt>
      <trkpt lat="42.9895" lon="2.57646">
        <ele>478.87</ele>
        <time>2015-10-04T11:13:59Z</time>
      </trkpt>
      <trkpt lat="42.98963" lon="2.57652">
        <ele>479.84</ele>
        <time>2015-10-04T11:14:00Z</time>
      </trkpt>
      <trkpt lat="42.98975" lon="2.57656">
        <ele>480.8</ele>
        <time>2015-10-04T11:14:01Z</time>
      </trkpt>
      <trkpt lat="42.98988" lon="2.57658">
        <ele>481.76</ele>
        <time>2015-10-04T11:14:02Z</time>
      </trkpt>
      <trkpt lat="42.99" lon="2.5766">
        <ele>482.72</ele>
        <time>2015-10-04T11:14:03Z</time>
      </trkpt>
      <trkpt lat="42.99023" lon="2.57666">
        <ele>484.16</ele>
        <time>2015-10-04T11:14:05Z</time>
      </trkpt>
      <trkpt lat="42.99033" lon="2.57673">
        <ele>484.64</ele>
        <time>2015-10-04T11:14:06Z</time>
      </trkpt>
      <trkpt lat="42.99042" lon="2.57683">
        <ele>485.12</ele>
        <time>2015-10-04T11:14:07Z</time>
      </trkpt>
      <trkpt lat="42.9905" lon="2.57696">
        <ele>485.6</ele>
        <time>2015-10-04T11:14:08Z</time>
      </trkpt>
      <trkpt lat="42.99057" lon="2.57713">
        <ele>486.08</ele>
        <time>2015-10-04T11:14:09Z</time>
      </trkpt>
      <trkpt lat="42.99062" lon="2.57731">
        <ele>487.53</ele>
        <time>2015-10-04T11:14:10Z</time>
      </trkpt>
      <trkpt lat="42.99067" lon="2.57749">
        <ele>488.01</ele>
        <time>2015-10-04T11:14:11Z</time>
      </trkpt>
      <trkpt lat="42.99084" lon="2.57798">
        <ele>491.37</ele>
        <time>2015-10-04T11:14:14Z</time>
      </trkpt>
      <trkpt lat="42.99092" lon="2.57812">
        <ele>492.33</ele>
        <time>2015-10-04T11:14:15Z</time>
      </trkpt>
      <trkpt lat="42.99101" lon="2.57825">
        <ele>493.29</ele>
        <time>2015-10-04T11:14:16Z</time>
      </trkpt>
      <trkpt lat="42.99111" lon="2.57836">
        <ele>494.26</ele>
        <time>2015-10-04T11:14:17Z</time>
      </trkpt>
      <trkpt lat="42.99122" lon="2.57846">
        <ele>495.22</ele>
        <time>2015-10-04T11:14:18Z</time>
      </trkpt>
      <trkpt lat="42.99133" lon="2.57855">
        <ele>495.7</ele>
        <time>2015-10-04T11:14:19Z</time>
      </trkpt>
      <trkpt lat="42.99144" lon="2.57862">
        <ele>496.66</ele>
        <time>2015-10-04T11:14:20Z</time>
      </trkpt>
      <trkpt lat="42.99157" lon="2.57863">
        <ele>497.62</ele>
        <time>2015-10-04T11:14:21Z</time>
      </trkpt>
      <trkpt lat="42.99169" lon="2.57862">
        <ele>498.58</ele>
        <time>2015-10-04T11:14:22Z</time>
      </trkpt>
      <trkpt lat="42.99179" lon="2.57855">
        <ele>499.06</ele>
        <time>2015-10-04T11:14:23Z</time>
      </trkpt>
      <trkpt lat="42.99187" lon="2.57848">
        <ele>499.06</ele>
        <time>2015-10-04T11:14:24Z</time>
      </trkpt>
      <trkpt lat="42.99194" lon="2.57841">
        <ele>499.06</ele>
        <time>2015-10-04T11:14:25Z</time>
      </trkpt>
      <trkpt lat="42.992" lon="2.57837">
        <ele>500.02</ele>
        <time>2015-10-04T11:14:26Z</time>
      </trkpt>
      <trkpt lat="42.99206" lon="2.57839">
        <ele>500.02</ele>
        <time>2015-10-04T11:14:27Z</time>
      </trkpt>
      <trkpt lat="42.99211" lon="2.57845">
        <ele>500.98</ele>
        <time>2015-10-04T11:14:28Z</time>
      </trkpt>
      <trkpt lat="42.99214" lon="2.57853">
        <ele>501.95</ele>
        <time>2015-10-04T11:14:29Z</time>
      </trkpt>
      <trkpt lat="42.99217" lon="2.57864">
        <ele>501.95</ele>
        <time>2015-10-04T11:14:30Z</time>
      </trkpt>
      <trkpt lat="42.9922" lon="2.57876">
        <ele>502.43</ele>
        <time>2015-10-04T11:14:31Z</time>
      </trkpt>
      <trkpt lat="42.99225" lon="2.57888">
        <ele>503.39</ele>
        <time>2015-10-04T11:14:32Z</time>
      </trkpt>
      <trkpt lat="42.9923" lon="2.57902">
        <ele>503.87</ele>
        <time>2015-10-04T11:14:33Z</time>
      </trkpt>
      <trkpt lat="42.99244" lon="2.57927">
        <ele>505.31</ele>
        <time>2015-10-04T11:14:35Z</time>
      </trkpt>
      <trkpt lat="42.99252" lon="2.57937">
        <ele>506.27</ele>
        <time>2015-10-04T11:14:36Z</time>
      </trkpt>
      <trkpt lat="42.99263" lon="2.57945">
        <ele>506.75</ele>
        <time>2015-10-04T11:14:37Z</time>
      </trkpt>
      <trkpt lat="42.99275" lon="2.57951">
        <ele>507.23</ele>
        <time>2015-10-04T11:14:38Z</time>
      </trkpt>
      <trkpt lat="42.99288" lon="2.57957">
        <ele>507.71</ele>
        <time>2015-10-04T11:14:39Z</time>
      </trkpt>
      <trkpt lat="42.99396" lon="2.58019">
        <ele>514.92</ele>
        <time>2015-10-04T11:14:47Z</time>
      </trkpt>
      <trkpt lat="42.99442" lon="2.58066">
        <ele>518.77</ele>
        <time>2015-10-04T11:14:51Z</time>
      </trkpt>
      <trkpt lat="42.99453" lon="2.58081">
        <ele>519.25</ele>
        <time>2015-10-04T11:14:52Z</time>
      </trkpt>
      <trkpt lat="42.99505" lon="2.58165">
        <ele>520.21</ele>
        <time>2015-10-04T11:14:59Z</time>
      </trkpt>
      <trkpt lat="42.99529" lon="2.58194">
        <ele>519.25</ele>
        <time>2015-10-04T11:15:02Z</time>
      </trkpt>
      <trkpt lat="42.99539" lon="2.58201">
        <ele>518.77</ele>
        <time>2015-10-04T11:15:03Z</time>
      </trkpt>
      <trkpt lat="42.9955" lon="2.58205">
        <ele>518.29</ele>
        <time>2015-10-04T11:15:04Z</time>
      </trkpt>
      <trkpt lat="42.99562" lon="2.58206">
        <ele>517.81</ele>
        <time>2015-10-04T11:15:05Z</time>
      </trkpt>
      <trkpt lat="42.99575" lon="2.58204">
        <ele>517.33</ele>
        <time>2015-10-04T11:15:06Z</time>
      </trkpt>
      <trkpt lat="42.99588" lon="2.582">
        <ele>516.85</ele>
        <time>2015-10-04T11:15:07Z</time>
      </trkpt>
      <trkpt lat="42.996" lon="2.58192">
        <ele>515.88</ele>
        <time>2015-10-04T11:15:08Z</time>
      </trkpt>
      <trkpt lat="42.99613" lon="2.58183">
        <ele>514.92</ele>
        <time>2015-10-04T11:15:09Z</time>
      </trkpt>
      <trkpt lat="42.99624" lon="2.58173">
        <ele>513.96</ele>
        <time>2015-10-04T11:15:10Z</time>
      </trkpt>
      <trkpt lat="42.99635" lon="2.58163">
        <ele>513.48</ele>
        <time>2015-10-04T11:15:11Z</time>
      </trkpt>
      <trkpt lat="42.99645" lon="2.58152">
        <ele>513</ele>
        <time>2015-10-04T11:15:12Z</time>
      </trkpt>
      <trkpt lat="42.99665" lon="2.5813">
        <ele>511.56</ele>
        <time>2015-10-04T11:15:14Z</time>
      </trkpt>
      <trkpt lat="42.99676" lon="2.58123">
        <ele>511.08</ele>
        <time>2015-10-04T11:15:15Z</time>
      </trkpt>
      <trkpt lat="42.99687" lon="2.58119">
        <ele>510.6</ele>
        <time>2015-10-04T11:15:16Z</time>
      </trkpt>
      <trkpt lat="42.99699" lon="2.58118">
        <ele>510.12</ele>
        <time>2015-10-04T11:15:17Z</time>
      </trkpt>
      <trkpt lat="42.99709" lon="2.58122">
        <ele>509.64</ele>
        <time>2015-10-04T11:15:18Z</time>
      </trkpt>
      <trkpt lat="42.99719" lon="2.58127">
        <ele>509.64</ele>
        <time>2015-10-04T11:15:19Z</time>
      </trkpt>
      <trkpt lat="42.99728" lon="2.58134">
        <ele>509.64</ele>
        <time>2015-10-04T11:15:20Z</time>
      </trkpt>
      <trkpt lat="42.99757" lon="2.58147">
        <ele>509.16</ele>
        <time>2015-10-04T11:15:23Z</time>
      </trkpt>
      <trkpt lat="42.99766" lon="2.58145">
        <ele>508.67</ele>
        <time>2015-10-04T11:15:24Z</time>
      </trkpt>
      <trkpt lat="42.99774" lon="2.58138">
        <ele>508.19</ele>
        <time>2015-10-04T11:15:25Z</time>
      </trkpt>
      <trkpt lat="42.99779" lon="2.58126">
        <ele>507.23</ele>
        <time>2015-10-04T11:15:26Z</time>
      </trkpt>
      <trkpt lat="42.99781" lon="2.58109">
        <ele>506.75</ele>
        <time>2015-10-04T11:15:27Z</time>
      </trkpt>
      <trkpt lat="42.9978" lon="2.58092">
        <ele>505.79</ele>
        <time>2015-10-04T11:15:28Z</time>
      </trkpt>
      <trkpt lat="42.99781" lon="2.58075">
        <ele>505.31</ele>
        <time>2015-10-04T11:15:29Z</time>
      </trkpt>
      <trkpt lat="42.99784" lon="2.5806">
        <ele>504.83</ele>
        <time>2015-10-04T11:15:30Z</time>
      </trkpt>
      <trkpt lat="42.9979" lon="2.58046">
        <ele>504.35</ele>
        <time>2015-10-04T11:15:31Z</time>
      </trkpt>
      <trkpt lat="42.99798" lon="2.58035">
        <ele>503.39</ele>
        <time>2015-10-04T11:15:32Z</time>
      </trkpt>
      <trkpt lat="42.99807" lon="2.58023">
        <ele>502.91</ele>
        <time>2015-10-04T11:15:33Z</time>
      </trkpt>
      <trkpt lat="42.99826" lon="2.58004">
        <ele>501.95</ele>
        <time>2015-10-04T11:15:35Z</time>
      </trkpt>
      <trkpt lat="42.99836" lon="2.57998">
        <ele>501.46</ele>
        <time>2015-10-04T11:15:36Z</time>
      </trkpt>
      <trkpt lat="42.99846" lon="2.57991">
        <ele>500.5</ele>
        <time>2015-10-04T11:15:37Z</time>
      </trkpt>
      <trkpt lat="42.99855" lon="2.57982">
        <ele>500.02</ele>
        <time>2015-10-04T11:15:38Z</time>
      </trkpt>
      <trkpt lat="42.99861" lon="2.5797">
        <ele>499.54</ele>
        <time>2015-10-04T11:15:39Z</time>
      </trkpt>
      <trkpt lat="42.99866" lon="2.57956">
        <ele>499.06</ele>
        <time>2015-10-04T11:15:40Z</time>
      </trkpt>
      <trkpt lat="42.99871" lon="2.57941">
        <ele>498.1</ele>
        <time>2015-10-04T11:15:41Z</time>
      </trkpt>
      <trkpt lat="42.99878" lon="2.57927">
        <ele>497.62</ele>
        <time>2015-10-04T11:15:42Z</time>
      </trkpt>
      <trkpt lat="42.99887" lon="2.57916">
        <ele>497.14</ele>
        <time>2015-10-04T11:15:43Z</time>
      </trkpt>
      <trkpt lat="42.99898" lon="2.57906">
        <ele>496.66</ele>
        <time>2015-10-04T11:15:44Z</time>
      </trkpt>
      <trkpt lat="42.99908" lon="2.57896">
        <ele>496.18</ele>
        <time>2015-10-04T11:15:45Z</time>
      </trkpt>
      <trkpt lat="42.99918" lon="2.57883">
        <ele>495.7</ele>
        <time>2015-10-04T11:15:46Z</time>
      </trkpt>
      <trkpt lat="42.99926" lon="2.57869">
        <ele>495.22</ele>
        <time>2015-10-04T11:15:47Z</time>
      </trkpt>
      <trkpt lat="42.99934" lon="2.57854">
        <ele>494.26</ele>
        <time>2015-10-04T11:15:48Z</time>
      </trkpt>
      <trkpt lat="42.99944" lon="2.57841">
        <ele>493.77</ele>
        <time>2015-10-04T11:15:49Z</time>
      </trkpt>
      <trkpt lat="42.99954" lon="2.57829">
        <ele>493.29</ele>
        <time>2015-10-04T11:15:50Z</time>
      </trkpt>
      <trkpt lat="42.99965" lon="2.5782">
        <ele>492.81</ele>
        <time>2015-10-04T11:15:51Z</time>
      </trkpt>
      <trkpt lat="42.99977" lon="2.57815">
        <ele>492.33</ele>
        <time>2015-10-04T11:15:52Z</time>
      </trkpt>
      <trkpt lat="42.99988" lon="2.57815">
        <ele>491.37</ele>
        <time>2015-10-04T11:15:53Z</time>
      </trkpt>
      <trkpt lat="42.99998" lon="2.57821">
        <ele>490.41</ele>
        <time>2015-10-04T11:15:54Z</time>
      </trkpt>
      <trkpt lat="43.00011" lon="2.5784">
        <ele>489.45</ele>
        <time>2015-10-04T11:15:56Z</time>
      </trkpt>
      <trkpt lat="43.00015" lon="2.57851">
        <ele>489.45</ele>
        <time>2015-10-04T11:15:57Z</time>
      </trkpt>
      <trkpt lat="43.0002" lon="2.57861">
        <ele>489.93</ele>
        <time>2015-10-04T11:15:58Z</time>
      </trkpt>
      <trkpt lat="43.00025" lon="2.5787">
        <ele>489.93</ele>
        <time>2015-10-04T11:15:59Z</time>
      </trkpt>
      <trkpt lat="43.00031" lon="2.57875">
        <ele>489.45</ele>
        <time>2015-10-04T11:16:00Z</time>
      </trkpt>
      <trkpt lat="43.00039" lon="2.57874">
        <ele>489.45</ele>
        <time>2015-10-04T11:16:01Z</time>
      </trkpt>
      <trkpt lat="43.00048" lon="2.5787">
        <ele>488.97</ele>
        <time>2015-10-04T11:16:02Z</time>
      </trkpt>
      <trkpt lat="43.00057" lon="2.57861">
        <ele>488.97</ele>
        <time>2015-10-04T11:16:03Z</time>
      </trkpt>
      <trkpt lat="43.00064" lon="2.57848">
        <ele>488.49</ele>
        <time>2015-10-04T11:16:04Z</time>
      </trkpt>
      <trkpt lat="43.00071" lon="2.57836">
        <ele>488.01</ele>
        <time>2015-10-04T11:16:05Z</time>
      </trkpt>
      <trkpt lat="43.00108" lon="2.57775">
        <ele>485.6</ele>
        <time>2015-10-04T11:16:10Z</time>
      </trkpt>
      <trkpt lat="43.00115" lon="2.5776">
        <ele>485.12</ele>
        <time>2015-10-04T11:16:11Z</time>
      </trkpt>
      <trkpt lat="43.00168" lon="2.57576">
        <ele>480.8</ele>
        <time>2015-10-04T11:16:21Z</time>
      </trkpt>
      <trkpt lat="43.00173" lon="2.57559">
        <ele>480.8</ele>
        <time>2015-10-04T11:16:22Z</time>
      </trkpt>
      <trkpt lat="43.00179" lon="2.57542">
        <ele>480.32</ele>
        <time>2015-10-04T11:16:23Z</time>
      </trkpt>
      <trkpt lat="43.00187" lon="2.57529">
        <ele>480.32</ele>
        <time>2015-10-04T11:16:24Z</time>
      </trkpt>
      <trkpt lat="43.00197" lon="2.57517">
        <ele>479.84</ele>
        <time>2015-10-04T11:16:25Z</time>
      </trkpt>
      <trkpt lat="43.00207" lon="2.57509">
        <ele>479.35</ele>
        <time>2015-10-04T11:16:26Z</time>
      </trkpt>
      <trkpt lat="43.00219" lon="2.57504">
        <ele>478.87</ele>
        <time>2015-10-04T11:16:27Z</time>
      </trkpt>
      <trkpt lat="43.0023" lon="2.57504">
        <ele>478.39</ele>
        <time>2015-10-04T11:16:28Z</time>
      </trkpt>
      <trkpt lat="43.00241" lon="2.57505">
        <ele>478.39</ele>
        <time>2015-10-04T11:16:29Z</time>
      </trkpt>
      <trkpt lat="43.00252" lon="2.57504">
        <ele>478.39</ele>
        <time>2015-10-04T11:16:30Z</time>
      </trkpt>
      <trkpt lat="43.00263" lon="2.575">
        <ele>477.91</ele>
        <time>2015-10-04T11:16:31Z</time>
      </trkpt>
      <trkpt lat="43.00272" lon="2.57492">
        <ele>477.43</ele>
        <time>2015-10-04T11:16:32Z</time>
      </trkpt>
      <trkpt lat="43.0028" lon="2.57482">
        <ele>476.95</ele>
        <time>2015-10-04T11:16:33Z</time>
      </trkpt>
      <trkpt lat="43.00286" lon="2.57473">
        <ele>476.47</ele>
        <time>2015-10-04T11:16:34Z</time>
      </trkpt>
      <trkpt lat="43.00299" lon="2.57452">
        <ele>474.55</ele>
        <time>2015-10-04T11:16:37Z</time>
      </trkpt>
      <trkpt lat="43.00302" lon="2.57445">
        <ele>473.59</ele>
        <time>2015-10-04T11:16:38Z</time>
      </trkpt>
      <trkpt lat="43.00303" lon="2.57436">
        <ele>473.11</ele>
        <time>2015-10-04T11:16:39Z</time>
      </trkpt>
      <trkpt lat="43.00301" lon="2.57428">
        <ele>471.66</ele>
        <time>2015-10-04T11:16:40Z</time>
      </trkpt>
      <trkpt lat="43.00296" lon="2.57422">
        <ele>471.18</ele>
        <time>2015-10-04T11:16:41Z</time>
      </trkpt>
      <trkpt lat="43.00289" lon="2.57418">
        <ele>470.22</ele>
        <time>2015-10-04T11:16:42Z</time>
      </trkpt>
      <trkpt lat="43.00282" lon="2.57415">
        <ele>469.74</ele>
        <time>2015-10-04T11:16:43Z</time>
      </trkpt>
      <trkpt lat="43.00273" lon="2.57412">
        <ele>468.78</ele>
        <time>2015-10-04T11:16:44Z</time>
      </trkpt>
      <trkpt lat="43.00201" lon="2.57372">
        <ele>463.49</ele>
        <time>2015-10-04T11:16:51Z</time>
      </trkpt>
      <trkpt lat="43.00193" lon="2.57366">
        <ele>463.01</ele>
        <time>2015-10-04T11:16:52Z</time>
      </trkpt>
      <trkpt lat="43.00184" lon="2.57363">
        <ele>462.05</ele>
        <time>2015-10-04T11:16:53Z</time>
      </trkpt>
      <trkpt lat="43.00176" lon="2.57363">
        <ele>461.09</ele>
        <time>2015-10-04T11:16:54Z</time>
      </trkpt>
      <trkpt lat="43.00168" lon="2.57367">
        <ele>460.13</ele>
        <time>2015-10-04T11:16:55Z</time>
      </trkpt>
      <trkpt lat="43.00161" lon="2.57373">
        <ele>459.65</ele>
        <time>2015-10-04T11:16:56Z</time>
      </trkpt>
      <trkpt lat="43.00154" lon="2.57382">
        <ele>458.69</ele>
        <time>2015-10-04T11:16:57Z</time>
      </trkpt>
      <trkpt lat="43.00147" lon="2.57391">
        <ele>457.72</ele>
        <time>2015-10-04T11:16:58Z</time>
      </trkpt>
      <trkpt lat="43.00074" lon="2.57503">
        <ele>449.07</ele>
        <time>2015-10-04T11:17:07Z</time>
      </trkpt>
      <trkpt lat="43.00055" lon="2.57544">
        <ele>446.67</ele>
        <time>2015-10-04T11:17:10Z</time>
      </trkpt>
      <trkpt lat="43.00051" lon="2.57558">
        <ele>445.23</ele>
        <time>2015-10-04T11:17:11Z</time>
      </trkpt>
      <trkpt lat="43.00052" lon="2.57576">
        <ele>444.27</ele>
        <time>2015-10-04T11:17:12Z</time>
      </trkpt>
      <trkpt lat="43.00055" lon="2.5759">
        <ele>443.31</ele>
        <time>2015-10-04T11:17:13Z</time>
      </trkpt>
      <trkpt lat="43.00059" lon="2.57604">
        <ele>442.34</ele>
        <time>2015-10-04T11:17:14Z</time>
      </trkpt>
      <trkpt lat="43.00061" lon="2.57617">
        <ele>441.86</ele>
        <time>2015-10-04T11:17:15Z</time>
      </trkpt>
      <trkpt lat="43.00062" lon="2.57631">
        <ele>440.9</ele>
        <time>2015-10-04T11:17:16Z</time>
      </trkpt>
      <trkpt lat="43.00061" lon="2.57644">
        <ele>439.94</ele>
        <time>2015-10-04T11:17:17Z</time>
      </trkpt>
      <trkpt lat="43.00059" lon="2.57655">
        <ele>439.46</ele>
        <time>2015-10-04T11:17:18Z</time>
      </trkpt>
      <trkpt lat="43.00056" lon="2.57663">
        <ele>438.98</ele>
        <time>2015-10-04T11:17:19Z</time>
      </trkpt>
      <trkpt lat="43.00052" lon="2.5767">
        <ele>438.02</ele>
        <time>2015-10-04T11:17:20Z</time>
      </trkpt>
      <trkpt lat="43.00046" lon="2.57673">
        <ele>437.54</ele>
        <time>2015-10-04T11:17:21Z</time>
      </trkpt>
      <trkpt lat="43.00039" lon="2.57671">
        <ele>437.06</ele>
        <time>2015-10-04T11:17:22Z</time>
      </trkpt>
      <trkpt lat="43.00032" lon="2.57666">
        <ele>436.58</ele>
        <time>2015-10-04T11:17:23Z</time>
      </trkpt>
      <trkpt lat="43.00025" lon="2.57658">
        <ele>436.1</ele>
        <time>2015-10-04T11:17:24Z</time>
      </trkpt>
      <trkpt lat="43.00019" lon="2.57649">
        <ele>435.61</ele>
        <time>2015-10-04T11:17:25Z</time>
      </trkpt>
      <trkpt lat="43.00012" lon="2.57642">
        <ele>435.13</ele>
        <time>2015-10-04T11:17:26Z</time>
      </trkpt>
      <trkpt lat="43.00004" lon="2.57637">
        <ele>434.65</ele>
        <time>2015-10-04T11:17:27Z</time>
      </trkpt>
      <trkpt lat="42.99987" lon="2.57636">
        <ele>433.21</ele>
        <time>2015-10-04T11:17:29Z</time>
      </trkpt>
      <trkpt lat="42.99977" lon="2.5764">
        <ele>432.25</ele>
        <time>2015-10-04T11:17:30Z</time>
      </trkpt>
      <trkpt lat="42.99968" lon="2.57648">
        <ele>431.29</ele>
        <time>2015-10-04T11:17:31Z</time>
      </trkpt>
      <trkpt lat="42.99959" lon="2.57657">
        <ele>430.33</ele>
        <time>2015-10-04T11:17:32Z</time>
      </trkpt>
      <trkpt lat="42.9995" lon="2.57667">
        <ele>428.89</ele>
        <time>2015-10-04T11:17:33Z</time>
      </trkpt>
      <trkpt lat="42.99918" lon="2.57694">
        <ele>425.52</ele>
        <time>2015-10-04T11:17:37Z</time>
      </trkpt>
      <trkpt lat="42.99912" lon="2.57695">
        <ele>425.52</ele>
        <time>2015-10-04T11:17:38Z</time>
      </trkpt>
      <trkpt lat="42.99907" lon="2.57693">
        <ele>424.56</ele>
        <time>2015-10-04T11:17:39Z</time>
      </trkpt>
      <trkpt lat="42.99904" lon="2.57686">
        <ele>424.56</ele>
        <time>2015-10-04T11:17:40Z</time>
      </trkpt>
      <trkpt lat="42.99903" lon="2.57678">
        <ele>424.08</ele>
        <time>2015-10-04T11:17:41Z</time>
      </trkpt>
      <trkpt lat="42.99906" lon="2.5767">
        <ele>423.6</ele>
        <time>2015-10-04T11:17:42Z</time>
      </trkpt>
      <trkpt lat="42.99911" lon="2.57661">
        <ele>423.12</ele>
        <time>2015-10-04T11:17:43Z</time>
      </trkpt>
      <trkpt lat="42.99918" lon="2.57651">
        <ele>422.64</ele>
        <time>2015-10-04T11:17:44Z</time>
      </trkpt>
      <trkpt lat="42.99926" lon="2.57639">
        <ele>422.16</ele>
        <time>2015-10-04T11:17:45Z</time>
      </trkpt>
      <trkpt lat="42.99934" lon="2.57625">
        <ele>421.19</ele>
        <time>2015-10-04T11:17:46Z</time>
      </trkpt>
      <trkpt lat="42.99941" lon="2.57611">
        <ele>420.71</ele>
        <time>2015-10-04T11:17:47Z</time>
      </trkpt>
      <trkpt lat="42.99976" lon="2.57539">
        <ele>416.87</ele>
        <time>2015-10-04T11:17:52Z</time>
      </trkpt>
      <trkpt lat="42.9998" lon="2.57525">
        <ele>416.39</ele>
        <time>2015-10-04T11:17:53Z</time>
      </trkpt>
      <trkpt lat="42.99984" lon="2.57509">
        <ele>415.43</ele>
        <time>2015-10-04T11:17:54Z</time>
      </trkpt>
      <trkpt lat="42.99989" lon="2.57493">
        <ele>414.47</ele>
        <time>2015-10-04T11:17:55Z</time>
      </trkpt>
      <trkpt lat="42.99994" lon="2.57476">
        <ele>413.5</ele>
        <time>2015-10-04T11:17:56Z</time>
      </trkpt>
      <trkpt lat="43.00001" lon="2.57459">
        <ele>412.54</ele>
        <time>2015-10-04T11:17:57Z</time>
      </trkpt>
      <trkpt lat="43.00022" lon="2.57378">
        <ele>407.74</ele>
        <time>2015-10-04T11:18:02Z</time>
      </trkpt>
      <trkpt lat="43.00027" lon="2.57363">
        <ele>406.77</ele>
        <time>2015-10-04T11:18:03Z</time>
      </trkpt>
      <trkpt lat="43.00034" lon="2.57352">
        <ele>405.81</ele>
        <time>2015-10-04T11:18:04Z</time>
      </trkpt>
      <trkpt lat="43.00048" lon="2.57332">
        <ele>403.89</ele>
        <time>2015-10-04T11:18:06Z</time>
      </trkpt>
      <trkpt lat="43.00053" lon="2.5732">
        <ele>402.93</ele>
        <time>2015-10-04T11:18:07Z</time>
      </trkpt>
      <trkpt lat="43.00058" lon="2.57306">
        <ele>402.45</ele>
        <time>2015-10-04T11:18:08Z</time>
      </trkpt>
      <trkpt lat="43.00063" lon="2.5729">
        <ele>401.49</ele>
        <time>2015-10-04T11:18:09Z</time>
      </trkpt>
      <trkpt lat="43.00067" lon="2.57273">
        <ele>400.53</ele>
        <time>2015-10-04T11:18:10Z</time>
      </trkpt>
      <trkpt lat="43.00081" lon="2.57225">
        <ele>398.6</ele>
        <time>2015-10-04T11:18:13Z</time>
      </trkpt>
      <trkpt lat="43.00088" lon="2.57211">
        <ele>398.12</ele>
        <time>2015-10-04T11:18:14Z</time>
      </trkpt>
      <trkpt lat="43.00108" lon="2.57171">
        <ele>395.24</ele>
        <time>2015-10-04T11:18:17Z</time>
      </trkpt>
      <trkpt lat="43.00113" lon="2.57155">
        <ele>394.28</ele>
        <time>2015-10-04T11:18:18Z</time>
      </trkpt>
      <trkpt lat="43.00116" lon="2.57137">
        <ele>393.8</ele>
        <time>2015-10-04T11:18:19Z</time>
      </trkpt>
      <trkpt lat="43.00125" lon="2.57098">
        <ele>391.87</ele>
        <time>2015-10-04T11:18:21Z</time>
      </trkpt>
      <trkpt lat="43.00132" lon="2.57079">
        <ele>390.91</ele>
        <time>2015-10-04T11:18:22Z</time>
      </trkpt>
      <trkpt lat="43.00189" lon="2.56926">
        <ele>381.3</ele>
        <time>2015-10-04T11:18:31Z</time>
      </trkpt>
      <trkpt lat="43.00193" lon="2.56911">
        <ele>380.34</ele>
        <time>2015-10-04T11:18:32Z</time>
      </trkpt>
      <trkpt lat="43.00196" lon="2.56894">
        <ele>379.86</ele>
        <time>2015-10-04T11:18:33Z</time>
      </trkpt>
      <trkpt lat="43.00197" lon="2.56878">
        <ele>378.9</ele>
        <time>2015-10-04T11:18:34Z</time>
      </trkpt>
      <trkpt lat="43.00196" lon="2.5686">
        <ele>377.45</ele>
        <time>2015-10-04T11:18:35Z</time>
      </trkpt>
      <trkpt lat="43.00196" lon="2.56842">
        <ele>376.49</ele>
        <time>2015-10-04T11:18:36Z</time>
      </trkpt>
      <trkpt lat="43.00194" lon="2.56772">
        <ele>373.13</ele>
        <time>2015-10-04T11:18:40Z</time>
      </trkpt>
      <trkpt lat="43.00197" lon="2.56758">
        <ele>372.65</ele>
        <time>2015-10-04T11:18:41Z</time>
      </trkpt>
      <trkpt lat="43.00203" lon="2.56747">
        <ele>371.69</ele>
        <time>2015-10-04T11:18:42Z</time>
      </trkpt>
      <trkpt lat="43.00215" lon="2.56723">
        <ele>370.24</ele>
        <time>2015-10-04T11:18:44Z</time>
      </trkpt>
      <trkpt lat="43.00219" lon="2.56708">
        <ele>369.28</ele>
        <time>2015-10-04T11:18:45Z</time>
      </trkpt>
      <trkpt lat="43.00221" lon="2.56692">
        <ele>368.32</ele>
        <time>2015-10-04T11:18:46Z</time>
      </trkpt>
      <trkpt lat="43.00222" lon="2.56657">
        <ele>366.4</ele>
        <time>2015-10-04T11:18:48Z</time>
      </trkpt>
      <trkpt lat="43.0022" lon="2.56642">
        <ele>364.96</ele>
        <time>2015-10-04T11:18:49Z</time>
      </trkpt>
      <trkpt lat="43.00213" lon="2.566">
        <ele>362.07</ele>
        <time>2015-10-04T11:18:52Z</time>
      </trkpt>
      <trkpt lat="43.00207" lon="2.56588">
        <ele>361.11</ele>
        <time>2015-10-04T11:18:53Z</time>
      </trkpt>
      <trkpt lat="43.00201" lon="2.56579">
        <ele>359.67</ele>
        <time>2015-10-04T11:18:54Z</time>
      </trkpt>
      <trkpt lat="43.00192" lon="2.56572">
        <ele>358.71</ele>
        <time>2015-10-04T11:18:55Z</time>
      </trkpt>
      <trkpt lat="43.00182" lon="2.56567">
        <ele>357.27</ele>
        <time>2015-10-04T11:18:56Z</time>
      </trkpt>
      <trkpt lat="43.00172" lon="2.56561">
        <ele>356.31</ele>
        <time>2015-10-04T11:18:57Z</time>
      </trkpt>
      <trkpt lat="43.00104" lon="2.56524">
        <ele>350.06</ele>
        <time>2015-10-04T11:19:06Z</time>
      </trkpt>
      <trkpt lat="43.00089" lon="2.56524">
        <ele>351.02</ele>
        <time>2015-10-04T11:19:15Z</time>
      </trkpt>
      <trkpt lat="43.00093" lon="2.56524">
        <ele>351.5</ele>
        <time>2015-10-04T11:19:30Z</time>
      </trkpt>
      <trkpt lat="43.00093" lon="2.56524">
        <ele>351.5</ele>
        <time>2015-10-04T11:19:33Z</time>
      </trkpt>
      <trkpt lat="43.00099" lon="2.56532">
        <ele>351.02</ele>
        <time>2015-10-04T11:19:37Z</time>
      </trkpt>
      <trkpt lat="43.00104" lon="2.56536">
        <ele>351.02</ele>
        <time>2015-10-04T11:19:38Z</time>
      </trkpt>
      <trkpt lat="43.00125" lon="2.56554">
        <ele>349.58</ele>
        <time>2015-10-04T11:19:42Z</time>
      </trkpt>
      <trkpt lat="43.00129" lon="2.5656">
        <ele>349.1</ele>
        <time>2015-10-04T11:19:43Z</time>
      </trkpt>
      <trkpt lat="43.00131" lon="2.56566">
        <ele>348.62</ele>
        <time>2015-10-04T11:19:44Z</time>
      </trkpt>
      <trkpt lat="43.00132" lon="2.56572">
        <ele>348.13</ele>
        <time>2015-10-04T11:19:45Z</time>
      </trkpt>
      <trkpt lat="43.00131" lon="2.56577">
        <ele>347.65</ele>
        <time>2015-10-04T11:19:46Z</time>
      </trkpt>
      <trkpt lat="43.00129" lon="2.56579">
        <ele>347.65</ele>
        <time>2015-10-04T11:19:47Z</time>
      </trkpt>
      <trkpt lat="43.00126" lon="2.56579">
        <ele>347.17</ele>
        <time>2015-10-04T11:19:48Z</time>
      </trkpt>
      <trkpt lat="43.00124" lon="2.56577">
        <ele>347.17</ele>
        <time>2015-10-04T11:19:49Z</time>
      </trkpt>
      <trkpt lat="43.00123" lon="2.56574">
        <ele>346.69</ele>
        <time>2015-10-04T11:19:50Z</time>
      </trkpt>
      <trkpt lat="43.00122" lon="2.5657">
        <ele>346.69</ele>
        <time>2015-10-04T11:19:51Z</time>
      </trkpt>
      <trkpt lat="43.00121" lon="2.56566">
        <ele>347.17</ele>
        <time>2015-10-04T11:19:52Z</time>
      </trkpt>
      <trkpt lat="43.00119" lon="2.56564">
        <ele>347.17</ele>
        <time>2015-10-04T11:19:53Z</time>
      </trkpt>
      <trkpt lat="43.00117" lon="2.56563">
        <ele>346.69</ele>
        <time>2015-10-04T11:19:54Z</time>
      </trkpt>
      <trkpt lat="43.00115" lon="2.56563">
        <ele>347.17</ele>
        <time>2015-10-04T11:19:55Z</time>
      </trkpt>
      <trkpt lat="43.00114" lon="2.56565">
        <ele>346.69</ele>
        <time>2015-10-04T11:19:56Z</time>
      </trkpt>
      <trkpt lat="43.00114" lon="2.56567">
        <ele>346.69</ele>
        <time>2015-10-04T11:19:57Z</time>
      </trkpt>
      <trkpt lat="43.00115" lon="2.56569">
        <ele>346.21</ele>
        <time>2015-10-04T11:19:58Z</time>
      </trkpt>
      <trkpt lat="43.00117" lon="2.56573">
        <ele>346.69</ele>
        <time>2015-10-04T11:19:59Z</time>
      </trkpt>
      <trkpt lat="43.0012" lon="2.56577">
        <ele>347.65</ele>
        <time>2015-10-04T11:20:00Z</time>
      </trkpt>
      <trkpt lat="43.00123" lon="2.56581">
        <ele>348.13</ele>
        <time>2015-10-04T11:20:01Z</time>
      </trkpt>
      <trkpt lat="43.00126" lon="2.56582">
        <ele>348.13</ele>
        <time>2015-10-04T11:20:02Z</time>
      </trkpt>
      <trkpt lat="43.00128" lon="2.5658">
        <ele>348.62</ele>
        <time>2015-10-04T11:20:03Z</time>
      </trkpt>
      <trkpt lat="43.0013" lon="2.56575">
        <ele>348.62</ele>
        <time>2015-10-04T11:20:04Z</time>
      </trkpt>
      <trkpt lat="43.00131" lon="2.56568">
        <ele>348.13</ele>
        <time>2015-10-04T11:20:05Z</time>
      </trkpt>
      <trkpt lat="43.00129" lon="2.56561">
        <ele>347.65</ele>
        <time>2015-10-04T11:20:06Z</time>
      </trkpt>
      <trkpt lat="43.00125" lon="2.56553">
        <ele>347.17</ele>
        <time>2015-10-04T11:20:07Z</time>
      </trkpt>
      <trkpt lat="43.00119" lon="2.56546">
        <ele>347.65</ele>
        <time>2015-10-04T11:20:08Z</time>
      </trkpt>
      <trkpt lat="43.00111" lon="2.56541">
        <ele>349.1</ele>
        <time>2015-10-04T11:20:09Z</time>
      </trkpt>
      <trkpt lat="43.00103" lon="2.56535">
        <ele>349.58</ele>
        <time>2015-10-04T11:20:10Z</time>
      </trkpt>
      <trkpt lat="43.00098" lon="2.56531">
        <ele>350.06</ele>
        <time>2015-10-04T11:20:11Z</time>
      </trkpt>
      <trkpt lat="43.00095" lon="2.56527">
        <ele>350.54</ele>
        <time>2015-10-04T11:20:12Z</time>
      </trkpt>
      <trkpt lat="43.00093" lon="2.56523">
        <ele>350.54</ele>
        <time>2015-10-04T11:20:13Z</time>
      </trkpt>
      <trkpt lat="43.00092" lon="2.56518">
        <ele>350.54</ele>
        <time>2015-10-04T11:20:14Z</time>
      </trkpt>
      <trkpt lat="43.0009" lon="2.56514">
        <ele>350.54</ele>
        <time>2015-10-04T11:20:15Z</time>
      </trkpt>
      <trkpt lat="43.00074" lon="2.56449">
        <ele>346.21</ele>
        <time>2015-10-04T11:20:22Z</time>
      </trkpt>
      <trkpt lat="43.00028" lon="2.56288">
        <ele>338.52</ele>
        <time>2015-10-04T11:20:37Z</time>
      </trkpt>
      <trkpt lat="43.00021" lon="2.56259">
        <ele>337.56</ele>
        <time>2015-10-04T11:20:40Z</time>
      </trkpt>
      <trkpt lat="43.0002" lon="2.56249">
        <ele>337.56</ele>
        <time>2015-10-04T11:20:41Z</time>
      </trkpt>
      <trkpt lat="43.00015" lon="2.56192">
        <ele>342.37</ele>
        <time>2015-10-04T11:20:47Z</time>
      </trkpt>
      <trkpt lat="43.00017" lon="2.56183">
        <ele>342.85</ele>
        <time>2015-10-04T11:20:48Z</time>
      </trkpt>
      <trkpt lat="43.00019" lon="2.56174">
        <ele>342.85</ele>
        <time>2015-10-04T11:20:49Z</time>
      </trkpt>
      <trkpt lat="43.00022" lon="2.56166">
        <ele>342.85</ele>
        <time>2015-10-04T11:20:50Z</time>
      </trkpt>
      <trkpt lat="43.00026" lon="2.56159">
        <ele>342.85</ele>
        <time>2015-10-04T11:20:51Z</time>
      </trkpt>
      <trkpt lat="43.00031" lon="2.56153">
        <ele>342.85</ele>
        <time>2015-10-04T11:20:52Z</time>
      </trkpt>
      <trkpt lat="43.00035" lon="2.56147">
        <ele>345.73</ele>
        <time>2015-10-04T11:20:53Z</time>
      </trkpt>
      <trkpt lat="43.00039" lon="2.56144">
        <ele>346.69</ele>
        <time>2015-10-04T11:20:54Z</time>
      </trkpt>
      <trkpt lat="43.00042" lon="2.56142">
        <ele>346.21</ele>
        <time>2015-10-04T11:20:55Z</time>
      </trkpt>
      <trkpt lat="43.00059" lon="2.5613">
        <ele>343.33</ele>
        <time>2015-10-04T11:21:06Z</time>
      </trkpt>
      <trkpt lat="43.00061" lon="2.56128">
        <ele>343.81</ele>
        <time>2015-10-04T11:38:35Z</time>
      </trkpt>
      <trkpt lat="43.00062" lon="2.56126">
        <ele>345.25</ele>
        <time>2015-10-04T11:38:57Z</time>
      </trkpt>
      <trkpt lat="43.0006" lon="2.56128">
        <ele>345.25</ele>
        <time>2015-10-04T11:39:14Z</time>
      </trkpt>
      <trkpt lat="43.00066" lon="2.56122">
        <ele>343.81</ele>
        <time>2015-10-04T11:39:17Z</time>
      </trkpt>
      <trkpt lat="43.00091" lon="2.56085">
        <ele>341.89</ele>
        <time>2015-10-04T11:39:22Z</time>
      </trkpt>
      <trkpt lat="43.00095" lon="2.56074">
        <ele>341.89</ele>
        <time>2015-10-04T11:39:23Z</time>
      </trkpt>
      <trkpt lat="43.00098" lon="2.56062">
        <ele>341.41</ele>
        <time>2015-10-04T11:39:24Z</time>
      </trkpt>
      <trkpt lat="43.00099" lon="2.56049">
        <ele>341.41</ele>
        <time>2015-10-04T11:39:25Z</time>
      </trkpt>
      <trkpt lat="43.00099" lon="2.56035">
        <ele>341.41</ele>
        <time>2015-10-04T11:39:26Z</time>
      </trkpt>
      <trkpt lat="43.00097" lon="2.5602">
        <ele>340.92</ele>
        <time>2015-10-04T11:39:27Z</time>
      </trkpt>
      <trkpt lat="43.00097" lon="2.55954">
        <ele>338.52</ele>
        <time>2015-10-04T11:39:31Z</time>
      </trkpt>
      <trkpt lat="43.001" lon="2.55938">
        <ele>339</ele>
        <time>2015-10-04T11:39:32Z</time>
      </trkpt>
      <trkpt lat="43.00104" lon="2.55924">
        <ele>339</ele>
        <time>2015-10-04T11:39:33Z</time>
      </trkpt>
      <trkpt lat="43.00109" lon="2.55912">
        <ele>339</ele>
        <time>2015-10-04T11:39:34Z</time>
      </trkpt>
      <trkpt lat="43.00115" lon="2.55901">
        <ele>339</ele>
        <time>2015-10-04T11:39:35Z</time>
      </trkpt>
      <trkpt lat="43.00121" lon="2.55894">
        <ele>338.52</ele>
        <time>2015-10-04T11:39:36Z</time>
      </trkpt>
      <trkpt lat="43.0013" lon="2.55892">
        <ele>337.56</ele>
        <time>2015-10-04T11:39:37Z</time>
      </trkpt>
      <trkpt lat="43.0014" lon="2.55894">
        <ele>337.08</ele>
        <time>2015-10-04T11:39:38Z</time>
      </trkpt>
      <trkpt lat="43.0015" lon="2.55897">
        <ele>336.6</ele>
        <time>2015-10-04T11:39:39Z</time>
      </trkpt>
      <trkpt lat="43.00161" lon="2.559">
        <ele>335.64</ele>
        <time>2015-10-04T11:39:40Z</time>
      </trkpt>
      <trkpt lat="43.00173" lon="2.55902">
        <ele>334.68</ele>
        <time>2015-10-04T11:39:41Z</time>
      </trkpt>
      <trkpt lat="43.00184" lon="2.55902">
        <ele>334.2</ele>
        <time>2015-10-04T11:39:42Z</time>
      </trkpt>
      <trkpt lat="43.00198" lon="2.55898">
        <ele>333.71</ele>
        <time>2015-10-04T11:39:43Z</time>
      </trkpt>
      <trkpt lat="43.00212" lon="2.55892">
        <ele>332.27</ele>
        <time>2015-10-04T11:39:44Z</time>
      </trkpt>
      <trkpt lat="43.00225" lon="2.55886">
        <ele>331.79</ele>
        <time>2015-10-04T11:39:45Z</time>
      </trkpt>
      <trkpt lat="43.00238" lon="2.55883">
        <ele>331.31</ele>
        <time>2015-10-04T11:39:46Z</time>
      </trkpt>
      <trkpt lat="43.00252" lon="2.55883">
        <ele>330.35</ele>
        <time>2015-10-04T11:39:47Z</time>
      </trkpt>
      <trkpt lat="43.00266" lon="2.55885">
        <ele>329.87</ele>
        <time>2015-10-04T11:39:48Z</time>
      </trkpt>
      <trkpt lat="43.00279" lon="2.55887">
        <ele>328.91</ele>
        <time>2015-10-04T11:39:49Z</time>
      </trkpt>
      <trkpt lat="43.00304" lon="2.55894">
        <ele>327.95</ele>
        <time>2015-10-04T11:39:51Z</time>
      </trkpt>
      <trkpt lat="43.00316" lon="2.55901">
        <ele>327.47</ele>
        <time>2015-10-04T11:39:52Z</time>
      </trkpt>
      <trkpt lat="43.00327" lon="2.55912">
        <ele>326.99</ele>
        <time>2015-10-04T11:39:53Z</time>
      </trkpt>
      <trkpt lat="43.00337" lon="2.55927">
        <ele>326.5</ele>
        <time>2015-10-04T11:39:54Z</time>
      </trkpt>
      <trkpt lat="43.00346" lon="2.55944">
        <ele>326.99</ele>
        <time>2015-10-04T11:39:55Z</time>
      </trkpt>
      <trkpt lat="43.00354" lon="2.55962">
        <ele>326.99</ele>
        <time>2015-10-04T11:39:56Z</time>
      </trkpt>
      <trkpt lat="43.00361" lon="2.55982">
        <ele>326.99</ele>
        <time>2015-10-04T11:39:57Z</time>
      </trkpt>
      <trkpt lat="43.00366" lon="2.56003">
        <ele>326.99</ele>
        <time>2015-10-04T11:39:58Z</time>
      </trkpt>
      <trkpt lat="43.0037" lon="2.56024">
        <ele>326.5</ele>
        <time>2015-10-04T11:39:59Z</time>
      </trkpt>
      <trkpt lat="43.00371" lon="2.56047">
        <ele>326.02</ele>
        <time>2015-10-04T11:40:00Z</time>
      </trkpt>
      <trkpt lat="43.0037" lon="2.56069">
        <ele>325.54</ele>
        <time>2015-10-04T11:40:01Z</time>
      </trkpt>
      <trkpt lat="43.00367" lon="2.56091">
        <ele>325.06</ele>
        <time>2015-10-04T11:40:02Z</time>
      </trkpt>
      <trkpt lat="43.00363" lon="2.56112">
        <ele>325.06</ele>
        <time>2015-10-04T11:40:03Z</time>
      </trkpt>
      <trkpt lat="43.0036" lon="2.56133">
        <ele>324.58</ele>
        <time>2015-10-04T11:40:04Z</time>
      </trkpt>
      <trkpt lat="43.00358" lon="2.56151">
        <ele>323.62</ele>
        <time>2015-10-04T11:40:05Z</time>
      </trkpt>
      <trkpt lat="43.00361" lon="2.56167">
        <ele>323.14</ele>
        <time>2015-10-04T11:40:06Z</time>
      </trkpt>
      <trkpt lat="43.00365" lon="2.56181">
        <ele>321.7</ele>
        <time>2015-10-04T11:40:07Z</time>
      </trkpt>
      <trkpt lat="43.00379" lon="2.56192">
        <ele>321.7</ele>
        <time>2015-10-04T11:40:08Z</time>
      </trkpt>
      <trkpt lat="43.00391" lon="2.56201">
        <ele>320.74</ele>
        <time>2015-10-04T11:40:09Z</time>
      </trkpt>
      <trkpt lat="43.00406" lon="2.56206">
        <ele>320.26</ele>
        <time>2015-10-04T11:40:10Z</time>
      </trkpt>
      <trkpt lat="43.00423" lon="2.56208">
        <ele>320.74</ele>
        <time>2015-10-04T11:40:11Z</time>
      </trkpt>
      <trkpt lat="43.00439" lon="2.56208">
        <ele>320.26</ele>
        <time>2015-10-04T11:40:12Z</time>
      </trkpt>
      <trkpt lat="43.00455" lon="2.56207">
        <ele>321.22</ele>
        <time>2015-10-04T11:40:13Z</time>
      </trkpt>
      <trkpt lat="43.00466" lon="2.56201">
        <ele>321.22</ele>
        <time>2015-10-04T11:40:14Z</time>
      </trkpt>
      <trkpt lat="43.00474" lon="2.56189">
        <ele>321.22</ele>
        <time>2015-10-04T11:40:15Z</time>
      </trkpt>
      <trkpt lat="43.00475" lon="2.56176">
        <ele>321.7</ele>
        <time>2015-10-04T11:40:16Z</time>
      </trkpt>
      <trkpt lat="43.00475" lon="2.56158">
        <ele>322.66</ele>
        <time>2015-10-04T11:40:17Z</time>
      </trkpt>
      <trkpt lat="43.00475" lon="2.56139">
        <ele>323.14</ele>
        <time>2015-10-04T11:40:18Z</time>
      </trkpt>
      <trkpt lat="43.00475" lon="2.56117">
        <ele>323.62</ele>
        <time>2015-10-04T11:40:19Z</time>
      </trkpt>
      <trkpt lat="43.00478" lon="2.56049">
        <ele>324.1</ele>
        <time>2015-10-04T11:40:22Z</time>
      </trkpt>
      <trkpt lat="43.00482" lon="2.56028">
        <ele>324.1</ele>
        <time>2015-10-04T11:40:23Z</time>
      </trkpt>
      <trkpt lat="43.00486" lon="2.56007">
        <ele>324.1</ele>
        <time>2015-10-04T11:40:24Z</time>
      </trkpt>
      <trkpt lat="43.00492" lon="2.55986">
        <ele>324.1</ele>
        <time>2015-10-04T11:40:25Z</time>
      </trkpt>
      <trkpt lat="43.00498" lon="2.55967">
        <ele>323.14</ele>
        <time>2015-10-04T11:40:26Z</time>
      </trkpt>
      <trkpt lat="43.00505" lon="2.55948">
        <ele>322.66</ele>
        <time>2015-10-04T11:40:27Z</time>
      </trkpt>
      <trkpt lat="43.00512" lon="2.55931">
        <ele>322.18</ele>
        <time>2015-10-04T11:40:28Z</time>
      </trkpt>
      <trkpt lat="43.00518" lon="2.55915">
        <ele>321.22</ele>
        <time>2015-10-04T11:40:29Z</time>
      </trkpt>
      <trkpt lat="43.00522" lon="2.55898">
        <ele>320.26</ele>
        <time>2015-10-04T11:40:30Z</time>
      </trkpt>
      <trkpt lat="43.00523" lon="2.55883">
        <ele>319.3</ele>
        <time>2015-10-04T11:40:31Z</time>
      </trkpt>
      <trkpt lat="43.00522" lon="2.55869">
        <ele>318.33</ele>
        <time>2015-10-04T11:40:32Z</time>
      </trkpt>
      <trkpt lat="43.00519" lon="2.55858">
        <ele>318.33</ele>
        <time>2015-10-04T11:40:33Z</time>
      </trkpt>
      <trkpt lat="43.00506" lon="2.55859">
        <ele>317.37</ele>
        <time>2015-10-04T11:40:34Z</time>
      </trkpt>
      <trkpt lat="43.00493" lon="2.55858">
        <ele>316.89</ele>
        <time>2015-10-04T11:40:35Z</time>
      </trkpt>
      <trkpt lat="43.00479" lon="2.5586">
        <ele>315.93</ele>
        <time>2015-10-04T11:40:36Z</time>
      </trkpt>
      <trkpt lat="43.00465" lon="2.55862">
        <ele>314.97</ele>
        <time>2015-10-04T11:40:37Z</time>
      </trkpt>
      <trkpt lat="43.00452" lon="2.55861">
        <ele>313.05</ele>
        <time>2015-10-04T11:40:38Z</time>
      </trkpt>
      <trkpt lat="43.0044" lon="2.55856">
        <ele>312.57</ele>
        <time>2015-10-04T11:40:39Z</time>
      </trkpt>
      <trkpt lat="43.00429" lon="2.55844">
        <ele>311.6</ele>
        <time>2015-10-04T11:40:40Z</time>
      </trkpt>
      <trkpt lat="43.00421" lon="2.55829">
        <ele>310.16</ele>
        <time>2015-10-04T11:40:41Z</time>
      </trkpt>
      <trkpt lat="43.00416" lon="2.55811">
        <ele>309.68</ele>
        <time>2015-10-04T11:40:42Z</time>
      </trkpt>
      <trkpt lat="43.00416" lon="2.55792">
        <ele>309.2</ele>
        <time>2015-10-04T11:40:43Z</time>
      </trkpt>
      <trkpt lat="43.00418" lon="2.55772">
        <ele>308.72</ele>
        <time>2015-10-04T11:40:44Z</time>
      </trkpt>
      <trkpt lat="43.00422" lon="2.55751">
        <ele>307.76</ele>
        <time>2015-10-04T11:40:45Z</time>
      </trkpt>
      <trkpt lat="43.00427" lon="2.55731">
        <ele>307.28</ele>
        <time>2015-10-04T11:40:46Z</time>
      </trkpt>
      <trkpt lat="43.00432" lon="2.55712">
        <ele>306.8</ele>
        <time>2015-10-04T11:40:47Z</time>
      </trkpt>
      <trkpt lat="43.00468" lon="2.55621">
        <ele>302.47</ele>
        <time>2015-10-04T11:40:53Z</time>
      </trkpt>
      <trkpt lat="43.00512" lon="2.5547">
        <ele>298.15</ele>
        <time>2015-10-04T11:41:04Z</time>
      </trkpt>
      <trkpt lat="43.005" lon="2.55455">
        <ele>297.18</ele>
        <time>2015-10-04T11:41:05Z</time>
      </trkpt>
      <trkpt lat="43.00492" lon="2.55441">
        <ele>297.67</ele>
        <time>2015-10-04T11:41:06Z</time>
      </trkpt>
      <trkpt lat="43.00479" lon="2.55428">
        <ele>298.15</ele>
        <time>2015-10-04T11:41:07Z</time>
      </trkpt>
      <trkpt lat="43.00469" lon="2.55415">
        <ele>297.18</ele>
        <time>2015-10-04T11:41:08Z</time>
      </trkpt>
      <trkpt lat="43.0046" lon="2.554">
        <ele>296.22</ele>
        <time>2015-10-04T11:41:09Z</time>
      </trkpt>
      <trkpt lat="43.00454" lon="2.55384">
        <ele>295.26</ele>
        <time>2015-10-04T11:41:10Z</time>
      </trkpt>
      <trkpt lat="43.00452" lon="2.55367">
        <ele>293.34</ele>
        <time>2015-10-04T11:41:11Z</time>
      </trkpt>
      <trkpt lat="43.00453" lon="2.55349">
        <ele>292.86</ele>
        <time>2015-10-04T11:41:12Z</time>
      </trkpt>
      <trkpt lat="43.00459" lon="2.55335">
        <ele>292.38</ele>
        <time>2015-10-04T11:41:13Z</time>
      </trkpt>
      <trkpt lat="43.00469" lon="2.55322">
        <ele>291.42</ele>
        <time>2015-10-04T11:41:14Z</time>
      </trkpt>
      <trkpt lat="43.00479" lon="2.55312">
        <ele>289.49</ele>
        <time>2015-10-04T11:41:15Z</time>
      </trkpt>
      <trkpt lat="43.00486" lon="2.553">
        <ele>288.53</ele>
        <time>2015-10-04T11:41:16Z</time>
      </trkpt>
      <trkpt lat="43.00488" lon="2.5529">
        <ele>287.57</ele>
        <time>2015-10-04T11:41:17Z</time>
      </trkpt>
      <trkpt lat="43.00485" lon="2.55282">
        <ele>286.61</ele>
        <time>2015-10-04T11:41:18Z</time>
      </trkpt>
      <trkpt lat="43.00475" lon="2.55275">
        <ele>285.65</ele>
        <time>2015-10-04T11:41:19Z</time>
      </trkpt>
      <trkpt lat="43.00465" lon="2.55276">
        <ele>283.25</ele>
        <time>2015-10-04T11:41:20Z</time>
      </trkpt>
      <trkpt lat="43.00455" lon="2.55284">
        <ele>282.77</ele>
        <time>2015-10-04T11:41:21Z</time>
      </trkpt>
      <trkpt lat="43.00445" lon="2.55293">
        <ele>281.8</ele>
        <time>2015-10-04T11:41:22Z</time>
      </trkpt>
      <trkpt lat="43.00435" lon="2.55306">
        <ele>281.32</ele>
        <time>2015-10-04T11:41:23Z</time>
      </trkpt>
      <trkpt lat="43.00424" lon="2.55317">
        <ele>280.36</ele>
        <time>2015-10-04T11:41:24Z</time>
      </trkpt>
      <trkpt lat="43.00413" lon="2.55327">
        <ele>279.88</ele>
        <time>2015-10-04T11:41:25Z</time>
      </trkpt>
      <trkpt lat="43.00401" lon="2.55333">
        <ele>278.92</ele>
        <time>2015-10-04T11:41:26Z</time>
      </trkpt>
      <trkpt lat="43.00387" lon="2.55335">
        <ele>277.96</ele>
        <time>2015-10-04T11:41:27Z</time>
      </trkpt>
      <trkpt lat="43.00373" lon="2.55335">
        <ele>277.48</ele>
        <time>2015-10-04T11:41:28Z</time>
      </trkpt>
      <trkpt lat="43.0036" lon="2.55335">
        <ele>277.48</ele>
        <time>2015-10-04T11:41:29Z</time>
      </trkpt>
      <trkpt lat="43.00349" lon="2.55331">
        <ele>276.52</ele>
        <time>2015-10-04T11:41:30Z</time>
      </trkpt>
      <trkpt lat="43.00339" lon="2.55321">
        <ele>276.04</ele>
        <time>2015-10-04T11:41:31Z</time>
      </trkpt>
      <trkpt lat="43.00329" lon="2.5531">
        <ele>276.04</ele>
        <time>2015-10-04T11:41:32Z</time>
      </trkpt>
      <trkpt lat="43.00324" lon="2.55295">
        <ele>274.59</ele>
        <time>2015-10-04T11:41:33Z</time>
      </trkpt>
      <trkpt lat="43.00322" lon="2.55281">
        <ele>274.11</ele>
        <time>2015-10-04T11:41:34Z</time>
      </trkpt>
      <trkpt lat="43.00449" lon="2.55149">
        <ele>266.42</ele>
        <time>2015-10-04T11:41:48Z</time>
      </trkpt>
      <trkpt lat="43.00483" lon="2.55124">
        <ele>264.5</ele>
        <time>2015-10-04T11:41:51Z</time>
      </trkpt>
      <trkpt lat="43.00494" lon="2.5512">
        <ele>264.02</ele>
        <time>2015-10-04T11:41:52Z</time>
      </trkpt>
      <trkpt lat="43.00503" lon="2.55116">
        <ele>263.06</ele>
        <time>2015-10-04T11:41:53Z</time>
      </trkpt>
      <trkpt lat="43.00509" lon="2.55108">
        <ele>261.62</ele>
        <time>2015-10-04T11:41:54Z</time>
      </trkpt>
      <trkpt lat="43.00513" lon="2.55096">
        <ele>261.62</ele>
        <time>2015-10-04T11:41:55Z</time>
      </trkpt>
      <trkpt lat="43.0052" lon="2.55087">
        <ele>260.17</ele>
        <time>2015-10-04T11:41:56Z</time>
      </trkpt>
      <trkpt lat="43.00528" lon="2.55081">
        <ele>259.21</ele>
        <time>2015-10-04T11:41:57Z</time>
      </trkpt>
      <trkpt lat="43.00535" lon="2.55079">
        <ele>257.77</ele>
        <time>2015-10-04T11:41:58Z</time>
      </trkpt>
      <trkpt lat="43.00544" lon="2.55084">
        <ele>255.37</ele>
        <time>2015-10-04T11:41:59Z</time>
      </trkpt>
      <trkpt lat="43.00552" lon="2.55092">
        <ele>254.41</ele>
        <time>2015-10-04T11:42:00Z</time>
      </trkpt>
      <trkpt lat="43.0056" lon="2.55102">
        <ele>253.93</ele>
        <time>2015-10-04T11:42:01Z</time>
      </trkpt>
      <trkpt lat="43.00568" lon="2.55111">
        <ele>253.44</ele>
        <time>2015-10-04T11:42:02Z</time>
      </trkpt>
      <trkpt lat="43.00585" lon="2.55123">
        <ele>251.52</ele>
        <time>2015-10-04T11:42:04Z</time>
      </trkpt>
      <trkpt lat="43.00594" lon="2.55123">
        <ele>250.56</ele>
        <time>2015-10-04T11:42:05Z</time>
      </trkpt>
      <trkpt lat="43.00605" lon="2.55115">
        <ele>250.08</ele>
        <time>2015-10-04T11:42:06Z</time>
      </trkpt>
      <trkpt lat="43.00617" lon="2.55107">
        <ele>250.08</ele>
        <time>2015-10-04T11:42:07Z</time>
      </trkpt>
      <trkpt lat="43.00628" lon="2.551">
        <ele>249.6</ele>
        <time>2015-10-04T11:42:08Z</time>
      </trkpt>
      <trkpt lat="43.00639" lon="2.55096">
        <ele>249.6</ele>
        <time>2015-10-04T11:42:09Z</time>
      </trkpt>
      <trkpt lat="43.0065" lon="2.55094">
        <ele>248.64</ele>
        <time>2015-10-04T11:42:10Z</time>
      </trkpt>
      <trkpt lat="43.00663" lon="2.55094">
        <ele>248.16</ele>
        <time>2015-10-04T11:42:11Z</time>
      </trkpt>
      <trkpt lat="43.00721" lon="2.55086">
        <ele>246.23</ele>
        <time>2015-10-04T11:42:16Z</time>
      </trkpt>
      <trkpt lat="43.00732" lon="2.55092">
        <ele>245.27</ele>
        <time>2015-10-04T11:42:17Z</time>
      </trkpt>
      <trkpt lat="43.00742" lon="2.55101">
        <ele>244.31</ele>
        <time>2015-10-04T11:42:18Z</time>
      </trkpt>
      <trkpt lat="43.00761" lon="2.55117">
        <ele>243.35</ele>
        <time>2015-10-04T11:42:20Z</time>
      </trkpt>
      <trkpt lat="43.00771" lon="2.55121">
        <ele>242.39</ele>
        <time>2015-10-04T11:42:21Z</time>
      </trkpt>
      <trkpt lat="43.0078" lon="2.55122">
        <ele>242.39</ele>
        <time>2015-10-04T11:42:22Z</time>
      </trkpt>
      <trkpt lat="43.0079" lon="2.55121">
        <ele>241.91</ele>
        <time>2015-10-04T11:42:23Z</time>
      </trkpt>
      <trkpt lat="43.00798" lon="2.5512">
        <ele>241.91</ele>
        <time>2015-10-04T11:42:24Z</time>
      </trkpt>
      <trkpt lat="43.00812" lon="2.55116">
        <ele>240.95</ele>
        <time>2015-10-04T11:42:26Z</time>
      </trkpt>
      <trkpt lat="43.00817" lon="2.55111">
        <ele>240.95</ele>
        <time>2015-10-04T11:42:27Z</time>
      </trkpt>
      <trkpt lat="43.0082" lon="2.55103">
        <ele>241.43</ele>
        <time>2015-10-04T11:42:28Z</time>
      </trkpt>
      <trkpt lat="43.00822" lon="2.55095">
        <ele>240.95</ele>
        <time>2015-10-04T11:42:29Z</time>
      </trkpt>
      <trkpt lat="43.00823" lon="2.55082">
        <ele>240.95</ele>
        <time>2015-10-04T11:42:30Z</time>
      </trkpt>
      <trkpt lat="43.00826" lon="2.55068">
        <ele>241.43</ele>
        <time>2015-10-04T11:42:31Z</time>
      </trkpt>
      <trkpt lat="43.0083" lon="2.55051">
        <ele>240.95</ele>
        <time>2015-10-04T11:42:32Z</time>
      </trkpt>
      <trkpt lat="43.00837" lon="2.55036">
        <ele>239.99</ele>
        <time>2015-10-04T11:42:33Z</time>
      </trkpt>
      <trkpt lat="43.00917" lon="2.54903">
        <ele>235.18</ele>
        <time>2015-10-04T11:42:42Z</time>
      </trkpt>
      <trkpt lat="43.00949" lon="2.54853">
        <ele>231.33</ele>
        <time>2015-10-04T11:42:46Z</time>
      </trkpt>
      <trkpt lat="43.00958" lon="2.54844">
        <ele>230.85</ele>
        <time>2015-10-04T11:42:47Z</time>
      </trkpt>
      <trkpt lat="43.00968" lon="2.54836">
        <ele>230.85</ele>
        <time>2015-10-04T11:42:48Z</time>
      </trkpt>
      <trkpt lat="43.00983" lon="2.54815">
        <ele>229.89</ele>
        <time>2015-10-04T11:42:50Z</time>
      </trkpt>
      <trkpt lat="43.00984" lon="2.54802">
        <ele>228.93</ele>
        <time>2015-10-04T11:42:51Z</time>
      </trkpt>
      <trkpt lat="43.00979" lon="2.54785">
        <ele>227.01</ele>
        <time>2015-10-04T11:42:52Z</time>
      </trkpt>
      <trkpt lat="43.00975" lon="2.54769">
        <ele>226.05</ele>
        <time>2015-10-04T11:42:53Z</time>
      </trkpt>
      <trkpt lat="43.0097" lon="2.54752">
        <ele>225.09</ele>
        <time>2015-10-04T11:42:54Z</time>
      </trkpt>
      <trkpt lat="43.00962" lon="2.54737">
        <ele>225.57</ele>
        <time>2015-10-04T11:42:55Z</time>
      </trkpt>
      <trkpt lat="43.00953" lon="2.54721">
        <ele>226.05</ele>
        <time>2015-10-04T11:42:56Z</time>
      </trkpt>
      <trkpt lat="43.00947" lon="2.54706">
        <ele>226.05</ele>
        <time>2015-10-04T11:42:57Z</time>
      </trkpt>
      <trkpt lat="43.00937" lon="2.54676">
        <ele>227.01</ele>
        <time>2015-10-04T11:42:59Z</time>
      </trkpt>
      <trkpt lat="43.00934" lon="2.5466">
        <ele>227.49</ele>
        <time>2015-10-04T11:43:00Z</time>
      </trkpt>
      <trkpt lat="43.00932" lon="2.54642">
        <ele>227.49</ele>
        <time>2015-10-04T11:43:01Z</time>
      </trkpt>
      <trkpt lat="43.00932" lon="2.54625">
        <ele>227.97</ele>
        <time>2015-10-04T11:43:02Z</time>
      </trkpt>
      <trkpt lat="43.00934" lon="2.54608">
        <ele>228.45</ele>
        <time>2015-10-04T11:43:03Z</time>
      </trkpt>
      <trkpt lat="43.00937" lon="2.54591">
        <ele>228.93</ele>
        <time>2015-10-04T11:43:04Z</time>
      </trkpt>
      <trkpt lat="43.00948" lon="2.54547">
        <ele>229.41</ele>
        <time>2015-10-04T11:43:07Z</time>
      </trkpt>
      <trkpt lat="43.00954" lon="2.54536">
        <ele>229.89</ele>
        <time>2015-10-04T11:43:08Z</time>
      </trkpt>
      <trkpt lat="43.00963" lon="2.54525">
        <ele>230.85</ele>
        <time>2015-10-04T11:43:09Z</time>
      </trkpt>
      <trkpt lat="43.00973" lon="2.54516">
        <ele>232.78</ele>
        <time>2015-10-04T11:43:10Z</time>
      </trkpt>
      <trkpt lat="43.00987" lon="2.54512">
        <ele>234.22</ele>
        <time>2015-10-04T11:43:11Z</time>
      </trkpt>
      <trkpt lat="43.01001" lon="2.54512">
        <ele>234.7</ele>
        <time>2015-10-04T11:43:12Z</time>
      </trkpt>
      <trkpt lat="43.01015" lon="2.54514">
        <ele>234.22</ele>
        <time>2015-10-04T11:43:13Z</time>
      </trkpt>
      <trkpt lat="43.01027" lon="2.54518">
        <ele>234.22</ele>
        <time>2015-10-04T11:43:14Z</time>
      </trkpt>
      <trkpt lat="43.01039" lon="2.54526">
        <ele>234.22</ele>
        <time>2015-10-04T11:43:15Z</time>
      </trkpt>
      <trkpt lat="43.01049" lon="2.54536">
        <ele>235.18</ele>
        <time>2015-10-04T11:43:16Z</time>
      </trkpt>
      <trkpt lat="43.01058" lon="2.54548">
        <ele>235.66</ele>
        <time>2015-10-04T11:43:17Z</time>
      </trkpt>
      <trkpt lat="43.01065" lon="2.5456">
        <ele>235.66</ele>
        <time>2015-10-04T11:43:18Z</time>
      </trkpt>
      <trkpt lat="43.01071" lon="2.54572">
        <ele>236.62</ele>
        <time>2015-10-04T11:43:19Z</time>
      </trkpt>
      <trkpt lat="43.01077" lon="2.5458">
        <ele>237.1</ele>
        <time>2015-10-04T11:43:20Z</time>
      </trkpt>
      <trkpt lat="43.01084" lon="2.54586">
        <ele>237.58</ele>
        <time>2015-10-04T11:43:21Z</time>
      </trkpt>
      <trkpt lat="43.01092" lon="2.54585">
        <ele>237.58</ele>
        <time>2015-10-04T11:43:22Z</time>
      </trkpt>
      <trkpt lat="43.01106" lon="2.54577">
        <ele>238.06</ele>
        <time>2015-10-04T11:43:23Z</time>
      </trkpt>
      <trkpt lat="43.01118" lon="2.54568">
        <ele>239.02</ele>
        <time>2015-10-04T11:43:24Z</time>
      </trkpt>
      <trkpt lat="43.01128" lon="2.54559">
        <ele>239.51</ele>
        <time>2015-10-04T11:43:25Z</time>
      </trkpt>
      <trkpt lat="43.01138" lon="2.54554">
        <ele>239.99</ele>
        <time>2015-10-04T11:43:26Z</time>
      </trkpt>
      <trkpt lat="43.01149" lon="2.54549">
        <ele>240.95</ele>
        <time>2015-10-04T11:43:27Z</time>
      </trkpt>
      <trkpt lat="43.01168" lon="2.54537">
        <ele>242.39</ele>
        <time>2015-10-04T11:43:29Z</time>
      </trkpt>
      <trkpt lat="43.01177" lon="2.54528">
        <ele>241.91</ele>
        <time>2015-10-04T11:43:30Z</time>
      </trkpt>
      <trkpt lat="43.01183" lon="2.54514">
        <ele>241.91</ele>
        <time>2015-10-04T11:43:31Z</time>
      </trkpt>
      <trkpt lat="43.01189" lon="2.54499">
        <ele>241.91</ele>
        <time>2015-10-04T11:43:32Z</time>
      </trkpt>
      <trkpt lat="43.01194" lon="2.54483">
        <ele>241.91</ele>
        <time>2015-10-04T11:43:33Z</time>
      </trkpt>
      <trkpt lat="43.01208" lon="2.54455">
        <ele>241.91</ele>
        <time>2015-10-04T11:43:35Z</time>
      </trkpt>
      <trkpt lat="43.01217" lon="2.54443">
        <ele>241.91</ele>
        <time>2015-10-04T11:43:36Z</time>
      </trkpt>
      <trkpt lat="43.01229" lon="2.54435">
        <ele>242.39</ele>
        <time>2015-10-04T11:43:37Z</time>
      </trkpt>
      <trkpt lat="43.01243" lon="2.5443">
        <ele>242.39</ele>
        <time>2015-10-04T11:43:38Z</time>
      </trkpt>
      <trkpt lat="43.01257" lon="2.54425">
        <ele>242.87</ele>
        <time>2015-10-04T11:43:39Z</time>
      </trkpt>
      <trkpt lat="43.01272" lon="2.54423">
        <ele>242.87</ele>
        <time>2015-10-04T11:43:40Z</time>
      </trkpt>
      <trkpt lat="43.01286" lon="2.54423">
        <ele>242.87</ele>
        <time>2015-10-04T11:43:41Z</time>
      </trkpt>
      <trkpt lat="43.013" lon="2.54431">
        <ele>242.39</ele>
        <time>2015-10-04T11:43:42Z</time>
      </trkpt>
      <trkpt lat="43.01312" lon="2.54441">
        <ele>242.39</ele>
        <time>2015-10-04T11:43:43Z</time>
      </trkpt>
      <trkpt lat="43.01319" lon="2.54454">
        <ele>242.39</ele>
        <time>2015-10-04T11:43:44Z</time>
      </trkpt>
      <trkpt lat="43.01327" lon="2.54466">
        <ele>242.39</ele>
        <time>2015-10-04T11:43:45Z</time>
      </trkpt>
      <trkpt lat="43.01334" lon="2.54476">
        <ele>242.87</ele>
        <time>2015-10-04T11:43:46Z</time>
      </trkpt>
      <trkpt lat="43.01343" lon="2.54481">
        <ele>242.87</ele>
        <time>2015-10-04T11:43:47Z</time>
      </trkpt>
      <trkpt lat="43.01352" lon="2.54484">
        <ele>242.39</ele>
        <time>2015-10-04T11:43:48Z</time>
      </trkpt>
      <trkpt lat="43.01363" lon="2.54483">
        <ele>241.91</ele>
        <time>2015-10-04T11:43:49Z</time>
      </trkpt>
      <trkpt lat="43.01376" lon="2.54479">
        <ele>242.39</ele>
        <time>2015-10-04T11:43:50Z</time>
      </trkpt>
      <trkpt lat="43.01389" lon="2.54475">
        <ele>242.87</ele>
        <time>2015-10-04T11:43:51Z</time>
      </trkpt>
      <trkpt lat="43.01425" lon="2.54464">
        <ele>243.35</ele>
        <time>2015-10-04T11:43:54Z</time>
      </trkpt>
      <trkpt lat="43.01435" lon="2.54457">
        <ele>243.83</ele>
        <time>2015-10-04T11:43:55Z</time>
      </trkpt>
      <trkpt lat="43.01446" lon="2.54449">
        <ele>243.83</ele>
        <time>2015-10-04T11:43:56Z</time>
      </trkpt>
      <trkpt lat="43.01539" lon="2.54376">
        <ele>242.39</ele>
        <time>2015-10-04T11:44:04Z</time>
      </trkpt>
      <trkpt lat="43.0155" lon="2.54368">
        <ele>241.43</ele>
        <time>2015-10-04T11:44:05Z</time>
      </trkpt>
      <trkpt lat="43.01558" lon="2.54359">
        <ele>240.47</ele>
        <time>2015-10-04T11:44:06Z</time>
      </trkpt>
      <trkpt lat="43.01559" lon="2.54344">
        <ele>239.99</ele>
        <time>2015-10-04T11:44:07Z</time>
      </trkpt>
      <trkpt lat="43.0156" lon="2.54328">
        <ele>239.51</ele>
        <time>2015-10-04T11:44:08Z</time>
      </trkpt>
      <trkpt lat="43.01557" lon="2.54313">
        <ele>238.54</ele>
        <time>2015-10-04T11:44:09Z</time>
      </trkpt>
      <trkpt lat="43.01554" lon="2.54296">
        <ele>238.54</ele>
        <time>2015-10-04T11:44:10Z</time>
      </trkpt>
      <trkpt lat="43.01551" lon="2.54277">
        <ele>238.54</ele>
        <time>2015-10-04T11:44:11Z</time>
      </trkpt>
      <trkpt lat="43.01551" lon="2.54259">
        <ele>238.54</ele>
        <time>2015-10-04T11:44:12Z</time>
      </trkpt>
      <trkpt lat="43.01552" lon="2.54242">
        <ele>238.06</ele>
        <time>2015-10-04T11:44:13Z</time>
      </trkpt>
      <trkpt lat="43.01554" lon="2.54224">
        <ele>237.58</ele>
        <time>2015-10-04T11:44:14Z</time>
      </trkpt>
      <trkpt lat="43.01591" lon="2.54045">
        <ele>232.3</ele>
        <time>2015-10-04T11:44:24Z</time>
      </trkpt>
      <trkpt lat="43.01608" lon="2.53972">
        <ele>229.41</ele>
        <time>2015-10-04T11:44:28Z</time>
      </trkpt>
      <trkpt lat="43.01609" lon="2.53955">
        <ele>228.93</ele>
        <time>2015-10-04T11:44:29Z</time>
      </trkpt>
      <trkpt lat="43.01609" lon="2.53938">
        <ele>227.97</ele>
        <time>2015-10-04T11:44:30Z</time>
      </trkpt>
      <trkpt lat="43.01606" lon="2.53899">
        <ele>226.53</ele>
        <time>2015-10-04T11:44:33Z</time>
      </trkpt>
      <trkpt lat="43.016" lon="2.53891">
        <ele>225.09</ele>
        <time>2015-10-04T11:44:34Z</time>
      </trkpt>
      <trkpt lat="43.01592" lon="2.53885">
        <ele>224.12</ele>
        <time>2015-10-04T11:44:35Z</time>
      </trkpt>
      <trkpt lat="43.01582" lon="2.53881">
        <ele>223.16</ele>
        <time>2015-10-04T11:44:36Z</time>
      </trkpt>
      <trkpt lat="43.01573" lon="2.53877">
        <ele>222.68</ele>
        <time>2015-10-04T11:44:37Z</time>
      </trkpt>
      <trkpt lat="43.01564" lon="2.53875">
        <ele>222.2</ele>
        <time>2015-10-04T11:44:38Z</time>
      </trkpt>
      <trkpt lat="43.01498" lon="2.53863">
        <ele>218.84</ele>
        <time>2015-10-04T11:44:47Z</time>
      </trkpt>
      <trkpt lat="43.01494" lon="2.5386">
        <ele>218.84</ele>
        <time>2015-10-04T11:44:48Z</time>
      </trkpt>
      <trkpt lat="43.01491" lon="2.53855">
        <ele>218.84</ele>
        <time>2015-10-04T11:44:49Z</time>
      </trkpt>
      <trkpt lat="43.01489" lon="2.53849">
        <ele>218.84</ele>
        <time>2015-10-04T11:44:50Z</time>
      </trkpt>
      <trkpt lat="43.01488" lon="2.53842">
        <ele>218.84</ele>
        <time>2015-10-04T11:44:51Z</time>
      </trkpt>
      <trkpt lat="43.01487" lon="2.53835">
        <ele>218.84</ele>
        <time>2015-10-04T11:44:52Z</time>
      </trkpt>
      <trkpt lat="43.01484" lon="2.53809">
        <ele>219.32</ele>
        <time>2015-10-04T11:44:55Z</time>
      </trkpt>
      <trkpt lat="43.01485" lon="2.53799">
        <ele>219.8</ele>
        <time>2015-10-04T11:44:56Z</time>
      </trkpt>
      <trkpt lat="43.01488" lon="2.5379">
        <ele>220.28</ele>
        <time>2015-10-04T11:44:57Z</time>
      </trkpt>
      <trkpt lat="43.01491" lon="2.53782">
        <ele>220.76</ele>
        <time>2015-10-04T11:44:58Z</time>
      </trkpt>
      <trkpt lat="43.01497" lon="2.53774">
        <ele>220.76</ele>
        <time>2015-10-04T11:44:59Z</time>
      </trkpt>
      <trkpt lat="43.01506" lon="2.53766">
        <ele>221.24</ele>
        <time>2015-10-04T11:45:00Z</time>
      </trkpt>
      <trkpt lat="43.01515" lon="2.53758">
        <ele>221.72</ele>
        <time>2015-10-04T11:45:01Z</time>
      </trkpt>
      <trkpt lat="43.01608" lon="2.53677">
        <ele>225.09</ele>
        <time>2015-10-04T11:45:09Z</time>
      </trkpt>
      <trkpt lat="43.01643" lon="2.53651">
        <ele>226.05</ele>
        <time>2015-10-04T11:45:12Z</time>
      </trkpt>
      <trkpt lat="43.01657" lon="2.53649">
        <ele>226.05</ele>
        <time>2015-10-04T11:45:13Z</time>
      </trkpt>
      <trkpt lat="43.0167" lon="2.53653">
        <ele>226.05</ele>
        <time>2015-10-04T11:45:14Z</time>
      </trkpt>
      <trkpt lat="43.01682" lon="2.53664">
        <ele>226.05</ele>
        <time>2015-10-04T11:45:15Z</time>
      </trkpt>
      <trkpt lat="43.01694" lon="2.53677">
        <ele>226.53</ele>
        <time>2015-10-04T11:45:16Z</time>
      </trkpt>
      <trkpt lat="43.01706" lon="2.53692">
        <ele>227.01</ele>
        <time>2015-10-04T11:45:17Z</time>
      </trkpt>
      <trkpt lat="43.01766" lon="2.53778">
        <ele>229.89</ele>
        <time>2015-10-04T11:45:22Z</time>
      </trkpt>
      <trkpt lat="43.01775" lon="2.53798">
        <ele>229.89</ele>
        <time>2015-10-04T11:45:23Z</time>
      </trkpt>
      <trkpt lat="43.01779" lon="2.5382">
        <ele>229.89</ele>
        <time>2015-10-04T11:45:24Z</time>
      </trkpt>
      <trkpt lat="43.01782" lon="2.53842">
        <ele>229.89</ele>
        <time>2015-10-04T11:45:25Z</time>
      </trkpt>
      <trkpt lat="43.01779" lon="2.53865">
        <ele>230.37</ele>
        <time>2015-10-04T11:45:26Z</time>
      </trkpt>
      <trkpt lat="43.01774" lon="2.5389">
        <ele>230.85</ele>
        <time>2015-10-04T11:45:27Z</time>
      </trkpt>
      <trkpt lat="43.01768" lon="2.53913">
        <ele>230.85</ele>
        <time>2015-10-04T11:45:28Z</time>
      </trkpt>
      <trkpt lat="43.01759" lon="2.53934">
        <ele>230.85</ele>
        <time>2015-10-04T11:45:29Z</time>
      </trkpt>
      <trkpt lat="43.01751" lon="2.53954">
        <ele>231.33</ele>
        <time>2015-10-04T11:45:30Z</time>
      </trkpt>
      <trkpt lat="43.01734" lon="2.54011">
        <ele>230.85</ele>
        <time>2015-10-04T11:45:33Z</time>
      </trkpt>
      <trkpt lat="43.01733" lon="2.54035">
        <ele>229.41</ele>
        <time>2015-10-04T11:45:34Z</time>
      </trkpt>
      <trkpt lat="43.01733" lon="2.54061">
        <ele>228.93</ele>
        <time>2015-10-04T11:45:35Z</time>
      </trkpt>
      <trkpt lat="43.01731" lon="2.54272">
        <ele>229.41</ele>
        <time>2015-10-04T11:45:43Z</time>
      </trkpt>
      <trkpt lat="43.01733" lon="2.54292">
        <ele>229.41</ele>
        <time>2015-10-04T11:45:44Z</time>
      </trkpt>
      <trkpt lat="43.01739" lon="2.54307">
        <ele>229.41</ele>
        <time>2015-10-04T11:45:45Z</time>
      </trkpt>
      <trkpt lat="43.0175" lon="2.5432">
        <ele>229.89</ele>
        <time>2015-10-04T11:45:46Z</time>
      </trkpt>
      <trkpt lat="43.01762" lon="2.54332">
        <ele>229.41</ele>
        <time>2015-10-04T11:45:47Z</time>
      </trkpt>
      <trkpt lat="43.01778" lon="2.54342">
        <ele>229.41</ele>
        <time>2015-10-04T11:45:48Z</time>
      </trkpt>
      <trkpt lat="43.01796" lon="2.54352">
        <ele>228.45</ele>
        <time>2015-10-04T11:45:49Z</time>
      </trkpt>
      <trkpt lat="43.01905" lon="2.5441">
        <ele>225.09</ele>
        <time>2015-10-04T11:45:55Z</time>
      </trkpt>
      <trkpt lat="43.01923" lon="2.54412">
        <ele>224.12</ele>
        <time>2015-10-04T11:45:56Z</time>
      </trkpt>
      <trkpt lat="43.01941" lon="2.54411">
        <ele>223.16</ele>
        <time>2015-10-04T11:45:57Z</time>
      </trkpt>
      <trkpt lat="43.0196" lon="2.5441">
        <ele>222.68</ele>
        <time>2015-10-04T11:45:58Z</time>
      </trkpt>
      <trkpt lat="43.01979" lon="2.54406">
        <ele>222.2</ele>
        <time>2015-10-04T11:45:59Z</time>
      </trkpt>
      <trkpt lat="43.02057" lon="2.54394">
        <ele>220.76</ele>
        <time>2015-10-04T11:46:04Z</time>
      </trkpt>
      <trkpt lat="43.0207" lon="2.54399">
        <ele>220.28</ele>
        <time>2015-10-04T11:46:05Z</time>
      </trkpt>
      <trkpt lat="43.02078" lon="2.54409">
        <ele>219.32</ele>
        <time>2015-10-04T11:46:06Z</time>
      </trkpt>
      <trkpt lat="43.02085" lon="2.54424">
        <ele>218.36</ele>
        <time>2015-10-04T11:46:07Z</time>
      </trkpt>
      <trkpt lat="43.02087" lon="2.54442">
        <ele>217.88</ele>
        <time>2015-10-04T11:46:08Z</time>
      </trkpt>
      <trkpt lat="43.02085" lon="2.5446">
        <ele>217.4</ele>
        <time>2015-10-04T11:46:09Z</time>
      </trkpt>
      <trkpt lat="43.02076" lon="2.54477">
        <ele>217.88</ele>
        <time>2015-10-04T11:46:10Z</time>
      </trkpt>
      <trkpt lat="43.02068" lon="2.54489">
        <ele>216.43</ele>
        <time>2015-10-04T11:46:11Z</time>
      </trkpt>
      <trkpt lat="43.02049" lon="2.54491">
        <ele>217.4</ele>
        <time>2015-10-04T11:46:12Z</time>
      </trkpt>
      <trkpt lat="43.02033" lon="2.54494">
        <ele>217.88</ele>
        <time>2015-10-04T11:46:13Z</time>
      </trkpt>
      <trkpt lat="43.02019" lon="2.54497">
        <ele>218.36</ele>
        <time>2015-10-04T11:46:14Z</time>
      </trkpt>
      <trkpt lat="43.01994" lon="2.54506">
        <ele>218.36</ele>
        <time>2015-10-04T11:46:16Z</time>
      </trkpt>
      <trkpt lat="43.01983" lon="2.54513">
        <ele>217.88</ele>
        <time>2015-10-04T11:46:17Z</time>
      </trkpt>
      <trkpt lat="43.01975" lon="2.54524">
        <ele>217.88</ele>
        <time>2015-10-04T11:46:18Z</time>
      </trkpt>
      <trkpt lat="43.0197" lon="2.54539">
        <ele>217.88</ele>
        <time>2015-10-04T11:46:19Z</time>
      </trkpt>
      <trkpt lat="43.01969" lon="2.54557">
        <ele>218.36</ele>
        <time>2015-10-04T11:46:20Z</time>
      </trkpt>
      <trkpt lat="43.01969" lon="2.54576">
        <ele>218.84</ele>
        <time>2015-10-04T11:46:21Z</time>
      </trkpt>
      <trkpt lat="43.0197" lon="2.54596">
        <ele>219.32</ele>
        <time>2015-10-04T11:46:22Z</time>
      </trkpt>
      <trkpt lat="43.01972" lon="2.54617">
        <ele>219.8</ele>
        <time>2015-10-04T11:46:23Z</time>
      </trkpt>
      <trkpt lat="43.01971" lon="2.54653">
        <ele>220.28</ele>
        <time>2015-10-04T11:46:25Z</time>
      </trkpt>
      <trkpt lat="43.01967" lon="2.5467">
        <ele>220.76</ele>
        <time>2015-10-04T11:46:26Z</time>
      </trkpt>
      <trkpt lat="43.01961" lon="2.54687">
        <ele>220.76</ele>
        <time>2015-10-04T11:46:27Z</time>
      </trkpt>
      <trkpt lat="43.01953" lon="2.54704">
        <ele>220.76</ele>
        <time>2015-10-04T11:46:28Z</time>
      </trkpt>
      <trkpt lat="43.01944" lon="2.54722">
        <ele>220.76</ele>
        <time>2015-10-04T11:46:29Z</time>
      </trkpt>
      <trkpt lat="43.01904" lon="2.5482">
        <ele>221.24</ele>
        <time>2015-10-04T11:46:36Z</time>
      </trkpt>
      <trkpt lat="43.01905" lon="2.54834">
        <ele>221.24</ele>
        <time>2015-10-04T11:46:37Z</time>
      </trkpt>
      <trkpt lat="43.01909" lon="2.54848">
        <ele>220.76</ele>
        <time>2015-10-04T11:46:38Z</time>
      </trkpt>
      <trkpt lat="43.01915" lon="2.54863">
        <ele>220.76</ele>
        <time>2015-10-04T11:46:39Z</time>
      </trkpt>
      <trkpt lat="43.0192" lon="2.54877">
        <ele>220.28</ele>
        <time>2015-10-04T11:46:40Z</time>
      </trkpt>
      <trkpt lat="43.01934" lon="2.54916">
        <ele>220.28</ele>
        <time>2015-10-04T11:46:43Z</time>
      </trkpt>
      <trkpt lat="43.0194" lon="2.54929">
        <ele>219.8</ele>
        <time>2015-10-04T11:46:44Z</time>
      </trkpt>
      <trkpt lat="43.0195" lon="2.54938">
        <ele>219.32</ele>
        <time>2015-10-04T11:46:45Z</time>
      </trkpt>
      <trkpt lat="43.01963" lon="2.54943">
        <ele>218.84</ele>
        <time>2015-10-04T11:46:46Z</time>
      </trkpt>
      <trkpt lat="43.01976" lon="2.54943">
        <ele>218.36</ele>
        <time>2015-10-04T11:46:47Z</time>
      </trkpt>
      <trkpt lat="43.01989" lon="2.54937">
        <ele>217.88</ele>
        <time>2015-10-04T11:46:48Z</time>
      </trkpt>
      <trkpt lat="43.02002" lon="2.54926">
        <ele>217.88</ele>
        <time>2015-10-04T11:46:49Z</time>
      </trkpt>
      <trkpt lat="43.02013" lon="2.54914">
        <ele>217.88</ele>
        <time>2015-10-04T11:46:50Z</time>
      </trkpt>
      <trkpt lat="43.02026" lon="2.54905">
        <ele>217.4</ele>
        <time>2015-10-04T11:46:51Z</time>
      </trkpt>
      <trkpt lat="43.02038" lon="2.54897">
        <ele>217.4</ele>
        <time>2015-10-04T11:46:52Z</time>
      </trkpt>
      <trkpt lat="43.0205" lon="2.54889">
        <ele>217.4</ele>
        <time>2015-10-04T11:46:53Z</time>
      </trkpt>
      <trkpt lat="43.0206" lon="2.54879">
        <ele>216.91</ele>
        <time>2015-10-04T11:46:54Z</time>
      </trkpt>
      <trkpt lat="43.0207" lon="2.54871">
        <ele>216.43</ele>
        <time>2015-10-04T11:46:55Z</time>
      </trkpt>
      <trkpt lat="43.02083" lon="2.54867">
        <ele>215.95</ele>
        <time>2015-10-04T11:46:56Z</time>
      </trkpt>
      <trkpt lat="43.02096" lon="2.5487">
        <ele>215.47</ele>
        <time>2015-10-04T11:46:57Z</time>
      </trkpt>
      <trkpt lat="43.0211" lon="2.54877">
        <ele>214.99</ele>
        <time>2015-10-04T11:46:58Z</time>
      </trkpt>
      <trkpt lat="43.02123" lon="2.5488">
        <ele>214.51</ele>
        <time>2015-10-04T11:46:59Z</time>
      </trkpt>
      <trkpt lat="43.02139" lon="2.5488">
        <ele>214.51</ele>
        <time>2015-10-04T11:47:00Z</time>
      </trkpt>
      <trkpt lat="43.02155" lon="2.54878">
        <ele>213.55</ele>
        <time>2015-10-04T11:47:01Z</time>
      </trkpt>
      <trkpt lat="43.02172" lon="2.54873">
        <ele>213.07</ele>
        <time>2015-10-04T11:47:02Z</time>
      </trkpt>
      <trkpt lat="43.02282" lon="2.54861">
        <ele>209.22</ele>
        <time>2015-10-04T11:47:09Z</time>
      </trkpt>
      <trkpt lat="43.02291" lon="2.54852">
        <ele>208.74</ele>
        <time>2015-10-04T11:47:10Z</time>
      </trkpt>
      <trkpt lat="43.023" lon="2.54838">
        <ele>207.78</ele>
        <time>2015-10-04T11:47:11Z</time>
      </trkpt>
      <trkpt lat="43.02307" lon="2.54819">
        <ele>206.82</ele>
        <time>2015-10-04T11:47:12Z</time>
      </trkpt>
      <trkpt lat="43.02311" lon="2.54797">
        <ele>207.3</ele>
        <time>2015-10-04T11:47:13Z</time>
      </trkpt>
      <trkpt lat="43.02317" lon="2.54777">
        <ele>207.3</ele>
        <time>2015-10-04T11:47:14Z</time>
      </trkpt>
      <trkpt lat="43.02341" lon="2.54725">
        <ele>205.86</ele>
        <time>2015-10-04T11:47:17Z</time>
      </trkpt>
      <trkpt lat="43.02351" lon="2.54711">
        <ele>205.38</ele>
        <time>2015-10-04T11:47:18Z</time>
      </trkpt>
      <trkpt lat="43.02372" lon="2.54684">
        <ele>204.42</ele>
        <time>2015-10-04T11:47:20Z</time>
      </trkpt>
      <trkpt lat="43.02381" lon="2.5467">
        <ele>203.46</ele>
        <time>2015-10-04T11:47:21Z</time>
      </trkpt>
      <trkpt lat="43.02393" lon="2.5466">
        <ele>202.98</ele>
        <time>2015-10-04T11:47:22Z</time>
      </trkpt>
      <trkpt lat="43.02408" lon="2.54651">
        <ele>202.49</ele>
        <time>2015-10-04T11:47:23Z</time>
      </trkpt>
      <trkpt lat="43.02422" lon="2.54643">
        <ele>202.01</ele>
        <time>2015-10-04T11:47:24Z</time>
      </trkpt>
      <trkpt lat="43.02436" lon="2.54637">
        <ele>201.53</ele>
        <time>2015-10-04T11:47:25Z</time>
      </trkpt>
      <trkpt lat="43.02496" lon="2.54618">
        <ele>199.13</ele>
        <time>2015-10-04T11:47:29Z</time>
      </trkpt>
      <trkpt lat="43.02514" lon="2.54615">
        <ele>198.17</ele>
        <time>2015-10-04T11:47:30Z</time>
      </trkpt>
      <trkpt lat="43.02662" lon="2.54584">
        <ele>193.36</ele>
        <time>2015-10-04T11:47:39Z</time>
      </trkpt>
      <trkpt lat="43.02672" lon="2.54587">
        <ele>192.4</ele>
        <time>2015-10-04T11:47:40Z</time>
      </trkpt>
      <trkpt lat="43.02679" lon="2.54598">
        <ele>191.92</ele>
        <time>2015-10-04T11:47:41Z</time>
      </trkpt>
      <trkpt lat="43.02682" lon="2.54613">
        <ele>190.96</ele>
        <time>2015-10-04T11:47:42Z</time>
      </trkpt>
      <trkpt lat="43.02685" lon="2.5463">
        <ele>191.92</ele>
        <time>2015-10-04T11:47:43Z</time>
      </trkpt>
      <trkpt lat="43.02688" lon="2.54645">
        <ele>192.4</ele>
        <time>2015-10-04T11:47:44Z</time>
      </trkpt>
      <trkpt lat="43.02691" lon="2.54659">
        <ele>191.92</ele>
        <time>2015-10-04T11:47:45Z</time>
      </trkpt>
      <trkpt lat="43.02696" lon="2.54672">
        <ele>191.44</ele>
        <time>2015-10-04T11:47:46Z</time>
      </trkpt>
      <trkpt lat="43.02704" lon="2.54681">
        <ele>190.96</ele>
        <time>2015-10-04T11:47:47Z</time>
      </trkpt>
      <trkpt lat="43.0272" lon="2.54685">
        <ele>190.96</ele>
        <time>2015-10-04T11:47:48Z</time>
      </trkpt>
      <trkpt lat="43.02736" lon="2.5469">
        <ele>191.44</ele>
        <time>2015-10-04T11:47:49Z</time>
      </trkpt>
      <trkpt lat="43.02753" lon="2.54696">
        <ele>191.44</ele>
        <time>2015-10-04T11:47:50Z</time>
      </trkpt>
      <trkpt lat="43.02861" lon="2.54768">
        <ele>191.92</ele>
        <time>2015-10-04T11:47:57Z</time>
      </trkpt>
      <trkpt lat="43.02905" lon="2.54809">
        <ele>191.92</ele>
        <time>2015-10-04T11:48:01Z</time>
      </trkpt>
      <trkpt lat="43.02913" lon="2.54823">
        <ele>191.92</ele>
        <time>2015-10-04T11:48:02Z</time>
      </trkpt>
      <trkpt lat="43.02921" lon="2.54841">
        <ele>191.44</ele>
        <time>2015-10-04T11:48:03Z</time>
      </trkpt>
      <trkpt lat="43.02936" lon="2.5488">
        <ele>191.92</ele>
        <time>2015-10-04T11:48:05Z</time>
      </trkpt>
      <trkpt lat="43.02947" lon="2.54899">
        <ele>191.44</ele>
        <time>2015-10-04T11:48:06Z</time>
      </trkpt>
      <trkpt lat="43.02958" lon="2.54917">
        <ele>191.44</ele>
        <time>2015-10-04T11:48:07Z</time>
      </trkpt>
      <trkpt lat="43.02971" lon="2.54933">
        <ele>191.44</ele>
        <time>2015-10-04T11:48:08Z</time>
      </trkpt>
      <trkpt lat="43.02985" lon="2.54946">
        <ele>190.96</ele>
        <time>2015-10-04T11:48:09Z</time>
      </trkpt>
      <trkpt lat="43.02998" lon="2.54956">
        <ele>190.96</ele>
        <time>2015-10-04T11:48:10Z</time>
      </trkpt>
      <trkpt lat="43.03011" lon="2.54967">
        <ele>190.48</ele>
        <time>2015-10-04T11:48:11Z</time>
      </trkpt>
      <trkpt lat="43.03024" lon="2.5498">
        <ele>190</ele>
        <time>2015-10-04T11:48:12Z</time>
      </trkpt>
      <trkpt lat="43.03034" lon="2.54995">
        <ele>190</ele>
        <time>2015-10-04T11:48:13Z</time>
      </trkpt>
      <trkpt lat="43.03043" lon="2.5501">
        <ele>190</ele>
        <time>2015-10-04T11:48:14Z</time>
      </trkpt>
      <trkpt lat="43.03052" lon="2.55026">
        <ele>190</ele>
        <time>2015-10-04T11:48:15Z</time>
      </trkpt>
      <trkpt lat="43.03059" lon="2.55044">
        <ele>190.48</ele>
        <time>2015-10-04T11:48:16Z</time>
      </trkpt>
      <trkpt lat="43.03065" lon="2.55064">
        <ele>190.48</ele>
        <time>2015-10-04T11:48:17Z</time>
      </trkpt>
      <trkpt lat="43.03083" lon="2.55122">
        <ele>190</ele>
        <time>2015-10-04T11:48:20Z</time>
      </trkpt>
      <trkpt lat="43.03093" lon="2.55138">
        <ele>189.52</ele>
        <time>2015-10-04T11:48:21Z</time>
      </trkpt>
      <trkpt lat="43.03105" lon="2.55154">
        <ele>189.52</ele>
        <time>2015-10-04T11:48:22Z</time>
      </trkpt>
      <trkpt lat="43.03188" lon="2.55257">
        <ele>188.56</ele>
        <time>2015-10-04T11:48:29Z</time>
      </trkpt>
      <trkpt lat="43.03201" lon="2.55263">
        <ele>188.08</ele>
        <time>2015-10-04T11:48:30Z</time>
      </trkpt>
      <trkpt lat="43.03215" lon="2.55268">
        <ele>188.08</ele>
        <time>2015-10-04T11:48:31Z</time>
      </trkpt>
      <trkpt lat="43.0323" lon="2.55274">
        <ele>187.59</ele>
        <time>2015-10-04T11:48:32Z</time>
      </trkpt>
      <trkpt lat="43.03243" lon="2.55282">
        <ele>187.59</ele>
        <time>2015-10-04T11:48:33Z</time>
      </trkpt>
      <trkpt lat="43.03255" lon="2.55294">
        <ele>187.59</ele>
        <time>2015-10-04T11:48:34Z</time>
      </trkpt>
      <trkpt lat="43.03265" lon="2.55308">
        <ele>187.11</ele>
        <time>2015-10-04T11:48:35Z</time>
      </trkpt>
      <trkpt lat="43.03273" lon="2.55326">
        <ele>186.63</ele>
        <time>2015-10-04T11:48:36Z</time>
      </trkpt>
      <trkpt lat="43.03281" lon="2.55345">
        <ele>186.63</ele>
        <time>2015-10-04T11:48:37Z</time>
      </trkpt>
      <trkpt lat="43.03286" lon="2.55365">
        <ele>186.63</ele>
        <time>2015-10-04T11:48:38Z</time>
      </trkpt>
      <trkpt lat="43.03291" lon="2.55383">
        <ele>186.63</ele>
        <time>2015-10-04T11:48:39Z</time>
      </trkpt>
      <trkpt lat="43.03297" lon="2.554">
        <ele>186.15</ele>
        <time>2015-10-04T11:48:40Z</time>
      </trkpt>
      <trkpt lat="43.03305" lon="2.55414">
        <ele>185.67</ele>
        <time>2015-10-04T11:48:41Z</time>
      </trkpt>
      <trkpt lat="43.03316" lon="2.55425">
        <ele>185.19</ele>
        <time>2015-10-04T11:48:42Z</time>
      </trkpt>
      <trkpt lat="43.03329" lon="2.55435">
        <ele>184.71</ele>
        <time>2015-10-04T11:48:43Z</time>
      </trkpt>
      <trkpt lat="43.03342" lon="2.55444">
        <ele>184.71</ele>
        <time>2015-10-04T11:48:44Z</time>
      </trkpt>
      <trkpt lat="43.03354" lon="2.5545">
        <ele>184.23</ele>
        <time>2015-10-04T11:48:45Z</time>
      </trkpt>
      <trkpt lat="43.03367" lon="2.55455">
        <ele>184.23</ele>
        <time>2015-10-04T11:48:46Z</time>
      </trkpt>
      <trkpt lat="43.03379" lon="2.55454">
        <ele>183.27</ele>
        <time>2015-10-04T11:48:47Z</time>
      </trkpt>
      <trkpt lat="43.0339" lon="2.55449">
        <ele>182.79</ele>
        <time>2015-10-04T11:48:48Z</time>
      </trkpt>
      <trkpt lat="43.03401" lon="2.5544">
        <ele>182.79</ele>
        <time>2015-10-04T11:48:49Z</time>
      </trkpt>
      <trkpt lat="43.03413" lon="2.55431">
        <ele>182.79</ele>
        <time>2015-10-04T11:48:50Z</time>
      </trkpt>
      <trkpt lat="43.03425" lon="2.55423">
        <ele>182.79</ele>
        <time>2015-10-04T11:48:51Z</time>
      </trkpt>
      <trkpt lat="43.03438" lon="2.55417">
        <ele>183.27</ele>
        <time>2015-10-04T11:48:52Z</time>
      </trkpt>
      <trkpt lat="43.03452" lon="2.55414">
        <ele>183.27</ele>
        <time>2015-10-04T11:48:53Z</time>
      </trkpt>
      <trkpt lat="43.03465" lon="2.55413">
        <ele>183.75</ele>
        <time>2015-10-04T11:48:54Z</time>
      </trkpt>
      <trkpt lat="43.03478" lon="2.55415">
        <ele>183.75</ele>
        <time>2015-10-04T11:48:55Z</time>
      </trkpt>
      <trkpt lat="43.03492" lon="2.55421">
        <ele>183.27</ele>
        <time>2015-10-04T11:48:56Z</time>
      </trkpt>
      <trkpt lat="43.03505" lon="2.55429">
        <ele>182.79</ele>
        <time>2015-10-04T11:48:57Z</time>
      </trkpt>
      <trkpt lat="43.03516" lon="2.55441">
        <ele>181.83</ele>
        <time>2015-10-04T11:48:58Z</time>
      </trkpt>
      <trkpt lat="43.03525" lon="2.55455">
        <ele>181.83</ele>
        <time>2015-10-04T11:48:59Z</time>
      </trkpt>
      <trkpt lat="43.03532" lon="2.55471">
        <ele>180.87</ele>
        <time>2015-10-04T11:49:00Z</time>
      </trkpt>
      <trkpt lat="43.03538" lon="2.5549">
        <ele>180.87</ele>
        <time>2015-10-04T11:49:01Z</time>
      </trkpt>
      <trkpt lat="43.03542" lon="2.55511">
        <ele>180.87</ele>
        <time>2015-10-04T11:49:02Z</time>
      </trkpt>
      <trkpt lat="43.03544" lon="2.55534">
        <ele>181.35</ele>
        <time>2015-10-04T11:49:03Z</time>
      </trkpt>
      <trkpt lat="43.0356" lon="2.55707">
        <ele>183.75</ele>
        <time>2015-10-04T11:49:10Z</time>
      </trkpt>
      <trkpt lat="43.03576" lon="2.55769">
        <ele>184.23</ele>
        <time>2015-10-04T11:49:13Z</time>
      </trkpt>
      <trkpt lat="43.03585" lon="2.55788">
        <ele>184.23</ele>
        <time>2015-10-04T11:49:14Z</time>
      </trkpt>
      <trkpt lat="43.03595" lon="2.55804">
        <ele>184.23</ele>
        <time>2015-10-04T11:49:15Z</time>
      </trkpt>
      <trkpt lat="43.03606" lon="2.55819">
        <ele>184.23</ele>
        <time>2015-10-04T11:49:16Z</time>
      </trkpt>
      <trkpt lat="43.03618" lon="2.55833">
        <ele>184.23</ele>
        <time>2015-10-04T11:49:17Z</time>
      </trkpt>
      <trkpt lat="43.03631" lon="2.55845">
        <ele>184.23</ele>
        <time>2015-10-04T11:49:18Z</time>
      </trkpt>
      <trkpt lat="43.03645" lon="2.55855">
        <ele>184.23</ele>
        <time>2015-10-04T11:49:19Z</time>
      </trkpt>
      <trkpt lat="43.0366" lon="2.55863">
        <ele>183.75</ele>
        <time>2015-10-04T11:49:20Z</time>
      </trkpt>
      <trkpt lat="43.03674" lon="2.55871">
        <ele>183.75</ele>
        <time>2015-10-04T11:49:21Z</time>
      </trkpt>
      <trkpt lat="43.03687" lon="2.55881">
        <ele>183.75</ele>
        <time>2015-10-04T11:49:22Z</time>
      </trkpt>
      <trkpt lat="43.03699" lon="2.55891">
        <ele>183.75</ele>
        <time>2015-10-04T11:49:23Z</time>
      </trkpt>
      <trkpt lat="43.0371" lon="2.55901">
        <ele>184.23</ele>
        <time>2015-10-04T11:49:24Z</time>
      </trkpt>
      <trkpt lat="43.03719" lon="2.55913">
        <ele>184.23</ele>
        <time>2015-10-04T11:49:25Z</time>
      </trkpt>
      <trkpt lat="43.03725" lon="2.55925">
        <ele>184.23</ele>
        <time>2015-10-04T11:49:26Z</time>
      </trkpt>
      <trkpt lat="43.03729" lon="2.55941">
        <ele>184.23</ele>
        <time>2015-10-04T11:49:27Z</time>
      </trkpt>
      <trkpt lat="43.03726" lon="2.55958">
        <ele>184.71</ele>
        <time>2015-10-04T11:49:28Z</time>
      </trkpt>
      <trkpt lat="43.0372" lon="2.55976">
        <ele>184.71</ele>
        <time>2015-10-04T11:49:29Z</time>
      </trkpt>
      <trkpt lat="43.03713" lon="2.55992">
        <ele>185.19</ele>
        <time>2015-10-04T11:49:30Z</time>
      </trkpt>
      <trkpt lat="43.03701" lon="2.56005">
        <ele>184.71</ele>
        <time>2015-10-04T11:49:31Z</time>
      </trkpt>
      <trkpt lat="43.03685" lon="2.56015">
        <ele>183.27</ele>
        <time>2015-10-04T11:49:32Z</time>
      </trkpt>
      <trkpt lat="43.03672" lon="2.56022">
        <ele>182.79</ele>
        <time>2015-10-04T11:49:33Z</time>
      </trkpt>
      <trkpt lat="43.03659" lon="2.56026">
        <ele>182.79</ele>
        <time>2015-10-04T11:49:34Z</time>
      </trkpt>
      <trkpt lat="43.03646" lon="2.56031">
        <ele>182.79</ele>
        <time>2015-10-04T11:49:35Z</time>
      </trkpt>
      <trkpt lat="43.03619" lon="2.56043">
        <ele>182.31</ele>
        <time>2015-10-04T11:49:37Z</time>
      </trkpt>
      <trkpt lat="43.03607" lon="2.56052">
        <ele>182.31</ele>
        <time>2015-10-04T11:49:38Z</time>
      </trkpt>
      <trkpt lat="43.03594" lon="2.56064">
        <ele>182.31</ele>
        <time>2015-10-04T11:49:39Z</time>
      </trkpt>
      <trkpt lat="43.03583" lon="2.56076">
        <ele>182.31</ele>
        <time>2015-10-04T11:49:40Z</time>
      </trkpt>
      <trkpt lat="43.03572" lon="2.56089">
        <ele>183.27</ele>
        <time>2015-10-04T11:49:41Z</time>
      </trkpt>
      <trkpt lat="43.03562" lon="2.56104">
        <ele>183.27</ele>
        <time>2015-10-04T11:49:42Z</time>
      </trkpt>
      <trkpt lat="43.03554" lon="2.5612">
        <ele>183.27</ele>
        <time>2015-10-04T11:49:43Z</time>
      </trkpt>
      <trkpt lat="43.03548" lon="2.56141">
        <ele>183.27</ele>
        <time>2015-10-04T11:49:44Z</time>
      </trkpt>
      <trkpt lat="43.03543" lon="2.56163">
        <ele>183.27</ele>
        <time>2015-10-04T11:49:45Z</time>
      </trkpt>
      <trkpt lat="43.0354" lon="2.56185">
        <ele>183.27</ele>
        <time>2015-10-04T11:49:46Z</time>
      </trkpt>
      <trkpt lat="43.03537" lon="2.56209">
        <ele>182.31</ele>
        <time>2015-10-04T11:49:47Z</time>
      </trkpt>
      <trkpt lat="43.03533" lon="2.5628">
        <ele>182.31</ele>
        <time>2015-10-04T11:49:50Z</time>
      </trkpt>
      <trkpt lat="43.03536" lon="2.56304">
        <ele>182.31</ele>
        <time>2015-10-04T11:49:51Z</time>
      </trkpt>
      <trkpt lat="43.0354" lon="2.56326">
        <ele>182.79</ele>
        <time>2015-10-04T11:49:52Z</time>
      </trkpt>
      <trkpt lat="43.03546" lon="2.56347">
        <ele>182.79</ele>
        <time>2015-10-04T11:49:53Z</time>
      </trkpt>
      <trkpt lat="43.03555" lon="2.56368">
        <ele>182.79</ele>
        <time>2015-10-04T11:49:54Z</time>
      </trkpt>
      <trkpt lat="43.03567" lon="2.56389">
        <ele>182.31</ele>
        <time>2015-10-04T11:49:55Z</time>
      </trkpt>
      <trkpt lat="43.0358" lon="2.56408">
        <ele>182.79</ele>
        <time>2015-10-04T11:49:56Z</time>
      </trkpt>
      <trkpt lat="43.03595" lon="2.56427">
        <ele>182.79</ele>
        <time>2015-10-04T11:49:57Z</time>
      </trkpt>
      <trkpt lat="43.03666" lon="2.56541">
        <ele>182.79</ele>
        <time>2015-10-04T11:50:03Z</time>
      </trkpt>
      <trkpt lat="43.03673" lon="2.56561">
        <ele>182.79</ele>
        <time>2015-10-04T11:50:04Z</time>
      </trkpt>
      <trkpt lat="43.03682" lon="2.56603">
        <ele>182.31</ele>
        <time>2015-10-04T11:50:06Z</time>
      </trkpt>
      <trkpt lat="43.0369" lon="2.56623">
        <ele>182.79</ele>
        <time>2015-10-04T11:50:07Z</time>
      </trkpt>
      <trkpt lat="43.03699" lon="2.56641">
        <ele>182.31</ele>
        <time>2015-10-04T11:50:08Z</time>
      </trkpt>
      <trkpt lat="43.03729" lon="2.56688">
        <ele>181.83</ele>
        <time>2015-10-04T11:50:11Z</time>
      </trkpt>
      <trkpt lat="43.03742" lon="2.567">
        <ele>181.83</ele>
        <time>2015-10-04T11:50:12Z</time>
      </trkpt>
      <trkpt lat="43.03756" lon="2.56709">
        <ele>181.35</ele>
        <time>2015-10-04T11:50:13Z</time>
      </trkpt>
      <trkpt lat="43.03772" lon="2.56717">
        <ele>181.35</ele>
        <time>2015-10-04T11:50:14Z</time>
      </trkpt>
      <trkpt lat="43.03787" lon="2.56724">
        <ele>181.35</ele>
        <time>2015-10-04T11:50:15Z</time>
      </trkpt>
      <trkpt lat="43.03803" lon="2.56728">
        <ele>180.38</ele>
        <time>2015-10-04T11:50:16Z</time>
      </trkpt>
      <trkpt lat="43.0382" lon="2.56729">
        <ele>179.9</ele>
        <time>2015-10-04T11:50:17Z</time>
      </trkpt>
      <trkpt lat="43.03837" lon="2.56728">
        <ele>179.9</ele>
        <time>2015-10-04T11:50:18Z</time>
      </trkpt>
      <trkpt lat="43.03883" lon="2.56724">
        <ele>179.42</ele>
        <time>2015-10-04T11:50:21Z</time>
      </trkpt>
      <trkpt lat="43.03897" lon="2.5672">
        <ele>178.94</ele>
        <time>2015-10-04T11:50:22Z</time>
      </trkpt>
      <trkpt lat="43.03911" lon="2.56713">
        <ele>178.94</ele>
        <time>2015-10-04T11:50:23Z</time>
      </trkpt>
      <trkpt lat="43.03924" lon="2.56702">
        <ele>178.46</ele>
        <time>2015-10-04T11:50:24Z</time>
      </trkpt>
      <trkpt lat="43.03937" lon="2.56689">
        <ele>178.46</ele>
        <time>2015-10-04T11:50:25Z</time>
      </trkpt>
      <trkpt lat="43.03949" lon="2.56673">
        <ele>177.98</ele>
        <time>2015-10-04T11:50:26Z</time>
      </trkpt>
      <trkpt lat="43.03962" lon="2.56657">
        <ele>177.98</ele>
        <time>2015-10-04T11:50:27Z</time>
      </trkpt>
      <trkpt lat="43.03987" lon="2.56629">
        <ele>177.98</ele>
        <time>2015-10-04T11:50:29Z</time>
      </trkpt>
      <trkpt lat="43.04" lon="2.56617">
        <ele>177.98</ele>
        <time>2015-10-04T11:50:30Z</time>
      </trkpt>
      <trkpt lat="43.04011" lon="2.56603">
        <ele>177.98</ele>
        <time>2015-10-04T11:50:31Z</time>
      </trkpt>
      <trkpt lat="43.04021" lon="2.56588">
        <ele>177.98</ele>
        <time>2015-10-04T11:50:32Z</time>
      </trkpt>
      <trkpt lat="43.0403" lon="2.56571">
        <ele>177.5</ele>
        <time>2015-10-04T11:50:33Z</time>
      </trkpt>
      <trkpt lat="43.04037" lon="2.56553">
        <ele>177.5</ele>
        <time>2015-10-04T11:50:34Z</time>
      </trkpt>
      <trkpt lat="43.04044" lon="2.56535">
        <ele>177.5</ele>
        <time>2015-10-04T11:50:35Z</time>
      </trkpt>
      <trkpt lat="43.04057" lon="2.56501">
        <ele>177.02</ele>
        <time>2015-10-04T11:50:37Z</time>
      </trkpt>
      <trkpt lat="43.04066" lon="2.56487">
        <ele>177.5</ele>
        <time>2015-10-04T11:50:38Z</time>
      </trkpt>
      <trkpt lat="43.04077" lon="2.56476">
        <ele>177.98</ele>
        <time>2015-10-04T11:50:39Z</time>
      </trkpt>
      <trkpt lat="43.0409" lon="2.56469">
        <ele>177.98</ele>
        <time>2015-10-04T11:50:40Z</time>
      </trkpt>
      <trkpt lat="43.04105" lon="2.56466">
        <ele>178.46</ele>
        <time>2015-10-04T11:50:41Z</time>
      </trkpt>
      <trkpt lat="43.04121" lon="2.56465">
        <ele>177.98</ele>
        <time>2015-10-04T11:50:42Z</time>
      </trkpt>
      <trkpt lat="43.04138" lon="2.56466">
        <ele>177.5</ele>
        <time>2015-10-04T11:50:43Z</time>
      </trkpt>
      <trkpt lat="43.04204" lon="2.56473">
        <ele>176.54</ele>
        <time>2015-10-04T11:50:47Z</time>
      </trkpt>
      <trkpt lat="43.0422" lon="2.5648">
        <ele>176.54</ele>
        <time>2015-10-04T11:50:48Z</time>
      </trkpt>
      <trkpt lat="43.04237" lon="2.56488">
        <ele>176.06</ele>
        <time>2015-10-04T11:50:49Z</time>
      </trkpt>
      <trkpt lat="43.04253" lon="2.56499">
        <ele>176.06</ele>
        <time>2015-10-04T11:50:50Z</time>
      </trkpt>
      <trkpt lat="43.04267" lon="2.56513">
        <ele>175.58</ele>
        <time>2015-10-04T11:50:51Z</time>
      </trkpt>
      <trkpt lat="43.04281" lon="2.56532">
        <ele>175.58</ele>
        <time>2015-10-04T11:50:52Z</time>
      </trkpt>
      <trkpt lat="43.04288" lon="2.5655">
        <ele>175.1</ele>
        <time>2015-10-04T11:50:53Z</time>
      </trkpt>
      <trkpt lat="43.04287" lon="2.56569">
        <ele>175.1</ele>
        <time>2015-10-04T11:50:54Z</time>
      </trkpt>
      <trkpt lat="43.04284" lon="2.56584">
        <ele>175.1</ele>
        <time>2015-10-04T11:50:55Z</time>
      </trkpt>
      <trkpt lat="43.04279" lon="2.56597">
        <ele>175.1</ele>
        <time>2015-10-04T11:50:56Z</time>
      </trkpt>
      <trkpt lat="43.04273" lon="2.5661">
        <ele>175.1</ele>
        <time>2015-10-04T11:50:57Z</time>
      </trkpt>
      <trkpt lat="43.04265" lon="2.56623">
        <ele>175.1</ele>
        <time>2015-10-04T11:50:58Z</time>
      </trkpt>
      <trkpt lat="43.04255" lon="2.56635">
        <ele>175.1</ele>
        <time>2015-10-04T11:50:59Z</time>
      </trkpt>
      <trkpt lat="43.04244" lon="2.56647">
        <ele>175.1</ele>
        <time>2015-10-04T11:51:00Z</time>
      </trkpt>
      <trkpt lat="43.04231" lon="2.56659">
        <ele>175.1</ele>
        <time>2015-10-04T11:51:01Z</time>
      </trkpt>
      <trkpt lat="43.04147" lon="2.56752">
        <ele>173.66</ele>
        <time>2015-10-04T11:51:08Z</time>
      </trkpt>
      <trkpt lat="43.04134" lon="2.56762">
        <ele>173.66</ele>
        <time>2015-10-04T11:51:09Z</time>
      </trkpt>
      <trkpt lat="43.0412" lon="2.5677">
        <ele>174.14</ele>
        <time>2015-10-04T11:51:10Z</time>
      </trkpt>
      <trkpt lat="43.04106" lon="2.56776">
        <ele>174.14</ele>
        <time>2015-10-04T11:51:11Z</time>
      </trkpt>
      <trkpt lat="43.04093" lon="2.56781">
        <ele>174.14</ele>
        <time>2015-10-04T11:51:12Z</time>
      </trkpt>
      <trkpt lat="43.04015" lon="2.56827">
        <ele>174.14</ele>
        <time>2015-10-04T11:51:19Z</time>
      </trkpt>
      <trkpt lat="43.04008" lon="2.56837">
        <ele>174.62</ele>
        <time>2015-10-04T11:51:20Z</time>
      </trkpt>
      <trkpt lat="43.03998" lon="2.56852">
        <ele>174.62</ele>
        <time>2015-10-04T11:51:21Z</time>
      </trkpt>
      <trkpt lat="43.03987" lon="2.56868">
        <ele>174.14</ele>
        <time>2015-10-04T11:51:22Z</time>
      </trkpt>
      <trkpt lat="43.03978" lon="2.56883">
        <ele>174.14</ele>
        <time>2015-10-04T11:51:23Z</time>
      </trkpt>
      <trkpt lat="43.03967" lon="2.56897">
        <ele>173.66</ele>
        <time>2015-10-04T11:51:24Z</time>
      </trkpt>
      <trkpt lat="43.03941" lon="2.56941">
        <ele>172.21</ele>
        <time>2015-10-04T11:51:27Z</time>
      </trkpt>
      <trkpt lat="43.03935" lon="2.56959">
        <ele>171.73</ele>
        <time>2015-10-04T11:51:28Z</time>
      </trkpt>
      <trkpt lat="43.03932" lon="2.5698">
        <ele>170.77</ele>
        <time>2015-10-04T11:51:29Z</time>
      </trkpt>
      <trkpt lat="43.03932" lon="2.57001">
        <ele>170.77</ele>
        <time>2015-10-04T11:51:30Z</time>
      </trkpt>
      <trkpt lat="43.03932" lon="2.57023">
        <ele>170.29</ele>
        <time>2015-10-04T11:51:31Z</time>
      </trkpt>
      <trkpt lat="43.03934" lon="2.57045">
        <ele>170.29</ele>
        <time>2015-10-04T11:51:32Z</time>
      </trkpt>
      <trkpt lat="43.03938" lon="2.57067">
        <ele>170.29</ele>
        <time>2015-10-04T11:51:33Z</time>
      </trkpt>
      <trkpt lat="43.03941" lon="2.5709">
        <ele>170.77</ele>
        <time>2015-10-04T11:51:34Z</time>
      </trkpt>
      <trkpt lat="43.03961" lon="2.57172">
        <ele>171.73</ele>
        <time>2015-10-04T11:51:38Z</time>
      </trkpt>
      <trkpt lat="43.03969" lon="2.57191">
        <ele>171.73</ele>
        <time>2015-10-04T11:51:39Z</time>
      </trkpt>
      <trkpt lat="43.04066" lon="2.57378">
        <ele>171.73</ele>
        <time>2015-10-04T11:51:48Z</time>
      </trkpt>
      <trkpt lat="43.04116" lon="2.57487">
        <ele>172.69</ele>
        <time>2015-10-04T11:51:54Z</time>
      </trkpt>
      <trkpt lat="43.04126" lon="2.57494">
        <ele>172.69</ele>
        <time>2015-10-04T11:51:55Z</time>
      </trkpt>
      <trkpt lat="43.04152" lon="2.57513">
        <ele>172.69</ele>
        <time>2015-10-04T11:51:57Z</time>
      </trkpt>
      <trkpt lat="43.04166" lon="2.57526">
        <ele>172.69</ele>
        <time>2015-10-04T11:51:58Z</time>
      </trkpt>
      <trkpt lat="43.04202" lon="2.57567">
        <ele>172.69</ele>
        <time>2015-10-04T11:52:01Z</time>
      </trkpt>
      <trkpt lat="43.04263" lon="2.5767">
        <ele>171.73</ele>
        <time>2015-10-04T11:52:07Z</time>
      </trkpt>
      <trkpt lat="43.0427" lon="2.5769">
        <ele>171.25</ele>
        <time>2015-10-04T11:52:08Z</time>
      </trkpt>
      <trkpt lat="43.04332" lon="2.57886">
        <ele>170.77</ele>
        <time>2015-10-04T11:52:17Z</time>
      </trkpt>
      <trkpt lat="43.04341" lon="2.58065">
        <ele>171.25</ele>
        <time>2015-10-04T11:52:25Z</time>
      </trkpt>
      <trkpt lat="43.0434" lon="2.58089">
        <ele>171.25</ele>
        <time>2015-10-04T11:52:26Z</time>
      </trkpt>
      <trkpt lat="43.04339" lon="2.58113">
        <ele>171.25</ele>
        <time>2015-10-04T11:52:27Z</time>
      </trkpt>
      <trkpt lat="43.04337" lon="2.5818">
        <ele>171.25</ele>
        <time>2015-10-04T11:52:30Z</time>
      </trkpt>
      <trkpt lat="43.04338" lon="2.58201">
        <ele>170.77</ele>
        <time>2015-10-04T11:52:31Z</time>
      </trkpt>
      <trkpt lat="43.04346" lon="2.58272">
        <ele>170.29</ele>
        <time>2015-10-04T11:52:35Z</time>
      </trkpt>
      <trkpt lat="43.04349" lon="2.58286">
        <ele>170.29</ele>
        <time>2015-10-04T11:52:36Z</time>
      </trkpt>
      <trkpt lat="43.04354" lon="2.58298">
        <ele>169.33</ele>
        <time>2015-10-04T11:52:37Z</time>
      </trkpt>
      <trkpt lat="43.04362" lon="2.58308">
        <ele>168.85</ele>
        <time>2015-10-04T11:52:38Z</time>
      </trkpt>
      <trkpt lat="43.04373" lon="2.58314">
        <ele>167.89</ele>
        <time>2015-10-04T11:52:39Z</time>
      </trkpt>
      <trkpt lat="43.04389" lon="2.58317">
        <ele>167.41</ele>
        <time>2015-10-04T11:52:40Z</time>
      </trkpt>
      <trkpt lat="43.04404" lon="2.58321">
        <ele>166.93</ele>
        <time>2015-10-04T11:52:41Z</time>
      </trkpt>
      <trkpt lat="43.04418" lon="2.58323">
        <ele>166.45</ele>
        <time>2015-10-04T11:52:42Z</time>
      </trkpt>
      <trkpt lat="43.04435" lon="2.58323">
        <ele>167.41</ele>
        <time>2015-10-04T11:52:43Z</time>
      </trkpt>
      <trkpt lat="43.0445" lon="2.58322">
        <ele>166.93</ele>
        <time>2015-10-04T11:52:44Z</time>
      </trkpt>
      <trkpt lat="43.04464" lon="2.58318">
        <ele>166.45</ele>
        <time>2015-10-04T11:52:45Z</time>
      </trkpt>
      <trkpt lat="43.04478" lon="2.5831">
        <ele>165.48</ele>
        <time>2015-10-04T11:52:46Z</time>
      </trkpt>
      <trkpt lat="43.04492" lon="2.58301">
        <ele>165.48</ele>
        <time>2015-10-04T11:52:47Z</time>
      </trkpt>
      <trkpt lat="43.04565" lon="2.58267">
        <ele>165.48</ele>
        <time>2015-10-04T11:52:52Z</time>
      </trkpt>
      <trkpt lat="43.04579" lon="2.58265">
        <ele>165.96</ele>
        <time>2015-10-04T11:52:53Z</time>
      </trkpt>
      <trkpt lat="43.04595" lon="2.58265">
        <ele>165.96</ele>
        <time>2015-10-04T11:52:54Z</time>
      </trkpt>
      <trkpt lat="43.04611" lon="2.58267">
        <ele>165.96</ele>
        <time>2015-10-04T11:52:55Z</time>
      </trkpt>
      <trkpt lat="43.04627" lon="2.58271">
        <ele>165.96</ele>
        <time>2015-10-04T11:52:56Z</time>
      </trkpt>
      <trkpt lat="43.04775" lon="2.58315">
        <ele>165</ele>
        <time>2015-10-04T11:53:04Z</time>
      </trkpt>
      <trkpt lat="43.0482" lon="2.58333">
        <ele>165</ele>
        <time>2015-10-04T11:53:07Z</time>
      </trkpt>
      <trkpt lat="43.04832" lon="2.58345">
        <ele>165.48</ele>
        <time>2015-10-04T11:53:08Z</time>
      </trkpt>
      <trkpt lat="43.04844" lon="2.58357">
        <ele>165.48</ele>
        <time>2015-10-04T11:53:09Z</time>
      </trkpt>
      <trkpt lat="43.04854" lon="2.5837">
        <ele>165.96</ele>
        <time>2015-10-04T11:53:10Z</time>
      </trkpt>
      <trkpt lat="43.04863" lon="2.58384">
        <ele>165.96</ele>
        <time>2015-10-04T11:53:11Z</time>
      </trkpt>
      <trkpt lat="43.0487" lon="2.58399">
        <ele>165.96</ele>
        <time>2015-10-04T11:53:12Z</time>
      </trkpt>
      <trkpt lat="43.04876" lon="2.58415">
        <ele>165.96</ele>
        <time>2015-10-04T11:53:13Z</time>
      </trkpt>
      <trkpt lat="43.04879" lon="2.58433">
        <ele>166.45</ele>
        <time>2015-10-04T11:53:14Z</time>
      </trkpt>
      <trkpt lat="43.04879" lon="2.58451">
        <ele>166.45</ele>
        <time>2015-10-04T11:53:15Z</time>
      </trkpt>
      <trkpt lat="43.04876" lon="2.58469">
        <ele>166.93</ele>
        <time>2015-10-04T11:53:16Z</time>
      </trkpt>
      <trkpt lat="43.04873" lon="2.58488">
        <ele>166.93</ele>
        <time>2015-10-04T11:53:17Z</time>
      </trkpt>
      <trkpt lat="43.04851" lon="2.58574">
        <ele>166.45</ele>
        <time>2015-10-04T11:53:22Z</time>
      </trkpt>
      <trkpt lat="43.04844" lon="2.58589">
        <ele>166.93</ele>
        <time>2015-10-04T11:53:23Z</time>
      </trkpt>
      <trkpt lat="43.04835" lon="2.58602">
        <ele>166.93</ele>
        <time>2015-10-04T11:53:24Z</time>
      </trkpt>
      <trkpt lat="43.0482" lon="2.58611">
        <ele>166.93</ele>
        <time>2015-10-04T11:53:25Z</time>
      </trkpt>
      <trkpt lat="43.04804" lon="2.58621">
        <ele>166.45</ele>
        <time>2015-10-04T11:53:26Z</time>
      </trkpt>
      <trkpt lat="43.04788" lon="2.58633">
        <ele>165.96</ele>
        <time>2015-10-04T11:53:27Z</time>
      </trkpt>
      <trkpt lat="43.04689" lon="2.5876">
        <ele>164.04</ele>
        <time>2015-10-04T11:53:35Z</time>
      </trkpt>
      <trkpt lat="43.04683" lon="2.5878">
        <ele>164.04</ele>
        <time>2015-10-04T11:53:36Z</time>
      </trkpt>
      <trkpt lat="43.04679" lon="2.588">
        <ele>164.52</ele>
        <time>2015-10-04T11:53:37Z</time>
      </trkpt>
      <trkpt lat="43.04677" lon="2.58821">
        <ele>164.04</ele>
        <time>2015-10-04T11:53:38Z</time>
      </trkpt>
      <trkpt lat="43.04677" lon="2.58842">
        <ele>164.04</ele>
        <time>2015-10-04T11:53:39Z</time>
      </trkpt>
      <trkpt lat="43.0468" lon="2.58864">
        <ele>164.52</ele>
        <time>2015-10-04T11:53:40Z</time>
      </trkpt>
      <trkpt lat="43.04682" lon="2.58884">
        <ele>165</ele>
        <time>2015-10-04T11:53:41Z</time>
      </trkpt>
      <trkpt lat="43.04686" lon="2.58922">
        <ele>165</ele>
        <time>2015-10-04T11:53:43Z</time>
      </trkpt>
      <trkpt lat="43.0469" lon="2.58939">
        <ele>165</ele>
        <time>2015-10-04T11:53:44Z</time>
      </trkpt>
      <trkpt lat="43.04696" lon="2.58954">
        <ele>164.52</ele>
        <time>2015-10-04T11:53:45Z</time>
      </trkpt>
      <trkpt lat="43.04704" lon="2.58967">
        <ele>164.04</ele>
        <time>2015-10-04T11:53:46Z</time>
      </trkpt>
      <trkpt lat="43.04716" lon="2.58978">
        <ele>164.04</ele>
        <time>2015-10-04T11:53:47Z</time>
      </trkpt>
      <trkpt lat="43.04728" lon="2.58988">
        <ele>164.52</ele>
        <time>2015-10-04T11:53:48Z</time>
      </trkpt>
      <trkpt lat="43.04742" lon="2.58996">
        <ele>164.04</ele>
        <time>2015-10-04T11:53:49Z</time>
      </trkpt>
      <trkpt lat="43.04756" lon="2.59001">
        <ele>164.04</ele>
        <time>2015-10-04T11:53:50Z</time>
      </trkpt>
      <trkpt lat="43.04771" lon="2.59003">
        <ele>163.08</ele>
        <time>2015-10-04T11:53:51Z</time>
      </trkpt>
      <trkpt lat="43.04785" lon="2.59003">
        <ele>162.12</ele>
        <time>2015-10-04T11:53:52Z</time>
      </trkpt>
      <trkpt lat="43.04802" lon="2.59">
        <ele>162.6</ele>
        <time>2015-10-04T11:53:53Z</time>
      </trkpt>
      <trkpt lat="43.04819" lon="2.58993">
        <ele>163.08</ele>
        <time>2015-10-04T11:53:54Z</time>
      </trkpt>
      <trkpt lat="43.04834" lon="2.58983">
        <ele>162.6</ele>
        <time>2015-10-04T11:53:55Z</time>
      </trkpt>
      <trkpt lat="43.04849" lon="2.58971">
        <ele>162.6</ele>
        <time>2015-10-04T11:53:56Z</time>
      </trkpt>
      <trkpt lat="43.04864" lon="2.58958">
        <ele>162.12</ele>
        <time>2015-10-04T11:53:57Z</time>
      </trkpt>
      <trkpt lat="43.04966" lon="2.58844">
        <ele>160.68</ele>
        <time>2015-10-04T11:54:05Z</time>
      </trkpt>
      <trkpt lat="43.0498" lon="2.58832">
        <ele>160.68</ele>
        <time>2015-10-04T11:54:06Z</time>
      </trkpt>
      <trkpt lat="43.04996" lon="2.58821">
        <ele>160.2</ele>
        <time>2015-10-04T11:54:07Z</time>
      </trkpt>
      <trkpt lat="43.05158" lon="2.58717">
        <ele>160.2</ele>
        <time>2015-10-04T11:54:16Z</time>
      </trkpt>
      <trkpt lat="43.05282" lon="2.58653">
        <ele>159.24</ele>
        <time>2015-10-04T11:54:24Z</time>
      </trkpt>
      <trkpt lat="43.05294" lon="2.58655">
        <ele>159.24</ele>
        <time>2015-10-04T11:54:25Z</time>
      </trkpt>
      <trkpt lat="43.05307" lon="2.58661">
        <ele>158.75</ele>
        <time>2015-10-04T11:54:26Z</time>
      </trkpt>
      <trkpt lat="43.05318" lon="2.58671">
        <ele>158.75</ele>
        <time>2015-10-04T11:54:27Z</time>
      </trkpt>
      <trkpt lat="43.0533" lon="2.58683">
        <ele>158.27</ele>
        <time>2015-10-04T11:54:28Z</time>
      </trkpt>
      <trkpt lat="43.0534" lon="2.58697">
        <ele>157.79</ele>
        <time>2015-10-04T11:54:29Z</time>
      </trkpt>
      <trkpt lat="43.05351" lon="2.58711">
        <ele>158.27</ele>
        <time>2015-10-04T11:54:30Z</time>
      </trkpt>
      <trkpt lat="43.0536" lon="2.58727">
        <ele>158.75</ele>
        <time>2015-10-04T11:54:31Z</time>
      </trkpt>
      <trkpt lat="43.05368" lon="2.58745">
        <ele>159.72</ele>
        <time>2015-10-04T11:54:32Z</time>
      </trkpt>
      <trkpt lat="43.05388" lon="2.58803">
        <ele>162.12</ele>
        <time>2015-10-04T11:54:35Z</time>
      </trkpt>
      <trkpt lat="43.05393" lon="2.58824">
        <ele>163.08</ele>
        <time>2015-10-04T11:54:36Z</time>
      </trkpt>
      <trkpt lat="43.05396" lon="2.58846">
        <ele>163.56</ele>
        <time>2015-10-04T11:54:37Z</time>
      </trkpt>
      <trkpt lat="43.05398" lon="2.58868">
        <ele>164.52</ele>
        <time>2015-10-04T11:54:38Z</time>
      </trkpt>
      <trkpt lat="43.05399" lon="2.5889">
        <ele>165</ele>
        <time>2015-10-04T11:54:39Z</time>
      </trkpt>
      <trkpt lat="43.05399" lon="2.58912">
        <ele>165.48</ele>
        <time>2015-10-04T11:54:40Z</time>
      </trkpt>
      <trkpt lat="43.054" lon="2.58934">
        <ele>165.96</ele>
        <time>2015-10-04T11:54:41Z</time>
      </trkpt>
      <trkpt lat="43.05403" lon="2.58955">
        <ele>166.45</ele>
        <time>2015-10-04T11:54:42Z</time>
      </trkpt>
      <trkpt lat="43.05408" lon="2.58976">
        <ele>166.93</ele>
        <time>2015-10-04T11:54:43Z</time>
      </trkpt>
      <trkpt lat="43.05413" lon="2.58996">
        <ele>167.41</ele>
        <time>2015-10-04T11:54:44Z</time>
      </trkpt>
      <trkpt lat="43.05416" lon="2.59016">
        <ele>168.37</ele>
        <time>2015-10-04T11:54:45Z</time>
      </trkpt>
      <trkpt lat="43.05419" lon="2.59035">
        <ele>168.85</ele>
        <time>2015-10-04T11:54:46Z</time>
      </trkpt>
      <trkpt lat="43.05423" lon="2.59054">
        <ele>169.33</ele>
        <time>2015-10-04T11:54:47Z</time>
      </trkpt>
      <trkpt lat="43.05429" lon="2.59072">
        <ele>169.81</ele>
        <time>2015-10-04T11:54:48Z</time>
      </trkpt>
      <trkpt lat="43.05436" lon="2.59089">
        <ele>170.29</ele>
        <time>2015-10-04T11:54:49Z</time>
      </trkpt>
      <trkpt lat="43.05458" lon="2.59132">
        <ele>170.77</ele>
        <time>2015-10-04T11:54:52Z</time>
      </trkpt>
      <trkpt lat="43.05466" lon="2.59138">
        <ele>170.77</ele>
        <time>2015-10-04T11:54:53Z</time>
      </trkpt>
      <trkpt lat="43.05477" lon="2.59141">
        <ele>170.77</ele>
        <time>2015-10-04T11:54:54Z</time>
      </trkpt>
      <trkpt lat="43.05491" lon="2.59144">
        <ele>170.77</ele>
        <time>2015-10-04T11:54:55Z</time>
      </trkpt>
      <trkpt lat="43.05506" lon="2.59149">
        <ele>170.77</ele>
        <time>2015-10-04T11:54:56Z</time>
      </trkpt>
      <trkpt lat="43.05522" lon="2.59157">
        <ele>171.25</ele>
        <time>2015-10-04T11:54:57Z</time>
      </trkpt>
      <trkpt lat="43.05578" lon="2.59187">
        <ele>172.69</ele>
        <time>2015-10-04T11:55:01Z</time>
      </trkpt>
      <trkpt lat="43.0559" lon="2.5919">
        <ele>172.69</ele>
        <time>2015-10-04T11:55:02Z</time>
      </trkpt>
      <trkpt lat="43.05603" lon="2.59191">
        <ele>173.17</ele>
        <time>2015-10-04T11:55:03Z</time>
      </trkpt>
      <trkpt lat="43.05623" lon="2.59193">
        <ele>172.69</ele>
        <time>2015-10-04T11:55:05Z</time>
      </trkpt>
      <trkpt lat="43.0563" lon="2.59199">
        <ele>172.21</ele>
        <time>2015-10-04T11:55:06Z</time>
      </trkpt>
      <trkpt lat="43.05635" lon="2.59209">
        <ele>171.73</ele>
        <time>2015-10-04T11:55:07Z</time>
      </trkpt>
      <trkpt lat="43.05637" lon="2.59224">
        <ele>171.73</ele>
        <time>2015-10-04T11:55:08Z</time>
      </trkpt>
      <trkpt lat="43.05639" lon="2.59242">
        <ele>171.73</ele>
        <time>2015-10-04T11:55:09Z</time>
      </trkpt>
      <trkpt lat="43.05639" lon="2.59261">
        <ele>172.21</ele>
        <time>2015-10-04T11:55:10Z</time>
      </trkpt>
      <trkpt lat="43.05639" lon="2.5928">
        <ele>171.73</ele>
        <time>2015-10-04T11:55:11Z</time>
      </trkpt>
      <trkpt lat="43.05636" lon="2.59377">
        <ele>169.81</ele>
        <time>2015-10-04T11:55:16Z</time>
      </trkpt>
      <trkpt lat="43.05633" lon="2.59395">
        <ele>169.81</ele>
        <time>2015-10-04T11:55:17Z</time>
      </trkpt>
      <trkpt lat="43.05623" lon="2.59452">
        <ele>168.85</ele>
        <time>2015-10-04T11:55:20Z</time>
      </trkpt>
      <trkpt lat="43.05609" lon="2.59541">
        <ele>167.41</ele>
        <time>2015-10-04T11:55:24Z</time>
      </trkpt>
      <trkpt lat="43.05608" lon="2.59563">
        <ele>166.93</ele>
        <time>2015-10-04T11:55:25Z</time>
      </trkpt>
      <trkpt lat="43.05602" lon="2.59671">
        <ele>165.48</ele>
        <time>2015-10-04T11:55:30Z</time>
      </trkpt>
      <trkpt lat="43.05603" lon="2.59689">
        <ele>165</ele>
        <time>2015-10-04T11:55:31Z</time>
      </trkpt>
      <trkpt lat="43.05608" lon="2.59743">
        <ele>163.56</ele>
        <time>2015-10-04T11:55:34Z</time>
      </trkpt>
      <trkpt lat="43.05607" lon="2.5976">
        <ele>163.56</ele>
        <time>2015-10-04T11:55:35Z</time>
      </trkpt>
      <trkpt lat="43.05606" lon="2.59775">
        <ele>163.08</ele>
        <time>2015-10-04T11:55:36Z</time>
      </trkpt>
      <trkpt lat="43.056" lon="2.59861">
        <ele>160.68</ele>
        <time>2015-10-04T11:55:42Z</time>
      </trkpt>
      <trkpt lat="43.05602" lon="2.59874">
        <ele>160.2</ele>
        <time>2015-10-04T11:55:43Z</time>
      </trkpt>
      <trkpt lat="43.05606" lon="2.59886">
        <ele>160.2</ele>
        <time>2015-10-04T11:55:44Z</time>
      </trkpt>
      <trkpt lat="43.05615" lon="2.59909">
        <ele>159.72</ele>
        <time>2015-10-04T11:55:46Z</time>
      </trkpt>
      <trkpt lat="43.05619" lon="2.59922">
        <ele>159.72</ele>
        <time>2015-10-04T11:55:47Z</time>
      </trkpt>
      <trkpt lat="43.0562" lon="2.59936">
        <ele>159.24</ele>
        <time>2015-10-04T11:55:48Z</time>
      </trkpt>
      <trkpt lat="43.05621" lon="2.59951">
        <ele>158.75</ele>
        <time>2015-10-04T11:55:49Z</time>
      </trkpt>
      <trkpt lat="43.05619" lon="2.59965">
        <ele>158.75</ele>
        <time>2015-10-04T11:55:50Z</time>
      </trkpt>
      <trkpt lat="43.05617" lon="2.59979">
        <ele>158.27</ele>
        <time>2015-10-04T11:55:51Z</time>
      </trkpt>
      <trkpt lat="43.05613" lon="2.60032">
        <ele>156.83</ele>
        <time>2015-10-04T11:55:55Z</time>
      </trkpt>
      <trkpt lat="43.05615" lon="2.60045">
        <ele>156.83</ele>
        <time>2015-10-04T11:55:56Z</time>
      </trkpt>
      <trkpt lat="43.05619" lon="2.60056">
        <ele>156.35</ele>
        <time>2015-10-04T11:55:57Z</time>
      </trkpt>
      <trkpt lat="43.05625" lon="2.60065">
        <ele>155.87</ele>
        <time>2015-10-04T11:55:58Z</time>
      </trkpt>
      <trkpt lat="43.05633" lon="2.60071">
        <ele>155.39</ele>
        <time>2015-10-04T11:55:59Z</time>
      </trkpt>
      <trkpt lat="43.05642" lon="2.60076">
        <ele>154.91</ele>
        <time>2015-10-04T11:56:00Z</time>
      </trkpt>
      <trkpt lat="43.05651" lon="2.60082">
        <ele>154.43</ele>
        <time>2015-10-04T11:56:01Z</time>
      </trkpt>
      <trkpt lat="43.05659" lon="2.6009">
        <ele>154.43</ele>
        <time>2015-10-04T11:56:02Z</time>
      </trkpt>
      <trkpt lat="43.05665" lon="2.60101">
        <ele>153.95</ele>
        <time>2015-10-04T11:56:03Z</time>
      </trkpt>
      <trkpt lat="43.05671" lon="2.60112">
        <ele>153.95</ele>
        <time>2015-10-04T11:56:04Z</time>
      </trkpt>
      <trkpt lat="43.05675" lon="2.60125">
        <ele>153.47</ele>
        <time>2015-10-04T11:56:05Z</time>
      </trkpt>
      <trkpt lat="43.05718" lon="2.60224">
        <ele>150.58</ele>
        <time>2015-10-04T11:56:14Z</time>
      </trkpt>
      <trkpt lat="43.05725" lon="2.60232">
        <ele>150.1</ele>
        <time>2015-10-04T11:56:15Z</time>
      </trkpt>
      <trkpt lat="43.05733" lon="2.60238">
        <ele>150.1</ele>
        <time>2015-10-04T11:56:16Z</time>
      </trkpt>
      <trkpt lat="43.05742" lon="2.60242">
        <ele>149.62</ele>
        <time>2015-10-04T11:56:17Z</time>
      </trkpt>
      <trkpt lat="43.05751" lon="2.60247">
        <ele>149.14</ele>
        <time>2015-10-04T11:56:18Z</time>
      </trkpt>
      <trkpt lat="43.05837" lon="2.60303">
        <ele>146.26</ele>
        <time>2015-10-04T11:56:29Z</time>
      </trkpt>
      <trkpt lat="43.05842" lon="2.60311">
        <ele>145.78</ele>
        <time>2015-10-04T11:56:30Z</time>
      </trkpt>
      <trkpt lat="43.05846" lon="2.6032">
        <ele>145.78</ele>
        <time>2015-10-04T11:56:31Z</time>
      </trkpt>
      <trkpt lat="43.05848" lon="2.60329">
        <ele>145.78</ele>
        <time>2015-10-04T11:56:32Z</time>
      </trkpt>
      <trkpt lat="43.0585" lon="2.60339">
        <ele>145.78</ele>
        <time>2015-10-04T11:56:33Z</time>
      </trkpt>
      <trkpt lat="43.05856" lon="2.60369">
        <ele>145.78</ele>
        <time>2015-10-04T11:56:36Z</time>
      </trkpt>
      <trkpt lat="43.05856" lon="2.60378">
        <ele>145.3</ele>
        <time>2015-10-04T11:56:37Z</time>
      </trkpt>
      <trkpt lat="43.05855" lon="2.60388">
        <ele>145.3</ele>
        <time>2015-10-04T11:56:38Z</time>
      </trkpt>
      <trkpt lat="43.05853" lon="2.60398">
        <ele>145.3</ele>
        <time>2015-10-04T11:56:39Z</time>
      </trkpt>
      <trkpt lat="43.05851" lon="2.60407">
        <ele>145.3</ele>
        <time>2015-10-04T11:56:40Z</time>
      </trkpt>
      <trkpt lat="43.05842" lon="2.60448">
        <ele>146.26</ele>
        <time>2015-10-04T11:56:45Z</time>
      </trkpt>
      <trkpt lat="43.0584" lon="2.60455">
        <ele>146.74</ele>
        <time>2015-10-04T11:56:46Z</time>
      </trkpt>
      <trkpt lat="43.05839" lon="2.60471">
        <ele>146.26</ele>
        <time>2015-10-04T11:56:49Z</time>
      </trkpt>
      <trkpt lat="43.0584" lon="2.60477">
        <ele>145.78</ele>
        <time>2015-10-04T11:56:50Z</time>
      </trkpt>
      <trkpt lat="43.05843" lon="2.60483">
        <ele>145.3</ele>
        <time>2015-10-04T11:56:51Z</time>
      </trkpt>
      <trkpt lat="43.05849" lon="2.60489">
        <ele>145.3</ele>
        <time>2015-10-04T11:56:52Z</time>
      </trkpt>
      <trkpt lat="43.05856" lon="2.60493">
        <ele>145.3</ele>
        <time>2015-10-04T11:56:53Z</time>
      </trkpt>
      <trkpt lat="43.05862" lon="2.60498">
        <ele>144.82</ele>
        <time>2015-10-04T11:56:54Z</time>
      </trkpt>
      <trkpt lat="43.05889" lon="2.60516">
        <ele>143.85</ele>
        <time>2015-10-04T11:56:59Z</time>
      </trkpt>
      <trkpt lat="43.05895" lon="2.60517">
        <ele>143.85</ele>
        <time>2015-10-04T11:57:00Z</time>
      </trkpt>
      <trkpt lat="43.05902" lon="2.60514">
        <ele>143.85</ele>
        <time>2015-10-04T11:57:01Z</time>
      </trkpt>
      <trkpt lat="43.05908" lon="2.60509">
        <ele>144.34</ele>
        <time>2015-10-04T11:57:02Z</time>
      </trkpt>
      <trkpt lat="43.05914" lon="2.60503">
        <ele>144.34</ele>
        <time>2015-10-04T11:57:03Z</time>
      </trkpt>
      <trkpt lat="43.05925" lon="2.60491">
        <ele>145.3</ele>
        <time>2015-10-04T11:57:05Z</time>
      </trkpt>
      <trkpt lat="43.05932" lon="2.60487">
        <ele>145.78</ele>
        <time>2015-10-04T11:57:06Z</time>
      </trkpt>
      <trkpt lat="43.05939" lon="2.60483">
        <ele>145.3</ele>
        <time>2015-10-04T11:57:07Z</time>
      </trkpt>
      <trkpt lat="43.05947" lon="2.60481">
        <ele>146.26</ele>
        <time>2015-10-04T11:57:08Z</time>
      </trkpt>
      <trkpt lat="43.05955" lon="2.60479">
        <ele>145.78</ele>
        <time>2015-10-04T11:57:09Z</time>
      </trkpt>
      <trkpt lat="43.05972" lon="2.60472">
        <ele>146.26</ele>
        <time>2015-10-04T11:57:11Z</time>
      </trkpt>
      <trkpt lat="43.05981" lon="2.60466">
        <ele>146.74</ele>
        <time>2015-10-04T11:57:12Z</time>
      </trkpt>
      <trkpt lat="43.05991" lon="2.60458">
        <ele>147.22</ele>
        <time>2015-10-04T11:57:13Z</time>
      </trkpt>
      <trkpt lat="43.06" lon="2.6045">
        <ele>147.7</ele>
        <time>2015-10-04T11:57:14Z</time>
      </trkpt>
      <trkpt lat="43.0601" lon="2.60439">
        <ele>148.18</ele>
        <time>2015-10-04T11:57:15Z</time>
      </trkpt>
      <trkpt lat="43.06087" lon="2.60357">
        <ele>152.51</ele>
        <time>2015-10-04T11:57:21Z</time>
      </trkpt>
      <trkpt lat="43.06145" lon="2.60296">
        <ele>154.91</ele>
        <time>2015-10-04T11:57:26Z</time>
      </trkpt>
      <trkpt lat="43.06154" lon="2.60283">
        <ele>155.39</ele>
        <time>2015-10-04T11:57:27Z</time>
      </trkpt>
      <trkpt lat="43.06172" lon="2.6026">
        <ele>155.87</ele>
        <time>2015-10-04T11:57:29Z</time>
      </trkpt>
      <trkpt lat="43.06183" lon="2.6025">
        <ele>156.35</ele>
        <time>2015-10-04T11:57:30Z</time>
      </trkpt>
      <trkpt lat="43.06194" lon="2.60244">
        <ele>156.83</ele>
        <time>2015-10-04T11:57:31Z</time>
      </trkpt>
      <trkpt lat="43.06204" lon="2.60241">
        <ele>156.83</ele>
        <time>2015-10-04T11:57:32Z</time>
      </trkpt>
      <trkpt lat="43.06217" lon="2.60245">
        <ele>157.31</ele>
        <time>2015-10-04T11:57:33Z</time>
      </trkpt>
      <trkpt lat="43.06229" lon="2.6025">
        <ele>157.79</ele>
        <time>2015-10-04T11:57:34Z</time>
      </trkpt>
      <trkpt lat="43.06242" lon="2.60256">
        <ele>158.75</ele>
        <time>2015-10-04T11:57:35Z</time>
      </trkpt>
      <trkpt lat="43.06254" lon="2.60261">
        <ele>158.75</ele>
        <time>2015-10-04T11:57:36Z</time>
      </trkpt>
      <trkpt lat="43.06266" lon="2.60262">
        <ele>159.24</ele>
        <time>2015-10-04T11:57:37Z</time>
      </trkpt>
      <trkpt lat="43.06279" lon="2.6026">
        <ele>159.72</ele>
        <time>2015-10-04T11:57:38Z</time>
      </trkpt>
      <trkpt lat="43.06291" lon="2.60254">
        <ele>160.2</ele>
        <time>2015-10-04T11:57:39Z</time>
      </trkpt>
      <trkpt lat="43.06302" lon="2.6025">
        <ele>160.68</ele>
        <time>2015-10-04T11:57:40Z</time>
      </trkpt>
      <trkpt lat="43.06312" lon="2.60249">
        <ele>161.16</ele>
        <time>2015-10-04T11:57:41Z</time>
      </trkpt>
      <trkpt lat="43.06323" lon="2.6025">
        <ele>161.64</ele>
        <time>2015-10-04T11:57:42Z</time>
      </trkpt>
      <trkpt lat="43.06332" lon="2.60256">
        <ele>162.12</ele>
        <time>2015-10-04T11:57:43Z</time>
      </trkpt>
      <trkpt lat="43.06341" lon="2.60268">
        <ele>162.6</ele>
        <time>2015-10-04T11:57:44Z</time>
      </trkpt>
      <trkpt lat="43.06348" lon="2.60282">
        <ele>162.6</ele>
        <time>2015-10-04T11:57:45Z</time>
      </trkpt>
      <trkpt lat="43.06356" lon="2.60297">
        <ele>162.6</ele>
        <time>2015-10-04T11:57:46Z</time>
      </trkpt>
      <trkpt lat="43.06468" lon="2.60484">
        <ele>161.16</ele>
        <time>2015-10-04T11:57:58Z</time>
      </trkpt>
      <trkpt lat="43.06483" lon="2.60513">
        <ele>160.68</ele>
        <time>2015-10-04T11:58:00Z</time>
      </trkpt>
      <trkpt lat="43.06489" lon="2.6053">
        <ele>160.2</ele>
        <time>2015-10-04T11:58:01Z</time>
      </trkpt>
      <trkpt lat="43.06494" lon="2.60549">
        <ele>160.2</ele>
        <time>2015-10-04T11:58:02Z</time>
      </trkpt>
      <trkpt lat="43.06509" lon="2.60608">
        <ele>158.75</ele>
        <time>2015-10-04T11:58:05Z</time>
      </trkpt>
      <trkpt lat="43.06516" lon="2.60627">
        <ele>158.27</ele>
        <time>2015-10-04T11:58:06Z</time>
      </trkpt>
      <trkpt lat="43.06526" lon="2.60644">
        <ele>157.31</ele>
        <time>2015-10-04T11:58:07Z</time>
      </trkpt>
      <trkpt lat="43.06539" lon="2.6066">
        <ele>156.35</ele>
        <time>2015-10-04T11:58:08Z</time>
      </trkpt>
      <trkpt lat="43.06552" lon="2.60673">
        <ele>155.87</ele>
        <time>2015-10-04T11:58:09Z</time>
      </trkpt>
      <trkpt lat="43.06576" lon="2.60699">
        <ele>154.43</ele>
        <time>2015-10-04T11:58:11Z</time>
      </trkpt>
      <trkpt lat="43.06586" lon="2.60713">
        <ele>153.47</ele>
        <time>2015-10-04T11:58:12Z</time>
      </trkpt>
      <trkpt lat="43.06594" lon="2.60729">
        <ele>152.99</ele>
        <time>2015-10-04T11:58:13Z</time>
      </trkpt>
      <trkpt lat="43.066" lon="2.60746">
        <ele>152.51</ele>
        <time>2015-10-04T11:58:14Z</time>
      </trkpt>
      <trkpt lat="43.06604" lon="2.60763">
        <ele>151.54</ele>
        <time>2015-10-04T11:58:15Z</time>
      </trkpt>
      <trkpt lat="43.06608" lon="2.60779">
        <ele>151.06</ele>
        <time>2015-10-04T11:58:16Z</time>
      </trkpt>
      <trkpt lat="43.06618" lon="2.6081">
        <ele>149.62</ele>
        <time>2015-10-04T11:58:18Z</time>
      </trkpt>
      <trkpt lat="43.06625" lon="2.60823">
        <ele>149.14</ele>
        <time>2015-10-04T11:58:19Z</time>
      </trkpt>
      <trkpt lat="43.06634" lon="2.60833">
        <ele>148.66</ele>
        <time>2015-10-04T11:58:20Z</time>
      </trkpt>
      <trkpt lat="43.06644" lon="2.60842">
        <ele>148.18</ele>
        <time>2015-10-04T11:58:21Z</time>
      </trkpt>
      <trkpt lat="43.06656" lon="2.60849">
        <ele>147.7</ele>
        <time>2015-10-04T11:58:22Z</time>
      </trkpt>
      <trkpt lat="43.06668" lon="2.60856">
        <ele>147.7</ele>
        <time>2015-10-04T11:58:23Z</time>
      </trkpt>
      <trkpt lat="43.06681" lon="2.6086">
        <ele>146.74</ele>
        <time>2015-10-04T11:58:24Z</time>
      </trkpt>
      <trkpt lat="43.06694" lon="2.60855">
        <ele>146.26</ele>
        <time>2015-10-04T11:58:25Z</time>
      </trkpt>
      <trkpt lat="43.06708" lon="2.6085">
        <ele>145.78</ele>
        <time>2015-10-04T11:58:26Z</time>
      </trkpt>
      <trkpt lat="43.06722" lon="2.60843">
        <ele>144.82</ele>
        <time>2015-10-04T11:58:27Z</time>
      </trkpt>
      <trkpt lat="43.06737" lon="2.60836">
        <ele>144.82</ele>
        <time>2015-10-04T11:58:28Z</time>
      </trkpt>
      <trkpt lat="43.06752" lon="2.60832">
        <ele>144.82</ele>
        <time>2015-10-04T11:58:29Z</time>
      </trkpt>
      <trkpt lat="43.06767" lon="2.60833">
        <ele>144.34</ele>
        <time>2015-10-04T11:58:30Z</time>
      </trkpt>
      <trkpt lat="43.06782" lon="2.60836">
        <ele>144.82</ele>
        <time>2015-10-04T11:58:31Z</time>
      </trkpt>
      <trkpt lat="43.06796" lon="2.60836">
        <ele>144.34</ele>
        <time>2015-10-04T11:58:32Z</time>
      </trkpt>
      <trkpt lat="43.06809" lon="2.60832">
        <ele>144.34</ele>
        <time>2015-10-04T11:58:33Z</time>
      </trkpt>
      <trkpt lat="43.06821" lon="2.60824">
        <ele>143.85</ele>
        <time>2015-10-04T11:58:34Z</time>
      </trkpt>
      <trkpt lat="43.06834" lon="2.60814">
        <ele>143.37</ele>
        <time>2015-10-04T11:58:35Z</time>
      </trkpt>
      <trkpt lat="43.06845" lon="2.60804">
        <ele>143.37</ele>
        <time>2015-10-04T11:58:36Z</time>
      </trkpt>
      <trkpt lat="43.06857" lon="2.60798">
        <ele>143.85</ele>
        <time>2015-10-04T11:58:37Z</time>
      </trkpt>
      <trkpt lat="43.0687" lon="2.60797">
        <ele>143.85</ele>
        <time>2015-10-04T11:58:38Z</time>
      </trkpt>
      <trkpt lat="43.06883" lon="2.60802">
        <ele>142.41</ele>
        <time>2015-10-04T11:58:39Z</time>
      </trkpt>
      <trkpt lat="43.06896" lon="2.6081">
        <ele>142.41</ele>
        <time>2015-10-04T11:58:40Z</time>
      </trkpt>
      <trkpt lat="43.06907" lon="2.60824">
        <ele>142.89</ele>
        <time>2015-10-04T11:58:41Z</time>
      </trkpt>
      <trkpt lat="43.06915" lon="2.60839">
        <ele>142.89</ele>
        <time>2015-10-04T11:58:42Z</time>
      </trkpt>
      <trkpt lat="43.06922" lon="2.60856">
        <ele>143.37</ele>
        <time>2015-10-04T11:58:43Z</time>
      </trkpt>
      <trkpt lat="43.06929" lon="2.60873">
        <ele>143.37</ele>
        <time>2015-10-04T11:58:44Z</time>
      </trkpt>
      <trkpt lat="43.0694" lon="2.60889">
        <ele>143.37</ele>
        <time>2015-10-04T11:58:45Z</time>
      </trkpt>
      <trkpt lat="43.06952" lon="2.60904">
        <ele>143.37</ele>
        <time>2015-10-04T11:58:46Z</time>
      </trkpt>
      <trkpt lat="43.06966" lon="2.60919">
        <ele>143.37</ele>
        <time>2015-10-04T11:58:47Z</time>
      </trkpt>
      <trkpt lat="43.06981" lon="2.60934">
        <ele>143.37</ele>
        <time>2015-10-04T11:58:48Z</time>
      </trkpt>
      <trkpt lat="43.07105" lon="2.61055">
        <ele>141.93</ele>
        <time>2015-10-04T11:58:58Z</time>
      </trkpt>
      <trkpt lat="43.07117" lon="2.61064">
        <ele>141.93</ele>
        <time>2015-10-04T11:58:59Z</time>
      </trkpt>
      <trkpt lat="43.07131" lon="2.61067">
        <ele>141.45</ele>
        <time>2015-10-04T11:59:00Z</time>
      </trkpt>
      <trkpt lat="43.07146" lon="2.61068">
        <ele>140.97</ele>
        <time>2015-10-04T11:59:01Z</time>
      </trkpt>
      <trkpt lat="43.07162" lon="2.61065">
        <ele>140.97</ele>
        <time>2015-10-04T11:59:02Z</time>
      </trkpt>
      <trkpt lat="43.07179" lon="2.61062">
        <ele>140.49</ele>
        <time>2015-10-04T11:59:03Z</time>
      </trkpt>
      <trkpt lat="43.07264" lon="2.61039">
        <ele>140.01</ele>
        <time>2015-10-04T11:59:08Z</time>
      </trkpt>
      <trkpt lat="43.07279" lon="2.61029">
        <ele>140.01</ele>
        <time>2015-10-04T11:59:09Z</time>
      </trkpt>
      <trkpt lat="43.07294" lon="2.61017">
        <ele>139.53</ele>
        <time>2015-10-04T11:59:10Z</time>
      </trkpt>
      <trkpt lat="43.07307" lon="2.61002">
        <ele>139.05</ele>
        <time>2015-10-04T11:59:11Z</time>
      </trkpt>
      <trkpt lat="43.0732" lon="2.60984">
        <ele>138.57</ele>
        <time>2015-10-04T11:59:12Z</time>
      </trkpt>
      <trkpt lat="43.07331" lon="2.60965">
        <ele>138.09</ele>
        <time>2015-10-04T11:59:13Z</time>
      </trkpt>
      <trkpt lat="43.0734" lon="2.60944">
        <ele>137.61</ele>
        <time>2015-10-04T11:59:14Z</time>
      </trkpt>
      <trkpt lat="43.07345" lon="2.60917">
        <ele>136.64</ele>
        <time>2015-10-04T11:59:15Z</time>
      </trkpt>
      <trkpt lat="43.07349" lon="2.6089">
        <ele>136.16</ele>
        <time>2015-10-04T11:59:16Z</time>
      </trkpt>
      <trkpt lat="43.0735" lon="2.60864">
        <ele>135.68</ele>
        <time>2015-10-04T11:59:17Z</time>
      </trkpt>
      <trkpt lat="43.07352" lon="2.60837">
        <ele>135.2</ele>
        <time>2015-10-04T11:59:18Z</time>
      </trkpt>
      <trkpt lat="43.07361" lon="2.60699">
        <ele>134.24</ele>
        <time>2015-10-04T11:59:24Z</time>
      </trkpt>
      <trkpt lat="43.07366" lon="2.60679">
        <ele>134.24</ele>
        <time>2015-10-04T11:59:25Z</time>
      </trkpt>
      <trkpt lat="43.07372" lon="2.6066">
        <ele>134.24</ele>
        <time>2015-10-04T11:59:26Z</time>
      </trkpt>
      <trkpt lat="43.07381" lon="2.60642">
        <ele>134.72</ele>
        <time>2015-10-04T11:59:27Z</time>
      </trkpt>
      <trkpt lat="43.07394" lon="2.60627">
        <ele>135.2</ele>
        <time>2015-10-04T11:59:28Z</time>
      </trkpt>
      <trkpt lat="43.07409" lon="2.60613">
        <ele>135.2</ele>
        <time>2015-10-04T11:59:29Z</time>
      </trkpt>
      <trkpt lat="43.07424" lon="2.60599">
        <ele>135.68</ele>
        <time>2015-10-04T11:59:30Z</time>
      </trkpt>
      <trkpt lat="43.07592" lon="2.60452">
        <ele>136.64</ele>
        <time>2015-10-04T11:59:41Z</time>
      </trkpt>
      <trkpt lat="43.0763" lon="2.60421">
        <ele>137.13</ele>
        <time>2015-10-04T11:59:44Z</time>
      </trkpt>
      <trkpt lat="43.07645" lon="2.60416">
        <ele>137.13</ele>
        <time>2015-10-04T11:59:45Z</time>
      </trkpt>
      <trkpt lat="43.0766" lon="2.60416">
        <ele>136.64</ele>
        <time>2015-10-04T11:59:46Z</time>
      </trkpt>
      <trkpt lat="43.07675" lon="2.60422">
        <ele>136.16</ele>
        <time>2015-10-04T11:59:47Z</time>
      </trkpt>
      <trkpt lat="43.0769" lon="2.60431">
        <ele>136.16</ele>
        <time>2015-10-04T11:59:48Z</time>
      </trkpt>
      <trkpt lat="43.07704" lon="2.60443">
        <ele>136.64</ele>
        <time>2015-10-04T11:59:49Z</time>
      </trkpt>
      <trkpt lat="43.07717" lon="2.60462">
        <ele>137.13</ele>
        <time>2015-10-04T11:59:50Z</time>
      </trkpt>
      <trkpt lat="43.07728" lon="2.60481">
        <ele>137.61</ele>
        <time>2015-10-04T11:59:51Z</time>
      </trkpt>
      <trkpt lat="43.07737" lon="2.60503">
        <ele>137.13</ele>
        <time>2015-10-04T11:59:52Z</time>
      </trkpt>
      <trkpt lat="43.07748" lon="2.60525">
        <ele>136.64</ele>
        <time>2015-10-04T11:59:53Z</time>
      </trkpt>
      <trkpt lat="43.07833" lon="2.60698">
        <ele>134.72</ele>
        <time>2015-10-04T12:00:01Z</time>
      </trkpt>
      <trkpt lat="43.07839" lon="2.6072">
        <ele>134.24</ele>
        <time>2015-10-04T12:00:02Z</time>
      </trkpt>
      <trkpt lat="43.07844" lon="2.60745">
        <ele>134.24</ele>
        <time>2015-10-04T12:00:03Z</time>
      </trkpt>
      <trkpt lat="43.07848" lon="2.6077">
        <ele>134.24</ele>
        <time>2015-10-04T12:00:04Z</time>
      </trkpt>
      <trkpt lat="43.07852" lon="2.60797">
        <ele>134.24</ele>
        <time>2015-10-04T12:00:05Z</time>
      </trkpt>
      <trkpt lat="43.07888" lon="2.61008">
        <ele>136.64</ele>
        <time>2015-10-04T12:00:13Z</time>
      </trkpt>
      <trkpt lat="43.07896" lon="2.61032">
        <ele>137.13</ele>
        <time>2015-10-04T12:00:14Z</time>
      </trkpt>
      <trkpt lat="43.07907" lon="2.61054">
        <ele>137.61</ele>
        <time>2015-10-04T12:00:15Z</time>
      </trkpt>
      <trkpt lat="43.07953" lon="2.61144">
        <ele>138.57</ele>
        <time>2015-10-04T12:00:19Z</time>
      </trkpt>
      <trkpt lat="43.0796" lon="2.61168">
        <ele>138.57</ele>
        <time>2015-10-04T12:00:20Z</time>
      </trkpt>
      <trkpt lat="43.07965" lon="2.61192">
        <ele>138.57</ele>
        <time>2015-10-04T12:00:21Z</time>
      </trkpt>
      <trkpt lat="43.0797" lon="2.61214">
        <ele>138.57</ele>
        <time>2015-10-04T12:00:22Z</time>
      </trkpt>
      <trkpt lat="43.07977" lon="2.61232">
        <ele>138.57</ele>
        <time>2015-10-04T12:00:23Z</time>
      </trkpt>
      <trkpt lat="43.07988" lon="2.61246">
        <ele>138.57</ele>
        <time>2015-10-04T12:00:24Z</time>
      </trkpt>
      <trkpt lat="43.08004" lon="2.61257">
        <ele>138.57</ele>
        <time>2015-10-04T12:00:25Z</time>
      </trkpt>
      <trkpt lat="43.08022" lon="2.61264">
        <ele>138.09</ele>
        <time>2015-10-04T12:00:26Z</time>
      </trkpt>
      <trkpt lat="43.08041" lon="2.6127">
        <ele>138.09</ele>
        <time>2015-10-04T12:00:27Z</time>
      </trkpt>
      <trkpt lat="43.08059" lon="2.61275">
        <ele>138.09</ele>
        <time>2015-10-04T12:00:28Z</time>
      </trkpt>
      <trkpt lat="43.08091" lon="2.61288">
        <ele>138.09</ele>
        <time>2015-10-04T12:00:30Z</time>
      </trkpt>
      <trkpt lat="43.08104" lon="2.61298">
        <ele>138.09</ele>
        <time>2015-10-04T12:00:31Z</time>
      </trkpt>
      <trkpt lat="43.08115" lon="2.61312">
        <ele>138.09</ele>
        <time>2015-10-04T12:00:32Z</time>
      </trkpt>
      <trkpt lat="43.08122" lon="2.6133">
        <ele>137.61</ele>
        <time>2015-10-04T12:00:33Z</time>
      </trkpt>
      <trkpt lat="43.08128" lon="2.61351">
        <ele>137.61</ele>
        <time>2015-10-04T12:00:34Z</time>
      </trkpt>
      <trkpt lat="43.08134" lon="2.61373">
        <ele>137.61</ele>
        <time>2015-10-04T12:00:35Z</time>
      </trkpt>
      <trkpt lat="43.08141" lon="2.61394">
        <ele>137.61</ele>
        <time>2015-10-04T12:00:36Z</time>
      </trkpt>
      <trkpt lat="43.08151" lon="2.61414">
        <ele>138.09</ele>
        <time>2015-10-04T12:00:37Z</time>
      </trkpt>
      <trkpt lat="43.08163" lon="2.61431">
        <ele>138.09</ele>
        <time>2015-10-04T12:00:38Z</time>
      </trkpt>
      <trkpt lat="43.0818" lon="2.61445">
        <ele>137.61</ele>
        <time>2015-10-04T12:00:39Z</time>
      </trkpt>
      <trkpt lat="43.08196" lon="2.61459">
        <ele>137.61</ele>
        <time>2015-10-04T12:00:40Z</time>
      </trkpt>
      <trkpt lat="43.08366" lon="2.61583">
        <ele>137.13</ele>
        <time>2015-10-04T12:00:50Z</time>
      </trkpt>
      <trkpt lat="43.08381" lon="2.61596">
        <ele>137.13</ele>
        <time>2015-10-04T12:00:51Z</time>
      </trkpt>
      <trkpt lat="43.08395" lon="2.61612">
        <ele>137.13</ele>
        <time>2015-10-04T12:00:52Z</time>
      </trkpt>
      <trkpt lat="43.08507" lon="2.61757">
        <ele>137.13</ele>
        <time>2015-10-04T12:01:00Z</time>
      </trkpt>
      <trkpt lat="43.08523" lon="2.61771">
        <ele>137.13</ele>
        <time>2015-10-04T12:01:01Z</time>
      </trkpt>
      <trkpt lat="43.0854" lon="2.61784">
        <ele>137.13</ele>
        <time>2015-10-04T12:01:02Z</time>
      </trkpt>
      <trkpt lat="43.08673" lon="2.61871">
        <ele>137.13</ele>
        <time>2015-10-04T12:01:10Z</time>
      </trkpt>
      <trkpt lat="43.08774" lon="2.61906">
        <ele>137.13</ele>
        <time>2015-10-04T12:01:17Z</time>
      </trkpt>
      <trkpt lat="43.08848" lon="2.6194">
        <ele>137.61</ele>
        <time>2015-10-04T12:01:25Z</time>
      </trkpt>
      <trkpt lat="43.08921" lon="2.61997">
        <ele>136.64</ele>
        <time>2015-10-04T12:01:34Z</time>
      </trkpt>
      <trkpt lat="43.08974" lon="2.6204">
        <ele>134.24</ele>
        <time>2015-10-04T12:01:44Z</time>
      </trkpt>
      <trkpt lat="43.08983" lon="2.62047">
        <ele>134.24</ele>
        <time>2015-10-04T12:01:55Z</time>
      </trkpt>
      <trkpt lat="43.08987" lon="2.62049">
        <ele>133.76</ele>
        <time>2015-10-04T12:01:56Z</time>
      </trkpt>
      <trkpt lat="43.09008" lon="2.62054">
        <ele>131.84</ele>
        <time>2015-10-04T12:02:04Z</time>
      </trkpt>
      <trkpt lat="43.09009" lon="2.62053">
        <ele>130.88</ele>
        <time>2015-10-04T12:02:05Z</time>
      </trkpt>
      <trkpt lat="43.09009" lon="2.62051">
        <ele>130.4</ele>
        <time>2015-10-04T12:02:06Z</time>
      </trkpt>
      <trkpt lat="43.09013" lon="2.62044">
        <ele>131.84</ele>
        <time>2015-10-04T12:02:12Z</time>
      </trkpt>
      <trkpt lat="43.09015" lon="2.62044">
        <ele>131.84</ele>
        <time>2015-10-04T12:02:13Z</time>
      </trkpt>
      <trkpt lat="43.09016" lon="2.62045">
        <ele>131.84</ele>
        <time>2015-10-04T12:02:14Z</time>
      </trkpt>
      <trkpt lat="43.09019" lon="2.62045">
        <ele>131.36</ele>
        <time>2015-10-04T12:02:24Z</time>
      </trkpt>
      <trkpt lat="43.09013" lon="2.62046">
        <ele>136.16</ele>
        <time>2015-10-04T12:02:38Z</time>
      </trkpt>
      <trkpt lat="43.08999" lon="2.62062">
        <ele>155.39</ele>
        <time>2015-10-04T13:12:20Z</time>
      </trkpt>
      <trkpt lat="43.09003" lon="2.62065">
        <ele>166.93</ele>
        <time>2015-10-04T13:12:56Z</time>
      </trkpt>
      <trkpt lat="43.09012" lon="2.62063">
        <ele>164.04</ele>
        <time>2015-10-04T13:13:10Z</time>
      </trkpt>
      <trkpt lat="43.09" lon="2.62062">
        <ele>153.47</ele>
        <time>2015-10-04T13:13:19Z</time>
      </trkpt>
      <trkpt lat="43.0901" lon="2.62065">
        <ele>143.85</ele>
        <time>2015-10-04T13:13:23Z</time>
      </trkpt>
      <trkpt lat="43.09016" lon="2.62066">
        <ele>141.93</ele>
        <time>2015-10-04T13:13:24Z</time>
      </trkpt>
      <trkpt lat="43.0906" lon="2.62074">
        <ele>134.72</ele>
        <time>2015-10-04T13:13:33Z</time>
      </trkpt>
      <trkpt lat="43.09115" lon="2.62093">
        <ele>131.84</ele>
        <time>2015-10-04T13:13:46Z</time>
      </trkpt>
      <trkpt lat="43.09155" lon="2.62098">
        <ele>127.51</ele>
        <time>2015-10-04T13:13:55Z</time>
      </trkpt>
      <trkpt lat="43.0916" lon="2.62097">
        <ele>127.03</ele>
        <time>2015-10-04T13:13:56Z</time>
      </trkpt>
      <trkpt lat="43.09171" lon="2.62094">
        <ele>126.07</ele>
        <time>2015-10-04T13:13:58Z</time>
      </trkpt>
      <trkpt lat="43.09183" lon="2.62088">
        <ele>125.11</ele>
        <time>2015-10-04T13:14:01Z</time>
      </trkpt>
      <trkpt lat="43.09187" lon="2.62085">
        <ele>125.11</ele>
        <time>2015-10-04T13:14:02Z</time>
      </trkpt>
      <trkpt lat="43.09192" lon="2.62081">
        <ele>125.11</ele>
        <time>2015-10-04T13:14:03Z</time>
      </trkpt>
      <trkpt lat="43.09236" lon="2.62031">
        <ele>127.99</ele>
        <time>2015-10-04T13:14:14Z</time>
      </trkpt>
      <trkpt lat="43.09269" lon="2.61986">
        <ele>128.47</ele>
        <time>2015-10-04T13:14:20Z</time>
      </trkpt>
      <trkpt lat="43.09274" lon="2.61976">
        <ele>128.95</ele>
        <time>2015-10-04T13:14:21Z</time>
      </trkpt>
      <trkpt lat="43.09312" lon="2.61871">
        <ele>129.43</ele>
        <time>2015-10-04T13:14:30Z</time>
      </trkpt>
      <trkpt lat="43.09315" lon="2.61858">
        <ele>128.95</ele>
        <time>2015-10-04T13:14:31Z</time>
      </trkpt>
      <trkpt lat="43.09316" lon="2.61846">
        <ele>128.95</ele>
        <time>2015-10-04T13:14:32Z</time>
      </trkpt>
      <trkpt lat="43.09315" lon="2.61833">
        <ele>128.47</ele>
        <time>2015-10-04T13:14:33Z</time>
      </trkpt>
      <trkpt lat="43.09314" lon="2.61821">
        <ele>128.47</ele>
        <time>2015-10-04T13:14:34Z</time>
      </trkpt>
      <trkpt lat="43.09312" lon="2.6181">
        <ele>127.99</ele>
        <time>2015-10-04T13:14:35Z</time>
      </trkpt>
      <trkpt lat="43.09308" lon="2.61799">
        <ele>127.99</ele>
        <time>2015-10-04T13:14:36Z</time>
      </trkpt>
      <trkpt lat="43.09305" lon="2.61788">
        <ele>127.51</ele>
        <time>2015-10-04T13:14:37Z</time>
      </trkpt>
      <trkpt lat="43.09247" lon="2.61625">
        <ele>124.63</ele>
        <time>2015-10-04T13:14:50Z</time>
      </trkpt>
      <trkpt lat="43.09203" lon="2.61491">
        <ele>121.26</ele>
        <time>2015-10-04T13:14:57Z</time>
      </trkpt>
      <trkpt lat="43.09139" lon="2.61301">
        <ele>119.34</ele>
        <time>2015-10-04T13:15:05Z</time>
      </trkpt>
      <trkpt lat="43.09135" lon="2.61273">
        <ele>119.34</ele>
        <time>2015-10-04T13:15:06Z</time>
      </trkpt>
      <trkpt lat="43.09135" lon="2.61247">
        <ele>119.34</ele>
        <time>2015-10-04T13:15:07Z</time>
      </trkpt>
      <trkpt lat="43.0913" lon="2.61102">
        <ele>119.34</ele>
        <time>2015-10-04T13:15:13Z</time>
      </trkpt>
      <trkpt lat="43.09132" lon="2.61083">
        <ele>119.82</ele>
        <time>2015-10-04T13:15:14Z</time>
      </trkpt>
      <trkpt lat="43.09138" lon="2.61064">
        <ele>119.82</ele>
        <time>2015-10-04T13:15:15Z</time>
      </trkpt>
      <trkpt lat="43.09148" lon="2.61047">
        <ele>119.34</ele>
        <time>2015-10-04T13:15:16Z</time>
      </trkpt>
      <trkpt lat="43.0916" lon="2.6103">
        <ele>119.34</ele>
        <time>2015-10-04T13:15:17Z</time>
      </trkpt>
      <trkpt lat="43.09173" lon="2.61014">
        <ele>118.86</ele>
        <time>2015-10-04T13:15:18Z</time>
      </trkpt>
      <trkpt lat="43.09288" lon="2.60873">
        <ele>117.9</ele>
        <time>2015-10-04T13:15:27Z</time>
      </trkpt>
      <trkpt lat="43.09438" lon="2.60711">
        <ele>115.98</ele>
        <time>2015-10-04T13:15:37Z</time>
      </trkpt>
      <trkpt lat="43.09538" lon="2.6061">
        <ele>115.98</ele>
        <time>2015-10-04T13:15:44Z</time>
      </trkpt>
      <trkpt lat="43.09547" lon="2.60596">
        <ele>115.98</ele>
        <time>2015-10-04T13:15:45Z</time>
      </trkpt>
      <trkpt lat="43.09551" lon="2.60581">
        <ele>115.98</ele>
        <time>2015-10-04T13:15:46Z</time>
      </trkpt>
      <trkpt lat="43.09552" lon="2.60566">
        <ele>115.98</ele>
        <time>2015-10-04T13:15:47Z</time>
      </trkpt>
      <trkpt lat="43.09547" lon="2.60547">
        <ele>116.46</ele>
        <time>2015-10-04T13:15:48Z</time>
      </trkpt>
      <trkpt lat="43.09539" lon="2.60526">
        <ele>116.94</ele>
        <time>2015-10-04T13:15:49Z</time>
      </trkpt>
      <trkpt lat="43.09529" lon="2.60507">
        <ele>116.94</ele>
        <time>2015-10-04T13:15:50Z</time>
      </trkpt>
      <trkpt lat="43.09521" lon="2.60487">
        <ele>117.42</ele>
        <time>2015-10-04T13:15:51Z</time>
      </trkpt>
      <trkpt lat="43.09474" lon="2.60357">
        <ele>118.86</ele>
        <time>2015-10-04T13:15:57Z</time>
      </trkpt>
      <trkpt lat="43.0947" lon="2.60332">
        <ele>118.86</ele>
        <time>2015-10-04T13:15:58Z</time>
      </trkpt>
      <trkpt lat="43.09468" lon="2.60306">
        <ele>119.34</ele>
        <time>2015-10-04T13:15:59Z</time>
      </trkpt>
      <trkpt lat="43.09463" lon="2.60016">
        <ele>120.78</ele>
        <time>2015-10-04T13:16:11Z</time>
      </trkpt>
      <trkpt lat="43.09461" lon="2.59995">
        <ele>120.78</ele>
        <time>2015-10-04T13:16:12Z</time>
      </trkpt>
      <trkpt lat="43.09457" lon="2.59976">
        <ele>120.78</ele>
        <time>2015-10-04T13:16:13Z</time>
      </trkpt>
      <trkpt lat="43.09448" lon="2.59961">
        <ele>120.78</ele>
        <time>2015-10-04T13:16:14Z</time>
      </trkpt>
      <trkpt lat="43.09436" lon="2.59948">
        <ele>120.78</ele>
        <time>2015-10-04T13:16:15Z</time>
      </trkpt>
      <trkpt lat="43.09425" lon="2.59938">
        <ele>120.3</ele>
        <time>2015-10-04T13:16:16Z</time>
      </trkpt>
      <trkpt lat="43.09414" lon="2.59929">
        <ele>120.3</ele>
        <time>2015-10-04T13:16:17Z</time>
      </trkpt>
      <trkpt lat="43.09384" lon="2.59903">
        <ele>120.3</ele>
        <time>2015-10-04T13:16:20Z</time>
      </trkpt>
      <trkpt lat="43.09372" lon="2.59901">
        <ele>120.3</ele>
        <time>2015-10-04T13:16:21Z</time>
      </trkpt>
      <trkpt lat="43.09361" lon="2.59905">
        <ele>119.82</ele>
        <time>2015-10-04T13:16:22Z</time>
      </trkpt>
      <trkpt lat="43.0935" lon="2.59914">
        <ele>119.82</ele>
        <time>2015-10-04T13:16:23Z</time>
      </trkpt>
      <trkpt lat="43.09341" lon="2.59927">
        <ele>119.82</ele>
        <time>2015-10-04T13:16:24Z</time>
      </trkpt>
      <trkpt lat="43.09334" lon="2.59944">
        <ele>120.3</ele>
        <time>2015-10-04T13:16:25Z</time>
      </trkpt>
      <trkpt lat="43.09327" lon="2.59962">
        <ele>120.3</ele>
        <time>2015-10-04T13:16:26Z</time>
      </trkpt>
      <trkpt lat="43.09321" lon="2.59983">
        <ele>120.3</ele>
        <time>2015-10-04T13:16:27Z</time>
      </trkpt>
      <trkpt lat="43.09289" lon="2.60089">
        <ele>122.22</ele>
        <time>2015-10-04T13:16:32Z</time>
      </trkpt>
      <trkpt lat="43.09279" lon="2.60107">
        <ele>122.22</ele>
        <time>2015-10-04T13:16:33Z</time>
      </trkpt>
      <trkpt lat="43.09266" lon="2.60119">
        <ele>122.71</ele>
        <time>2015-10-04T13:16:34Z</time>
      </trkpt>
      <trkpt lat="43.09251" lon="2.60124">
        <ele>123.19</ele>
        <time>2015-10-04T13:16:35Z</time>
      </trkpt>
      <trkpt lat="43.09236" lon="2.60124">
        <ele>123.67</ele>
        <time>2015-10-04T13:16:36Z</time>
      </trkpt>
      <trkpt lat="43.0922" lon="2.60122">
        <ele>123.67</ele>
        <time>2015-10-04T13:16:37Z</time>
      </trkpt>
      <trkpt lat="43.09203" lon="2.60117">
        <ele>124.15</ele>
        <time>2015-10-04T13:16:38Z</time>
      </trkpt>
      <trkpt lat="43.09186" lon="2.60113">
        <ele>124.15</ele>
        <time>2015-10-04T13:16:39Z</time>
      </trkpt>
      <trkpt lat="43.09136" lon="2.60097">
        <ele>124.63</ele>
        <time>2015-10-04T13:16:42Z</time>
      </trkpt>
      <trkpt lat="43.09121" lon="2.60084">
        <ele>125.11</ele>
        <time>2015-10-04T13:16:43Z</time>
      </trkpt>
      <trkpt lat="43.09109" lon="2.60067">
        <ele>125.59</ele>
        <time>2015-10-04T13:16:44Z</time>
      </trkpt>
      <trkpt lat="43.09101" lon="2.60048">
        <ele>125.59</ele>
        <time>2015-10-04T13:16:45Z</time>
      </trkpt>
      <trkpt lat="43.09096" lon="2.60028">
        <ele>126.07</ele>
        <time>2015-10-04T13:16:46Z</time>
      </trkpt>
      <trkpt lat="43.09094" lon="2.60006">
        <ele>126.07</ele>
        <time>2015-10-04T13:16:47Z</time>
      </trkpt>
      <trkpt lat="43.09096" lon="2.59984">
        <ele>126.07</ele>
        <time>2015-10-04T13:16:48Z</time>
      </trkpt>
      <trkpt lat="43.091" lon="2.59962">
        <ele>126.07</ele>
        <time>2015-10-04T13:16:49Z</time>
      </trkpt>
      <trkpt lat="43.09107" lon="2.59941">
        <ele>126.07</ele>
        <time>2015-10-04T13:16:50Z</time>
      </trkpt>
      <trkpt lat="43.09116" lon="2.5992">
        <ele>125.59</ele>
        <time>2015-10-04T13:16:51Z</time>
      </trkpt>
      <trkpt lat="43.09126" lon="2.59899">
        <ele>125.59</ele>
        <time>2015-10-04T13:16:52Z</time>
      </trkpt>
      <trkpt lat="43.09139" lon="2.59878">
        <ele>125.59</ele>
        <time>2015-10-04T13:16:53Z</time>
      </trkpt>
      <trkpt lat="43.09153" lon="2.59859">
        <ele>125.59</ele>
        <time>2015-10-04T13:16:54Z</time>
      </trkpt>
      <trkpt lat="43.09169" lon="2.5984">
        <ele>126.07</ele>
        <time>2015-10-04T13:16:55Z</time>
      </trkpt>
      <trkpt lat="43.09185" lon="2.59824">
        <ele>126.55</ele>
        <time>2015-10-04T13:16:56Z</time>
      </trkpt>
      <trkpt lat="43.09201" lon="2.59807">
        <ele>126.55</ele>
        <time>2015-10-04T13:16:57Z</time>
      </trkpt>
      <trkpt lat="43.09308" lon="2.59665">
        <ele>127.51</ele>
        <time>2015-10-04T13:17:05Z</time>
      </trkpt>
      <trkpt lat="43.09315" lon="2.59645">
        <ele>127.51</ele>
        <time>2015-10-04T13:17:06Z</time>
      </trkpt>
      <trkpt lat="43.09318" lon="2.59626">
        <ele>127.51</ele>
        <time>2015-10-04T13:17:07Z</time>
      </trkpt>
      <trkpt lat="43.09317" lon="2.59607">
        <ele>126.55</ele>
        <time>2015-10-04T13:17:08Z</time>
      </trkpt>
      <trkpt lat="43.09312" lon="2.59589">
        <ele>126.07</ele>
        <time>2015-10-04T13:17:09Z</time>
      </trkpt>
      <trkpt lat="43.09303" lon="2.5957">
        <ele>127.03</ele>
        <time>2015-10-04T13:17:10Z</time>
      </trkpt>
      <trkpt lat="43.09286" lon="2.59558">
        <ele>127.03</ele>
        <time>2015-10-04T13:17:11Z</time>
      </trkpt>
      <trkpt lat="43.09269" lon="2.59551">
        <ele>127.03</ele>
        <time>2015-10-04T13:17:12Z</time>
      </trkpt>
      <trkpt lat="43.09254" lon="2.59547">
        <ele>127.51</ele>
        <time>2015-10-04T13:17:13Z</time>
      </trkpt>
      <trkpt lat="43.09239" lon="2.59544">
        <ele>127.51</ele>
        <time>2015-10-04T13:17:14Z</time>
      </trkpt>
      <trkpt lat="43.09224" lon="2.59542">
        <ele>127.99</ele>
        <time>2015-10-04T13:17:15Z</time>
      </trkpt>
      <trkpt lat="43.09211" lon="2.59538">
        <ele>127.99</ele>
        <time>2015-10-04T13:17:16Z</time>
      </trkpt>
      <trkpt lat="43.09199" lon="2.59532">
        <ele>127.99</ele>
        <time>2015-10-04T13:17:17Z</time>
      </trkpt>
      <trkpt lat="43.0919" lon="2.5952">
        <ele>128.47</ele>
        <time>2015-10-04T13:17:18Z</time>
      </trkpt>
      <trkpt lat="43.09183" lon="2.59505">
        <ele>128.47</ele>
        <time>2015-10-04T13:17:19Z</time>
      </trkpt>
      <trkpt lat="43.09178" lon="2.59489">
        <ele>128.95</ele>
        <time>2015-10-04T13:17:20Z</time>
      </trkpt>
      <trkpt lat="43.09175" lon="2.59471">
        <ele>128.95</ele>
        <time>2015-10-04T13:17:21Z</time>
      </trkpt>
      <trkpt lat="43.09175" lon="2.59452">
        <ele>128.95</ele>
        <time>2015-10-04T13:17:22Z</time>
      </trkpt>
      <trkpt lat="43.09178" lon="2.59433">
        <ele>128.95</ele>
        <time>2015-10-04T13:17:23Z</time>
      </trkpt>
      <trkpt lat="43.09185" lon="2.59412">
        <ele>129.92</ele>
        <time>2015-10-04T13:17:24Z</time>
      </trkpt>
      <trkpt lat="43.09192" lon="2.59394">
        <ele>129.92</ele>
        <time>2015-10-04T13:17:25Z</time>
      </trkpt>
      <trkpt lat="43.09199" lon="2.59374">
        <ele>129.92</ele>
        <time>2015-10-04T13:17:26Z</time>
      </trkpt>
      <trkpt lat="43.09205" lon="2.59353">
        <ele>130.4</ele>
        <time>2015-10-04T13:17:27Z</time>
      </trkpt>
      <trkpt lat="43.0921" lon="2.5933">
        <ele>130.4</ele>
        <time>2015-10-04T13:17:28Z</time>
      </trkpt>
      <trkpt lat="43.09214" lon="2.59305">
        <ele>129.92</ele>
        <time>2015-10-04T13:17:29Z</time>
      </trkpt>
      <trkpt lat="43.09217" lon="2.5928">
        <ele>129.92</ele>
        <time>2015-10-04T13:17:30Z</time>
      </trkpt>
      <trkpt lat="43.09216" lon="2.59251">
        <ele>129.92</ele>
        <time>2015-10-04T13:17:31Z</time>
      </trkpt>
      <trkpt lat="43.09216" lon="2.59222">
        <ele>130.4</ele>
        <time>2015-10-04T13:17:32Z</time>
      </trkpt>
      <trkpt lat="43.0922" lon="2.58987">
        <ele>132.8</ele>
        <time>2015-10-04T13:17:40Z</time>
      </trkpt>
      <trkpt lat="43.09225" lon="2.58956">
        <ele>133.76</ele>
        <time>2015-10-04T13:17:41Z</time>
      </trkpt>
      <trkpt lat="43.09232" lon="2.58925">
        <ele>134.24</ele>
        <time>2015-10-04T13:17:42Z</time>
      </trkpt>
      <trkpt lat="43.09289" lon="2.58641">
        <ele>136.16</ele>
        <time>2015-10-04T13:17:51Z</time>
      </trkpt>
      <trkpt lat="43.09329" lon="2.5845">
        <ele>137.61</ele>
        <time>2015-10-04T13:17:58Z</time>
      </trkpt>
      <trkpt lat="43.09331" lon="2.58428">
        <ele>138.09</ele>
        <time>2015-10-04T13:17:59Z</time>
      </trkpt>
      <trkpt lat="43.09329" lon="2.58409">
        <ele>138.09</ele>
        <time>2015-10-04T13:18:00Z</time>
      </trkpt>
      <trkpt lat="43.09322" lon="2.5839">
        <ele>138.09</ele>
        <time>2015-10-04T13:18:01Z</time>
      </trkpt>
      <trkpt lat="43.09311" lon="2.58368">
        <ele>139.05</ele>
        <time>2015-10-04T13:18:02Z</time>
      </trkpt>
      <trkpt lat="43.09297" lon="2.58348">
        <ele>139.53</ele>
        <time>2015-10-04T13:18:03Z</time>
      </trkpt>
      <trkpt lat="43.09281" lon="2.58331">
        <ele>139.05</ele>
        <time>2015-10-04T13:18:04Z</time>
      </trkpt>
      <trkpt lat="43.09264" lon="2.58315">
        <ele>138.57</ele>
        <time>2015-10-04T13:18:05Z</time>
      </trkpt>
      <trkpt lat="43.09248" lon="2.58303">
        <ele>138.57</ele>
        <time>2015-10-04T13:18:06Z</time>
      </trkpt>
      <trkpt lat="43.09232" lon="2.58293">
        <ele>138.57</ele>
        <time>2015-10-04T13:18:07Z</time>
      </trkpt>
      <trkpt lat="43.09215" lon="2.58285">
        <ele>138.57</ele>
        <time>2015-10-04T13:18:08Z</time>
      </trkpt>
      <trkpt lat="43.09199" lon="2.5828">
        <ele>138.57</ele>
        <time>2015-10-04T13:18:09Z</time>
      </trkpt>
      <trkpt lat="43.09181" lon="2.58283">
        <ele>138.09</ele>
        <time>2015-10-04T13:18:10Z</time>
      </trkpt>
      <trkpt lat="43.09163" lon="2.5829">
        <ele>138.57</ele>
        <time>2015-10-04T13:18:11Z</time>
      </trkpt>
      <trkpt lat="43.09147" lon="2.583">
        <ele>138.57</ele>
        <time>2015-10-04T13:18:12Z</time>
      </trkpt>
      <trkpt lat="43.09132" lon="2.58311">
        <ele>138.57</ele>
        <time>2015-10-04T13:18:13Z</time>
      </trkpt>
      <trkpt lat="43.09118" lon="2.58325">
        <ele>138.57</ele>
        <time>2015-10-04T13:18:14Z</time>
      </trkpt>
      <trkpt lat="43.09105" lon="2.58339">
        <ele>139.05</ele>
        <time>2015-10-04T13:18:15Z</time>
      </trkpt>
      <trkpt lat="43.09094" lon="2.58356">
        <ele>138.57</ele>
        <time>2015-10-04T13:18:16Z</time>
      </trkpt>
      <trkpt lat="43.09084" lon="2.58376">
        <ele>138.57</ele>
        <time>2015-10-04T13:18:17Z</time>
      </trkpt>
      <trkpt lat="43.09076" lon="2.58396">
        <ele>139.05</ele>
        <time>2015-10-04T13:18:18Z</time>
      </trkpt>
      <trkpt lat="43.09037" lon="2.58495">
        <ele>139.05</ele>
        <time>2015-10-04T13:18:23Z</time>
      </trkpt>
      <trkpt lat="43.09028" lon="2.58507">
        <ele>139.53</ele>
        <time>2015-10-04T13:18:24Z</time>
      </trkpt>
      <trkpt lat="43.09018" lon="2.58514">
        <ele>140.01</ele>
        <time>2015-10-04T13:18:25Z</time>
      </trkpt>
      <trkpt lat="43.09008" lon="2.58515">
        <ele>139.53</ele>
        <time>2015-10-04T13:18:26Z</time>
      </trkpt>
      <trkpt lat="43.08998" lon="2.58511">
        <ele>140.01</ele>
        <time>2015-10-04T13:18:27Z</time>
      </trkpt>
      <trkpt lat="43.08985" lon="2.58495">
        <ele>141.45</ele>
        <time>2015-10-04T13:18:28Z</time>
      </trkpt>
      <trkpt lat="43.08979" lon="2.58482">
        <ele>140.97</ele>
        <time>2015-10-04T13:18:29Z</time>
      </trkpt>
      <trkpt lat="43.08974" lon="2.58462">
        <ele>140.97</ele>
        <time>2015-10-04T13:18:30Z</time>
      </trkpt>
      <trkpt lat="43.0897" lon="2.58442">
        <ele>141.45</ele>
        <time>2015-10-04T13:18:31Z</time>
      </trkpt>
      <trkpt lat="43.0897" lon="2.58421">
        <ele>141.93</ele>
        <time>2015-10-04T13:18:32Z</time>
      </trkpt>
      <trkpt lat="43.08973" lon="2.58401">
        <ele>143.37</ele>
        <time>2015-10-04T13:18:33Z</time>
      </trkpt>
      <trkpt lat="43.08978" lon="2.58382">
        <ele>143.37</ele>
        <time>2015-10-04T13:18:34Z</time>
      </trkpt>
      <trkpt lat="43.08982" lon="2.58361">
        <ele>143.37</ele>
        <time>2015-10-04T13:18:35Z</time>
      </trkpt>
      <trkpt lat="43.08985" lon="2.58339">
        <ele>143.37</ele>
        <time>2015-10-04T13:18:36Z</time>
      </trkpt>
      <trkpt lat="43.08987" lon="2.58314">
        <ele>143.37</ele>
        <time>2015-10-04T13:18:37Z</time>
      </trkpt>
      <trkpt lat="43.08993" lon="2.58236">
        <ele>144.34</ele>
        <time>2015-10-04T13:18:40Z</time>
      </trkpt>
      <trkpt lat="43.08998" lon="2.58212">
        <ele>144.82</ele>
        <time>2015-10-04T13:18:41Z</time>
      </trkpt>
      <trkpt lat="43.09008" lon="2.58163">
        <ele>144.82</ele>
        <time>2015-10-04T13:18:43Z</time>
      </trkpt>
      <trkpt lat="43.0901" lon="2.58136">
        <ele>145.3</ele>
        <time>2015-10-04T13:18:44Z</time>
      </trkpt>
      <trkpt lat="43.09009" lon="2.58111">
        <ele>145.78</ele>
        <time>2015-10-04T13:18:45Z</time>
      </trkpt>
      <trkpt lat="43.09006" lon="2.58086">
        <ele>146.26</ele>
        <time>2015-10-04T13:18:46Z</time>
      </trkpt>
      <trkpt lat="43.09003" lon="2.58061">
        <ele>146.26</ele>
        <time>2015-10-04T13:18:47Z</time>
      </trkpt>
      <trkpt lat="43.09003" lon="2.58037">
        <ele>146.26</ele>
        <time>2015-10-04T13:18:48Z</time>
      </trkpt>
      <trkpt lat="43.09007" lon="2.58013">
        <ele>146.74</ele>
        <time>2015-10-04T13:18:49Z</time>
      </trkpt>
      <trkpt lat="43.09011" lon="2.57989">
        <ele>146.74</ele>
        <time>2015-10-04T13:18:50Z</time>
      </trkpt>
      <trkpt lat="43.09022" lon="2.57944">
        <ele>146.74</ele>
        <time>2015-10-04T13:18:52Z</time>
      </trkpt>
      <trkpt lat="43.0903" lon="2.57925">
        <ele>147.22</ele>
        <time>2015-10-04T13:18:53Z</time>
      </trkpt>
      <trkpt lat="43.0904" lon="2.57892">
        <ele>147.7</ele>
        <time>2015-10-04T13:18:55Z</time>
      </trkpt>
      <trkpt lat="43.09041" lon="2.57877">
        <ele>147.7</ele>
        <time>2015-10-04T13:18:56Z</time>
      </trkpt>
      <trkpt lat="43.0904" lon="2.57862">
        <ele>148.18</ele>
        <time>2015-10-04T13:18:57Z</time>
      </trkpt>
      <trkpt lat="43.09036" lon="2.5783">
        <ele>147.7</ele>
        <time>2015-10-04T13:18:59Z</time>
      </trkpt>
      <trkpt lat="43.09037" lon="2.57815">
        <ele>147.7</ele>
        <time>2015-10-04T13:19:00Z</time>
      </trkpt>
      <trkpt lat="43.09042" lon="2.57802">
        <ele>148.18</ele>
        <time>2015-10-04T13:19:01Z</time>
      </trkpt>
      <trkpt lat="43.0905" lon="2.57796">
        <ele>147.7</ele>
        <time>2015-10-04T13:19:02Z</time>
      </trkpt>
      <trkpt lat="43.0906" lon="2.57791">
        <ele>147.7</ele>
        <time>2015-10-04T13:19:03Z</time>
      </trkpt>
      <trkpt lat="43.09073" lon="2.57789">
        <ele>148.18</ele>
        <time>2015-10-04T13:19:04Z</time>
      </trkpt>
      <trkpt lat="43.09089" lon="2.57788">
        <ele>148.18</ele>
        <time>2015-10-04T13:19:05Z</time>
      </trkpt>
      <trkpt lat="43.09186" lon="2.57769">
        <ele>147.7</ele>
        <time>2015-10-04T13:19:10Z</time>
      </trkpt>
      <trkpt lat="43.09205" lon="2.5776">
        <ele>147.7</ele>
        <time>2015-10-04T13:19:11Z</time>
      </trkpt>
      <trkpt lat="43.09224" lon="2.57747">
        <ele>148.18</ele>
        <time>2015-10-04T13:19:12Z</time>
      </trkpt>
      <trkpt lat="43.0924" lon="2.57732">
        <ele>148.18</ele>
        <time>2015-10-04T13:19:13Z</time>
      </trkpt>
      <trkpt lat="43.09254" lon="2.57717">
        <ele>147.7</ele>
        <time>2015-10-04T13:19:14Z</time>
      </trkpt>
      <trkpt lat="43.09265" lon="2.577">
        <ele>147.7</ele>
        <time>2015-10-04T13:19:15Z</time>
      </trkpt>
      <trkpt lat="43.09273" lon="2.5768">
        <ele>147.7</ele>
        <time>2015-10-04T13:19:16Z</time>
      </trkpt>
      <trkpt lat="43.09276" lon="2.57658">
        <ele>147.7</ele>
        <time>2015-10-04T13:19:17Z</time>
      </trkpt>
      <trkpt lat="43.09279" lon="2.57634">
        <ele>148.18</ele>
        <time>2015-10-04T13:19:18Z</time>
      </trkpt>
      <trkpt lat="43.09281" lon="2.5761">
        <ele>148.18</ele>
        <time>2015-10-04T13:19:19Z</time>
      </trkpt>
      <trkpt lat="43.09315" lon="2.57463">
        <ele>150.1</ele>
        <time>2015-10-04T13:19:24Z</time>
      </trkpt>
      <trkpt lat="43.09381" lon="2.5731">
        <ele>152.03</ele>
        <time>2015-10-04T13:19:30Z</time>
      </trkpt>
      <trkpt lat="43.0939" lon="2.57291">
        <ele>152.03</ele>
        <time>2015-10-04T13:19:31Z</time>
      </trkpt>
      <trkpt lat="43.09397" lon="2.57271">
        <ele>152.03</ele>
        <time>2015-10-04T13:19:32Z</time>
      </trkpt>
      <trkpt lat="43.09399" lon="2.57252">
        <ele>152.03</ele>
        <time>2015-10-04T13:19:33Z</time>
      </trkpt>
      <trkpt lat="43.09398" lon="2.57233">
        <ele>151.54</ele>
        <time>2015-10-04T13:19:34Z</time>
      </trkpt>
      <trkpt lat="43.0939" lon="2.57217">
        <ele>151.06</ele>
        <time>2015-10-04T13:19:35Z</time>
      </trkpt>
      <trkpt lat="43.09377" lon="2.57201">
        <ele>151.54</ele>
        <time>2015-10-04T13:19:36Z</time>
      </trkpt>
      <trkpt lat="43.09364" lon="2.57192">
        <ele>151.06</ele>
        <time>2015-10-04T13:19:37Z</time>
      </trkpt>
      <trkpt lat="43.09348" lon="2.57189">
        <ele>151.06</ele>
        <time>2015-10-04T13:19:38Z</time>
      </trkpt>
      <trkpt lat="43.09331" lon="2.57187">
        <ele>151.54</ele>
        <time>2015-10-04T13:19:39Z</time>
      </trkpt>
      <trkpt lat="43.09313" lon="2.57185">
        <ele>151.06</ele>
        <time>2015-10-04T13:19:40Z</time>
      </trkpt>
      <trkpt lat="43.09171" lon="2.57173">
        <ele>152.51</ele>
        <time>2015-10-04T13:19:47Z</time>
      </trkpt>
      <trkpt lat="43.09119" lon="2.57169">
        <ele>152.51</ele>
        <time>2015-10-04T13:19:50Z</time>
      </trkpt>
      <trkpt lat="43.09101" lon="2.57177">
        <ele>152.51</ele>
        <time>2015-10-04T13:19:51Z</time>
      </trkpt>
      <trkpt lat="43.09083" lon="2.57187">
        <ele>152.51</ele>
        <time>2015-10-04T13:19:52Z</time>
      </trkpt>
      <trkpt lat="43.09066" lon="2.57201">
        <ele>152.99</ele>
        <time>2015-10-04T13:19:53Z</time>
      </trkpt>
      <trkpt lat="43.09049" lon="2.57214">
        <ele>152.99</ele>
        <time>2015-10-04T13:19:54Z</time>
      </trkpt>
      <trkpt lat="43.09017" lon="2.57237">
        <ele>153.47</ele>
        <time>2015-10-04T13:19:56Z</time>
      </trkpt>
      <trkpt lat="43.09002" lon="2.57244">
        <ele>153.47</ele>
        <time>2015-10-04T13:19:57Z</time>
      </trkpt>
      <trkpt lat="43.08988" lon="2.57247">
        <ele>152.99</ele>
        <time>2015-10-04T13:19:58Z</time>
      </trkpt>
      <trkpt lat="43.08975" lon="2.57245">
        <ele>152.03</ele>
        <time>2015-10-04T13:19:59Z</time>
      </trkpt>
      <trkpt lat="43.08961" lon="2.57238">
        <ele>151.54</ele>
        <time>2015-10-04T13:20:00Z</time>
      </trkpt>
      <trkpt lat="43.08945" lon="2.5722">
        <ele>153.95</ele>
        <time>2015-10-04T13:20:01Z</time>
      </trkpt>
      <trkpt lat="43.08934" lon="2.57203">
        <ele>154.91</ele>
        <time>2015-10-04T13:20:02Z</time>
      </trkpt>
      <trkpt lat="43.0893" lon="2.57184">
        <ele>155.39</ele>
        <time>2015-10-04T13:20:03Z</time>
      </trkpt>
      <trkpt lat="43.08929" lon="2.57161">
        <ele>155.87</ele>
        <time>2015-10-04T13:20:04Z</time>
      </trkpt>
      <trkpt lat="43.0893" lon="2.57139">
        <ele>155.87</ele>
        <time>2015-10-04T13:20:05Z</time>
      </trkpt>
      <trkpt lat="43.08932" lon="2.57116">
        <ele>156.35</ele>
        <time>2015-10-04T13:20:06Z</time>
      </trkpt>
      <trkpt lat="43.08937" lon="2.5709">
        <ele>156.83</ele>
        <time>2015-10-04T13:20:07Z</time>
      </trkpt>
      <trkpt lat="43.08943" lon="2.57065">
        <ele>157.31</ele>
        <time>2015-10-04T13:20:08Z</time>
      </trkpt>
      <trkpt lat="43.0895" lon="2.57037">
        <ele>157.31</ele>
        <time>2015-10-04T13:20:09Z</time>
      </trkpt>
      <trkpt lat="43.08979" lon="2.56866">
        <ele>158.27</ele>
        <time>2015-10-04T13:20:14Z</time>
      </trkpt>
      <trkpt lat="43.09047" lon="2.56611">
        <ele>159.72</ele>
        <time>2015-10-04T13:20:21Z</time>
      </trkpt>
      <trkpt lat="43.09105" lon="2.56362">
        <ele>162.6</ele>
        <time>2015-10-04T13:20:28Z</time>
      </trkpt>
      <trkpt lat="43.09134" lon="2.56177">
        <ele>164.04</ele>
        <time>2015-10-04T13:20:34Z</time>
      </trkpt>
      <trkpt lat="43.09142" lon="2.56103">
        <ele>164.52</ele>
        <time>2015-10-04T13:20:37Z</time>
      </trkpt>
      <trkpt lat="43.09138" lon="2.56077">
        <ele>165.48</ele>
        <time>2015-10-04T13:20:38Z</time>
      </trkpt>
      <trkpt lat="43.09134" lon="2.56051">
        <ele>165.96</ele>
        <time>2015-10-04T13:20:39Z</time>
      </trkpt>
      <trkpt lat="43.09124" lon="2.55999">
        <ele>165.48</ele>
        <time>2015-10-04T13:20:41Z</time>
      </trkpt>
      <trkpt lat="43.09122" lon="2.55974">
        <ele>165.48</ele>
        <time>2015-10-04T13:20:42Z</time>
      </trkpt>
      <trkpt lat="43.09122" lon="2.5595">
        <ele>165.48</ele>
        <time>2015-10-04T13:20:43Z</time>
      </trkpt>
      <trkpt lat="43.09122" lon="2.55927">
        <ele>165.96</ele>
        <time>2015-10-04T13:20:44Z</time>
      </trkpt>
      <trkpt lat="43.09123" lon="2.55906">
        <ele>165.96</ele>
        <time>2015-10-04T13:20:45Z</time>
      </trkpt>
      <trkpt lat="43.09123" lon="2.55887">
        <ele>165.96</ele>
        <time>2015-10-04T13:20:46Z</time>
      </trkpt>
      <trkpt lat="43.0912" lon="2.55872">
        <ele>165.48</ele>
        <time>2015-10-04T13:20:47Z</time>
      </trkpt>
      <trkpt lat="43.09111" lon="2.55861">
        <ele>165.48</ele>
        <time>2015-10-04T13:20:48Z</time>
      </trkpt>
      <trkpt lat="43.09102" lon="2.55854">
        <ele>165</ele>
        <time>2015-10-04T13:20:49Z</time>
      </trkpt>
      <trkpt lat="43.09087" lon="2.55855">
        <ele>165.48</ele>
        <time>2015-10-04T13:20:50Z</time>
      </trkpt>
      <trkpt lat="43.09073" lon="2.55858">
        <ele>165.48</ele>
        <time>2015-10-04T13:20:51Z</time>
      </trkpt>
      <trkpt lat="43.09058" lon="2.55861">
        <ele>165.48</ele>
        <time>2015-10-04T13:20:52Z</time>
      </trkpt>
      <trkpt lat="43.09029" lon="2.55865">
        <ele>165.48</ele>
        <time>2015-10-04T13:20:54Z</time>
      </trkpt>
      <trkpt lat="43.09015" lon="2.55861">
        <ele>165.48</ele>
        <time>2015-10-04T13:20:55Z</time>
      </trkpt>
      <trkpt lat="43.09004" lon="2.55854">
        <ele>165.48</ele>
        <time>2015-10-04T13:20:56Z</time>
      </trkpt>
      <trkpt lat="43.08997" lon="2.5584">
        <ele>165.48</ele>
        <time>2015-10-04T13:20:57Z</time>
      </trkpt>
      <trkpt lat="43.08994" lon="2.55823">
        <ele>165.48</ele>
        <time>2015-10-04T13:20:58Z</time>
      </trkpt>
      <trkpt lat="43.08994" lon="2.55805">
        <ele>165.96</ele>
        <time>2015-10-04T13:20:59Z</time>
      </trkpt>
      <trkpt lat="43.08997" lon="2.55786">
        <ele>165.96</ele>
        <time>2015-10-04T13:21:00Z</time>
      </trkpt>
      <trkpt lat="43.09002" lon="2.55767">
        <ele>165.96</ele>
        <time>2015-10-04T13:21:01Z</time>
      </trkpt>
      <trkpt lat="43.09007" lon="2.55744">
        <ele>166.45</ele>
        <time>2015-10-04T13:21:02Z</time>
      </trkpt>
      <trkpt lat="43.09065" lon="2.55527">
        <ele>167.89</ele>
        <time>2015-10-04T13:21:10Z</time>
      </trkpt>
      <trkpt lat="43.09077" lon="2.55504">
        <ele>167.89</ele>
        <time>2015-10-04T13:21:11Z</time>
      </trkpt>
      <trkpt lat="43.09101" lon="2.55459">
        <ele>167.89</ele>
        <time>2015-10-04T13:21:13Z</time>
      </trkpt>
      <trkpt lat="43.09112" lon="2.55433">
        <ele>167.89</ele>
        <time>2015-10-04T13:21:14Z</time>
      </trkpt>
      <trkpt lat="43.09168" lon="2.55262">
        <ele>168.85</ele>
        <time>2015-10-04T13:21:19Z</time>
      </trkpt>
      <trkpt lat="43.0922" lon="2.55099">
        <ele>170.77</ele>
        <time>2015-10-04T13:21:24Z</time>
      </trkpt>
      <trkpt lat="43.09242" lon="2.55029">
        <ele>171.73</ele>
        <time>2015-10-04T13:21:29Z</time>
      </trkpt>
      <trkpt lat="43.09251" lon="2.54887">
        <ele>174.14</ele>
        <time>2015-10-04T13:21:39Z</time>
      </trkpt>
      <trkpt lat="43.09251" lon="2.54745">
        <ele>176.54</ele>
        <time>2015-10-04T13:21:47Z</time>
      </trkpt>
      <trkpt lat="43.09251" lon="2.54553">
        <ele>177.5</ele>
        <time>2015-10-04T13:21:56Z</time>
      </trkpt>
      <trkpt lat="43.0927" lon="2.54376">
        <ele>177.5</ele>
        <time>2015-10-04T13:22:01Z</time>
      </trkpt>
      <trkpt lat="43.09318" lon="2.54028">
        <ele>177.98</ele>
        <time>2015-10-04T13:22:11Z</time>
      </trkpt>
      <trkpt lat="43.09342" lon="2.53878">
        <ele>178.46</ele>
        <time>2015-10-04T13:22:16Z</time>
      </trkpt>
      <trkpt lat="43.09352" lon="2.53849">
        <ele>178.46</ele>
        <time>2015-10-04T13:22:17Z</time>
      </trkpt>
      <trkpt lat="43.09363" lon="2.5382">
        <ele>178.46</ele>
        <time>2015-10-04T13:22:18Z</time>
      </trkpt>
      <trkpt lat="43.09376" lon="2.53793">
        <ele>178.46</ele>
        <time>2015-10-04T13:22:19Z</time>
      </trkpt>
      <trkpt lat="43.09391" lon="2.53768">
        <ele>178.46</ele>
        <time>2015-10-04T13:22:20Z</time>
      </trkpt>
      <trkpt lat="43.09407" lon="2.53746">
        <ele>178.46</ele>
        <time>2015-10-04T13:22:21Z</time>
      </trkpt>
      <trkpt lat="43.09424" lon="2.53727">
        <ele>178.46</ele>
        <time>2015-10-04T13:22:22Z</time>
      </trkpt>
      <trkpt lat="43.09444" lon="2.5371">
        <ele>178.94</ele>
        <time>2015-10-04T13:22:23Z</time>
      </trkpt>
      <trkpt lat="43.09464" lon="2.53693">
        <ele>178.94</ele>
        <time>2015-10-04T13:22:24Z</time>
      </trkpt>
      <trkpt lat="43.09631" lon="2.53556">
        <ele>178.94</ele>
        <time>2015-10-04T13:22:31Z</time>
      </trkpt>
      <trkpt lat="43.09979" lon="2.53264">
        <ele>184.71</ele>
        <time>2015-10-04T13:22:45Z</time>
      </trkpt>
      <trkpt lat="43.10399" lon="2.52911">
        <ele>193.84</ele>
        <time>2015-10-04T13:23:03Z</time>
      </trkpt>
      <trkpt lat="43.10623" lon="2.52731">
        <ele>199.13</ele>
        <time>2015-10-04T13:23:13Z</time>
      </trkpt>
      <trkpt lat="43.10763" lon="2.52627">
        <ele>202.49</ele>
        <time>2015-10-04T13:23:20Z</time>
      </trkpt>
      <trkpt lat="43.10783" lon="2.52622">
        <ele>202.98</ele>
        <time>2015-10-04T13:23:21Z</time>
      </trkpt>
      <trkpt lat="43.10802" lon="2.52622">
        <ele>203.46</ele>
        <time>2015-10-04T13:23:22Z</time>
      </trkpt>
      <trkpt lat="43.10822" lon="2.52625">
        <ele>203.94</ele>
        <time>2015-10-04T13:23:23Z</time>
      </trkpt>
      <trkpt lat="43.10842" lon="2.5263">
        <ele>203.94</ele>
        <time>2015-10-04T13:23:24Z</time>
      </trkpt>
      <trkpt lat="43.11038" lon="2.52678">
        <ele>206.34</ele>
        <time>2015-10-04T13:23:32Z</time>
      </trkpt>
      <trkpt lat="43.11212" lon="2.52724">
        <ele>209.22</ele>
        <time>2015-10-04T13:23:39Z</time>
      </trkpt>
      <trkpt lat="43.1123" lon="2.52739">
        <ele>209.7</ele>
        <time>2015-10-04T13:23:40Z</time>
      </trkpt>
      <trkpt lat="43.11245" lon="2.5276">
        <ele>210.19</ele>
        <time>2015-10-04T13:23:41Z</time>
      </trkpt>
      <trkpt lat="43.11258" lon="2.52783">
        <ele>210.67</ele>
        <time>2015-10-04T13:23:42Z</time>
      </trkpt>
      <trkpt lat="43.11269" lon="2.52805">
        <ele>211.63</ele>
        <time>2015-10-04T13:23:43Z</time>
      </trkpt>
      <trkpt lat="43.11281" lon="2.52828">
        <ele>212.11</ele>
        <time>2015-10-04T13:23:44Z</time>
      </trkpt>
      <trkpt lat="43.11307" lon="2.52867">
        <ele>213.55</ele>
        <time>2015-10-04T13:23:46Z</time>
      </trkpt>
      <trkpt lat="43.11324" lon="2.52879">
        <ele>214.51</ele>
        <time>2015-10-04T13:23:47Z</time>
      </trkpt>
      <trkpt lat="43.11341" lon="2.52887">
        <ele>214.99</ele>
        <time>2015-10-04T13:23:48Z</time>
      </trkpt>
      <trkpt lat="43.11359" lon="2.52892">
        <ele>215.95</ele>
        <time>2015-10-04T13:23:49Z</time>
      </trkpt>
      <trkpt lat="43.11377" lon="2.52895">
        <ele>216.43</ele>
        <time>2015-10-04T13:23:50Z</time>
      </trkpt>
      <trkpt lat="43.11396" lon="2.52898">
        <ele>217.4</ele>
        <time>2015-10-04T13:23:51Z</time>
      </trkpt>
      <trkpt lat="43.11415" lon="2.52904">
        <ele>218.36</ele>
        <time>2015-10-04T13:23:52Z</time>
      </trkpt>
      <trkpt lat="43.11434" lon="2.52914">
        <ele>218.84</ele>
        <time>2015-10-04T13:23:53Z</time>
      </trkpt>
      <trkpt lat="43.11451" lon="2.52931">
        <ele>219.8</ele>
        <time>2015-10-04T13:23:54Z</time>
      </trkpt>
      <trkpt lat="43.11468" lon="2.5295">
        <ele>220.76</ele>
        <time>2015-10-04T13:23:55Z</time>
      </trkpt>
      <trkpt lat="43.11484" lon="2.5297">
        <ele>221.72</ele>
        <time>2015-10-04T13:23:56Z</time>
      </trkpt>
      <trkpt lat="43.11601" lon="2.53117">
        <ele>223.64</ele>
        <time>2015-10-04T13:24:03Z</time>
      </trkpt>
      <trkpt lat="43.11614" lon="2.53143">
        <ele>223.64</ele>
        <time>2015-10-04T13:24:04Z</time>
      </trkpt>
      <trkpt lat="43.11626" lon="2.5317">
        <ele>223.16</ele>
        <time>2015-10-04T13:24:05Z</time>
      </trkpt>
      <trkpt lat="43.117" lon="2.53355">
        <ele>220.28</ele>
        <time>2015-10-04T13:24:12Z</time>
      </trkpt>
      <trkpt lat="43.11715" lon="2.53377">
        <ele>219.32</ele>
        <time>2015-10-04T13:24:13Z</time>
      </trkpt>
      <trkpt lat="43.11732" lon="2.53396">
        <ele>219.32</ele>
        <time>2015-10-04T13:24:14Z</time>
      </trkpt>
      <trkpt lat="43.11752" lon="2.53412">
        <ele>218.36</ele>
        <time>2015-10-04T13:24:15Z</time>
      </trkpt>
      <trkpt lat="43.11774" lon="2.53425">
        <ele>217.88</ele>
        <time>2015-10-04T13:24:16Z</time>
      </trkpt>
      <trkpt lat="43.11796" lon="2.53437">
        <ele>217.4</ele>
        <time>2015-10-04T13:24:17Z</time>
      </trkpt>
      <trkpt lat="43.12069" lon="2.53566">
        <ele>214.51</ele>
        <time>2015-10-04T13:24:28Z</time>
      </trkpt>
      <trkpt lat="43.12224" lon="2.5364">
        <ele>214.51</ele>
        <time>2015-10-04T13:24:35Z</time>
      </trkpt>
      <trkpt lat="43.12402" lon="2.53727">
        <ele>215.95</ele>
        <time>2015-10-04T13:24:45Z</time>
      </trkpt>
      <trkpt lat="43.12463" lon="2.53756">
        <ele>216.91</ele>
        <time>2015-10-04T13:24:51Z</time>
      </trkpt>
      <trkpt lat="43.1249" lon="2.53767">
        <ele>217.88</ele>
        <time>2015-10-04T13:24:55Z</time>
      </trkpt>
      <trkpt lat="43.12494" lon="2.5377">
        <ele>217.88</ele>
        <time>2015-10-04T13:24:56Z</time>
      </trkpt>
      <trkpt lat="43.12498" lon="2.53774">
        <ele>217.88</ele>
        <time>2015-10-04T13:24:57Z</time>
      </trkpt>
      <trkpt lat="43.12501" lon="2.53782">
        <ele>217.88</ele>
        <time>2015-10-04T13:24:58Z</time>
      </trkpt>
      <trkpt lat="43.12503" lon="2.53792">
        <ele>217.88</ele>
        <time>2015-10-04T13:24:59Z</time>
      </trkpt>
      <trkpt lat="43.12504" lon="2.53804">
        <ele>217.88</ele>
        <time>2015-10-04T13:25:00Z</time>
      </trkpt>
      <trkpt lat="43.12506" lon="2.53817">
        <ele>217.88</ele>
        <time>2015-10-04T13:25:01Z</time>
      </trkpt>
      <trkpt lat="43.12509" lon="2.5383">
        <ele>217.4</ele>
        <time>2015-10-04T13:25:02Z</time>
      </trkpt>
      <trkpt lat="43.12516" lon="2.53843">
        <ele>217.4</ele>
        <time>2015-10-04T13:25:03Z</time>
      </trkpt>
      <trkpt lat="43.12525" lon="2.53855">
        <ele>216.91</ele>
        <time>2015-10-04T13:25:04Z</time>
      </trkpt>
      <trkpt lat="43.12534" lon="2.53871">
        <ele>216.43</ele>
        <time>2015-10-04T13:25:05Z</time>
      </trkpt>
      <trkpt lat="43.1254" lon="2.53892">
        <ele>215.95</ele>
        <time>2015-10-04T13:25:06Z</time>
      </trkpt>
      <trkpt lat="43.12543" lon="2.53913">
        <ele>215.95</ele>
        <time>2015-10-04T13:25:07Z</time>
      </trkpt>
      <trkpt lat="43.12543" lon="2.53936">
        <ele>215.95</ele>
        <time>2015-10-04T13:25:08Z</time>
      </trkpt>
      <trkpt lat="43.12541" lon="2.5396">
        <ele>215.95</ele>
        <time>2015-10-04T13:25:09Z</time>
      </trkpt>
      <trkpt lat="43.12539" lon="2.53984">
        <ele>215.95</ele>
        <time>2015-10-04T13:25:10Z</time>
      </trkpt>
      <trkpt lat="43.12523" lon="2.54237">
        <ele>213.55</ele>
        <time>2015-10-04T13:25:19Z</time>
      </trkpt>
      <trkpt lat="43.12536" lon="2.5452">
        <ele>211.15</ele>
        <time>2015-10-04T13:25:28Z</time>
      </trkpt>
      <trkpt lat="43.12561" lon="2.5478">
        <ele>206.82</ele>
        <time>2015-10-04T13:25:36Z</time>
      </trkpt>
      <trkpt lat="43.12598" lon="2.54942">
        <ele>205.38</ele>
        <time>2015-10-04T13:25:42Z</time>
      </trkpt>
      <trkpt lat="43.12619" lon="2.55003">
        <ele>205.38</ele>
        <time>2015-10-04T13:25:45Z</time>
      </trkpt>
      <trkpt lat="43.12622" lon="2.55023">
        <ele>204.9</ele>
        <time>2015-10-04T13:25:46Z</time>
      </trkpt>
      <trkpt lat="43.12624" lon="2.55043">
        <ele>204.9</ele>
        <time>2015-10-04T13:25:47Z</time>
      </trkpt>
      <trkpt lat="43.12637" lon="2.5521">
        <ele>204.42</ele>
        <time>2015-10-04T13:25:57Z</time>
      </trkpt>
      <trkpt lat="43.12655" lon="2.5534">
        <ele>204.42</ele>
        <time>2015-10-04T13:26:07Z</time>
      </trkpt>
      <trkpt lat="43.12694" lon="2.5547">
        <ele>203.46</ele>
        <time>2015-10-04T13:26:14Z</time>
      </trkpt>
      <trkpt lat="43.12754" lon="2.55621">
        <ele>202.98</ele>
        <time>2015-10-04T13:26:24Z</time>
      </trkpt>
      <trkpt lat="43.12795" lon="2.55744">
        <ele>202.49</ele>
        <time>2015-10-04T13:26:33Z</time>
      </trkpt>
      <trkpt lat="43.12801" lon="2.55753">
        <ele>202.49</ele>
        <time>2015-10-04T13:26:34Z</time>
      </trkpt>
      <trkpt lat="43.12807" lon="2.55759">
        <ele>202.49</ele>
        <time>2015-10-04T13:26:35Z</time>
      </trkpt>
      <trkpt lat="43.12831" lon="2.55781">
        <ele>202.98</ele>
        <time>2015-10-04T13:26:38Z</time>
      </trkpt>
      <trkpt lat="43.12877" lon="2.55824">
        <ele>202.98</ele>
        <time>2015-10-04T13:26:46Z</time>
      </trkpt>
      <trkpt lat="43.12895" lon="2.55839">
        <ele>202.01</ele>
        <time>2015-10-04T13:26:49Z</time>
      </trkpt>
      <trkpt lat="43.12902" lon="2.55842">
        <ele>202.01</ele>
        <time>2015-10-04T13:26:50Z</time>
      </trkpt>
      <trkpt lat="43.12909" lon="2.55845">
        <ele>201.53</ele>
        <time>2015-10-04T13:26:51Z</time>
      </trkpt>
      <trkpt lat="43.12924" lon="2.5585">
        <ele>201.53</ele>
        <time>2015-10-04T13:26:53Z</time>
      </trkpt>
      <trkpt lat="43.12931" lon="2.55856">
        <ele>201.53</ele>
        <time>2015-10-04T13:26:54Z</time>
      </trkpt>
      <trkpt lat="43.12938" lon="2.55863">
        <ele>201.53</ele>
        <time>2015-10-04T13:26:55Z</time>
      </trkpt>
      <trkpt lat="43.12991" lon="2.55911">
        <ele>200.57</ele>
        <time>2015-10-04T13:27:02Z</time>
      </trkpt>
      <trkpt lat="43.13069" lon="2.55998">
        <ele>197.69</ele>
        <time>2015-10-04T13:27:13Z</time>
      </trkpt>
      <trkpt lat="43.13139" lon="2.56098">
        <ele>195.28</ele>
        <time>2015-10-04T13:27:22Z</time>
      </trkpt>
      <trkpt lat="43.13149" lon="2.56106">
        <ele>195.28</ele>
        <time>2015-10-04T13:27:23Z</time>
      </trkpt>
      <trkpt lat="43.1316" lon="2.56112">
        <ele>195.28</ele>
        <time>2015-10-04T13:27:24Z</time>
      </trkpt>
      <trkpt lat="43.13211" lon="2.56134">
        <ele>196.25</ele>
        <time>2015-10-04T13:27:28Z</time>
      </trkpt>
      <trkpt lat="43.13224" lon="2.56144">
        <ele>196.73</ele>
        <time>2015-10-04T13:27:29Z</time>
      </trkpt>
      <trkpt lat="43.13237" lon="2.56156">
        <ele>196.73</ele>
        <time>2015-10-04T13:27:30Z</time>
      </trkpt>
      <trkpt lat="43.133" lon="2.56228">
        <ele>197.21</ele>
        <time>2015-10-04T13:27:35Z</time>
      </trkpt>
      <trkpt lat="43.13315" lon="2.56239">
        <ele>197.69</ele>
        <time>2015-10-04T13:27:36Z</time>
      </trkpt>
      <trkpt lat="43.13331" lon="2.56248">
        <ele>198.17</ele>
        <time>2015-10-04T13:27:37Z</time>
      </trkpt>
      <trkpt lat="43.13349" lon="2.56255">
        <ele>198.65</ele>
        <time>2015-10-04T13:27:38Z</time>
      </trkpt>
      <trkpt lat="43.13367" lon="2.56262">
        <ele>199.13</ele>
        <time>2015-10-04T13:27:39Z</time>
      </trkpt>
      <trkpt lat="43.13421" lon="2.56287">
        <ele>200.09</ele>
        <time>2015-10-04T13:27:42Z</time>
      </trkpt>
      <trkpt lat="43.13504" lon="2.56342">
        <ele>202.98</ele>
        <time>2015-10-04T13:27:47Z</time>
      </trkpt>
      <trkpt lat="43.13521" lon="2.56349">
        <ele>203.46</ele>
        <time>2015-10-04T13:27:48Z</time>
      </trkpt>
      <trkpt lat="43.1354" lon="2.56352">
        <ele>203.94</ele>
        <time>2015-10-04T13:27:49Z</time>
      </trkpt>
      <trkpt lat="43.1356" lon="2.56354">
        <ele>204.42</ele>
        <time>2015-10-04T13:27:50Z</time>
      </trkpt>
      <trkpt lat="43.13581" lon="2.56355">
        <ele>204.9</ele>
        <time>2015-10-04T13:27:51Z</time>
      </trkpt>
      <trkpt lat="43.13681" lon="2.56353">
        <ele>206.82</ele>
        <time>2015-10-04T13:27:56Z</time>
      </trkpt>
      <trkpt lat="43.13697" lon="2.56343">
        <ele>206.34</ele>
        <time>2015-10-04T13:27:57Z</time>
      </trkpt>
      <trkpt lat="43.13715" lon="2.56328">
        <ele>206.34</ele>
        <time>2015-10-04T13:27:58Z</time>
      </trkpt>
      <trkpt lat="43.13731" lon="2.56313">
        <ele>206.82</ele>
        <time>2015-10-04T13:27:59Z</time>
      </trkpt>
      <trkpt lat="43.13747" lon="2.56298">
        <ele>206.34</ele>
        <time>2015-10-04T13:28:00Z</time>
      </trkpt>
      <trkpt lat="43.13807" lon="2.5625">
        <ele>205.38</ele>
        <time>2015-10-04T13:28:04Z</time>
      </trkpt>
      <trkpt lat="43.13824" lon="2.56246">
        <ele>204.9</ele>
        <time>2015-10-04T13:28:05Z</time>
      </trkpt>
      <trkpt lat="43.13842" lon="2.56244">
        <ele>204.9</ele>
        <time>2015-10-04T13:28:06Z</time>
      </trkpt>
      <trkpt lat="43.13893" lon="2.56237">
        <ele>203.94</ele>
        <time>2015-10-04T13:28:09Z</time>
      </trkpt>
      <trkpt lat="43.13909" lon="2.5623">
        <ele>203.94</ele>
        <time>2015-10-04T13:28:10Z</time>
      </trkpt>
      <trkpt lat="43.13924" lon="2.56219">
        <ele>203.46</ele>
        <time>2015-10-04T13:28:11Z</time>
      </trkpt>
      <trkpt lat="43.13938" lon="2.56203">
        <ele>203.46</ele>
        <time>2015-10-04T13:28:12Z</time>
      </trkpt>
      <trkpt lat="43.13952" lon="2.56187">
        <ele>203.46</ele>
        <time>2015-10-04T13:28:13Z</time>
      </trkpt>
      <trkpt lat="43.14118" lon="2.55996">
        <ele>203.94</ele>
        <time>2015-10-04T13:28:23Z</time>
      </trkpt>
      <trkpt lat="43.1429" lon="2.55801">
        <ele>204.42</ele>
        <time>2015-10-04T13:28:32Z</time>
      </trkpt>
      <trkpt lat="43.14363" lon="2.55721">
        <ele>204.42</ele>
        <time>2015-10-04T13:28:37Z</time>
      </trkpt>
      <trkpt lat="43.14377" lon="2.55711">
        <ele>203.94</ele>
        <time>2015-10-04T13:28:38Z</time>
      </trkpt>
      <trkpt lat="43.14392" lon="2.55705">
        <ele>203.94</ele>
        <time>2015-10-04T13:28:39Z</time>
      </trkpt>
      <trkpt lat="43.14407" lon="2.55704">
        <ele>203.94</ele>
        <time>2015-10-04T13:28:40Z</time>
      </trkpt>
      <trkpt lat="43.14423" lon="2.55707">
        <ele>203.46</ele>
        <time>2015-10-04T13:28:41Z</time>
      </trkpt>
      <trkpt lat="43.14441" lon="2.55711">
        <ele>202.98</ele>
        <time>2015-10-04T13:28:42Z</time>
      </trkpt>
      <trkpt lat="43.14644" lon="2.55769">
        <ele>203.94</ele>
        <time>2015-10-04T13:28:52Z</time>
      </trkpt>
      <trkpt lat="43.14801" lon="2.55812">
        <ele>208.26</ele>
        <time>2015-10-04T13:29:01Z</time>
      </trkpt>
      <trkpt lat="43.14814" lon="2.5582">
        <ele>209.22</ele>
        <time>2015-10-04T13:29:02Z</time>
      </trkpt>
      <trkpt lat="43.14827" lon="2.5583">
        <ele>210.19</ele>
        <time>2015-10-04T13:29:03Z</time>
      </trkpt>
      <trkpt lat="43.14838" lon="2.55842">
        <ele>211.15</ele>
        <time>2015-10-04T13:29:04Z</time>
      </trkpt>
      <trkpt lat="43.14848" lon="2.55855">
        <ele>212.11</ele>
        <time>2015-10-04T13:29:05Z</time>
      </trkpt>
      <trkpt lat="43.14942" lon="2.55973">
        <ele>219.32</ele>
        <time>2015-10-04T13:29:14Z</time>
      </trkpt>
      <trkpt lat="43.14948" lon="2.55988">
        <ele>220.28</ele>
        <time>2015-10-04T13:29:15Z</time>
      </trkpt>
      <trkpt lat="43.14952" lon="2.56004">
        <ele>221.24</ele>
        <time>2015-10-04T13:29:16Z</time>
      </trkpt>
      <trkpt lat="43.14951" lon="2.56019">
        <ele>221.24</ele>
        <time>2015-10-04T13:29:17Z</time>
      </trkpt>
      <trkpt lat="43.1495" lon="2.56035">
        <ele>222.68</ele>
        <time>2015-10-04T13:29:18Z</time>
      </trkpt>
      <trkpt lat="43.14947" lon="2.5605">
        <ele>223.16</ele>
        <time>2015-10-04T13:29:19Z</time>
      </trkpt>
      <trkpt lat="43.14943" lon="2.56082">
        <ele>225.09</ele>
        <time>2015-10-04T13:29:21Z</time>
      </trkpt>
      <trkpt lat="43.14943" lon="2.56101">
        <ele>226.05</ele>
        <time>2015-10-04T13:29:22Z</time>
      </trkpt>
      <trkpt lat="43.14945" lon="2.56121">
        <ele>227.01</ele>
        <time>2015-10-04T13:29:23Z</time>
      </trkpt>
      <trkpt lat="43.14947" lon="2.56165">
        <ele>228.45</ele>
        <time>2015-10-04T13:29:25Z</time>
      </trkpt>
      <trkpt lat="43.14945" lon="2.56187">
        <ele>229.41</ele>
        <time>2015-10-04T13:29:26Z</time>
      </trkpt>
      <trkpt lat="43.14943" lon="2.56226">
        <ele>230.85</ele>
        <time>2015-10-04T13:29:28Z</time>
      </trkpt>
      <trkpt lat="43.14946" lon="2.56243">
        <ele>231.81</ele>
        <time>2015-10-04T13:29:29Z</time>
      </trkpt>
      <trkpt lat="43.14952" lon="2.56259">
        <ele>232.78</ele>
        <time>2015-10-04T13:29:30Z</time>
      </trkpt>
      <trkpt lat="43.1496" lon="2.56272">
        <ele>233.74</ele>
        <time>2015-10-04T13:29:31Z</time>
      </trkpt>
      <trkpt lat="43.1497" lon="2.56282">
        <ele>235.18</ele>
        <time>2015-10-04T13:29:32Z</time>
      </trkpt>
      <trkpt lat="43.14982" lon="2.5629">
        <ele>235.66</ele>
        <time>2015-10-04T13:29:33Z</time>
      </trkpt>
      <trkpt lat="43.14994" lon="2.56298">
        <ele>236.62</ele>
        <time>2015-10-04T13:29:34Z</time>
      </trkpt>
      <trkpt lat="43.15006" lon="2.5631">
        <ele>237.58</ele>
        <time>2015-10-04T13:29:35Z</time>
      </trkpt>
      <trkpt lat="43.15015" lon="2.56325">
        <ele>238.06</ele>
        <time>2015-10-04T13:29:36Z</time>
      </trkpt>
      <trkpt lat="43.15021" lon="2.56342">
        <ele>239.02</ele>
        <time>2015-10-04T13:29:37Z</time>
      </trkpt>
      <trkpt lat="43.15026" lon="2.56361">
        <ele>239.99</ele>
        <time>2015-10-04T13:29:38Z</time>
      </trkpt>
      <trkpt lat="43.1503" lon="2.56381">
        <ele>240.95</ele>
        <time>2015-10-04T13:29:39Z</time>
      </trkpt>
      <trkpt lat="43.15079" lon="2.56541">
        <ele>248.64</ele>
        <time>2015-10-04T13:29:46Z</time>
      </trkpt>
      <trkpt lat="43.15127" lon="2.56669">
        <ele>254.89</ele>
        <time>2015-10-04T13:29:52Z</time>
      </trkpt>
      <trkpt lat="43.15136" lon="2.56675">
        <ele>255.85</ele>
        <time>2015-10-04T13:29:53Z</time>
      </trkpt>
      <trkpt lat="43.15148" lon="2.56676">
        <ele>256.81</ele>
        <time>2015-10-04T13:29:54Z</time>
      </trkpt>
      <trkpt lat="43.15161" lon="2.56675">
        <ele>257.77</ele>
        <time>2015-10-04T13:29:55Z</time>
      </trkpt>
      <trkpt lat="43.15176" lon="2.56671">
        <ele>258.73</ele>
        <time>2015-10-04T13:29:56Z</time>
      </trkpt>
      <trkpt lat="43.15191" lon="2.56667">
        <ele>259.69</ele>
        <time>2015-10-04T13:29:57Z</time>
      </trkpt>
      <trkpt lat="43.15206" lon="2.56666">
        <ele>260.65</ele>
        <time>2015-10-04T13:29:58Z</time>
      </trkpt>
      <trkpt lat="43.1522" lon="2.56669">
        <ele>261.62</ele>
        <time>2015-10-04T13:29:59Z</time>
      </trkpt>
      <trkpt lat="43.15233" lon="2.56679">
        <ele>262.58</ele>
        <time>2015-10-04T13:30:00Z</time>
      </trkpt>
      <trkpt lat="43.15245" lon="2.56692">
        <ele>263.06</ele>
        <time>2015-10-04T13:30:01Z</time>
      </trkpt>
      <trkpt lat="43.15257" lon="2.56706">
        <ele>264.5</ele>
        <time>2015-10-04T13:30:02Z</time>
      </trkpt>
      <trkpt lat="43.15269" lon="2.56723">
        <ele>265.46</ele>
        <time>2015-10-04T13:30:03Z</time>
      </trkpt>
      <trkpt lat="43.1535" lon="2.56821">
        <ele>271.71</ele>
        <time>2015-10-04T13:30:09Z</time>
      </trkpt>
      <trkpt lat="43.15366" lon="2.56827">
        <ele>272.67</ele>
        <time>2015-10-04T13:30:10Z</time>
      </trkpt>
      <trkpt lat="43.15382" lon="2.5683">
        <ele>273.63</ele>
        <time>2015-10-04T13:30:11Z</time>
      </trkpt>
      <trkpt lat="43.15399" lon="2.5683">
        <ele>275.07</ele>
        <time>2015-10-04T13:30:12Z</time>
      </trkpt>
      <trkpt lat="43.15417" lon="2.56829">
        <ele>276.04</ele>
        <time>2015-10-04T13:30:13Z</time>
      </trkpt>
      <trkpt lat="43.15435" lon="2.56825">
        <ele>277</ele>
        <time>2015-10-04T13:30:14Z</time>
      </trkpt>
      <trkpt lat="43.15484" lon="2.56811">
        <ele>279.88</ele>
        <time>2015-10-04T13:30:17Z</time>
      </trkpt>
      <trkpt lat="43.15499" lon="2.56804">
        <ele>280.36</ele>
        <time>2015-10-04T13:30:18Z</time>
      </trkpt>
      <trkpt lat="43.15537" lon="2.56782">
        <ele>283.25</ele>
        <time>2015-10-04T13:30:21Z</time>
      </trkpt>
      <trkpt lat="43.1555" lon="2.56782">
        <ele>284.21</ele>
        <time>2015-10-04T13:30:22Z</time>
      </trkpt>
      <trkpt lat="43.15562" lon="2.5679">
        <ele>285.17</ele>
        <time>2015-10-04T13:30:23Z</time>
      </trkpt>
      <trkpt lat="43.15572" lon="2.56804">
        <ele>286.13</ele>
        <time>2015-10-04T13:30:24Z</time>
      </trkpt>
      <trkpt lat="43.15578" lon="2.56822">
        <ele>286.61</ele>
        <time>2015-10-04T13:30:25Z</time>
      </trkpt>
      <trkpt lat="43.15582" lon="2.56842">
        <ele>287.57</ele>
        <time>2015-10-04T13:30:26Z</time>
      </trkpt>
      <trkpt lat="43.15586" lon="2.56863">
        <ele>288.53</ele>
        <time>2015-10-04T13:30:27Z</time>
      </trkpt>
      <trkpt lat="43.15606" lon="2.57029">
        <ele>294.3</ele>
        <time>2015-10-04T13:30:35Z</time>
      </trkpt>
      <trkpt lat="43.15607" lon="2.57045">
        <ele>294.78</ele>
        <time>2015-10-04T13:30:36Z</time>
      </trkpt>
      <trkpt lat="43.15609" lon="2.57059">
        <ele>295.26</ele>
        <time>2015-10-04T13:30:37Z</time>
      </trkpt>
      <trkpt lat="43.15616" lon="2.57067">
        <ele>296.22</ele>
        <time>2015-10-04T13:30:38Z</time>
      </trkpt>
      <trkpt lat="43.15626" lon="2.57071">
        <ele>296.7</ele>
        <time>2015-10-04T13:30:39Z</time>
      </trkpt>
      <trkpt lat="43.15636" lon="2.57069">
        <ele>296.7</ele>
        <time>2015-10-04T13:30:40Z</time>
      </trkpt>
      <trkpt lat="43.15645" lon="2.57062">
        <ele>296.22</ele>
        <time>2015-10-04T13:30:41Z</time>
      </trkpt>
      <trkpt lat="43.15651" lon="2.57049">
        <ele>296.22</ele>
        <time>2015-10-04T13:30:42Z</time>
      </trkpt>
      <trkpt lat="43.15653" lon="2.57032">
        <ele>296.7</ele>
        <time>2015-10-04T13:30:43Z</time>
      </trkpt>
      <trkpt lat="43.15653" lon="2.57015">
        <ele>297.18</ele>
        <time>2015-10-04T13:30:44Z</time>
      </trkpt>
      <trkpt lat="43.15651" lon="2.56996">
        <ele>297.67</ele>
        <time>2015-10-04T13:30:45Z</time>
      </trkpt>
      <trkpt lat="43.15651" lon="2.56976">
        <ele>298.15</ele>
        <time>2015-10-04T13:30:46Z</time>
      </trkpt>
      <trkpt lat="43.15653" lon="2.56955">
        <ele>299.11</ele>
        <time>2015-10-04T13:30:47Z</time>
      </trkpt>
      <trkpt lat="43.15657" lon="2.56933">
        <ele>300.07</ele>
        <time>2015-10-04T13:30:48Z</time>
      </trkpt>
      <trkpt lat="43.15664" lon="2.56887">
        <ele>301.51</ele>
        <time>2015-10-04T13:30:50Z</time>
      </trkpt>
      <trkpt lat="43.15666" lon="2.56863">
        <ele>301.99</ele>
        <time>2015-10-04T13:30:51Z</time>
      </trkpt>
      <trkpt lat="43.15668" lon="2.56788">
        <ele>304.39</ele>
        <time>2015-10-04T13:30:54Z</time>
      </trkpt>
      <trkpt lat="43.15674" lon="2.56767">
        <ele>305.36</ele>
        <time>2015-10-04T13:30:55Z</time>
      </trkpt>
      <trkpt lat="43.15682" lon="2.56748">
        <ele>305.84</ele>
        <time>2015-10-04T13:30:56Z</time>
      </trkpt>
      <trkpt lat="43.15691" lon="2.56733">
        <ele>306.32</ele>
        <time>2015-10-04T13:30:57Z</time>
      </trkpt>
      <trkpt lat="43.15701" lon="2.56724">
        <ele>307.28</ele>
        <time>2015-10-04T13:30:58Z</time>
      </trkpt>
      <trkpt lat="43.15712" lon="2.56718">
        <ele>307.76</ele>
        <time>2015-10-04T13:30:59Z</time>
      </trkpt>
      <trkpt lat="43.15723" lon="2.56711">
        <ele>308.72</ele>
        <time>2015-10-04T13:31:00Z</time>
      </trkpt>
      <trkpt lat="43.15731" lon="2.56701">
        <ele>309.2</ele>
        <time>2015-10-04T13:31:01Z</time>
      </trkpt>
      <trkpt lat="43.15734" lon="2.56687">
        <ele>309.68</ele>
        <time>2015-10-04T13:31:02Z</time>
      </trkpt>
      <trkpt lat="43.15735" lon="2.56671">
        <ele>310.16</ele>
        <time>2015-10-04T13:31:03Z</time>
      </trkpt>
      <trkpt lat="43.15732" lon="2.56654">
        <ele>310.64</ele>
        <time>2015-10-04T13:31:04Z</time>
      </trkpt>
      <trkpt lat="43.15731" lon="2.56636">
        <ele>311.12</ele>
        <time>2015-10-04T13:31:05Z</time>
      </trkpt>
      <trkpt lat="43.15733" lon="2.56618">
        <ele>311.6</ele>
        <time>2015-10-04T13:31:06Z</time>
      </trkpt>
      <trkpt lat="43.15737" lon="2.56599">
        <ele>312.57</ele>
        <time>2015-10-04T13:31:07Z</time>
      </trkpt>
      <trkpt lat="43.15744" lon="2.56581">
        <ele>313.53</ele>
        <time>2015-10-04T13:31:08Z</time>
      </trkpt>
      <trkpt lat="43.15754" lon="2.56565">
        <ele>314.49</ele>
        <time>2015-10-04T13:31:09Z</time>
      </trkpt>
      <trkpt lat="43.15766" lon="2.56551">
        <ele>314.97</ele>
        <time>2015-10-04T13:31:10Z</time>
      </trkpt>
      <trkpt lat="43.15779" lon="2.56538">
        <ele>315.93</ele>
        <time>2015-10-04T13:31:11Z</time>
      </trkpt>
      <trkpt lat="43.15838" lon="2.56465">
        <ele>315.93</ele>
        <time>2015-10-04T13:31:16Z</time>
      </trkpt>
      <trkpt lat="43.15848" lon="2.56447">
        <ele>314.97</ele>
        <time>2015-10-04T13:31:17Z</time>
      </trkpt>
      <trkpt lat="43.15858" lon="2.56427">
        <ele>314.01</ele>
        <time>2015-10-04T13:31:18Z</time>
      </trkpt>
      <trkpt lat="43.15936" lon="2.56234">
        <ele>301.51</ele>
        <time>2015-10-04T13:31:27Z</time>
      </trkpt>
      <trkpt lat="43.15949" lon="2.56207">
        <ele>299.11</ele>
        <time>2015-10-04T13:31:29Z</time>
      </trkpt>
      <trkpt lat="43.15956" lon="2.56202">
        <ele>297.67</ele>
        <time>2015-10-04T13:31:30Z</time>
      </trkpt>
      <trkpt lat="43.15965" lon="2.56203">
        <ele>296.7</ele>
        <time>2015-10-04T13:31:31Z</time>
      </trkpt>
      <trkpt lat="43.15973" lon="2.56209">
        <ele>295.74</ele>
        <time>2015-10-04T13:31:32Z</time>
      </trkpt>
      <trkpt lat="43.15979" lon="2.56219">
        <ele>294.78</ele>
        <time>2015-10-04T13:31:33Z</time>
      </trkpt>
      <trkpt lat="43.15984" lon="2.5623">
        <ele>293.82</ele>
        <time>2015-10-04T13:31:34Z</time>
      </trkpt>
      <trkpt lat="43.15991" lon="2.56239">
        <ele>292.86</ele>
        <time>2015-10-04T13:31:35Z</time>
      </trkpt>
      <trkpt lat="43.15999" lon="2.56245">
        <ele>291.9</ele>
        <time>2015-10-04T13:31:36Z</time>
      </trkpt>
      <trkpt lat="43.16009" lon="2.56244">
        <ele>290.94</ele>
        <time>2015-10-04T13:31:37Z</time>
      </trkpt>
      <trkpt lat="43.1602" lon="2.56241">
        <ele>289.49</ele>
        <time>2015-10-04T13:31:38Z</time>
      </trkpt>
      <trkpt lat="43.16031" lon="2.56233">
        <ele>289.01</ele>
        <time>2015-10-04T13:31:39Z</time>
      </trkpt>
      <trkpt lat="43.16042" lon="2.56224">
        <ele>288.05</ele>
        <time>2015-10-04T13:31:40Z</time>
      </trkpt>
      <trkpt lat="43.16055" lon="2.56216">
        <ele>287.09</ele>
        <time>2015-10-04T13:31:41Z</time>
      </trkpt>
      <trkpt lat="43.16068" lon="2.56211">
        <ele>286.61</ele>
        <time>2015-10-04T13:31:42Z</time>
      </trkpt>
      <trkpt lat="43.16084" lon="2.56209">
        <ele>285.65</ele>
        <time>2015-10-04T13:31:43Z</time>
      </trkpt>
      <trkpt lat="43.16199" lon="2.56185">
        <ele>276.04</ele>
        <time>2015-10-04T13:31:51Z</time>
      </trkpt>
      <trkpt lat="43.16218" lon="2.56176">
        <ele>274.11</ele>
        <time>2015-10-04T13:31:53Z</time>
      </trkpt>
      <trkpt lat="43.1622" lon="2.5617">
        <ele>273.15</ele>
        <time>2015-10-04T13:31:54Z</time>
      </trkpt>
      <trkpt lat="43.16219" lon="2.5616">
        <ele>272.19</ele>
        <time>2015-10-04T13:31:55Z</time>
      </trkpt>
      <trkpt lat="43.16214" lon="2.56152">
        <ele>270.75</ele>
        <time>2015-10-04T13:31:56Z</time>
      </trkpt>
      <trkpt lat="43.16205" lon="2.56149">
        <ele>269.79</ele>
        <time>2015-10-04T13:31:57Z</time>
      </trkpt>
      <trkpt lat="43.16197" lon="2.56149">
        <ele>269.31</ele>
        <time>2015-10-04T13:31:58Z</time>
      </trkpt>
      <trkpt lat="43.16188" lon="2.56152">
        <ele>268.35</ele>
        <time>2015-10-04T13:31:59Z</time>
      </trkpt>
      <trkpt lat="43.1618" lon="2.56154">
        <ele>267.86</ele>
        <time>2015-10-04T13:32:00Z</time>
      </trkpt>
      <trkpt lat="43.16171" lon="2.56153">
        <ele>266.9</ele>
        <time>2015-10-04T13:32:01Z</time>
      </trkpt>
      <trkpt lat="43.16163" lon="2.56145">
        <ele>265.94</ele>
        <time>2015-10-04T13:32:02Z</time>
      </trkpt>
      <trkpt lat="43.16158" lon="2.56134">
        <ele>264.98</ele>
        <time>2015-10-04T13:32:03Z</time>
      </trkpt>
      <trkpt lat="43.16157" lon="2.56121">
        <ele>264.5</ele>
        <time>2015-10-04T13:32:04Z</time>
      </trkpt>
      <trkpt lat="43.16159" lon="2.56108">
        <ele>263.54</ele>
        <time>2015-10-04T13:32:05Z</time>
      </trkpt>
      <trkpt lat="43.16164" lon="2.56096">
        <ele>262.58</ele>
        <time>2015-10-04T13:32:06Z</time>
      </trkpt>
      <trkpt lat="43.16173" lon="2.56087">
        <ele>262.1</ele>
        <time>2015-10-04T13:32:07Z</time>
      </trkpt>
      <trkpt lat="43.16183" lon="2.5608">
        <ele>260.65</ele>
        <time>2015-10-04T13:32:08Z</time>
      </trkpt>
      <trkpt lat="43.16196" lon="2.56074">
        <ele>260.17</ele>
        <time>2015-10-04T13:32:09Z</time>
      </trkpt>
      <trkpt lat="43.16271" lon="2.56018">
        <ele>254.41</ele>
        <time>2015-10-04T13:32:15Z</time>
      </trkpt>
      <trkpt lat="43.16285" lon="2.56011">
        <ele>253.44</ele>
        <time>2015-10-04T13:32:16Z</time>
      </trkpt>
      <trkpt lat="43.163" lon="2.56009">
        <ele>252.48</ele>
        <time>2015-10-04T13:32:17Z</time>
      </trkpt>
      <trkpt lat="43.16314" lon="2.5601">
        <ele>251.52</ele>
        <time>2015-10-04T13:32:18Z</time>
      </trkpt>
      <trkpt lat="43.16328" lon="2.56011">
        <ele>251.04</ele>
        <time>2015-10-04T13:32:19Z</time>
      </trkpt>
      <trkpt lat="43.16341" lon="2.5601">
        <ele>250.08</ele>
        <time>2015-10-04T13:32:20Z</time>
      </trkpt>
      <trkpt lat="43.16353" lon="2.56005">
        <ele>249.12</ele>
        <time>2015-10-04T13:32:21Z</time>
      </trkpt>
      <trkpt lat="43.16364" lon="2.55995">
        <ele>248.16</ele>
        <time>2015-10-04T13:32:22Z</time>
      </trkpt>
      <trkpt lat="43.16375" lon="2.55984">
        <ele>247.2</ele>
        <time>2015-10-04T13:32:23Z</time>
      </trkpt>
      <trkpt lat="43.16385" lon="2.55971">
        <ele>246.23</ele>
        <time>2015-10-04T13:32:24Z</time>
      </trkpt>
      <trkpt lat="43.1641" lon="2.5595">
        <ele>244.79</ele>
        <time>2015-10-04T13:32:26Z</time>
      </trkpt>
      <trkpt lat="43.16424" lon="2.55942">
        <ele>243.83</ele>
        <time>2015-10-04T13:32:27Z</time>
      </trkpt>
      <trkpt lat="43.16438" lon="2.55938">
        <ele>242.87</ele>
        <time>2015-10-04T13:32:28Z</time>
      </trkpt>
      <trkpt lat="43.16467" lon="2.55929">
        <ele>240.95</ele>
        <time>2015-10-04T13:32:30Z</time>
      </trkpt>
      <trkpt lat="43.16491" lon="2.55919">
        <ele>239.02</ele>
        <time>2015-10-04T13:32:32Z</time>
      </trkpt>
      <trkpt lat="43.16503" lon="2.55922">
        <ele>238.06</ele>
        <time>2015-10-04T13:32:33Z</time>
      </trkpt>
      <trkpt lat="43.16513" lon="2.55932">
        <ele>236.62</ele>
        <time>2015-10-04T13:32:34Z</time>
      </trkpt>
      <trkpt lat="43.16523" lon="2.55945">
        <ele>235.66</ele>
        <time>2015-10-04T13:32:35Z</time>
      </trkpt>
      <trkpt lat="43.16534" lon="2.55959">
        <ele>234.7</ele>
        <time>2015-10-04T13:32:36Z</time>
      </trkpt>
      <trkpt lat="43.1658" lon="2.56016">
        <ele>230.37</ele>
        <time>2015-10-04T13:32:40Z</time>
      </trkpt>
      <trkpt lat="43.16593" lon="2.56026">
        <ele>229.89</ele>
        <time>2015-10-04T13:32:41Z</time>
      </trkpt>
      <trkpt lat="43.16608" lon="2.56034">
        <ele>228.93</ele>
        <time>2015-10-04T13:32:42Z</time>
      </trkpt>
      <trkpt lat="43.16622" lon="2.56042">
        <ele>227.97</ele>
        <time>2015-10-04T13:32:43Z</time>
      </trkpt>
      <trkpt lat="43.16636" lon="2.56053">
        <ele>227.01</ele>
        <time>2015-10-04T13:32:44Z</time>
      </trkpt>
      <trkpt lat="43.16649" lon="2.56065">
        <ele>226.05</ele>
        <time>2015-10-04T13:32:45Z</time>
      </trkpt>
      <trkpt lat="43.16661" lon="2.56077">
        <ele>224.61</ele>
        <time>2015-10-04T13:32:46Z</time>
      </trkpt>
      <trkpt lat="43.16686" lon="2.56097">
        <ele>223.16</ele>
        <time>2015-10-04T13:32:48Z</time>
      </trkpt>
      <trkpt lat="43.167" lon="2.56103">
        <ele>222.2</ele>
        <time>2015-10-04T13:32:49Z</time>
      </trkpt>
      <trkpt lat="43.16715" lon="2.56106">
        <ele>221.24</ele>
        <time>2015-10-04T13:32:50Z</time>
      </trkpt>
      <trkpt lat="43.16761" lon="2.5612">
        <ele>217.88</ele>
        <time>2015-10-04T13:32:53Z</time>
      </trkpt>
      <trkpt lat="43.16802" lon="2.5614">
        <ele>214.99</ele>
        <time>2015-10-04T13:32:56Z</time>
      </trkpt>
      <trkpt lat="43.16815" lon="2.56139">
        <ele>214.51</ele>
        <time>2015-10-04T13:32:57Z</time>
      </trkpt>
      <trkpt lat="43.16828" lon="2.56133">
        <ele>213.07</ele>
        <time>2015-10-04T13:32:58Z</time>
      </trkpt>
      <trkpt lat="43.1684" lon="2.56123">
        <ele>212.11</ele>
        <time>2015-10-04T13:32:59Z</time>
      </trkpt>
      <trkpt lat="43.16849" lon="2.5611">
        <ele>211.63</ele>
        <time>2015-10-04T13:33:00Z</time>
      </trkpt>
      <trkpt lat="43.16854" lon="2.56094">
        <ele>211.15</ele>
        <time>2015-10-04T13:33:01Z</time>
      </trkpt>
      <trkpt lat="43.16857" lon="2.5608">
        <ele>209.22</ele>
        <time>2015-10-04T13:33:02Z</time>
      </trkpt>
      <trkpt lat="43.16856" lon="2.56062">
        <ele>207.78</ele>
        <time>2015-10-04T13:33:03Z</time>
      </trkpt>
      <trkpt lat="43.16854" lon="2.56042">
        <ele>206.82</ele>
        <time>2015-10-04T13:33:04Z</time>
      </trkpt>
      <trkpt lat="43.16849" lon="2.56022">
        <ele>204.9</ele>
        <time>2015-10-04T13:33:05Z</time>
      </trkpt>
      <trkpt lat="43.16844" lon="2.56005">
        <ele>203.46</ele>
        <time>2015-10-04T13:33:06Z</time>
      </trkpt>
      <trkpt lat="43.16837" lon="2.5599">
        <ele>202.98</ele>
        <time>2015-10-04T13:33:07Z</time>
      </trkpt>
      <trkpt lat="43.16832" lon="2.55976">
        <ele>201.53</ele>
        <time>2015-10-04T13:33:08Z</time>
      </trkpt>
      <trkpt lat="43.16829" lon="2.55963">
        <ele>200.57</ele>
        <time>2015-10-04T13:33:09Z</time>
      </trkpt>
      <trkpt lat="43.16829" lon="2.5595">
        <ele>199.61</ele>
        <time>2015-10-04T13:33:10Z</time>
      </trkpt>
      <trkpt lat="43.16834" lon="2.55938">
        <ele>199.13</ele>
        <time>2015-10-04T13:33:11Z</time>
      </trkpt>
      <trkpt lat="43.16842" lon="2.55928">
        <ele>199.13</ele>
        <time>2015-10-04T13:33:12Z</time>
      </trkpt>
      <trkpt lat="43.16851" lon="2.55918">
        <ele>198.17</ele>
        <time>2015-10-04T13:33:13Z</time>
      </trkpt>
      <trkpt lat="43.16861" lon="2.55906">
        <ele>197.21</ele>
        <time>2015-10-04T13:33:14Z</time>
      </trkpt>
      <trkpt lat="43.16869" lon="2.55892">
        <ele>196.73</ele>
        <time>2015-10-04T13:33:15Z</time>
      </trkpt>
      <trkpt lat="43.16876" lon="2.55875">
        <ele>195.77</ele>
        <time>2015-10-04T13:33:16Z</time>
      </trkpt>
      <trkpt lat="43.16881" lon="2.55856">
        <ele>194.8</ele>
        <time>2015-10-04T13:33:17Z</time>
      </trkpt>
      <trkpt lat="43.16884" lon="2.55838">
        <ele>193.84</ele>
        <time>2015-10-04T13:33:18Z</time>
      </trkpt>
      <trkpt lat="43.16886" lon="2.5582">
        <ele>192.4</ele>
        <time>2015-10-04T13:33:19Z</time>
      </trkpt>
      <trkpt lat="43.16886" lon="2.55802">
        <ele>190.96</ele>
        <time>2015-10-04T13:33:20Z</time>
      </trkpt>
      <trkpt lat="43.16885" lon="2.55785">
        <ele>189.52</ele>
        <time>2015-10-04T13:33:21Z</time>
      </trkpt>
      <trkpt lat="43.16881" lon="2.5577">
        <ele>188.08</ele>
        <time>2015-10-04T13:33:22Z</time>
      </trkpt>
      <trkpt lat="43.16875" lon="2.55756">
        <ele>187.11</ele>
        <time>2015-10-04T13:33:23Z</time>
      </trkpt>
      <trkpt lat="43.16869" lon="2.55744">
        <ele>186.15</ele>
        <time>2015-10-04T13:33:24Z</time>
      </trkpt>
      <trkpt lat="43.16864" lon="2.55733">
        <ele>185.19</ele>
        <time>2015-10-04T13:33:25Z</time>
      </trkpt>
      <trkpt lat="43.16861" lon="2.55721">
        <ele>184.71</ele>
        <time>2015-10-04T13:33:26Z</time>
      </trkpt>
      <trkpt lat="43.1686" lon="2.5571">
        <ele>183.75</ele>
        <time>2015-10-04T13:33:27Z</time>
      </trkpt>
      <trkpt lat="43.16862" lon="2.55699">
        <ele>183.27</ele>
        <time>2015-10-04T13:33:28Z</time>
      </trkpt>
      <trkpt lat="43.16867" lon="2.55687">
        <ele>182.79</ele>
        <time>2015-10-04T13:33:29Z</time>
      </trkpt>
      <trkpt lat="43.16876" lon="2.55677">
        <ele>181.83</ele>
        <time>2015-10-04T13:33:30Z</time>
      </trkpt>
      <trkpt lat="43.16885" lon="2.55667">
        <ele>181.35</ele>
        <time>2015-10-04T13:33:31Z</time>
      </trkpt>
      <trkpt lat="43.16903" lon="2.55645">
        <ele>179.9</ele>
        <time>2015-10-04T13:33:33Z</time>
      </trkpt>
      <trkpt lat="43.1691" lon="2.55631">
        <ele>178.94</ele>
        <time>2015-10-04T13:33:34Z</time>
      </trkpt>
      <trkpt lat="43.16915" lon="2.55616">
        <ele>177.98</ele>
        <time>2015-10-04T13:33:35Z</time>
      </trkpt>
      <trkpt lat="43.16918" lon="2.55599">
        <ele>177.02</ele>
        <time>2015-10-04T13:33:36Z</time>
      </trkpt>
      <trkpt lat="43.16921" lon="2.55583">
        <ele>176.54</ele>
        <time>2015-10-04T13:33:37Z</time>
      </trkpt>
      <trkpt lat="43.16934" lon="2.55524">
        <ele>174.62</ele>
        <time>2015-10-04T13:33:41Z</time>
      </trkpt>
      <trkpt lat="43.16939" lon="2.55513">
        <ele>174.14</ele>
        <time>2015-10-04T13:33:42Z</time>
      </trkpt>
      <trkpt lat="43.16946" lon="2.55505">
        <ele>173.66</ele>
        <time>2015-10-04T13:33:43Z</time>
      </trkpt>
      <trkpt lat="43.16956" lon="2.55502">
        <ele>172.69</ele>
        <time>2015-10-04T13:33:44Z</time>
      </trkpt>
      <trkpt lat="43.16967" lon="2.55504">
        <ele>172.21</ele>
        <time>2015-10-04T13:33:45Z</time>
      </trkpt>
      <trkpt lat="43.16978" lon="2.55512">
        <ele>171.25</ele>
        <time>2015-10-04T13:33:46Z</time>
      </trkpt>
      <trkpt lat="43.16987" lon="2.55524">
        <ele>170.29</ele>
        <time>2015-10-04T13:33:47Z</time>
      </trkpt>
      <trkpt lat="43.16993" lon="2.55538">
        <ele>169.81</ele>
        <time>2015-10-04T13:33:48Z</time>
      </trkpt>
      <trkpt lat="43.16995" lon="2.55554">
        <ele>169.33</ele>
        <time>2015-10-04T13:33:49Z</time>
      </trkpt>
      <trkpt lat="43.16992" lon="2.55569">
        <ele>168.85</ele>
        <time>2015-10-04T13:33:50Z</time>
      </trkpt>
      <trkpt lat="43.16986" lon="2.55582">
        <ele>168.37</ele>
        <time>2015-10-04T13:33:51Z</time>
      </trkpt>
      <trkpt lat="43.16978" lon="2.55594">
        <ele>167.89</ele>
        <time>2015-10-04T13:33:52Z</time>
      </trkpt>
      <trkpt lat="43.1697" lon="2.55607">
        <ele>167.41</ele>
        <time>2015-10-04T13:33:53Z</time>
      </trkpt>
      <trkpt lat="43.16964" lon="2.55621">
        <ele>166.93</ele>
        <time>2015-10-04T13:33:54Z</time>
      </trkpt>
      <trkpt lat="43.1696" lon="2.55637">
        <ele>165.96</ele>
        <time>2015-10-04T13:33:55Z</time>
      </trkpt>
      <trkpt lat="43.1696" lon="2.55655">
        <ele>165.48</ele>
        <time>2015-10-04T13:33:56Z</time>
      </trkpt>
      <trkpt lat="43.16962" lon="2.55674">
        <ele>164.52</ele>
        <time>2015-10-04T13:33:57Z</time>
      </trkpt>
      <trkpt lat="43.16964" lon="2.55693">
        <ele>163.56</ele>
        <time>2015-10-04T13:33:58Z</time>
      </trkpt>
      <trkpt lat="43.1698" lon="2.55777">
        <ele>159.72</ele>
        <time>2015-10-04T13:34:02Z</time>
      </trkpt>
      <trkpt lat="43.16987" lon="2.55798">
        <ele>158.75</ele>
        <time>2015-10-04T13:34:03Z</time>
      </trkpt>
      <trkpt lat="43.17039" lon="2.5594">
        <ele>151.06</ele>
        <time>2015-10-04T13:34:11Z</time>
      </trkpt>
      <trkpt lat="43.17048" lon="2.55947">
        <ele>150.58</ele>
        <time>2015-10-04T13:34:12Z</time>
      </trkpt>
      <trkpt lat="43.17059" lon="2.55948">
        <ele>149.62</ele>
        <time>2015-10-04T13:34:13Z</time>
      </trkpt>
      <trkpt lat="43.17071" lon="2.55945">
        <ele>149.14</ele>
        <time>2015-10-04T13:34:14Z</time>
      </trkpt>
      <trkpt lat="43.17085" lon="2.55941">
        <ele>148.66</ele>
        <time>2015-10-04T13:34:15Z</time>
      </trkpt>
      <trkpt lat="43.17099" lon="2.55937">
        <ele>148.18</ele>
        <time>2015-10-04T13:34:16Z</time>
      </trkpt>
      <trkpt lat="43.17113" lon="2.55937">
        <ele>147.7</ele>
        <time>2015-10-04T13:34:17Z</time>
      </trkpt>
      <trkpt lat="43.17126" lon="2.55938">
        <ele>147.22</ele>
        <time>2015-10-04T13:34:18Z</time>
      </trkpt>
      <trkpt lat="43.17136" lon="2.55942">
        <ele>146.74</ele>
        <time>2015-10-04T13:34:19Z</time>
      </trkpt>
      <trkpt lat="43.17143" lon="2.55952">
        <ele>145.78</ele>
        <time>2015-10-04T13:34:20Z</time>
      </trkpt>
      <trkpt lat="43.17147" lon="2.55965">
        <ele>145.3</ele>
        <time>2015-10-04T13:34:21Z</time>
      </trkpt>
      <trkpt lat="43.17149" lon="2.5598">
        <ele>144.82</ele>
        <time>2015-10-04T13:34:22Z</time>
      </trkpt>
      <trkpt lat="43.17149" lon="2.55998">
        <ele>143.85</ele>
        <time>2015-10-04T13:34:23Z</time>
      </trkpt>
      <trkpt lat="43.17151" lon="2.56017">
        <ele>143.37</ele>
        <time>2015-10-04T13:34:24Z</time>
      </trkpt>
      <trkpt lat="43.17155" lon="2.56037">
        <ele>142.41</ele>
        <time>2015-10-04T13:34:25Z</time>
      </trkpt>
      <trkpt lat="43.17161" lon="2.56055">
        <ele>141.45</ele>
        <time>2015-10-04T13:34:26Z</time>
      </trkpt>
      <trkpt lat="43.17167" lon="2.56073">
        <ele>140.49</ele>
        <time>2015-10-04T13:34:27Z</time>
      </trkpt>
      <trkpt lat="43.17174" lon="2.56089">
        <ele>139.53</ele>
        <time>2015-10-04T13:34:28Z</time>
      </trkpt>
      <trkpt lat="43.17181" lon="2.56103">
        <ele>138.57</ele>
        <time>2015-10-04T13:34:29Z</time>
      </trkpt>
      <trkpt lat="43.17191" lon="2.56115">
        <ele>138.09</ele>
        <time>2015-10-04T13:34:30Z</time>
      </trkpt>
      <trkpt lat="43.17203" lon="2.56125">
        <ele>137.61</ele>
        <time>2015-10-04T13:34:31Z</time>
      </trkpt>
      <trkpt lat="43.17215" lon="2.56131">
        <ele>136.64</ele>
        <time>2015-10-04T13:34:32Z</time>
      </trkpt>
      <trkpt lat="43.17228" lon="2.56134">
        <ele>136.16</ele>
        <time>2015-10-04T13:34:33Z</time>
      </trkpt>
      <trkpt lat="43.1724" lon="2.56132">
        <ele>135.2</ele>
        <time>2015-10-04T13:34:34Z</time>
      </trkpt>
      <trkpt lat="43.17252" lon="2.5613">
        <ele>134.24</ele>
        <time>2015-10-04T13:34:35Z</time>
      </trkpt>
      <trkpt lat="43.17263" lon="2.56131">
        <ele>133.28</ele>
        <time>2015-10-04T13:34:36Z</time>
      </trkpt>
      <trkpt lat="43.17271" lon="2.56139">
        <ele>132.32</ele>
        <time>2015-10-04T13:34:37Z</time>
      </trkpt>
      <trkpt lat="43.17275" lon="2.56151">
        <ele>131.36</ele>
        <time>2015-10-04T13:34:38Z</time>
      </trkpt>
      <trkpt lat="43.17277" lon="2.56166">
        <ele>130.88</ele>
        <time>2015-10-04T13:34:39Z</time>
      </trkpt>
      <trkpt lat="43.17275" lon="2.56182">
        <ele>130.4</ele>
        <time>2015-10-04T13:34:40Z</time>
      </trkpt>
      <trkpt lat="43.1727" lon="2.56196">
        <ele>129.43</ele>
        <time>2015-10-04T13:34:41Z</time>
      </trkpt>
      <trkpt lat="43.17265" lon="2.5621">
        <ele>128.47</ele>
        <time>2015-10-04T13:34:42Z</time>
      </trkpt>
      <trkpt lat="43.1726" lon="2.56223">
        <ele>127.99</ele>
        <time>2015-10-04T13:34:43Z</time>
      </trkpt>
      <trkpt lat="43.17256" lon="2.56236">
        <ele>127.03</ele>
        <time>2015-10-04T13:34:44Z</time>
      </trkpt>
      <trkpt lat="43.17254" lon="2.5625">
        <ele>126.55</ele>
        <time>2015-10-04T13:34:45Z</time>
      </trkpt>
      <trkpt lat="43.17255" lon="2.56265">
        <ele>125.59</ele>
        <time>2015-10-04T13:34:46Z</time>
      </trkpt>
      <trkpt lat="43.17257" lon="2.56281">
        <ele>124.63</ele>
        <time>2015-10-04T13:34:47Z</time>
      </trkpt>
      <trkpt lat="43.1726" lon="2.56296">
        <ele>124.15</ele>
        <time>2015-10-04T13:34:48Z</time>
      </trkpt>
      <trkpt lat="43.17264" lon="2.56309">
        <ele>123.19</ele>
        <time>2015-10-04T13:34:49Z</time>
      </trkpt>
      <trkpt lat="43.17271" lon="2.5632">
        <ele>122.22</ele>
        <time>2015-10-04T13:34:50Z</time>
      </trkpt>
      <trkpt lat="43.17282" lon="2.56326">
        <ele>121.74</ele>
        <time>2015-10-04T13:34:51Z</time>
      </trkpt>
      <trkpt lat="43.17294" lon="2.56327">
        <ele>120.78</ele>
        <time>2015-10-04T13:34:52Z</time>
      </trkpt>
      <trkpt lat="43.17305" lon="2.56323">
        <ele>120.3</ele>
        <time>2015-10-04T13:34:53Z</time>
      </trkpt>
      <trkpt lat="43.17317" lon="2.56318">
        <ele>119.82</ele>
        <time>2015-10-04T13:34:54Z</time>
      </trkpt>
      <trkpt lat="43.1733" lon="2.56312">
        <ele>119.34</ele>
        <time>2015-10-04T13:34:55Z</time>
      </trkpt>
      <trkpt lat="43.17423" lon="2.56274">
        <ele>118.38</ele>
        <time>2015-10-04T13:35:04Z</time>
      </trkpt>
      <trkpt lat="43.17428" lon="2.56269">
        <ele>118.38</ele>
        <time>2015-10-04T13:35:05Z</time>
      </trkpt>
      <trkpt lat="43.17433" lon="2.56262">
        <ele>118.86</ele>
        <time>2015-10-04T13:35:06Z</time>
      </trkpt>
      <trkpt lat="43.17437" lon="2.56253">
        <ele>118.86</ele>
        <time>2015-10-04T13:35:07Z</time>
      </trkpt>
      <trkpt lat="43.17441" lon="2.56242">
        <ele>118.86</ele>
        <time>2015-10-04T13:35:08Z</time>
      </trkpt>
      <trkpt lat="43.17446" lon="2.56229">
        <ele>118.86</ele>
        <time>2015-10-04T13:35:09Z</time>
      </trkpt>
      <trkpt lat="43.1751" lon="2.56034">
        <ele>121.26</ele>
        <time>2015-10-04T13:35:22Z</time>
      </trkpt>
      <trkpt lat="43.17516" lon="2.55999">
        <ele>121.26</ele>
        <time>2015-10-04T13:35:24Z</time>
      </trkpt>
      <trkpt lat="43.17521" lon="2.55984">
        <ele>121.26</ele>
        <time>2015-10-04T13:35:25Z</time>
      </trkpt>
      <trkpt lat="43.17528" lon="2.5597">
        <ele>121.26</ele>
        <time>2015-10-04T13:35:26Z</time>
      </trkpt>
      <trkpt lat="43.17537" lon="2.55957">
        <ele>120.78</ele>
        <time>2015-10-04T13:35:27Z</time>
      </trkpt>
      <trkpt lat="43.17547" lon="2.55946">
        <ele>120.3</ele>
        <time>2015-10-04T13:35:28Z</time>
      </trkpt>
      <trkpt lat="43.17558" lon="2.55934">
        <ele>119.82</ele>
        <time>2015-10-04T13:35:29Z</time>
      </trkpt>
      <trkpt lat="43.17568" lon="2.55921">
        <ele>119.34</ele>
        <time>2015-10-04T13:35:30Z</time>
      </trkpt>
      <trkpt lat="43.17577" lon="2.55904">
        <ele>118.86</ele>
        <time>2015-10-04T13:35:31Z</time>
      </trkpt>
      <trkpt lat="43.17584" lon="2.55886">
        <ele>117.9</ele>
        <time>2015-10-04T13:35:32Z</time>
      </trkpt>
      <trkpt lat="43.17591" lon="2.55865">
        <ele>117.42</ele>
        <time>2015-10-04T13:35:33Z</time>
      </trkpt>
      <trkpt lat="43.17596" lon="2.55844">
        <ele>116.94</ele>
        <time>2015-10-04T13:35:34Z</time>
      </trkpt>
      <trkpt lat="43.17618" lon="2.55766">
        <ele>113.57</ele>
        <time>2015-10-04T13:35:38Z</time>
      </trkpt>
      <trkpt lat="43.17625" lon="2.55751">
        <ele>113.09</ele>
        <time>2015-10-04T13:35:39Z</time>
      </trkpt>
      <trkpt lat="43.17633" lon="2.55743">
        <ele>112.13</ele>
        <time>2015-10-04T13:35:40Z</time>
      </trkpt>
      <trkpt lat="43.17643" lon="2.55741">
        <ele>111.17</ele>
        <time>2015-10-04T13:35:41Z</time>
      </trkpt>
      <trkpt lat="43.17658" lon="2.55743">
        <ele>111.17</ele>
        <time>2015-10-04T13:35:42Z</time>
      </trkpt>
      <trkpt lat="43.17673" lon="2.55746">
        <ele>110.69</ele>
        <time>2015-10-04T13:35:43Z</time>
      </trkpt>
      <trkpt lat="43.1769" lon="2.55749">
        <ele>110.21</ele>
        <time>2015-10-04T13:35:44Z</time>
      </trkpt>
      <trkpt lat="43.17793" lon="2.5579">
        <ele>105.88</ele>
        <time>2015-10-04T13:35:51Z</time>
      </trkpt>
      <trkpt lat="43.17805" lon="2.55798">
        <ele>105.4</ele>
        <time>2015-10-04T13:35:52Z</time>
      </trkpt>
      <trkpt lat="43.17903" lon="2.55835">
        <ele>99.15</ele>
        <time>2015-10-04T13:36:00Z</time>
      </trkpt>
      <trkpt lat="43.18017" lon="2.55829">
        <ele>90.02</ele>
        <time>2015-10-04T13:36:11Z</time>
      </trkpt>
      <trkpt lat="43.18104" lon="2.55811">
        <ele>89.06</ele>
        <time>2015-10-04T13:36:18Z</time>
      </trkpt>
      <trkpt lat="43.182" lon="2.55809">
        <ele>86.18</ele>
        <time>2015-10-04T13:36:27Z</time>
      </trkpt>
      <trkpt lat="43.18237" lon="2.55812">
        <ele>84.73</ele>
        <time>2015-10-04T13:36:32Z</time>
      </trkpt>
      <trkpt lat="43.18243" lon="2.55815">
        <ele>84.73</ele>
        <time>2015-10-04T13:36:33Z</time>
      </trkpt>
      <trkpt lat="43.1828" lon="2.55835">
        <ele>83.77</ele>
        <time>2015-10-04T13:36:41Z</time>
      </trkpt>
      <trkpt lat="43.18328" lon="2.55848">
        <ele>86.18</ele>
        <time>2015-10-04T13:36:49Z</time>
      </trkpt>
      <trkpt lat="43.18333" lon="2.55847">
        <ele>85.69</ele>
        <time>2015-10-04T13:36:50Z</time>
      </trkpt>
      <trkpt lat="43.18338" lon="2.55845">
        <ele>85.21</ele>
        <time>2015-10-04T13:36:51Z</time>
      </trkpt>
      <trkpt lat="43.18341" lon="2.55842">
        <ele>84.73</ele>
        <time>2015-10-04T13:36:52Z</time>
      </trkpt>
      <trkpt lat="43.18342" lon="2.55835">
        <ele>85.21</ele>
        <time>2015-10-04T13:36:53Z</time>
      </trkpt>
      <trkpt lat="43.18343" lon="2.55827">
        <ele>85.69</ele>
        <time>2015-10-04T13:36:54Z</time>
      </trkpt>
      <trkpt lat="43.18344" lon="2.55821">
        <ele>85.69</ele>
        <time>2015-10-04T13:36:55Z</time>
      </trkpt>
      <trkpt lat="43.18347" lon="2.55815">
        <ele>85.69</ele>
        <time>2015-10-04T13:36:56Z</time>
      </trkpt>
      <trkpt lat="43.18351" lon="2.55811">
        <ele>86.18</ele>
        <time>2015-10-04T13:36:57Z</time>
      </trkpt>
      <trkpt lat="43.18355" lon="2.55809">
        <ele>86.18</ele>
        <time>2015-10-04T13:36:58Z</time>
      </trkpt>
      <trkpt lat="43.1836" lon="2.55806">
        <ele>86.18</ele>
        <time>2015-10-04T13:36:59Z</time>
      </trkpt>
      <trkpt lat="43.18366" lon="2.55804">
        <ele>85.69</ele>
        <time>2015-10-04T13:37:00Z</time>
      </trkpt>
      <trkpt lat="43.18372" lon="2.55802">
        <ele>84.73</ele>
        <time>2015-10-04T13:37:01Z</time>
      </trkpt>
      <trkpt lat="43.18395" lon="2.55793">
        <ele>82.33</ele>
        <time>2015-10-04T13:37:05Z</time>
      </trkpt>
      <trkpt lat="43.18402" lon="2.55793">
        <ele>81.85</ele>
        <time>2015-10-04T13:37:06Z</time>
      </trkpt>
      <trkpt lat="43.18409" lon="2.55793">
        <ele>80.89</ele>
        <time>2015-10-04T13:37:07Z</time>
      </trkpt>
      <trkpt lat="43.18424" lon="2.55795">
        <ele>80.89</ele>
        <time>2015-10-04T13:37:09Z</time>
      </trkpt>
      <trkpt lat="43.18431" lon="2.55797">
        <ele>81.37</ele>
        <time>2015-10-04T13:37:10Z</time>
      </trkpt>
      <trkpt lat="43.18438" lon="2.55801">
        <ele>80.89</ele>
        <time>2015-10-04T13:37:11Z</time>
      </trkpt>
      <trkpt lat="43.1847" lon="2.55821">
        <ele>79.45</ele>
        <time>2015-10-04T13:37:17Z</time>
      </trkpt>
      <trkpt lat="43.18473" lon="2.55828">
        <ele>78.97</ele>
        <time>2015-10-04T13:37:18Z</time>
      </trkpt>
      <trkpt lat="43.18476" lon="2.55836">
        <ele>78.97</ele>
        <time>2015-10-04T13:37:19Z</time>
      </trkpt>
      <trkpt lat="43.1848" lon="2.55847">
        <ele>78.97</ele>
        <time>2015-10-04T13:37:20Z</time>
      </trkpt>
      <trkpt lat="43.18484" lon="2.55856">
        <ele>78.48</ele>
        <time>2015-10-04T13:37:21Z</time>
      </trkpt>
      <trkpt lat="43.18487" lon="2.55866">
        <ele>78</ele>
        <time>2015-10-04T13:37:22Z</time>
      </trkpt>
      <trkpt lat="43.1849" lon="2.55877">
        <ele>77.52</ele>
        <time>2015-10-04T13:37:23Z</time>
      </trkpt>
      <trkpt lat="43.18491" lon="2.55888">
        <ele>77.52</ele>
        <time>2015-10-04T13:37:24Z</time>
      </trkpt>
      <trkpt lat="43.18492" lon="2.55899">
        <ele>77.52</ele>
        <time>2015-10-04T13:37:25Z</time>
      </trkpt>
      <trkpt lat="43.18492" lon="2.55911">
        <ele>77.04</ele>
        <time>2015-10-04T13:37:26Z</time>
      </trkpt>
      <trkpt lat="43.18491" lon="2.55921">
        <ele>77.04</ele>
        <time>2015-10-04T13:37:27Z</time>
      </trkpt>
      <trkpt lat="43.18489" lon="2.55932">
        <ele>76.56</ele>
        <time>2015-10-04T13:37:28Z</time>
      </trkpt>
      <trkpt lat="43.18488" lon="2.55942">
        <ele>76.56</ele>
        <time>2015-10-04T13:37:29Z</time>
      </trkpt>
      <trkpt lat="43.18485" lon="2.55951">
        <ele>75.6</ele>
        <time>2015-10-04T13:37:30Z</time>
      </trkpt>
      <trkpt lat="43.18481" lon="2.55971">
        <ele>75.12</ele>
        <time>2015-10-04T13:37:32Z</time>
      </trkpt>
      <trkpt lat="43.1848" lon="2.5598">
        <ele>74.64</ele>
        <time>2015-10-04T13:37:33Z</time>
      </trkpt>
      <trkpt lat="43.18482" lon="2.5599">
        <ele>74.16</ele>
        <time>2015-10-04T13:37:34Z</time>
      </trkpt>
      <trkpt lat="43.18485" lon="2.56">
        <ele>73.68</ele>
        <time>2015-10-04T13:37:35Z</time>
      </trkpt>
      <trkpt lat="43.18489" lon="2.5601">
        <ele>73.68</ele>
        <time>2015-10-04T13:37:36Z</time>
      </trkpt>
      <trkpt lat="43.18536" lon="2.56142">
        <ele>71.27</ele>
        <time>2015-10-04T13:37:49Z</time>
      </trkpt>
      <trkpt lat="43.18537" lon="2.56157">
        <ele>71.27</ele>
        <time>2015-10-04T13:37:50Z</time>
      </trkpt>
      <trkpt lat="43.18546" lon="2.56239">
        <ele>70.31</ele>
        <time>2015-10-04T13:37:56Z</time>
      </trkpt>
      <trkpt lat="43.18546" lon="2.56251">
        <ele>69.83</ele>
        <time>2015-10-04T13:37:57Z</time>
      </trkpt>
      <trkpt lat="43.18545" lon="2.56262">
        <ele>69.83</ele>
        <time>2015-10-04T13:37:58Z</time>
      </trkpt>
      <trkpt lat="43.18534" lon="2.56381">
        <ele>68.87</ele>
        <time>2015-10-04T13:38:09Z</time>
      </trkpt>
      <trkpt lat="43.18529" lon="2.56427">
        <ele>69.35</ele>
        <time>2015-10-04T13:38:19Z</time>
      </trkpt>
      <trkpt lat="43.18523" lon="2.56464">
        <ele>69.35</ele>
        <time>2015-10-04T13:38:27Z</time>
      </trkpt>
      <trkpt lat="43.18523" lon="2.56466">
        <ele>69.35</ele>
        <time>2015-10-04T13:38:28Z</time>
      </trkpt>
      <trkpt lat="43.18525" lon="2.56468">
        <ele>69.35</ele>
        <time>2015-10-04T13:38:29Z</time>
      </trkpt>
      <trkpt lat="43.18529" lon="2.56464">
        <ele>68.39</ele>
        <time>2015-10-04T13:38:33Z</time>
      </trkpt>
      <trkpt lat="43.18535" lon="2.56405">
        <ele>69.35</ele>
        <time>2015-10-04T13:38:39Z</time>
      </trkpt>
      <trkpt lat="43.18543" lon="2.56286">
        <ele>67.43</ele>
        <time>2015-10-04T13:38:49Z</time>
      </trkpt>
      <trkpt lat="43.18546" lon="2.56252">
        <ele>67.91</ele>
        <time>2015-10-04T13:38:53Z</time>
      </trkpt>
      <trkpt lat="43.18549" lon="2.56246">
        <ele>67.91</ele>
        <time>2015-10-04T13:38:54Z</time>
      </trkpt>
      <trkpt lat="43.18553" lon="2.56243">
        <ele>68.39</ele>
        <time>2015-10-04T13:38:55Z</time>
      </trkpt>
      <trkpt lat="43.18558" lon="2.56244">
        <ele>68.39</ele>
        <time>2015-10-04T13:38:56Z</time>
      </trkpt>
      <trkpt lat="43.18563" lon="2.56247">
        <ele>68.39</ele>
        <time>2015-10-04T13:38:57Z</time>
      </trkpt>
      <trkpt lat="43.18568" lon="2.56252">
        <ele>67.91</ele>
        <time>2015-10-04T13:38:58Z</time>
      </trkpt>
      <trkpt lat="43.18574" lon="2.56258">
        <ele>67.91</ele>
        <time>2015-10-04T13:38:59Z</time>
      </trkpt>
      <trkpt lat="43.18634" lon="2.5634">
        <ele>67.43</ele>
        <time>2015-10-04T13:39:10Z</time>
      </trkpt>
      <trkpt lat="43.18673" lon="2.56416">
        <ele>67.43</ele>
        <time>2015-10-04T13:39:20Z</time>
      </trkpt>
      <trkpt lat="43.18696" lon="2.56468">
        <ele>67.43</ele>
        <time>2015-10-04T13:39:26Z</time>
      </trkpt>
      <trkpt lat="43.187" lon="2.56481">
        <ele>67.43</ele>
        <time>2015-10-04T13:39:27Z</time>
      </trkpt>
      <trkpt lat="43.18703" lon="2.56495">
        <ele>67.43</ele>
        <time>2015-10-04T13:39:28Z</time>
      </trkpt>
      <trkpt lat="43.18706" lon="2.5651">
        <ele>67.43</ele>
        <time>2015-10-04T13:39:29Z</time>
      </trkpt>
      <trkpt lat="43.1871" lon="2.56524">
        <ele>67.91</ele>
        <time>2015-10-04T13:39:30Z</time>
      </trkpt>
      <trkpt lat="43.18715" lon="2.56535">
        <ele>67.43</ele>
        <time>2015-10-04T13:39:31Z</time>
      </trkpt>
      <trkpt lat="43.18721" lon="2.56545">
        <ele>67.91</ele>
        <time>2015-10-04T13:39:32Z</time>
      </trkpt>
      <trkpt lat="43.18728" lon="2.56556">
        <ele>67.91</ele>
        <time>2015-10-04T13:39:33Z</time>
      </trkpt>
      <trkpt lat="43.18735" lon="2.56568">
        <ele>67.91</ele>
        <time>2015-10-04T13:39:34Z</time>
      </trkpt>
      <trkpt lat="43.18741" lon="2.56581">
        <ele>68.39</ele>
        <time>2015-10-04T13:39:35Z</time>
      </trkpt>
      <trkpt lat="43.18746" lon="2.56595">
        <ele>68.39</ele>
        <time>2015-10-04T13:39:36Z</time>
      </trkpt>
      <trkpt lat="43.18749" lon="2.5661">
        <ele>68.39</ele>
        <time>2015-10-04T13:39:37Z</time>
      </trkpt>
      <trkpt lat="43.18749" lon="2.56627">
        <ele>68.39</ele>
        <time>2015-10-04T13:39:38Z</time>
      </trkpt>
      <trkpt lat="43.18749" lon="2.56645">
        <ele>68.39</ele>
        <time>2015-10-04T13:39:39Z</time>
      </trkpt>
      <trkpt lat="43.18742" lon="2.56819">
        <ele>68.39</ele>
        <time>2015-10-04T13:39:47Z</time>
      </trkpt>
      <trkpt lat="43.18733" lon="2.57047">
        <ele>68.39</ele>
        <time>2015-10-04T13:39:55Z</time>
      </trkpt>
      <trkpt lat="43.18718" lon="2.57408">
        <ele>70.79</ele>
        <time>2015-10-04T13:40:06Z</time>
      </trkpt>
      <trkpt lat="43.18678" lon="2.57686">
        <ele>73.68</ele>
        <time>2015-10-04T13:40:14Z</time>
      </trkpt>
      <trkpt lat="43.18646" lon="2.57885">
        <ele>74.64</ele>
        <time>2015-10-04T13:40:20Z</time>
      </trkpt>
      <trkpt lat="43.18552" lon="2.58451">
        <ele>80.41</ele>
        <time>2015-10-04T13:40:38Z</time>
      </trkpt>
      <trkpt lat="43.18518" lon="2.58779">
        <ele>85.21</ele>
        <time>2015-10-04T13:40:48Z</time>
      </trkpt>
      <trkpt lat="43.18555" lon="2.5899">
        <ele>85.21</ele>
        <time>2015-10-04T13:40:54Z</time>
      </trkpt>
      <trkpt lat="43.18652" lon="2.59293">
        <ele>79.45</ele>
        <time>2015-10-04T13:41:02Z</time>
      </trkpt>
      <trkpt lat="43.18745" lon="2.59575">
        <ele>78</ele>
        <time>2015-10-04T13:41:10Z</time>
      </trkpt>
      <trkpt lat="43.18901" lon="2.60051">
        <ele>78.97</ele>
        <time>2015-10-04T13:41:25Z</time>
      </trkpt>
      <trkpt lat="43.19057" lon="2.60531">
        <ele>74.64</ele>
        <time>2015-10-04T13:41:40Z</time>
      </trkpt>
      <trkpt lat="43.19153" lon="2.60903">
        <ele>77.04</ele>
        <time>2015-10-04T13:41:51Z</time>
      </trkpt>
      <trkpt lat="43.19198" lon="2.61225">
        <ele>81.85</ele>
        <time>2015-10-04T13:42:01Z</time>
      </trkpt>
      <trkpt lat="43.19213" lon="2.61568">
        <ele>79.45</ele>
        <time>2015-10-04T13:42:11Z</time>
      </trkpt>
      <trkpt lat="43.19213" lon="2.62073">
        <ele>69.83</ele>
        <time>2015-10-04T13:42:25Z</time>
      </trkpt>
      <trkpt lat="43.19213" lon="2.62628">
        <ele>64.55</ele>
        <time>2015-10-04T13:42:41Z</time>
      </trkpt>
      <trkpt lat="43.19214" lon="2.63185">
        <ele>64.07</ele>
        <time>2015-10-04T13:42:57Z</time>
      </trkpt>
      <trkpt lat="43.19194" lon="2.63602">
        <ele>64.07</ele>
        <time>2015-10-04T13:43:09Z</time>
      </trkpt>
      <trkpt lat="43.19136" lon="2.63953">
        <ele>64.55</ele>
        <time>2015-10-04T13:43:20Z</time>
      </trkpt>
      <trkpt lat="43.19034" lon="2.64313">
        <ele>65.51</ele>
        <time>2015-10-04T13:43:32Z</time>
      </trkpt>
      <trkpt lat="43.18879" lon="2.64748">
        <ele>67.91</ele>
        <time>2015-10-04T13:43:46Z</time>
      </trkpt>
      <trkpt lat="43.18763" lon="2.65071">
        <ele>68.87</ele>
        <time>2015-10-04T13:43:55Z</time>
      </trkpt>
      <trkpt lat="43.18631" lon="2.65441">
        <ele>69.83</ele>
        <time>2015-10-04T13:44:06Z</time>
      </trkpt>
      <trkpt lat="43.18513" lon="2.6584">
        <ele>75.12</ele>
        <time>2015-10-04T13:44:18Z</time>
      </trkpt>
      <trkpt lat="43.18376" lon="2.66415">
        <ele>76.56</ele>
        <time>2015-10-04T13:44:35Z</time>
      </trkpt>
      <trkpt lat="43.18248" lon="2.66951">
        <ele>80.89</ele>
        <time>2015-10-04T13:44:51Z</time>
      </trkpt>
      <trkpt lat="43.18141" lon="2.67398">
        <ele>79.45</ele>
        <time>2015-10-04T13:45:05Z</time>
      </trkpt>
      <trkpt lat="43.18067" lon="2.67759">
        <ele>77.04</ele>
        <time>2015-10-04T13:45:17Z</time>
      </trkpt>
      <trkpt lat="43.18054" lon="2.68007">
        <ele>79.45</ele>
        <time>2015-10-04T13:45:26Z</time>
      </trkpt>
      <trkpt lat="43.18074" lon="2.68225">
        <ele>85.69</ele>
        <time>2015-10-04T13:45:34Z</time>
      </trkpt>
      <trkpt lat="43.18101" lon="2.68464">
        <ele>91.46</ele>
        <time>2015-10-04T13:45:41Z</time>
      </trkpt>
      <trkpt lat="43.18144" lon="2.68898">
        <ele>95.31</ele>
        <time>2015-10-04T13:45:53Z</time>
      </trkpt>
      <trkpt lat="43.18184" lon="2.69094">
        <ele>94.35</ele>
        <time>2015-10-04T13:46:00Z</time>
      </trkpt>
      <trkpt lat="43.18283" lon="2.6937">
        <ele>91.94</ele>
        <time>2015-10-04T13:46:09Z</time>
      </trkpt>
      <trkpt lat="43.18479" lon="2.69915">
        <ele>90.98</ele>
        <time>2015-10-04T13:46:26Z</time>
      </trkpt>
      <trkpt lat="43.18578" lon="2.70239">
        <ele>88.58</ele>
        <time>2015-10-04T13:46:36Z</time>
      </trkpt>
      <trkpt lat="43.18619" lon="2.70531">
        <ele>83.77</ele>
        <time>2015-10-04T13:46:44Z</time>
      </trkpt>
      <trkpt lat="43.18665" lon="2.70988">
        <ele>76.08</ele>
        <time>2015-10-04T13:46:57Z</time>
      </trkpt>
      <trkpt lat="43.18677" lon="2.71106">
        <ele>74.16</ele>
        <time>2015-10-04T13:47:02Z</time>
      </trkpt>
      <trkpt lat="43.18695" lon="2.71277">
        <ele>73.2</ele>
        <time>2015-10-04T13:47:12Z</time>
      </trkpt>
      <trkpt lat="43.18713" lon="2.71451">
        <ele>71.76</ele>
        <time>2015-10-04T13:47:25Z</time>
      </trkpt>
      <trkpt lat="43.18716" lon="2.71496">
        <ele>70.31</ele>
        <time>2015-10-04T13:47:34Z</time>
      </trkpt>
      <trkpt lat="43.18725" lon="2.71581">
        <ele>69.83</ele>
        <time>2015-10-04T13:47:43Z</time>
      </trkpt>
      <trkpt lat="43.18741" lon="2.71726">
        <ele>71.27</ele>
        <time>2015-10-04T13:47:52Z</time>
      </trkpt>
      <trkpt lat="43.18755" lon="2.71865">
        <ele>71.76</ele>
        <time>2015-10-04T13:48:00Z</time>
      </trkpt>
      <trkpt lat="43.18776" lon="2.72069">
        <ele>70.31</ele>
        <time>2015-10-04T13:48:09Z</time>
      </trkpt>
      <trkpt lat="43.18801" lon="2.72298">
        <ele>67.43</ele>
        <time>2015-10-04T13:48:16Z</time>
      </trkpt>
      <trkpt lat="43.18851" lon="2.72732">
        <ele>67.91</ele>
        <time>2015-10-04T13:48:28Z</time>
      </trkpt>
      <trkpt lat="43.18918" lon="2.72937">
        <ele>74.16</ele>
        <time>2015-10-04T13:48:34Z</time>
      </trkpt>
      <trkpt lat="43.19031" lon="2.73114">
        <ele>82.33</ele>
        <time>2015-10-04T13:48:40Z</time>
      </trkpt>
      <trkpt lat="43.19168" lon="2.73342">
        <ele>85.69</ele>
        <time>2015-10-04T13:48:48Z</time>
      </trkpt>
      <trkpt lat="43.19359" lon="2.73748">
        <ele>71.27</ele>
        <time>2015-10-04T13:49:01Z</time>
      </trkpt>
      <trkpt lat="43.19434" lon="2.73972">
        <ele>67.91</ele>
        <time>2015-10-04T13:49:08Z</time>
      </trkpt>
      <trkpt lat="43.19451" lon="2.73999">
        <ele>67.43</ele>
        <time>2015-10-04T13:49:09Z</time>
      </trkpt>
      <trkpt lat="43.19469" lon="2.74024">
        <ele>67.43</ele>
        <time>2015-10-04T13:49:10Z</time>
      </trkpt>
      <trkpt lat="43.19489" lon="2.74047">
        <ele>67.43</ele>
        <time>2015-10-04T13:49:11Z</time>
      </trkpt>
      <trkpt lat="43.1951" lon="2.74069">
        <ele>66.95</ele>
        <time>2015-10-04T13:49:12Z</time>
      </trkpt>
      <trkpt lat="43.19532" lon="2.74088">
        <ele>66.95</ele>
        <time>2015-10-04T13:49:13Z</time>
      </trkpt>
      <trkpt lat="43.197" lon="2.74275">
        <ele>69.35</ele>
        <time>2015-10-04T13:49:21Z</time>
      </trkpt>
      <trkpt lat="43.19815" lon="2.74519">
        <ele>65.51</ele>
        <time>2015-10-04T13:49:29Z</time>
      </trkpt>
      <trkpt lat="43.19844" lon="2.74721">
        <ele>62.62</ele>
        <time>2015-10-04T13:49:35Z</time>
      </trkpt>
      <trkpt lat="43.19849" lon="2.74754">
        <ele>62.14</ele>
        <time>2015-10-04T13:49:36Z</time>
      </trkpt>
      <trkpt lat="43.19856" lon="2.74787">
        <ele>62.14</ele>
        <time>2015-10-04T13:49:37Z</time>
      </trkpt>
      <trkpt lat="43.19866" lon="2.74818">
        <ele>61.66</ele>
        <time>2015-10-04T13:49:38Z</time>
      </trkpt>
      <trkpt lat="43.19877" lon="2.74847">
        <ele>61.18</ele>
        <time>2015-10-04T13:49:39Z</time>
      </trkpt>
      <trkpt lat="43.19889" lon="2.74873">
        <ele>61.18</ele>
        <time>2015-10-04T13:49:40Z</time>
      </trkpt>
      <trkpt lat="43.19902" lon="2.74896">
        <ele>60.7</ele>
        <time>2015-10-04T13:49:41Z</time>
      </trkpt>
      <trkpt lat="43.19915" lon="2.74916">
        <ele>60.22</ele>
        <time>2015-10-04T13:49:42Z</time>
      </trkpt>
      <trkpt lat="43.19928" lon="2.74935">
        <ele>60.22</ele>
        <time>2015-10-04T13:49:43Z</time>
      </trkpt>
      <trkpt lat="43.20017" lon="2.75026">
        <ele>58.3</ele>
        <time>2015-10-04T13:49:50Z</time>
      </trkpt>
      <trkpt lat="43.20131" lon="2.75099">
        <ele>55.41</ele>
        <time>2015-10-04T13:50:01Z</time>
      </trkpt>
      <trkpt lat="43.20237" lon="2.75162">
        <ele>55.89</ele>
        <time>2015-10-04T13:50:13Z</time>
      </trkpt>
      <trkpt lat="43.20265" lon="2.75178">
        <ele>55.89</ele>
        <time>2015-10-04T13:50:17Z</time>
      </trkpt>
      <trkpt lat="43.20271" lon="2.75185">
        <ele>56.37</ele>
        <time>2015-10-04T13:50:18Z</time>
      </trkpt>
      <trkpt lat="43.20278" lon="2.75195">
        <ele>55.89</ele>
        <time>2015-10-04T13:50:19Z</time>
      </trkpt>
      <trkpt lat="43.20286" lon="2.75199">
        <ele>56.37</ele>
        <time>2015-10-04T13:50:20Z</time>
      </trkpt>
      <trkpt lat="43.20297" lon="2.75202">
        <ele>56.37</ele>
        <time>2015-10-04T13:50:21Z</time>
      </trkpt>
      <trkpt lat="43.20308" lon="2.75205">
        <ele>56.37</ele>
        <time>2015-10-04T13:50:22Z</time>
      </trkpt>
      <trkpt lat="43.20319" lon="2.75209">
        <ele>56.37</ele>
        <time>2015-10-04T13:50:23Z</time>
      </trkpt>
      <trkpt lat="43.2033" lon="2.75215">
        <ele>56.86</ele>
        <time>2015-10-04T13:50:24Z</time>
      </trkpt>
      <trkpt lat="43.20428" lon="2.75286">
        <ele>58.78</ele>
        <time>2015-10-04T13:50:31Z</time>
      </trkpt>
      <trkpt lat="43.20503" lon="2.75412">
        <ele>57.82</ele>
        <time>2015-10-04T13:50:38Z</time>
      </trkpt>
      <trkpt lat="43.2053" lon="2.7556">
        <ele>56.37</ele>
        <time>2015-10-04T13:50:45Z</time>
      </trkpt>
      <trkpt lat="43.20527" lon="2.75631">
        <ele>54.93</ele>
        <time>2015-10-04T13:50:48Z</time>
      </trkpt>
      <trkpt lat="43.20523" lon="2.75653">
        <ele>54.45</ele>
        <time>2015-10-04T13:50:49Z</time>
      </trkpt>
      <trkpt lat="43.20493" lon="2.7575">
        <ele>53.01</ele>
        <time>2015-10-04T13:50:55Z</time>
      </trkpt>
      <trkpt lat="43.2048" lon="2.75775">
        <ele>53.01</ele>
        <time>2015-10-04T13:51:02Z</time>
      </trkpt>
      <trkpt lat="43.20477" lon="2.7578">
        <ele>54.93</ele>
        <time>2015-10-04T13:51:16Z</time>
      </trkpt>
      <trkpt lat="43.20479" lon="2.75777">
        <ele>51.57</ele>
        <time>2015-10-04T13:53:27Z</time>
      </trkpt>
      <trkpt lat="43.20479" lon="2.75777">
        <ele>53.97</ele>
        <time>2015-10-04T13:55:01Z</time>
      </trkpt>
      <trkpt lat="43.20487" lon="2.75776">
        <ele>57.82</ele>
        <time>2015-10-04T14:02:46Z</time>
      </trkpt>
      <trkpt lat="43.20478" lon="2.75776">
        <ele>51.09</ele>
        <time>2015-10-04T14:03:27Z</time>
      </trkpt>
      <trkpt lat="43.20473" lon="2.75803">
        <ele>52.05</ele>
        <time>2015-10-04T14:03:33Z</time>
      </trkpt>
      <trkpt lat="43.20472" lon="2.7581">
        <ele>52.05</ele>
        <time>2015-10-04T14:03:34Z</time>
      </trkpt>
      <trkpt lat="43.2047" lon="2.75816">
        <ele>52.53</ele>
        <time>2015-10-04T14:03:35Z</time>
      </trkpt>
      <trkpt lat="43.20457" lon="2.75851">
        <ele>51.57</ele>
        <time>2015-10-04T14:03:47Z</time>
      </trkpt>
      <trkpt lat="43.20445" lon="2.75883">
        <ele>51.57</ele>
        <time>2015-10-04T14:04:40Z</time>
      </trkpt>
      <trkpt lat="43.20406" lon="2.75993">
        <ele>50.61</ele>
        <time>2015-10-04T14:04:49Z</time>
      </trkpt>
      <trkpt lat="43.20354" lon="2.76134">
        <ele>48.2</ele>
        <time>2015-10-04T14:04:59Z</time>
      </trkpt>
      <trkpt lat="43.2035" lon="2.76145">
        <ele>47.72</ele>
        <time>2015-10-04T14:05:03Z</time>
      </trkpt>
      <trkpt lat="43.20338" lon="2.76177">
        <ele>44.36</ele>
        <time>2015-10-04T14:05:38Z</time>
      </trkpt>
      <trkpt lat="43.20309" lon="2.76293">
        <ele>43.88</ele>
        <time>2015-10-04T14:05:45Z</time>
      </trkpt>
      <trkpt lat="43.20282" lon="2.76486">
        <ele>42.44</ele>
        <time>2015-10-04T14:05:56Z</time>
      </trkpt>
      <trkpt lat="43.20236" lon="2.76671">
        <ele>40.99</ele>
        <time>2015-10-04T14:06:06Z</time>
      </trkpt>
      <trkpt lat="43.20225" lon="2.76855">
        <ele>40.51</ele>
        <time>2015-10-04T14:06:13Z</time>
      </trkpt>
      <trkpt lat="43.2023" lon="2.77215">
        <ele>40.51</ele>
        <time>2015-10-04T14:06:25Z</time>
      </trkpt>
      <trkpt lat="43.20252" lon="2.77555">
        <ele>43.4</ele>
        <time>2015-10-04T14:06:36Z</time>
      </trkpt>
      <trkpt lat="43.20253" lon="2.77626">
        <ele>43.4</ele>
        <time>2015-10-04T14:06:39Z</time>
      </trkpt>
      <trkpt lat="43.20251" lon="2.77642">
        <ele>43.4</ele>
        <time>2015-10-04T14:06:40Z</time>
      </trkpt>
      <trkpt lat="43.20248" lon="2.7765">
        <ele>42.92</ele>
        <time>2015-10-04T14:06:41Z</time>
      </trkpt>
      <trkpt lat="43.20246" lon="2.77654">
        <ele>42.92</ele>
        <time>2015-10-04T14:06:42Z</time>
      </trkpt>
      <trkpt lat="43.20244" lon="2.77655">
        <ele>43.4</ele>
        <time>2015-10-04T14:06:43Z</time>
      </trkpt>
      <trkpt lat="43.20243" lon="2.77656">
        <ele>43.4</ele>
        <time>2015-10-04T14:06:44Z</time>
      </trkpt>
      <trkpt lat="43.20241" lon="2.77656">
        <ele>43.4</ele>
        <time>2015-10-04T14:06:45Z</time>
      </trkpt>
      <trkpt lat="43.20239" lon="2.77658">
        <ele>43.4</ele>
        <time>2015-10-04T14:06:46Z</time>
      </trkpt>
      <trkpt lat="43.20234" lon="2.7766">
        <ele>43.88</ele>
        <time>2015-10-04T14:06:47Z</time>
      </trkpt>
      <trkpt lat="43.20229" lon="2.77663">
        <ele>43.88</ele>
        <time>2015-10-04T14:06:48Z</time>
      </trkpt>
      <trkpt lat="43.20223" lon="2.7767">
        <ele>43.88</ele>
        <time>2015-10-04T14:06:49Z</time>
      </trkpt>
      <trkpt lat="43.2022" lon="2.7768">
        <ele>43.88</ele>
        <time>2015-10-04T14:06:50Z</time>
      </trkpt>
      <trkpt lat="43.2022" lon="2.7769">
        <ele>43.4</ele>
        <time>2015-10-04T14:06:51Z</time>
      </trkpt>
      <trkpt lat="43.20222" lon="2.777">
        <ele>43.4</ele>
        <time>2015-10-04T14:06:52Z</time>
      </trkpt>
      <trkpt lat="43.20227" lon="2.7771">
        <ele>43.4</ele>
        <time>2015-10-04T14:06:53Z</time>
      </trkpt>
      <trkpt lat="43.20233" lon="2.7772">
        <ele>43.4</ele>
        <time>2015-10-04T14:06:54Z</time>
      </trkpt>
      <trkpt lat="43.20237" lon="2.77732">
        <ele>43.4</ele>
        <time>2015-10-04T14:06:55Z</time>
      </trkpt>
      <trkpt lat="43.20241" lon="2.77748">
        <ele>43.4</ele>
        <time>2015-10-04T14:06:56Z</time>
      </trkpt>
      <trkpt lat="43.20243" lon="2.77766">
        <ele>43.4</ele>
        <time>2015-10-04T14:06:57Z</time>
      </trkpt>
      <trkpt lat="43.20276" lon="2.77926">
        <ele>42.44</ele>
        <time>2015-10-04T14:07:04Z</time>
      </trkpt>
      <trkpt lat="43.20342" lon="2.78191">
        <ele>40.99</ele>
        <time>2015-10-04T14:07:13Z</time>
      </trkpt>
      <trkpt lat="43.20458" lon="2.78661">
        <ele>40.99</ele>
        <time>2015-10-04T14:07:28Z</time>
      </trkpt>
      <trkpt lat="43.20557" lon="2.79065">
        <ele>40.03</ele>
        <time>2015-10-04T14:07:42Z</time>
      </trkpt>
      <trkpt lat="43.20652" lon="2.79497">
        <ele>39.07</ele>
        <time>2015-10-04T14:07:56Z</time>
      </trkpt>
      <trkpt lat="43.20706" lon="2.79886">
        <ele>37.63</ele>
        <time>2015-10-04T14:08:08Z</time>
      </trkpt>
      <trkpt lat="43.20778" lon="2.80477">
        <ele>33.3</ele>
        <time>2015-10-04T14:08:26Z</time>
      </trkpt>
      <trkpt lat="43.20849" lon="2.81078">
        <ele>31.86</ele>
        <time>2015-10-04T14:08:44Z</time>
      </trkpt>
      <trkpt lat="43.2092" lon="2.81661">
        <ele>30.9</ele>
        <time>2015-10-04T14:09:01Z</time>
      </trkpt>
      <trkpt lat="43.20992" lon="2.82252">
        <ele>29.94</ele>
        <time>2015-10-04T14:09:18Z</time>
      </trkpt>
      <trkpt lat="43.21018" lon="2.8246">
        <ele>29.46</ele>
        <time>2015-10-04T14:09:25Z</time>
      </trkpt>
      <trkpt lat="43.21061" lon="2.82796">
        <ele>28.98</ele>
        <time>2015-10-04T14:09:36Z</time>
      </trkpt>
      <trkpt lat="43.21105" lon="2.83163">
        <ele>28.02</ele>
        <time>2015-10-04T14:09:46Z</time>
      </trkpt>
      <trkpt lat="43.2117" lon="2.837">
        <ele>27.05</ele>
        <time>2015-10-04T14:10:01Z</time>
      </trkpt>
      <trkpt lat="43.21231" lon="2.84206">
        <ele>26.09</ele>
        <time>2015-10-04T14:10:15Z</time>
      </trkpt>
      <trkpt lat="43.21303" lon="2.84787">
        <ele>25.13</ele>
        <time>2015-10-04T14:10:32Z</time>
      </trkpt>
      <trkpt lat="43.21366" lon="2.85306">
        <ele>24.17</ele>
        <time>2015-10-04T14:10:47Z</time>
      </trkpt>
      <trkpt lat="43.2139" lon="2.85509">
        <ele>23.69</ele>
        <time>2015-10-04T14:10:55Z</time>
      </trkpt>
      <trkpt lat="43.21411" lon="2.85685">
        <ele>22.73</ele>
        <time>2015-10-04T14:11:03Z</time>
      </trkpt>
      <trkpt lat="43.21429" lon="2.85861">
        <ele>22.73</ele>
        <time>2015-10-04T14:11:13Z</time>
      </trkpt>
      <trkpt lat="43.21423" lon="2.8604">
        <ele>21.77</ele>
        <time>2015-10-04T14:11:26Z</time>
      </trkpt>
      <trkpt lat="43.21417" lon="2.86165">
        <ele>22.25</ele>
        <time>2015-10-04T14:11:40Z</time>
      </trkpt>
      <trkpt lat="43.21417" lon="2.8618">
        <ele>22.25</ele>
        <time>2015-10-04T14:11:52Z</time>
      </trkpt>
      <trkpt lat="43.21415" lon="2.8622">
        <ele>17.92</ele>
        <time>2015-10-04T14:12:19Z</time>
      </trkpt>
      <trkpt lat="43.21407" lon="2.86329">
        <ele>17.92</ele>
        <time>2015-10-04T14:12:25Z</time>
      </trkpt>
      <trkpt lat="43.21377" lon="2.86484">
        <ele>20.32</ele>
        <time>2015-10-04T14:12:33Z</time>
      </trkpt>
      <trkpt lat="43.21335" lon="2.86639">
        <ele>19.36</ele>
        <time>2015-10-04T14:12:40Z</time>
      </trkpt>
      <trkpt lat="43.21279" lon="2.86796">
        <ele>17.44</ele>
        <time>2015-10-04T14:12:45Z</time>
      </trkpt>
      <trkpt lat="43.21221" lon="2.87028">
        <ele>17.92</ele>
        <time>2015-10-04T14:12:52Z</time>
      </trkpt>
      <trkpt lat="43.21176" lon="2.87316">
        <ele>25.13</ele>
        <time>2015-10-04T14:13:00Z</time>
      </trkpt>
      <trkpt lat="43.21082" lon="2.87505">
        <ele>29.94</ele>
        <time>2015-10-04T14:13:06Z</time>
      </trkpt>
      <trkpt lat="43.20941" lon="2.87734">
        <ele>28.98</ele>
        <time>2015-10-04T14:13:14Z</time>
      </trkpt>
      <trkpt lat="43.2083" lon="2.8802">
        <ele>29.94</ele>
        <time>2015-10-04T14:13:23Z</time>
      </trkpt>
      <trkpt lat="43.20724" lon="2.88309">
        <ele>34.26</ele>
        <time>2015-10-04T14:13:33Z</time>
      </trkpt>
      <trkpt lat="43.20605" lon="2.88581">
        <ele>37.15</ele>
        <time>2015-10-04T14:13:44Z</time>
      </trkpt>
      <trkpt lat="43.20458" lon="2.88825">
        <ele>38.11</ele>
        <time>2015-10-04T14:13:54Z</time>
      </trkpt>
      <trkpt lat="43.20327" lon="2.89009">
        <ele>40.03</ele>
        <time>2015-10-04T14:14:02Z</time>
      </trkpt>
      <trkpt lat="43.2023" lon="2.89166">
        <ele>42.44</ele>
        <time>2015-10-04T14:14:09Z</time>
      </trkpt>
      <trkpt lat="43.20085" lon="2.89408">
        <ele>46.28</ele>
        <time>2015-10-04T14:14:20Z</time>
      </trkpt>
      <trkpt lat="43.19934" lon="2.89654">
        <ele>47.24</ele>
        <time>2015-10-04T14:14:29Z</time>
      </trkpt>
      <trkpt lat="43.19776" lon="2.89909">
        <ele>48.68</ele>
        <time>2015-10-04T14:14:37Z</time>
      </trkpt>
      <trkpt lat="43.19567" lon="2.9014">
        <ele>50.61</ele>
        <time>2015-10-04T14:14:47Z</time>
      </trkpt>
      <trkpt lat="43.19308" lon="2.9046">
        <ele>48.2</ele>
        <time>2015-10-04T14:15:00Z</time>
      </trkpt>
      <trkpt lat="43.19191" lon="2.90635">
        <ele>46.28</ele>
        <time>2015-10-04T14:15:07Z</time>
      </trkpt>
      <trkpt lat="43.1904" lon="2.91035">
        <ele>41.95</ele>
        <time>2015-10-04T14:15:20Z</time>
      </trkpt>
      <trkpt lat="43.18941" lon="2.91221">
        <ele>39.07</ele>
        <time>2015-10-04T14:15:27Z</time>
      </trkpt>
      <trkpt lat="43.1884" lon="2.91366">
        <ele>38.11</ele>
        <time>2015-10-04T14:15:35Z</time>
      </trkpt>
      <trkpt lat="43.18721" lon="2.91553">
        <ele>36.67</ele>
        <time>2015-10-04T14:15:45Z</time>
      </trkpt>
      <trkpt lat="43.18635" lon="2.91719">
        <ele>36.19</ele>
        <time>2015-10-04T14:15:54Z</time>
      </trkpt>
      <trkpt lat="43.18598" lon="2.91814">
        <ele>35.71</ele>
        <time>2015-10-04T14:16:01Z</time>
      </trkpt>
      <trkpt lat="43.18573" lon="2.91918">
        <ele>35.23</ele>
        <time>2015-10-04T14:16:09Z</time>
      </trkpt>
      <trkpt lat="43.1854" lon="2.92068">
        <ele>34.74</ele>
        <time>2015-10-04T14:16:15Z</time>
      </trkpt>
      <trkpt lat="43.18534" lon="2.92233">
        <ele>33.78</ele>
        <time>2015-10-04T14:16:21Z</time>
      </trkpt>
      <trkpt lat="43.18562" lon="2.92514">
        <ele>32.82</ele>
        <time>2015-10-04T14:16:32Z</time>
      </trkpt>
      <trkpt lat="43.18575" lon="2.92694">
        <ele>32.34</ele>
        <time>2015-10-04T14:16:40Z</time>
      </trkpt>
      <trkpt lat="43.18574" lon="2.92715">
        <ele>32.34</ele>
        <time>2015-10-04T14:16:41Z</time>
      </trkpt>
      <trkpt lat="43.18571" lon="2.92736">
        <ele>31.86</ele>
        <time>2015-10-04T14:16:42Z</time>
      </trkpt>
      <trkpt lat="43.18533" lon="2.92921">
        <ele>30.9</ele>
        <time>2015-10-04T14:16:50Z</time>
      </trkpt>
      <trkpt lat="43.18481" lon="2.93156">
        <ele>30.9</ele>
        <time>2015-10-04T14:17:01Z</time>
      </trkpt>
      <trkpt lat="43.18411" lon="2.93295">
        <ele>31.86</ele>
        <time>2015-10-04T14:17:09Z</time>
      </trkpt>
      <trkpt lat="43.18383" lon="2.9334">
        <ele>32.82</ele>
        <time>2015-10-04T14:17:12Z</time>
      </trkpt>
      <trkpt lat="43.18372" lon="2.93351">
        <ele>32.82</ele>
        <time>2015-10-04T14:17:13Z</time>
      </trkpt>
      <trkpt lat="43.18361" lon="2.93361">
        <ele>32.82</ele>
        <time>2015-10-04T14:17:14Z</time>
      </trkpt>
      <trkpt lat="43.18353" lon="2.93371">
        <ele>33.3</ele>
        <time>2015-10-04T14:17:15Z</time>
      </trkpt>
      <trkpt lat="43.1835" lon="2.93386">
        <ele>33.3</ele>
        <time>2015-10-04T14:17:16Z</time>
      </trkpt>
      <trkpt lat="43.18352" lon="2.93402">
        <ele>33.3</ele>
        <time>2015-10-04T14:17:17Z</time>
      </trkpt>
      <trkpt lat="43.18358" lon="2.9342">
        <ele>32.82</ele>
        <time>2015-10-04T14:17:18Z</time>
      </trkpt>
      <trkpt lat="43.18362" lon="2.93442">
        <ele>32.34</ele>
        <time>2015-10-04T14:17:19Z</time>
      </trkpt>
      <trkpt lat="43.18362" lon="2.93468">
        <ele>32.34</ele>
        <time>2015-10-04T14:17:20Z</time>
      </trkpt>
      <trkpt lat="43.18362" lon="2.93497">
        <ele>31.86</ele>
        <time>2015-10-04T14:17:21Z</time>
      </trkpt>
      <trkpt lat="43.1837" lon="2.93642">
        <ele>31.38</ele>
        <time>2015-10-04T14:17:26Z</time>
      </trkpt>
      <trkpt lat="43.18368" lon="2.9367">
        <ele>30.9</ele>
        <time>2015-10-04T14:17:27Z</time>
      </trkpt>
      <trkpt lat="43.18365" lon="2.93698">
        <ele>30.9</ele>
        <time>2015-10-04T14:17:28Z</time>
      </trkpt>
      <trkpt lat="43.18322" lon="2.9397">
        <ele>31.38</ele>
        <time>2015-10-04T14:17:37Z</time>
      </trkpt>
      <trkpt lat="43.18275" lon="2.94221">
        <ele>31.38</ele>
        <time>2015-10-04T14:17:46Z</time>
      </trkpt>
      <trkpt lat="43.18231" lon="2.94379">
        <ele>33.78</ele>
        <time>2015-10-04T14:17:53Z</time>
      </trkpt>
      <trkpt lat="43.1823" lon="2.94402">
        <ele>33.78</ele>
        <time>2015-10-04T14:17:54Z</time>
      </trkpt>
      <trkpt lat="43.18231" lon="2.94425">
        <ele>34.26</ele>
        <time>2015-10-04T14:17:55Z</time>
      </trkpt>
      <trkpt lat="43.18234" lon="2.94448">
        <ele>34.74</ele>
        <time>2015-10-04T14:17:56Z</time>
      </trkpt>
      <trkpt lat="43.1824" lon="2.94471">
        <ele>34.74</ele>
        <time>2015-10-04T14:17:57Z</time>
      </trkpt>
      <trkpt lat="43.18246" lon="2.94495">
        <ele>34.74</ele>
        <time>2015-10-04T14:17:58Z</time>
      </trkpt>
      <trkpt lat="43.18282" lon="2.94649">
        <ele>31.38</ele>
        <time>2015-10-04T14:18:04Z</time>
      </trkpt>
      <trkpt lat="43.18283" lon="2.94675">
        <ele>30.9</ele>
        <time>2015-10-04T14:18:05Z</time>
      </trkpt>
      <trkpt lat="43.18283" lon="2.94701">
        <ele>29.94</ele>
        <time>2015-10-04T14:18:06Z</time>
      </trkpt>
      <trkpt lat="43.18259" lon="2.94966">
        <ele>29.94</ele>
        <time>2015-10-04T14:18:15Z</time>
      </trkpt>
      <trkpt lat="43.18197" lon="2.95317">
        <ele>31.38</ele>
        <time>2015-10-04T14:18:26Z</time>
      </trkpt>
      <trkpt lat="43.18113" lon="2.95569">
        <ele>28.02</ele>
        <time>2015-10-04T14:18:34Z</time>
      </trkpt>
      <trkpt lat="43.18059" lon="2.9578">
        <ele>27.53</ele>
        <time>2015-10-04T14:18:41Z</time>
      </trkpt>
      <trkpt lat="43.18054" lon="2.95954">
        <ele>27.53</ele>
        <time>2015-10-04T14:18:48Z</time>
      </trkpt>
      <trkpt lat="43.1807" lon="2.96258">
        <ele>24.17</ele>
        <time>2015-10-04T14:19:02Z</time>
      </trkpt>
      <trkpt lat="43.18077" lon="2.96531">
        <ele>20.32</ele>
        <time>2015-10-04T14:19:15Z</time>
      </trkpt>
      <trkpt lat="43.18073" lon="2.96716">
        <ele>24.17</ele>
        <time>2015-10-04T14:19:24Z</time>
      </trkpt>
      <trkpt lat="43.18069" lon="2.96729">
        <ele>24.65</ele>
        <time>2015-10-04T14:19:25Z</time>
      </trkpt>
      <trkpt lat="43.18064" lon="2.96739">
        <ele>25.13</ele>
        <time>2015-10-04T14:19:26Z</time>
      </trkpt>
      <trkpt lat="43.18057" lon="2.96745">
        <ele>25.61</ele>
        <time>2015-10-04T14:19:27Z</time>
      </trkpt>
      <trkpt lat="43.18049" lon="2.96748">
        <ele>25.61</ele>
        <time>2015-10-04T14:19:28Z</time>
      </trkpt>
      <trkpt lat="43.18039" lon="2.9675">
        <ele>25.61</ele>
        <time>2015-10-04T14:19:29Z</time>
      </trkpt>
      <trkpt lat="43.18027" lon="2.96752">
        <ele>25.61</ele>
        <time>2015-10-04T14:19:30Z</time>
      </trkpt>
      <trkpt lat="43.17923" lon="2.96784">
        <ele>25.61</ele>
        <time>2015-10-04T14:19:37Z</time>
      </trkpt>
      <trkpt lat="43.17822" lon="2.96884">
        <ele>23.21</ele>
        <time>2015-10-04T14:19:43Z</time>
      </trkpt>
      <trkpt lat="43.17808" lon="2.96908">
        <ele>22.73</ele>
        <time>2015-10-04T14:19:44Z</time>
      </trkpt>
      <trkpt lat="43.17795" lon="2.96935">
        <ele>22.25</ele>
        <time>2015-10-04T14:19:45Z</time>
      </trkpt>
      <trkpt lat="43.17784" lon="2.96964">
        <ele>22.25</ele>
        <time>2015-10-04T14:19:46Z</time>
      </trkpt>
      <trkpt lat="43.17697" lon="2.97191">
        <ele>18.88</ele>
        <time>2015-10-04T14:19:54Z</time>
      </trkpt>
      <trkpt lat="43.17583" lon="2.97337">
        <ele>20.32</ele>
        <time>2015-10-04T14:20:01Z</time>
      </trkpt>
      <trkpt lat="43.17435" lon="2.97467">
        <ele>22.25</ele>
        <time>2015-10-04T14:20:10Z</time>
      </trkpt>
      <trkpt lat="43.17252" lon="2.97638">
        <ele>21.29</ele>
        <time>2015-10-04T14:20:21Z</time>
      </trkpt>
      <trkpt lat="43.17089" lon="2.97832">
        <ele>18.4</ele>
        <time>2015-10-04T14:20:31Z</time>
      </trkpt>
      <trkpt lat="43.16972" lon="2.98018">
        <ele>16</ele>
        <time>2015-10-04T14:20:41Z</time>
      </trkpt>
      <trkpt lat="43.16778" lon="2.98354">
        <ele>12.63</ele>
        <time>2015-10-04T14:20:58Z</time>
      </trkpt>
      <trkpt lat="43.16681" lon="2.98529">
        <ele>14.08</ele>
        <time>2015-10-04T14:21:08Z</time>
      </trkpt>
      <trkpt lat="43.16605" lon="2.98669">
        <ele>15.04</ele>
        <time>2015-10-04T14:21:18Z</time>
      </trkpt>
      <trkpt lat="43.16538" lon="2.988">
        <ele>16</ele>
        <time>2015-10-04T14:21:28Z</time>
      </trkpt>
      <trkpt lat="43.1653" lon="2.98809">
        <ele>16</ele>
        <time>2015-10-04T14:21:29Z</time>
      </trkpt>
      <trkpt lat="43.16521" lon="2.98816">
        <ele>16</ele>
        <time>2015-10-04T14:21:30Z</time>
      </trkpt>
      <trkpt lat="43.16511" lon="2.98823">
        <ele>16</ele>
        <time>2015-10-04T14:21:31Z</time>
      </trkpt>
      <trkpt lat="43.16501" lon="2.98831">
        <ele>16</ele>
        <time>2015-10-04T14:21:32Z</time>
      </trkpt>
      <trkpt lat="43.16491" lon="2.98838">
        <ele>16.48</ele>
        <time>2015-10-04T14:21:33Z</time>
      </trkpt>
      <trkpt lat="43.16482" lon="2.98848">
        <ele>16.48</ele>
        <time>2015-10-04T14:21:34Z</time>
      </trkpt>
      <trkpt lat="43.16474" lon="2.98859">
        <ele>16.48</ele>
        <time>2015-10-04T14:21:35Z</time>
      </trkpt>
      <trkpt lat="43.16468" lon="2.98871">
        <ele>16.48</ele>
        <time>2015-10-04T14:21:36Z</time>
      </trkpt>
      <trkpt lat="43.16464" lon="2.98885">
        <ele>16.48</ele>
        <time>2015-10-04T14:21:37Z</time>
      </trkpt>
      <trkpt lat="43.16461" lon="2.989">
        <ele>16.48</ele>
        <time>2015-10-04T14:21:38Z</time>
      </trkpt>
      <trkpt lat="43.1646" lon="2.98916">
        <ele>16.48</ele>
        <time>2015-10-04T14:21:39Z</time>
      </trkpt>
      <trkpt lat="43.1646" lon="2.98931">
        <ele>16.48</ele>
        <time>2015-10-04T14:21:40Z</time>
      </trkpt>
      <trkpt lat="43.1646" lon="2.98945">
        <ele>16.48</ele>
        <time>2015-10-04T14:21:41Z</time>
      </trkpt>
      <trkpt lat="43.1646" lon="2.98958">
        <ele>16</ele>
        <time>2015-10-04T14:21:42Z</time>
      </trkpt>
      <trkpt lat="43.16458" lon="2.9897">
        <ele>16</ele>
        <time>2015-10-04T14:21:43Z</time>
      </trkpt>
      <trkpt lat="43.16455" lon="2.98981">
        <ele>16</ele>
        <time>2015-10-04T14:21:44Z</time>
      </trkpt>
      <trkpt lat="43.16441" lon="2.9902">
        <ele>16</ele>
        <time>2015-10-04T14:21:51Z</time>
      </trkpt>
      <trkpt lat="43.16431" lon="2.99038">
        <ele>12.63</ele>
        <time>2015-10-04T14:22:04Z</time>
      </trkpt>
      <trkpt lat="43.16426" lon="2.99048">
        <ele>12.63</ele>
        <time>2015-10-04T14:22:06Z</time>
      </trkpt>
      <trkpt lat="43.16423" lon="2.99053">
        <ele>13.12</ele>
        <time>2015-10-04T14:22:07Z</time>
      </trkpt>
      <trkpt lat="43.16414" lon="2.99077">
        <ele>13.6</ele>
        <time>2015-10-04T14:22:15Z</time>
      </trkpt>
      <trkpt lat="43.16416" lon="2.99076">
        <ele>14.56</ele>
        <time>2015-10-04T14:22:55Z</time>
      </trkpt>
      <trkpt lat="43.16415" lon="2.99077">
        <ele>15.52</ele>
        <time>2015-10-04T14:23:38Z</time>
      </trkpt>
      <trkpt lat="43.16416" lon="2.99076">
        <ele>16</ele>
        <time>2015-10-04T14:24:23Z</time>
      </trkpt>
      <trkpt lat="43.16414" lon="2.99079">
        <ele>18.88</ele>
        <time>2015-10-04T14:25:01Z</time>
      </trkpt>
      <trkpt lat="43.16413" lon="2.9908">
        <ele>17.92</ele>
        <time>2015-10-04T14:25:56Z</time>
      </trkpt>
      <trkpt lat="43.16415" lon="2.99081">
        <ele>16.48</ele>
        <time>2015-10-04T14:29:03Z</time>
      </trkpt>
      <trkpt lat="43.16413" lon="2.99101">
        <ele>16.96</ele>
        <time>2015-10-04T14:33:36Z</time>
      </trkpt>
      <trkpt lat="43.16392" lon="2.99177">
        <ele>16.48</ele>
        <time>2015-10-04T14:33:41Z</time>
      </trkpt>
      <trkpt lat="43.16343" lon="2.9931">
        <ele>17.44</ele>
        <time>2015-10-04T14:33:46Z</time>
      </trkpt>
      <trkpt lat="43.16275" lon="2.99492">
        <ele>17.92</ele>
        <time>2015-10-04T14:33:53Z</time>
      </trkpt>
      <trkpt lat="43.16271" lon="2.99515">
        <ele>17.92</ele>
        <time>2015-10-04T14:33:54Z</time>
      </trkpt>
      <trkpt lat="43.16271" lon="2.99539">
        <ele>17.44</ele>
        <time>2015-10-04T14:33:55Z</time>
      </trkpt>
      <trkpt lat="43.16273" lon="2.99563">
        <ele>17.44</ele>
        <time>2015-10-04T14:33:56Z</time>
      </trkpt>
      <trkpt lat="43.1628" lon="2.99585">
        <ele>16.96</ele>
        <time>2015-10-04T14:33:57Z</time>
      </trkpt>
      <trkpt lat="43.1629" lon="2.99606">
        <ele>16.48</ele>
        <time>2015-10-04T14:33:58Z</time>
      </trkpt>
      <trkpt lat="43.16304" lon="2.99622">
        <ele>15.52</ele>
        <time>2015-10-04T14:33:59Z</time>
      </trkpt>
      <trkpt lat="43.1632" lon="2.99636">
        <ele>15.04</ele>
        <time>2015-10-04T14:34:00Z</time>
      </trkpt>
      <trkpt lat="43.16338" lon="2.99645">
        <ele>14.08</ele>
        <time>2015-10-04T14:34:01Z</time>
      </trkpt>
      <trkpt lat="43.16357" lon="2.99653">
        <ele>12.63</ele>
        <time>2015-10-04T14:34:02Z</time>
      </trkpt>
      <trkpt lat="43.16418" lon="2.99687">
        <ele>10.23</ele>
        <time>2015-10-04T14:34:05Z</time>
      </trkpt>
      <trkpt lat="43.16437" lon="2.99703">
        <ele>10.23</ele>
        <time>2015-10-04T14:34:06Z</time>
      </trkpt>
      <trkpt lat="43.16455" lon="2.99723">
        <ele>10.71</ele>
        <time>2015-10-04T14:34:07Z</time>
      </trkpt>
      <trkpt lat="43.16471" lon="2.99745">
        <ele>10.71</ele>
        <time>2015-10-04T14:34:08Z</time>
      </trkpt>
      <trkpt lat="43.16486" lon="2.99771">
        <ele>10.71</ele>
        <time>2015-10-04T14:34:09Z</time>
      </trkpt>
      <trkpt lat="43.165" lon="2.99798">
        <ele>11.19</ele>
        <time>2015-10-04T14:34:10Z</time>
      </trkpt>
      <trkpt lat="43.16512" lon="2.99827">
        <ele>11.67</ele>
        <time>2015-10-04T14:34:11Z</time>
      </trkpt>
      <trkpt lat="43.16607" lon="3.00073">
        <ele>12.15</ele>
        <time>2015-10-04T14:34:20Z</time>
      </trkpt>
      <trkpt lat="43.16681" lon="3.00302">
        <ele>11.19</ele>
        <time>2015-10-04T14:34:27Z</time>
      </trkpt>
      <trkpt lat="43.16763" lon="3.00567">
        <ele>9.75</ele>
        <time>2015-10-04T14:34:33Z</time>
      </trkpt>
      <trkpt lat="43.16951" lon="3.01197">
        <ele>5.91</ele>
        <time>2015-10-04T14:34:47Z</time>
      </trkpt>
      <trkpt lat="43.17138" lon="3.01815">
        <ele>4.94</ele>
        <time>2015-10-04T14:35:01Z</time>
      </trkpt>
      <trkpt lat="43.17396" lon="3.02684">
        <ele>6.39</ele>
        <time>2015-10-04T14:35:20Z</time>
      </trkpt>
      <trkpt lat="43.17576" lon="3.03265">
        <ele>6.87</ele>
        <time>2015-10-04T14:35:33Z</time>
      </trkpt>
      <trkpt lat="43.1776" lon="3.0374">
        <ele>6.39</ele>
        <time>2015-10-04T14:35:44Z</time>
      </trkpt>
      <trkpt lat="43.18004" lon="3.04269">
        <ele>5.42</ele>
        <time>2015-10-04T14:35:57Z</time>
      </trkpt>
      <trkpt lat="43.18219" lon="3.04764">
        <ele>4.46</ele>
        <time>2015-10-04T14:36:09Z</time>
      </trkpt>
      <trkpt lat="43.18385" lon="3.05253">
        <ele>3.98</ele>
        <time>2015-10-04T14:36:20Z</time>
      </trkpt>
      <trkpt lat="43.18587" lon="3.05807">
        <ele>3.98</ele>
        <time>2015-10-04T14:36:33Z</time>
      </trkpt>
      <trkpt lat="43.18828" lon="3.06334">
        <ele>4.46</ele>
        <time>2015-10-04T14:36:46Z</time>
      </trkpt>
      <trkpt lat="43.19093" lon="3.06795">
        <ele>5.91</ele>
        <time>2015-10-04T14:36:58Z</time>
      </trkpt>
      <trkpt lat="43.19356" lon="3.07181">
        <ele>6.87</ele>
        <time>2015-10-04T14:37:09Z</time>
      </trkpt>
      <trkpt lat="43.19687" lon="3.07591">
        <ele>16</ele>
        <time>2015-10-04T14:37:22Z</time>
      </trkpt>
      <trkpt lat="43.2005" lon="3.07952">
        <ele>30.42</ele>
        <time>2015-10-04T14:37:35Z</time>
      </trkpt>
      <trkpt lat="43.20541" lon="3.08405">
        <ele>43.4</ele>
        <time>2015-10-04T14:37:52Z</time>
      </trkpt>
      <trkpt lat="43.20859" lon="3.0873">
        <ele>35.71</ele>
        <time>2015-10-04T14:38:03Z</time>
      </trkpt>
      <trkpt lat="43.21135" lon="3.08949">
        <ele>27.05</ele>
        <time>2015-10-04T14:38:12Z</time>
      </trkpt>
      <trkpt lat="43.21434" lon="3.09106">
        <ele>24.17</ele>
        <time>2015-10-04T14:38:21Z</time>
      </trkpt>
      <trkpt lat="43.21869" lon="3.09313">
        <ele>25.61</ele>
        <time>2015-10-04T14:38:34Z</time>
      </trkpt>
      <trkpt lat="43.22154" lon="3.09509">
        <ele>28.98</ele>
        <time>2015-10-04T14:38:43Z</time>
      </trkpt>
      <trkpt lat="43.22403" lon="3.09766">
        <ele>37.15</ele>
        <time>2015-10-04T14:38:52Z</time>
      </trkpt>
      <trkpt lat="43.226" lon="3.10047">
        <ele>44.36</ele>
        <time>2015-10-04T14:39:00Z</time>
      </trkpt>
      <trkpt lat="43.22751" lon="3.10349">
        <ele>45.8</ele>
        <time>2015-10-04T14:39:07Z</time>
      </trkpt>
      <trkpt lat="43.22874" lon="3.1071">
        <ele>45.8</ele>
        <time>2015-10-04T14:39:15Z</time>
      </trkpt>
      <trkpt lat="43.2296" lon="3.11129">
        <ele>46.28</ele>
        <time>2015-10-04T14:39:24Z</time>
      </trkpt>
      <trkpt lat="43.23025" lon="3.11689">
        <ele>45.8</ele>
        <time>2015-10-04T14:39:36Z</time>
      </trkpt>
      <trkpt lat="43.23096" lon="3.12315">
        <ele>35.71</ele>
        <time>2015-10-04T14:39:49Z</time>
      </trkpt>
      <trkpt lat="43.23175" lon="3.12793">
        <ele>28.98</ele>
        <time>2015-10-04T14:39:59Z</time>
      </trkpt>
      <trkpt lat="43.233" lon="3.1325">
        <ele>27.05</ele>
        <time>2015-10-04T14:40:09Z</time>
      </trkpt>
      <trkpt lat="43.23471" lon="3.13683">
        <ele>25.61</ele>
        <time>2015-10-04T14:40:19Z</time>
      </trkpt>
      <trkpt lat="43.23676" lon="3.14073">
        <ele>23.69</ele>
        <time>2015-10-04T14:40:29Z</time>
      </trkpt>
      <trkpt lat="43.23918" lon="3.14428">
        <ele>17.44</ele>
        <time>2015-10-04T14:40:39Z</time>
      </trkpt>
      <trkpt lat="43.24192" lon="3.14741">
        <ele>9.75</ele>
        <time>2015-10-04T14:40:49Z</time>
      </trkpt>
      <trkpt lat="43.24646" lon="3.15224">
        <ele>4.46</ele>
        <time>2015-10-04T14:41:05Z</time>
      </trkpt>
      <trkpt lat="43.25155" lon="3.15767">
        <ele>3.98</ele>
        <time>2015-10-04T14:41:23Z</time>
      </trkpt>
      <trkpt lat="43.25475" lon="3.16127">
        <ele>8.31</ele>
        <time>2015-10-04T14:41:34Z</time>
      </trkpt>
      <trkpt lat="43.25758" lon="3.16498">
        <ele>16.48</ele>
        <time>2015-10-04T14:41:45Z</time>
      </trkpt>
      <trkpt lat="43.26198" lon="3.17125">
        <ele>29.46</ele>
        <time>2015-10-04T14:42:03Z</time>
      </trkpt>
      <trkpt lat="43.26539" lon="3.17541">
        <ele>38.59</ele>
        <time>2015-10-04T14:42:16Z</time>
      </trkpt>
      <trkpt lat="43.26888" lon="3.17876">
        <ele>43.88</ele>
        <time>2015-10-04T14:42:28Z</time>
      </trkpt>
      <trkpt lat="43.27235" lon="3.18133">
        <ele>38.11</ele>
        <time>2015-10-04T14:42:39Z</time>
      </trkpt>
      <trkpt lat="43.27671" lon="3.18384">
        <ele>27.53</ele>
        <time>2015-10-04T14:42:52Z</time>
      </trkpt>
      <trkpt lat="43.28138" lon="3.18627">
        <ele>17.92</ele>
        <time>2015-10-04T14:43:06Z</time>
      </trkpt>
      <trkpt lat="43.28604" lon="3.18908">
        <ele>19.36</ele>
        <time>2015-10-04T14:43:20Z</time>
      </trkpt>
      <trkpt lat="43.28924" lon="3.19171">
        <ele>26.57</ele>
        <time>2015-10-04T14:43:30Z</time>
      </trkpt>
      <trkpt lat="43.2924" lon="3.195">
        <ele>31.86</ele>
        <time>2015-10-04T14:43:41Z</time>
      </trkpt>
      <trkpt lat="43.29504" lon="3.19844">
        <ele>35.71</ele>
        <time>2015-10-04T14:43:51Z</time>
      </trkpt>
      <trkpt lat="43.29759" lon="3.20268">
        <ele>39.55</ele>
        <time>2015-10-04T14:44:02Z</time>
      </trkpt>
      <trkpt lat="43.29957" lon="3.20689">
        <ele>43.4</ele>
        <time>2015-10-04T14:44:12Z</time>
      </trkpt>
      <trkpt lat="43.3013" lon="3.2118">
        <ele>42.92</ele>
        <time>2015-10-04T14:44:23Z</time>
      </trkpt>
      <trkpt lat="43.30262" lon="3.21697">
        <ele>40.51</ele>
        <time>2015-10-04T14:44:34Z</time>
      </trkpt>
      <trkpt lat="43.30343" lon="3.22167">
        <ele>36.67</ele>
        <time>2015-10-04T14:44:44Z</time>
      </trkpt>
      <trkpt lat="43.30404" lon="3.22666">
        <ele>29.46</ele>
        <time>2015-10-04T14:44:54Z</time>
      </trkpt>
      <trkpt lat="43.30467" lon="3.23191">
        <ele>21.29</ele>
        <time>2015-10-04T14:45:05Z</time>
      </trkpt>
      <trkpt lat="43.3057" lon="3.23751">
        <ele>12.15</ele>
        <time>2015-10-04T14:45:17Z</time>
      </trkpt>
      <trkpt lat="43.30725" lon="3.24298">
        <ele>10.23</ele>
        <time>2015-10-04T14:45:29Z</time>
      </trkpt>
      <trkpt lat="43.30928" lon="3.24819">
        <ele>10.23</ele>
        <time>2015-10-04T14:45:41Z</time>
      </trkpt>
      <trkpt lat="43.31173" lon="3.25304">
        <ele>10.23</ele>
        <time>2015-10-04T14:45:53Z</time>
      </trkpt>
      <trkpt lat="43.31454" lon="3.25748">
        <ele>9.75</ele>
        <time>2015-10-04T14:46:05Z</time>
      </trkpt>
      <trkpt lat="43.31879" lon="3.26347">
        <ele>10.23</ele>
        <time>2015-10-04T14:46:22Z</time>
      </trkpt>
      <trkpt lat="43.32321" lon="3.26964">
        <ele>14.56</ele>
        <time>2015-10-04T14:46:40Z</time>
      </trkpt>
      <trkpt lat="43.32737" lon="3.27545">
        <ele>19.84</ele>
        <time>2015-10-04T14:46:57Z</time>
      </trkpt>
      <trkpt lat="43.33008" lon="3.27918">
        <ele>23.21</ele>
        <time>2015-10-04T14:47:08Z</time>
      </trkpt>
      <trkpt lat="43.33398" lon="3.2847">
        <ele>28.02</ele>
        <time>2015-10-04T14:47:24Z</time>
      </trkpt>
      <trkpt lat="43.33624" lon="3.28843">
        <ele>31.38</ele>
        <time>2015-10-04T14:47:34Z</time>
      </trkpt>
      <trkpt lat="43.3379" lon="3.29215">
        <ele>34.26</ele>
        <time>2015-10-04T14:47:43Z</time>
      </trkpt>
      <trkpt lat="43.33916" lon="3.29616">
        <ele>36.19</ele>
        <time>2015-10-04T14:47:52Z</time>
      </trkpt>
      <trkpt lat="43.34034" lon="3.30125">
        <ele>39.55</ele>
        <time>2015-10-04T14:48:03Z</time>
      </trkpt>
      <trkpt lat="43.34233" lon="3.30994">
        <ele>43.88</ele>
        <time>2015-10-04T14:48:22Z</time>
      </trkpt>
      <trkpt lat="43.34404" lon="3.31731">
        <ele>40.51</ele>
        <time>2015-10-04T14:48:38Z</time>
      </trkpt>
      <trkpt lat="43.34525" lon="3.32247">
        <ele>37.63</ele>
        <time>2015-10-04T14:48:49Z</time>
      </trkpt>
      <trkpt lat="43.34663" lon="3.32649">
        <ele>33.78</ele>
        <time>2015-10-04T14:48:58Z</time>
      </trkpt>
      <trkpt lat="43.34851" lon="3.33013">
        <ele>31.38</ele>
        <time>2015-10-04T14:49:07Z</time>
      </trkpt>
      <trkpt lat="43.35081" lon="3.33319">
        <ele>28.98</ele>
        <time>2015-10-04T14:49:16Z</time>
      </trkpt>
      <trkpt lat="43.35451" lon="3.33696">
        <ele>26.09</ele>
        <time>2015-10-04T14:49:29Z</time>
      </trkpt>
      <trkpt lat="43.3572" lon="3.34012">
        <ele>28.02</ele>
        <time>2015-10-04T14:49:39Z</time>
      </trkpt>
      <trkpt lat="43.35903" lon="3.34312">
        <ele>29.46</ele>
        <time>2015-10-04T14:49:47Z</time>
      </trkpt>
      <trkpt lat="43.36064" lon="3.34697">
        <ele>30.9</ele>
        <time>2015-10-04T14:49:56Z</time>
      </trkpt>
      <trkpt lat="43.36162" lon="3.35072">
        <ele>32.34</ele>
        <time>2015-10-04T14:50:04Z</time>
      </trkpt>
      <trkpt lat="43.36215" lon="3.35468">
        <ele>34.74</ele>
        <time>2015-10-04T14:50:12Z</time>
      </trkpt>
      <trkpt lat="43.36228" lon="3.35914">
        <ele>37.15</ele>
        <time>2015-10-04T14:50:21Z</time>
      </trkpt>
      <trkpt lat="43.36239" lon="3.36599">
        <ele>40.03</ele>
        <time>2015-10-04T14:50:35Z</time>
      </trkpt>
      <trkpt lat="43.36264" lon="3.37243">
        <ele>40.03</ele>
        <time>2015-10-04T14:50:48Z</time>
      </trkpt>
      <trkpt lat="43.36331" lon="3.37731">
        <ele>37.15</ele>
        <time>2015-10-04T14:50:58Z</time>
      </trkpt>
      <trkpt lat="43.36444" lon="3.38198">
        <ele>31.86</ele>
        <time>2015-10-04T14:51:08Z</time>
      </trkpt>
      <trkpt lat="43.36601" lon="3.38641">
        <ele>26.57</ele>
        <time>2015-10-04T14:51:18Z</time>
      </trkpt>
      <trkpt lat="43.36853" lon="3.39178">
        <ele>23.21</ele>
        <time>2015-10-04T14:51:31Z</time>
      </trkpt>
      <trkpt lat="43.37195" lon="3.39865">
        <ele>26.57</ele>
        <time>2015-10-04T14:51:48Z</time>
      </trkpt>
      <trkpt lat="43.37425" lon="3.40363">
        <ele>28.98</ele>
        <time>2015-10-04T14:52:00Z</time>
      </trkpt>
      <trkpt lat="43.37557" lon="3.4077">
        <ele>31.38</ele>
        <time>2015-10-04T14:52:09Z</time>
      </trkpt>
      <trkpt lat="43.3764" lon="3.41198">
        <ele>33.3</ele>
        <time>2015-10-04T14:52:18Z</time>
      </trkpt>
      <trkpt lat="43.37682" lon="3.41683">
        <ele>32.82</ele>
        <time>2015-10-04T14:52:28Z</time>
      </trkpt>
      <trkpt lat="43.37674" lon="3.4217">
        <ele>28.5</ele>
        <time>2015-10-04T14:52:38Z</time>
      </trkpt>
      <trkpt lat="43.37654" lon="3.42826">
        <ele>22.73</ele>
        <time>2015-10-04T14:52:52Z</time>
      </trkpt>
      <trkpt lat="43.3767" lon="3.43405">
        <ele>19.36</ele>
        <time>2015-10-04T14:53:04Z</time>
      </trkpt>
      <trkpt lat="43.37729" lon="3.43792">
        <ele>17.44</ele>
        <time>2015-10-04T14:53:12Z</time>
      </trkpt>
      <trkpt lat="43.37837" lon="3.44209">
        <ele>15.52</ele>
        <time>2015-10-04T14:53:21Z</time>
      </trkpt>
      <trkpt lat="43.37991" lon="3.44596">
        <ele>14.56</ele>
        <time>2015-10-04T14:53:30Z</time>
      </trkpt>
      <trkpt lat="43.38182" lon="3.44943">
        <ele>14.56</ele>
        <time>2015-10-04T14:53:39Z</time>
      </trkpt>
      <trkpt lat="43.38423" lon="3.45263">
        <ele>14.08</ele>
        <time>2015-10-04T14:53:49Z</time>
      </trkpt>
      <trkpt lat="43.38686" lon="3.45588">
        <ele>14.08</ele>
        <time>2015-10-04T14:53:59Z</time>
      </trkpt>
      <trkpt lat="43.39149" lon="3.46162">
        <ele>16</ele>
        <time>2015-10-04T14:54:17Z</time>
      </trkpt>
      <trkpt lat="43.3943" lon="3.46557">
        <ele>21.77</ele>
        <time>2015-10-04T14:54:29Z</time>
      </trkpt>
      <trkpt lat="43.39806" lon="3.47157">
        <ele>32.82</ele>
        <time>2015-10-04T14:54:46Z</time>
      </trkpt>
      <trkpt lat="43.40197" lon="3.4779">
        <ele>43.4</ele>
        <time>2015-10-04T14:55:03Z</time>
      </trkpt>
      <trkpt lat="43.40436" lon="3.48229">
        <ele>46.28</ele>
        <time>2015-10-04T14:55:14Z</time>
      </trkpt>
      <trkpt lat="43.40588" lon="3.48619">
        <ele>46.76</ele>
        <time>2015-10-04T14:55:23Z</time>
      </trkpt>
      <trkpt lat="43.40707" lon="3.49086">
        <ele>47.24</ele>
        <time>2015-10-04T14:55:33Z</time>
      </trkpt>
      <trkpt lat="43.40805" lon="3.49663">
        <ele>46.28</ele>
        <time>2015-10-04T14:55:45Z</time>
      </trkpt>
      <trkpt lat="43.40918" lon="3.5023">
        <ele>40.99</ele>
        <time>2015-10-04T14:55:57Z</time>
      </trkpt>
      <trkpt lat="43.41116" lon="3.5092">
        <ele>34.74</ele>
        <time>2015-10-04T14:56:12Z</time>
      </trkpt>
      <trkpt lat="43.41337" lon="3.51494">
        <ele>37.15</ele>
        <time>2015-10-04T14:56:25Z</time>
      </trkpt>
      <trkpt lat="43.41591" lon="3.52049">
        <ele>41.47</ele>
        <time>2015-10-04T14:56:38Z</time>
      </trkpt>
      <trkpt lat="43.4184" lon="3.52612">
        <ele>44.84</ele>
        <time>2015-10-04T14:56:51Z</time>
      </trkpt>
      <trkpt lat="43.41992" lon="3.5306">
        <ele>43.88</ele>
        <time>2015-10-04T14:57:01Z</time>
      </trkpt>
      <trkpt lat="43.42169" lon="3.53761">
        <ele>34.74</ele>
        <time>2015-10-04T14:57:16Z</time>
      </trkpt>
      <trkpt lat="43.42266" lon="3.54297">
        <ele>27.53</ele>
        <time>2015-10-04T14:57:27Z</time>
      </trkpt>
      <trkpt lat="43.42392" lon="3.55013">
        <ele>17.92</ele>
        <time>2015-10-04T14:57:42Z</time>
      </trkpt>
      <trkpt lat="43.42498" lon="3.55331">
        <ele>16.48</ele>
        <time>2015-10-04T14:57:49Z</time>
      </trkpt>
      <trkpt lat="43.42678" lon="3.55709">
        <ele>16.96</ele>
        <time>2015-10-04T14:57:58Z</time>
      </trkpt>
      <trkpt lat="43.42865" lon="3.56012">
        <ele>20.81</ele>
        <time>2015-10-04T14:58:06Z</time>
      </trkpt>
      <trkpt lat="43.43092" lon="3.56253">
        <ele>25.61</ele>
        <time>2015-10-04T14:58:14Z</time>
      </trkpt>
      <trkpt lat="43.43383" lon="3.56459">
        <ele>28.5</ele>
        <time>2015-10-04T14:58:23Z</time>
      </trkpt>
      <trkpt lat="43.43729" lon="3.56722">
        <ele>28.02</ele>
        <time>2015-10-04T14:58:34Z</time>
      </trkpt>
      <trkpt lat="43.44012" lon="3.57011">
        <ele>27.53</ele>
        <time>2015-10-04T14:58:44Z</time>
      </trkpt>
      <trkpt lat="43.44486" lon="3.57506">
        <ele>28.98</ele>
        <time>2015-10-04T14:59:02Z</time>
      </trkpt>
      <trkpt lat="43.44722" lon="3.57802">
        <ele>31.38</ele>
        <time>2015-10-04T14:59:11Z</time>
      </trkpt>
      <trkpt lat="43.44871" lon="3.58082">
        <ele>31.86</ele>
        <time>2015-10-04T14:59:18Z</time>
      </trkpt>
      <trkpt lat="43.44976" lon="3.58391">
        <ele>28.98</ele>
        <time>2015-10-04T14:59:25Z</time>
      </trkpt>
      <trkpt lat="43.45047" lon="3.58776">
        <ele>26.57</ele>
        <time>2015-10-04T14:59:33Z</time>
      </trkpt>
      <trkpt lat="43.45111" lon="3.59355">
        <ele>21.77</ele>
        <time>2015-10-04T14:59:45Z</time>
      </trkpt>
      <trkpt lat="43.45188" lon="3.59873">
        <ele>19.36</ele>
        <time>2015-10-04T14:59:56Z</time>
      </trkpt>
      <trkpt lat="43.4529" lon="3.60229">
        <ele>21.29</ele>
        <time>2015-10-04T15:00:04Z</time>
      </trkpt>
      <trkpt lat="43.45448" lon="3.60588">
        <ele>28.5</ele>
        <time>2015-10-04T15:00:13Z</time>
      </trkpt>
      <trkpt lat="43.45664" lon="3.60943">
        <ele>36.67</ele>
        <time>2015-10-04T15:00:23Z</time>
      </trkpt>
      <trkpt lat="43.45847" lon="3.61281">
        <ele>44.36</ele>
        <time>2015-10-04T15:00:32Z</time>
      </trkpt>
      <trkpt lat="43.46033" lon="3.61778">
        <ele>54.93</ele>
        <time>2015-10-04T15:00:44Z</time>
      </trkpt>
      <trkpt lat="43.46138" lon="3.62179">
        <ele>62.62</ele>
        <time>2015-10-04T15:00:53Z</time>
      </trkpt>
      <trkpt lat="43.46235" lon="3.62615">
        <ele>70.79</ele>
        <time>2015-10-04T15:01:03Z</time>
      </trkpt>
      <trkpt lat="43.46347" lon="3.62957">
        <ele>74.16</ele>
        <time>2015-10-04T15:01:12Z</time>
      </trkpt>
      <trkpt lat="43.46491" lon="3.63266">
        <ele>74.16</ele>
        <time>2015-10-04T15:01:20Z</time>
      </trkpt>
      <trkpt lat="43.46659" lon="3.63546">
        <ele>72.72</ele>
        <time>2015-10-04T15:01:28Z</time>
      </trkpt>
      <trkpt lat="43.46922" lon="3.63974">
        <ele>70.79</ele>
        <time>2015-10-04T15:01:41Z</time>
      </trkpt>
      <trkpt lat="43.47236" lon="3.64514">
        <ele>68.39</ele>
        <time>2015-10-04T15:01:58Z</time>
      </trkpt>
      <trkpt lat="43.47513" lon="3.65046">
        <ele>65.99</ele>
        <time>2015-10-04T15:02:14Z</time>
      </trkpt>
      <trkpt lat="43.47757" lon="3.65568">
        <ele>58.78</ele>
        <time>2015-10-04T15:02:29Z</time>
      </trkpt>
      <trkpt lat="43.4787" lon="3.65934">
        <ele>52.05</ele>
        <time>2015-10-04T15:02:38Z</time>
      </trkpt>
      <trkpt lat="43.47944" lon="3.66356">
        <ele>43.88</ele>
        <time>2015-10-04T15:02:48Z</time>
      </trkpt>
      <trkpt lat="43.47971" lon="3.66764">
        <ele>36.19</ele>
        <time>2015-10-04T15:02:57Z</time>
      </trkpt>
      <trkpt lat="43.47997" lon="3.67439">
        <ele>23.69</ele>
        <time>2015-10-04T15:03:12Z</time>
      </trkpt>
      <trkpt lat="43.48035" lon="3.67967">
        <ele>19.36</ele>
        <time>2015-10-04T15:03:24Z</time>
      </trkpt>
      <trkpt lat="43.48111" lon="3.68349">
        <ele>20.81</ele>
        <time>2015-10-04T15:03:33Z</time>
      </trkpt>
      <trkpt lat="43.48246" lon="3.68805">
        <ele>22.73</ele>
        <time>2015-10-04T15:03:44Z</time>
      </trkpt>
      <trkpt lat="43.48447" lon="3.69481">
        <ele>26.09</ele>
        <time>2015-10-04T15:04:00Z</time>
      </trkpt>
      <trkpt lat="43.48539" lon="3.69935">
        <ele>30.9</ele>
        <time>2015-10-04T15:04:10Z</time>
      </trkpt>
      <trkpt lat="43.48687" lon="3.7072">
        <ele>44.36</ele>
        <time>2015-10-04T15:04:27Z</time>
      </trkpt>
      <trkpt lat="43.48796" lon="3.71078">
        <ele>50.61</ele>
        <time>2015-10-04T15:04:35Z</time>
      </trkpt>
      <trkpt lat="43.48966" lon="3.71445">
        <ele>57.34</ele>
        <time>2015-10-04T15:04:44Z</time>
      </trkpt>
      <trkpt lat="43.49169" lon="3.71751">
        <ele>63.1</ele>
        <time>2015-10-04T15:04:53Z</time>
      </trkpt>
      <trkpt lat="43.49412" lon="3.72022">
        <ele>68.39</ele>
        <time>2015-10-04T15:05:02Z</time>
      </trkpt>
      <trkpt lat="43.49736" lon="3.72366">
        <ele>76.56</ele>
        <time>2015-10-04T15:05:13Z</time>
      </trkpt>
      <trkpt lat="43.50085" lon="3.72794">
        <ele>81.85</ele>
        <time>2015-10-04T15:05:26Z</time>
      </trkpt>
      <trkpt lat="43.5037" lon="3.73239">
        <ele>83.29</ele>
        <time>2015-10-04T15:05:38Z</time>
      </trkpt>
      <trkpt lat="43.50713" lon="3.73832">
        <ele>84.25</ele>
        <time>2015-10-04T15:05:54Z</time>
      </trkpt>
      <trkpt lat="43.51012" lon="3.74297">
        <ele>84.73</ele>
        <time>2015-10-04T15:06:07Z</time>
      </trkpt>
      <trkpt lat="43.51249" lon="3.74563">
        <ele>82.81</ele>
        <time>2015-10-04T15:06:16Z</time>
      </trkpt>
      <trkpt lat="43.51566" lon="3.74863">
        <ele>76.56</ele>
        <time>2015-10-04T15:06:27Z</time>
      </trkpt>
      <trkpt lat="43.51814" lon="3.75145">
        <ele>71.27</ele>
        <time>2015-10-04T15:06:36Z</time>
      </trkpt>
      <trkpt lat="43.52021" lon="3.7548">
        <ele>65.99</ele>
        <time>2015-10-04T15:06:45Z</time>
      </trkpt>
      <trkpt lat="43.52296" lon="3.76038">
        <ele>62.14</ele>
        <time>2015-10-04T15:06:59Z</time>
      </trkpt>
      <trkpt lat="43.52556" lon="3.76552">
        <ele>60.7</ele>
        <time>2015-10-04T15:07:12Z</time>
      </trkpt>
      <trkpt lat="43.52882" lon="3.77132">
        <ele>57.34</ele>
        <time>2015-10-04T15:07:27Z</time>
      </trkpt>
      <trkpt lat="43.53281" lon="3.77781">
        <ele>55.41</ele>
        <time>2015-10-04T15:07:45Z</time>
      </trkpt>
      <trkpt lat="43.53503" lon="3.78064">
        <ele>53.97</ele>
        <time>2015-10-04T15:07:54Z</time>
      </trkpt>
      <trkpt lat="43.53853" lon="3.78417">
        <ele>51.09</ele>
        <time>2015-10-04T15:08:08Z</time>
      </trkpt>
      <trkpt lat="43.54091" lon="3.78709">
        <ele>49.65</ele>
        <time>2015-10-04T15:08:18Z</time>
      </trkpt>
      <trkpt lat="43.54376" lon="3.79119">
        <ele>48.2</ele>
        <time>2015-10-04T15:08:31Z</time>
      </trkpt>
      <trkpt lat="43.54687" lon="3.79569">
        <ele>45.8</ele>
        <time>2015-10-04T15:08:46Z</time>
      </trkpt>
      <trkpt lat="43.54875" lon="3.79885">
        <ele>44.36</ele>
        <time>2015-10-04T15:08:56Z</time>
      </trkpt>
      <trkpt lat="43.54987" lon="3.80178">
        <ele>43.4</ele>
        <time>2015-10-04T15:09:04Z</time>
      </trkpt>
      <trkpt lat="43.55056" lon="3.80501">
        <ele>41.95</ele>
        <time>2015-10-04T15:09:12Z</time>
      </trkpt>
      <trkpt lat="43.55077" lon="3.8076">
        <ele>39.07</ele>
        <time>2015-10-04T15:09:19Z</time>
      </trkpt>
      <trkpt lat="43.55108" lon="3.81228">
        <ele>30.9</ele>
        <time>2015-10-04T15:09:32Z</time>
      </trkpt>
      <trkpt lat="43.55181" lon="3.81582">
        <ele>24.17</ele>
        <time>2015-10-04T15:09:41Z</time>
      </trkpt>
      <trkpt lat="43.55289" lon="3.81874">
        <ele>20.32</ele>
        <time>2015-10-04T15:09:49Z</time>
      </trkpt>
      <trkpt lat="43.55451" lon="3.82168">
        <ele>20.32</ele>
        <time>2015-10-04T15:09:58Z</time>
      </trkpt>
      <trkpt lat="43.55645" lon="3.82399">
        <ele>23.21</ele>
        <time>2015-10-04T15:10:07Z</time>
      </trkpt>
      <trkpt lat="43.55873" lon="3.82614">
        <ele>26.57</ele>
        <time>2015-10-04T15:10:17Z</time>
      </trkpt>
      <trkpt lat="43.55994" lon="3.8278">
        <ele>28.5</ele>
        <time>2015-10-04T15:10:24Z</time>
      </trkpt>
      <trkpt lat="43.56077" lon="3.82918">
        <ele>29.46</ele>
        <time>2015-10-04T15:10:31Z</time>
      </trkpt>
      <trkpt lat="43.56123" lon="3.83041">
        <ele>31.38</ele>
        <time>2015-10-04T15:10:38Z</time>
      </trkpt>
      <trkpt lat="43.56127" lon="3.83052">
        <ele>31.38</ele>
        <time>2015-10-04T15:10:39Z</time>
      </trkpt>
      <trkpt lat="43.56132" lon="3.8306">
        <ele>31.86</ele>
        <time>2015-10-04T15:10:40Z</time>
      </trkpt>
      <trkpt lat="43.56142" lon="3.83076">
        <ele>32.82</ele>
        <time>2015-10-04T15:10:46Z</time>
      </trkpt>
      <trkpt lat="43.5614" lon="3.83079">
        <ele>30.9</ele>
        <time>2015-10-04T15:10:58Z</time>
      </trkpt>
      <trkpt lat="43.56141" lon="3.83089">
        <ele>22.73</ele>
        <time>2015-10-04T15:11:17Z</time>
      </trkpt>
      <trkpt lat="43.56149" lon="3.83097">
        <ele>23.21</ele>
        <time>2015-10-04T15:11:18Z</time>
      </trkpt>
      <trkpt lat="43.56208" lon="3.83173">
        <ele>25.13</ele>
        <time>2015-10-04T15:11:24Z</time>
      </trkpt>
      <trkpt lat="43.56222" lon="3.83187">
        <ele>26.09</ele>
        <time>2015-10-04T15:11:25Z</time>
      </trkpt>
      <trkpt lat="43.56357" lon="3.83312">
        <ele>28.02</ele>
        <time>2015-10-04T15:11:35Z</time>
      </trkpt>
      <trkpt lat="43.56434" lon="3.83413">
        <ele>29.46</ele>
        <time>2015-10-04T15:11:41Z</time>
      </trkpt>
      <trkpt lat="43.56531" lon="3.83639">
        <ele>29.94</ele>
        <time>2015-10-04T15:11:49Z</time>
      </trkpt>
      <trkpt lat="43.5664" lon="3.83968">
        <ele>28.98</ele>
        <time>2015-10-04T15:11:59Z</time>
      </trkpt>
      <trkpt lat="43.56768" lon="3.8444">
        <ele>25.13</ele>
        <time>2015-10-04T15:12:12Z</time>
      </trkpt>
      <trkpt lat="43.56906" lon="3.85074">
        <ele>20.32</ele>
        <time>2015-10-04T15:12:29Z</time>
      </trkpt>
      <trkpt lat="43.5706" lon="3.85837">
        <ele>16.96</ele>
        <time>2015-10-04T15:12:49Z</time>
      </trkpt>
      <trkpt lat="43.57128" lon="3.86317">
        <ele>19.84</ele>
        <time>2015-10-04T15:13:01Z</time>
      </trkpt>
      <trkpt lat="43.57199" lon="3.86866">
        <ele>23.69</ele>
        <time>2015-10-04T15:13:15Z</time>
      </trkpt>
      <trkpt lat="43.57278" lon="3.87225">
        <ele>22.25</ele>
        <time>2015-10-04T15:13:24Z</time>
      </trkpt>
      <trkpt lat="43.57359" lon="3.87469">
        <ele>19.84</ele>
        <time>2015-10-04T15:13:31Z</time>
      </trkpt>
      <trkpt lat="43.57396" lon="3.87565">
        <ele>17.44</ele>
        <time>2015-10-04T15:13:35Z</time>
      </trkpt>
      <trkpt lat="43.57398" lon="3.87584">
        <ele>16.48</ele>
        <time>2015-10-04T15:13:36Z</time>
      </trkpt>
      <trkpt lat="43.57397" lon="3.87602">
        <ele>16</ele>
        <time>2015-10-04T15:13:37Z</time>
      </trkpt>
      <trkpt lat="43.57394" lon="3.87618">
        <ele>15.52</ele>
        <time>2015-10-04T15:13:38Z</time>
      </trkpt>
      <trkpt lat="43.57389" lon="3.87632">
        <ele>15.04</ele>
        <time>2015-10-04T15:13:39Z</time>
      </trkpt>
      <trkpt lat="43.57381" lon="3.87643">
        <ele>14.56</ele>
        <time>2015-10-04T15:13:40Z</time>
      </trkpt>
      <trkpt lat="43.57368" lon="3.87645">
        <ele>14.08</ele>
        <time>2015-10-04T15:13:41Z</time>
      </trkpt>
      <trkpt lat="43.57357" lon="3.87645">
        <ele>14.56</ele>
        <time>2015-10-04T15:13:42Z</time>
      </trkpt>
      <trkpt lat="43.57346" lon="3.87643">
        <ele>15.52</ele>
        <time>2015-10-04T15:13:43Z</time>
      </trkpt>
      <trkpt lat="43.57336" lon="3.87637">
        <ele>16</ele>
        <time>2015-10-04T15:13:44Z</time>
      </trkpt>
      <trkpt lat="43.57327" lon="3.87629">
        <ele>16.48</ele>
        <time>2015-10-04T15:13:45Z</time>
      </trkpt>
      <trkpt lat="43.5732" lon="3.87618">
        <ele>16.96</ele>
        <time>2015-10-04T15:13:46Z</time>
      </trkpt>
      <trkpt lat="43.57314" lon="3.87605">
        <ele>17.44</ele>
        <time>2015-10-04T15:13:47Z</time>
      </trkpt>
      <trkpt lat="43.57311" lon="3.8759">
        <ele>18.4</ele>
        <time>2015-10-04T15:13:48Z</time>
      </trkpt>
      <trkpt lat="43.57309" lon="3.87575">
        <ele>18.88</ele>
        <time>2015-10-04T15:13:49Z</time>
      </trkpt>
      <trkpt lat="43.57311" lon="3.8756">
        <ele>19.84</ele>
        <time>2015-10-04T15:13:50Z</time>
      </trkpt>
      <trkpt lat="43.57315" lon="3.87546">
        <ele>20.32</ele>
        <time>2015-10-04T15:13:51Z</time>
      </trkpt>
      <trkpt lat="43.57321" lon="3.87533">
        <ele>21.29</ele>
        <time>2015-10-04T15:13:52Z</time>
      </trkpt>
      <trkpt lat="43.57329" lon="3.87522">
        <ele>21.77</ele>
        <time>2015-10-04T15:13:53Z</time>
      </trkpt>
      <trkpt lat="43.57338" lon="3.87513">
        <ele>21.77</ele>
        <time>2015-10-04T15:13:54Z</time>
      </trkpt>
      <trkpt lat="43.57349" lon="3.87505">
        <ele>22.25</ele>
        <time>2015-10-04T15:13:55Z</time>
      </trkpt>
      <trkpt lat="43.57359" lon="3.87497">
        <ele>22.25</ele>
        <time>2015-10-04T15:13:56Z</time>
      </trkpt>
      <trkpt lat="43.5742" lon="3.87456">
        <ele>21.29</ele>
        <time>2015-10-04T15:14:02Z</time>
      </trkpt>
      <trkpt lat="43.5743" lon="3.87452">
        <ele>20.81</ele>
        <time>2015-10-04T15:14:03Z</time>
      </trkpt>
      <trkpt lat="43.5744" lon="3.87449">
        <ele>19.84</ele>
        <time>2015-10-04T15:14:04Z</time>
      </trkpt>
      <trkpt lat="43.57451" lon="3.87448">
        <ele>19.84</ele>
        <time>2015-10-04T15:14:05Z</time>
      </trkpt>
      <trkpt lat="43.57462" lon="3.87448">
        <ele>19.36</ele>
        <time>2015-10-04T15:14:06Z</time>
      </trkpt>
      <trkpt lat="43.57472" lon="3.87448">
        <ele>18.88</ele>
        <time>2015-10-04T15:14:07Z</time>
      </trkpt>
      <trkpt lat="43.57505" lon="3.87444">
        <ele>18.4</ele>
        <time>2015-10-04T15:14:10Z</time>
      </trkpt>
      <trkpt lat="43.57613" lon="3.87405">
        <ele>16.96</ele>
        <time>2015-10-04T15:14:20Z</time>
      </trkpt>
      <trkpt lat="43.57624" lon="3.87404">
        <ele>16.96</ele>
        <time>2015-10-04T15:14:25Z</time>
      </trkpt>
      <trkpt lat="43.57627" lon="3.87405">
        <ele>17.44</ele>
        <time>2015-10-04T15:14:26Z</time>
      </trkpt>
      <trkpt lat="43.57632" lon="3.8741">
        <ele>17.44</ele>
        <time>2015-10-04T15:14:27Z</time>
      </trkpt>
      <trkpt lat="43.57651" lon="3.87423">
        <ele>17.44</ele>
        <time>2015-10-04T15:14:29Z</time>
      </trkpt>
      <trkpt lat="43.57662" lon="3.87426">
        <ele>17.92</ele>
        <time>2015-10-04T15:14:30Z</time>
      </trkpt>
      <trkpt lat="43.57673" lon="3.87423">
        <ele>17.92</ele>
        <time>2015-10-04T15:14:31Z</time>
      </trkpt>
      <trkpt lat="43.57684" lon="3.87414">
        <ele>17.92</ele>
        <time>2015-10-04T15:14:32Z</time>
      </trkpt>
      <trkpt lat="43.57693" lon="3.87402">
        <ele>17.92</ele>
        <time>2015-10-04T15:14:33Z</time>
      </trkpt>
      <trkpt lat="43.57699" lon="3.87387">
        <ele>17.92</ele>
        <time>2015-10-04T15:14:34Z</time>
      </trkpt>
      <trkpt lat="43.57706" lon="3.8737">
        <ele>17.92</ele>
        <time>2015-10-04T15:14:35Z</time>
      </trkpt>
      <trkpt lat="43.57716" lon="3.87353">
        <ele>17.92</ele>
        <time>2015-10-04T15:14:36Z</time>
      </trkpt>
      <trkpt lat="43.57728" lon="3.87338">
        <ele>18.88</ele>
        <time>2015-10-04T15:14:37Z</time>
      </trkpt>
      <trkpt lat="43.5774" lon="3.87321">
        <ele>19.36</ele>
        <time>2015-10-04T15:14:38Z</time>
      </trkpt>
      <trkpt lat="43.5785" lon="3.87152">
        <ele>25.61</ele>
        <time>2015-10-04T15:14:47Z</time>
      </trkpt>
      <trkpt lat="43.57928" lon="3.87015">
        <ele>20.32</ele>
        <time>2015-10-04T15:14:55Z</time>
      </trkpt>
      <trkpt lat="43.57958" lon="3.86949">
        <ele>19.36</ele>
        <time>2015-10-04T15:15:01Z</time>
      </trkpt>
      <trkpt lat="43.57962" lon="3.86938">
        <ele>19.36</ele>
        <time>2015-10-04T15:15:08Z</time>
      </trkpt>
      <trkpt lat="43.57975" lon="3.8691">
        <ele>19.36</ele>
        <time>2015-10-04T15:15:12Z</time>
      </trkpt>
      <trkpt lat="43.5803" lon="3.86777">
        <ele>19.36</ele>
        <time>2015-10-04T15:15:19Z</time>
      </trkpt>
      <trkpt lat="43.58145" lon="3.86515">
        <ele>20.81</ele>
        <time>2015-10-04T15:15:31Z</time>
      </trkpt>
      <trkpt lat="43.5822" lon="3.86356">
        <ele>26.09</ele>
        <time>2015-10-04T15:15:39Z</time>
      </trkpt>
      <trkpt lat="43.58326" lon="3.8619">
        <ele>29.46</ele>
        <time>2015-10-04T15:15:48Z</time>
      </trkpt>
      <trkpt lat="43.58339" lon="3.86172">
        <ele>29.94</ele>
        <time>2015-10-04T15:15:49Z</time>
      </trkpt>
      <trkpt lat="43.58354" lon="3.86156">
        <ele>30.42</ele>
        <time>2015-10-04T15:15:50Z</time>
      </trkpt>
      <trkpt lat="43.58468" lon="3.8606">
        <ele>36.67</ele>
        <time>2015-10-04T15:15:58Z</time>
      </trkpt>
      <trkpt lat="43.58499" lon="3.86033">
        <ele>39.07</ele>
        <time>2015-10-04T15:16:03Z</time>
      </trkpt>
      <trkpt lat="43.58498" lon="3.86035">
        <ele>39.55</ele>
        <time>2015-10-04T15:16:18Z</time>
      </trkpt>
      <trkpt lat="43.58526" lon="3.86012">
        <ele>40.51</ele>
        <time>2015-10-04T15:16:52Z</time>
      </trkpt>
      <trkpt lat="43.58623" lon="3.85925">
        <ele>43.88</ele>
        <time>2015-10-04T15:16:59Z</time>
      </trkpt>
      <trkpt lat="43.58781" lon="3.85829">
        <ele>43.4</ele>
        <time>2015-10-04T15:17:08Z</time>
      </trkpt>
      <trkpt lat="43.58797" lon="3.85816">
        <ele>43.4</ele>
        <time>2015-10-04T15:17:09Z</time>
      </trkpt>
      <trkpt lat="43.58812" lon="3.858">
        <ele>43.4</ele>
        <time>2015-10-04T15:17:10Z</time>
      </trkpt>
      <trkpt lat="43.58877" lon="3.85735">
        <ele>43.88</ele>
        <time>2015-10-04T15:17:14Z</time>
      </trkpt>
      <trkpt lat="43.58894" lon="3.85725">
        <ele>43.88</ele>
        <time>2015-10-04T15:17:15Z</time>
      </trkpt>
      <trkpt lat="43.58966" lon="3.85687">
        <ele>47.72</ele>
        <time>2015-10-04T15:17:21Z</time>
      </trkpt>
      <trkpt lat="43.5897" lon="3.85686">
        <ele>48.2</ele>
        <time>2015-10-04T15:17:22Z</time>
      </trkpt>
      <trkpt lat="43.5897" lon="3.85687">
        <ele>48.68</ele>
        <time>2015-10-04T15:17:31Z</time>
      </trkpt>
      <trkpt lat="43.58973" lon="3.85688">
        <ele>47.24</ele>
        <time>2015-10-04T15:17:46Z</time>
      </trkpt>
      <trkpt lat="43.58978" lon="3.85691">
        <ele>47.72</ele>
        <time>2015-10-04T15:17:47Z</time>
      </trkpt>
      <trkpt lat="43.58986" lon="3.85697">
        <ele>48.2</ele>
        <time>2015-10-04T15:17:48Z</time>
      </trkpt>
      <trkpt lat="43.58995" lon="3.85704">
        <ele>48.2</ele>
        <time>2015-10-04T15:17:49Z</time>
      </trkpt>
      <trkpt lat="43.59005" lon="3.85709">
        <ele>48.68</ele>
        <time>2015-10-04T15:17:50Z</time>
      </trkpt>
      <trkpt lat="43.59016" lon="3.85711">
        <ele>48.68</ele>
        <time>2015-10-04T15:17:51Z</time>
      </trkpt>
      <trkpt lat="43.59026" lon="3.85709">
        <ele>49.16</ele>
        <time>2015-10-04T15:17:52Z</time>
      </trkpt>
      <trkpt lat="43.59037" lon="3.85704">
        <ele>49.65</ele>
        <time>2015-10-04T15:17:53Z</time>
      </trkpt>
      <trkpt lat="43.59046" lon="3.85697">
        <ele>49.65</ele>
        <time>2015-10-04T15:17:54Z</time>
      </trkpt>
      <trkpt lat="43.59054" lon="3.85684">
        <ele>49.65</ele>
        <time>2015-10-04T15:17:55Z</time>
      </trkpt>
      <trkpt lat="43.59059" lon="3.8567">
        <ele>49.65</ele>
        <time>2015-10-04T15:17:56Z</time>
      </trkpt>
      <trkpt lat="43.59062" lon="3.85656">
        <ele>49.65</ele>
        <time>2015-10-04T15:17:57Z</time>
      </trkpt>
      <trkpt lat="43.59063" lon="3.8564">
        <ele>49.65</ele>
        <time>2015-10-04T15:17:58Z</time>
      </trkpt>
      <trkpt lat="43.59061" lon="3.85625">
        <ele>49.65</ele>
        <time>2015-10-04T15:17:59Z</time>
      </trkpt>
      <trkpt lat="43.59054" lon="3.85609">
        <ele>49.16</ele>
        <time>2015-10-04T15:18:00Z</time>
      </trkpt>
      <trkpt lat="43.59045" lon="3.85595">
        <ele>48.68</ele>
        <time>2015-10-04T15:18:01Z</time>
      </trkpt>
      <trkpt lat="43.59034" lon="3.85583">
        <ele>48.68</ele>
        <time>2015-10-04T15:18:02Z</time>
      </trkpt>
      <trkpt lat="43.59021" lon="3.85579">
        <ele>47.72</ele>
        <time>2015-10-04T15:18:03Z</time>
      </trkpt>
      <trkpt lat="43.59009" lon="3.85577">
        <ele>47.24</ele>
        <time>2015-10-04T15:18:04Z</time>
      </trkpt>
      <trkpt lat="43.58997" lon="3.85579">
        <ele>46.76</ele>
        <time>2015-10-04T15:18:05Z</time>
      </trkpt>
      <trkpt lat="43.58985" lon="3.85582">
        <ele>46.76</ele>
        <time>2015-10-04T15:18:06Z</time>
      </trkpt>
      <trkpt lat="43.58972" lon="3.85585">
        <ele>46.28</ele>
        <time>2015-10-04T15:18:07Z</time>
      </trkpt>
      <trkpt lat="43.5896" lon="3.85585">
        <ele>45.32</ele>
        <time>2015-10-04T15:18:08Z</time>
      </trkpt>
      <trkpt lat="43.58949" lon="3.8558">
        <ele>44.84</ele>
        <time>2015-10-04T15:18:09Z</time>
      </trkpt>
      <trkpt lat="43.58938" lon="3.85571">
        <ele>44.84</ele>
        <time>2015-10-04T15:18:10Z</time>
      </trkpt>
      <trkpt lat="43.58928" lon="3.85561">
        <ele>44.36</ele>
        <time>2015-10-04T15:18:11Z</time>
      </trkpt>
      <trkpt lat="43.58919" lon="3.85549">
        <ele>44.36</ele>
        <time>2015-10-04T15:18:12Z</time>
      </trkpt>
      <trkpt lat="43.58886" lon="3.85511">
        <ele>43.88</ele>
        <time>2015-10-04T15:18:16Z</time>
      </trkpt>
      <trkpt lat="43.58881" lon="3.85503">
        <ele>43.88</ele>
        <time>2015-10-04T15:18:17Z</time>
      </trkpt>
      <trkpt lat="43.58877" lon="3.85493">
        <ele>43.88</ele>
        <time>2015-10-04T15:18:18Z</time>
      </trkpt>
      <trkpt lat="43.5888" lon="3.85481">
        <ele>43.88</ele>
        <time>2015-10-04T15:18:19Z</time>
      </trkpt>
      <trkpt lat="43.58884" lon="3.85471">
        <ele>43.88</ele>
        <time>2015-10-04T15:18:20Z</time>
      </trkpt>
      <trkpt lat="43.58889" lon="3.85464">
        <ele>44.36</ele>
        <time>2015-10-04T15:18:21Z</time>
      </trkpt>
      <trkpt lat="43.58896" lon="3.8546">
        <ele>44.36</ele>
        <time>2015-10-04T15:18:22Z</time>
      </trkpt>
      <trkpt lat="43.58904" lon="3.8546">
        <ele>44.84</ele>
        <time>2015-10-04T15:18:23Z</time>
      </trkpt>
      <trkpt lat="43.58913" lon="3.85466">
        <ele>45.32</ele>
        <time>2015-10-04T15:18:24Z</time>
      </trkpt>
      <trkpt lat="43.58921" lon="3.85473">
        <ele>45.8</ele>
        <time>2015-10-04T15:18:25Z</time>
      </trkpt>
      <trkpt lat="43.58929" lon="3.85481">
        <ele>46.28</ele>
        <time>2015-10-04T15:18:26Z</time>
      </trkpt>
      <trkpt lat="43.58973" lon="3.85522">
        <ele>48.68</ele>
        <time>2015-10-04T15:18:34Z</time>
      </trkpt>
      <trkpt lat="43.58977" lon="3.8552">
        <ele>48.2</ele>
        <time>2015-10-04T15:18:35Z</time>
      </trkpt>
      <trkpt lat="43.5898" lon="3.85514">
        <ele>47.72</ele>
        <time>2015-10-04T15:18:36Z</time>
      </trkpt>
      <trkpt lat="43.58984" lon="3.85506">
        <ele>47.72</ele>
        <time>2015-10-04T15:18:37Z</time>
      </trkpt>
      <trkpt lat="43.58988" lon="3.85498">
        <ele>47.72</ele>
        <time>2015-10-04T15:18:38Z</time>
      </trkpt>
      <trkpt lat="43.58992" lon="3.8549">
        <ele>47.72</ele>
        <time>2015-10-04T15:18:39Z</time>
      </trkpt>
      <trkpt lat="43.58996" lon="3.85483">
        <ele>47.72</ele>
        <time>2015-10-04T15:18:40Z</time>
      </trkpt>
      <trkpt lat="43.58997" lon="3.85475">
        <ele>47.72</ele>
        <time>2015-10-04T15:18:41Z</time>
      </trkpt>
      <trkpt lat="43.58996" lon="3.85468">
        <ele>47.72</ele>
        <time>2015-10-04T15:18:42Z</time>
      </trkpt>
      <trkpt lat="43.58996" lon="3.8546">
        <ele>47.72</ele>
        <time>2015-10-04T15:18:43Z</time>
      </trkpt>
      <trkpt lat="43.58996" lon="3.85453">
        <ele>47.72</ele>
        <time>2015-10-04T15:18:44Z</time>
      </trkpt>
      <trkpt lat="43.58998" lon="3.85447">
        <ele>48.2</ele>
        <time>2015-10-04T15:18:45Z</time>
      </trkpt>
      <trkpt lat="43.59001" lon="3.85444">
        <ele>48.68</ele>
        <time>2015-10-04T15:18:46Z</time>
      </trkpt>
      <trkpt lat="43.59004" lon="3.85443">
        <ele>48.68</ele>
        <time>2015-10-04T15:18:47Z</time>
      </trkpt>
      <trkpt lat="43.59006" lon="3.85444">
        <ele>48.68</ele>
        <time>2015-10-04T15:18:48Z</time>
      </trkpt>
      <trkpt lat="43.59009" lon="3.85446">
        <ele>49.16</ele>
        <time>2015-10-04T15:18:49Z</time>
      </trkpt>
      <trkpt lat="43.59011" lon="3.8545">
        <ele>49.16</ele>
        <time>2015-10-04T15:18:50Z</time>
      </trkpt>
      <trkpt lat="43.59012" lon="3.85455">
        <ele>49.65</ele>
        <time>2015-10-04T15:18:51Z</time>
      </trkpt>
      <trkpt lat="43.59014" lon="3.8546">
        <ele>49.65</ele>
        <time>2015-10-04T15:18:52Z</time>
      </trkpt>
      <trkpt lat="43.59014" lon="3.85464">
        <ele>49.65</ele>
        <time>2015-10-04T15:18:53Z</time>
      </trkpt>
      <trkpt lat="43.59014" lon="3.85466">
        <ele>49.65</ele>
        <time>2015-10-04T15:18:54Z</time>
      </trkpt>
      <trkpt lat="43.59014" lon="3.85468">
        <ele>49.65</ele>
        <time>2015-10-04T15:18:55Z</time>
      </trkpt>
      <trkpt lat="43.59014" lon="3.85469">
        <ele>49.65</ele>
        <time>2015-10-04T15:18:56Z</time>
      </trkpt>
      <trkpt lat="43.59015" lon="3.85473">
        <ele>49.65</ele>
        <time>2015-10-04T15:18:58Z</time>
      </trkpt>
      <trkpt lat="43.59016" lon="3.85474">
        <ele>49.16</ele>
        <time>2015-10-04T15:18:59Z</time>
      </trkpt>
      <trkpt lat="43.59017" lon="3.85482">
        <ele>46.76</ele>
        <time>2015-10-04T15:19:13Z</time>
      </trkpt>
      <trkpt lat="43.59016" lon="3.85488">
        <ele>46.76</ele>
        <time>2015-10-04T15:19:36Z</time>
      </trkpt>
      <trkpt lat="43.59013" lon="3.85492">
        <ele>43.4</ele>
        <time>2015-10-04T15:20:04Z</time>
      </trkpt>
      <trkpt lat="43.59015" lon="3.8549">
        <ele>43.4</ele>
        <time>2015-10-04T15:20:32Z</time>
      </trkpt>
      <trkpt lat="43.5902" lon="3.85485">
        <ele>46.76</ele>
        <time>2015-10-04T15:20:55Z</time>
      </trkpt>
      <trkpt lat="43.59013" lon="3.85491">
        <ele>48.2</ele>
        <time>2015-10-04T15:21:23Z</time>
      </trkpt>
      <trkpt lat="43.5901" lon="3.85496">
        <ele>54.45</ele>
        <time>2015-10-04T15:21:48Z</time>
      </trkpt>
      <trkpt lat="43.59011" lon="3.85496">
        <ele>50.61</ele>
        <time>2015-10-04T15:22:09Z</time>
      </trkpt>
      <trkpt lat="43.59011" lon="3.85497">
        <ele>50.13</ele>
        <time>2015-10-04T15:22:10Z</time>
      </trkpt>
      <trkpt lat="43.59013" lon="3.855">
        <ele>50.13</ele>
        <time>2015-10-04T15:22:11Z</time>
      </trkpt>
      <trkpt lat="43.59018" lon="3.85501">
        <ele>50.13</ele>
        <time>2015-10-04T15:22:12Z</time>
      </trkpt>
      <trkpt lat="43.59023" lon="3.85502">
        <ele>50.13</ele>
        <time>2015-10-04T15:22:13Z</time>
      </trkpt>
      <trkpt lat="43.59028" lon="3.85502">
        <ele>50.13</ele>
        <time>2015-10-04T15:22:14Z</time>
      </trkpt>
      <trkpt lat="43.59033" lon="3.85501">
        <ele>50.13</ele>
        <time>2015-10-04T15:22:15Z</time>
      </trkpt>
      <trkpt lat="43.59039" lon="3.85502">
        <ele>50.13</ele>
        <time>2015-10-04T15:22:16Z</time>
      </trkpt>
      <trkpt lat="43.59044" lon="3.85504">
        <ele>48.68</ele>
        <time>2015-10-04T15:22:17Z</time>
      </trkpt>
      <trkpt lat="43.59048" lon="3.85506">
        <ele>47.72</ele>
        <time>2015-10-04T15:22:18Z</time>
      </trkpt>
      <trkpt lat="43.59049" lon="3.85509">
        <ele>47.24</ele>
        <time>2015-10-04T15:22:19Z</time>
      </trkpt>
      <trkpt lat="43.5905" lon="3.85512">
        <ele>47.24</ele>
        <time>2015-10-04T15:22:20Z</time>
      </trkpt>
      <trkpt lat="43.59049" lon="3.85518">
        <ele>46.76</ele>
        <time>2015-10-04T15:22:21Z</time>
      </trkpt>
      <trkpt lat="43.59046" lon="3.85525">
        <ele>46.76</ele>
        <time>2015-10-04T15:22:22Z</time>
      </trkpt>
      <trkpt lat="43.59041" lon="3.85534">
        <ele>46.76</ele>
        <time>2015-10-04T15:22:23Z</time>
      </trkpt>
      <trkpt lat="43.59027" lon="3.85563">
        <ele>46.76</ele>
        <time>2015-10-04T15:22:26Z</time>
      </trkpt>
      <trkpt lat="43.59019" lon="3.85575">
        <ele>46.28</ele>
        <time>2015-10-04T15:22:30Z</time>
      </trkpt>
      <trkpt lat="43.59014" lon="3.85578">
        <ele>46.28</ele>
        <time>2015-10-04T15:22:31Z</time>
      </trkpt>
      <trkpt lat="43.59006" lon="3.85581">
        <ele>46.28</ele>
        <time>2015-10-04T15:22:32Z</time>
      </trkpt>
      <trkpt lat="43.58997" lon="3.85585">
        <ele>45.8</ele>
        <time>2015-10-04T15:22:33Z</time>
      </trkpt>
      <trkpt lat="43.58989" lon="3.85591">
        <ele>45.32</ele>
        <time>2015-10-04T15:22:34Z</time>
      </trkpt>
      <trkpt lat="43.5898" lon="3.85599">
        <ele>45.32</ele>
        <time>2015-10-04T15:22:35Z</time>
      </trkpt>
      <trkpt lat="43.58973" lon="3.85611">
        <ele>44.84</ele>
        <time>2015-10-04T15:22:36Z</time>
      </trkpt>
      <trkpt lat="43.58968" lon="3.85625">
        <ele>44.84</ele>
        <time>2015-10-04T15:22:37Z</time>
      </trkpt>
      <trkpt lat="43.58964" lon="3.85641">
        <ele>44.36</ele>
        <time>2015-10-04T15:22:38Z</time>
      </trkpt>
      <trkpt lat="43.58963" lon="3.85658">
        <ele>44.36</ele>
        <time>2015-10-04T15:22:39Z</time>
      </trkpt>
      <trkpt lat="43.58966" lon="3.85674">
        <ele>44.36</ele>
        <time>2015-10-04T15:22:40Z</time>
      </trkpt>
      <trkpt lat="43.58972" lon="3.85688">
        <ele>44.36</ele>
        <time>2015-10-04T15:22:41Z</time>
      </trkpt>
      <trkpt lat="43.58978" lon="3.85698">
        <ele>44.36</ele>
        <time>2015-10-04T15:22:42Z</time>
      </trkpt>
      <trkpt lat="43.58984" lon="3.85707">
        <ele>44.36</ele>
        <time>2015-10-04T15:22:43Z</time>
      </trkpt>
      <trkpt lat="43.58992" lon="3.85714">
        <ele>44.36</ele>
        <time>2015-10-04T15:22:44Z</time>
      </trkpt>
      <trkpt lat="43.59003" lon="3.8572">
        <ele>44.36</ele>
        <time>2015-10-04T15:22:45Z</time>
      </trkpt>
      <trkpt lat="43.59015" lon="3.85721">
        <ele>44.36</ele>
        <time>2015-10-04T15:22:46Z</time>
      </trkpt>
      <trkpt lat="43.59027" lon="3.85719">
        <ele>44.36</ele>
        <time>2015-10-04T15:22:47Z</time>
      </trkpt>
      <trkpt lat="43.59039" lon="3.85712">
        <ele>44.84</ele>
        <time>2015-10-04T15:22:48Z</time>
      </trkpt>
      <trkpt lat="43.59049" lon="3.85702">
        <ele>44.84</ele>
        <time>2015-10-04T15:22:49Z</time>
      </trkpt>
      <trkpt lat="43.59057" lon="3.85689">
        <ele>44.84</ele>
        <time>2015-10-04T15:22:50Z</time>
      </trkpt>
      <trkpt lat="43.59063" lon="3.85672">
        <ele>44.84</ele>
        <time>2015-10-04T15:22:51Z</time>
      </trkpt>
      <trkpt lat="43.59066" lon="3.85654">
        <ele>44.36</ele>
        <time>2015-10-04T15:22:52Z</time>
      </trkpt>
      <trkpt lat="43.59066" lon="3.85636">
        <ele>43.88</ele>
        <time>2015-10-04T15:22:53Z</time>
      </trkpt>
      <trkpt lat="43.59063" lon="3.85619">
        <ele>43.4</ele>
        <time>2015-10-04T15:22:54Z</time>
      </trkpt>
      <trkpt lat="43.59057" lon="3.85603">
        <ele>43.4</ele>
        <time>2015-10-04T15:22:55Z</time>
      </trkpt>
      <trkpt lat="43.59052" lon="3.85587">
        <ele>42.92</ele>
        <time>2015-10-04T15:22:56Z</time>
      </trkpt>
      <trkpt lat="43.59049" lon="3.85571">
        <ele>42.92</ele>
        <time>2015-10-04T15:22:57Z</time>
      </trkpt>
      <trkpt lat="43.59051" lon="3.85551">
        <ele>42.92</ele>
        <time>2015-10-04T15:22:58Z</time>
      </trkpt>
      <trkpt lat="43.59056" lon="3.85533">
        <ele>42.92</ele>
        <time>2015-10-04T15:22:59Z</time>
      </trkpt>
      <trkpt lat="43.59064" lon="3.85518">
        <ele>43.4</ele>
        <time>2015-10-04T15:23:00Z</time>
      </trkpt>
      <trkpt lat="43.59075" lon="3.85503">
        <ele>43.88</ele>
        <time>2015-10-04T15:23:01Z</time>
      </trkpt>
      <trkpt lat="43.59087" lon="3.85489">
        <ele>44.84</ele>
        <time>2015-10-04T15:23:02Z</time>
      </trkpt>
      <trkpt lat="43.59099" lon="3.85476">
        <ele>45.32</ele>
        <time>2015-10-04T15:23:03Z</time>
      </trkpt>
      <trkpt lat="43.59223" lon="3.85322">
        <ele>50.61</ele>
        <time>2015-10-04T15:23:15Z</time>
      </trkpt>
      <trkpt lat="43.59253" lon="3.85284">
        <ele>50.61</ele>
        <time>2015-10-04T15:23:21Z</time>
      </trkpt>
      <trkpt lat="43.59253" lon="3.85284">
        <ele>52.05</ele>
        <time>2015-10-04T15:23:32Z</time>
      </trkpt>
      <trkpt lat="43.5927" lon="3.85256">
        <ele>55.41</ele>
        <time>2015-10-04T15:23:52Z</time>
      </trkpt>
      <trkpt lat="43.59333" lon="3.85171">
        <ele>55.89</ele>
        <time>2015-10-04T15:23:58Z</time>
      </trkpt>
      <trkpt lat="43.5946" lon="3.85003">
        <ele>57.34</ele>
        <time>2015-10-04T15:24:08Z</time>
      </trkpt>
      <trkpt lat="43.59536" lon="3.84833">
        <ele>55.89</ele>
        <time>2015-10-04T15:24:16Z</time>
      </trkpt>
      <trkpt lat="43.59659" lon="3.84538">
        <ele>52.05</ele>
        <time>2015-10-04T15:24:30Z</time>
      </trkpt>
      <trkpt lat="43.59753" lon="3.8433">
        <ele>45.32</ele>
        <time>2015-10-04T15:24:40Z</time>
      </trkpt>
      <trkpt lat="43.59864" lon="3.84192">
        <ele>43.4</ele>
        <time>2015-10-04T15:24:48Z</time>
      </trkpt>
      <trkpt lat="43.60033" lon="3.84034">
        <ele>45.32</ele>
        <time>2015-10-04T15:24:59Z</time>
      </trkpt>
      <trkpt lat="43.60202" lon="3.8395">
        <ele>49.16</ele>
        <time>2015-10-04T15:25:07Z</time>
      </trkpt>
      <trkpt lat="43.60436" lon="3.83906">
        <ele>53.97</ele>
        <time>2015-10-04T15:25:17Z</time>
      </trkpt>
      <trkpt lat="43.60675" lon="3.83805">
        <ele>62.14</ele>
        <time>2015-10-04T15:25:27Z</time>
      </trkpt>
      <trkpt lat="43.60804" lon="3.83805">
        <ele>65.03</ele>
        <time>2015-10-04T15:25:32Z</time>
      </trkpt>
      <trkpt lat="43.60966" lon="3.83861">
        <ele>67.91</ele>
        <time>2015-10-04T15:25:39Z</time>
      </trkpt>
      <trkpt lat="43.61065" lon="3.83893">
        <ele>65.51</ele>
        <time>2015-10-04T15:25:44Z</time>
      </trkpt>
      <trkpt lat="43.6128" lon="3.83892">
        <ele>66.47</ele>
        <time>2015-10-04T15:25:55Z</time>
      </trkpt>
      <trkpt lat="43.61397" lon="3.83922">
        <ele>66.47</ele>
        <time>2015-10-04T15:26:03Z</time>
      </trkpt>
      <trkpt lat="43.61557" lon="3.84012">
        <ele>77.04</ele>
        <time>2015-10-04T15:26:16Z</time>
      </trkpt>
      <trkpt lat="43.61566" lon="3.84021">
        <ele>78</ele>
        <time>2015-10-04T15:26:17Z</time>
      </trkpt>
      <trkpt lat="43.61575" lon="3.8403">
        <ele>78.48</ele>
        <time>2015-10-04T15:26:18Z</time>
      </trkpt>
      <trkpt lat="43.61583" lon="3.8404">
        <ele>79.45</ele>
        <time>2015-10-04T15:26:19Z</time>
      </trkpt>
      <trkpt lat="43.6167" lon="3.84177">
        <ele>81.85</ele>
        <time>2015-10-04T15:26:30Z</time>
      </trkpt>
      <trkpt lat="43.61744" lon="3.84297">
        <ele>75.12</ele>
        <time>2015-10-04T15:26:39Z</time>
      </trkpt>
      <trkpt lat="43.61759" lon="3.84318">
        <ele>72.24</ele>
        <time>2015-10-04T15:26:45Z</time>
      </trkpt>
      <trkpt lat="43.61762" lon="3.84321">
        <ele>68.39</ele>
        <time>2015-10-04T15:27:12Z</time>
      </trkpt>
      <trkpt lat="43.61806" lon="3.84383">
        <ele>63.58</ele>
        <time>2015-10-04T15:27:20Z</time>
      </trkpt>
      <trkpt lat="43.61813" lon="3.84395">
        <ele>62.62</ele>
        <time>2015-10-04T15:27:25Z</time>
      </trkpt>
      <trkpt lat="43.61827" lon="3.84388">
        <ele>67.43</ele>
        <time>2015-10-04T15:35:46Z</time>
      </trkpt>
      <trkpt lat="43.61828" lon="3.84388">
        <ele>66.95</ele>
        <time>2015-10-04T15:35:56Z</time>
      </trkpt>
      <trkpt lat="43.61813" lon="3.84368">
        <ele>65.03</ele>
        <time>2015-10-04T15:36:04Z</time>
      </trkpt>
      <trkpt lat="43.61809" lon="3.84367">
        <ele>65.51</ele>
        <time>2015-10-04T15:36:05Z</time>
      </trkpt>
      <trkpt lat="43.61805" lon="3.84364">
        <ele>65.51</ele>
        <time>2015-10-04T15:36:06Z</time>
      </trkpt>
      <trkpt lat="43.61801" lon="3.84359">
        <ele>65.99</ele>
        <time>2015-10-04T15:36:07Z</time>
      </trkpt>
      <trkpt lat="43.61796" lon="3.8435">
        <ele>66.47</ele>
        <time>2015-10-04T15:36:08Z</time>
      </trkpt>
      <trkpt lat="43.61793" lon="3.84339">
        <ele>66.95</ele>
        <time>2015-10-04T15:36:09Z</time>
      </trkpt>
      <trkpt lat="43.61789" lon="3.84328">
        <ele>67.43</ele>
        <time>2015-10-04T15:36:10Z</time>
      </trkpt>
      <trkpt lat="43.61785" lon="3.84303">
        <ele>69.35</ele>
        <time>2015-10-04T15:36:12Z</time>
      </trkpt>
      <trkpt lat="43.61785" lon="3.8429">
        <ele>69.35</ele>
        <time>2015-10-04T15:36:13Z</time>
      </trkpt>
      <trkpt lat="43.61787" lon="3.84276">
        <ele>69.83</ele>
        <time>2015-10-04T15:36:14Z</time>
      </trkpt>
      <trkpt lat="43.61791" lon="3.84261">
        <ele>69.83</ele>
        <time>2015-10-04T15:36:15Z</time>
      </trkpt>
      <trkpt lat="43.61796" lon="3.84247">
        <ele>70.31</ele>
        <time>2015-10-04T15:36:16Z</time>
      </trkpt>
      <trkpt lat="43.61822" lon="3.84152">
        <ele>73.2</ele>
        <time>2015-10-04T15:36:24Z</time>
      </trkpt>
      <trkpt lat="43.61823" lon="3.84138">
        <ele>73.68</ele>
        <time>2015-10-04T15:36:25Z</time>
      </trkpt>
      <trkpt lat="43.61823" lon="3.84122">
        <ele>74.64</ele>
        <time>2015-10-04T15:36:26Z</time>
      </trkpt>
      <trkpt lat="43.61816" lon="3.84024">
        <ele>78</ele>
        <time>2015-10-04T15:36:33Z</time>
      </trkpt>
      <trkpt lat="43.61815" lon="3.84017">
        <ele>78.48</ele>
        <time>2015-10-04T15:36:34Z</time>
      </trkpt>
      <trkpt lat="43.6181" lon="3.84001">
        <ele>80.89</ele>
        <time>2015-10-04T15:36:41Z</time>
      </trkpt>
      <trkpt lat="43.618" lon="3.83975">
        <ele>83.77</ele>
        <time>2015-10-04T15:36:50Z</time>
      </trkpt>
      <trkpt lat="43.61793" lon="3.83957">
        <ele>81.85</ele>
        <time>2015-10-04T15:37:30Z</time>
      </trkpt>
      <trkpt lat="43.61796" lon="3.83945">
        <ele>81.37</ele>
        <time>2015-10-04T15:37:33Z</time>
      </trkpt>
      <trkpt lat="43.61799" lon="3.83941">
        <ele>81.37</ele>
        <time>2015-10-04T15:37:34Z</time>
      </trkpt>
      <trkpt lat="43.61859" lon="3.83891">
        <ele>79.93</ele>
        <time>2015-10-04T15:37:44Z</time>
      </trkpt>
      <trkpt lat="43.61943" lon="3.83821">
        <ele>79.93</ele>
        <time>2015-10-04T15:37:59Z</time>
      </trkpt>
      <trkpt lat="43.61974" lon="3.83802">
        <ele>79.93</ele>
        <time>2015-10-04T15:38:03Z</time>
      </trkpt>
      <trkpt lat="43.61982" lon="3.83802">
        <ele>79.93</ele>
        <time>2015-10-04T15:38:04Z</time>
      </trkpt>
      <trkpt lat="43.6199" lon="3.83807">
        <ele>79.93</ele>
        <time>2015-10-04T15:38:05Z</time>
      </trkpt>
      <trkpt lat="43.61998" lon="3.83816">
        <ele>80.41</ele>
        <time>2015-10-04T15:38:06Z</time>
      </trkpt>
      <trkpt lat="43.62007" lon="3.83826">
        <ele>81.37</ele>
        <time>2015-10-04T15:38:07Z</time>
      </trkpt>
      <trkpt lat="43.62081" lon="3.83917">
        <ele>79.45</ele>
        <time>2015-10-04T15:38:15Z</time>
      </trkpt>
      <trkpt lat="43.62098" lon="3.83955">
        <ele>75.12</ele>
        <time>2015-10-04T15:38:18Z</time>
      </trkpt>
      <trkpt lat="43.62101" lon="3.83969">
        <ele>74.64</ele>
        <time>2015-10-04T15:38:19Z</time>
      </trkpt>
      <trkpt lat="43.6211" lon="3.84029">
        <ele>68.39</ele>
        <time>2015-10-04T15:38:24Z</time>
      </trkpt>
      <trkpt lat="43.62108" lon="3.84037">
        <ele>67.91</ele>
        <time>2015-10-04T15:38:25Z</time>
      </trkpt>
      <trkpt lat="43.62104" lon="3.84042">
        <ele>67.43</ele>
        <time>2015-10-04T15:38:26Z</time>
      </trkpt>
      <trkpt lat="43.62099" lon="3.84045">
        <ele>66.95</ele>
        <time>2015-10-04T15:38:27Z</time>
      </trkpt>
      <trkpt lat="43.62094" lon="3.84047">
        <ele>66.47</ele>
        <time>2015-10-04T15:38:28Z</time>
      </trkpt>
      <trkpt lat="43.6209" lon="3.84048">
        <ele>66.47</ele>
        <time>2015-10-04T15:38:29Z</time>
      </trkpt>
      <trkpt lat="43.62086" lon="3.84047">
        <ele>65.99</ele>
        <time>2015-10-04T15:38:30Z</time>
      </trkpt>
      <trkpt lat="43.62084" lon="3.84036">
        <ele>65.99</ele>
        <time>2015-10-04T15:38:36Z</time>
      </trkpt>
      <trkpt lat="43.62082" lon="3.84033">
        <ele>70.79</ele>
        <time>2015-10-04T15:39:06Z</time>
      </trkpt>
      <trkpt lat="43.62087" lon="3.84025">
        <ele>71.76</ele>
        <time>2015-10-04T15:39:09Z</time>
      </trkpt>
      <trkpt lat="43.62085" lon="3.84014">
        <ele>72.24</ele>
        <time>2015-10-04T15:39:14Z</time>
      </trkpt>
    </trkseg>
  </trk>
</gpx>